<?xml version="1.0" encoding="UTF-8" standalone="no" ?>
<gpx xmlns="http://www.topografix.com/GPX/1/1" xmlns:xsi="http://www.w3.org/2001/XMLSchema-instance" xsi:schemaLocation="http://www.topografix.com/GPX/1/1 http://www.topografix.com/GPX/1/1/gpx.xsd" version="1.1" creator="VisuGPX - https://www.visugpx.com">
  <metadata>
    <name>O-SO-Bois Brossais Surchaud Grand Chemin Rouans Pré Berthelot Chauvé Pont du Clion Pornic  Les Moutiers La Fradouillère Eoliènes Noyeux La Mulonière St Pazane St Mars Coutais Bouaye</name>
    <desc><![CDATA[Chemin entre D80 et D58 cabossé
Chemin entre D5 et D605 (éoliènes) ok première partie, à partir du Y cabossé]]></desc>
  </metadata>
  <trk>
    <name><![CDATA[2021-05-08 12:28 +02:00]]></name>
    <trkseg>
      <trkpt lat="47.16789" lon="-1.62655">
        <ele>64</ele>
        <time>2021-05-08T10:28:14.000Z</time>
      </trkpt>
      <trkpt lat="47.16781" lon="-1.62648">
        <ele>64</ele>
        <time>2021-05-08T10:29:55.000Z</time>
      </trkpt>
      <trkpt lat="47.16775" lon="-1.62638">
        <ele>57</ele>
        <time>2021-05-08T10:30:38.000Z</time>
      </trkpt>
      <trkpt lat="47.1678" lon="-1.6265">
        <ele>68</ele>
        <time>2021-05-08T10:31:59.000Z</time>
      </trkpt>
      <trkpt lat="47.16785" lon="-1.62663">
        <ele>70</ele>
        <time>2021-05-08T10:32:53.000Z</time>
      </trkpt>
      <trkpt lat="47.16777" lon="-1.62677">
        <ele>70</ele>
        <time>2021-05-08T10:32:56.000Z</time>
      </trkpt>
      <trkpt lat="47.16766" lon="-1.62675">
        <ele>70</ele>
        <time>2021-05-08T10:32:58.000Z</time>
      </trkpt>
      <trkpt lat="47.16756" lon="-1.62672">
        <ele>69</ele>
        <time>2021-05-08T10:33:00.000Z</time>
      </trkpt>
      <trkpt lat="47.16745" lon="-1.62675">
        <ele>70</ele>
        <time>2021-05-08T10:33:02.000Z</time>
      </trkpt>
      <trkpt lat="47.16734" lon="-1.62683">
        <ele>70</ele>
        <time>2021-05-08T10:33:04.000Z</time>
      </trkpt>
      <trkpt lat="47.16725" lon="-1.6269">
        <ele>70</ele>
        <time>2021-05-08T10:33:06.000Z</time>
      </trkpt>
      <trkpt lat="47.1672" lon="-1.62701">
        <ele>70</ele>
        <time>2021-05-08T10:33:08.000Z</time>
      </trkpt>
      <trkpt lat="47.16725" lon="-1.62716">
        <ele>70</ele>
        <time>2021-05-08T10:33:10.000Z</time>
      </trkpt>
      <trkpt lat="47.16732" lon="-1.62731">
        <ele>69</ele>
        <time>2021-05-08T10:33:12.000Z</time>
      </trkpt>
      <trkpt lat="47.1674" lon="-1.62744">
        <ele>68</ele>
        <time>2021-05-08T10:33:14.000Z</time>
      </trkpt>
      <trkpt lat="47.1675" lon="-1.62755">
        <ele>67</ele>
        <time>2021-05-08T10:33:16.000Z</time>
      </trkpt>
      <trkpt lat="47.1676" lon="-1.62767">
        <ele>67</ele>
        <time>2021-05-08T10:33:18.000Z</time>
      </trkpt>
      <trkpt lat="47.16772" lon="-1.62777">
        <ele>67</ele>
        <time>2021-05-08T10:33:20.000Z</time>
      </trkpt>
      <trkpt lat="47.16783" lon="-1.62789">
        <ele>67</ele>
        <time>2021-05-08T10:33:22.000Z</time>
      </trkpt>
      <trkpt lat="47.16796" lon="-1.628">
        <ele>67</ele>
        <time>2021-05-08T10:33:24.000Z</time>
      </trkpt>
      <trkpt lat="47.16808" lon="-1.6281">
        <ele>68</ele>
        <time>2021-05-08T10:33:26.000Z</time>
      </trkpt>
      <trkpt lat="47.16818" lon="-1.6282">
        <ele>68</ele>
        <time>2021-05-08T10:33:28.000Z</time>
      </trkpt>
      <trkpt lat="47.16829" lon="-1.6283">
        <ele>69</ele>
        <time>2021-05-08T10:33:30.000Z</time>
      </trkpt>
      <trkpt lat="47.16838" lon="-1.62839">
        <ele>67</ele>
        <time>2021-05-08T10:33:32.000Z</time>
      </trkpt>
      <trkpt lat="47.16848" lon="-1.62851">
        <ele>67</ele>
        <time>2021-05-08T10:33:34.000Z</time>
      </trkpt>
      <trkpt lat="47.16859" lon="-1.62863">
        <ele>69</ele>
        <time>2021-05-08T10:33:36.000Z</time>
      </trkpt>
      <trkpt lat="47.1687" lon="-1.62875">
        <ele>69</ele>
        <time>2021-05-08T10:33:38.000Z</time>
      </trkpt>
      <trkpt lat="47.16879" lon="-1.62889">
        <ele>70</ele>
        <time>2021-05-08T10:33:40.000Z</time>
      </trkpt>
      <trkpt lat="47.16888" lon="-1.62915">
        <ele>71</ele>
        <time>2021-05-08T10:33:43.000Z</time>
      </trkpt>
      <trkpt lat="47.16891" lon="-1.62933">
        <ele>71</ele>
        <time>2021-05-08T10:33:45.000Z</time>
      </trkpt>
      <trkpt lat="47.16892" lon="-1.62954">
        <ele>72</ele>
        <time>2021-05-08T10:33:47.000Z</time>
      </trkpt>
      <trkpt lat="47.16892" lon="-1.62975">
        <ele>72</ele>
        <time>2021-05-08T10:33:49.000Z</time>
      </trkpt>
      <trkpt lat="47.1689" lon="-1.62995">
        <ele>72</ele>
        <time>2021-05-08T10:33:51.000Z</time>
      </trkpt>
      <trkpt lat="47.16888" lon="-1.63015">
        <ele>72</ele>
        <time>2021-05-08T10:33:53.000Z</time>
      </trkpt>
      <trkpt lat="47.16887" lon="-1.63035">
        <ele>72</ele>
        <time>2021-05-08T10:33:55.000Z</time>
      </trkpt>
      <trkpt lat="47.16887" lon="-1.63052">
        <ele>72</ele>
        <time>2021-05-08T10:33:57.000Z</time>
      </trkpt>
      <trkpt lat="47.16888" lon="-1.63071">
        <ele>69</ele>
        <time>2021-05-08T10:33:59.000Z</time>
      </trkpt>
      <trkpt lat="47.16893" lon="-1.63092">
        <ele>70</ele>
        <time>2021-05-08T10:34:01.000Z</time>
      </trkpt>
      <trkpt lat="47.16896" lon="-1.63112">
        <ele>71</ele>
        <time>2021-05-08T10:34:03.000Z</time>
      </trkpt>
      <trkpt lat="47.16901" lon="-1.6313">
        <ele>71</ele>
        <time>2021-05-08T10:34:05.000Z</time>
      </trkpt>
      <trkpt lat="47.16907" lon="-1.63149">
        <ele>71</ele>
        <time>2021-05-08T10:34:07.000Z</time>
      </trkpt>
      <trkpt lat="47.16914" lon="-1.63168">
        <ele>71</ele>
        <time>2021-05-08T10:34:09.000Z</time>
      </trkpt>
      <trkpt lat="47.16921" lon="-1.63181">
        <ele>72</ele>
        <time>2021-05-08T10:34:11.000Z</time>
      </trkpt>
      <trkpt lat="47.16928" lon="-1.63195">
        <ele>72</ele>
        <time>2021-05-08T10:34:13.000Z</time>
      </trkpt>
      <trkpt lat="47.16942" lon="-1.63212">
        <ele>72</ele>
        <time>2021-05-08T10:34:16.000Z</time>
      </trkpt>
      <trkpt lat="47.1695" lon="-1.63224">
        <ele>73</ele>
        <time>2021-05-08T10:34:18.000Z</time>
      </trkpt>
      <trkpt lat="47.16958" lon="-1.63236">
        <ele>73</ele>
        <time>2021-05-08T10:34:20.000Z</time>
      </trkpt>
      <trkpt lat="47.16967" lon="-1.63246">
        <ele>72</ele>
        <time>2021-05-08T10:34:22.000Z</time>
      </trkpt>
      <trkpt lat="47.16967" lon="-1.63262">
        <ele>73</ele>
        <time>2021-05-08T10:34:25.000Z</time>
      </trkpt>
      <trkpt lat="47.1696" lon="-1.63273">
        <ele>74</ele>
        <time>2021-05-08T10:34:27.000Z</time>
      </trkpt>
      <trkpt lat="47.16948" lon="-1.63294">
        <ele>74</ele>
        <time>2021-05-08T10:34:30.000Z</time>
      </trkpt>
      <trkpt lat="47.16942" lon="-1.63312">
        <ele>74</ele>
        <time>2021-05-08T10:34:32.000Z</time>
      </trkpt>
      <trkpt lat="47.16926" lon="-1.63333">
        <ele>73</ele>
        <time>2021-05-08T10:34:35.000Z</time>
      </trkpt>
      <trkpt lat="47.16914" lon="-1.63347">
        <ele>72</ele>
        <time>2021-05-08T10:34:37.000Z</time>
      </trkpt>
      <trkpt lat="47.16906" lon="-1.63356">
        <ele>71</ele>
        <time>2021-05-08T10:34:39.000Z</time>
      </trkpt>
      <trkpt lat="47.16898" lon="-1.63369">
        <ele>72</ele>
        <time>2021-05-08T10:34:41.000Z</time>
      </trkpt>
      <trkpt lat="47.1689" lon="-1.63382">
        <ele>72</ele>
        <time>2021-05-08T10:34:43.000Z</time>
      </trkpt>
      <trkpt lat="47.16882" lon="-1.63395">
        <ele>73</ele>
        <time>2021-05-08T10:34:45.000Z</time>
      </trkpt>
      <trkpt lat="47.16873" lon="-1.63409">
        <ele>73</ele>
        <time>2021-05-08T10:34:47.000Z</time>
      </trkpt>
      <trkpt lat="47.16865" lon="-1.63424">
        <ele>73</ele>
        <time>2021-05-08T10:34:49.000Z</time>
      </trkpt>
      <trkpt lat="47.16857" lon="-1.63439">
        <ele>73</ele>
        <time>2021-05-08T10:34:51.000Z</time>
      </trkpt>
      <trkpt lat="47.1685" lon="-1.63453">
        <ele>74</ele>
        <time>2021-05-08T10:34:53.000Z</time>
      </trkpt>
      <trkpt lat="47.16841" lon="-1.63465">
        <ele>73</ele>
        <time>2021-05-08T10:34:55.000Z</time>
      </trkpt>
      <trkpt lat="47.16833" lon="-1.63478">
        <ele>72</ele>
        <time>2021-05-08T10:34:57.000Z</time>
      </trkpt>
      <trkpt lat="47.16824" lon="-1.63492">
        <ele>72</ele>
        <time>2021-05-08T10:34:59.000Z</time>
      </trkpt>
      <trkpt lat="47.16817" lon="-1.63506">
        <ele>72</ele>
        <time>2021-05-08T10:35:01.000Z</time>
      </trkpt>
      <trkpt lat="47.16809" lon="-1.6352">
        <ele>72</ele>
        <time>2021-05-08T10:35:03.000Z</time>
      </trkpt>
      <trkpt lat="47.16801" lon="-1.63534">
        <ele>72</ele>
        <time>2021-05-08T10:35:05.000Z</time>
      </trkpt>
      <trkpt lat="47.16793" lon="-1.63548">
        <ele>73</ele>
        <time>2021-05-08T10:35:07.000Z</time>
      </trkpt>
      <trkpt lat="47.16784" lon="-1.63561">
        <ele>74</ele>
        <time>2021-05-08T10:35:09.000Z</time>
      </trkpt>
      <trkpt lat="47.16776" lon="-1.63575">
        <ele>75</ele>
        <time>2021-05-08T10:35:11.000Z</time>
      </trkpt>
      <trkpt lat="47.16768" lon="-1.6359">
        <ele>75</ele>
        <time>2021-05-08T10:35:13.000Z</time>
      </trkpt>
      <trkpt lat="47.1676" lon="-1.63604">
        <ele>75</ele>
        <time>2021-05-08T10:35:15.000Z</time>
      </trkpt>
      <trkpt lat="47.16752" lon="-1.63621">
        <ele>73</ele>
        <time>2021-05-08T10:35:17.000Z</time>
      </trkpt>
      <trkpt lat="47.16747" lon="-1.63634">
        <ele>73</ele>
        <time>2021-05-08T10:35:19.000Z</time>
      </trkpt>
      <trkpt lat="47.16757" lon="-1.6365">
        <ele>73</ele>
        <time>2021-05-08T10:35:22.000Z</time>
      </trkpt>
      <trkpt lat="47.16776" lon="-1.63655">
        <ele>73</ele>
        <time>2021-05-08T10:35:25.000Z</time>
      </trkpt>
      <trkpt lat="47.16797" lon="-1.63661">
        <ele>74</ele>
        <time>2021-05-08T10:35:28.000Z</time>
      </trkpt>
      <trkpt lat="47.16816" lon="-1.63667">
        <ele>74</ele>
        <time>2021-05-08T10:35:31.000Z</time>
      </trkpt>
      <trkpt lat="47.16828" lon="-1.63672">
        <ele>74</ele>
        <time>2021-05-08T10:35:33.000Z</time>
      </trkpt>
      <trkpt lat="47.16842" lon="-1.63677">
        <ele>74</ele>
        <time>2021-05-08T10:35:35.000Z</time>
      </trkpt>
      <trkpt lat="47.16855" lon="-1.63682">
        <ele>74</ele>
        <time>2021-05-08T10:35:37.000Z</time>
      </trkpt>
      <trkpt lat="47.16868" lon="-1.63687">
        <ele>74</ele>
        <time>2021-05-08T10:35:39.000Z</time>
      </trkpt>
      <trkpt lat="47.16881" lon="-1.63692">
        <ele>74</ele>
        <time>2021-05-08T10:35:41.000Z</time>
      </trkpt>
      <trkpt lat="47.16895" lon="-1.63697">
        <ele>74</ele>
        <time>2021-05-08T10:35:43.000Z</time>
      </trkpt>
      <trkpt lat="47.16908" lon="-1.63702">
        <ele>74</ele>
        <time>2021-05-08T10:35:45.000Z</time>
      </trkpt>
      <trkpt lat="47.16922" lon="-1.63707">
        <ele>74</ele>
        <time>2021-05-08T10:35:47.000Z</time>
      </trkpt>
      <trkpt lat="47.16934" lon="-1.63713">
        <ele>74</ele>
        <time>2021-05-08T10:35:49.000Z</time>
      </trkpt>
      <trkpt lat="47.16948" lon="-1.63717">
        <ele>74</ele>
        <time>2021-05-08T10:35:51.000Z</time>
      </trkpt>
      <trkpt lat="47.16962" lon="-1.63721">
        <ele>74</ele>
        <time>2021-05-08T10:35:53.000Z</time>
      </trkpt>
      <trkpt lat="47.16976" lon="-1.63726">
        <ele>74</ele>
        <time>2021-05-08T10:35:55.000Z</time>
      </trkpt>
      <trkpt lat="47.16987" lon="-1.6373">
        <ele>74</ele>
        <time>2021-05-08T10:35:57.000Z</time>
      </trkpt>
      <trkpt lat="47.17002" lon="-1.63736">
        <ele>74</ele>
        <time>2021-05-08T10:35:59.000Z</time>
      </trkpt>
      <trkpt lat="47.17015" lon="-1.63741">
        <ele>75</ele>
        <time>2021-05-08T10:36:01.000Z</time>
      </trkpt>
      <trkpt lat="47.17027" lon="-1.63745">
        <ele>75</ele>
        <time>2021-05-08T10:36:03.000Z</time>
      </trkpt>
      <trkpt lat="47.1704" lon="-1.63755">
        <ele>75</ele>
        <time>2021-05-08T10:36:05.000Z</time>
      </trkpt>
      <trkpt lat="47.17052" lon="-1.63762">
        <ele>75</ele>
        <time>2021-05-08T10:36:07.000Z</time>
      </trkpt>
      <trkpt lat="47.17062" lon="-1.63775">
        <ele>75</ele>
        <time>2021-05-08T10:36:09.000Z</time>
      </trkpt>
      <trkpt lat="47.1707" lon="-1.63793">
        <ele>75</ele>
        <time>2021-05-08T10:36:11.000Z</time>
      </trkpt>
      <trkpt lat="47.17078" lon="-1.63812">
        <ele>75</ele>
        <time>2021-05-08T10:36:13.000Z</time>
      </trkpt>
      <trkpt lat="47.17085" lon="-1.63832">
        <ele>74</ele>
        <time>2021-05-08T10:36:15.000Z</time>
      </trkpt>
      <trkpt lat="47.17092" lon="-1.63849">
        <ele>75</ele>
        <time>2021-05-08T10:36:17.000Z</time>
      </trkpt>
      <trkpt lat="47.17098" lon="-1.63869">
        <ele>75</ele>
        <time>2021-05-08T10:36:19.000Z</time>
      </trkpt>
      <trkpt lat="47.17104" lon="-1.63887">
        <ele>75</ele>
        <time>2021-05-08T10:36:21.000Z</time>
      </trkpt>
      <trkpt lat="47.17109" lon="-1.63905">
        <ele>74</ele>
        <time>2021-05-08T10:36:23.000Z</time>
      </trkpt>
      <trkpt lat="47.17116" lon="-1.63921">
        <ele>74</ele>
        <time>2021-05-08T10:36:25.000Z</time>
      </trkpt>
      <trkpt lat="47.17122" lon="-1.63935">
        <ele>74</ele>
        <time>2021-05-08T10:36:27.000Z</time>
      </trkpt>
      <trkpt lat="47.17132" lon="-1.63942">
        <ele>74</ele>
        <time>2021-05-08T10:36:29.000Z</time>
      </trkpt>
      <trkpt lat="47.1714" lon="-1.63957">
        <ele>74</ele>
        <time>2021-05-08T10:36:32.000Z</time>
      </trkpt>
      <trkpt lat="47.17142" lon="-1.63977">
        <ele>73</ele>
        <time>2021-05-08T10:36:34.000Z</time>
      </trkpt>
      <trkpt lat="47.17141" lon="-1.63996">
        <ele>73</ele>
        <time>2021-05-08T10:36:36.000Z</time>
      </trkpt>
      <trkpt lat="47.17139" lon="-1.64012">
        <ele>74</ele>
        <time>2021-05-08T10:36:38.000Z</time>
      </trkpt>
      <trkpt lat="47.17137" lon="-1.64032">
        <ele>75</ele>
        <time>2021-05-08T10:36:40.000Z</time>
      </trkpt>
      <trkpt lat="47.17135" lon="-1.64051">
        <ele>75</ele>
        <time>2021-05-08T10:36:42.000Z</time>
      </trkpt>
      <trkpt lat="47.17133" lon="-1.6407">
        <ele>75</ele>
        <time>2021-05-08T10:36:44.000Z</time>
      </trkpt>
      <trkpt lat="47.1713" lon="-1.64085">
        <ele>71</ele>
        <time>2021-05-08T10:36:46.000Z</time>
      </trkpt>
      <trkpt lat="47.17128" lon="-1.64107">
        <ele>73</ele>
        <time>2021-05-08T10:36:48.000Z</time>
      </trkpt>
      <trkpt lat="47.17126" lon="-1.64127">
        <ele>75</ele>
        <time>2021-05-08T10:36:50.000Z</time>
      </trkpt>
      <trkpt lat="47.17124" lon="-1.64147">
        <ele>75</ele>
        <time>2021-05-08T10:36:52.000Z</time>
      </trkpt>
      <trkpt lat="47.17122" lon="-1.64167">
        <ele>75</ele>
        <time>2021-05-08T10:36:54.000Z</time>
      </trkpt>
      <trkpt lat="47.1712" lon="-1.64188">
        <ele>75</ele>
        <time>2021-05-08T10:36:56.000Z</time>
      </trkpt>
      <trkpt lat="47.17118" lon="-1.64207">
        <ele>75</ele>
        <time>2021-05-08T10:36:58.000Z</time>
      </trkpt>
      <trkpt lat="47.17116" lon="-1.64227">
        <ele>75</ele>
        <time>2021-05-08T10:37:00.000Z</time>
      </trkpt>
      <trkpt lat="47.17114" lon="-1.64245">
        <ele>75</ele>
        <time>2021-05-08T10:37:02.000Z</time>
      </trkpt>
      <trkpt lat="47.17111" lon="-1.64265">
        <ele>75</ele>
        <time>2021-05-08T10:37:04.000Z</time>
      </trkpt>
      <trkpt lat="47.17109" lon="-1.64284">
        <ele>75</ele>
        <time>2021-05-08T10:37:06.000Z</time>
      </trkpt>
      <trkpt lat="47.17107" lon="-1.64303">
        <ele>75</ele>
        <time>2021-05-08T10:37:08.000Z</time>
      </trkpt>
      <trkpt lat="47.17106" lon="-1.64323">
        <ele>76</ele>
        <time>2021-05-08T10:37:10.000Z</time>
      </trkpt>
      <trkpt lat="47.17104" lon="-1.64342">
        <ele>76</ele>
        <time>2021-05-08T10:37:12.000Z</time>
      </trkpt>
      <trkpt lat="47.17102" lon="-1.64361">
        <ele>76</ele>
        <time>2021-05-08T10:37:14.000Z</time>
      </trkpt>
      <trkpt lat="47.17099" lon="-1.6439">
        <ele>76</ele>
        <time>2021-05-08T10:37:17.000Z</time>
      </trkpt>
      <trkpt lat="47.17097" lon="-1.6441">
        <ele>76</ele>
        <time>2021-05-08T10:37:19.000Z</time>
      </trkpt>
      <trkpt lat="47.17096" lon="-1.6443">
        <ele>76</ele>
        <time>2021-05-08T10:37:21.000Z</time>
      </trkpt>
      <trkpt lat="47.17095" lon="-1.64449">
        <ele>76</ele>
        <time>2021-05-08T10:37:23.000Z</time>
      </trkpt>
      <trkpt lat="47.17093" lon="-1.64469">
        <ele>76</ele>
        <time>2021-05-08T10:37:25.000Z</time>
      </trkpt>
      <trkpt lat="47.17092" lon="-1.64489">
        <ele>76</ele>
        <time>2021-05-08T10:37:27.000Z</time>
      </trkpt>
      <trkpt lat="47.17092" lon="-1.6451">
        <ele>76</ele>
        <time>2021-05-08T10:37:29.000Z</time>
      </trkpt>
      <trkpt lat="47.17091" lon="-1.6453">
        <ele>76</ele>
        <time>2021-05-08T10:37:31.000Z</time>
      </trkpt>
      <trkpt lat="47.17092" lon="-1.6455">
        <ele>76</ele>
        <time>2021-05-08T10:37:33.000Z</time>
      </trkpt>
      <trkpt lat="47.17091" lon="-1.64571">
        <ele>76</ele>
        <time>2021-05-08T10:37:35.000Z</time>
      </trkpt>
      <trkpt lat="47.1709" lon="-1.64592">
        <ele>76</ele>
        <time>2021-05-08T10:37:37.000Z</time>
      </trkpt>
      <trkpt lat="47.1709" lon="-1.64613">
        <ele>75</ele>
        <time>2021-05-08T10:37:39.000Z</time>
      </trkpt>
      <trkpt lat="47.17089" lon="-1.64633">
        <ele>76</ele>
        <time>2021-05-08T10:37:41.000Z</time>
      </trkpt>
      <trkpt lat="47.17089" lon="-1.64653">
        <ele>75</ele>
        <time>2021-05-08T10:37:43.000Z</time>
      </trkpt>
      <trkpt lat="47.17089" lon="-1.64674">
        <ele>74</ele>
        <time>2021-05-08T10:37:45.000Z</time>
      </trkpt>
      <trkpt lat="47.1709" lon="-1.64705">
        <ele>74</ele>
        <time>2021-05-08T10:37:48.000Z</time>
      </trkpt>
      <trkpt lat="47.17092" lon="-1.64724">
        <ele>74</ele>
        <time>2021-05-08T10:37:50.000Z</time>
      </trkpt>
      <trkpt lat="47.17093" lon="-1.64743">
        <ele>74</ele>
        <time>2021-05-08T10:37:52.000Z</time>
      </trkpt>
      <trkpt lat="47.17093" lon="-1.64761">
        <ele>74</ele>
        <time>2021-05-08T10:37:54.000Z</time>
      </trkpt>
      <trkpt lat="47.17094" lon="-1.64778">
        <ele>72</ele>
        <time>2021-05-08T10:37:56.000Z</time>
      </trkpt>
      <trkpt lat="47.17094" lon="-1.64795">
        <ele>72</ele>
        <time>2021-05-08T10:37:58.000Z</time>
      </trkpt>
      <trkpt lat="47.17096" lon="-1.64814">
        <ele>73</ele>
        <time>2021-05-08T10:38:00.000Z</time>
      </trkpt>
      <trkpt lat="47.17098" lon="-1.64837">
        <ele>72</ele>
        <time>2021-05-08T10:38:02.000Z</time>
      </trkpt>
      <trkpt lat="47.17099" lon="-1.64854">
        <ele>73</ele>
        <time>2021-05-08T10:38:04.000Z</time>
      </trkpt>
      <trkpt lat="47.17099" lon="-1.64877">
        <ele>72</ele>
        <time>2021-05-08T10:38:06.000Z</time>
      </trkpt>
      <trkpt lat="47.17101" lon="-1.649">
        <ele>72</ele>
        <time>2021-05-08T10:38:08.000Z</time>
      </trkpt>
      <trkpt lat="47.17103" lon="-1.64922">
        <ele>72</ele>
        <time>2021-05-08T10:38:10.000Z</time>
      </trkpt>
      <trkpt lat="47.17105" lon="-1.64942">
        <ele>72</ele>
        <time>2021-05-08T10:38:12.000Z</time>
      </trkpt>
      <trkpt lat="47.17106" lon="-1.64962">
        <ele>72</ele>
        <time>2021-05-08T10:38:14.000Z</time>
      </trkpt>
      <trkpt lat="47.17109" lon="-1.64992">
        <ele>71</ele>
        <time>2021-05-08T10:38:17.000Z</time>
      </trkpt>
      <trkpt lat="47.1711" lon="-1.65012">
        <ele>71</ele>
        <time>2021-05-08T10:38:19.000Z</time>
      </trkpt>
      <trkpt lat="47.17111" lon="-1.65031">
        <ele>72</ele>
        <time>2021-05-08T10:38:21.000Z</time>
      </trkpt>
      <trkpt lat="47.17113" lon="-1.65051">
        <ele>71</ele>
        <time>2021-05-08T10:38:23.000Z</time>
      </trkpt>
      <trkpt lat="47.17115" lon="-1.6507">
        <ele>72</ele>
        <time>2021-05-08T10:38:25.000Z</time>
      </trkpt>
      <trkpt lat="47.17116" lon="-1.6509">
        <ele>72</ele>
        <time>2021-05-08T10:38:27.000Z</time>
      </trkpt>
      <trkpt lat="47.17118" lon="-1.65109">
        <ele>72</ele>
        <time>2021-05-08T10:38:29.000Z</time>
      </trkpt>
      <trkpt lat="47.17119" lon="-1.65128">
        <ele>73</ele>
        <time>2021-05-08T10:38:31.000Z</time>
      </trkpt>
      <trkpt lat="47.1712" lon="-1.65147">
        <ele>73</ele>
        <time>2021-05-08T10:38:33.000Z</time>
      </trkpt>
      <trkpt lat="47.17121" lon="-1.65165">
        <ele>72</ele>
        <time>2021-05-08T10:38:35.000Z</time>
      </trkpt>
      <trkpt lat="47.17123" lon="-1.65183">
        <ele>72</ele>
        <time>2021-05-08T10:38:37.000Z</time>
      </trkpt>
      <trkpt lat="47.17124" lon="-1.65202">
        <ele>74</ele>
        <time>2021-05-08T10:38:39.000Z</time>
      </trkpt>
      <trkpt lat="47.17126" lon="-1.6523">
        <ele>74</ele>
        <time>2021-05-08T10:38:42.000Z</time>
      </trkpt>
      <trkpt lat="47.17128" lon="-1.65247">
        <ele>74</ele>
        <time>2021-05-08T10:38:44.000Z</time>
      </trkpt>
      <trkpt lat="47.17133" lon="-1.65263">
        <ele>75</ele>
        <time>2021-05-08T10:38:46.000Z</time>
      </trkpt>
      <trkpt lat="47.17146" lon="-1.65282">
        <ele>75</ele>
        <time>2021-05-08T10:38:49.000Z</time>
      </trkpt>
      <trkpt lat="47.17161" lon="-1.65298">
        <ele>73</ele>
        <time>2021-05-08T10:38:52.000Z</time>
      </trkpt>
      <trkpt lat="47.17175" lon="-1.65322">
        <ele>74</ele>
        <time>2021-05-08T10:38:55.000Z</time>
      </trkpt>
      <trkpt lat="47.17179" lon="-1.65342">
        <ele>75</ele>
        <time>2021-05-08T10:38:57.000Z</time>
      </trkpt>
      <trkpt lat="47.17179" lon="-1.65362">
        <ele>74</ele>
        <time>2021-05-08T10:38:59.000Z</time>
      </trkpt>
      <trkpt lat="47.17177" lon="-1.65383">
        <ele>74</ele>
        <time>2021-05-08T10:39:01.000Z</time>
      </trkpt>
      <trkpt lat="47.17175" lon="-1.65403">
        <ele>74</ele>
        <time>2021-05-08T10:39:03.000Z</time>
      </trkpt>
      <trkpt lat="47.17172" lon="-1.65422">
        <ele>74</ele>
        <time>2021-05-08T10:39:05.000Z</time>
      </trkpt>
      <trkpt lat="47.1717" lon="-1.65442">
        <ele>74</ele>
        <time>2021-05-08T10:39:07.000Z</time>
      </trkpt>
      <trkpt lat="47.17168" lon="-1.65462">
        <ele>73</ele>
        <time>2021-05-08T10:39:09.000Z</time>
      </trkpt>
      <trkpt lat="47.17167" lon="-1.6548">
        <ele>73</ele>
        <time>2021-05-08T10:39:11.000Z</time>
      </trkpt>
      <trkpt lat="47.17164" lon="-1.655">
        <ele>73</ele>
        <time>2021-05-08T10:39:13.000Z</time>
      </trkpt>
      <trkpt lat="47.17162" lon="-1.65518">
        <ele>74</ele>
        <time>2021-05-08T10:39:15.000Z</time>
      </trkpt>
      <trkpt lat="47.1716" lon="-1.65536">
        <ele>74</ele>
        <time>2021-05-08T10:39:17.000Z</time>
      </trkpt>
      <trkpt lat="47.17159" lon="-1.65556">
        <ele>74</ele>
        <time>2021-05-08T10:39:19.000Z</time>
      </trkpt>
      <trkpt lat="47.17158" lon="-1.65575">
        <ele>74</ele>
        <time>2021-05-08T10:39:21.000Z</time>
      </trkpt>
      <trkpt lat="47.17159" lon="-1.65603">
        <ele>74</ele>
        <time>2021-05-08T10:39:24.000Z</time>
      </trkpt>
      <trkpt lat="47.1716" lon="-1.65624">
        <ele>73</ele>
        <time>2021-05-08T10:39:26.000Z</time>
      </trkpt>
      <trkpt lat="47.17158" lon="-1.65643">
        <ele>74</ele>
        <time>2021-05-08T10:39:28.000Z</time>
      </trkpt>
      <trkpt lat="47.17156" lon="-1.65662">
        <ele>74</ele>
        <time>2021-05-08T10:39:30.000Z</time>
      </trkpt>
      <trkpt lat="47.17157" lon="-1.65681">
        <ele>74</ele>
        <time>2021-05-08T10:39:32.000Z</time>
      </trkpt>
      <trkpt lat="47.17158" lon="-1.657">
        <ele>74</ele>
        <time>2021-05-08T10:39:34.000Z</time>
      </trkpt>
      <trkpt lat="47.17158" lon="-1.65718">
        <ele>74</ele>
        <time>2021-05-08T10:39:36.000Z</time>
      </trkpt>
      <trkpt lat="47.17159" lon="-1.65738">
        <ele>74</ele>
        <time>2021-05-08T10:39:38.000Z</time>
      </trkpt>
      <trkpt lat="47.17161" lon="-1.65757">
        <ele>74</ele>
        <time>2021-05-08T10:39:40.000Z</time>
      </trkpt>
      <trkpt lat="47.17163" lon="-1.65777">
        <ele>74</ele>
        <time>2021-05-08T10:39:42.000Z</time>
      </trkpt>
      <trkpt lat="47.17165" lon="-1.65795">
        <ele>75</ele>
        <time>2021-05-08T10:39:44.000Z</time>
      </trkpt>
      <trkpt lat="47.17168" lon="-1.65814">
        <ele>75</ele>
        <time>2021-05-08T10:39:46.000Z</time>
      </trkpt>
      <trkpt lat="47.17172" lon="-1.65843">
        <ele>74</ele>
        <time>2021-05-08T10:39:49.000Z</time>
      </trkpt>
      <trkpt lat="47.17176" lon="-1.65862">
        <ele>74</ele>
        <time>2021-05-08T10:39:51.000Z</time>
      </trkpt>
      <trkpt lat="47.17179" lon="-1.65881">
        <ele>74</ele>
        <time>2021-05-08T10:39:53.000Z</time>
      </trkpt>
      <trkpt lat="47.17184" lon="-1.65909">
        <ele>75</ele>
        <time>2021-05-08T10:39:56.000Z</time>
      </trkpt>
      <trkpt lat="47.17187" lon="-1.65928">
        <ele>75</ele>
        <time>2021-05-08T10:39:58.000Z</time>
      </trkpt>
      <trkpt lat="47.17193" lon="-1.65956">
        <ele>73</ele>
        <time>2021-05-08T10:40:01.000Z</time>
      </trkpt>
      <trkpt lat="47.17198" lon="-1.65984">
        <ele>72</ele>
        <time>2021-05-08T10:40:04.000Z</time>
      </trkpt>
      <trkpt lat="47.17202" lon="-1.66003">
        <ele>72</ele>
        <time>2021-05-08T10:40:06.000Z</time>
      </trkpt>
      <trkpt lat="47.17205" lon="-1.66021">
        <ele>73</ele>
        <time>2021-05-08T10:40:08.000Z</time>
      </trkpt>
      <trkpt lat="47.17208" lon="-1.66039">
        <ele>73</ele>
        <time>2021-05-08T10:40:10.000Z</time>
      </trkpt>
      <trkpt lat="47.17212" lon="-1.66059">
        <ele>73</ele>
        <time>2021-05-08T10:40:12.000Z</time>
      </trkpt>
      <trkpt lat="47.17216" lon="-1.66076">
        <ele>71</ele>
        <time>2021-05-08T10:40:14.000Z</time>
      </trkpt>
      <trkpt lat="47.17219" lon="-1.66095">
        <ele>71</ele>
        <time>2021-05-08T10:40:16.000Z</time>
      </trkpt>
      <trkpt lat="47.17223" lon="-1.66113">
        <ele>71</ele>
        <time>2021-05-08T10:40:18.000Z</time>
      </trkpt>
      <trkpt lat="47.17227" lon="-1.66129">
        <ele>72</ele>
        <time>2021-05-08T10:40:20.000Z</time>
      </trkpt>
      <trkpt lat="47.17231" lon="-1.66147">
        <ele>72</ele>
        <time>2021-05-08T10:40:22.000Z</time>
      </trkpt>
      <trkpt lat="47.17235" lon="-1.66166">
        <ele>71</ele>
        <time>2021-05-08T10:40:24.000Z</time>
      </trkpt>
      <trkpt lat="47.17239" lon="-1.6618">
        <ele>72</ele>
        <time>2021-05-08T10:40:26.000Z</time>
      </trkpt>
      <trkpt lat="47.17246" lon="-1.66193">
        <ele>72</ele>
        <time>2021-05-08T10:40:28.000Z</time>
      </trkpt>
      <trkpt lat="47.17255" lon="-1.66207">
        <ele>73</ele>
        <time>2021-05-08T10:40:30.000Z</time>
      </trkpt>
      <trkpt lat="47.17263" lon="-1.66221">
        <ele>74</ele>
        <time>2021-05-08T10:40:32.000Z</time>
      </trkpt>
      <trkpt lat="47.17269" lon="-1.66235">
        <ele>75</ele>
        <time>2021-05-08T10:40:34.000Z</time>
      </trkpt>
      <trkpt lat="47.17276" lon="-1.66247">
        <ele>74</ele>
        <time>2021-05-08T10:40:36.000Z</time>
      </trkpt>
      <trkpt lat="47.17285" lon="-1.66256">
        <ele>73</ele>
        <time>2021-05-08T10:40:38.000Z</time>
      </trkpt>
      <trkpt lat="47.17295" lon="-1.66271">
        <ele>75</ele>
        <time>2021-05-08T10:40:40.000Z</time>
      </trkpt>
      <trkpt lat="47.17303" lon="-1.66286">
        <ele>76</ele>
        <time>2021-05-08T10:40:42.000Z</time>
      </trkpt>
      <trkpt lat="47.17313" lon="-1.66299">
        <ele>77</ele>
        <time>2021-05-08T10:40:44.000Z</time>
      </trkpt>
      <trkpt lat="47.17321" lon="-1.66314">
        <ele>77</ele>
        <time>2021-05-08T10:40:46.000Z</time>
      </trkpt>
      <trkpt lat="47.17332" lon="-1.6634">
        <ele>78</ele>
        <time>2021-05-08T10:40:49.000Z</time>
      </trkpt>
      <trkpt lat="47.1734" lon="-1.66354">
        <ele>78</ele>
        <time>2021-05-08T10:40:51.000Z</time>
      </trkpt>
      <trkpt lat="47.17349" lon="-1.66372">
        <ele>76</ele>
        <time>2021-05-08T10:40:53.000Z</time>
      </trkpt>
      <trkpt lat="47.17357" lon="-1.66385">
        <ele>74</ele>
        <time>2021-05-08T10:40:55.000Z</time>
      </trkpt>
      <trkpt lat="47.17363" lon="-1.664">
        <ele>75</ele>
        <time>2021-05-08T10:40:57.000Z</time>
      </trkpt>
      <trkpt lat="47.17369" lon="-1.66414">
        <ele>76</ele>
        <time>2021-05-08T10:40:59.000Z</time>
      </trkpt>
      <trkpt lat="47.17376" lon="-1.66429">
        <ele>75</ele>
        <time>2021-05-08T10:41:01.000Z</time>
      </trkpt>
      <trkpt lat="47.17384" lon="-1.66445">
        <ele>75</ele>
        <time>2021-05-08T10:41:03.000Z</time>
      </trkpt>
      <trkpt lat="47.17393" lon="-1.66459">
        <ele>77</ele>
        <time>2021-05-08T10:41:05.000Z</time>
      </trkpt>
      <trkpt lat="47.17402" lon="-1.66473">
        <ele>77</ele>
        <time>2021-05-08T10:41:07.000Z</time>
      </trkpt>
      <trkpt lat="47.1741" lon="-1.66488">
        <ele>78</ele>
        <time>2021-05-08T10:41:09.000Z</time>
      </trkpt>
      <trkpt lat="47.17418" lon="-1.66499">
        <ele>78</ele>
        <time>2021-05-08T10:41:11.000Z</time>
      </trkpt>
      <trkpt lat="47.17432" lon="-1.66523">
        <ele>78</ele>
        <time>2021-05-08T10:41:14.000Z</time>
      </trkpt>
      <trkpt lat="47.17441" lon="-1.66541">
        <ele>76</ele>
        <time>2021-05-08T10:41:16.000Z</time>
      </trkpt>
      <trkpt lat="47.17449" lon="-1.66554">
        <ele>77</ele>
        <time>2021-05-08T10:41:18.000Z</time>
      </trkpt>
      <trkpt lat="47.17455" lon="-1.66569">
        <ele>78</ele>
        <time>2021-05-08T10:41:20.000Z</time>
      </trkpt>
      <trkpt lat="47.17465" lon="-1.6659">
        <ele>79</ele>
        <time>2021-05-08T10:41:23.000Z</time>
      </trkpt>
      <trkpt lat="47.17478" lon="-1.66608">
        <ele>77</ele>
        <time>2021-05-08T10:41:26.000Z</time>
      </trkpt>
      <trkpt lat="47.17487" lon="-1.66625">
        <ele>78</ele>
        <time>2021-05-08T10:41:28.000Z</time>
      </trkpt>
      <trkpt lat="47.17496" lon="-1.66643">
        <ele>79</ele>
        <time>2021-05-08T10:41:30.000Z</time>
      </trkpt>
      <trkpt lat="47.17507" lon="-1.66664">
        <ele>79</ele>
        <time>2021-05-08T10:41:33.000Z</time>
      </trkpt>
      <trkpt lat="47.17515" lon="-1.6668">
        <ele>80</ele>
        <time>2021-05-08T10:41:35.000Z</time>
      </trkpt>
      <trkpt lat="47.17532" lon="-1.66712">
        <ele>81</ele>
        <time>2021-05-08T10:41:39.000Z</time>
      </trkpt>
      <trkpt lat="47.17538" lon="-1.66725">
        <ele>80</ele>
        <time>2021-05-08T10:41:41.000Z</time>
      </trkpt>
      <trkpt lat="47.17548" lon="-1.66742">
        <ele>80</ele>
        <time>2021-05-08T10:41:43.000Z</time>
      </trkpt>
      <trkpt lat="47.17557" lon="-1.6676">
        <ele>80</ele>
        <time>2021-05-08T10:41:45.000Z</time>
      </trkpt>
      <trkpt lat="47.17566" lon="-1.66775">
        <ele>80</ele>
        <time>2021-05-08T10:41:47.000Z</time>
      </trkpt>
      <trkpt lat="47.17574" lon="-1.66788">
        <ele>80</ele>
        <time>2021-05-08T10:41:49.000Z</time>
      </trkpt>
      <trkpt lat="47.17581" lon="-1.66804">
        <ele>80</ele>
        <time>2021-05-08T10:41:51.000Z</time>
      </trkpt>
      <trkpt lat="47.17589" lon="-1.66818">
        <ele>80</ele>
        <time>2021-05-08T10:41:53.000Z</time>
      </trkpt>
      <trkpt lat="47.17597" lon="-1.66833">
        <ele>80</ele>
        <time>2021-05-08T10:41:55.000Z</time>
      </trkpt>
      <trkpt lat="47.17604" lon="-1.66847">
        <ele>78</ele>
        <time>2021-05-08T10:41:57.000Z</time>
      </trkpt>
      <trkpt lat="47.17615" lon="-1.66865">
        <ele>77</ele>
        <time>2021-05-08T10:41:59.000Z</time>
      </trkpt>
      <trkpt lat="47.17625" lon="-1.66883">
        <ele>76</ele>
        <time>2021-05-08T10:42:01.000Z</time>
      </trkpt>
      <trkpt lat="47.17639" lon="-1.66904">
        <ele>72</ele>
        <time>2021-05-08T10:42:04.000Z</time>
      </trkpt>
      <trkpt lat="47.17642" lon="-1.66923">
        <ele>73</ele>
        <time>2021-05-08T10:42:06.000Z</time>
      </trkpt>
      <trkpt lat="47.1765" lon="-1.66938">
        <ele>74</ele>
        <time>2021-05-08T10:42:08.000Z</time>
      </trkpt>
      <trkpt lat="47.17658" lon="-1.66952">
        <ele>74</ele>
        <time>2021-05-08T10:42:10.000Z</time>
      </trkpt>
      <trkpt lat="47.17666" lon="-1.66966">
        <ele>76</ele>
        <time>2021-05-08T10:42:12.000Z</time>
      </trkpt>
      <trkpt lat="47.17674" lon="-1.6698">
        <ele>75</ele>
        <time>2021-05-08T10:42:14.000Z</time>
      </trkpt>
      <trkpt lat="47.17683" lon="-1.66993">
        <ele>75</ele>
        <time>2021-05-08T10:42:16.000Z</time>
      </trkpt>
      <trkpt lat="47.1769" lon="-1.67008">
        <ele>75</ele>
        <time>2021-05-08T10:42:18.000Z</time>
      </trkpt>
      <trkpt lat="47.17699" lon="-1.67023">
        <ele>76</ele>
        <time>2021-05-08T10:42:20.000Z</time>
      </trkpt>
      <trkpt lat="47.17707" lon="-1.67039">
        <ele>77</ele>
        <time>2021-05-08T10:42:22.000Z</time>
      </trkpt>
      <trkpt lat="47.17716" lon="-1.67054">
        <ele>77</ele>
        <time>2021-05-08T10:42:24.000Z</time>
      </trkpt>
      <trkpt lat="47.17724" lon="-1.67069">
        <ele>77</ele>
        <time>2021-05-08T10:42:26.000Z</time>
      </trkpt>
      <trkpt lat="47.17732" lon="-1.67084">
        <ele>78</ele>
        <time>2021-05-08T10:42:28.000Z</time>
      </trkpt>
      <trkpt lat="47.17739" lon="-1.67099">
        <ele>78</ele>
        <time>2021-05-08T10:42:30.000Z</time>
      </trkpt>
      <trkpt lat="47.17748" lon="-1.67114">
        <ele>79</ele>
        <time>2021-05-08T10:42:32.000Z</time>
      </trkpt>
      <trkpt lat="47.17756" lon="-1.67129">
        <ele>79</ele>
        <time>2021-05-08T10:42:34.000Z</time>
      </trkpt>
      <trkpt lat="47.17763" lon="-1.67146">
        <ele>79</ele>
        <time>2021-05-08T10:42:36.000Z</time>
      </trkpt>
      <trkpt lat="47.17772" lon="-1.67162">
        <ele>79</ele>
        <time>2021-05-08T10:42:38.000Z</time>
      </trkpt>
      <trkpt lat="47.1778" lon="-1.67176">
        <ele>78</ele>
        <time>2021-05-08T10:42:40.000Z</time>
      </trkpt>
      <trkpt lat="47.17793" lon="-1.672">
        <ele>78</ele>
        <time>2021-05-08T10:42:43.000Z</time>
      </trkpt>
      <trkpt lat="47.17805" lon="-1.67224">
        <ele>77</ele>
        <time>2021-05-08T10:42:46.000Z</time>
      </trkpt>
      <trkpt lat="47.17817" lon="-1.67247">
        <ele>76</ele>
        <time>2021-05-08T10:42:49.000Z</time>
      </trkpt>
      <trkpt lat="47.17832" lon="-1.67276">
        <ele>77</ele>
        <time>2021-05-08T10:42:53.000Z</time>
      </trkpt>
      <trkpt lat="47.1784" lon="-1.67291">
        <ele>75</ele>
        <time>2021-05-08T10:42:55.000Z</time>
      </trkpt>
      <trkpt lat="47.17853" lon="-1.67312">
        <ele>71</ele>
        <time>2021-05-08T10:42:58.000Z</time>
      </trkpt>
      <trkpt lat="47.17864" lon="-1.67333">
        <ele>72</ele>
        <time>2021-05-08T10:43:01.000Z</time>
      </trkpt>
      <trkpt lat="47.17876" lon="-1.67355">
        <ele>72</ele>
        <time>2021-05-08T10:43:04.000Z</time>
      </trkpt>
      <trkpt lat="47.17882" lon="-1.67367">
        <ele>71</ele>
        <time>2021-05-08T10:43:06.000Z</time>
      </trkpt>
      <trkpt lat="47.17887" lon="-1.67379">
        <ele>73</ele>
        <time>2021-05-08T10:43:08.000Z</time>
      </trkpt>
      <trkpt lat="47.17894" lon="-1.67391">
        <ele>74</ele>
        <time>2021-05-08T10:43:11.000Z</time>
      </trkpt>
      <trkpt lat="47.17902" lon="-1.67402">
        <ele>73</ele>
        <time>2021-05-08T10:43:14.000Z</time>
      </trkpt>
      <trkpt lat="47.17908" lon="-1.67414">
        <ele>74</ele>
        <time>2021-05-08T10:43:16.000Z</time>
      </trkpt>
      <trkpt lat="47.17914" lon="-1.6743">
        <ele>74</ele>
        <time>2021-05-08T10:43:18.000Z</time>
      </trkpt>
      <trkpt lat="47.1792" lon="-1.67448">
        <ele>75</ele>
        <time>2021-05-08T10:43:20.000Z</time>
      </trkpt>
      <trkpt lat="47.17925" lon="-1.67466">
        <ele>75</ele>
        <time>2021-05-08T10:43:22.000Z</time>
      </trkpt>
      <trkpt lat="47.17929" lon="-1.67484">
        <ele>76</ele>
        <time>2021-05-08T10:43:24.000Z</time>
      </trkpt>
      <trkpt lat="47.17934" lon="-1.67502">
        <ele>77</ele>
        <time>2021-05-08T10:43:26.000Z</time>
      </trkpt>
      <trkpt lat="47.17938" lon="-1.67519">
        <ele>76</ele>
        <time>2021-05-08T10:43:28.000Z</time>
      </trkpt>
      <trkpt lat="47.17942" lon="-1.67535">
        <ele>75</ele>
        <time>2021-05-08T10:43:30.000Z</time>
      </trkpt>
      <trkpt lat="47.17947" lon="-1.67551">
        <ele>77</ele>
        <time>2021-05-08T10:43:32.000Z</time>
      </trkpt>
      <trkpt lat="47.17952" lon="-1.67572">
        <ele>77</ele>
        <time>2021-05-08T10:43:34.000Z</time>
      </trkpt>
      <trkpt lat="47.17962" lon="-1.67601">
        <ele>77</ele>
        <time>2021-05-08T10:43:37.000Z</time>
      </trkpt>
      <trkpt lat="47.17967" lon="-1.67627">
        <ele>79</ele>
        <time>2021-05-08T10:43:40.000Z</time>
      </trkpt>
      <trkpt lat="47.17972" lon="-1.67654">
        <ele>81</ele>
        <time>2021-05-08T10:43:43.000Z</time>
      </trkpt>
      <trkpt lat="47.1798" lon="-1.67678">
        <ele>82</ele>
        <time>2021-05-08T10:43:46.000Z</time>
      </trkpt>
      <trkpt lat="47.17986" lon="-1.67694">
        <ele>84</ele>
        <time>2021-05-08T10:43:48.000Z</time>
      </trkpt>
      <trkpt lat="47.17991" lon="-1.67711">
        <ele>82</ele>
        <time>2021-05-08T10:43:50.000Z</time>
      </trkpt>
      <trkpt lat="47.17998" lon="-1.67728">
        <ele>81</ele>
        <time>2021-05-08T10:43:52.000Z</time>
      </trkpt>
      <trkpt lat="47.18005" lon="-1.67745">
        <ele>80</ele>
        <time>2021-05-08T10:43:54.000Z</time>
      </trkpt>
      <trkpt lat="47.1801" lon="-1.67764">
        <ele>80</ele>
        <time>2021-05-08T10:43:56.000Z</time>
      </trkpt>
      <trkpt lat="47.18015" lon="-1.67783">
        <ele>79</ele>
        <time>2021-05-08T10:43:58.000Z</time>
      </trkpt>
      <trkpt lat="47.18021" lon="-1.67799">
        <ele>79</ele>
        <time>2021-05-08T10:44:00.000Z</time>
      </trkpt>
      <trkpt lat="47.18025" lon="-1.6782">
        <ele>79</ele>
        <time>2021-05-08T10:44:02.000Z</time>
      </trkpt>
      <trkpt lat="47.1803" lon="-1.67838">
        <ele>78</ele>
        <time>2021-05-08T10:44:04.000Z</time>
      </trkpt>
      <trkpt lat="47.18036" lon="-1.67865">
        <ele>76</ele>
        <time>2021-05-08T10:44:07.000Z</time>
      </trkpt>
      <trkpt lat="47.18036" lon="-1.6788">
        <ele>76</ele>
        <time>2021-05-08T10:44:09.000Z</time>
      </trkpt>
      <trkpt lat="47.18028" lon="-1.67897">
        <ele>77</ele>
        <time>2021-05-08T10:44:11.000Z</time>
      </trkpt>
      <trkpt lat="47.18024" lon="-1.67915">
        <ele>77</ele>
        <time>2021-05-08T10:44:13.000Z</time>
      </trkpt>
      <trkpt lat="47.18027" lon="-1.67934">
        <ele>75</ele>
        <time>2021-05-08T10:44:15.000Z</time>
      </trkpt>
      <trkpt lat="47.18032" lon="-1.67951">
        <ele>75</ele>
        <time>2021-05-08T10:44:17.000Z</time>
      </trkpt>
      <trkpt lat="47.18046" lon="-1.67964">
        <ele>76</ele>
        <time>2021-05-08T10:44:19.000Z</time>
      </trkpt>
      <trkpt lat="47.18056" lon="-1.6798">
        <ele>75</ele>
        <time>2021-05-08T10:44:21.000Z</time>
      </trkpt>
      <trkpt lat="47.18066" lon="-1.67996">
        <ele>76</ele>
        <time>2021-05-08T10:44:23.000Z</time>
      </trkpt>
      <trkpt lat="47.18075" lon="-1.68012">
        <ele>75</ele>
        <time>2021-05-08T10:44:25.000Z</time>
      </trkpt>
      <trkpt lat="47.18084" lon="-1.68027">
        <ele>75</ele>
        <time>2021-05-08T10:44:27.000Z</time>
      </trkpt>
      <trkpt lat="47.18094" lon="-1.68044">
        <ele>74</ele>
        <time>2021-05-08T10:44:29.000Z</time>
      </trkpt>
      <trkpt lat="47.18103" lon="-1.68061">
        <ele>74</ele>
        <time>2021-05-08T10:44:31.000Z</time>
      </trkpt>
      <trkpt lat="47.18115" lon="-1.68087">
        <ele>74</ele>
        <time>2021-05-08T10:44:34.000Z</time>
      </trkpt>
      <trkpt lat="47.1813" lon="-1.68112">
        <ele>74</ele>
        <time>2021-05-08T10:44:37.000Z</time>
      </trkpt>
      <trkpt lat="47.1814" lon="-1.68127">
        <ele>74</ele>
        <time>2021-05-08T10:44:39.000Z</time>
      </trkpt>
      <trkpt lat="47.1815" lon="-1.68144">
        <ele>73</ele>
        <time>2021-05-08T10:44:41.000Z</time>
      </trkpt>
      <trkpt lat="47.18165" lon="-1.68168">
        <ele>73</ele>
        <time>2021-05-08T10:44:44.000Z</time>
      </trkpt>
      <trkpt lat="47.18174" lon="-1.68184">
        <ele>74</ele>
        <time>2021-05-08T10:44:46.000Z</time>
      </trkpt>
      <trkpt lat="47.18184" lon="-1.68201">
        <ele>74</ele>
        <time>2021-05-08T10:44:48.000Z</time>
      </trkpt>
      <trkpt lat="47.18194" lon="-1.68218">
        <ele>74</ele>
        <time>2021-05-08T10:44:50.000Z</time>
      </trkpt>
      <trkpt lat="47.18203" lon="-1.68235">
        <ele>73</ele>
        <time>2021-05-08T10:44:52.000Z</time>
      </trkpt>
      <trkpt lat="47.18213" lon="-1.68252">
        <ele>73</ele>
        <time>2021-05-08T10:44:54.000Z</time>
      </trkpt>
      <trkpt lat="47.18222" lon="-1.68268">
        <ele>73</ele>
        <time>2021-05-08T10:44:56.000Z</time>
      </trkpt>
      <trkpt lat="47.18232" lon="-1.68285">
        <ele>72</ele>
        <time>2021-05-08T10:44:58.000Z</time>
      </trkpt>
      <trkpt lat="47.18241" lon="-1.68301">
        <ele>72</ele>
        <time>2021-05-08T10:45:00.000Z</time>
      </trkpt>
      <trkpt lat="47.18252" lon="-1.68318">
        <ele>71</ele>
        <time>2021-05-08T10:45:02.000Z</time>
      </trkpt>
      <trkpt lat="47.18261" lon="-1.68335">
        <ele>71</ele>
        <time>2021-05-08T10:45:04.000Z</time>
      </trkpt>
      <trkpt lat="47.18276" lon="-1.68358">
        <ele>71</ele>
        <time>2021-05-08T10:45:07.000Z</time>
      </trkpt>
      <trkpt lat="47.18284" lon="-1.68375">
        <ele>71</ele>
        <time>2021-05-08T10:45:09.000Z</time>
      </trkpt>
      <trkpt lat="47.18293" lon="-1.68389">
        <ele>71</ele>
        <time>2021-05-08T10:45:11.000Z</time>
      </trkpt>
      <trkpt lat="47.18298" lon="-1.68409">
        <ele>70</ele>
        <time>2021-05-08T10:45:13.000Z</time>
      </trkpt>
      <trkpt lat="47.18304" lon="-1.68432">
        <ele>70</ele>
        <time>2021-05-08T10:45:15.000Z</time>
      </trkpt>
      <trkpt lat="47.18308" lon="-1.68453">
        <ele>70</ele>
        <time>2021-05-08T10:45:17.000Z</time>
      </trkpt>
      <trkpt lat="47.1831" lon="-1.68486">
        <ele>70</ele>
        <time>2021-05-08T10:45:20.000Z</time>
      </trkpt>
      <trkpt lat="47.18308" lon="-1.68507">
        <ele>71</ele>
        <time>2021-05-08T10:45:22.000Z</time>
      </trkpt>
      <trkpt lat="47.18304" lon="-1.68529">
        <ele>72</ele>
        <time>2021-05-08T10:45:24.000Z</time>
      </trkpt>
      <trkpt lat="47.18301" lon="-1.68551">
        <ele>72</ele>
        <time>2021-05-08T10:45:26.000Z</time>
      </trkpt>
      <trkpt lat="47.18296" lon="-1.6857">
        <ele>71</ele>
        <time>2021-05-08T10:45:28.000Z</time>
      </trkpt>
      <trkpt lat="47.18292" lon="-1.68592">
        <ele>68</ele>
        <time>2021-05-08T10:45:30.000Z</time>
      </trkpt>
      <trkpt lat="47.18284" lon="-1.68607">
        <ele>69</ele>
        <time>2021-05-08T10:45:32.000Z</time>
      </trkpt>
      <trkpt lat="47.18276" lon="-1.68623">
        <ele>71</ele>
        <time>2021-05-08T10:45:34.000Z</time>
      </trkpt>
      <trkpt lat="47.1827" lon="-1.6864">
        <ele>71</ele>
        <time>2021-05-08T10:45:36.000Z</time>
      </trkpt>
      <trkpt lat="47.18265" lon="-1.68659">
        <ele>70</ele>
        <time>2021-05-08T10:45:38.000Z</time>
      </trkpt>
      <trkpt lat="47.18263" lon="-1.6868">
        <ele>70</ele>
        <time>2021-05-08T10:45:40.000Z</time>
      </trkpt>
      <trkpt lat="47.18261" lon="-1.68701">
        <ele>70</ele>
        <time>2021-05-08T10:45:42.000Z</time>
      </trkpt>
      <trkpt lat="47.1826" lon="-1.68722">
        <ele>69</ele>
        <time>2021-05-08T10:45:44.000Z</time>
      </trkpt>
      <trkpt lat="47.18259" lon="-1.68744">
        <ele>69</ele>
        <time>2021-05-08T10:45:46.000Z</time>
      </trkpt>
      <trkpt lat="47.18259" lon="-1.68766">
        <ele>68</ele>
        <time>2021-05-08T10:45:48.000Z</time>
      </trkpt>
      <trkpt lat="47.18259" lon="-1.68788">
        <ele>68</ele>
        <time>2021-05-08T10:45:50.000Z</time>
      </trkpt>
      <trkpt lat="47.18257" lon="-1.68808">
        <ele>67</ele>
        <time>2021-05-08T10:45:52.000Z</time>
      </trkpt>
      <trkpt lat="47.18256" lon="-1.68829">
        <ele>67</ele>
        <time>2021-05-08T10:45:54.000Z</time>
      </trkpt>
      <trkpt lat="47.18257" lon="-1.68849">
        <ele>68</ele>
        <time>2021-05-08T10:45:56.000Z</time>
      </trkpt>
      <trkpt lat="47.18256" lon="-1.68869">
        <ele>66</ele>
        <time>2021-05-08T10:45:58.000Z</time>
      </trkpt>
      <trkpt lat="47.18254" lon="-1.689">
        <ele>63</ele>
        <time>2021-05-08T10:46:01.000Z</time>
      </trkpt>
      <trkpt lat="47.18254" lon="-1.68918">
        <ele>65</ele>
        <time>2021-05-08T10:46:03.000Z</time>
      </trkpt>
      <trkpt lat="47.18254" lon="-1.68937">
        <ele>66</ele>
        <time>2021-05-08T10:46:05.000Z</time>
      </trkpt>
      <trkpt lat="47.18255" lon="-1.68958">
        <ele>66</ele>
        <time>2021-05-08T10:46:07.000Z</time>
      </trkpt>
      <trkpt lat="47.18257" lon="-1.68986">
        <ele>67</ele>
        <time>2021-05-08T10:46:10.000Z</time>
      </trkpt>
      <trkpt lat="47.18259" lon="-1.69007">
        <ele>69</ele>
        <time>2021-05-08T10:46:12.000Z</time>
      </trkpt>
      <trkpt lat="47.18262" lon="-1.69026">
        <ele>70</ele>
        <time>2021-05-08T10:46:14.000Z</time>
      </trkpt>
      <trkpt lat="47.18264" lon="-1.69045">
        <ele>70</ele>
        <time>2021-05-08T10:46:16.000Z</time>
      </trkpt>
      <trkpt lat="47.18269" lon="-1.69075">
        <ele>70</ele>
        <time>2021-05-08T10:46:19.000Z</time>
      </trkpt>
      <trkpt lat="47.18273" lon="-1.69104">
        <ele>71</ele>
        <time>2021-05-08T10:46:22.000Z</time>
      </trkpt>
      <trkpt lat="47.18279" lon="-1.69134">
        <ele>70</ele>
        <time>2021-05-08T10:46:25.000Z</time>
      </trkpt>
      <trkpt lat="47.18282" lon="-1.69154">
        <ele>70</ele>
        <time>2021-05-08T10:46:27.000Z</time>
      </trkpt>
      <trkpt lat="47.18283" lon="-1.69174">
        <ele>71</ele>
        <time>2021-05-08T10:46:29.000Z</time>
      </trkpt>
      <trkpt lat="47.18285" lon="-1.69193">
        <ele>71</ele>
        <time>2021-05-08T10:46:31.000Z</time>
      </trkpt>
      <trkpt lat="47.18287" lon="-1.69221">
        <ele>72</ele>
        <time>2021-05-08T10:46:34.000Z</time>
      </trkpt>
      <trkpt lat="47.18289" lon="-1.6924">
        <ele>73</ele>
        <time>2021-05-08T10:46:36.000Z</time>
      </trkpt>
      <trkpt lat="47.1829" lon="-1.6926">
        <ele>73</ele>
        <time>2021-05-08T10:46:38.000Z</time>
      </trkpt>
      <trkpt lat="47.18292" lon="-1.6928">
        <ele>72</ele>
        <time>2021-05-08T10:46:40.000Z</time>
      </trkpt>
      <trkpt lat="47.18294" lon="-1.69299">
        <ele>73</ele>
        <time>2021-05-08T10:46:42.000Z</time>
      </trkpt>
      <trkpt lat="47.18298" lon="-1.69317">
        <ele>73</ele>
        <time>2021-05-08T10:46:44.000Z</time>
      </trkpt>
      <trkpt lat="47.18303" lon="-1.69335">
        <ele>72</ele>
        <time>2021-05-08T10:46:46.000Z</time>
      </trkpt>
      <trkpt lat="47.18306" lon="-1.69348">
        <ele>73</ele>
        <time>2021-05-08T10:46:48.000Z</time>
      </trkpt>
      <trkpt lat="47.1831" lon="-1.69362">
        <ele>73</ele>
        <time>2021-05-08T10:46:50.000Z</time>
      </trkpt>
      <trkpt lat="47.18315" lon="-1.69374">
        <ele>72</ele>
        <time>2021-05-08T10:46:52.000Z</time>
      </trkpt>
      <trkpt lat="47.18318" lon="-1.69404">
        <ele>73</ele>
        <time>2021-05-08T10:46:55.000Z</time>
      </trkpt>
      <trkpt lat="47.18321" lon="-1.69424">
        <ele>73</ele>
        <time>2021-05-08T10:46:57.000Z</time>
      </trkpt>
      <trkpt lat="47.18324" lon="-1.69444">
        <ele>73</ele>
        <time>2021-05-08T10:46:59.000Z</time>
      </trkpt>
      <trkpt lat="47.18328" lon="-1.69464">
        <ele>73</ele>
        <time>2021-05-08T10:47:01.000Z</time>
      </trkpt>
      <trkpt lat="47.1833" lon="-1.69486">
        <ele>71</ele>
        <time>2021-05-08T10:47:03.000Z</time>
      </trkpt>
      <trkpt lat="47.18333" lon="-1.69507">
        <ele>70</ele>
        <time>2021-05-08T10:47:05.000Z</time>
      </trkpt>
      <trkpt lat="47.18335" lon="-1.69527">
        <ele>71</ele>
        <time>2021-05-08T10:47:07.000Z</time>
      </trkpt>
      <trkpt lat="47.18338" lon="-1.69549">
        <ele>72</ele>
        <time>2021-05-08T10:47:09.000Z</time>
      </trkpt>
      <trkpt lat="47.18336" lon="-1.6957">
        <ele>69</ele>
        <time>2021-05-08T10:47:11.000Z</time>
      </trkpt>
      <trkpt lat="47.18339" lon="-1.69591">
        <ele>70</ele>
        <time>2021-05-08T10:47:13.000Z</time>
      </trkpt>
      <trkpt lat="47.18339" lon="-1.69612">
        <ele>71</ele>
        <time>2021-05-08T10:47:15.000Z</time>
      </trkpt>
      <trkpt lat="47.18335" lon="-1.69635">
        <ele>71</ele>
        <time>2021-05-08T10:47:17.000Z</time>
      </trkpt>
      <trkpt lat="47.18332" lon="-1.69658">
        <ele>71</ele>
        <time>2021-05-08T10:47:19.000Z</time>
      </trkpt>
      <trkpt lat="47.18331" lon="-1.69679">
        <ele>70</ele>
        <time>2021-05-08T10:47:21.000Z</time>
      </trkpt>
      <trkpt lat="47.1833" lon="-1.69701">
        <ele>69</ele>
        <time>2021-05-08T10:47:23.000Z</time>
      </trkpt>
      <trkpt lat="47.18332" lon="-1.69721">
        <ele>68</ele>
        <time>2021-05-08T10:47:25.000Z</time>
      </trkpt>
      <trkpt lat="47.18334" lon="-1.69742">
        <ele>68</ele>
        <time>2021-05-08T10:47:27.000Z</time>
      </trkpt>
      <trkpt lat="47.18337" lon="-1.6976">
        <ele>67</ele>
        <time>2021-05-08T10:47:29.000Z</time>
      </trkpt>
      <trkpt lat="47.18333" lon="-1.69777">
        <ele>67</ele>
        <time>2021-05-08T10:47:31.000Z</time>
      </trkpt>
      <trkpt lat="47.1832" lon="-1.69786">
        <ele>67</ele>
        <time>2021-05-08T10:47:33.000Z</time>
      </trkpt>
      <trkpt lat="47.18308" lon="-1.69797">
        <ele>68</ele>
        <time>2021-05-08T10:47:35.000Z</time>
      </trkpt>
      <trkpt lat="47.18296" lon="-1.69808">
        <ele>68</ele>
        <time>2021-05-08T10:47:37.000Z</time>
      </trkpt>
      <trkpt lat="47.18285" lon="-1.69823">
        <ele>69</ele>
        <time>2021-05-08T10:47:39.000Z</time>
      </trkpt>
      <trkpt lat="47.18275" lon="-1.69839">
        <ele>70</ele>
        <time>2021-05-08T10:47:41.000Z</time>
      </trkpt>
      <trkpt lat="47.1827" lon="-1.69862">
        <ele>68</ele>
        <time>2021-05-08T10:47:43.000Z</time>
      </trkpt>
      <trkpt lat="47.18266" lon="-1.69881">
        <ele>69</ele>
        <time>2021-05-08T10:47:45.000Z</time>
      </trkpt>
      <trkpt lat="47.18263" lon="-1.699">
        <ele>69</ele>
        <time>2021-05-08T10:47:47.000Z</time>
      </trkpt>
      <trkpt lat="47.18262" lon="-1.6992">
        <ele>69</ele>
        <time>2021-05-08T10:47:49.000Z</time>
      </trkpt>
      <trkpt lat="47.1826" lon="-1.69941">
        <ele>68</ele>
        <time>2021-05-08T10:47:51.000Z</time>
      </trkpt>
      <trkpt lat="47.18258" lon="-1.69962">
        <ele>68</ele>
        <time>2021-05-08T10:47:53.000Z</time>
      </trkpt>
      <trkpt lat="47.18258" lon="-1.69981">
        <ele>69</ele>
        <time>2021-05-08T10:47:55.000Z</time>
      </trkpt>
      <trkpt lat="47.18255" lon="-1.70002">
        <ele>69</ele>
        <time>2021-05-08T10:47:57.000Z</time>
      </trkpt>
      <trkpt lat="47.18253" lon="-1.70024">
        <ele>69</ele>
        <time>2021-05-08T10:47:59.000Z</time>
      </trkpt>
      <trkpt lat="47.18254" lon="-1.70044">
        <ele>70</ele>
        <time>2021-05-08T10:48:01.000Z</time>
      </trkpt>
      <trkpt lat="47.18254" lon="-1.70067">
        <ele>70</ele>
        <time>2021-05-08T10:48:03.000Z</time>
      </trkpt>
      <trkpt lat="47.18255" lon="-1.70101">
        <ele>71</ele>
        <time>2021-05-08T10:48:06.000Z</time>
      </trkpt>
      <trkpt lat="47.18254" lon="-1.70123">
        <ele>69</ele>
        <time>2021-05-08T10:48:08.000Z</time>
      </trkpt>
      <trkpt lat="47.18254" lon="-1.70145">
        <ele>69</ele>
        <time>2021-05-08T10:48:10.000Z</time>
      </trkpt>
      <trkpt lat="47.18252" lon="-1.70167">
        <ele>69</ele>
        <time>2021-05-08T10:48:12.000Z</time>
      </trkpt>
      <trkpt lat="47.18252" lon="-1.70189">
        <ele>69</ele>
        <time>2021-05-08T10:48:14.000Z</time>
      </trkpt>
      <trkpt lat="47.18251" lon="-1.7021">
        <ele>70</ele>
        <time>2021-05-08T10:48:16.000Z</time>
      </trkpt>
      <trkpt lat="47.18251" lon="-1.7023">
        <ele>70</ele>
        <time>2021-05-08T10:48:18.000Z</time>
      </trkpt>
      <trkpt lat="47.1825" lon="-1.7025">
        <ele>70</ele>
        <time>2021-05-08T10:48:20.000Z</time>
      </trkpt>
      <trkpt lat="47.1825" lon="-1.7027">
        <ele>70</ele>
        <time>2021-05-08T10:48:22.000Z</time>
      </trkpt>
      <trkpt lat="47.18253" lon="-1.70301">
        <ele>71</ele>
        <time>2021-05-08T10:48:25.000Z</time>
      </trkpt>
      <trkpt lat="47.18257" lon="-1.70329">
        <ele>71</ele>
        <time>2021-05-08T10:48:28.000Z</time>
      </trkpt>
      <trkpt lat="47.18267" lon="-1.70358">
        <ele>70</ele>
        <time>2021-05-08T10:48:31.000Z</time>
      </trkpt>
      <trkpt lat="47.18277" lon="-1.70385">
        <ele>67</ele>
        <time>2021-05-08T10:48:34.000Z</time>
      </trkpt>
      <trkpt lat="47.18287" lon="-1.70413">
        <ele>68</ele>
        <time>2021-05-08T10:48:37.000Z</time>
      </trkpt>
      <trkpt lat="47.18295" lon="-1.70432">
        <ele>68</ele>
        <time>2021-05-08T10:48:39.000Z</time>
      </trkpt>
      <trkpt lat="47.18305" lon="-1.70449">
        <ele>69</ele>
        <time>2021-05-08T10:48:41.000Z</time>
      </trkpt>
      <trkpt lat="47.18316" lon="-1.70464">
        <ele>69</ele>
        <time>2021-05-08T10:48:43.000Z</time>
      </trkpt>
      <trkpt lat="47.18334" lon="-1.70485">
        <ele>67</ele>
        <time>2021-05-08T10:48:46.000Z</time>
      </trkpt>
      <trkpt lat="47.18346" lon="-1.70497">
        <ele>66</ele>
        <time>2021-05-08T10:48:48.000Z</time>
      </trkpt>
      <trkpt lat="47.18358" lon="-1.70511">
        <ele>67</ele>
        <time>2021-05-08T10:48:50.000Z</time>
      </trkpt>
      <trkpt lat="47.1837" lon="-1.70525">
        <ele>67</ele>
        <time>2021-05-08T10:48:52.000Z</time>
      </trkpt>
      <trkpt lat="47.18381" lon="-1.70535">
        <ele>66</ele>
        <time>2021-05-08T10:48:54.000Z</time>
      </trkpt>
      <trkpt lat="47.18395" lon="-1.70547">
        <ele>67</ele>
        <time>2021-05-08T10:48:56.000Z</time>
      </trkpt>
      <trkpt lat="47.18409" lon="-1.70555">
        <ele>67</ele>
        <time>2021-05-08T10:48:58.000Z</time>
      </trkpt>
      <trkpt lat="47.18424" lon="-1.7056">
        <ele>67</ele>
        <time>2021-05-08T10:49:00.000Z</time>
      </trkpt>
      <trkpt lat="47.18446" lon="-1.70566">
        <ele>67</ele>
        <time>2021-05-08T10:49:03.000Z</time>
      </trkpt>
      <trkpt lat="47.18461" lon="-1.70571">
        <ele>67</ele>
        <time>2021-05-08T10:49:05.000Z</time>
      </trkpt>
      <trkpt lat="47.18475" lon="-1.70575">
        <ele>67</ele>
        <time>2021-05-08T10:49:07.000Z</time>
      </trkpt>
      <trkpt lat="47.1849" lon="-1.70578">
        <ele>67</ele>
        <time>2021-05-08T10:49:09.000Z</time>
      </trkpt>
      <trkpt lat="47.18504" lon="-1.70582">
        <ele>67</ele>
        <time>2021-05-08T10:49:11.000Z</time>
      </trkpt>
      <trkpt lat="47.18517" lon="-1.70586">
        <ele>66</ele>
        <time>2021-05-08T10:49:13.000Z</time>
      </trkpt>
      <trkpt lat="47.18529" lon="-1.70587">
        <ele>66</ele>
        <time>2021-05-08T10:49:15.000Z</time>
      </trkpt>
      <trkpt lat="47.18539" lon="-1.7059">
        <ele>66</ele>
        <time>2021-05-08T10:49:17.000Z</time>
      </trkpt>
      <trkpt lat="47.18547" lon="-1.70606">
        <ele>66</ele>
        <time>2021-05-08T10:49:19.000Z</time>
      </trkpt>
      <trkpt lat="47.18553" lon="-1.70624">
        <ele>67</ele>
        <time>2021-05-08T10:49:22.000Z</time>
      </trkpt>
      <trkpt lat="47.18564" lon="-1.70626">
        <ele>68</ele>
        <time>2021-05-08T10:49:24.000Z</time>
      </trkpt>
      <trkpt lat="47.1857" lon="-1.70643">
        <ele>70</ele>
        <time>2021-05-08T10:49:26.000Z</time>
      </trkpt>
      <trkpt lat="47.18574" lon="-1.70664">
        <ele>69</ele>
        <time>2021-05-08T10:49:28.000Z</time>
      </trkpt>
      <trkpt lat="47.1858" lon="-1.70693">
        <ele>68</ele>
        <time>2021-05-08T10:49:31.000Z</time>
      </trkpt>
      <trkpt lat="47.18587" lon="-1.7072">
        <ele>68</ele>
        <time>2021-05-08T10:49:34.000Z</time>
      </trkpt>
      <trkpt lat="47.1859" lon="-1.70742">
        <ele>68</ele>
        <time>2021-05-08T10:49:36.000Z</time>
      </trkpt>
      <trkpt lat="47.18594" lon="-1.70763">
        <ele>68</ele>
        <time>2021-05-08T10:49:38.000Z</time>
      </trkpt>
      <trkpt lat="47.18598" lon="-1.70785">
        <ele>66</ele>
        <time>2021-05-08T10:49:40.000Z</time>
      </trkpt>
      <trkpt lat="47.18604" lon="-1.70814">
        <ele>67</ele>
        <time>2021-05-08T10:49:43.000Z</time>
      </trkpt>
      <trkpt lat="47.1861" lon="-1.7084">
        <ele>67</ele>
        <time>2021-05-08T10:49:46.000Z</time>
      </trkpt>
      <trkpt lat="47.18612" lon="-1.70856">
        <ele>67</ele>
        <time>2021-05-08T10:49:48.000Z</time>
      </trkpt>
      <trkpt lat="47.18616" lon="-1.7087">
        <ele>67</ele>
        <time>2021-05-08T10:49:51.000Z</time>
      </trkpt>
      <trkpt lat="47.18619" lon="-1.70885">
        <ele>67</ele>
        <time>2021-05-08T10:49:53.000Z</time>
      </trkpt>
      <trkpt lat="47.18621" lon="-1.70903">
        <ele>66</ele>
        <time>2021-05-08T10:49:55.000Z</time>
      </trkpt>
      <trkpt lat="47.18624" lon="-1.70932">
        <ele>66</ele>
        <time>2021-05-08T10:49:58.000Z</time>
      </trkpt>
      <trkpt lat="47.1862" lon="-1.70956">
        <ele>66</ele>
        <time>2021-05-08T10:50:01.000Z</time>
      </trkpt>
      <trkpt lat="47.18611" lon="-1.70969">
        <ele>67</ele>
        <time>2021-05-08T10:50:03.000Z</time>
      </trkpt>
      <trkpt lat="47.186" lon="-1.70977">
        <ele>67</ele>
        <time>2021-05-08T10:50:05.000Z</time>
      </trkpt>
      <trkpt lat="47.18589" lon="-1.70985">
        <ele>68</ele>
        <time>2021-05-08T10:50:07.000Z</time>
      </trkpt>
      <trkpt lat="47.18577" lon="-1.70992">
        <ele>67</ele>
        <time>2021-05-08T10:50:09.000Z</time>
      </trkpt>
      <trkpt lat="47.18567" lon="-1.71">
        <ele>67</ele>
        <time>2021-05-08T10:50:11.000Z</time>
      </trkpt>
      <trkpt lat="47.18556" lon="-1.71008">
        <ele>69</ele>
        <time>2021-05-08T10:50:13.000Z</time>
      </trkpt>
      <trkpt lat="47.18544" lon="-1.71016">
        <ele>70</ele>
        <time>2021-05-08T10:50:15.000Z</time>
      </trkpt>
      <trkpt lat="47.1853" lon="-1.71025">
        <ele>70</ele>
        <time>2021-05-08T10:50:17.000Z</time>
      </trkpt>
      <trkpt lat="47.18516" lon="-1.71034">
        <ele>69</ele>
        <time>2021-05-08T10:50:19.000Z</time>
      </trkpt>
      <trkpt lat="47.18504" lon="-1.71041">
        <ele>69</ele>
        <time>2021-05-08T10:50:21.000Z</time>
      </trkpt>
      <trkpt lat="47.18491" lon="-1.71048">
        <ele>69</ele>
        <time>2021-05-08T10:50:23.000Z</time>
      </trkpt>
      <trkpt lat="47.18479" lon="-1.71056">
        <ele>69</ele>
        <time>2021-05-08T10:50:25.000Z</time>
      </trkpt>
      <trkpt lat="47.18467" lon="-1.71065">
        <ele>70</ele>
        <time>2021-05-08T10:50:27.000Z</time>
      </trkpt>
      <trkpt lat="47.18455" lon="-1.71071">
        <ele>69</ele>
        <time>2021-05-08T10:50:29.000Z</time>
      </trkpt>
      <trkpt lat="47.18442" lon="-1.71079">
        <ele>70</ele>
        <time>2021-05-08T10:50:31.000Z</time>
      </trkpt>
      <trkpt lat="47.18429" lon="-1.71086">
        <ele>70</ele>
        <time>2021-05-08T10:50:33.000Z</time>
      </trkpt>
      <trkpt lat="47.18416" lon="-1.71093">
        <ele>70</ele>
        <time>2021-05-08T10:50:35.000Z</time>
      </trkpt>
      <trkpt lat="47.18404" lon="-1.711">
        <ele>70</ele>
        <time>2021-05-08T10:50:37.000Z</time>
      </trkpt>
      <trkpt lat="47.18392" lon="-1.71108">
        <ele>71</ele>
        <time>2021-05-08T10:50:39.000Z</time>
      </trkpt>
      <trkpt lat="47.1838" lon="-1.71117">
        <ele>72</ele>
        <time>2021-05-08T10:50:41.000Z</time>
      </trkpt>
      <trkpt lat="47.18368" lon="-1.71126">
        <ele>72</ele>
        <time>2021-05-08T10:50:43.000Z</time>
      </trkpt>
      <trkpt lat="47.18355" lon="-1.71149">
        <ele>73</ele>
        <time>2021-05-08T10:50:46.000Z</time>
      </trkpt>
      <trkpt lat="47.18356" lon="-1.71168">
        <ele>72</ele>
        <time>2021-05-08T10:50:48.000Z</time>
      </trkpt>
      <trkpt lat="47.18362" lon="-1.71185">
        <ele>72</ele>
        <time>2021-05-08T10:50:50.000Z</time>
      </trkpt>
      <trkpt lat="47.1837" lon="-1.71201">
        <ele>71</ele>
        <time>2021-05-08T10:50:52.000Z</time>
      </trkpt>
      <trkpt lat="47.18378" lon="-1.71216">
        <ele>72</ele>
        <time>2021-05-08T10:50:54.000Z</time>
      </trkpt>
      <trkpt lat="47.18386" lon="-1.71231">
        <ele>72</ele>
        <time>2021-05-08T10:50:56.000Z</time>
      </trkpt>
      <trkpt lat="47.18393" lon="-1.71246">
        <ele>72</ele>
        <time>2021-05-08T10:50:58.000Z</time>
      </trkpt>
      <trkpt lat="47.18401" lon="-1.71261">
        <ele>72</ele>
        <time>2021-05-08T10:51:00.000Z</time>
      </trkpt>
      <trkpt lat="47.1841" lon="-1.71278">
        <ele>72</ele>
        <time>2021-05-08T10:51:02.000Z</time>
      </trkpt>
      <trkpt lat="47.18418" lon="-1.71293">
        <ele>72</ele>
        <time>2021-05-08T10:51:04.000Z</time>
      </trkpt>
      <trkpt lat="47.18425" lon="-1.71309">
        <ele>71</ele>
        <time>2021-05-08T10:51:06.000Z</time>
      </trkpt>
      <trkpt lat="47.18434" lon="-1.71323">
        <ele>72</ele>
        <time>2021-05-08T10:51:08.000Z</time>
      </trkpt>
      <trkpt lat="47.18441" lon="-1.71338">
        <ele>72</ele>
        <time>2021-05-08T10:51:10.000Z</time>
      </trkpt>
      <trkpt lat="47.18453" lon="-1.7136">
        <ele>72</ele>
        <time>2021-05-08T10:51:13.000Z</time>
      </trkpt>
      <trkpt lat="47.18465" lon="-1.71383">
        <ele>72</ele>
        <time>2021-05-08T10:51:16.000Z</time>
      </trkpt>
      <trkpt lat="47.18473" lon="-1.71398">
        <ele>72</ele>
        <time>2021-05-08T10:51:18.000Z</time>
      </trkpt>
      <trkpt lat="47.1848" lon="-1.71412">
        <ele>71</ele>
        <time>2021-05-08T10:51:20.000Z</time>
      </trkpt>
      <trkpt lat="47.18488" lon="-1.71427">
        <ele>72</ele>
        <time>2021-05-08T10:51:22.000Z</time>
      </trkpt>
      <trkpt lat="47.18498" lon="-1.71447">
        <ele>72</ele>
        <time>2021-05-08T10:51:25.000Z</time>
      </trkpt>
      <trkpt lat="47.18505" lon="-1.7146">
        <ele>73</ele>
        <time>2021-05-08T10:51:27.000Z</time>
      </trkpt>
      <trkpt lat="47.18511" lon="-1.71473">
        <ele>73</ele>
        <time>2021-05-08T10:51:29.000Z</time>
      </trkpt>
      <trkpt lat="47.18518" lon="-1.71487">
        <ele>72</ele>
        <time>2021-05-08T10:51:31.000Z</time>
      </trkpt>
      <trkpt lat="47.18529" lon="-1.71506">
        <ele>73</ele>
        <time>2021-05-08T10:51:34.000Z</time>
      </trkpt>
      <trkpt lat="47.18542" lon="-1.7153">
        <ele>72</ele>
        <time>2021-05-08T10:51:37.000Z</time>
      </trkpt>
      <trkpt lat="47.18554" lon="-1.71553">
        <ele>72</ele>
        <time>2021-05-08T10:51:40.000Z</time>
      </trkpt>
      <trkpt lat="47.18563" lon="-1.71569">
        <ele>72</ele>
        <time>2021-05-08T10:51:42.000Z</time>
      </trkpt>
      <trkpt lat="47.18571" lon="-1.71585">
        <ele>72</ele>
        <time>2021-05-08T10:51:44.000Z</time>
      </trkpt>
      <trkpt lat="47.18579" lon="-1.71601">
        <ele>72</ele>
        <time>2021-05-08T10:51:46.000Z</time>
      </trkpt>
      <trkpt lat="47.18587" lon="-1.71617">
        <ele>72</ele>
        <time>2021-05-08T10:51:48.000Z</time>
      </trkpt>
      <trkpt lat="47.18595" lon="-1.71633">
        <ele>72</ele>
        <time>2021-05-08T10:51:50.000Z</time>
      </trkpt>
      <trkpt lat="47.18603" lon="-1.71648">
        <ele>72</ele>
        <time>2021-05-08T10:51:52.000Z</time>
      </trkpt>
      <trkpt lat="47.18611" lon="-1.71664">
        <ele>72</ele>
        <time>2021-05-08T10:51:54.000Z</time>
      </trkpt>
      <trkpt lat="47.18619" lon="-1.71679">
        <ele>72</ele>
        <time>2021-05-08T10:51:56.000Z</time>
      </trkpt>
      <trkpt lat="47.18631" lon="-1.71703">
        <ele>72</ele>
        <time>2021-05-08T10:51:59.000Z</time>
      </trkpt>
      <trkpt lat="47.1864" lon="-1.71719">
        <ele>72</ele>
        <time>2021-05-08T10:52:01.000Z</time>
      </trkpt>
      <trkpt lat="47.18648" lon="-1.71736">
        <ele>67</ele>
        <time>2021-05-08T10:52:03.000Z</time>
      </trkpt>
      <trkpt lat="47.18657" lon="-1.71752">
        <ele>68</ele>
        <time>2021-05-08T10:52:05.000Z</time>
      </trkpt>
      <trkpt lat="47.18665" lon="-1.71769">
        <ele>69</ele>
        <time>2021-05-08T10:52:07.000Z</time>
      </trkpt>
      <trkpt lat="47.18673" lon="-1.71787">
        <ele>69</ele>
        <time>2021-05-08T10:52:09.000Z</time>
      </trkpt>
      <trkpt lat="47.18681" lon="-1.71802">
        <ele>69</ele>
        <time>2021-05-08T10:52:11.000Z</time>
      </trkpt>
      <trkpt lat="47.18689" lon="-1.71817">
        <ele>69</ele>
        <time>2021-05-08T10:52:13.000Z</time>
      </trkpt>
      <trkpt lat="47.18699" lon="-1.71832">
        <ele>70</ele>
        <time>2021-05-08T10:52:15.000Z</time>
      </trkpt>
      <trkpt lat="47.18707" lon="-1.71848">
        <ele>70</ele>
        <time>2021-05-08T10:52:17.000Z</time>
      </trkpt>
      <trkpt lat="47.18716" lon="-1.71864">
        <ele>69</ele>
        <time>2021-05-08T10:52:19.000Z</time>
      </trkpt>
      <trkpt lat="47.18733" lon="-1.71896">
        <ele>69</ele>
        <time>2021-05-08T10:52:23.000Z</time>
      </trkpt>
      <trkpt lat="47.18741" lon="-1.71911">
        <ele>69</ele>
        <time>2021-05-08T10:52:25.000Z</time>
      </trkpt>
      <trkpt lat="47.18751" lon="-1.71925">
        <ele>70</ele>
        <time>2021-05-08T10:52:27.000Z</time>
      </trkpt>
      <trkpt lat="47.18758" lon="-1.7194">
        <ele>70</ele>
        <time>2021-05-08T10:52:29.000Z</time>
      </trkpt>
      <trkpt lat="47.18766" lon="-1.71957">
        <ele>70</ele>
        <time>2021-05-08T10:52:31.000Z</time>
      </trkpt>
      <trkpt lat="47.18774" lon="-1.71973">
        <ele>70</ele>
        <time>2021-05-08T10:52:33.000Z</time>
      </trkpt>
      <trkpt lat="47.18781" lon="-1.71987">
        <ele>71</ele>
        <time>2021-05-08T10:52:35.000Z</time>
      </trkpt>
      <trkpt lat="47.18778" lon="-1.72007">
        <ele>71</ele>
        <time>2021-05-08T10:52:37.000Z</time>
      </trkpt>
      <trkpt lat="47.18771" lon="-1.72026">
        <ele>71</ele>
        <time>2021-05-08T10:52:39.000Z</time>
      </trkpt>
      <trkpt lat="47.18767" lon="-1.72043">
        <ele>72</ele>
        <time>2021-05-08T10:52:41.000Z</time>
      </trkpt>
      <trkpt lat="47.18768" lon="-1.72062">
        <ele>72</ele>
        <time>2021-05-08T10:52:43.000Z</time>
      </trkpt>
      <trkpt lat="47.1877" lon="-1.7208">
        <ele>72</ele>
        <time>2021-05-08T10:52:45.000Z</time>
      </trkpt>
      <trkpt lat="47.18776" lon="-1.72108">
        <ele>71</ele>
        <time>2021-05-08T10:52:48.000Z</time>
      </trkpt>
      <trkpt lat="47.18781" lon="-1.72125">
        <ele>71</ele>
        <time>2021-05-08T10:52:50.000Z</time>
      </trkpt>
      <trkpt lat="47.18788" lon="-1.72142">
        <ele>71</ele>
        <time>2021-05-08T10:52:52.000Z</time>
      </trkpt>
      <trkpt lat="47.188" lon="-1.72163">
        <ele>71</ele>
        <time>2021-05-08T10:52:55.000Z</time>
      </trkpt>
      <trkpt lat="47.18805" lon="-1.72181">
        <ele>70</ele>
        <time>2021-05-08T10:52:57.000Z</time>
      </trkpt>
      <trkpt lat="47.18801" lon="-1.722">
        <ele>70</ele>
        <time>2021-05-08T10:52:59.000Z</time>
      </trkpt>
      <trkpt lat="47.18792" lon="-1.72213">
        <ele>70</ele>
        <time>2021-05-08T10:53:01.000Z</time>
      </trkpt>
      <trkpt lat="47.18782" lon="-1.72224">
        <ele>71</ele>
        <time>2021-05-08T10:53:03.000Z</time>
      </trkpt>
      <trkpt lat="47.18774" lon="-1.72241">
        <ele>70</ele>
        <time>2021-05-08T10:53:05.000Z</time>
      </trkpt>
      <trkpt lat="47.1877" lon="-1.7226">
        <ele>70</ele>
        <time>2021-05-08T10:53:07.000Z</time>
      </trkpt>
      <trkpt lat="47.18766" lon="-1.72279">
        <ele>70</ele>
        <time>2021-05-08T10:53:09.000Z</time>
      </trkpt>
      <trkpt lat="47.18765" lon="-1.723">
        <ele>69</ele>
        <time>2021-05-08T10:53:11.000Z</time>
      </trkpt>
      <trkpt lat="47.18766" lon="-1.72322">
        <ele>69</ele>
        <time>2021-05-08T10:53:13.000Z</time>
      </trkpt>
      <trkpt lat="47.18766" lon="-1.72345">
        <ele>68</ele>
        <time>2021-05-08T10:53:15.000Z</time>
      </trkpt>
      <trkpt lat="47.18766" lon="-1.72389">
        <ele>67</ele>
        <time>2021-05-08T10:53:19.000Z</time>
      </trkpt>
      <trkpt lat="47.18766" lon="-1.7241">
        <ele>68</ele>
        <time>2021-05-08T10:53:21.000Z</time>
      </trkpt>
      <trkpt lat="47.18766" lon="-1.72432">
        <ele>64</ele>
        <time>2021-05-08T10:53:23.000Z</time>
      </trkpt>
      <trkpt lat="47.18766" lon="-1.72453">
        <ele>64</ele>
        <time>2021-05-08T10:53:25.000Z</time>
      </trkpt>
      <trkpt lat="47.18763" lon="-1.72472">
        <ele>65</ele>
        <time>2021-05-08T10:53:27.000Z</time>
      </trkpt>
      <trkpt lat="47.18761" lon="-1.72489">
        <ele>65</ele>
        <time>2021-05-08T10:53:29.000Z</time>
      </trkpt>
      <trkpt lat="47.18758" lon="-1.72508">
        <ele>67</ele>
        <time>2021-05-08T10:53:31.000Z</time>
      </trkpt>
      <trkpt lat="47.18754" lon="-1.72529">
        <ele>66</ele>
        <time>2021-05-08T10:53:33.000Z</time>
      </trkpt>
      <trkpt lat="47.18751" lon="-1.72548">
        <ele>66</ele>
        <time>2021-05-08T10:53:35.000Z</time>
      </trkpt>
      <trkpt lat="47.18749" lon="-1.72568">
        <ele>67</ele>
        <time>2021-05-08T10:53:37.000Z</time>
      </trkpt>
      <trkpt lat="47.18747" lon="-1.72589">
        <ele>68</ele>
        <time>2021-05-08T10:53:39.000Z</time>
      </trkpt>
      <trkpt lat="47.18747" lon="-1.72612">
        <ele>67</ele>
        <time>2021-05-08T10:53:41.000Z</time>
      </trkpt>
      <trkpt lat="47.18747" lon="-1.72633">
        <ele>67</ele>
        <time>2021-05-08T10:53:43.000Z</time>
      </trkpt>
      <trkpt lat="47.18748" lon="-1.72654">
        <ele>67</ele>
        <time>2021-05-08T10:53:45.000Z</time>
      </trkpt>
      <trkpt lat="47.18746" lon="-1.72676">
        <ele>67</ele>
        <time>2021-05-08T10:53:47.000Z</time>
      </trkpt>
      <trkpt lat="47.18746" lon="-1.727">
        <ele>66</ele>
        <time>2021-05-08T10:53:49.000Z</time>
      </trkpt>
      <trkpt lat="47.18746" lon="-1.72721">
        <ele>66</ele>
        <time>2021-05-08T10:53:51.000Z</time>
      </trkpt>
      <trkpt lat="47.18745" lon="-1.72742">
        <ele>66</ele>
        <time>2021-05-08T10:53:53.000Z</time>
      </trkpt>
      <trkpt lat="47.18743" lon="-1.72761">
        <ele>62</ele>
        <time>2021-05-08T10:53:55.000Z</time>
      </trkpt>
      <trkpt lat="47.18743" lon="-1.72781">
        <ele>63</ele>
        <time>2021-05-08T10:53:57.000Z</time>
      </trkpt>
      <trkpt lat="47.1874" lon="-1.72801">
        <ele>63</ele>
        <time>2021-05-08T10:53:59.000Z</time>
      </trkpt>
      <trkpt lat="47.18739" lon="-1.72819">
        <ele>60</ele>
        <time>2021-05-08T10:54:01.000Z</time>
      </trkpt>
      <trkpt lat="47.18738" lon="-1.72837">
        <ele>60</ele>
        <time>2021-05-08T10:54:03.000Z</time>
      </trkpt>
      <trkpt lat="47.18734" lon="-1.72858">
        <ele>62</ele>
        <time>2021-05-08T10:54:05.000Z</time>
      </trkpt>
      <trkpt lat="47.18732" lon="-1.72877">
        <ele>63</ele>
        <time>2021-05-08T10:54:07.000Z</time>
      </trkpt>
      <trkpt lat="47.18727" lon="-1.72905">
        <ele>63</ele>
        <time>2021-05-08T10:54:10.000Z</time>
      </trkpt>
      <trkpt lat="47.18725" lon="-1.72925">
        <ele>64</ele>
        <time>2021-05-08T10:54:12.000Z</time>
      </trkpt>
      <trkpt lat="47.18722" lon="-1.72945">
        <ele>64</ele>
        <time>2021-05-08T10:54:14.000Z</time>
      </trkpt>
      <trkpt lat="47.18719" lon="-1.72963">
        <ele>65</ele>
        <time>2021-05-08T10:54:16.000Z</time>
      </trkpt>
      <trkpt lat="47.18711" lon="-1.72989">
        <ele>66</ele>
        <time>2021-05-08T10:54:19.000Z</time>
      </trkpt>
      <trkpt lat="47.18704" lon="-1.73005">
        <ele>67</ele>
        <time>2021-05-08T10:54:21.000Z</time>
      </trkpt>
      <trkpt lat="47.18698" lon="-1.73023">
        <ele>67</ele>
        <time>2021-05-08T10:54:23.000Z</time>
      </trkpt>
      <trkpt lat="47.1869" lon="-1.73038">
        <ele>67</ele>
        <time>2021-05-08T10:54:25.000Z</time>
      </trkpt>
      <trkpt lat="47.18685" lon="-1.73056">
        <ele>68</ele>
        <time>2021-05-08T10:54:27.000Z</time>
      </trkpt>
      <trkpt lat="47.18679" lon="-1.7307">
        <ele>68</ele>
        <time>2021-05-08T10:54:29.000Z</time>
      </trkpt>
      <trkpt lat="47.18672" lon="-1.73087">
        <ele>68</ele>
        <time>2021-05-08T10:54:31.000Z</time>
      </trkpt>
      <trkpt lat="47.18667" lon="-1.73107">
        <ele>67</ele>
        <time>2021-05-08T10:54:33.000Z</time>
      </trkpt>
      <trkpt lat="47.18667" lon="-1.73126">
        <ele>67</ele>
        <time>2021-05-08T10:54:35.000Z</time>
      </trkpt>
      <trkpt lat="47.18668" lon="-1.73145">
        <ele>67</ele>
        <time>2021-05-08T10:54:37.000Z</time>
      </trkpt>
      <trkpt lat="47.18671" lon="-1.73166">
        <ele>67</ele>
        <time>2021-05-08T10:54:39.000Z</time>
      </trkpt>
      <trkpt lat="47.18673" lon="-1.73187">
        <ele>67</ele>
        <time>2021-05-08T10:54:41.000Z</time>
      </trkpt>
      <trkpt lat="47.18674" lon="-1.73207">
        <ele>66</ele>
        <time>2021-05-08T10:54:43.000Z</time>
      </trkpt>
      <trkpt lat="47.1867" lon="-1.73236">
        <ele>66</ele>
        <time>2021-05-08T10:54:46.000Z</time>
      </trkpt>
      <trkpt lat="47.18664" lon="-1.73254">
        <ele>66</ele>
        <time>2021-05-08T10:54:48.000Z</time>
      </trkpt>
      <trkpt lat="47.18658" lon="-1.73272">
        <ele>66</ele>
        <time>2021-05-08T10:54:50.000Z</time>
      </trkpt>
      <trkpt lat="47.18654" lon="-1.7329">
        <ele>67</ele>
        <time>2021-05-08T10:54:52.000Z</time>
      </trkpt>
      <trkpt lat="47.1865" lon="-1.73309">
        <ele>67</ele>
        <time>2021-05-08T10:54:54.000Z</time>
      </trkpt>
      <trkpt lat="47.18645" lon="-1.73326">
        <ele>67</ele>
        <time>2021-05-08T10:54:56.000Z</time>
      </trkpt>
      <trkpt lat="47.1864" lon="-1.73345">
        <ele>67</ele>
        <time>2021-05-08T10:54:58.000Z</time>
      </trkpt>
      <trkpt lat="47.18635" lon="-1.73363">
        <ele>68</ele>
        <time>2021-05-08T10:55:00.000Z</time>
      </trkpt>
      <trkpt lat="47.1863" lon="-1.73381">
        <ele>68</ele>
        <time>2021-05-08T10:55:02.000Z</time>
      </trkpt>
      <trkpt lat="47.18625" lon="-1.73399">
        <ele>67</ele>
        <time>2021-05-08T10:55:04.000Z</time>
      </trkpt>
      <trkpt lat="47.1862" lon="-1.73416">
        <ele>67</ele>
        <time>2021-05-08T10:55:06.000Z</time>
      </trkpt>
      <trkpt lat="47.18613" lon="-1.73433">
        <ele>68</ele>
        <time>2021-05-08T10:55:08.000Z</time>
      </trkpt>
      <trkpt lat="47.18606" lon="-1.73446">
        <ele>69</ele>
        <time>2021-05-08T10:55:10.000Z</time>
      </trkpt>
      <trkpt lat="47.18597" lon="-1.73459">
        <ele>69</ele>
        <time>2021-05-08T10:55:12.000Z</time>
      </trkpt>
      <trkpt lat="47.18591" lon="-1.73473">
        <ele>69</ele>
        <time>2021-05-08T10:55:14.000Z</time>
      </trkpt>
      <trkpt lat="47.18594" lon="-1.73491">
        <ele>69</ele>
        <time>2021-05-08T10:55:16.000Z</time>
      </trkpt>
      <trkpt lat="47.18601" lon="-1.73508">
        <ele>69</ele>
        <time>2021-05-08T10:55:18.000Z</time>
      </trkpt>
      <trkpt lat="47.18607" lon="-1.73526">
        <ele>69</ele>
        <time>2021-05-08T10:55:20.000Z</time>
      </trkpt>
      <trkpt lat="47.18613" lon="-1.73543">
        <ele>68</ele>
        <time>2021-05-08T10:55:22.000Z</time>
      </trkpt>
      <trkpt lat="47.1862" lon="-1.73561">
        <ele>68</ele>
        <time>2021-05-08T10:55:24.000Z</time>
      </trkpt>
      <trkpt lat="47.18628" lon="-1.73579">
        <ele>66</ele>
        <time>2021-05-08T10:55:26.000Z</time>
      </trkpt>
      <trkpt lat="47.18636" lon="-1.73595">
        <ele>64</ele>
        <time>2021-05-08T10:55:28.000Z</time>
      </trkpt>
      <trkpt lat="47.18647" lon="-1.7362">
        <ele>64</ele>
        <time>2021-05-08T10:55:31.000Z</time>
      </trkpt>
      <trkpt lat="47.18653" lon="-1.73635">
        <ele>63</ele>
        <time>2021-05-08T10:55:33.000Z</time>
      </trkpt>
      <trkpt lat="47.18659" lon="-1.73649">
        <ele>64</ele>
        <time>2021-05-08T10:55:35.000Z</time>
      </trkpt>
      <trkpt lat="47.18664" lon="-1.7366">
        <ele>65</ele>
        <time>2021-05-08T10:55:37.000Z</time>
      </trkpt>
      <trkpt lat="47.18671" lon="-1.73675">
        <ele>65</ele>
        <time>2021-05-08T10:55:39.000Z</time>
      </trkpt>
      <trkpt lat="47.18676" lon="-1.73692">
        <ele>65</ele>
        <time>2021-05-08T10:55:41.000Z</time>
      </trkpt>
      <trkpt lat="47.18682" lon="-1.7371">
        <ele>65</ele>
        <time>2021-05-08T10:55:43.000Z</time>
      </trkpt>
      <trkpt lat="47.18688" lon="-1.73728">
        <ele>65</ele>
        <time>2021-05-08T10:55:45.000Z</time>
      </trkpt>
      <trkpt lat="47.18693" lon="-1.73745">
        <ele>66</ele>
        <time>2021-05-08T10:55:47.000Z</time>
      </trkpt>
      <trkpt lat="47.18699" lon="-1.73762">
        <ele>66</ele>
        <time>2021-05-08T10:55:49.000Z</time>
      </trkpt>
      <trkpt lat="47.18704" lon="-1.73779">
        <ele>66</ele>
        <time>2021-05-08T10:55:51.000Z</time>
      </trkpt>
      <trkpt lat="47.18709" lon="-1.73796">
        <ele>67</ele>
        <time>2021-05-08T10:55:53.000Z</time>
      </trkpt>
      <trkpt lat="47.18715" lon="-1.73814">
        <ele>67</ele>
        <time>2021-05-08T10:55:55.000Z</time>
      </trkpt>
      <trkpt lat="47.18724" lon="-1.73839">
        <ele>65</ele>
        <time>2021-05-08T10:55:58.000Z</time>
      </trkpt>
      <trkpt lat="47.1873" lon="-1.73859">
        <ele>65</ele>
        <time>2021-05-08T10:56:00.000Z</time>
      </trkpt>
      <trkpt lat="47.18735" lon="-1.73876">
        <ele>65</ele>
        <time>2021-05-08T10:56:02.000Z</time>
      </trkpt>
      <trkpt lat="47.1874" lon="-1.73893">
        <ele>66</ele>
        <time>2021-05-08T10:56:04.000Z</time>
      </trkpt>
      <trkpt lat="47.18744" lon="-1.7391">
        <ele>67</ele>
        <time>2021-05-08T10:56:06.000Z</time>
      </trkpt>
      <trkpt lat="47.18749" lon="-1.73927">
        <ele>68</ele>
        <time>2021-05-08T10:56:08.000Z</time>
      </trkpt>
      <trkpt lat="47.18753" lon="-1.73944">
        <ele>69</ele>
        <time>2021-05-08T10:56:10.000Z</time>
      </trkpt>
      <trkpt lat="47.18759" lon="-1.73962">
        <ele>69</ele>
        <time>2021-05-08T10:56:12.000Z</time>
      </trkpt>
      <trkpt lat="47.18765" lon="-1.7398">
        <ele>69</ele>
        <time>2021-05-08T10:56:14.000Z</time>
      </trkpt>
      <trkpt lat="47.1877" lon="-1.73998">
        <ele>69</ele>
        <time>2021-05-08T10:56:16.000Z</time>
      </trkpt>
      <trkpt lat="47.18778" lon="-1.74023">
        <ele>68</ele>
        <time>2021-05-08T10:56:19.000Z</time>
      </trkpt>
      <trkpt lat="47.18784" lon="-1.7404">
        <ele>68</ele>
        <time>2021-05-08T10:56:21.000Z</time>
      </trkpt>
      <trkpt lat="47.18791" lon="-1.74058">
        <ele>69</ele>
        <time>2021-05-08T10:56:23.000Z</time>
      </trkpt>
      <trkpt lat="47.18798" lon="-1.74074">
        <ele>69</ele>
        <time>2021-05-08T10:56:25.000Z</time>
      </trkpt>
      <trkpt lat="47.18805" lon="-1.74089">
        <ele>70</ele>
        <time>2021-05-08T10:56:27.000Z</time>
      </trkpt>
      <trkpt lat="47.18812" lon="-1.74104">
        <ele>70</ele>
        <time>2021-05-08T10:56:29.000Z</time>
      </trkpt>
      <trkpt lat="47.1882" lon="-1.7412">
        <ele>71</ele>
        <time>2021-05-08T10:56:31.000Z</time>
      </trkpt>
      <trkpt lat="47.18826" lon="-1.74136">
        <ele>71</ele>
        <time>2021-05-08T10:56:33.000Z</time>
      </trkpt>
      <trkpt lat="47.18833" lon="-1.74151">
        <ele>71</ele>
        <time>2021-05-08T10:56:35.000Z</time>
      </trkpt>
      <trkpt lat="47.1884" lon="-1.74167">
        <ele>71</ele>
        <time>2021-05-08T10:56:37.000Z</time>
      </trkpt>
      <trkpt lat="47.18846" lon="-1.7418">
        <ele>71</ele>
        <time>2021-05-08T10:56:39.000Z</time>
      </trkpt>
      <trkpt lat="47.18852" lon="-1.74194">
        <ele>71</ele>
        <time>2021-05-08T10:56:41.000Z</time>
      </trkpt>
      <trkpt lat="47.18857" lon="-1.74209">
        <ele>72</ele>
        <time>2021-05-08T10:56:43.000Z</time>
      </trkpt>
      <trkpt lat="47.18859" lon="-1.74223">
        <ele>71</ele>
        <time>2021-05-08T10:56:45.000Z</time>
      </trkpt>
      <trkpt lat="47.18857" lon="-1.7424">
        <ele>71</ele>
        <time>2021-05-08T10:56:47.000Z</time>
      </trkpt>
      <trkpt lat="47.18853" lon="-1.74258">
        <ele>71</ele>
        <time>2021-05-08T10:56:49.000Z</time>
      </trkpt>
      <trkpt lat="47.18848" lon="-1.74278">
        <ele>70</ele>
        <time>2021-05-08T10:56:51.000Z</time>
      </trkpt>
      <trkpt lat="47.18843" lon="-1.74308">
        <ele>70</ele>
        <time>2021-05-08T10:56:54.000Z</time>
      </trkpt>
      <trkpt lat="47.18836" lon="-1.74338">
        <ele>70</ele>
        <time>2021-05-08T10:56:57.000Z</time>
      </trkpt>
      <trkpt lat="47.18833" lon="-1.74357">
        <ele>70</ele>
        <time>2021-05-08T10:56:59.000Z</time>
      </trkpt>
      <trkpt lat="47.18832" lon="-1.74381">
        <ele>69</ele>
        <time>2021-05-08T10:57:01.000Z</time>
      </trkpt>
      <trkpt lat="47.18829" lon="-1.744">
        <ele>70</ele>
        <time>2021-05-08T10:57:03.000Z</time>
      </trkpt>
      <trkpt lat="47.18824" lon="-1.74418">
        <ele>71</ele>
        <time>2021-05-08T10:57:05.000Z</time>
      </trkpt>
      <trkpt lat="47.18821" lon="-1.74437">
        <ele>71</ele>
        <time>2021-05-08T10:57:07.000Z</time>
      </trkpt>
      <trkpt lat="47.18819" lon="-1.74457">
        <ele>71</ele>
        <time>2021-05-08T10:57:09.000Z</time>
      </trkpt>
      <trkpt lat="47.18818" lon="-1.74479">
        <ele>71</ele>
        <time>2021-05-08T10:57:11.000Z</time>
      </trkpt>
      <trkpt lat="47.18817" lon="-1.745">
        <ele>71</ele>
        <time>2021-05-08T10:57:13.000Z</time>
      </trkpt>
      <trkpt lat="47.18817" lon="-1.74531">
        <ele>70</ele>
        <time>2021-05-08T10:57:16.000Z</time>
      </trkpt>
      <trkpt lat="47.18817" lon="-1.74552">
        <ele>70</ele>
        <time>2021-05-08T10:57:18.000Z</time>
      </trkpt>
      <trkpt lat="47.18818" lon="-1.74573">
        <ele>69</ele>
        <time>2021-05-08T10:57:20.000Z</time>
      </trkpt>
      <trkpt lat="47.18821" lon="-1.74593">
        <ele>70</ele>
        <time>2021-05-08T10:57:22.000Z</time>
      </trkpt>
      <trkpt lat="47.18825" lon="-1.74614">
        <ele>71</ele>
        <time>2021-05-08T10:57:24.000Z</time>
      </trkpt>
      <trkpt lat="47.1883" lon="-1.74634">
        <ele>68</ele>
        <time>2021-05-08T10:57:26.000Z</time>
      </trkpt>
      <trkpt lat="47.18833" lon="-1.74652">
        <ele>66</ele>
        <time>2021-05-08T10:57:28.000Z</time>
      </trkpt>
      <trkpt lat="47.18838" lon="-1.74672">
        <ele>66</ele>
        <time>2021-05-08T10:57:30.000Z</time>
      </trkpt>
      <trkpt lat="47.18843" lon="-1.74691">
        <ele>66</ele>
        <time>2021-05-08T10:57:32.000Z</time>
      </trkpt>
      <trkpt lat="47.1885" lon="-1.74721">
        <ele>67</ele>
        <time>2021-05-08T10:57:35.000Z</time>
      </trkpt>
      <trkpt lat="47.18854" lon="-1.7474">
        <ele>67</ele>
        <time>2021-05-08T10:57:37.000Z</time>
      </trkpt>
      <trkpt lat="47.18859" lon="-1.74759">
        <ele>67</ele>
        <time>2021-05-08T10:57:39.000Z</time>
      </trkpt>
      <trkpt lat="47.18864" lon="-1.74779">
        <ele>67</ele>
        <time>2021-05-08T10:57:41.000Z</time>
      </trkpt>
      <trkpt lat="47.18868" lon="-1.74798">
        <ele>67</ele>
        <time>2021-05-08T10:57:43.000Z</time>
      </trkpt>
      <trkpt lat="47.18874" lon="-1.74826">
        <ele>67</ele>
        <time>2021-05-08T10:57:46.000Z</time>
      </trkpt>
      <trkpt lat="47.18879" lon="-1.74844">
        <ele>66</ele>
        <time>2021-05-08T10:57:48.000Z</time>
      </trkpt>
      <trkpt lat="47.18883" lon="-1.74859">
        <ele>66</ele>
        <time>2021-05-08T10:57:50.000Z</time>
      </trkpt>
      <trkpt lat="47.1888" lon="-1.74872">
        <ele>66</ele>
        <time>2021-05-08T10:57:52.000Z</time>
      </trkpt>
      <trkpt lat="47.18874" lon="-1.74894">
        <ele>67</ele>
        <time>2021-05-08T10:57:55.000Z</time>
      </trkpt>
      <trkpt lat="47.18875" lon="-1.74912">
        <ele>67</ele>
        <time>2021-05-08T10:57:57.000Z</time>
      </trkpt>
      <trkpt lat="47.18876" lon="-1.7493">
        <ele>68</ele>
        <time>2021-05-08T10:57:59.000Z</time>
      </trkpt>
      <trkpt lat="47.18877" lon="-1.7496">
        <ele>68</ele>
        <time>2021-05-08T10:58:02.000Z</time>
      </trkpt>
      <trkpt lat="47.18878" lon="-1.74979">
        <ele>68</ele>
        <time>2021-05-08T10:58:04.000Z</time>
      </trkpt>
      <trkpt lat="47.1888" lon="-1.75009">
        <ele>67</ele>
        <time>2021-05-08T10:58:07.000Z</time>
      </trkpt>
      <trkpt lat="47.18879" lon="-1.7504">
        <ele>67</ele>
        <time>2021-05-08T10:58:10.000Z</time>
      </trkpt>
      <trkpt lat="47.18879" lon="-1.7507">
        <ele>66</ele>
        <time>2021-05-08T10:58:13.000Z</time>
      </trkpt>
      <trkpt lat="47.18879" lon="-1.75088">
        <ele>67</ele>
        <time>2021-05-08T10:58:15.000Z</time>
      </trkpt>
      <trkpt lat="47.18879" lon="-1.75108">
        <ele>67</ele>
        <time>2021-05-08T10:58:17.000Z</time>
      </trkpt>
      <trkpt lat="47.18879" lon="-1.75128">
        <ele>67</ele>
        <time>2021-05-08T10:58:19.000Z</time>
      </trkpt>
      <trkpt lat="47.18879" lon="-1.75148">
        <ele>67</ele>
        <time>2021-05-08T10:58:21.000Z</time>
      </trkpt>
      <trkpt lat="47.18879" lon="-1.75167">
        <ele>66</ele>
        <time>2021-05-08T10:58:23.000Z</time>
      </trkpt>
      <trkpt lat="47.18879" lon="-1.75187">
        <ele>66</ele>
        <time>2021-05-08T10:58:25.000Z</time>
      </trkpt>
      <trkpt lat="47.18879" lon="-1.75206">
        <ele>66</ele>
        <time>2021-05-08T10:58:27.000Z</time>
      </trkpt>
      <trkpt lat="47.18879" lon="-1.75226">
        <ele>65</ele>
        <time>2021-05-08T10:58:29.000Z</time>
      </trkpt>
      <trkpt lat="47.18879" lon="-1.75246">
        <ele>65</ele>
        <time>2021-05-08T10:58:31.000Z</time>
      </trkpt>
      <trkpt lat="47.1888" lon="-1.75265">
        <ele>65</ele>
        <time>2021-05-08T10:58:33.000Z</time>
      </trkpt>
      <trkpt lat="47.18879" lon="-1.75284">
        <ele>65</ele>
        <time>2021-05-08T10:58:35.000Z</time>
      </trkpt>
      <trkpt lat="47.18879" lon="-1.75303">
        <ele>66</ele>
        <time>2021-05-08T10:58:37.000Z</time>
      </trkpt>
      <trkpt lat="47.1888" lon="-1.75322">
        <ele>66</ele>
        <time>2021-05-08T10:58:39.000Z</time>
      </trkpt>
      <trkpt lat="47.18878" lon="-1.75339">
        <ele>66</ele>
        <time>2021-05-08T10:58:41.000Z</time>
      </trkpt>
      <trkpt lat="47.18877" lon="-1.75356">
        <ele>66</ele>
        <time>2021-05-08T10:58:43.000Z</time>
      </trkpt>
      <trkpt lat="47.18876" lon="-1.75371">
        <ele>66</ele>
        <time>2021-05-08T10:58:45.000Z</time>
      </trkpt>
      <trkpt lat="47.18877" lon="-1.75387">
        <ele>66</ele>
        <time>2021-05-08T10:58:47.000Z</time>
      </trkpt>
      <trkpt lat="47.18879" lon="-1.75404">
        <ele>65</ele>
        <time>2021-05-08T10:58:58.000Z</time>
      </trkpt>
      <trkpt lat="47.18878" lon="-1.75423">
        <ele>66</ele>
        <time>2021-05-08T10:59:01.000Z</time>
      </trkpt>
      <trkpt lat="47.18877" lon="-1.75438">
        <ele>66</ele>
        <time>2021-05-08T10:59:03.000Z</time>
      </trkpt>
      <trkpt lat="47.18877" lon="-1.75455">
        <ele>67</ele>
        <time>2021-05-08T10:59:05.000Z</time>
      </trkpt>
      <trkpt lat="47.18875" lon="-1.75472">
        <ele>68</ele>
        <time>2021-05-08T10:59:07.000Z</time>
      </trkpt>
      <trkpt lat="47.18874" lon="-1.75496">
        <ele>66</ele>
        <time>2021-05-08T10:59:09.000Z</time>
      </trkpt>
      <trkpt lat="47.18872" lon="-1.75514">
        <ele>67</ele>
        <time>2021-05-08T10:59:11.000Z</time>
      </trkpt>
      <trkpt lat="47.18869" lon="-1.75531">
        <ele>68</ele>
        <time>2021-05-08T10:59:13.000Z</time>
      </trkpt>
      <trkpt lat="47.18867" lon="-1.75552">
        <ele>66</ele>
        <time>2021-05-08T10:59:15.000Z</time>
      </trkpt>
      <trkpt lat="47.18866" lon="-1.75573">
        <ele>66</ele>
        <time>2021-05-08T10:59:17.000Z</time>
      </trkpt>
      <trkpt lat="47.18863" lon="-1.75591">
        <ele>66</ele>
        <time>2021-05-08T10:59:19.000Z</time>
      </trkpt>
      <trkpt lat="47.18859" lon="-1.75607">
        <ele>66</ele>
        <time>2021-05-08T10:59:21.000Z</time>
      </trkpt>
      <trkpt lat="47.18855" lon="-1.75625">
        <ele>66</ele>
        <time>2021-05-08T10:59:23.000Z</time>
      </trkpt>
      <trkpt lat="47.1885" lon="-1.75639">
        <ele>63</ele>
        <time>2021-05-08T10:59:25.000Z</time>
      </trkpt>
      <trkpt lat="47.18847" lon="-1.75663">
        <ele>65</ele>
        <time>2021-05-08T10:59:28.000Z</time>
      </trkpt>
      <trkpt lat="47.18846" lon="-1.75683">
        <ele>65</ele>
        <time>2021-05-08T10:59:30.000Z</time>
      </trkpt>
      <trkpt lat="47.18842" lon="-1.75715">
        <ele>66</ele>
        <time>2021-05-08T10:59:33.000Z</time>
      </trkpt>
      <trkpt lat="47.18837" lon="-1.75734">
        <ele>66</ele>
        <time>2021-05-08T10:59:35.000Z</time>
      </trkpt>
      <trkpt lat="47.18832" lon="-1.75753">
        <ele>66</ele>
        <time>2021-05-08T10:59:37.000Z</time>
      </trkpt>
      <trkpt lat="47.18827" lon="-1.75772">
        <ele>67</ele>
        <time>2021-05-08T10:59:39.000Z</time>
      </trkpt>
      <trkpt lat="47.18823" lon="-1.75791">
        <ele>67</ele>
        <time>2021-05-08T10:59:41.000Z</time>
      </trkpt>
      <trkpt lat="47.18819" lon="-1.75809">
        <ele>67</ele>
        <time>2021-05-08T10:59:43.000Z</time>
      </trkpt>
      <trkpt lat="47.18817" lon="-1.7583">
        <ele>65</ele>
        <time>2021-05-08T10:59:45.000Z</time>
      </trkpt>
      <trkpt lat="47.18816" lon="-1.7585">
        <ele>65</ele>
        <time>2021-05-08T10:59:47.000Z</time>
      </trkpt>
      <trkpt lat="47.18814" lon="-1.75868">
        <ele>66</ele>
        <time>2021-05-08T10:59:49.000Z</time>
      </trkpt>
      <trkpt lat="47.1881" lon="-1.75885">
        <ele>66</ele>
        <time>2021-05-08T10:59:51.000Z</time>
      </trkpt>
      <trkpt lat="47.18804" lon="-1.75902">
        <ele>67</ele>
        <time>2021-05-08T10:59:53.000Z</time>
      </trkpt>
      <trkpt lat="47.18796" lon="-1.75919">
        <ele>67</ele>
        <time>2021-05-08T10:59:55.000Z</time>
      </trkpt>
      <trkpt lat="47.18788" lon="-1.75935">
        <ele>66</ele>
        <time>2021-05-08T10:59:57.000Z</time>
      </trkpt>
      <trkpt lat="47.1878" lon="-1.75951">
        <ele>65</ele>
        <time>2021-05-08T10:59:59.000Z</time>
      </trkpt>
      <trkpt lat="47.18773" lon="-1.75968">
        <ele>65</ele>
        <time>2021-05-08T11:00:01.000Z</time>
      </trkpt>
      <trkpt lat="47.18764" lon="-1.75996">
        <ele>65</ele>
        <time>2021-05-08T11:00:04.000Z</time>
      </trkpt>
      <trkpt lat="47.18757" lon="-1.7601">
        <ele>65</ele>
        <time>2021-05-08T11:00:06.000Z</time>
      </trkpt>
      <trkpt lat="47.18749" lon="-1.76028">
        <ele>65</ele>
        <time>2021-05-08T11:00:08.000Z</time>
      </trkpt>
      <trkpt lat="47.18742" lon="-1.76043">
        <ele>65</ele>
        <time>2021-05-08T11:00:10.000Z</time>
      </trkpt>
      <trkpt lat="47.18735" lon="-1.76061">
        <ele>65</ele>
        <time>2021-05-08T11:00:12.000Z</time>
      </trkpt>
      <trkpt lat="47.18728" lon="-1.76077">
        <ele>65</ele>
        <time>2021-05-08T11:00:14.000Z</time>
      </trkpt>
      <trkpt lat="47.18721" lon="-1.76094">
        <ele>65</ele>
        <time>2021-05-08T11:00:16.000Z</time>
      </trkpt>
      <trkpt lat="47.18714" lon="-1.76112">
        <ele>65</ele>
        <time>2021-05-08T11:00:18.000Z</time>
      </trkpt>
      <trkpt lat="47.18707" lon="-1.76127">
        <ele>65</ele>
        <time>2021-05-08T11:00:20.000Z</time>
      </trkpt>
      <trkpt lat="47.18699" lon="-1.76143">
        <ele>64</ele>
        <time>2021-05-08T11:00:22.000Z</time>
      </trkpt>
      <trkpt lat="47.18691" lon="-1.76165">
        <ele>64</ele>
        <time>2021-05-08T11:00:24.000Z</time>
      </trkpt>
      <trkpt lat="47.18683" lon="-1.76184">
        <ele>63</ele>
        <time>2021-05-08T11:00:26.000Z</time>
      </trkpt>
      <trkpt lat="47.18675" lon="-1.76203">
        <ele>62</ele>
        <time>2021-05-08T11:00:28.000Z</time>
      </trkpt>
      <trkpt lat="47.18666" lon="-1.7623">
        <ele>62</ele>
        <time>2021-05-08T11:00:31.000Z</time>
      </trkpt>
      <trkpt lat="47.1866" lon="-1.76247">
        <ele>63</ele>
        <time>2021-05-08T11:00:33.000Z</time>
      </trkpt>
      <trkpt lat="47.18653" lon="-1.76265">
        <ele>63</ele>
        <time>2021-05-08T11:00:35.000Z</time>
      </trkpt>
      <trkpt lat="47.18646" lon="-1.76279">
        <ele>63</ele>
        <time>2021-05-08T11:00:37.000Z</time>
      </trkpt>
      <trkpt lat="47.18638" lon="-1.76294">
        <ele>63</ele>
        <time>2021-05-08T11:00:39.000Z</time>
      </trkpt>
      <trkpt lat="47.1863" lon="-1.7631">
        <ele>63</ele>
        <time>2021-05-08T11:00:41.000Z</time>
      </trkpt>
      <trkpt lat="47.18623" lon="-1.76327">
        <ele>63</ele>
        <time>2021-05-08T11:00:43.000Z</time>
      </trkpt>
      <trkpt lat="47.18615" lon="-1.76343">
        <ele>62</ele>
        <time>2021-05-08T11:00:45.000Z</time>
      </trkpt>
      <trkpt lat="47.18607" lon="-1.76359">
        <ele>63</ele>
        <time>2021-05-08T11:00:47.000Z</time>
      </trkpt>
      <trkpt lat="47.18599" lon="-1.76373">
        <ele>63</ele>
        <time>2021-05-08T11:00:49.000Z</time>
      </trkpt>
      <trkpt lat="47.1859" lon="-1.76387">
        <ele>63</ele>
        <time>2021-05-08T11:00:51.000Z</time>
      </trkpt>
      <trkpt lat="47.1858" lon="-1.76402">
        <ele>63</ele>
        <time>2021-05-08T11:00:53.000Z</time>
      </trkpt>
      <trkpt lat="47.18574" lon="-1.76412">
        <ele>62</ele>
        <time>2021-05-08T11:00:55.000Z</time>
      </trkpt>
      <trkpt lat="47.18573" lon="-1.76426">
        <ele>62</ele>
        <time>2021-05-08T11:00:58.000Z</time>
      </trkpt>
      <trkpt lat="47.18567" lon="-1.76446">
        <ele>64</ele>
        <time>2021-05-08T11:01:01.000Z</time>
      </trkpt>
      <trkpt lat="47.18561" lon="-1.76462">
        <ele>64</ele>
        <time>2021-05-08T11:01:03.000Z</time>
      </trkpt>
      <trkpt lat="47.18555" lon="-1.76474">
        <ele>64</ele>
        <time>2021-05-08T11:01:05.000Z</time>
      </trkpt>
      <trkpt lat="47.18547" lon="-1.76486">
        <ele>64</ele>
        <time>2021-05-08T11:01:07.000Z</time>
      </trkpt>
      <trkpt lat="47.18535" lon="-1.76504">
        <ele>63</ele>
        <time>2021-05-08T11:01:10.000Z</time>
      </trkpt>
      <trkpt lat="47.18525" lon="-1.76519">
        <ele>63</ele>
        <time>2021-05-08T11:01:12.000Z</time>
      </trkpt>
      <trkpt lat="47.18518" lon="-1.76533">
        <ele>63</ele>
        <time>2021-05-08T11:01:14.000Z</time>
      </trkpt>
      <trkpt lat="47.18512" lon="-1.76545">
        <ele>61</ele>
        <time>2021-05-08T11:01:16.000Z</time>
      </trkpt>
      <trkpt lat="47.18507" lon="-1.76562">
        <ele>63</ele>
        <time>2021-05-08T11:01:20.000Z</time>
      </trkpt>
      <trkpt lat="47.18499" lon="-1.76572">
        <ele>66</ele>
        <time>2021-05-08T11:01:22.000Z</time>
      </trkpt>
      <trkpt lat="47.18493" lon="-1.76583">
        <ele>66</ele>
        <time>2021-05-08T11:01:24.000Z</time>
      </trkpt>
      <trkpt lat="47.18487" lon="-1.76594">
        <ele>65</ele>
        <time>2021-05-08T11:01:26.000Z</time>
      </trkpt>
      <trkpt lat="47.18483" lon="-1.76606">
        <ele>64</ele>
        <time>2021-05-08T11:01:28.000Z</time>
      </trkpt>
      <trkpt lat="47.18487" lon="-1.76624">
        <ele>64</ele>
        <time>2021-05-08T11:01:31.000Z</time>
      </trkpt>
      <trkpt lat="47.18492" lon="-1.76638">
        <ele>64</ele>
        <time>2021-05-08T11:01:33.000Z</time>
      </trkpt>
      <trkpt lat="47.18498" lon="-1.76651">
        <ele>64</ele>
        <time>2021-05-08T11:01:35.000Z</time>
      </trkpt>
      <trkpt lat="47.18503" lon="-1.76663">
        <ele>64</ele>
        <time>2021-05-08T11:01:37.000Z</time>
      </trkpt>
      <trkpt lat="47.18508" lon="-1.76676">
        <ele>64</ele>
        <time>2021-05-08T11:01:39.000Z</time>
      </trkpt>
      <trkpt lat="47.18514" lon="-1.76689">
        <ele>62</ele>
        <time>2021-05-08T11:01:41.000Z</time>
      </trkpt>
      <trkpt lat="47.18519" lon="-1.76701">
        <ele>61</ele>
        <time>2021-05-08T11:01:43.000Z</time>
      </trkpt>
      <trkpt lat="47.18526" lon="-1.76715">
        <ele>62</ele>
        <time>2021-05-08T11:01:45.000Z</time>
      </trkpt>
      <trkpt lat="47.18533" lon="-1.76728">
        <ele>64</ele>
        <time>2021-05-08T11:01:47.000Z</time>
      </trkpt>
      <trkpt lat="47.18538" lon="-1.76741">
        <ele>64</ele>
        <time>2021-05-08T11:01:49.000Z</time>
      </trkpt>
      <trkpt lat="47.18544" lon="-1.76752">
        <ele>64</ele>
        <time>2021-05-08T11:01:51.000Z</time>
      </trkpt>
      <trkpt lat="47.18549" lon="-1.76766">
        <ele>65</ele>
        <time>2021-05-08T11:01:53.000Z</time>
      </trkpt>
      <trkpt lat="47.18552" lon="-1.7678">
        <ele>65</ele>
        <time>2021-05-08T11:01:55.000Z</time>
      </trkpt>
      <trkpt lat="47.18556" lon="-1.76799">
        <ele>64</ele>
        <time>2021-05-08T11:01:58.000Z</time>
      </trkpt>
      <trkpt lat="47.18561" lon="-1.76811">
        <ele>64</ele>
        <time>2021-05-08T11:02:00.000Z</time>
      </trkpt>
      <trkpt lat="47.18566" lon="-1.76823">
        <ele>65</ele>
        <time>2021-05-08T11:02:02.000Z</time>
      </trkpt>
      <trkpt lat="47.18576" lon="-1.76846">
        <ele>66</ele>
        <time>2021-05-08T11:02:06.000Z</time>
      </trkpt>
      <trkpt lat="47.18582" lon="-1.7686">
        <ele>67</ele>
        <time>2021-05-08T11:02:08.000Z</time>
      </trkpt>
      <trkpt lat="47.18587" lon="-1.76873">
        <ele>66</ele>
        <time>2021-05-08T11:02:10.000Z</time>
      </trkpt>
      <trkpt lat="47.18593" lon="-1.76885">
        <ele>67</ele>
        <time>2021-05-08T11:02:12.000Z</time>
      </trkpt>
      <trkpt lat="47.186" lon="-1.769">
        <ele>67</ele>
        <time>2021-05-08T11:02:15.000Z</time>
      </trkpt>
      <trkpt lat="47.18605" lon="-1.76917">
        <ele>68</ele>
        <time>2021-05-08T11:02:18.000Z</time>
      </trkpt>
      <trkpt lat="47.18609" lon="-1.76929">
        <ele>69</ele>
        <time>2021-05-08T11:02:20.000Z</time>
      </trkpt>
      <trkpt lat="47.18613" lon="-1.76942">
        <ele>69</ele>
        <time>2021-05-08T11:02:22.000Z</time>
      </trkpt>
      <trkpt lat="47.18618" lon="-1.76955">
        <ele>69</ele>
        <time>2021-05-08T11:02:24.000Z</time>
      </trkpt>
      <trkpt lat="47.18629" lon="-1.76979">
        <ele>67</ele>
        <time>2021-05-08T11:02:28.000Z</time>
      </trkpt>
      <trkpt lat="47.18636" lon="-1.76993">
        <ele>68</ele>
        <time>2021-05-08T11:02:30.000Z</time>
      </trkpt>
      <trkpt lat="47.18641" lon="-1.77006">
        <ele>70</ele>
        <time>2021-05-08T11:02:32.000Z</time>
      </trkpt>
      <trkpt lat="47.18646" lon="-1.77017">
        <ele>70</ele>
        <time>2021-05-08T11:02:34.000Z</time>
      </trkpt>
      <trkpt lat="47.18651" lon="-1.77029">
        <ele>72</ele>
        <time>2021-05-08T11:02:36.000Z</time>
      </trkpt>
      <trkpt lat="47.18657" lon="-1.77047">
        <ele>72</ele>
        <time>2021-05-08T11:02:39.000Z</time>
      </trkpt>
      <trkpt lat="47.18656" lon="-1.7706">
        <ele>72</ele>
        <time>2021-05-08T11:02:41.000Z</time>
      </trkpt>
      <trkpt lat="47.18652" lon="-1.77073">
        <ele>70</ele>
        <time>2021-05-08T11:02:43.000Z</time>
      </trkpt>
      <trkpt lat="47.18648" lon="-1.7709">
        <ele>68</ele>
        <time>2021-05-08T11:02:46.000Z</time>
      </trkpt>
      <trkpt lat="47.18642" lon="-1.77105">
        <ele>69</ele>
        <time>2021-05-08T11:02:49.000Z</time>
      </trkpt>
      <trkpt lat="47.18635" lon="-1.7712">
        <ele>70</ele>
        <time>2021-05-08T11:02:52.000Z</time>
      </trkpt>
      <trkpt lat="47.18632" lon="-1.77134">
        <ele>69</ele>
        <time>2021-05-08T11:02:55.000Z</time>
      </trkpt>
      <trkpt lat="47.18625" lon="-1.77144">
        <ele>70</ele>
        <time>2021-05-08T11:02:58.000Z</time>
      </trkpt>
      <trkpt lat="47.18619" lon="-1.77154">
        <ele>70</ele>
        <time>2021-05-08T11:03:01.000Z</time>
      </trkpt>
      <trkpt lat="47.18616" lon="-1.7717">
        <ele>69</ele>
        <time>2021-05-08T11:03:04.000Z</time>
      </trkpt>
      <trkpt lat="47.18622" lon="-1.7718">
        <ele>68</ele>
        <time>2021-05-08T11:03:06.000Z</time>
      </trkpt>
      <trkpt lat="47.1863" lon="-1.77191">
        <ele>68</ele>
        <time>2021-05-08T11:03:08.000Z</time>
      </trkpt>
      <trkpt lat="47.18638" lon="-1.77205">
        <ele>67</ele>
        <time>2021-05-08T11:03:10.000Z</time>
      </trkpt>
      <trkpt lat="47.18647" lon="-1.77216">
        <ele>67</ele>
        <time>2021-05-08T11:03:12.000Z</time>
      </trkpt>
      <trkpt lat="47.18656" lon="-1.77226">
        <ele>67</ele>
        <time>2021-05-08T11:03:14.000Z</time>
      </trkpt>
      <trkpt lat="47.18669" lon="-1.77247">
        <ele>64</ele>
        <time>2021-05-08T11:03:17.000Z</time>
      </trkpt>
      <trkpt lat="47.18679" lon="-1.77257">
        <ele>65</ele>
        <time>2021-05-08T11:03:19.000Z</time>
      </trkpt>
      <trkpt lat="47.18693" lon="-1.77273">
        <ele>67</ele>
        <time>2021-05-08T11:03:22.000Z</time>
      </trkpt>
      <trkpt lat="47.18706" lon="-1.77291">
        <ele>66</ele>
        <time>2021-05-08T11:03:25.000Z</time>
      </trkpt>
      <trkpt lat="47.1872" lon="-1.77307">
        <ele>66</ele>
        <time>2021-05-08T11:03:28.000Z</time>
      </trkpt>
      <trkpt lat="47.18728" lon="-1.77317">
        <ele>66</ele>
        <time>2021-05-08T11:03:30.000Z</time>
      </trkpt>
      <trkpt lat="47.18738" lon="-1.77332">
        <ele>66</ele>
        <time>2021-05-08T11:03:33.000Z</time>
      </trkpt>
      <trkpt lat="47.18745" lon="-1.77342">
        <ele>64</ele>
        <time>2021-05-08T11:03:35.000Z</time>
      </trkpt>
      <trkpt lat="47.18753" lon="-1.77353">
        <ele>64</ele>
        <time>2021-05-08T11:03:37.000Z</time>
      </trkpt>
      <trkpt lat="47.18761" lon="-1.77365">
        <ele>64</ele>
        <time>2021-05-08T11:03:39.000Z</time>
      </trkpt>
      <trkpt lat="47.18767" lon="-1.77376">
        <ele>65</ele>
        <time>2021-05-08T11:03:41.000Z</time>
      </trkpt>
      <trkpt lat="47.18778" lon="-1.77392">
        <ele>66</ele>
        <time>2021-05-08T11:03:43.000Z</time>
      </trkpt>
      <trkpt lat="47.18796" lon="-1.77407">
        <ele>65</ele>
        <time>2021-05-08T11:03:46.000Z</time>
      </trkpt>
      <trkpt lat="47.18808" lon="-1.77415">
        <ele>64</ele>
        <time>2021-05-08T11:03:48.000Z</time>
      </trkpt>
      <trkpt lat="47.18815" lon="-1.77426">
        <ele>63</ele>
        <time>2021-05-08T11:03:50.000Z</time>
      </trkpt>
      <trkpt lat="47.18814" lon="-1.77445">
        <ele>63</ele>
        <time>2021-05-08T11:03:52.000Z</time>
      </trkpt>
      <trkpt lat="47.18805" lon="-1.77458">
        <ele>63</ele>
        <time>2021-05-08T11:03:54.000Z</time>
      </trkpt>
      <trkpt lat="47.18794" lon="-1.77465">
        <ele>64</ele>
        <time>2021-05-08T11:03:56.000Z</time>
      </trkpt>
      <trkpt lat="47.18785" lon="-1.77478">
        <ele>65</ele>
        <time>2021-05-08T11:03:58.000Z</time>
      </trkpt>
      <trkpt lat="47.18773" lon="-1.77498">
        <ele>65</ele>
        <time>2021-05-08T11:04:01.000Z</time>
      </trkpt>
      <trkpt lat="47.18764" lon="-1.77518">
        <ele>65</ele>
        <time>2021-05-08T11:04:04.000Z</time>
      </trkpt>
      <trkpt lat="47.18755" lon="-1.77539">
        <ele>66</ele>
        <time>2021-05-08T11:04:07.000Z</time>
      </trkpt>
      <trkpt lat="47.18744" lon="-1.77558">
        <ele>67</ele>
        <time>2021-05-08T11:04:10.000Z</time>
      </trkpt>
      <trkpt lat="47.18736" lon="-1.77571">
        <ele>67</ele>
        <time>2021-05-08T11:04:12.000Z</time>
      </trkpt>
      <trkpt lat="47.18729" lon="-1.77584">
        <ele>67</ele>
        <time>2021-05-08T11:04:14.000Z</time>
      </trkpt>
      <trkpt lat="47.18732" lon="-1.77568">
        <ele>66</ele>
        <time>2021-05-08T11:04:21.000Z</time>
      </trkpt>
      <trkpt lat="47.18739" lon="-1.77556">
        <ele>65</ele>
        <time>2021-05-08T11:04:23.000Z</time>
      </trkpt>
      <trkpt lat="47.18749" lon="-1.77552">
        <ele>63</ele>
        <time>2021-05-08T11:04:25.000Z</time>
      </trkpt>
      <trkpt lat="47.18776" lon="-1.77557">
        <ele>63</ele>
        <time>2021-05-08T11:04:29.000Z</time>
      </trkpt>
      <trkpt lat="47.18789" lon="-1.77558">
        <ele>58</ele>
        <time>2021-05-08T11:04:31.000Z</time>
      </trkpt>
      <trkpt lat="47.18808" lon="-1.77562">
        <ele>60</ele>
        <time>2021-05-08T11:04:34.000Z</time>
      </trkpt>
      <trkpt lat="47.18821" lon="-1.77569">
        <ele>60</ele>
        <time>2021-05-08T11:04:36.000Z</time>
      </trkpt>
      <trkpt lat="47.18833" lon="-1.77574">
        <ele>60</ele>
        <time>2021-05-08T11:04:38.000Z</time>
      </trkpt>
      <trkpt lat="47.18844" lon="-1.77576">
        <ele>60</ele>
        <time>2021-05-08T11:04:40.000Z</time>
      </trkpt>
      <trkpt lat="47.18858" lon="-1.77579">
        <ele>60</ele>
        <time>2021-05-08T11:04:42.000Z</time>
      </trkpt>
      <trkpt lat="47.1887" lon="-1.77583">
        <ele>60</ele>
        <time>2021-05-08T11:04:44.000Z</time>
      </trkpt>
      <trkpt lat="47.18883" lon="-1.77586">
        <ele>60</ele>
        <time>2021-05-08T11:04:46.000Z</time>
      </trkpt>
      <trkpt lat="47.18895" lon="-1.7759">
        <ele>61</ele>
        <time>2021-05-08T11:04:48.000Z</time>
      </trkpt>
      <trkpt lat="47.18906" lon="-1.77592">
        <ele>61</ele>
        <time>2021-05-08T11:04:50.000Z</time>
      </trkpt>
      <trkpt lat="47.18918" lon="-1.77597">
        <ele>61</ele>
        <time>2021-05-08T11:04:52.000Z</time>
      </trkpt>
      <trkpt lat="47.18929" lon="-1.77599">
        <ele>61</ele>
        <time>2021-05-08T11:04:54.000Z</time>
      </trkpt>
      <trkpt lat="47.18941" lon="-1.77603">
        <ele>60</ele>
        <time>2021-05-08T11:04:56.000Z</time>
      </trkpt>
      <trkpt lat="47.18953" lon="-1.77605">
        <ele>60</ele>
        <time>2021-05-08T11:04:58.000Z</time>
      </trkpt>
      <trkpt lat="47.18964" lon="-1.77606">
        <ele>60</ele>
        <time>2021-05-08T11:05:00.000Z</time>
      </trkpt>
      <trkpt lat="47.18974" lon="-1.77608">
        <ele>60</ele>
        <time>2021-05-08T11:05:02.000Z</time>
      </trkpt>
      <trkpt lat="47.18986" lon="-1.77609">
        <ele>60</ele>
        <time>2021-05-08T11:05:06.000Z</time>
      </trkpt>
      <trkpt lat="47.18998" lon="-1.77608">
        <ele>61</ele>
        <time>2021-05-08T11:05:10.000Z</time>
      </trkpt>
      <trkpt lat="47.19008" lon="-1.77609">
        <ele>61</ele>
        <time>2021-05-08T11:05:12.000Z</time>
      </trkpt>
      <trkpt lat="47.1902" lon="-1.77613">
        <ele>61</ele>
        <time>2021-05-08T11:05:14.000Z</time>
      </trkpt>
      <trkpt lat="47.19032" lon="-1.77616">
        <ele>62</ele>
        <time>2021-05-08T11:05:16.000Z</time>
      </trkpt>
      <trkpt lat="47.19045" lon="-1.7762">
        <ele>61</ele>
        <time>2021-05-08T11:05:18.000Z</time>
      </trkpt>
      <trkpt lat="47.19058" lon="-1.77621">
        <ele>60</ele>
        <time>2021-05-08T11:05:20.000Z</time>
      </trkpt>
      <trkpt lat="47.19071" lon="-1.77623">
        <ele>60</ele>
        <time>2021-05-08T11:05:22.000Z</time>
      </trkpt>
      <trkpt lat="47.19084" lon="-1.77626">
        <ele>61</ele>
        <time>2021-05-08T11:05:24.000Z</time>
      </trkpt>
      <trkpt lat="47.19097" lon="-1.77628">
        <ele>61</ele>
        <time>2021-05-08T11:05:26.000Z</time>
      </trkpt>
      <trkpt lat="47.19109" lon="-1.77628">
        <ele>62</ele>
        <time>2021-05-08T11:05:28.000Z</time>
      </trkpt>
      <trkpt lat="47.19121" lon="-1.77631">
        <ele>61</ele>
        <time>2021-05-08T11:05:30.000Z</time>
      </trkpt>
      <trkpt lat="47.19134" lon="-1.77633">
        <ele>61</ele>
        <time>2021-05-08T11:05:32.000Z</time>
      </trkpt>
      <trkpt lat="47.19146" lon="-1.77634">
        <ele>60</ele>
        <time>2021-05-08T11:05:34.000Z</time>
      </trkpt>
      <trkpt lat="47.19158" lon="-1.77636">
        <ele>60</ele>
        <time>2021-05-08T11:05:36.000Z</time>
      </trkpt>
      <trkpt lat="47.19176" lon="-1.77639">
        <ele>59</ele>
        <time>2021-05-08T11:05:39.000Z</time>
      </trkpt>
      <trkpt lat="47.19185" lon="-1.77639">
        <ele>58</ele>
        <time>2021-05-08T11:05:41.000Z</time>
      </trkpt>
      <trkpt lat="47.192" lon="-1.77639">
        <ele>58</ele>
        <time>2021-05-08T11:05:44.000Z</time>
      </trkpt>
      <trkpt lat="47.19218" lon="-1.77637">
        <ele>59</ele>
        <time>2021-05-08T11:05:47.000Z</time>
      </trkpt>
      <trkpt lat="47.1923" lon="-1.77635">
        <ele>59</ele>
        <time>2021-05-08T11:05:49.000Z</time>
      </trkpt>
      <trkpt lat="47.1924" lon="-1.77632">
        <ele>59</ele>
        <time>2021-05-08T11:05:51.000Z</time>
      </trkpt>
      <trkpt lat="47.19251" lon="-1.77631">
        <ele>59</ele>
        <time>2021-05-08T11:05:53.000Z</time>
      </trkpt>
      <trkpt lat="47.19261" lon="-1.77632">
        <ele>60</ele>
        <time>2021-05-08T11:05:55.000Z</time>
      </trkpt>
      <trkpt lat="47.19272" lon="-1.77633">
        <ele>58</ele>
        <time>2021-05-08T11:05:57.000Z</time>
      </trkpt>
      <trkpt lat="47.19284" lon="-1.77633">
        <ele>58</ele>
        <time>2021-05-08T11:05:59.000Z</time>
      </trkpt>
      <trkpt lat="47.19297" lon="-1.77631">
        <ele>59</ele>
        <time>2021-05-08T11:06:01.000Z</time>
      </trkpt>
      <trkpt lat="47.19308" lon="-1.77631">
        <ele>59</ele>
        <time>2021-05-08T11:06:03.000Z</time>
      </trkpt>
      <trkpt lat="47.1932" lon="-1.77629">
        <ele>58</ele>
        <time>2021-05-08T11:06:05.000Z</time>
      </trkpt>
      <trkpt lat="47.19332" lon="-1.7763">
        <ele>58</ele>
        <time>2021-05-08T11:06:07.000Z</time>
      </trkpt>
      <trkpt lat="47.19343" lon="-1.77628">
        <ele>58</ele>
        <time>2021-05-08T11:06:09.000Z</time>
      </trkpt>
      <trkpt lat="47.19354" lon="-1.77627">
        <ele>59</ele>
        <time>2021-05-08T11:06:11.000Z</time>
      </trkpt>
      <trkpt lat="47.19365" lon="-1.77625">
        <ele>58</ele>
        <time>2021-05-08T11:06:13.000Z</time>
      </trkpt>
      <trkpt lat="47.19377" lon="-1.77623">
        <ele>57</ele>
        <time>2021-05-08T11:06:15.000Z</time>
      </trkpt>
      <trkpt lat="47.19387" lon="-1.77622">
        <ele>56</ele>
        <time>2021-05-08T11:06:17.000Z</time>
      </trkpt>
      <trkpt lat="47.19398" lon="-1.77623">
        <ele>55</ele>
        <time>2021-05-08T11:06:19.000Z</time>
      </trkpt>
      <trkpt lat="47.19408" lon="-1.77623">
        <ele>55</ele>
        <time>2021-05-08T11:06:21.000Z</time>
      </trkpt>
      <trkpt lat="47.19418" lon="-1.77622">
        <ele>55</ele>
        <time>2021-05-08T11:06:23.000Z</time>
      </trkpt>
      <trkpt lat="47.19429" lon="-1.7762">
        <ele>55</ele>
        <time>2021-05-08T11:06:25.000Z</time>
      </trkpt>
      <trkpt lat="47.19441" lon="-1.77619">
        <ele>55</ele>
        <time>2021-05-08T11:06:27.000Z</time>
      </trkpt>
      <trkpt lat="47.19454" lon="-1.77619">
        <ele>55</ele>
        <time>2021-05-08T11:06:29.000Z</time>
      </trkpt>
      <trkpt lat="47.19465" lon="-1.77619">
        <ele>55</ele>
        <time>2021-05-08T11:06:31.000Z</time>
      </trkpt>
      <trkpt lat="47.19476" lon="-1.7762">
        <ele>54</ele>
        <time>2021-05-08T11:06:33.000Z</time>
      </trkpt>
      <trkpt lat="47.19487" lon="-1.77621">
        <ele>53</ele>
        <time>2021-05-08T11:06:35.000Z</time>
      </trkpt>
      <trkpt lat="47.19499" lon="-1.7762">
        <ele>52</ele>
        <time>2021-05-08T11:06:37.000Z</time>
      </trkpt>
      <trkpt lat="47.19518" lon="-1.77623">
        <ele>52</ele>
        <time>2021-05-08T11:06:40.000Z</time>
      </trkpt>
      <trkpt lat="47.19529" lon="-1.77631">
        <ele>51</ele>
        <time>2021-05-08T11:06:42.000Z</time>
      </trkpt>
      <trkpt lat="47.1954" lon="-1.7764">
        <ele>51</ele>
        <time>2021-05-08T11:06:44.000Z</time>
      </trkpt>
      <trkpt lat="47.19557" lon="-1.77647">
        <ele>52</ele>
        <time>2021-05-08T11:06:47.000Z</time>
      </trkpt>
      <trkpt lat="47.1957" lon="-1.77649">
        <ele>52</ele>
        <time>2021-05-08T11:06:49.000Z</time>
      </trkpt>
      <trkpt lat="47.19583" lon="-1.77651">
        <ele>51</ele>
        <time>2021-05-08T11:06:51.000Z</time>
      </trkpt>
      <trkpt lat="47.19596" lon="-1.77654">
        <ele>51</ele>
        <time>2021-05-08T11:06:53.000Z</time>
      </trkpt>
      <trkpt lat="47.19607" lon="-1.77661">
        <ele>51</ele>
        <time>2021-05-08T11:06:55.000Z</time>
      </trkpt>
      <trkpt lat="47.19618" lon="-1.77675">
        <ele>50</ele>
        <time>2021-05-08T11:06:57.000Z</time>
      </trkpt>
      <trkpt lat="47.19625" lon="-1.77694">
        <ele>51</ele>
        <time>2021-05-08T11:06:59.000Z</time>
      </trkpt>
      <trkpt lat="47.19634" lon="-1.7772">
        <ele>50</ele>
        <time>2021-05-08T11:07:02.000Z</time>
      </trkpt>
      <trkpt lat="47.1964" lon="-1.77738">
        <ele>51</ele>
        <time>2021-05-08T11:07:04.000Z</time>
      </trkpt>
      <trkpt lat="47.19645" lon="-1.77756">
        <ele>51</ele>
        <time>2021-05-08T11:07:06.000Z</time>
      </trkpt>
      <trkpt lat="47.1965" lon="-1.77774">
        <ele>51</ele>
        <time>2021-05-08T11:07:08.000Z</time>
      </trkpt>
      <trkpt lat="47.19654" lon="-1.77792">
        <ele>51</ele>
        <time>2021-05-08T11:07:10.000Z</time>
      </trkpt>
      <trkpt lat="47.19658" lon="-1.7781">
        <ele>51</ele>
        <time>2021-05-08T11:07:12.000Z</time>
      </trkpt>
      <trkpt lat="47.19661" lon="-1.77829">
        <ele>52</ele>
        <time>2021-05-08T11:07:14.000Z</time>
      </trkpt>
      <trkpt lat="47.19665" lon="-1.77846">
        <ele>52</ele>
        <time>2021-05-08T11:07:16.000Z</time>
      </trkpt>
      <trkpt lat="47.19672" lon="-1.77873">
        <ele>53</ele>
        <time>2021-05-08T11:07:19.000Z</time>
      </trkpt>
      <trkpt lat="47.19676" lon="-1.7789">
        <ele>54</ele>
        <time>2021-05-08T11:07:21.000Z</time>
      </trkpt>
      <trkpt lat="47.19683" lon="-1.77907">
        <ele>54</ele>
        <time>2021-05-08T11:07:23.000Z</time>
      </trkpt>
      <trkpt lat="47.19689" lon="-1.77924">
        <ele>51</ele>
        <time>2021-05-08T11:07:25.000Z</time>
      </trkpt>
      <trkpt lat="47.19696" lon="-1.77938">
        <ele>51</ele>
        <time>2021-05-08T11:07:27.000Z</time>
      </trkpt>
      <trkpt lat="47.19705" lon="-1.77954">
        <ele>52</ele>
        <time>2021-05-08T11:07:29.000Z</time>
      </trkpt>
      <trkpt lat="47.19713" lon="-1.77969">
        <ele>52</ele>
        <time>2021-05-08T11:07:31.000Z</time>
      </trkpt>
      <trkpt lat="47.19725" lon="-1.77991">
        <ele>52</ele>
        <time>2021-05-08T11:07:34.000Z</time>
      </trkpt>
      <trkpt lat="47.19732" lon="-1.78007">
        <ele>52</ele>
        <time>2021-05-08T11:07:36.000Z</time>
      </trkpt>
      <trkpt lat="47.19738" lon="-1.78024">
        <ele>53</ele>
        <time>2021-05-08T11:07:38.000Z</time>
      </trkpt>
      <trkpt lat="47.19744" lon="-1.78041">
        <ele>52</ele>
        <time>2021-05-08T11:07:40.000Z</time>
      </trkpt>
      <trkpt lat="47.1975" lon="-1.78056">
        <ele>52</ele>
        <time>2021-05-08T11:07:42.000Z</time>
      </trkpt>
      <trkpt lat="47.19755" lon="-1.78071">
        <ele>52</ele>
        <time>2021-05-08T11:07:44.000Z</time>
      </trkpt>
      <trkpt lat="47.1976" lon="-1.78085">
        <ele>53</ele>
        <time>2021-05-08T11:07:46.000Z</time>
      </trkpt>
      <trkpt lat="47.19766" lon="-1.78097">
        <ele>52</ele>
        <time>2021-05-08T11:07:49.000Z</time>
      </trkpt>
      <trkpt lat="47.19761" lon="-1.7812">
        <ele>54</ele>
        <time>2021-05-08T11:07:53.000Z</time>
      </trkpt>
      <trkpt lat="47.19755" lon="-1.78134">
        <ele>55</ele>
        <time>2021-05-08T11:07:55.000Z</time>
      </trkpt>
      <trkpt lat="47.19749" lon="-1.78149">
        <ele>56</ele>
        <time>2021-05-08T11:07:57.000Z</time>
      </trkpt>
      <trkpt lat="47.1974" lon="-1.78174">
        <ele>56</ele>
        <time>2021-05-08T11:08:00.000Z</time>
      </trkpt>
      <trkpt lat="47.19734" lon="-1.7819">
        <ele>57</ele>
        <time>2021-05-08T11:08:02.000Z</time>
      </trkpt>
      <trkpt lat="47.19729" lon="-1.78206">
        <ele>57</ele>
        <time>2021-05-08T11:08:04.000Z</time>
      </trkpt>
      <trkpt lat="47.19723" lon="-1.78223">
        <ele>56</ele>
        <time>2021-05-08T11:08:06.000Z</time>
      </trkpt>
      <trkpt lat="47.1972" lon="-1.7824">
        <ele>55</ele>
        <time>2021-05-08T11:08:08.000Z</time>
      </trkpt>
      <trkpt lat="47.1972" lon="-1.78256">
        <ele>55</ele>
        <time>2021-05-08T11:08:10.000Z</time>
      </trkpt>
      <trkpt lat="47.19722" lon="-1.78276">
        <ele>56</ele>
        <time>2021-05-08T11:08:12.000Z</time>
      </trkpt>
      <trkpt lat="47.19724" lon="-1.78295">
        <ele>55</ele>
        <time>2021-05-08T11:08:14.000Z</time>
      </trkpt>
      <trkpt lat="47.19727" lon="-1.78314">
        <ele>54</ele>
        <time>2021-05-08T11:08:16.000Z</time>
      </trkpt>
      <trkpt lat="47.19731" lon="-1.78341">
        <ele>54</ele>
        <time>2021-05-08T11:08:19.000Z</time>
      </trkpt>
      <trkpt lat="47.19734" lon="-1.78361">
        <ele>54</ele>
        <time>2021-05-08T11:08:21.000Z</time>
      </trkpt>
      <trkpt lat="47.19734" lon="-1.78379">
        <ele>54</ele>
        <time>2021-05-08T11:08:23.000Z</time>
      </trkpt>
      <trkpt lat="47.19733" lon="-1.78408">
        <ele>54</ele>
        <time>2021-05-08T11:08:26.000Z</time>
      </trkpt>
      <trkpt lat="47.19731" lon="-1.78426">
        <ele>54</ele>
        <time>2021-05-08T11:08:28.000Z</time>
      </trkpt>
      <trkpt lat="47.19727" lon="-1.78447">
        <ele>54</ele>
        <time>2021-05-08T11:08:30.000Z</time>
      </trkpt>
      <trkpt lat="47.19725" lon="-1.78467">
        <ele>54</ele>
        <time>2021-05-08T11:08:32.000Z</time>
      </trkpt>
      <trkpt lat="47.19722" lon="-1.78487">
        <ele>54</ele>
        <time>2021-05-08T11:08:34.000Z</time>
      </trkpt>
      <trkpt lat="47.19717" lon="-1.78507">
        <ele>53</ele>
        <time>2021-05-08T11:08:36.000Z</time>
      </trkpt>
      <trkpt lat="47.19713" lon="-1.78528">
        <ele>53</ele>
        <time>2021-05-08T11:08:38.000Z</time>
      </trkpt>
      <trkpt lat="47.19709" lon="-1.7855">
        <ele>54</ele>
        <time>2021-05-08T11:08:40.000Z</time>
      </trkpt>
      <trkpt lat="47.19706" lon="-1.78571">
        <ele>52</ele>
        <time>2021-05-08T11:08:42.000Z</time>
      </trkpt>
      <trkpt lat="47.19701" lon="-1.78603">
        <ele>50</ele>
        <time>2021-05-08T11:08:45.000Z</time>
      </trkpt>
      <trkpt lat="47.19699" lon="-1.78624">
        <ele>50</ele>
        <time>2021-05-08T11:08:47.000Z</time>
      </trkpt>
      <trkpt lat="47.19697" lon="-1.78647">
        <ele>50</ele>
        <time>2021-05-08T11:08:49.000Z</time>
      </trkpt>
      <trkpt lat="47.19693" lon="-1.78671">
        <ele>49</ele>
        <time>2021-05-08T11:08:51.000Z</time>
      </trkpt>
      <trkpt lat="47.19689" lon="-1.78695">
        <ele>48</ele>
        <time>2021-05-08T11:08:53.000Z</time>
      </trkpt>
      <trkpt lat="47.19686" lon="-1.78718">
        <ele>47</ele>
        <time>2021-05-08T11:08:55.000Z</time>
      </trkpt>
      <trkpt lat="47.19682" lon="-1.78741">
        <ele>47</ele>
        <time>2021-05-08T11:08:57.000Z</time>
      </trkpt>
      <trkpt lat="47.19678" lon="-1.78764">
        <ele>47</ele>
        <time>2021-05-08T11:08:59.000Z</time>
      </trkpt>
      <trkpt lat="47.19675" lon="-1.78786">
        <ele>47</ele>
        <time>2021-05-08T11:09:01.000Z</time>
      </trkpt>
      <trkpt lat="47.19671" lon="-1.78808">
        <ele>46</ele>
        <time>2021-05-08T11:09:03.000Z</time>
      </trkpt>
      <trkpt lat="47.19667" lon="-1.78841">
        <ele>46</ele>
        <time>2021-05-08T11:09:06.000Z</time>
      </trkpt>
      <trkpt lat="47.19664" lon="-1.78863">
        <ele>46</ele>
        <time>2021-05-08T11:09:08.000Z</time>
      </trkpt>
      <trkpt lat="47.19661" lon="-1.78883">
        <ele>47</ele>
        <time>2021-05-08T11:09:10.000Z</time>
      </trkpt>
      <trkpt lat="47.1966" lon="-1.78905">
        <ele>47</ele>
        <time>2021-05-08T11:09:12.000Z</time>
      </trkpt>
      <trkpt lat="47.1966" lon="-1.78926">
        <ele>47</ele>
        <time>2021-05-08T11:09:14.000Z</time>
      </trkpt>
      <trkpt lat="47.19661" lon="-1.78947">
        <ele>48</ele>
        <time>2021-05-08T11:09:16.000Z</time>
      </trkpt>
      <trkpt lat="47.19664" lon="-1.78969">
        <ele>48</ele>
        <time>2021-05-08T11:09:18.000Z</time>
      </trkpt>
      <trkpt lat="47.19668" lon="-1.7899">
        <ele>47</ele>
        <time>2021-05-08T11:09:20.000Z</time>
      </trkpt>
      <trkpt lat="47.19674" lon="-1.7901">
        <ele>47</ele>
        <time>2021-05-08T11:09:22.000Z</time>
      </trkpt>
      <trkpt lat="47.19681" lon="-1.7903">
        <ele>47</ele>
        <time>2021-05-08T11:09:24.000Z</time>
      </trkpt>
      <trkpt lat="47.19689" lon="-1.79048">
        <ele>47</ele>
        <time>2021-05-08T11:09:26.000Z</time>
      </trkpt>
      <trkpt lat="47.19697" lon="-1.79066">
        <ele>46</ele>
        <time>2021-05-08T11:09:28.000Z</time>
      </trkpt>
      <trkpt lat="47.19705" lon="-1.79082">
        <ele>46</ele>
        <time>2021-05-08T11:09:30.000Z</time>
      </trkpt>
      <trkpt lat="47.19713" lon="-1.79099">
        <ele>46</ele>
        <time>2021-05-08T11:09:32.000Z</time>
      </trkpt>
      <trkpt lat="47.19721" lon="-1.79116">
        <ele>46</ele>
        <time>2021-05-08T11:09:34.000Z</time>
      </trkpt>
      <trkpt lat="47.19729" lon="-1.79132">
        <ele>46</ele>
        <time>2021-05-08T11:09:36.000Z</time>
      </trkpt>
      <trkpt lat="47.19737" lon="-1.79149">
        <ele>46</ele>
        <time>2021-05-08T11:09:38.000Z</time>
      </trkpt>
      <trkpt lat="47.19748" lon="-1.79175">
        <ele>46</ele>
        <time>2021-05-08T11:09:41.000Z</time>
      </trkpt>
      <trkpt lat="47.19756" lon="-1.79192">
        <ele>46</ele>
        <time>2021-05-08T11:09:43.000Z</time>
      </trkpt>
      <trkpt lat="47.19762" lon="-1.79209">
        <ele>46</ele>
        <time>2021-05-08T11:09:45.000Z</time>
      </trkpt>
      <trkpt lat="47.19767" lon="-1.79227">
        <ele>47</ele>
        <time>2021-05-08T11:09:47.000Z</time>
      </trkpt>
      <trkpt lat="47.19773" lon="-1.79245">
        <ele>47</ele>
        <time>2021-05-08T11:09:49.000Z</time>
      </trkpt>
      <trkpt lat="47.19781" lon="-1.7927">
        <ele>46</ele>
        <time>2021-05-08T11:09:52.000Z</time>
      </trkpt>
      <trkpt lat="47.19789" lon="-1.79299">
        <ele>47</ele>
        <time>2021-05-08T11:09:55.000Z</time>
      </trkpt>
      <trkpt lat="47.19795" lon="-1.79317">
        <ele>48</ele>
        <time>2021-05-08T11:09:57.000Z</time>
      </trkpt>
      <trkpt lat="47.19801" lon="-1.79337">
        <ele>45</ele>
        <time>2021-05-08T11:09:59.000Z</time>
      </trkpt>
      <trkpt lat="47.19806" lon="-1.79351">
        <ele>46</ele>
        <time>2021-05-08T11:10:01.000Z</time>
      </trkpt>
      <trkpt lat="47.1981" lon="-1.79368">
        <ele>47</ele>
        <time>2021-05-08T11:10:03.000Z</time>
      </trkpt>
      <trkpt lat="47.19813" lon="-1.79383">
        <ele>48</ele>
        <time>2021-05-08T11:10:05.000Z</time>
      </trkpt>
      <trkpt lat="47.19814" lon="-1.79401">
        <ele>49</ele>
        <time>2021-05-08T11:10:07.000Z</time>
      </trkpt>
      <trkpt lat="47.19816" lon="-1.79418">
        <ele>50</ele>
        <time>2021-05-08T11:10:09.000Z</time>
      </trkpt>
      <trkpt lat="47.19817" lon="-1.79434">
        <ele>50</ele>
        <time>2021-05-08T11:10:11.000Z</time>
      </trkpt>
      <trkpt lat="47.19818" lon="-1.79451">
        <ele>51</ele>
        <time>2021-05-08T11:10:13.000Z</time>
      </trkpt>
      <trkpt lat="47.19819" lon="-1.79468">
        <ele>52</ele>
        <time>2021-05-08T11:10:15.000Z</time>
      </trkpt>
      <trkpt lat="47.1982" lon="-1.79484">
        <ele>53</ele>
        <time>2021-05-08T11:10:17.000Z</time>
      </trkpt>
      <trkpt lat="47.19821" lon="-1.79501">
        <ele>53</ele>
        <time>2021-05-08T11:10:19.000Z</time>
      </trkpt>
      <trkpt lat="47.19822" lon="-1.79517">
        <ele>54</ele>
        <time>2021-05-08T11:10:21.000Z</time>
      </trkpt>
      <trkpt lat="47.19823" lon="-1.79533">
        <ele>54</ele>
        <time>2021-05-08T11:10:23.000Z</time>
      </trkpt>
      <trkpt lat="47.19825" lon="-1.79549">
        <ele>55</ele>
        <time>2021-05-08T11:10:25.000Z</time>
      </trkpt>
      <trkpt lat="47.19826" lon="-1.79573">
        <ele>55</ele>
        <time>2021-05-08T11:10:28.000Z</time>
      </trkpt>
      <trkpt lat="47.19826" lon="-1.79588">
        <ele>56</ele>
        <time>2021-05-08T11:10:30.000Z</time>
      </trkpt>
      <trkpt lat="47.19828" lon="-1.79603">
        <ele>56</ele>
        <time>2021-05-08T11:10:32.000Z</time>
      </trkpt>
      <trkpt lat="47.19829" lon="-1.79619">
        <ele>57</ele>
        <time>2021-05-08T11:10:34.000Z</time>
      </trkpt>
      <trkpt lat="47.19829" lon="-1.79634">
        <ele>57</ele>
        <time>2021-05-08T11:10:36.000Z</time>
      </trkpt>
      <trkpt lat="47.19831" lon="-1.79652">
        <ele>55</ele>
        <time>2021-05-08T11:10:38.000Z</time>
      </trkpt>
      <trkpt lat="47.1983" lon="-1.79667">
        <ele>56</ele>
        <time>2021-05-08T11:10:40.000Z</time>
      </trkpt>
      <trkpt lat="47.19832" lon="-1.79685">
        <ele>57</ele>
        <time>2021-05-08T11:10:42.000Z</time>
      </trkpt>
      <trkpt lat="47.19829" lon="-1.79708">
        <ele>59</ele>
        <time>2021-05-08T11:10:45.000Z</time>
      </trkpt>
      <trkpt lat="47.19828" lon="-1.79724">
        <ele>59</ele>
        <time>2021-05-08T11:10:47.000Z</time>
      </trkpt>
      <trkpt lat="47.19826" lon="-1.79739">
        <ele>60</ele>
        <time>2021-05-08T11:10:49.000Z</time>
      </trkpt>
      <trkpt lat="47.19825" lon="-1.79756">
        <ele>60</ele>
        <time>2021-05-08T11:10:51.000Z</time>
      </trkpt>
      <trkpt lat="47.19824" lon="-1.79773">
        <ele>59</ele>
        <time>2021-05-08T11:10:53.000Z</time>
      </trkpt>
      <trkpt lat="47.19823" lon="-1.7979">
        <ele>57</ele>
        <time>2021-05-08T11:10:55.000Z</time>
      </trkpt>
      <trkpt lat="47.19822" lon="-1.79806">
        <ele>56</ele>
        <time>2021-05-08T11:10:57.000Z</time>
      </trkpt>
      <trkpt lat="47.19825" lon="-1.79824">
        <ele>57</ele>
        <time>2021-05-08T11:10:59.000Z</time>
      </trkpt>
      <trkpt lat="47.19827" lon="-1.79841">
        <ele>58</ele>
        <time>2021-05-08T11:11:01.000Z</time>
      </trkpt>
      <trkpt lat="47.19831" lon="-1.79866">
        <ele>60</ele>
        <time>2021-05-08T11:11:04.000Z</time>
      </trkpt>
      <trkpt lat="47.19838" lon="-1.79891">
        <ele>60</ele>
        <time>2021-05-08T11:11:07.000Z</time>
      </trkpt>
      <trkpt lat="47.19841" lon="-1.79909">
        <ele>61</ele>
        <time>2021-05-08T11:11:09.000Z</time>
      </trkpt>
      <trkpt lat="47.19844" lon="-1.79925">
        <ele>62</ele>
        <time>2021-05-08T11:11:11.000Z</time>
      </trkpt>
      <trkpt lat="47.19848" lon="-1.79941">
        <ele>62</ele>
        <time>2021-05-08T11:11:13.000Z</time>
      </trkpt>
      <trkpt lat="47.19852" lon="-1.79958">
        <ele>61</ele>
        <time>2021-05-08T11:11:15.000Z</time>
      </trkpt>
      <trkpt lat="47.19857" lon="-1.79973">
        <ele>62</ele>
        <time>2021-05-08T11:11:17.000Z</time>
      </trkpt>
      <trkpt lat="47.19863" lon="-1.79991">
        <ele>61</ele>
        <time>2021-05-08T11:11:19.000Z</time>
      </trkpt>
      <trkpt lat="47.19866" lon="-1.80014">
        <ele>63</ele>
        <time>2021-05-08T11:11:22.000Z</time>
      </trkpt>
      <trkpt lat="47.19871" lon="-1.80035">
        <ele>63</ele>
        <time>2021-05-08T11:11:25.000Z</time>
      </trkpt>
      <trkpt lat="47.19874" lon="-1.80052">
        <ele>63</ele>
        <time>2021-05-08T11:11:27.000Z</time>
      </trkpt>
      <trkpt lat="47.19876" lon="-1.80067">
        <ele>63</ele>
        <time>2021-05-08T11:11:29.000Z</time>
      </trkpt>
      <trkpt lat="47.19878" lon="-1.80084">
        <ele>63</ele>
        <time>2021-05-08T11:11:31.000Z</time>
      </trkpt>
      <trkpt lat="47.19885" lon="-1.80109">
        <ele>62</ele>
        <time>2021-05-08T11:11:34.000Z</time>
      </trkpt>
      <trkpt lat="47.19888" lon="-1.80125">
        <ele>63</ele>
        <time>2021-05-08T11:11:36.000Z</time>
      </trkpt>
      <trkpt lat="47.19891" lon="-1.80142">
        <ele>62</ele>
        <time>2021-05-08T11:11:38.000Z</time>
      </trkpt>
      <trkpt lat="47.19894" lon="-1.8016">
        <ele>61</ele>
        <time>2021-05-08T11:11:40.000Z</time>
      </trkpt>
      <trkpt lat="47.19898" lon="-1.80176">
        <ele>60</ele>
        <time>2021-05-08T11:11:42.000Z</time>
      </trkpt>
      <trkpt lat="47.19901" lon="-1.80193">
        <ele>61</ele>
        <time>2021-05-08T11:11:44.000Z</time>
      </trkpt>
      <trkpt lat="47.19903" lon="-1.80209">
        <ele>62</ele>
        <time>2021-05-08T11:11:46.000Z</time>
      </trkpt>
      <trkpt lat="47.19906" lon="-1.80226">
        <ele>62</ele>
        <time>2021-05-08T11:11:48.000Z</time>
      </trkpt>
      <trkpt lat="47.19908" lon="-1.80243">
        <ele>62</ele>
        <time>2021-05-08T11:11:50.000Z</time>
      </trkpt>
      <trkpt lat="47.19911" lon="-1.8026">
        <ele>62</ele>
        <time>2021-05-08T11:11:52.000Z</time>
      </trkpt>
      <trkpt lat="47.19914" lon="-1.80276">
        <ele>62</ele>
        <time>2021-05-08T11:11:54.000Z</time>
      </trkpt>
      <trkpt lat="47.19917" lon="-1.80293">
        <ele>62</ele>
        <time>2021-05-08T11:11:56.000Z</time>
      </trkpt>
      <trkpt lat="47.19919" lon="-1.8031">
        <ele>62</ele>
        <time>2021-05-08T11:11:58.000Z</time>
      </trkpt>
      <trkpt lat="47.19922" lon="-1.80336">
        <ele>62</ele>
        <time>2021-05-08T11:12:01.000Z</time>
      </trkpt>
      <trkpt lat="47.19921" lon="-1.80363">
        <ele>62</ele>
        <time>2021-05-08T11:12:04.000Z</time>
      </trkpt>
      <trkpt lat="47.19919" lon="-1.8038">
        <ele>61</ele>
        <time>2021-05-08T11:12:06.000Z</time>
      </trkpt>
      <trkpt lat="47.19916" lon="-1.80398">
        <ele>60</ele>
        <time>2021-05-08T11:12:08.000Z</time>
      </trkpt>
      <trkpt lat="47.19913" lon="-1.80415">
        <ele>60</ele>
        <time>2021-05-08T11:12:10.000Z</time>
      </trkpt>
      <trkpt lat="47.1991" lon="-1.80434">
        <ele>60</ele>
        <time>2021-05-08T11:12:12.000Z</time>
      </trkpt>
      <trkpt lat="47.19906" lon="-1.80452">
        <ele>60</ele>
        <time>2021-05-08T11:12:14.000Z</time>
      </trkpt>
      <trkpt lat="47.19902" lon="-1.80469">
        <ele>59</ele>
        <time>2021-05-08T11:12:16.000Z</time>
      </trkpt>
      <trkpt lat="47.19897" lon="-1.80485">
        <ele>59</ele>
        <time>2021-05-08T11:12:18.000Z</time>
      </trkpt>
      <trkpt lat="47.19891" lon="-1.80502">
        <ele>57</ele>
        <time>2021-05-08T11:12:20.000Z</time>
      </trkpt>
      <trkpt lat="47.19885" lon="-1.80518">
        <ele>58</ele>
        <time>2021-05-08T11:12:22.000Z</time>
      </trkpt>
      <trkpt lat="47.19878" lon="-1.80533">
        <ele>59</ele>
        <time>2021-05-08T11:12:24.000Z</time>
      </trkpt>
      <trkpt lat="47.19872" lon="-1.80548">
        <ele>60</ele>
        <time>2021-05-08T11:12:26.000Z</time>
      </trkpt>
      <trkpt lat="47.19867" lon="-1.80564">
        <ele>60</ele>
        <time>2021-05-08T11:12:28.000Z</time>
      </trkpt>
      <trkpt lat="47.19862" lon="-1.80581">
        <ele>60</ele>
        <time>2021-05-08T11:12:30.000Z</time>
      </trkpt>
      <trkpt lat="47.19858" lon="-1.806">
        <ele>60</ele>
        <time>2021-05-08T11:12:32.000Z</time>
      </trkpt>
      <trkpt lat="47.19854" lon="-1.80619">
        <ele>59</ele>
        <time>2021-05-08T11:12:34.000Z</time>
      </trkpt>
      <trkpt lat="47.19851" lon="-1.80638">
        <ele>59</ele>
        <time>2021-05-08T11:12:36.000Z</time>
      </trkpt>
      <trkpt lat="47.19848" lon="-1.80658">
        <ele>59</ele>
        <time>2021-05-08T11:12:38.000Z</time>
      </trkpt>
      <trkpt lat="47.19844" lon="-1.80678">
        <ele>59</ele>
        <time>2021-05-08T11:12:40.000Z</time>
      </trkpt>
      <trkpt lat="47.1984" lon="-1.80708">
        <ele>59</ele>
        <time>2021-05-08T11:12:43.000Z</time>
      </trkpt>
      <trkpt lat="47.19837" lon="-1.80729">
        <ele>59</ele>
        <time>2021-05-08T11:12:45.000Z</time>
      </trkpt>
      <trkpt lat="47.19832" lon="-1.80748">
        <ele>59</ele>
        <time>2021-05-08T11:12:47.000Z</time>
      </trkpt>
      <trkpt lat="47.19827" lon="-1.80767">
        <ele>59</ele>
        <time>2021-05-08T11:12:49.000Z</time>
      </trkpt>
      <trkpt lat="47.1982" lon="-1.80785">
        <ele>59</ele>
        <time>2021-05-08T11:12:51.000Z</time>
      </trkpt>
      <trkpt lat="47.19814" lon="-1.80805">
        <ele>58</ele>
        <time>2021-05-08T11:12:53.000Z</time>
      </trkpt>
      <trkpt lat="47.19807" lon="-1.80825">
        <ele>56</ele>
        <time>2021-05-08T11:12:55.000Z</time>
      </trkpt>
      <trkpt lat="47.19797" lon="-1.80844">
        <ele>53</ele>
        <time>2021-05-08T11:12:57.000Z</time>
      </trkpt>
      <trkpt lat="47.19791" lon="-1.80863">
        <ele>53</ele>
        <time>2021-05-08T11:12:59.000Z</time>
      </trkpt>
      <trkpt lat="47.19786" lon="-1.80882">
        <ele>55</ele>
        <time>2021-05-08T11:13:01.000Z</time>
      </trkpt>
      <trkpt lat="47.1978" lon="-1.809">
        <ele>53</ele>
        <time>2021-05-08T11:13:03.000Z</time>
      </trkpt>
      <trkpt lat="47.19774" lon="-1.80919">
        <ele>52</ele>
        <time>2021-05-08T11:13:05.000Z</time>
      </trkpt>
      <trkpt lat="47.19767" lon="-1.80935">
        <ele>52</ele>
        <time>2021-05-08T11:13:07.000Z</time>
      </trkpt>
      <trkpt lat="47.19761" lon="-1.80952">
        <ele>50</ele>
        <time>2021-05-08T11:13:09.000Z</time>
      </trkpt>
      <trkpt lat="47.19751" lon="-1.80968">
        <ele>54</ele>
        <time>2021-05-08T11:13:11.000Z</time>
      </trkpt>
      <trkpt lat="47.19742" lon="-1.80983">
        <ele>53</ele>
        <time>2021-05-08T11:13:13.000Z</time>
      </trkpt>
      <trkpt lat="47.19733" lon="-1.80998">
        <ele>53</ele>
        <time>2021-05-08T11:13:15.000Z</time>
      </trkpt>
      <trkpt lat="47.19724" lon="-1.81013">
        <ele>53</ele>
        <time>2021-05-08T11:13:17.000Z</time>
      </trkpt>
      <trkpt lat="47.19716" lon="-1.8103">
        <ele>53</ele>
        <time>2021-05-08T11:13:19.000Z</time>
      </trkpt>
      <trkpt lat="47.19709" lon="-1.81048">
        <ele>53</ele>
        <time>2021-05-08T11:13:21.000Z</time>
      </trkpt>
      <trkpt lat="47.19704" lon="-1.81069">
        <ele>52</ele>
        <time>2021-05-08T11:13:23.000Z</time>
      </trkpt>
      <trkpt lat="47.19703" lon="-1.8109">
        <ele>52</ele>
        <time>2021-05-08T11:13:25.000Z</time>
      </trkpt>
      <trkpt lat="47.19703" lon="-1.81112">
        <ele>51</ele>
        <time>2021-05-08T11:13:27.000Z</time>
      </trkpt>
      <trkpt lat="47.19705" lon="-1.81132">
        <ele>49</ele>
        <time>2021-05-08T11:13:29.000Z</time>
      </trkpt>
      <trkpt lat="47.19708" lon="-1.81152">
        <ele>49</ele>
        <time>2021-05-08T11:13:31.000Z</time>
      </trkpt>
      <trkpt lat="47.19712" lon="-1.81172">
        <ele>49</ele>
        <time>2021-05-08T11:13:33.000Z</time>
      </trkpt>
      <trkpt lat="47.19716" lon="-1.81192">
        <ele>49</ele>
        <time>2021-05-08T11:13:35.000Z</time>
      </trkpt>
      <trkpt lat="47.19723" lon="-1.8121">
        <ele>49</ele>
        <time>2021-05-08T11:13:37.000Z</time>
      </trkpt>
      <trkpt lat="47.19732" lon="-1.81227">
        <ele>49</ele>
        <time>2021-05-08T11:13:39.000Z</time>
      </trkpt>
      <trkpt lat="47.19742" lon="-1.81242">
        <ele>49</ele>
        <time>2021-05-08T11:13:41.000Z</time>
      </trkpt>
      <trkpt lat="47.19755" lon="-1.81267">
        <ele>48</ele>
        <time>2021-05-08T11:13:44.000Z</time>
      </trkpt>
      <trkpt lat="47.19764" lon="-1.81283">
        <ele>49</ele>
        <time>2021-05-08T11:13:46.000Z</time>
      </trkpt>
      <trkpt lat="47.19772" lon="-1.813">
        <ele>48</ele>
        <time>2021-05-08T11:13:48.000Z</time>
      </trkpt>
      <trkpt lat="47.19777" lon="-1.81317">
        <ele>48</ele>
        <time>2021-05-08T11:13:50.000Z</time>
      </trkpt>
      <trkpt lat="47.19783" lon="-1.81335">
        <ele>48</ele>
        <time>2021-05-08T11:13:52.000Z</time>
      </trkpt>
      <trkpt lat="47.19788" lon="-1.81351">
        <ele>48</ele>
        <time>2021-05-08T11:13:54.000Z</time>
      </trkpt>
      <trkpt lat="47.19792" lon="-1.81369">
        <ele>49</ele>
        <time>2021-05-08T11:13:56.000Z</time>
      </trkpt>
      <trkpt lat="47.19797" lon="-1.81386">
        <ele>49</ele>
        <time>2021-05-08T11:13:58.000Z</time>
      </trkpt>
      <trkpt lat="47.19805" lon="-1.81412">
        <ele>49</ele>
        <time>2021-05-08T11:14:01.000Z</time>
      </trkpt>
      <trkpt lat="47.1981" lon="-1.81429">
        <ele>49</ele>
        <time>2021-05-08T11:14:03.000Z</time>
      </trkpt>
      <trkpt lat="47.19815" lon="-1.81446">
        <ele>50</ele>
        <time>2021-05-08T11:14:05.000Z</time>
      </trkpt>
      <trkpt lat="47.19821" lon="-1.81462">
        <ele>50</ele>
        <time>2021-05-08T11:14:07.000Z</time>
      </trkpt>
      <trkpt lat="47.19827" lon="-1.81479">
        <ele>49</ele>
        <time>2021-05-08T11:14:09.000Z</time>
      </trkpt>
      <trkpt lat="47.19833" lon="-1.81493">
        <ele>50</ele>
        <time>2021-05-08T11:14:11.000Z</time>
      </trkpt>
      <trkpt lat="47.19839" lon="-1.81508">
        <ele>50</ele>
        <time>2021-05-08T11:14:13.000Z</time>
      </trkpt>
      <trkpt lat="47.19847" lon="-1.81532">
        <ele>51</ele>
        <time>2021-05-08T11:14:16.000Z</time>
      </trkpt>
      <trkpt lat="47.19853" lon="-1.81548">
        <ele>51</ele>
        <time>2021-05-08T11:14:18.000Z</time>
      </trkpt>
      <trkpt lat="47.19859" lon="-1.81564">
        <ele>51</ele>
        <time>2021-05-08T11:14:20.000Z</time>
      </trkpt>
      <trkpt lat="47.19864" lon="-1.8158">
        <ele>52</ele>
        <time>2021-05-08T11:14:22.000Z</time>
      </trkpt>
      <trkpt lat="47.19868" lon="-1.81597">
        <ele>52</ele>
        <time>2021-05-08T11:14:24.000Z</time>
      </trkpt>
      <trkpt lat="47.19872" lon="-1.81614">
        <ele>52</ele>
        <time>2021-05-08T11:14:26.000Z</time>
      </trkpt>
      <trkpt lat="47.19876" lon="-1.81632">
        <ele>52</ele>
        <time>2021-05-08T11:14:28.000Z</time>
      </trkpt>
      <trkpt lat="47.19878" lon="-1.81649">
        <ele>52</ele>
        <time>2021-05-08T11:14:30.000Z</time>
      </trkpt>
      <trkpt lat="47.1988" lon="-1.81666">
        <ele>53</ele>
        <time>2021-05-08T11:14:32.000Z</time>
      </trkpt>
      <trkpt lat="47.19882" lon="-1.81684">
        <ele>53</ele>
        <time>2021-05-08T11:14:34.000Z</time>
      </trkpt>
      <trkpt lat="47.19885" lon="-1.81702">
        <ele>53</ele>
        <time>2021-05-08T11:14:36.000Z</time>
      </trkpt>
      <trkpt lat="47.19888" lon="-1.8172">
        <ele>52</ele>
        <time>2021-05-08T11:14:38.000Z</time>
      </trkpt>
      <trkpt lat="47.19891" lon="-1.81737">
        <ele>52</ele>
        <time>2021-05-08T11:14:40.000Z</time>
      </trkpt>
      <trkpt lat="47.19895" lon="-1.81755">
        <ele>53</ele>
        <time>2021-05-08T11:14:42.000Z</time>
      </trkpt>
      <trkpt lat="47.19899" lon="-1.81773">
        <ele>54</ele>
        <time>2021-05-08T11:14:44.000Z</time>
      </trkpt>
      <trkpt lat="47.19903" lon="-1.81795">
        <ele>50</ele>
        <time>2021-05-08T11:14:47.000Z</time>
      </trkpt>
      <trkpt lat="47.19906" lon="-1.81811">
        <ele>52</ele>
        <time>2021-05-08T11:14:49.000Z</time>
      </trkpt>
      <trkpt lat="47.1991" lon="-1.81829">
        <ele>53</ele>
        <time>2021-05-08T11:14:51.000Z</time>
      </trkpt>
      <trkpt lat="47.19914" lon="-1.81847">
        <ele>54</ele>
        <time>2021-05-08T11:14:53.000Z</time>
      </trkpt>
      <trkpt lat="47.19918" lon="-1.81865">
        <ele>55</ele>
        <time>2021-05-08T11:14:55.000Z</time>
      </trkpt>
      <trkpt lat="47.19921" lon="-1.81882">
        <ele>55</ele>
        <time>2021-05-08T11:14:57.000Z</time>
      </trkpt>
      <trkpt lat="47.19924" lon="-1.81899">
        <ele>55</ele>
        <time>2021-05-08T11:14:59.000Z</time>
      </trkpt>
      <trkpt lat="47.19927" lon="-1.81917">
        <ele>54</ele>
        <time>2021-05-08T11:15:01.000Z</time>
      </trkpt>
      <trkpt lat="47.1993" lon="-1.81934">
        <ele>54</ele>
        <time>2021-05-08T11:15:03.000Z</time>
      </trkpt>
      <trkpt lat="47.19933" lon="-1.81952">
        <ele>55</ele>
        <time>2021-05-08T11:15:05.000Z</time>
      </trkpt>
      <trkpt lat="47.19936" lon="-1.8197">
        <ele>56</ele>
        <time>2021-05-08T11:15:07.000Z</time>
      </trkpt>
      <trkpt lat="47.19941" lon="-1.81995">
        <ele>56</ele>
        <time>2021-05-08T11:15:10.000Z</time>
      </trkpt>
      <trkpt lat="47.19944" lon="-1.82015">
        <ele>56</ele>
        <time>2021-05-08T11:15:12.000Z</time>
      </trkpt>
      <trkpt lat="47.19949" lon="-1.82042">
        <ele>55</ele>
        <time>2021-05-08T11:15:15.000Z</time>
      </trkpt>
      <trkpt lat="47.19952" lon="-1.82057">
        <ele>57</ele>
        <time>2021-05-08T11:15:17.000Z</time>
      </trkpt>
      <trkpt lat="47.19955" lon="-1.82073">
        <ele>57</ele>
        <time>2021-05-08T11:15:19.000Z</time>
      </trkpt>
      <trkpt lat="47.19957" lon="-1.82091">
        <ele>58</ele>
        <time>2021-05-08T11:15:21.000Z</time>
      </trkpt>
      <trkpt lat="47.19958" lon="-1.82107">
        <ele>59</ele>
        <time>2021-05-08T11:15:23.000Z</time>
      </trkpt>
      <trkpt lat="47.1996" lon="-1.82124">
        <ele>59</ele>
        <time>2021-05-08T11:15:25.000Z</time>
      </trkpt>
      <trkpt lat="47.19957" lon="-1.8214">
        <ele>59</ele>
        <time>2021-05-08T11:15:27.000Z</time>
      </trkpt>
      <trkpt lat="47.19952" lon="-1.82156">
        <ele>60</ele>
        <time>2021-05-08T11:15:29.000Z</time>
      </trkpt>
      <trkpt lat="47.19947" lon="-1.82171">
        <ele>61</ele>
        <time>2021-05-08T11:15:31.000Z</time>
      </trkpt>
      <trkpt lat="47.19941" lon="-1.82186">
        <ele>62</ele>
        <time>2021-05-08T11:15:33.000Z</time>
      </trkpt>
      <trkpt lat="47.19934" lon="-1.822">
        <ele>62</ele>
        <time>2021-05-08T11:15:35.000Z</time>
      </trkpt>
      <trkpt lat="47.19927" lon="-1.82215">
        <ele>63</ele>
        <time>2021-05-08T11:15:37.000Z</time>
      </trkpt>
      <trkpt lat="47.19921" lon="-1.82231">
        <ele>64</ele>
        <time>2021-05-08T11:15:39.000Z</time>
      </trkpt>
      <trkpt lat="47.19915" lon="-1.82246">
        <ele>64</ele>
        <time>2021-05-08T11:15:41.000Z</time>
      </trkpt>
      <trkpt lat="47.19908" lon="-1.82261">
        <ele>64</ele>
        <time>2021-05-08T11:15:43.000Z</time>
      </trkpt>
      <trkpt lat="47.19902" lon="-1.82276">
        <ele>65</ele>
        <time>2021-05-08T11:15:45.000Z</time>
      </trkpt>
      <trkpt lat="47.19896" lon="-1.82291">
        <ele>65</ele>
        <time>2021-05-08T11:15:47.000Z</time>
      </trkpt>
      <trkpt lat="47.1989" lon="-1.82307">
        <ele>66</ele>
        <time>2021-05-08T11:15:49.000Z</time>
      </trkpt>
      <trkpt lat="47.19884" lon="-1.82323">
        <ele>66</ele>
        <time>2021-05-08T11:15:51.000Z</time>
      </trkpt>
      <trkpt lat="47.19878" lon="-1.82338">
        <ele>66</ele>
        <time>2021-05-08T11:15:53.000Z</time>
      </trkpt>
      <trkpt lat="47.1987" lon="-1.8236">
        <ele>67</ele>
        <time>2021-05-08T11:15:56.000Z</time>
      </trkpt>
      <trkpt lat="47.19864" lon="-1.82376">
        <ele>68</ele>
        <time>2021-05-08T11:15:58.000Z</time>
      </trkpt>
      <trkpt lat="47.19856" lon="-1.82392">
        <ele>66</ele>
        <time>2021-05-08T11:16:00.000Z</time>
      </trkpt>
      <trkpt lat="47.19851" lon="-1.82408">
        <ele>65</ele>
        <time>2021-05-08T11:16:02.000Z</time>
      </trkpt>
      <trkpt lat="47.19846" lon="-1.82424">
        <ele>66</ele>
        <time>2021-05-08T11:16:04.000Z</time>
      </trkpt>
      <trkpt lat="47.1984" lon="-1.82439">
        <ele>65</ele>
        <time>2021-05-08T11:16:06.000Z</time>
      </trkpt>
      <trkpt lat="47.19834" lon="-1.82453">
        <ele>66</ele>
        <time>2021-05-08T11:16:08.000Z</time>
      </trkpt>
      <trkpt lat="47.19827" lon="-1.82467">
        <ele>66</ele>
        <time>2021-05-08T11:16:10.000Z</time>
      </trkpt>
      <trkpt lat="47.19819" lon="-1.82479">
        <ele>65</ele>
        <time>2021-05-08T11:16:12.000Z</time>
      </trkpt>
      <trkpt lat="47.19812" lon="-1.82492">
        <ele>66</ele>
        <time>2021-05-08T11:16:14.000Z</time>
      </trkpt>
      <trkpt lat="47.19804" lon="-1.82505">
        <ele>66</ele>
        <time>2021-05-08T11:16:16.000Z</time>
      </trkpt>
      <trkpt lat="47.19791" lon="-1.82524">
        <ele>66</ele>
        <time>2021-05-08T11:16:19.000Z</time>
      </trkpt>
      <trkpt lat="47.19783" lon="-1.82537">
        <ele>65</ele>
        <time>2021-05-08T11:16:21.000Z</time>
      </trkpt>
      <trkpt lat="47.19775" lon="-1.8255">
        <ele>66</ele>
        <time>2021-05-08T11:16:23.000Z</time>
      </trkpt>
      <trkpt lat="47.19767" lon="-1.82563">
        <ele>66</ele>
        <time>2021-05-08T11:16:25.000Z</time>
      </trkpt>
      <trkpt lat="47.19758" lon="-1.82576">
        <ele>66</ele>
        <time>2021-05-08T11:16:27.000Z</time>
      </trkpt>
      <trkpt lat="47.1975" lon="-1.82589">
        <ele>66</ele>
        <time>2021-05-08T11:16:29.000Z</time>
      </trkpt>
      <trkpt lat="47.19742" lon="-1.82603">
        <ele>66</ele>
        <time>2021-05-08T11:16:31.000Z</time>
      </trkpt>
      <trkpt lat="47.19735" lon="-1.82618">
        <ele>65</ele>
        <time>2021-05-08T11:16:33.000Z</time>
      </trkpt>
      <trkpt lat="47.19729" lon="-1.82634">
        <ele>65</ele>
        <time>2021-05-08T11:16:35.000Z</time>
      </trkpt>
      <trkpt lat="47.19724" lon="-1.82651">
        <ele>64</ele>
        <time>2021-05-08T11:16:37.000Z</time>
      </trkpt>
      <trkpt lat="47.19719" lon="-1.82669">
        <ele>64</ele>
        <time>2021-05-08T11:16:39.000Z</time>
      </trkpt>
      <trkpt lat="47.19715" lon="-1.82686">
        <ele>64</ele>
        <time>2021-05-08T11:16:41.000Z</time>
      </trkpt>
      <trkpt lat="47.1971" lon="-1.82704">
        <ele>63</ele>
        <time>2021-05-08T11:16:43.000Z</time>
      </trkpt>
      <trkpt lat="47.19706" lon="-1.82722">
        <ele>64</ele>
        <time>2021-05-08T11:16:45.000Z</time>
      </trkpt>
      <trkpt lat="47.19702" lon="-1.82741">
        <ele>63</ele>
        <time>2021-05-08T11:16:47.000Z</time>
      </trkpt>
      <trkpt lat="47.19699" lon="-1.82762">
        <ele>63</ele>
        <time>2021-05-08T11:16:49.000Z</time>
      </trkpt>
      <trkpt lat="47.19695" lon="-1.82782">
        <ele>62</ele>
        <time>2021-05-08T11:16:51.000Z</time>
      </trkpt>
      <trkpt lat="47.19691" lon="-1.82801">
        <ele>62</ele>
        <time>2021-05-08T11:16:53.000Z</time>
      </trkpt>
      <trkpt lat="47.19687" lon="-1.8282">
        <ele>63</ele>
        <time>2021-05-08T11:16:55.000Z</time>
      </trkpt>
      <trkpt lat="47.19681" lon="-1.82849">
        <ele>62</ele>
        <time>2021-05-08T11:16:58.000Z</time>
      </trkpt>
      <trkpt lat="47.19677" lon="-1.82868">
        <ele>62</ele>
        <time>2021-05-08T11:17:00.000Z</time>
      </trkpt>
      <trkpt lat="47.19673" lon="-1.82886">
        <ele>61</ele>
        <time>2021-05-08T11:17:02.000Z</time>
      </trkpt>
      <trkpt lat="47.1967" lon="-1.82904">
        <ele>62</ele>
        <time>2021-05-08T11:17:04.000Z</time>
      </trkpt>
      <trkpt lat="47.19665" lon="-1.82922">
        <ele>62</ele>
        <time>2021-05-08T11:17:06.000Z</time>
      </trkpt>
      <trkpt lat="47.19662" lon="-1.8294">
        <ele>62</ele>
        <time>2021-05-08T11:17:08.000Z</time>
      </trkpt>
      <trkpt lat="47.19659" lon="-1.82959">
        <ele>62</ele>
        <time>2021-05-08T11:17:10.000Z</time>
      </trkpt>
      <trkpt lat="47.19654" lon="-1.82987">
        <ele>62</ele>
        <time>2021-05-08T11:17:13.000Z</time>
      </trkpt>
      <trkpt lat="47.19648" lon="-1.83015">
        <ele>61</ele>
        <time>2021-05-08T11:17:16.000Z</time>
      </trkpt>
      <trkpt lat="47.19644" lon="-1.83034">
        <ele>62</ele>
        <time>2021-05-08T11:17:18.000Z</time>
      </trkpt>
      <trkpt lat="47.19641" lon="-1.83052">
        <ele>61</ele>
        <time>2021-05-08T11:17:20.000Z</time>
      </trkpt>
      <trkpt lat="47.19638" lon="-1.83071">
        <ele>61</ele>
        <time>2021-05-08T11:17:22.000Z</time>
      </trkpt>
      <trkpt lat="47.19632" lon="-1.831">
        <ele>62</ele>
        <time>2021-05-08T11:17:25.000Z</time>
      </trkpt>
      <trkpt lat="47.19627" lon="-1.83119">
        <ele>62</ele>
        <time>2021-05-08T11:17:27.000Z</time>
      </trkpt>
      <trkpt lat="47.19624" lon="-1.83137">
        <ele>62</ele>
        <time>2021-05-08T11:17:29.000Z</time>
      </trkpt>
      <trkpt lat="47.19623" lon="-1.83156">
        <ele>62</ele>
        <time>2021-05-08T11:17:31.000Z</time>
      </trkpt>
      <trkpt lat="47.19622" lon="-1.83175">
        <ele>62</ele>
        <time>2021-05-08T11:17:33.000Z</time>
      </trkpt>
      <trkpt lat="47.19621" lon="-1.83204">
        <ele>61</ele>
        <time>2021-05-08T11:17:36.000Z</time>
      </trkpt>
      <trkpt lat="47.19621" lon="-1.83221">
        <ele>61</ele>
        <time>2021-05-08T11:17:38.000Z</time>
      </trkpt>
      <trkpt lat="47.19622" lon="-1.83239">
        <ele>60</ele>
        <time>2021-05-08T11:17:40.000Z</time>
      </trkpt>
      <trkpt lat="47.19623" lon="-1.83266">
        <ele>60</ele>
        <time>2021-05-08T11:17:43.000Z</time>
      </trkpt>
      <trkpt lat="47.19626" lon="-1.83284">
        <ele>61</ele>
        <time>2021-05-08T11:17:45.000Z</time>
      </trkpt>
      <trkpt lat="47.19626" lon="-1.83302">
        <ele>61</ele>
        <time>2021-05-08T11:17:47.000Z</time>
      </trkpt>
      <trkpt lat="47.19627" lon="-1.83321">
        <ele>61</ele>
        <time>2021-05-08T11:17:49.000Z</time>
      </trkpt>
      <trkpt lat="47.19627" lon="-1.83339">
        <ele>61</ele>
        <time>2021-05-08T11:17:51.000Z</time>
      </trkpt>
      <trkpt lat="47.19628" lon="-1.83358">
        <ele>61</ele>
        <time>2021-05-08T11:17:53.000Z</time>
      </trkpt>
      <trkpt lat="47.19629" lon="-1.83376">
        <ele>62</ele>
        <time>2021-05-08T11:17:55.000Z</time>
      </trkpt>
      <trkpt lat="47.1963" lon="-1.83395">
        <ele>62</ele>
        <time>2021-05-08T11:17:57.000Z</time>
      </trkpt>
      <trkpt lat="47.19631" lon="-1.83414">
        <ele>62</ele>
        <time>2021-05-08T11:17:59.000Z</time>
      </trkpt>
      <trkpt lat="47.19634" lon="-1.83435">
        <ele>62</ele>
        <time>2021-05-08T11:18:01.000Z</time>
      </trkpt>
      <trkpt lat="47.19635" lon="-1.83452">
        <ele>62</ele>
        <time>2021-05-08T11:18:03.000Z</time>
      </trkpt>
      <trkpt lat="47.19634" lon="-1.8347">
        <ele>62</ele>
        <time>2021-05-08T11:18:05.000Z</time>
      </trkpt>
      <trkpt lat="47.19634" lon="-1.83485">
        <ele>62</ele>
        <time>2021-05-08T11:18:07.000Z</time>
      </trkpt>
      <trkpt lat="47.19636" lon="-1.83512">
        <ele>61</ele>
        <time>2021-05-08T11:18:10.000Z</time>
      </trkpt>
      <trkpt lat="47.19636" lon="-1.83529">
        <ele>62</ele>
        <time>2021-05-08T11:18:12.000Z</time>
      </trkpt>
      <trkpt lat="47.19635" lon="-1.83547">
        <ele>62</ele>
        <time>2021-05-08T11:18:14.000Z</time>
      </trkpt>
      <trkpt lat="47.19634" lon="-1.83565">
        <ele>61</ele>
        <time>2021-05-08T11:18:16.000Z</time>
      </trkpt>
      <trkpt lat="47.19631" lon="-1.83583">
        <ele>60</ele>
        <time>2021-05-08T11:18:18.000Z</time>
      </trkpt>
      <trkpt lat="47.19627" lon="-1.83601">
        <ele>61</ele>
        <time>2021-05-08T11:18:20.000Z</time>
      </trkpt>
      <trkpt lat="47.19623" lon="-1.83621">
        <ele>58</ele>
        <time>2021-05-08T11:18:22.000Z</time>
      </trkpt>
      <trkpt lat="47.19617" lon="-1.83639">
        <ele>59</ele>
        <time>2021-05-08T11:18:24.000Z</time>
      </trkpt>
      <trkpt lat="47.19613" lon="-1.83657">
        <ele>59</ele>
        <time>2021-05-08T11:18:26.000Z</time>
      </trkpt>
      <trkpt lat="47.1961" lon="-1.83676">
        <ele>59</ele>
        <time>2021-05-08T11:18:28.000Z</time>
      </trkpt>
      <trkpt lat="47.1961" lon="-1.83695">
        <ele>59</ele>
        <time>2021-05-08T11:18:30.000Z</time>
      </trkpt>
      <trkpt lat="47.1961" lon="-1.83714">
        <ele>59</ele>
        <time>2021-05-08T11:18:32.000Z</time>
      </trkpt>
      <trkpt lat="47.19614" lon="-1.83733">
        <ele>58</ele>
        <time>2021-05-08T11:18:34.000Z</time>
      </trkpt>
      <trkpt lat="47.19617" lon="-1.83751">
        <ele>57</ele>
        <time>2021-05-08T11:18:36.000Z</time>
      </trkpt>
      <trkpt lat="47.19618" lon="-1.83768">
        <ele>51</ele>
        <time>2021-05-08T11:18:38.000Z</time>
      </trkpt>
      <trkpt lat="47.19621" lon="-1.83787">
        <ele>53</ele>
        <time>2021-05-08T11:18:40.000Z</time>
      </trkpt>
      <trkpt lat="47.19628" lon="-1.83816">
        <ele>55</ele>
        <time>2021-05-08T11:18:43.000Z</time>
      </trkpt>
      <trkpt lat="47.19635" lon="-1.83845">
        <ele>55</ele>
        <time>2021-05-08T11:18:46.000Z</time>
      </trkpt>
      <trkpt lat="47.19642" lon="-1.83875">
        <ele>56</ele>
        <time>2021-05-08T11:18:49.000Z</time>
      </trkpt>
      <trkpt lat="47.19645" lon="-1.83904">
        <ele>57</ele>
        <time>2021-05-08T11:18:52.000Z</time>
      </trkpt>
      <trkpt lat="47.19651" lon="-1.83931">
        <ele>58</ele>
        <time>2021-05-08T11:18:55.000Z</time>
      </trkpt>
      <trkpt lat="47.19657" lon="-1.8396">
        <ele>58</ele>
        <time>2021-05-08T11:18:58.000Z</time>
      </trkpt>
      <trkpt lat="47.19659" lon="-1.83979">
        <ele>57</ele>
        <time>2021-05-08T11:19:00.000Z</time>
      </trkpt>
      <trkpt lat="47.19662" lon="-1.83997">
        <ele>57</ele>
        <time>2021-05-08T11:19:02.000Z</time>
      </trkpt>
      <trkpt lat="47.19665" lon="-1.84015">
        <ele>57</ele>
        <time>2021-05-08T11:19:04.000Z</time>
      </trkpt>
      <trkpt lat="47.19666" lon="-1.84045">
        <ele>58</ele>
        <time>2021-05-08T11:19:07.000Z</time>
      </trkpt>
      <trkpt lat="47.19662" lon="-1.84062">
        <ele>59</ele>
        <time>2021-05-08T11:19:09.000Z</time>
      </trkpt>
      <trkpt lat="47.19658" lon="-1.84081">
        <ele>60</ele>
        <time>2021-05-08T11:19:11.000Z</time>
      </trkpt>
      <trkpt lat="47.19653" lon="-1.84099">
        <ele>60</ele>
        <time>2021-05-08T11:19:13.000Z</time>
      </trkpt>
      <trkpt lat="47.19647" lon="-1.84114">
        <ele>60</ele>
        <time>2021-05-08T11:19:15.000Z</time>
      </trkpt>
      <trkpt lat="47.19639" lon="-1.84128">
        <ele>59</ele>
        <time>2021-05-08T11:19:17.000Z</time>
      </trkpt>
      <trkpt lat="47.19626" lon="-1.84151">
        <ele>59</ele>
        <time>2021-05-08T11:19:20.000Z</time>
      </trkpt>
      <trkpt lat="47.19619" lon="-1.84166">
        <ele>60</ele>
        <time>2021-05-08T11:19:22.000Z</time>
      </trkpt>
      <trkpt lat="47.19607" lon="-1.84186">
        <ele>60</ele>
        <time>2021-05-08T11:19:25.000Z</time>
      </trkpt>
      <trkpt lat="47.196" lon="-1.842">
        <ele>60</ele>
        <time>2021-05-08T11:19:27.000Z</time>
      </trkpt>
      <trkpt lat="47.19593" lon="-1.84213">
        <ele>60</ele>
        <time>2021-05-08T11:19:29.000Z</time>
      </trkpt>
      <trkpt lat="47.19581" lon="-1.84235">
        <ele>60</ele>
        <time>2021-05-08T11:19:32.000Z</time>
      </trkpt>
      <trkpt lat="47.19573" lon="-1.84248">
        <ele>60</ele>
        <time>2021-05-08T11:19:34.000Z</time>
      </trkpt>
      <trkpt lat="47.19564" lon="-1.84262">
        <ele>59</ele>
        <time>2021-05-08T11:19:36.000Z</time>
      </trkpt>
      <trkpt lat="47.19557" lon="-1.84277">
        <ele>59</ele>
        <time>2021-05-08T11:19:38.000Z</time>
      </trkpt>
      <trkpt lat="47.19549" lon="-1.84291">
        <ele>58</ele>
        <time>2021-05-08T11:19:40.000Z</time>
      </trkpt>
      <trkpt lat="47.19541" lon="-1.84305">
        <ele>59</ele>
        <time>2021-05-08T11:19:42.000Z</time>
      </trkpt>
      <trkpt lat="47.19529" lon="-1.84327">
        <ele>58</ele>
        <time>2021-05-08T11:19:45.000Z</time>
      </trkpt>
      <trkpt lat="47.19522" lon="-1.84341">
        <ele>59</ele>
        <time>2021-05-08T11:19:47.000Z</time>
      </trkpt>
      <trkpt lat="47.19513" lon="-1.84354">
        <ele>59</ele>
        <time>2021-05-08T11:19:49.000Z</time>
      </trkpt>
      <trkpt lat="47.19505" lon="-1.84368">
        <ele>60</ele>
        <time>2021-05-08T11:19:51.000Z</time>
      </trkpt>
      <trkpt lat="47.19493" lon="-1.84391">
        <ele>61</ele>
        <time>2021-05-08T11:19:54.000Z</time>
      </trkpt>
      <trkpt lat="47.19485" lon="-1.84405">
        <ele>62</ele>
        <time>2021-05-08T11:19:56.000Z</time>
      </trkpt>
      <trkpt lat="47.19476" lon="-1.84419">
        <ele>63</ele>
        <time>2021-05-08T11:19:58.000Z</time>
      </trkpt>
      <trkpt lat="47.19468" lon="-1.84434">
        <ele>62</ele>
        <time>2021-05-08T11:20:00.000Z</time>
      </trkpt>
      <trkpt lat="47.19458" lon="-1.84456">
        <ele>62</ele>
        <time>2021-05-08T11:20:03.000Z</time>
      </trkpt>
      <trkpt lat="47.1945" lon="-1.84469">
        <ele>62</ele>
        <time>2021-05-08T11:20:05.000Z</time>
      </trkpt>
      <trkpt lat="47.19441" lon="-1.84482">
        <ele>63</ele>
        <time>2021-05-08T11:20:07.000Z</time>
      </trkpt>
      <trkpt lat="47.19435" lon="-1.84495">
        <ele>62</ele>
        <time>2021-05-08T11:20:09.000Z</time>
      </trkpt>
      <trkpt lat="47.19428" lon="-1.84508">
        <ele>62</ele>
        <time>2021-05-08T11:20:11.000Z</time>
      </trkpt>
      <trkpt lat="47.1942" lon="-1.8452">
        <ele>62</ele>
        <time>2021-05-08T11:20:13.000Z</time>
      </trkpt>
      <trkpt lat="47.19413" lon="-1.84532">
        <ele>62</ele>
        <time>2021-05-08T11:20:15.000Z</time>
      </trkpt>
      <trkpt lat="47.19404" lon="-1.84544">
        <ele>62</ele>
        <time>2021-05-08T11:20:17.000Z</time>
      </trkpt>
      <trkpt lat="47.19396" lon="-1.84555">
        <ele>62</ele>
        <time>2021-05-08T11:20:19.000Z</time>
      </trkpt>
      <trkpt lat="47.19381" lon="-1.84568">
        <ele>61</ele>
        <time>2021-05-08T11:20:22.000Z</time>
      </trkpt>
      <trkpt lat="47.19372" lon="-1.84575">
        <ele>61</ele>
        <time>2021-05-08T11:20:24.000Z</time>
      </trkpt>
      <trkpt lat="47.19359" lon="-1.84575">
        <ele>62</ele>
        <time>2021-05-08T11:20:26.000Z</time>
      </trkpt>
      <trkpt lat="47.19347" lon="-1.8458">
        <ele>61</ele>
        <time>2021-05-08T11:20:28.000Z</time>
      </trkpt>
      <trkpt lat="47.19337" lon="-1.84593">
        <ele>60</ele>
        <time>2021-05-08T11:20:30.000Z</time>
      </trkpt>
      <trkpt lat="47.19333" lon="-1.84611">
        <ele>59</ele>
        <time>2021-05-08T11:20:32.000Z</time>
      </trkpt>
      <trkpt lat="47.19332" lon="-1.8463">
        <ele>59</ele>
        <time>2021-05-08T11:20:34.000Z</time>
      </trkpt>
      <trkpt lat="47.19331" lon="-1.8465">
        <ele>58</ele>
        <time>2021-05-08T11:20:36.000Z</time>
      </trkpt>
      <trkpt lat="47.19331" lon="-1.84669">
        <ele>58</ele>
        <time>2021-05-08T11:20:38.000Z</time>
      </trkpt>
      <trkpt lat="47.1933" lon="-1.84689">
        <ele>57</ele>
        <time>2021-05-08T11:20:40.000Z</time>
      </trkpt>
      <trkpt lat="47.1933" lon="-1.84708">
        <ele>56</ele>
        <time>2021-05-08T11:20:42.000Z</time>
      </trkpt>
      <trkpt lat="47.1933" lon="-1.84728">
        <ele>56</ele>
        <time>2021-05-08T11:20:44.000Z</time>
      </trkpt>
      <trkpt lat="47.19329" lon="-1.84747">
        <ele>56</ele>
        <time>2021-05-08T11:20:46.000Z</time>
      </trkpt>
      <trkpt lat="47.19332" lon="-1.84775">
        <ele>56</ele>
        <time>2021-05-08T11:20:49.000Z</time>
      </trkpt>
      <trkpt lat="47.19328" lon="-1.84795">
        <ele>55</ele>
        <time>2021-05-08T11:20:51.000Z</time>
      </trkpt>
      <trkpt lat="47.19324" lon="-1.84826">
        <ele>54</ele>
        <time>2021-05-08T11:20:54.000Z</time>
      </trkpt>
      <trkpt lat="47.19322" lon="-1.84845">
        <ele>54</ele>
        <time>2021-05-08T11:20:56.000Z</time>
      </trkpt>
      <trkpt lat="47.19316" lon="-1.84863">
        <ele>55</ele>
        <time>2021-05-08T11:20:58.000Z</time>
      </trkpt>
      <trkpt lat="47.19308" lon="-1.84888">
        <ele>55</ele>
        <time>2021-05-08T11:21:01.000Z</time>
      </trkpt>
      <trkpt lat="47.193" lon="-1.84917">
        <ele>55</ele>
        <time>2021-05-08T11:21:04.000Z</time>
      </trkpt>
      <trkpt lat="47.19292" lon="-1.8494">
        <ele>55</ele>
        <time>2021-05-08T11:21:07.000Z</time>
      </trkpt>
      <trkpt lat="47.19286" lon="-1.84958">
        <ele>55</ele>
        <time>2021-05-08T11:21:09.000Z</time>
      </trkpt>
      <trkpt lat="47.1928" lon="-1.84974">
        <ele>55</ele>
        <time>2021-05-08T11:21:11.000Z</time>
      </trkpt>
      <trkpt lat="47.19276" lon="-1.84994">
        <ele>55</ele>
        <time>2021-05-08T11:21:13.000Z</time>
      </trkpt>
      <trkpt lat="47.19271" lon="-1.85012">
        <ele>55</ele>
        <time>2021-05-08T11:21:15.000Z</time>
      </trkpt>
      <trkpt lat="47.19268" lon="-1.8503">
        <ele>54</ele>
        <time>2021-05-08T11:21:17.000Z</time>
      </trkpt>
      <trkpt lat="47.19266" lon="-1.85048">
        <ele>54</ele>
        <time>2021-05-08T11:21:19.000Z</time>
      </trkpt>
      <trkpt lat="47.19264" lon="-1.85067">
        <ele>53</ele>
        <time>2021-05-08T11:21:21.000Z</time>
      </trkpt>
      <trkpt lat="47.19263" lon="-1.85085">
        <ele>53</ele>
        <time>2021-05-08T11:21:23.000Z</time>
      </trkpt>
      <trkpt lat="47.19264" lon="-1.85104">
        <ele>52</ele>
        <time>2021-05-08T11:21:25.000Z</time>
      </trkpt>
      <trkpt lat="47.19266" lon="-1.85123">
        <ele>51</ele>
        <time>2021-05-08T11:21:27.000Z</time>
      </trkpt>
      <trkpt lat="47.19268" lon="-1.85143">
        <ele>50</ele>
        <time>2021-05-08T11:21:29.000Z</time>
      </trkpt>
      <trkpt lat="47.19269" lon="-1.85176">
        <ele>49</ele>
        <time>2021-05-08T11:21:32.000Z</time>
      </trkpt>
      <trkpt lat="47.19271" lon="-1.85199">
        <ele>49</ele>
        <time>2021-05-08T11:21:34.000Z</time>
      </trkpt>
      <trkpt lat="47.19272" lon="-1.85219">
        <ele>49</ele>
        <time>2021-05-08T11:21:36.000Z</time>
      </trkpt>
      <trkpt lat="47.19276" lon="-1.85234">
        <ele>49</ele>
        <time>2021-05-08T11:21:38.000Z</time>
      </trkpt>
      <trkpt lat="47.19278" lon="-1.85253">
        <ele>49</ele>
        <time>2021-05-08T11:21:41.000Z</time>
      </trkpt>
      <trkpt lat="47.19273" lon="-1.85269">
        <ele>49</ele>
        <time>2021-05-08T11:21:43.000Z</time>
      </trkpt>
      <trkpt lat="47.19267" lon="-1.85287">
        <ele>49</ele>
        <time>2021-05-08T11:21:45.000Z</time>
      </trkpt>
      <trkpt lat="47.19262" lon="-1.85305">
        <ele>49</ele>
        <time>2021-05-08T11:21:47.000Z</time>
      </trkpt>
      <trkpt lat="47.19258" lon="-1.85322">
        <ele>48</ele>
        <time>2021-05-08T11:21:49.000Z</time>
      </trkpt>
      <trkpt lat="47.19252" lon="-1.85339">
        <ele>48</ele>
        <time>2021-05-08T11:21:51.000Z</time>
      </trkpt>
      <trkpt lat="47.19245" lon="-1.85354">
        <ele>48</ele>
        <time>2021-05-08T11:21:53.000Z</time>
      </trkpt>
      <trkpt lat="47.19237" lon="-1.85367">
        <ele>48</ele>
        <time>2021-05-08T11:21:55.000Z</time>
      </trkpt>
      <trkpt lat="47.1923" lon="-1.85383">
        <ele>48</ele>
        <time>2021-05-08T11:21:57.000Z</time>
      </trkpt>
      <trkpt lat="47.19222" lon="-1.85397">
        <ele>47</ele>
        <time>2021-05-08T11:21:59.000Z</time>
      </trkpt>
      <trkpt lat="47.19214" lon="-1.85412">
        <ele>48</ele>
        <time>2021-05-08T11:22:01.000Z</time>
      </trkpt>
      <trkpt lat="47.19202" lon="-1.85424">
        <ele>47</ele>
        <time>2021-05-08T11:22:03.000Z</time>
      </trkpt>
      <trkpt lat="47.19191" lon="-1.85435">
        <ele>48</ele>
        <time>2021-05-08T11:22:05.000Z</time>
      </trkpt>
      <trkpt lat="47.19182" lon="-1.85447">
        <ele>49</ele>
        <time>2021-05-08T11:22:07.000Z</time>
      </trkpt>
      <trkpt lat="47.19173" lon="-1.85459">
        <ele>48</ele>
        <time>2021-05-08T11:22:09.000Z</time>
      </trkpt>
      <trkpt lat="47.19164" lon="-1.85472">
        <ele>48</ele>
        <time>2021-05-08T11:22:11.000Z</time>
      </trkpt>
      <trkpt lat="47.19155" lon="-1.85484">
        <ele>48</ele>
        <time>2021-05-08T11:22:13.000Z</time>
      </trkpt>
      <trkpt lat="47.19138" lon="-1.85507">
        <ele>49</ele>
        <time>2021-05-08T11:22:17.000Z</time>
      </trkpt>
      <trkpt lat="47.19128" lon="-1.8552">
        <ele>49</ele>
        <time>2021-05-08T11:22:19.000Z</time>
      </trkpt>
      <trkpt lat="47.19114" lon="-1.85535">
        <ele>48</ele>
        <time>2021-05-08T11:22:22.000Z</time>
      </trkpt>
      <trkpt lat="47.19104" lon="-1.85546">
        <ele>47</ele>
        <time>2021-05-08T11:22:24.000Z</time>
      </trkpt>
      <trkpt lat="47.19093" lon="-1.85554">
        <ele>47</ele>
        <time>2021-05-08T11:22:26.000Z</time>
      </trkpt>
      <trkpt lat="47.19078" lon="-1.85569">
        <ele>47</ele>
        <time>2021-05-08T11:22:29.000Z</time>
      </trkpt>
      <trkpt lat="47.19063" lon="-1.85584">
        <ele>45</ele>
        <time>2021-05-08T11:22:32.000Z</time>
      </trkpt>
      <trkpt lat="47.19052" lon="-1.85592">
        <ele>46</ele>
        <time>2021-05-08T11:22:34.000Z</time>
      </trkpt>
      <trkpt lat="47.19041" lon="-1.85602">
        <ele>47</ele>
        <time>2021-05-08T11:22:36.000Z</time>
      </trkpt>
      <trkpt lat="47.19031" lon="-1.8561">
        <ele>47</ele>
        <time>2021-05-08T11:22:38.000Z</time>
      </trkpt>
      <trkpt lat="47.19023" lon="-1.85622">
        <ele>48</ele>
        <time>2021-05-08T11:22:40.000Z</time>
      </trkpt>
      <trkpt lat="47.19011" lon="-1.85629">
        <ele>50</ele>
        <time>2021-05-08T11:22:42.000Z</time>
      </trkpt>
      <trkpt lat="47.18999" lon="-1.85638">
        <ele>50</ele>
        <time>2021-05-08T11:22:44.000Z</time>
      </trkpt>
      <trkpt lat="47.18988" lon="-1.85647">
        <ele>50</ele>
        <time>2021-05-08T11:22:46.000Z</time>
      </trkpt>
      <trkpt lat="47.18978" lon="-1.85653">
        <ele>50</ele>
        <time>2021-05-08T11:22:48.000Z</time>
      </trkpt>
      <trkpt lat="47.18966" lon="-1.8566">
        <ele>50</ele>
        <time>2021-05-08T11:22:50.000Z</time>
      </trkpt>
      <trkpt lat="47.18953" lon="-1.85669">
        <ele>50</ele>
        <time>2021-05-08T11:22:52.000Z</time>
      </trkpt>
      <trkpt lat="47.18935" lon="-1.85682">
        <ele>50</ele>
        <time>2021-05-08T11:22:55.000Z</time>
      </trkpt>
      <trkpt lat="47.18923" lon="-1.8569">
        <ele>49</ele>
        <time>2021-05-08T11:22:57.000Z</time>
      </trkpt>
      <trkpt lat="47.18905" lon="-1.85703">
        <ele>49</ele>
        <time>2021-05-08T11:23:00.000Z</time>
      </trkpt>
      <trkpt lat="47.18894" lon="-1.85711">
        <ele>48</ele>
        <time>2021-05-08T11:23:02.000Z</time>
      </trkpt>
      <trkpt lat="47.18887" lon="-1.85721">
        <ele>47</ele>
        <time>2021-05-08T11:23:04.000Z</time>
      </trkpt>
      <trkpt lat="47.18873" lon="-1.85729">
        <ele>50</ele>
        <time>2021-05-08T11:23:06.000Z</time>
      </trkpt>
      <trkpt lat="47.18853" lon="-1.85742">
        <ele>50</ele>
        <time>2021-05-08T11:23:09.000Z</time>
      </trkpt>
      <trkpt lat="47.1884" lon="-1.85749">
        <ele>49</ele>
        <time>2021-05-08T11:23:11.000Z</time>
      </trkpt>
      <trkpt lat="47.18828" lon="-1.85759">
        <ele>50</ele>
        <time>2021-05-08T11:23:13.000Z</time>
      </trkpt>
      <trkpt lat="47.18817" lon="-1.85767">
        <ele>49</ele>
        <time>2021-05-08T11:23:15.000Z</time>
      </trkpt>
      <trkpt lat="47.18806" lon="-1.85775">
        <ele>49</ele>
        <time>2021-05-08T11:23:17.000Z</time>
      </trkpt>
      <trkpt lat="47.18794" lon="-1.85784">
        <ele>49</ele>
        <time>2021-05-08T11:23:19.000Z</time>
      </trkpt>
      <trkpt lat="47.18783" lon="-1.85792">
        <ele>49</ele>
        <time>2021-05-08T11:23:21.000Z</time>
      </trkpt>
      <trkpt lat="47.18771" lon="-1.858">
        <ele>49</ele>
        <time>2021-05-08T11:23:23.000Z</time>
      </trkpt>
      <trkpt lat="47.1876" lon="-1.85807">
        <ele>49</ele>
        <time>2021-05-08T11:23:25.000Z</time>
      </trkpt>
      <trkpt lat="47.1875" lon="-1.85815">
        <ele>49</ele>
        <time>2021-05-08T11:23:27.000Z</time>
      </trkpt>
      <trkpt lat="47.18739" lon="-1.85824">
        <ele>49</ele>
        <time>2021-05-08T11:23:29.000Z</time>
      </trkpt>
      <trkpt lat="47.18722" lon="-1.85836">
        <ele>48</ele>
        <time>2021-05-08T11:23:32.000Z</time>
      </trkpt>
      <trkpt lat="47.1871" lon="-1.85844">
        <ele>48</ele>
        <time>2021-05-08T11:23:34.000Z</time>
      </trkpt>
      <trkpt lat="47.18694" lon="-1.85858">
        <ele>48</ele>
        <time>2021-05-08T11:23:37.000Z</time>
      </trkpt>
      <trkpt lat="47.18682" lon="-1.85867">
        <ele>48</ele>
        <time>2021-05-08T11:23:39.000Z</time>
      </trkpt>
      <trkpt lat="47.18671" lon="-1.85875">
        <ele>48</ele>
        <time>2021-05-08T11:23:41.000Z</time>
      </trkpt>
      <trkpt lat="47.18658" lon="-1.8588">
        <ele>47</ele>
        <time>2021-05-08T11:23:43.000Z</time>
      </trkpt>
      <trkpt lat="47.18646" lon="-1.85884">
        <ele>45</ele>
        <time>2021-05-08T11:23:45.000Z</time>
      </trkpt>
      <trkpt lat="47.1864" lon="-1.85894">
        <ele>48</ele>
        <time>2021-05-08T11:23:47.000Z</time>
      </trkpt>
      <trkpt lat="47.18629" lon="-1.85913">
        <ele>49</ele>
        <time>2021-05-08T11:23:50.000Z</time>
      </trkpt>
      <trkpt lat="47.18621" lon="-1.85923">
        <ele>50</ele>
        <time>2021-05-08T11:23:52.000Z</time>
      </trkpt>
      <trkpt lat="47.18611" lon="-1.85937">
        <ele>52</ele>
        <time>2021-05-08T11:23:55.000Z</time>
      </trkpt>
      <trkpt lat="47.18604" lon="-1.85946">
        <ele>53</ele>
        <time>2021-05-08T11:23:57.000Z</time>
      </trkpt>
      <trkpt lat="47.18597" lon="-1.85957">
        <ele>53</ele>
        <time>2021-05-08T11:23:59.000Z</time>
      </trkpt>
      <trkpt lat="47.18592" lon="-1.85968">
        <ele>53</ele>
        <time>2021-05-08T11:24:01.000Z</time>
      </trkpt>
      <trkpt lat="47.18587" lon="-1.85979">
        <ele>53</ele>
        <time>2021-05-08T11:24:03.000Z</time>
      </trkpt>
      <trkpt lat="47.18582" lon="-1.8599">
        <ele>55</ele>
        <time>2021-05-08T11:24:05.000Z</time>
      </trkpt>
      <trkpt lat="47.18576" lon="-1.86001">
        <ele>55</ele>
        <time>2021-05-08T11:24:07.000Z</time>
      </trkpt>
      <trkpt lat="47.18568" lon="-1.86016">
        <ele>56</ele>
        <time>2021-05-08T11:24:10.000Z</time>
      </trkpt>
      <trkpt lat="47.18563" lon="-1.86028">
        <ele>57</ele>
        <time>2021-05-08T11:24:12.000Z</time>
      </trkpt>
      <trkpt lat="47.18558" lon="-1.86039">
        <ele>57</ele>
        <time>2021-05-08T11:24:14.000Z</time>
      </trkpt>
      <trkpt lat="47.18553" lon="-1.8605">
        <ele>57</ele>
        <time>2021-05-08T11:24:16.000Z</time>
      </trkpt>
      <trkpt lat="47.18549" lon="-1.86063">
        <ele>58</ele>
        <time>2021-05-08T11:24:18.000Z</time>
      </trkpt>
      <trkpt lat="47.18543" lon="-1.86073">
        <ele>59</ele>
        <time>2021-05-08T11:24:20.000Z</time>
      </trkpt>
      <trkpt lat="47.18537" lon="-1.86086">
        <ele>59</ele>
        <time>2021-05-08T11:24:22.000Z</time>
      </trkpt>
      <trkpt lat="47.18533" lon="-1.86098">
        <ele>59</ele>
        <time>2021-05-08T11:24:24.000Z</time>
      </trkpt>
      <trkpt lat="47.18526" lon="-1.86106">
        <ele>60</ele>
        <time>2021-05-08T11:24:26.000Z</time>
      </trkpt>
      <trkpt lat="47.18517" lon="-1.86118">
        <ele>61</ele>
        <time>2021-05-08T11:24:29.000Z</time>
      </trkpt>
      <trkpt lat="47.18513" lon="-1.86132">
        <ele>62</ele>
        <time>2021-05-08T11:24:32.000Z</time>
      </trkpt>
      <trkpt lat="47.1851" lon="-1.86148">
        <ele>61</ele>
        <time>2021-05-08T11:24:34.000Z</time>
      </trkpt>
      <trkpt lat="47.18506" lon="-1.86162">
        <ele>60</ele>
        <time>2021-05-08T11:24:36.000Z</time>
      </trkpt>
      <trkpt lat="47.18501" lon="-1.86178">
        <ele>57</ele>
        <time>2021-05-08T11:24:38.000Z</time>
      </trkpt>
      <trkpt lat="47.18497" lon="-1.86193">
        <ele>58</ele>
        <time>2021-05-08T11:24:40.000Z</time>
      </trkpt>
      <trkpt lat="47.18489" lon="-1.86216">
        <ele>59</ele>
        <time>2021-05-08T11:24:43.000Z</time>
      </trkpt>
      <trkpt lat="47.18484" lon="-1.86231">
        <ele>58</ele>
        <time>2021-05-08T11:24:45.000Z</time>
      </trkpt>
      <trkpt lat="47.1848" lon="-1.86247">
        <ele>58</ele>
        <time>2021-05-08T11:24:47.000Z</time>
      </trkpt>
      <trkpt lat="47.18476" lon="-1.86265">
        <ele>57</ele>
        <time>2021-05-08T11:24:49.000Z</time>
      </trkpt>
      <trkpt lat="47.18476" lon="-1.86284">
        <ele>57</ele>
        <time>2021-05-08T11:24:51.000Z</time>
      </trkpt>
      <trkpt lat="47.18476" lon="-1.86305">
        <ele>56</ele>
        <time>2021-05-08T11:24:53.000Z</time>
      </trkpt>
      <trkpt lat="47.18473" lon="-1.86328">
        <ele>55</ele>
        <time>2021-05-08T11:24:55.000Z</time>
      </trkpt>
      <trkpt lat="47.18464" lon="-1.86365">
        <ele>53</ele>
        <time>2021-05-08T11:24:58.000Z</time>
      </trkpt>
      <trkpt lat="47.1846" lon="-1.86377">
        <ele>53</ele>
        <time>2021-05-08T11:24:59.000Z</time>
      </trkpt>
      <trkpt lat="47.18443" lon="-1.86409">
        <ele>50</ele>
        <time>2021-05-08T11:25:02.000Z</time>
      </trkpt>
      <trkpt lat="47.18426" lon="-1.86429">
        <ele>53</ele>
        <time>2021-05-08T11:25:05.000Z</time>
      </trkpt>
      <trkpt lat="47.18413" lon="-1.86442">
        <ele>53</ele>
        <time>2021-05-08T11:25:07.000Z</time>
      </trkpt>
      <trkpt lat="47.18406" lon="-1.86471">
        <ele>52</ele>
        <time>2021-05-08T11:25:10.000Z</time>
      </trkpt>
      <trkpt lat="47.18407" lon="-1.86493">
        <ele>47</ele>
        <time>2021-05-08T11:25:12.000Z</time>
      </trkpt>
      <trkpt lat="47.18414" lon="-1.86532">
        <ele>48</ele>
        <time>2021-05-08T11:25:16.000Z</time>
      </trkpt>
      <trkpt lat="47.18418" lon="-1.86551">
        <ele>48</ele>
        <time>2021-05-08T11:25:18.000Z</time>
      </trkpt>
      <trkpt lat="47.18421" lon="-1.86572">
        <ele>47</ele>
        <time>2021-05-08T11:25:20.000Z</time>
      </trkpt>
      <trkpt lat="47.18422" lon="-1.86592">
        <ele>46</ele>
        <time>2021-05-08T11:25:22.000Z</time>
      </trkpt>
      <trkpt lat="47.18423" lon="-1.86609">
        <ele>46</ele>
        <time>2021-05-08T11:25:24.000Z</time>
      </trkpt>
      <trkpt lat="47.18424" lon="-1.86629">
        <ele>45</ele>
        <time>2021-05-08T11:25:26.000Z</time>
      </trkpt>
      <trkpt lat="47.18421" lon="-1.86656">
        <ele>46</ele>
        <time>2021-05-08T11:25:29.000Z</time>
      </trkpt>
      <trkpt lat="47.18423" lon="-1.86675">
        <ele>47</ele>
        <time>2021-05-08T11:25:32.000Z</time>
      </trkpt>
      <trkpt lat="47.18422" lon="-1.86689">
        <ele>48</ele>
        <time>2021-05-08T11:25:34.000Z</time>
      </trkpt>
      <trkpt lat="47.18422" lon="-1.86702">
        <ele>48</ele>
        <time>2021-05-08T11:25:36.000Z</time>
      </trkpt>
      <trkpt lat="47.18418" lon="-1.86716">
        <ele>49</ele>
        <time>2021-05-08T11:25:38.000Z</time>
      </trkpt>
      <trkpt lat="47.18415" lon="-1.86731">
        <ele>49</ele>
        <time>2021-05-08T11:25:40.000Z</time>
      </trkpt>
      <trkpt lat="47.18412" lon="-1.86746">
        <ele>50</ele>
        <time>2021-05-08T11:25:42.000Z</time>
      </trkpt>
      <trkpt lat="47.18409" lon="-1.8676">
        <ele>51</ele>
        <time>2021-05-08T11:25:44.000Z</time>
      </trkpt>
      <trkpt lat="47.18406" lon="-1.86782">
        <ele>52</ele>
        <time>2021-05-08T11:25:47.000Z</time>
      </trkpt>
      <trkpt lat="47.18403" lon="-1.868">
        <ele>50</ele>
        <time>2021-05-08T11:25:50.000Z</time>
      </trkpt>
      <trkpt lat="47.18399" lon="-1.86815">
        <ele>52</ele>
        <time>2021-05-08T11:25:52.000Z</time>
      </trkpt>
      <trkpt lat="47.18398" lon="-1.86842">
        <ele>52</ele>
        <time>2021-05-08T11:25:56.000Z</time>
      </trkpt>
      <trkpt lat="47.18398" lon="-1.86864">
        <ele>52</ele>
        <time>2021-05-08T11:26:00.000Z</time>
      </trkpt>
      <trkpt lat="47.184" lon="-1.86884">
        <ele>55</ele>
        <time>2021-05-08T11:26:03.000Z</time>
      </trkpt>
      <trkpt lat="47.18404" lon="-1.86909">
        <ele>57</ele>
        <time>2021-05-08T11:26:06.000Z</time>
      </trkpt>
      <trkpt lat="47.18405" lon="-1.86926">
        <ele>59</ele>
        <time>2021-05-08T11:26:08.000Z</time>
      </trkpt>
      <trkpt lat="47.18407" lon="-1.86941">
        <ele>60</ele>
        <time>2021-05-08T11:26:10.000Z</time>
      </trkpt>
      <trkpt lat="47.18408" lon="-1.86955">
        <ele>60</ele>
        <time>2021-05-08T11:26:12.000Z</time>
      </trkpt>
      <trkpt lat="47.18409" lon="-1.86968">
        <ele>60</ele>
        <time>2021-05-08T11:26:14.000Z</time>
      </trkpt>
      <trkpt lat="47.18409" lon="-1.86982">
        <ele>60</ele>
        <time>2021-05-08T11:26:16.000Z</time>
      </trkpt>
      <trkpt lat="47.1841" lon="-1.86997">
        <ele>60</ele>
        <time>2021-05-08T11:26:18.000Z</time>
      </trkpt>
      <trkpt lat="47.18411" lon="-1.87013">
        <ele>60</ele>
        <time>2021-05-08T11:26:20.000Z</time>
      </trkpt>
      <trkpt lat="47.18412" lon="-1.8703">
        <ele>60</ele>
        <time>2021-05-08T11:26:22.000Z</time>
      </trkpt>
      <trkpt lat="47.18419" lon="-1.87066">
        <ele>58</ele>
        <time>2021-05-08T11:26:25.000Z</time>
      </trkpt>
      <trkpt lat="47.18424" lon="-1.87084">
        <ele>58</ele>
        <time>2021-05-08T11:26:27.000Z</time>
      </trkpt>
      <trkpt lat="47.18429" lon="-1.87105">
        <ele>56</ele>
        <time>2021-05-08T11:26:29.000Z</time>
      </trkpt>
      <trkpt lat="47.18434" lon="-1.87125">
        <ele>51</ele>
        <time>2021-05-08T11:26:31.000Z</time>
      </trkpt>
      <trkpt lat="47.18441" lon="-1.8715">
        <ele>51</ele>
        <time>2021-05-08T11:26:33.000Z</time>
      </trkpt>
      <trkpt lat="47.18453" lon="-1.87186">
        <ele>49</ele>
        <time>2021-05-08T11:26:36.000Z</time>
      </trkpt>
      <trkpt lat="47.18457" lon="-1.87199">
        <ele>48</ele>
        <time>2021-05-08T11:26:37.000Z</time>
      </trkpt>
      <trkpt lat="47.18461" lon="-1.87211">
        <ele>48</ele>
        <time>2021-05-08T11:26:38.000Z</time>
      </trkpt>
      <trkpt lat="47.18464" lon="-1.87223">
        <ele>49</ele>
        <time>2021-05-08T11:26:39.000Z</time>
      </trkpt>
      <trkpt lat="47.18473" lon="-1.87256">
        <ele>54</ele>
        <time>2021-05-08T11:26:42.000Z</time>
      </trkpt>
      <trkpt lat="47.18474" lon="-1.87275">
        <ele>55</ele>
        <time>2021-05-08T11:26:44.000Z</time>
      </trkpt>
      <trkpt lat="47.18476" lon="-1.87292">
        <ele>55</ele>
        <time>2021-05-08T11:26:46.000Z</time>
      </trkpt>
      <trkpt lat="47.18477" lon="-1.87307">
        <ele>56</ele>
        <time>2021-05-08T11:26:48.000Z</time>
      </trkpt>
      <trkpt lat="47.18479" lon="-1.8732">
        <ele>57</ele>
        <time>2021-05-08T11:26:50.000Z</time>
      </trkpt>
      <trkpt lat="47.1848" lon="-1.87333">
        <ele>58</ele>
        <time>2021-05-08T11:26:52.000Z</time>
      </trkpt>
      <trkpt lat="47.18483" lon="-1.87352">
        <ele>59</ele>
        <time>2021-05-08T11:26:55.000Z</time>
      </trkpt>
      <trkpt lat="47.18486" lon="-1.87372">
        <ele>60</ele>
        <time>2021-05-08T11:26:58.000Z</time>
      </trkpt>
      <trkpt lat="47.18487" lon="-1.87386">
        <ele>59</ele>
        <time>2021-05-08T11:27:00.000Z</time>
      </trkpt>
      <trkpt lat="47.18489" lon="-1.874">
        <ele>57</ele>
        <time>2021-05-08T11:27:02.000Z</time>
      </trkpt>
      <trkpt lat="47.18492" lon="-1.87414">
        <ele>57</ele>
        <time>2021-05-08T11:27:04.000Z</time>
      </trkpt>
      <trkpt lat="47.18494" lon="-1.87437">
        <ele>63</ele>
        <time>2021-05-08T11:27:08.000Z</time>
      </trkpt>
      <trkpt lat="47.18487" lon="-1.87453">
        <ele>65</ele>
        <time>2021-05-08T11:27:11.000Z</time>
      </trkpt>
      <trkpt lat="47.18478" lon="-1.8746">
        <ele>66</ele>
        <time>2021-05-08T11:27:13.000Z</time>
      </trkpt>
      <trkpt lat="47.18468" lon="-1.87469">
        <ele>69</ele>
        <time>2021-05-08T11:27:16.000Z</time>
      </trkpt>
      <trkpt lat="47.18456" lon="-1.87477">
        <ele>70</ele>
        <time>2021-05-08T11:27:19.000Z</time>
      </trkpt>
      <trkpt lat="47.18445" lon="-1.87488">
        <ele>71</ele>
        <time>2021-05-08T11:27:22.000Z</time>
      </trkpt>
      <trkpt lat="47.18433" lon="-1.87497">
        <ele>72</ele>
        <time>2021-05-08T11:27:25.000Z</time>
      </trkpt>
      <trkpt lat="47.18424" lon="-1.87502">
        <ele>73</ele>
        <time>2021-05-08T11:27:27.000Z</time>
      </trkpt>
      <trkpt lat="47.18414" lon="-1.87506">
        <ele>73</ele>
        <time>2021-05-08T11:27:29.000Z</time>
      </trkpt>
      <trkpt lat="47.18405" lon="-1.87509">
        <ele>74</ele>
        <time>2021-05-08T11:27:31.000Z</time>
      </trkpt>
      <trkpt lat="47.18396" lon="-1.87512">
        <ele>74</ele>
        <time>2021-05-08T11:27:33.000Z</time>
      </trkpt>
      <trkpt lat="47.18387" lon="-1.87514">
        <ele>74</ele>
        <time>2021-05-08T11:27:35.000Z</time>
      </trkpt>
      <trkpt lat="47.18378" lon="-1.87515">
        <ele>75</ele>
        <time>2021-05-08T11:27:37.000Z</time>
      </trkpt>
      <trkpt lat="47.18368" lon="-1.87517">
        <ele>76</ele>
        <time>2021-05-08T11:27:39.000Z</time>
      </trkpt>
      <trkpt lat="47.18358" lon="-1.87519">
        <ele>76</ele>
        <time>2021-05-08T11:27:41.000Z</time>
      </trkpt>
      <trkpt lat="47.18349" lon="-1.87521">
        <ele>76</ele>
        <time>2021-05-08T11:27:43.000Z</time>
      </trkpt>
      <trkpt lat="47.18339" lon="-1.87522">
        <ele>77</ele>
        <time>2021-05-08T11:27:45.000Z</time>
      </trkpt>
      <trkpt lat="47.18329" lon="-1.87525">
        <ele>77</ele>
        <time>2021-05-08T11:27:47.000Z</time>
      </trkpt>
      <trkpt lat="47.18319" lon="-1.87527">
        <ele>77</ele>
        <time>2021-05-08T11:27:49.000Z</time>
      </trkpt>
      <trkpt lat="47.18308" lon="-1.87529">
        <ele>77</ele>
        <time>2021-05-08T11:27:51.000Z</time>
      </trkpt>
      <trkpt lat="47.18297" lon="-1.87532">
        <ele>77</ele>
        <time>2021-05-08T11:27:53.000Z</time>
      </trkpt>
      <trkpt lat="47.18285" lon="-1.87536">
        <ele>77</ele>
        <time>2021-05-08T11:27:55.000Z</time>
      </trkpt>
      <trkpt lat="47.18273" lon="-1.87541">
        <ele>77</ele>
        <time>2021-05-08T11:27:57.000Z</time>
      </trkpt>
      <trkpt lat="47.18262" lon="-1.87548">
        <ele>77</ele>
        <time>2021-05-08T11:27:59.000Z</time>
      </trkpt>
      <trkpt lat="47.18251" lon="-1.87557">
        <ele>77</ele>
        <time>2021-05-08T11:28:01.000Z</time>
      </trkpt>
      <trkpt lat="47.1824" lon="-1.87567">
        <ele>78</ele>
        <time>2021-05-08T11:28:03.000Z</time>
      </trkpt>
      <trkpt lat="47.1823" lon="-1.87576">
        <ele>77</ele>
        <time>2021-05-08T11:28:05.000Z</time>
      </trkpt>
      <trkpt lat="47.18219" lon="-1.87585">
        <ele>77</ele>
        <time>2021-05-08T11:28:07.000Z</time>
      </trkpt>
      <trkpt lat="47.18208" lon="-1.87594">
        <ele>76</ele>
        <time>2021-05-08T11:28:09.000Z</time>
      </trkpt>
      <trkpt lat="47.18198" lon="-1.87604">
        <ele>76</ele>
        <time>2021-05-08T11:28:11.000Z</time>
      </trkpt>
      <trkpt lat="47.18188" lon="-1.87614">
        <ele>76</ele>
        <time>2021-05-08T11:28:13.000Z</time>
      </trkpt>
      <trkpt lat="47.18178" lon="-1.87622">
        <ele>75</ele>
        <time>2021-05-08T11:28:15.000Z</time>
      </trkpt>
      <trkpt lat="47.18168" lon="-1.8763">
        <ele>75</ele>
        <time>2021-05-08T11:28:17.000Z</time>
      </trkpt>
      <trkpt lat="47.18158" lon="-1.87637">
        <ele>75</ele>
        <time>2021-05-08T11:28:19.000Z</time>
      </trkpt>
      <trkpt lat="47.18148" lon="-1.87644">
        <ele>75</ele>
        <time>2021-05-08T11:28:21.000Z</time>
      </trkpt>
      <trkpt lat="47.18137" lon="-1.8765">
        <ele>76</ele>
        <time>2021-05-08T11:28:23.000Z</time>
      </trkpt>
      <trkpt lat="47.18127" lon="-1.87657">
        <ele>77</ele>
        <time>2021-05-08T11:28:25.000Z</time>
      </trkpt>
      <trkpt lat="47.18116" lon="-1.87663">
        <ele>77</ele>
        <time>2021-05-08T11:28:27.000Z</time>
      </trkpt>
      <trkpt lat="47.18105" lon="-1.8767">
        <ele>77</ele>
        <time>2021-05-08T11:28:29.000Z</time>
      </trkpt>
      <trkpt lat="47.18094" lon="-1.87676">
        <ele>78</ele>
        <time>2021-05-08T11:28:31.000Z</time>
      </trkpt>
      <trkpt lat="47.18084" lon="-1.87684">
        <ele>78</ele>
        <time>2021-05-08T11:28:33.000Z</time>
      </trkpt>
      <trkpt lat="47.18074" lon="-1.87691">
        <ele>78</ele>
        <time>2021-05-08T11:28:35.000Z</time>
      </trkpt>
      <trkpt lat="47.18064" lon="-1.877">
        <ele>78</ele>
        <time>2021-05-08T11:28:37.000Z</time>
      </trkpt>
      <trkpt lat="47.18054" lon="-1.87709">
        <ele>78</ele>
        <time>2021-05-08T11:28:39.000Z</time>
      </trkpt>
      <trkpt lat="47.18045" lon="-1.87719">
        <ele>79</ele>
        <time>2021-05-08T11:28:41.000Z</time>
      </trkpt>
      <trkpt lat="47.18036" lon="-1.87728">
        <ele>79</ele>
        <time>2021-05-08T11:28:43.000Z</time>
      </trkpt>
      <trkpt lat="47.18028" lon="-1.87738">
        <ele>79</ele>
        <time>2021-05-08T11:28:45.000Z</time>
      </trkpt>
      <trkpt lat="47.18019" lon="-1.87744">
        <ele>79</ele>
        <time>2021-05-08T11:28:47.000Z</time>
      </trkpt>
      <trkpt lat="47.1801" lon="-1.87751">
        <ele>80</ele>
        <time>2021-05-08T11:28:49.000Z</time>
      </trkpt>
      <trkpt lat="47.18001" lon="-1.87756">
        <ele>81</ele>
        <time>2021-05-08T11:28:51.000Z</time>
      </trkpt>
      <trkpt lat="47.17992" lon="-1.87761">
        <ele>81</ele>
        <time>2021-05-08T11:28:53.000Z</time>
      </trkpt>
      <trkpt lat="47.17983" lon="-1.87766">
        <ele>82</ele>
        <time>2021-05-08T11:28:55.000Z</time>
      </trkpt>
      <trkpt lat="47.17974" lon="-1.87771">
        <ele>83</ele>
        <time>2021-05-08T11:28:57.000Z</time>
      </trkpt>
      <trkpt lat="47.17965" lon="-1.87776">
        <ele>83</ele>
        <time>2021-05-08T11:28:59.000Z</time>
      </trkpt>
      <trkpt lat="47.17956" lon="-1.87781">
        <ele>84</ele>
        <time>2021-05-08T11:29:01.000Z</time>
      </trkpt>
      <trkpt lat="47.17946" lon="-1.87786">
        <ele>84</ele>
        <time>2021-05-08T11:29:03.000Z</time>
      </trkpt>
      <trkpt lat="47.17937" lon="-1.87791">
        <ele>84</ele>
        <time>2021-05-08T11:29:05.000Z</time>
      </trkpt>
      <trkpt lat="47.17928" lon="-1.87797">
        <ele>85</ele>
        <time>2021-05-08T11:29:07.000Z</time>
      </trkpt>
      <trkpt lat="47.17913" lon="-1.87805">
        <ele>86</ele>
        <time>2021-05-08T11:29:10.000Z</time>
      </trkpt>
      <trkpt lat="47.17904" lon="-1.8781">
        <ele>87</ele>
        <time>2021-05-08T11:29:12.000Z</time>
      </trkpt>
      <trkpt lat="47.17895" lon="-1.87815">
        <ele>88</ele>
        <time>2021-05-08T11:29:14.000Z</time>
      </trkpt>
      <trkpt lat="47.17885" lon="-1.8782">
        <ele>88</ele>
        <time>2021-05-08T11:29:16.000Z</time>
      </trkpt>
      <trkpt lat="47.17876" lon="-1.87826">
        <ele>89</ele>
        <time>2021-05-08T11:29:18.000Z</time>
      </trkpt>
      <trkpt lat="47.17867" lon="-1.87831">
        <ele>90</ele>
        <time>2021-05-08T11:29:20.000Z</time>
      </trkpt>
      <trkpt lat="47.17857" lon="-1.87836">
        <ele>91</ele>
        <time>2021-05-08T11:29:22.000Z</time>
      </trkpt>
      <trkpt lat="47.17848" lon="-1.87841">
        <ele>90</ele>
        <time>2021-05-08T11:29:24.000Z</time>
      </trkpt>
      <trkpt lat="47.17839" lon="-1.87847">
        <ele>90</ele>
        <time>2021-05-08T11:29:26.000Z</time>
      </trkpt>
      <trkpt lat="47.17829" lon="-1.8785">
        <ele>91</ele>
        <time>2021-05-08T11:29:28.000Z</time>
      </trkpt>
      <trkpt lat="47.17815" lon="-1.87858">
        <ele>92</ele>
        <time>2021-05-08T11:29:31.000Z</time>
      </trkpt>
      <trkpt lat="47.17805" lon="-1.87863">
        <ele>93</ele>
        <time>2021-05-08T11:29:33.000Z</time>
      </trkpt>
      <trkpt lat="47.17796" lon="-1.87867">
        <ele>93</ele>
        <time>2021-05-08T11:29:35.000Z</time>
      </trkpt>
      <trkpt lat="47.17781" lon="-1.87874">
        <ele>94</ele>
        <time>2021-05-08T11:29:38.000Z</time>
      </trkpt>
      <trkpt lat="47.17772" lon="-1.8788">
        <ele>95</ele>
        <time>2021-05-08T11:29:40.000Z</time>
      </trkpt>
      <trkpt lat="47.17761" lon="-1.87886">
        <ele>95</ele>
        <time>2021-05-08T11:29:42.000Z</time>
      </trkpt>
      <trkpt lat="47.17751" lon="-1.87891">
        <ele>95</ele>
        <time>2021-05-08T11:29:44.000Z</time>
      </trkpt>
      <trkpt lat="47.17741" lon="-1.87898">
        <ele>95</ele>
        <time>2021-05-08T11:29:46.000Z</time>
      </trkpt>
      <trkpt lat="47.17731" lon="-1.87904">
        <ele>96</ele>
        <time>2021-05-08T11:29:48.000Z</time>
      </trkpt>
      <trkpt lat="47.17721" lon="-1.87909">
        <ele>95</ele>
        <time>2021-05-08T11:29:50.000Z</time>
      </trkpt>
      <trkpt lat="47.17711" lon="-1.87916">
        <ele>95</ele>
        <time>2021-05-08T11:29:52.000Z</time>
      </trkpt>
      <trkpt lat="47.17701" lon="-1.87922">
        <ele>95</ele>
        <time>2021-05-08T11:29:54.000Z</time>
      </trkpt>
      <trkpt lat="47.17691" lon="-1.87924">
        <ele>95</ele>
        <time>2021-05-08T11:29:56.000Z</time>
      </trkpt>
      <trkpt lat="47.1768" lon="-1.87925">
        <ele>96</ele>
        <time>2021-05-08T11:29:58.000Z</time>
      </trkpt>
      <trkpt lat="47.17669" lon="-1.87927">
        <ele>97</ele>
        <time>2021-05-08T11:30:00.000Z</time>
      </trkpt>
      <trkpt lat="47.17659" lon="-1.8793">
        <ele>97</ele>
        <time>2021-05-08T11:30:02.000Z</time>
      </trkpt>
      <trkpt lat="47.17648" lon="-1.87933">
        <ele>97</ele>
        <time>2021-05-08T11:30:04.000Z</time>
      </trkpt>
      <trkpt lat="47.17639" lon="-1.87937">
        <ele>98</ele>
        <time>2021-05-08T11:30:06.000Z</time>
      </trkpt>
      <trkpt lat="47.17629" lon="-1.87941">
        <ele>98</ele>
        <time>2021-05-08T11:30:08.000Z</time>
      </trkpt>
      <trkpt lat="47.17616" lon="-1.87948">
        <ele>99</ele>
        <time>2021-05-08T11:30:11.000Z</time>
      </trkpt>
      <trkpt lat="47.17607" lon="-1.87953">
        <ele>100</ele>
        <time>2021-05-08T11:30:13.000Z</time>
      </trkpt>
      <trkpt lat="47.17598" lon="-1.87958">
        <ele>100</ele>
        <time>2021-05-08T11:30:15.000Z</time>
      </trkpt>
      <trkpt lat="47.17589" lon="-1.87964">
        <ele>100</ele>
        <time>2021-05-08T11:30:17.000Z</time>
      </trkpt>
      <trkpt lat="47.1758" lon="-1.87969">
        <ele>101</ele>
        <time>2021-05-08T11:30:19.000Z</time>
      </trkpt>
      <trkpt lat="47.17571" lon="-1.87974">
        <ele>101</ele>
        <time>2021-05-08T11:30:21.000Z</time>
      </trkpt>
      <trkpt lat="47.17558" lon="-1.87984">
        <ele>100</ele>
        <time>2021-05-08T11:30:24.000Z</time>
      </trkpt>
      <trkpt lat="47.17547" lon="-1.87989">
        <ele>100</ele>
        <time>2021-05-08T11:30:27.000Z</time>
      </trkpt>
      <trkpt lat="47.17536" lon="-1.87996">
        <ele>100</ele>
        <time>2021-05-08T11:30:30.000Z</time>
      </trkpt>
      <trkpt lat="47.17524" lon="-1.88003">
        <ele>102</ele>
        <time>2021-05-08T11:30:33.000Z</time>
      </trkpt>
      <trkpt lat="47.17513" lon="-1.8801">
        <ele>102</ele>
        <time>2021-05-08T11:30:36.000Z</time>
      </trkpt>
      <trkpt lat="47.17502" lon="-1.88018">
        <ele>103</ele>
        <time>2021-05-08T11:30:39.000Z</time>
      </trkpt>
      <trkpt lat="47.17489" lon="-1.88025">
        <ele>103</ele>
        <time>2021-05-08T11:30:42.000Z</time>
      </trkpt>
      <trkpt lat="47.17477" lon="-1.88033">
        <ele>103</ele>
        <time>2021-05-08T11:30:45.000Z</time>
      </trkpt>
      <trkpt lat="47.17468" lon="-1.88038">
        <ele>103</ele>
        <time>2021-05-08T11:30:47.000Z</time>
      </trkpt>
      <trkpt lat="47.1746" lon="-1.88044">
        <ele>104</ele>
        <time>2021-05-08T11:30:49.000Z</time>
      </trkpt>
      <trkpt lat="47.17451" lon="-1.88049">
        <ele>104</ele>
        <time>2021-05-08T11:30:51.000Z</time>
      </trkpt>
      <trkpt lat="47.17439" lon="-1.88057">
        <ele>104</ele>
        <time>2021-05-08T11:30:54.000Z</time>
      </trkpt>
      <trkpt lat="47.17427" lon="-1.88063">
        <ele>105</ele>
        <time>2021-05-08T11:30:57.000Z</time>
      </trkpt>
      <trkpt lat="47.17414" lon="-1.88066">
        <ele>105</ele>
        <time>2021-05-08T11:31:00.000Z</time>
      </trkpt>
      <trkpt lat="47.17405" lon="-1.8807">
        <ele>105</ele>
        <time>2021-05-08T11:31:02.000Z</time>
      </trkpt>
      <trkpt lat="47.17397" lon="-1.88075">
        <ele>105</ele>
        <time>2021-05-08T11:31:04.000Z</time>
      </trkpt>
      <trkpt lat="47.17385" lon="-1.88083">
        <ele>106</ele>
        <time>2021-05-08T11:31:07.000Z</time>
      </trkpt>
      <trkpt lat="47.17377" lon="-1.88088">
        <ele>106</ele>
        <time>2021-05-08T11:31:09.000Z</time>
      </trkpt>
      <trkpt lat="47.17369" lon="-1.88094">
        <ele>106</ele>
        <time>2021-05-08T11:31:11.000Z</time>
      </trkpt>
      <trkpt lat="47.1736" lon="-1.881">
        <ele>106</ele>
        <time>2021-05-08T11:31:13.000Z</time>
      </trkpt>
      <trkpt lat="47.17352" lon="-1.88108">
        <ele>106</ele>
        <time>2021-05-08T11:31:15.000Z</time>
      </trkpt>
      <trkpt lat="47.17346" lon="-1.8812">
        <ele>106</ele>
        <time>2021-05-08T11:31:17.000Z</time>
      </trkpt>
      <trkpt lat="47.17342" lon="-1.88134">
        <ele>105</ele>
        <time>2021-05-08T11:31:19.000Z</time>
      </trkpt>
      <trkpt lat="47.17343" lon="-1.8815">
        <ele>104</ele>
        <time>2021-05-08T11:31:21.000Z</time>
      </trkpt>
      <trkpt lat="47.17346" lon="-1.88167">
        <ele>103</ele>
        <time>2021-05-08T11:31:23.000Z</time>
      </trkpt>
      <trkpt lat="47.17352" lon="-1.88184">
        <ele>102</ele>
        <time>2021-05-08T11:31:25.000Z</time>
      </trkpt>
      <trkpt lat="47.17357" lon="-1.88202">
        <ele>102</ele>
        <time>2021-05-08T11:31:27.000Z</time>
      </trkpt>
      <trkpt lat="47.17362" lon="-1.8822">
        <ele>101</ele>
        <time>2021-05-08T11:31:29.000Z</time>
      </trkpt>
      <trkpt lat="47.17365" lon="-1.88239">
        <ele>101</ele>
        <time>2021-05-08T11:31:31.000Z</time>
      </trkpt>
      <trkpt lat="47.17366" lon="-1.88259">
        <ele>100</ele>
        <time>2021-05-08T11:31:33.000Z</time>
      </trkpt>
      <trkpt lat="47.17368" lon="-1.88278">
        <ele>100</ele>
        <time>2021-05-08T11:31:35.000Z</time>
      </trkpt>
      <trkpt lat="47.17369" lon="-1.88296">
        <ele>100</ele>
        <time>2021-05-08T11:31:37.000Z</time>
      </trkpt>
      <trkpt lat="47.17369" lon="-1.88315">
        <ele>99</ele>
        <time>2021-05-08T11:31:39.000Z</time>
      </trkpt>
      <trkpt lat="47.17371" lon="-1.88334">
        <ele>99</ele>
        <time>2021-05-08T11:31:41.000Z</time>
      </trkpt>
      <trkpt lat="47.17372" lon="-1.88352">
        <ele>99</ele>
        <time>2021-05-08T11:31:43.000Z</time>
      </trkpt>
      <trkpt lat="47.17373" lon="-1.88371">
        <ele>99</ele>
        <time>2021-05-08T11:31:45.000Z</time>
      </trkpt>
      <trkpt lat="47.17374" lon="-1.8839">
        <ele>99</ele>
        <time>2021-05-08T11:31:47.000Z</time>
      </trkpt>
      <trkpt lat="47.17375" lon="-1.88407">
        <ele>99</ele>
        <time>2021-05-08T11:31:49.000Z</time>
      </trkpt>
      <trkpt lat="47.17376" lon="-1.88424">
        <ele>98</ele>
        <time>2021-05-08T11:31:51.000Z</time>
      </trkpt>
      <trkpt lat="47.17377" lon="-1.8844">
        <ele>98</ele>
        <time>2021-05-08T11:31:53.000Z</time>
      </trkpt>
      <trkpt lat="47.17377" lon="-1.88457">
        <ele>98</ele>
        <time>2021-05-08T11:31:55.000Z</time>
      </trkpt>
      <trkpt lat="47.17378" lon="-1.88474">
        <ele>98</ele>
        <time>2021-05-08T11:31:57.000Z</time>
      </trkpt>
      <trkpt lat="47.17379" lon="-1.88491">
        <ele>98</ele>
        <time>2021-05-08T11:31:59.000Z</time>
      </trkpt>
      <trkpt lat="47.1738" lon="-1.88508">
        <ele>98</ele>
        <time>2021-05-08T11:32:01.000Z</time>
      </trkpt>
      <trkpt lat="47.17382" lon="-1.88526">
        <ele>98</ele>
        <time>2021-05-08T11:32:03.000Z</time>
      </trkpt>
      <trkpt lat="47.17382" lon="-1.88544">
        <ele>98</ele>
        <time>2021-05-08T11:32:05.000Z</time>
      </trkpt>
      <trkpt lat="47.17383" lon="-1.88561">
        <ele>98</ele>
        <time>2021-05-08T11:32:07.000Z</time>
      </trkpt>
      <trkpt lat="47.17384" lon="-1.88578">
        <ele>98</ele>
        <time>2021-05-08T11:32:09.000Z</time>
      </trkpt>
      <trkpt lat="47.17385" lon="-1.88596">
        <ele>98</ele>
        <time>2021-05-08T11:32:11.000Z</time>
      </trkpt>
      <trkpt lat="47.17386" lon="-1.88614">
        <ele>98</ele>
        <time>2021-05-08T11:32:13.000Z</time>
      </trkpt>
      <trkpt lat="47.17387" lon="-1.88631">
        <ele>98</ele>
        <time>2021-05-08T11:32:15.000Z</time>
      </trkpt>
      <trkpt lat="47.17388" lon="-1.88649">
        <ele>99</ele>
        <time>2021-05-08T11:32:17.000Z</time>
      </trkpt>
      <trkpt lat="47.1739" lon="-1.88667">
        <ele>99</ele>
        <time>2021-05-08T11:32:19.000Z</time>
      </trkpt>
      <trkpt lat="47.17391" lon="-1.88685">
        <ele>99</ele>
        <time>2021-05-08T11:32:21.000Z</time>
      </trkpt>
      <trkpt lat="47.17391" lon="-1.88702">
        <ele>99</ele>
        <time>2021-05-08T11:32:23.000Z</time>
      </trkpt>
      <trkpt lat="47.17392" lon="-1.8872">
        <ele>99</ele>
        <time>2021-05-08T11:32:25.000Z</time>
      </trkpt>
      <trkpt lat="47.17393" lon="-1.88738">
        <ele>99</ele>
        <time>2021-05-08T11:32:27.000Z</time>
      </trkpt>
      <trkpt lat="47.17394" lon="-1.88755">
        <ele>99</ele>
        <time>2021-05-08T11:32:29.000Z</time>
      </trkpt>
      <trkpt lat="47.17395" lon="-1.88782">
        <ele>98</ele>
        <time>2021-05-08T11:32:32.000Z</time>
      </trkpt>
      <trkpt lat="47.17397" lon="-1.88801">
        <ele>98</ele>
        <time>2021-05-08T11:32:34.000Z</time>
      </trkpt>
      <trkpt lat="47.174" lon="-1.88819">
        <ele>99</ele>
        <time>2021-05-08T11:32:36.000Z</time>
      </trkpt>
      <trkpt lat="47.17403" lon="-1.88836">
        <ele>99</ele>
        <time>2021-05-08T11:32:38.000Z</time>
      </trkpt>
      <trkpt lat="47.17407" lon="-1.88853">
        <ele>99</ele>
        <time>2021-05-08T11:32:40.000Z</time>
      </trkpt>
      <trkpt lat="47.17411" lon="-1.88871">
        <ele>99</ele>
        <time>2021-05-08T11:32:42.000Z</time>
      </trkpt>
      <trkpt lat="47.17415" lon="-1.88889">
        <ele>98</ele>
        <time>2021-05-08T11:32:44.000Z</time>
      </trkpt>
      <trkpt lat="47.17419" lon="-1.88906">
        <ele>99</ele>
        <time>2021-05-08T11:32:46.000Z</time>
      </trkpt>
      <trkpt lat="47.17423" lon="-1.88923">
        <ele>99</ele>
        <time>2021-05-08T11:32:48.000Z</time>
      </trkpt>
      <trkpt lat="47.17427" lon="-1.8894">
        <ele>99</ele>
        <time>2021-05-08T11:32:50.000Z</time>
      </trkpt>
      <trkpt lat="47.17432" lon="-1.88966">
        <ele>99</ele>
        <time>2021-05-08T11:32:53.000Z</time>
      </trkpt>
      <trkpt lat="47.17436" lon="-1.88984">
        <ele>98</ele>
        <time>2021-05-08T11:32:55.000Z</time>
      </trkpt>
      <trkpt lat="47.17443" lon="-1.89012">
        <ele>97</ele>
        <time>2021-05-08T11:32:58.000Z</time>
      </trkpt>
      <trkpt lat="47.17446" lon="-1.89029">
        <ele>97</ele>
        <time>2021-05-08T11:33:00.000Z</time>
      </trkpt>
      <trkpt lat="47.1745" lon="-1.89054">
        <ele>98</ele>
        <time>2021-05-08T11:33:03.000Z</time>
      </trkpt>
      <trkpt lat="47.17455" lon="-1.8907">
        <ele>97</ele>
        <time>2021-05-08T11:33:05.000Z</time>
      </trkpt>
      <trkpt lat="47.17458" lon="-1.89088">
        <ele>96</ele>
        <time>2021-05-08T11:33:07.000Z</time>
      </trkpt>
      <trkpt lat="47.17462" lon="-1.89103">
        <ele>96</ele>
        <time>2021-05-08T11:33:09.000Z</time>
      </trkpt>
      <trkpt lat="47.17469" lon="-1.89129">
        <ele>97</ele>
        <time>2021-05-08T11:33:12.000Z</time>
      </trkpt>
      <trkpt lat="47.17472" lon="-1.89147">
        <ele>98</ele>
        <time>2021-05-08T11:33:14.000Z</time>
      </trkpt>
      <trkpt lat="47.17475" lon="-1.89164">
        <ele>98</ele>
        <time>2021-05-08T11:33:16.000Z</time>
      </trkpt>
      <trkpt lat="47.17478" lon="-1.89181">
        <ele>98</ele>
        <time>2021-05-08T11:33:18.000Z</time>
      </trkpt>
      <trkpt lat="47.17473" lon="-1.89207">
        <ele>88</ele>
        <time>2021-05-08T11:33:22.000Z</time>
      </trkpt>
      <trkpt lat="47.1748" lon="-1.89221">
        <ele>98</ele>
        <time>2021-05-08T11:33:23.000Z</time>
      </trkpt>
      <trkpt lat="47.17479" lon="-1.89238">
        <ele>102</ele>
        <time>2021-05-08T11:33:25.000Z</time>
      </trkpt>
      <trkpt lat="47.1748" lon="-1.89255">
        <ele>103</ele>
        <time>2021-05-08T11:33:27.000Z</time>
      </trkpt>
      <trkpt lat="47.17478" lon="-1.89272">
        <ele>101</ele>
        <time>2021-05-08T11:33:29.000Z</time>
      </trkpt>
      <trkpt lat="47.17476" lon="-1.8929">
        <ele>101</ele>
        <time>2021-05-08T11:33:31.000Z</time>
      </trkpt>
      <trkpt lat="47.17474" lon="-1.89308">
        <ele>101</ele>
        <time>2021-05-08T11:33:33.000Z</time>
      </trkpt>
      <trkpt lat="47.17473" lon="-1.89335">
        <ele>102</ele>
        <time>2021-05-08T11:33:36.000Z</time>
      </trkpt>
      <trkpt lat="47.17473" lon="-1.89353">
        <ele>102</ele>
        <time>2021-05-08T11:33:38.000Z</time>
      </trkpt>
      <trkpt lat="47.17474" lon="-1.89371">
        <ele>95</ele>
        <time>2021-05-08T11:33:40.000Z</time>
      </trkpt>
      <trkpt lat="47.17475" lon="-1.89388">
        <ele>96</ele>
        <time>2021-05-08T11:33:42.000Z</time>
      </trkpt>
      <trkpt lat="47.17476" lon="-1.89404">
        <ele>97</ele>
        <time>2021-05-08T11:33:44.000Z</time>
      </trkpt>
      <trkpt lat="47.17478" lon="-1.89421">
        <ele>97</ele>
        <time>2021-05-08T11:33:46.000Z</time>
      </trkpt>
      <trkpt lat="47.17482" lon="-1.89446">
        <ele>96</ele>
        <time>2021-05-08T11:33:49.000Z</time>
      </trkpt>
      <trkpt lat="47.17483" lon="-1.89465">
        <ele>95</ele>
        <time>2021-05-08T11:33:51.000Z</time>
      </trkpt>
      <trkpt lat="47.17486" lon="-1.89492">
        <ele>95</ele>
        <time>2021-05-08T11:33:54.000Z</time>
      </trkpt>
      <trkpt lat="47.17488" lon="-1.8952">
        <ele>96</ele>
        <time>2021-05-08T11:33:57.000Z</time>
      </trkpt>
      <trkpt lat="47.17488" lon="-1.89546">
        <ele>97</ele>
        <time>2021-05-08T11:34:00.000Z</time>
      </trkpt>
      <trkpt lat="47.17488" lon="-1.89564">
        <ele>97</ele>
        <time>2021-05-08T11:34:02.000Z</time>
      </trkpt>
      <trkpt lat="47.17488" lon="-1.89581">
        <ele>98</ele>
        <time>2021-05-08T11:34:04.000Z</time>
      </trkpt>
      <trkpt lat="47.17486" lon="-1.89599">
        <ele>98</ele>
        <time>2021-05-08T11:34:06.000Z</time>
      </trkpt>
      <trkpt lat="47.17484" lon="-1.89615">
        <ele>99</ele>
        <time>2021-05-08T11:34:08.000Z</time>
      </trkpt>
      <trkpt lat="47.17481" lon="-1.89631">
        <ele>100</ele>
        <time>2021-05-08T11:34:10.000Z</time>
      </trkpt>
      <trkpt lat="47.17478" lon="-1.89647">
        <ele>100</ele>
        <time>2021-05-08T11:34:12.000Z</time>
      </trkpt>
      <trkpt lat="47.17475" lon="-1.89663">
        <ele>101</ele>
        <time>2021-05-08T11:34:14.000Z</time>
      </trkpt>
      <trkpt lat="47.17471" lon="-1.89679">
        <ele>101</ele>
        <time>2021-05-08T11:34:16.000Z</time>
      </trkpt>
      <trkpt lat="47.17467" lon="-1.89695">
        <ele>101</ele>
        <time>2021-05-08T11:34:18.000Z</time>
      </trkpt>
      <trkpt lat="47.17464" lon="-1.89711">
        <ele>101</ele>
        <time>2021-05-08T11:34:20.000Z</time>
      </trkpt>
      <trkpt lat="47.17461" lon="-1.89726">
        <ele>101</ele>
        <time>2021-05-08T11:34:22.000Z</time>
      </trkpt>
      <trkpt lat="47.17457" lon="-1.89743">
        <ele>101</ele>
        <time>2021-05-08T11:34:24.000Z</time>
      </trkpt>
      <trkpt lat="47.17453" lon="-1.8976">
        <ele>101</ele>
        <time>2021-05-08T11:34:26.000Z</time>
      </trkpt>
      <trkpt lat="47.1745" lon="-1.89776">
        <ele>101</ele>
        <time>2021-05-08T11:34:28.000Z</time>
      </trkpt>
      <trkpt lat="47.17446" lon="-1.89793">
        <ele>101</ele>
        <time>2021-05-08T11:34:30.000Z</time>
      </trkpt>
      <trkpt lat="47.17442" lon="-1.8981">
        <ele>101</ele>
        <time>2021-05-08T11:34:32.000Z</time>
      </trkpt>
      <trkpt lat="47.17438" lon="-1.89827">
        <ele>102</ele>
        <time>2021-05-08T11:34:34.000Z</time>
      </trkpt>
      <trkpt lat="47.17435" lon="-1.89844">
        <ele>102</ele>
        <time>2021-05-08T11:34:36.000Z</time>
      </trkpt>
      <trkpt lat="47.17431" lon="-1.89861">
        <ele>102</ele>
        <time>2021-05-08T11:34:38.000Z</time>
      </trkpt>
      <trkpt lat="47.17428" lon="-1.89878">
        <ele>102</ele>
        <time>2021-05-08T11:34:40.000Z</time>
      </trkpt>
      <trkpt lat="47.17424" lon="-1.89895">
        <ele>102</ele>
        <time>2021-05-08T11:34:42.000Z</time>
      </trkpt>
      <trkpt lat="47.1742" lon="-1.89911">
        <ele>102</ele>
        <time>2021-05-08T11:34:44.000Z</time>
      </trkpt>
      <trkpt lat="47.17417" lon="-1.89928">
        <ele>102</ele>
        <time>2021-05-08T11:34:46.000Z</time>
      </trkpt>
      <trkpt lat="47.17413" lon="-1.89944">
        <ele>102</ele>
        <time>2021-05-08T11:34:48.000Z</time>
      </trkpt>
      <trkpt lat="47.1741" lon="-1.89957">
        <ele>102</ele>
        <time>2021-05-08T11:34:50.000Z</time>
      </trkpt>
      <trkpt lat="47.17407" lon="-1.89969">
        <ele>103</ele>
        <time>2021-05-08T11:34:52.000Z</time>
      </trkpt>
      <trkpt lat="47.17403" lon="-1.89984">
        <ele>103</ele>
        <time>2021-05-08T11:34:54.000Z</time>
      </trkpt>
      <trkpt lat="47.17398" lon="-1.90002">
        <ele>103</ele>
        <time>2021-05-08T11:34:56.000Z</time>
      </trkpt>
      <trkpt lat="47.17393" lon="-1.90019">
        <ele>103</ele>
        <time>2021-05-08T11:34:58.000Z</time>
      </trkpt>
      <trkpt lat="47.17389" lon="-1.90036">
        <ele>103</ele>
        <time>2021-05-08T11:35:00.000Z</time>
      </trkpt>
      <trkpt lat="47.17384" lon="-1.90053">
        <ele>104</ele>
        <time>2021-05-08T11:35:02.000Z</time>
      </trkpt>
      <trkpt lat="47.17379" lon="-1.90071">
        <ele>104</ele>
        <time>2021-05-08T11:35:04.000Z</time>
      </trkpt>
      <trkpt lat="47.17375" lon="-1.90089">
        <ele>103</ele>
        <time>2021-05-08T11:35:06.000Z</time>
      </trkpt>
      <trkpt lat="47.1737" lon="-1.90106">
        <ele>103</ele>
        <time>2021-05-08T11:35:08.000Z</time>
      </trkpt>
      <trkpt lat="47.17365" lon="-1.90123">
        <ele>104</ele>
        <time>2021-05-08T11:35:10.000Z</time>
      </trkpt>
      <trkpt lat="47.1736" lon="-1.9014">
        <ele>103</ele>
        <time>2021-05-08T11:35:12.000Z</time>
      </trkpt>
      <trkpt lat="47.17355" lon="-1.90158">
        <ele>103</ele>
        <time>2021-05-08T11:35:14.000Z</time>
      </trkpt>
      <trkpt lat="47.1735" lon="-1.90175">
        <ele>103</ele>
        <time>2021-05-08T11:35:16.000Z</time>
      </trkpt>
      <trkpt lat="47.17346" lon="-1.90192">
        <ele>103</ele>
        <time>2021-05-08T11:35:18.000Z</time>
      </trkpt>
      <trkpt lat="47.17341" lon="-1.9021">
        <ele>103</ele>
        <time>2021-05-08T11:35:20.000Z</time>
      </trkpt>
      <trkpt lat="47.17337" lon="-1.90226">
        <ele>104</ele>
        <time>2021-05-08T11:35:22.000Z</time>
      </trkpt>
      <trkpt lat="47.17332" lon="-1.90244">
        <ele>104</ele>
        <time>2021-05-08T11:35:24.000Z</time>
      </trkpt>
      <trkpt lat="47.17327" lon="-1.90261">
        <ele>104</ele>
        <time>2021-05-08T11:35:26.000Z</time>
      </trkpt>
      <trkpt lat="47.17322" lon="-1.90279">
        <ele>104</ele>
        <time>2021-05-08T11:35:28.000Z</time>
      </trkpt>
      <trkpt lat="47.17316" lon="-1.90297">
        <ele>104</ele>
        <time>2021-05-08T11:35:30.000Z</time>
      </trkpt>
      <trkpt lat="47.17312" lon="-1.90314">
        <ele>104</ele>
        <time>2021-05-08T11:35:32.000Z</time>
      </trkpt>
      <trkpt lat="47.17307" lon="-1.90331">
        <ele>104</ele>
        <time>2021-05-08T11:35:34.000Z</time>
      </trkpt>
      <trkpt lat="47.17303" lon="-1.90348">
        <ele>104</ele>
        <time>2021-05-08T11:35:36.000Z</time>
      </trkpt>
      <trkpt lat="47.17299" lon="-1.90366">
        <ele>104</ele>
        <time>2021-05-08T11:35:38.000Z</time>
      </trkpt>
      <trkpt lat="47.17295" lon="-1.90384">
        <ele>105</ele>
        <time>2021-05-08T11:35:40.000Z</time>
      </trkpt>
      <trkpt lat="47.17291" lon="-1.90403">
        <ele>105</ele>
        <time>2021-05-08T11:35:42.000Z</time>
      </trkpt>
      <trkpt lat="47.17288" lon="-1.90422">
        <ele>105</ele>
        <time>2021-05-08T11:35:44.000Z</time>
      </trkpt>
      <trkpt lat="47.17286" lon="-1.90441">
        <ele>105</ele>
        <time>2021-05-08T11:35:46.000Z</time>
      </trkpt>
      <trkpt lat="47.17285" lon="-1.90459">
        <ele>105</ele>
        <time>2021-05-08T11:35:48.000Z</time>
      </trkpt>
      <trkpt lat="47.17283" lon="-1.90478">
        <ele>104</ele>
        <time>2021-05-08T11:35:50.000Z</time>
      </trkpt>
      <trkpt lat="47.17282" lon="-1.90496">
        <ele>104</ele>
        <time>2021-05-08T11:35:52.000Z</time>
      </trkpt>
      <trkpt lat="47.17281" lon="-1.90515">
        <ele>105</ele>
        <time>2021-05-08T11:35:54.000Z</time>
      </trkpt>
      <trkpt lat="47.17279" lon="-1.90534">
        <ele>105</ele>
        <time>2021-05-08T11:35:56.000Z</time>
      </trkpt>
      <trkpt lat="47.17278" lon="-1.90554">
        <ele>104</ele>
        <time>2021-05-08T11:35:58.000Z</time>
      </trkpt>
      <trkpt lat="47.17277" lon="-1.90573">
        <ele>104</ele>
        <time>2021-05-08T11:36:00.000Z</time>
      </trkpt>
      <trkpt lat="47.17276" lon="-1.90592">
        <ele>104</ele>
        <time>2021-05-08T11:36:02.000Z</time>
      </trkpt>
      <trkpt lat="47.17275" lon="-1.9061">
        <ele>104</ele>
        <time>2021-05-08T11:36:04.000Z</time>
      </trkpt>
      <trkpt lat="47.17273" lon="-1.9063">
        <ele>103</ele>
        <time>2021-05-08T11:36:06.000Z</time>
      </trkpt>
      <trkpt lat="47.17272" lon="-1.90649">
        <ele>103</ele>
        <time>2021-05-08T11:36:08.000Z</time>
      </trkpt>
      <trkpt lat="47.17272" lon="-1.90667">
        <ele>103</ele>
        <time>2021-05-08T11:36:10.000Z</time>
      </trkpt>
      <trkpt lat="47.17271" lon="-1.90683">
        <ele>103</ele>
        <time>2021-05-08T11:36:12.000Z</time>
      </trkpt>
      <trkpt lat="47.1727" lon="-1.90701">
        <ele>104</ele>
        <time>2021-05-08T11:36:14.000Z</time>
      </trkpt>
      <trkpt lat="47.17269" lon="-1.90721">
        <ele>104</ele>
        <time>2021-05-08T11:36:16.000Z</time>
      </trkpt>
      <trkpt lat="47.17266" lon="-1.9074">
        <ele>104</ele>
        <time>2021-05-08T11:36:18.000Z</time>
      </trkpt>
      <trkpt lat="47.17265" lon="-1.90758">
        <ele>104</ele>
        <time>2021-05-08T11:36:20.000Z</time>
      </trkpt>
      <trkpt lat="47.17264" lon="-1.90775">
        <ele>105</ele>
        <time>2021-05-08T11:36:22.000Z</time>
      </trkpt>
      <trkpt lat="47.17261" lon="-1.90793">
        <ele>104</ele>
        <time>2021-05-08T11:36:24.000Z</time>
      </trkpt>
      <trkpt lat="47.17258" lon="-1.90812">
        <ele>104</ele>
        <time>2021-05-08T11:36:26.000Z</time>
      </trkpt>
      <trkpt lat="47.17253" lon="-1.9083">
        <ele>103</ele>
        <time>2021-05-08T11:36:28.000Z</time>
      </trkpt>
      <trkpt lat="47.17247" lon="-1.90848">
        <ele>103</ele>
        <time>2021-05-08T11:36:30.000Z</time>
      </trkpt>
      <trkpt lat="47.17242" lon="-1.90867">
        <ele>103</ele>
        <time>2021-05-08T11:36:32.000Z</time>
      </trkpt>
      <trkpt lat="47.17236" lon="-1.90884">
        <ele>103</ele>
        <time>2021-05-08T11:36:34.000Z</time>
      </trkpt>
      <trkpt lat="47.17231" lon="-1.90902">
        <ele>102</ele>
        <time>2021-05-08T11:36:36.000Z</time>
      </trkpt>
      <trkpt lat="47.17226" lon="-1.90919">
        <ele>102</ele>
        <time>2021-05-08T11:36:38.000Z</time>
      </trkpt>
      <trkpt lat="47.1722" lon="-1.90936">
        <ele>102</ele>
        <time>2021-05-08T11:36:40.000Z</time>
      </trkpt>
      <trkpt lat="47.17215" lon="-1.90951">
        <ele>102</ele>
        <time>2021-05-08T11:36:42.000Z</time>
      </trkpt>
      <trkpt lat="47.17207" lon="-1.90966">
        <ele>102</ele>
        <time>2021-05-08T11:36:44.000Z</time>
      </trkpt>
      <trkpt lat="47.17199" lon="-1.9098">
        <ele>102</ele>
        <time>2021-05-08T11:36:46.000Z</time>
      </trkpt>
      <trkpt lat="47.17191" lon="-1.90993">
        <ele>102</ele>
        <time>2021-05-08T11:36:48.000Z</time>
      </trkpt>
      <trkpt lat="47.17183" lon="-1.91006">
        <ele>101</ele>
        <time>2021-05-08T11:36:50.000Z</time>
      </trkpt>
      <trkpt lat="47.17174" lon="-1.91019">
        <ele>101</ele>
        <time>2021-05-08T11:36:52.000Z</time>
      </trkpt>
      <trkpt lat="47.17165" lon="-1.91032">
        <ele>101</ele>
        <time>2021-05-08T11:36:54.000Z</time>
      </trkpt>
      <trkpt lat="47.17156" lon="-1.91045">
        <ele>101</ele>
        <time>2021-05-08T11:36:56.000Z</time>
      </trkpt>
      <trkpt lat="47.17148" lon="-1.91059">
        <ele>101</ele>
        <time>2021-05-08T11:36:58.000Z</time>
      </trkpt>
      <trkpt lat="47.17139" lon="-1.91072">
        <ele>101</ele>
        <time>2021-05-08T11:37:00.000Z</time>
      </trkpt>
      <trkpt lat="47.1713" lon="-1.91086">
        <ele>101</ele>
        <time>2021-05-08T11:37:02.000Z</time>
      </trkpt>
      <trkpt lat="47.17121" lon="-1.91099">
        <ele>101</ele>
        <time>2021-05-08T11:37:04.000Z</time>
      </trkpt>
      <trkpt lat="47.17112" lon="-1.91114">
        <ele>101</ele>
        <time>2021-05-08T11:37:06.000Z</time>
      </trkpt>
      <trkpt lat="47.17102" lon="-1.91129">
        <ele>100</ele>
        <time>2021-05-08T11:37:08.000Z</time>
      </trkpt>
      <trkpt lat="47.17092" lon="-1.91144">
        <ele>100</ele>
        <time>2021-05-08T11:37:10.000Z</time>
      </trkpt>
      <trkpt lat="47.17083" lon="-1.91158">
        <ele>100</ele>
        <time>2021-05-08T11:37:12.000Z</time>
      </trkpt>
      <trkpt lat="47.17073" lon="-1.91172">
        <ele>100</ele>
        <time>2021-05-08T11:37:14.000Z</time>
      </trkpt>
      <trkpt lat="47.17064" lon="-1.91187">
        <ele>100</ele>
        <time>2021-05-08T11:37:16.000Z</time>
      </trkpt>
      <trkpt lat="47.17055" lon="-1.91201">
        <ele>100</ele>
        <time>2021-05-08T11:37:18.000Z</time>
      </trkpt>
      <trkpt lat="47.17046" lon="-1.91215">
        <ele>100</ele>
        <time>2021-05-08T11:37:20.000Z</time>
      </trkpt>
      <trkpt lat="47.17036" lon="-1.91229">
        <ele>100</ele>
        <time>2021-05-08T11:37:22.000Z</time>
      </trkpt>
      <trkpt lat="47.17026" lon="-1.91241">
        <ele>101</ele>
        <time>2021-05-08T11:37:24.000Z</time>
      </trkpt>
      <trkpt lat="47.17015" lon="-1.91252">
        <ele>101</ele>
        <time>2021-05-08T11:37:26.000Z</time>
      </trkpt>
      <trkpt lat="47.17004" lon="-1.91263">
        <ele>102</ele>
        <time>2021-05-08T11:37:28.000Z</time>
      </trkpt>
      <trkpt lat="47.16993" lon="-1.91271">
        <ele>102</ele>
        <time>2021-05-08T11:37:30.000Z</time>
      </trkpt>
      <trkpt lat="47.1698" lon="-1.91278">
        <ele>101</ele>
        <time>2021-05-08T11:37:32.000Z</time>
      </trkpt>
      <trkpt lat="47.16968" lon="-1.91285">
        <ele>101</ele>
        <time>2021-05-08T11:37:34.000Z</time>
      </trkpt>
      <trkpt lat="47.16956" lon="-1.91292">
        <ele>101</ele>
        <time>2021-05-08T11:37:36.000Z</time>
      </trkpt>
      <trkpt lat="47.16944" lon="-1.91298">
        <ele>101</ele>
        <time>2021-05-08T11:37:38.000Z</time>
      </trkpt>
      <trkpt lat="47.16932" lon="-1.91304">
        <ele>100</ele>
        <time>2021-05-08T11:37:40.000Z</time>
      </trkpt>
      <trkpt lat="47.16919" lon="-1.91311">
        <ele>100</ele>
        <time>2021-05-08T11:37:42.000Z</time>
      </trkpt>
      <trkpt lat="47.16908" lon="-1.91318">
        <ele>99</ele>
        <time>2021-05-08T11:37:44.000Z</time>
      </trkpt>
      <trkpt lat="47.16896" lon="-1.91327">
        <ele>99</ele>
        <time>2021-05-08T11:37:46.000Z</time>
      </trkpt>
      <trkpt lat="47.16885" lon="-1.91339">
        <ele>99</ele>
        <time>2021-05-08T11:37:48.000Z</time>
      </trkpt>
      <trkpt lat="47.16877" lon="-1.91354">
        <ele>99</ele>
        <time>2021-05-08T11:37:50.000Z</time>
      </trkpt>
      <trkpt lat="47.16871" lon="-1.91371">
        <ele>99</ele>
        <time>2021-05-08T11:37:52.000Z</time>
      </trkpt>
      <trkpt lat="47.16865" lon="-1.91388">
        <ele>99</ele>
        <time>2021-05-08T11:37:54.000Z</time>
      </trkpt>
      <trkpt lat="47.1686" lon="-1.91405">
        <ele>100</ele>
        <time>2021-05-08T11:37:56.000Z</time>
      </trkpt>
      <trkpt lat="47.16856" lon="-1.91422">
        <ele>100</ele>
        <time>2021-05-08T11:37:58.000Z</time>
      </trkpt>
      <trkpt lat="47.16851" lon="-1.91439">
        <ele>100</ele>
        <time>2021-05-08T11:38:00.000Z</time>
      </trkpt>
      <trkpt lat="47.16845" lon="-1.91456">
        <ele>100</ele>
        <time>2021-05-08T11:38:02.000Z</time>
      </trkpt>
      <trkpt lat="47.1684" lon="-1.91473">
        <ele>100</ele>
        <time>2021-05-08T11:38:04.000Z</time>
      </trkpt>
      <trkpt lat="47.16835" lon="-1.9149">
        <ele>99</ele>
        <time>2021-05-08T11:38:06.000Z</time>
      </trkpt>
      <trkpt lat="47.1683" lon="-1.91506">
        <ele>100</ele>
        <time>2021-05-08T11:38:08.000Z</time>
      </trkpt>
      <trkpt lat="47.16824" lon="-1.91522">
        <ele>99</ele>
        <time>2021-05-08T11:38:10.000Z</time>
      </trkpt>
      <trkpt lat="47.16818" lon="-1.91538">
        <ele>99</ele>
        <time>2021-05-08T11:38:12.000Z</time>
      </trkpt>
      <trkpt lat="47.16811" lon="-1.91553">
        <ele>99</ele>
        <time>2021-05-08T11:38:14.000Z</time>
      </trkpt>
      <trkpt lat="47.16804" lon="-1.91567">
        <ele>99</ele>
        <time>2021-05-08T11:38:16.000Z</time>
      </trkpt>
      <trkpt lat="47.16797" lon="-1.91581">
        <ele>99</ele>
        <time>2021-05-08T11:38:18.000Z</time>
      </trkpt>
      <trkpt lat="47.16789" lon="-1.91595">
        <ele>98</ele>
        <time>2021-05-08T11:38:20.000Z</time>
      </trkpt>
      <trkpt lat="47.16781" lon="-1.91607">
        <ele>98</ele>
        <time>2021-05-08T11:38:22.000Z</time>
      </trkpt>
      <trkpt lat="47.16773" lon="-1.91621">
        <ele>98</ele>
        <time>2021-05-08T11:38:24.000Z</time>
      </trkpt>
      <trkpt lat="47.16766" lon="-1.91635">
        <ele>97</ele>
        <time>2021-05-08T11:38:26.000Z</time>
      </trkpt>
      <trkpt lat="47.16758" lon="-1.91649">
        <ele>97</ele>
        <time>2021-05-08T11:38:28.000Z</time>
      </trkpt>
      <trkpt lat="47.1675" lon="-1.91663">
        <ele>97</ele>
        <time>2021-05-08T11:38:30.000Z</time>
      </trkpt>
      <trkpt lat="47.16742" lon="-1.91676">
        <ele>98</ele>
        <time>2021-05-08T11:38:32.000Z</time>
      </trkpt>
      <trkpt lat="47.16734" lon="-1.9169">
        <ele>98</ele>
        <time>2021-05-08T11:38:34.000Z</time>
      </trkpt>
      <trkpt lat="47.16726" lon="-1.91704">
        <ele>98</ele>
        <time>2021-05-08T11:38:36.000Z</time>
      </trkpt>
      <trkpt lat="47.16717" lon="-1.91717">
        <ele>99</ele>
        <time>2021-05-08T11:38:38.000Z</time>
      </trkpt>
      <trkpt lat="47.16709" lon="-1.9173">
        <ele>100</ele>
        <time>2021-05-08T11:38:40.000Z</time>
      </trkpt>
      <trkpt lat="47.167" lon="-1.91744">
        <ele>100</ele>
        <time>2021-05-08T11:38:42.000Z</time>
      </trkpt>
      <trkpt lat="47.16692" lon="-1.91758">
        <ele>100</ele>
        <time>2021-05-08T11:38:44.000Z</time>
      </trkpt>
      <trkpt lat="47.16684" lon="-1.91772">
        <ele>100</ele>
        <time>2021-05-08T11:38:46.000Z</time>
      </trkpt>
      <trkpt lat="47.16676" lon="-1.91787">
        <ele>100</ele>
        <time>2021-05-08T11:38:48.000Z</time>
      </trkpt>
      <trkpt lat="47.16668" lon="-1.91803">
        <ele>100</ele>
        <time>2021-05-08T11:38:50.000Z</time>
      </trkpt>
      <trkpt lat="47.16661" lon="-1.91819">
        <ele>100</ele>
        <time>2021-05-08T11:38:52.000Z</time>
      </trkpt>
      <trkpt lat="47.16654" lon="-1.91834">
        <ele>100</ele>
        <time>2021-05-08T11:38:54.000Z</time>
      </trkpt>
      <trkpt lat="47.16648" lon="-1.91849">
        <ele>99</ele>
        <time>2021-05-08T11:38:56.000Z</time>
      </trkpt>
      <trkpt lat="47.16641" lon="-1.91865">
        <ele>99</ele>
        <time>2021-05-08T11:38:58.000Z</time>
      </trkpt>
      <trkpt lat="47.16634" lon="-1.91881">
        <ele>99</ele>
        <time>2021-05-08T11:39:00.000Z</time>
      </trkpt>
      <trkpt lat="47.16627" lon="-1.91897">
        <ele>99</ele>
        <time>2021-05-08T11:39:02.000Z</time>
      </trkpt>
      <trkpt lat="47.16619" lon="-1.91913">
        <ele>99</ele>
        <time>2021-05-08T11:39:04.000Z</time>
      </trkpt>
      <trkpt lat="47.16613" lon="-1.91929">
        <ele>98</ele>
        <time>2021-05-08T11:39:06.000Z</time>
      </trkpt>
      <trkpt lat="47.16606" lon="-1.91944">
        <ele>98</ele>
        <time>2021-05-08T11:39:08.000Z</time>
      </trkpt>
      <trkpt lat="47.16599" lon="-1.91959">
        <ele>98</ele>
        <time>2021-05-08T11:39:10.000Z</time>
      </trkpt>
      <trkpt lat="47.16591" lon="-1.91974">
        <ele>98</ele>
        <time>2021-05-08T11:39:12.000Z</time>
      </trkpt>
      <trkpt lat="47.16584" lon="-1.9199">
        <ele>98</ele>
        <time>2021-05-08T11:39:14.000Z</time>
      </trkpt>
      <trkpt lat="47.16576" lon="-1.92006">
        <ele>98</ele>
        <time>2021-05-08T11:39:16.000Z</time>
      </trkpt>
      <trkpt lat="47.16568" lon="-1.92021">
        <ele>98</ele>
        <time>2021-05-08T11:39:18.000Z</time>
      </trkpt>
      <trkpt lat="47.16562" lon="-1.92036">
        <ele>98</ele>
        <time>2021-05-08T11:39:20.000Z</time>
      </trkpt>
      <trkpt lat="47.16555" lon="-1.92051">
        <ele>98</ele>
        <time>2021-05-08T11:39:22.000Z</time>
      </trkpt>
      <trkpt lat="47.16549" lon="-1.92068">
        <ele>98</ele>
        <time>2021-05-08T11:39:24.000Z</time>
      </trkpt>
      <trkpt lat="47.16544" lon="-1.92086">
        <ele>98</ele>
        <time>2021-05-08T11:39:26.000Z</time>
      </trkpt>
      <trkpt lat="47.16538" lon="-1.92105">
        <ele>98</ele>
        <time>2021-05-08T11:39:28.000Z</time>
      </trkpt>
      <trkpt lat="47.16532" lon="-1.92123">
        <ele>98</ele>
        <time>2021-05-08T11:39:30.000Z</time>
      </trkpt>
      <trkpt lat="47.16526" lon="-1.9214">
        <ele>98</ele>
        <time>2021-05-08T11:39:32.000Z</time>
      </trkpt>
      <trkpt lat="47.16522" lon="-1.92159">
        <ele>98</ele>
        <time>2021-05-08T11:39:34.000Z</time>
      </trkpt>
      <trkpt lat="47.16521" lon="-1.92179">
        <ele>99</ele>
        <time>2021-05-08T11:39:36.000Z</time>
      </trkpt>
      <trkpt lat="47.16521" lon="-1.92199">
        <ele>98</ele>
        <time>2021-05-08T11:39:38.000Z</time>
      </trkpt>
      <trkpt lat="47.16523" lon="-1.92218">
        <ele>98</ele>
        <time>2021-05-08T11:39:40.000Z</time>
      </trkpt>
      <trkpt lat="47.16526" lon="-1.92236">
        <ele>98</ele>
        <time>2021-05-08T11:39:42.000Z</time>
      </trkpt>
      <trkpt lat="47.1653" lon="-1.92254">
        <ele>98</ele>
        <time>2021-05-08T11:39:44.000Z</time>
      </trkpt>
      <trkpt lat="47.16533" lon="-1.92273">
        <ele>97</ele>
        <time>2021-05-08T11:39:46.000Z</time>
      </trkpt>
      <trkpt lat="47.16536" lon="-1.92292">
        <ele>97</ele>
        <time>2021-05-08T11:39:48.000Z</time>
      </trkpt>
      <trkpt lat="47.16539" lon="-1.92311">
        <ele>97</ele>
        <time>2021-05-08T11:39:50.000Z</time>
      </trkpt>
      <trkpt lat="47.16542" lon="-1.92329">
        <ele>97</ele>
        <time>2021-05-08T11:39:52.000Z</time>
      </trkpt>
      <trkpt lat="47.16546" lon="-1.92349">
        <ele>96</ele>
        <time>2021-05-08T11:39:54.000Z</time>
      </trkpt>
      <trkpt lat="47.1655" lon="-1.92367">
        <ele>96</ele>
        <time>2021-05-08T11:39:56.000Z</time>
      </trkpt>
      <trkpt lat="47.16553" lon="-1.92387">
        <ele>96</ele>
        <time>2021-05-08T11:39:58.000Z</time>
      </trkpt>
      <trkpt lat="47.16557" lon="-1.92406">
        <ele>95</ele>
        <time>2021-05-08T11:40:00.000Z</time>
      </trkpt>
      <trkpt lat="47.16561" lon="-1.92425">
        <ele>95</ele>
        <time>2021-05-08T11:40:02.000Z</time>
      </trkpt>
      <trkpt lat="47.16563" lon="-1.92445">
        <ele>95</ele>
        <time>2021-05-08T11:40:04.000Z</time>
      </trkpt>
      <trkpt lat="47.16564" lon="-1.92466">
        <ele>95</ele>
        <time>2021-05-08T11:40:06.000Z</time>
      </trkpt>
      <trkpt lat="47.16561" lon="-1.92486">
        <ele>94</ele>
        <time>2021-05-08T11:40:08.000Z</time>
      </trkpt>
      <trkpt lat="47.16556" lon="-1.92506">
        <ele>94</ele>
        <time>2021-05-08T11:40:10.000Z</time>
      </trkpt>
      <trkpt lat="47.16548" lon="-1.92523">
        <ele>95</ele>
        <time>2021-05-08T11:40:12.000Z</time>
      </trkpt>
      <trkpt lat="47.1654" lon="-1.92539">
        <ele>95</ele>
        <time>2021-05-08T11:40:14.000Z</time>
      </trkpt>
      <trkpt lat="47.1653" lon="-1.92553">
        <ele>94</ele>
        <time>2021-05-08T11:40:16.000Z</time>
      </trkpt>
      <trkpt lat="47.16519" lon="-1.92567">
        <ele>94</ele>
        <time>2021-05-08T11:40:18.000Z</time>
      </trkpt>
      <trkpt lat="47.16507" lon="-1.92579">
        <ele>94</ele>
        <time>2021-05-08T11:40:20.000Z</time>
      </trkpt>
      <trkpt lat="47.16496" lon="-1.9259">
        <ele>94</ele>
        <time>2021-05-08T11:40:22.000Z</time>
      </trkpt>
      <trkpt lat="47.16485" lon="-1.92601">
        <ele>94</ele>
        <time>2021-05-08T11:40:24.000Z</time>
      </trkpt>
      <trkpt lat="47.16474" lon="-1.92612">
        <ele>94</ele>
        <time>2021-05-08T11:40:26.000Z</time>
      </trkpt>
      <trkpt lat="47.16462" lon="-1.92622">
        <ele>94</ele>
        <time>2021-05-08T11:40:28.000Z</time>
      </trkpt>
      <trkpt lat="47.1645" lon="-1.92633">
        <ele>94</ele>
        <time>2021-05-08T11:40:30.000Z</time>
      </trkpt>
      <trkpt lat="47.16438" lon="-1.92645">
        <ele>93</ele>
        <time>2021-05-08T11:40:32.000Z</time>
      </trkpt>
      <trkpt lat="47.16427" lon="-1.92657">
        <ele>93</ele>
        <time>2021-05-08T11:40:34.000Z</time>
      </trkpt>
      <trkpt lat="47.16417" lon="-1.9267">
        <ele>93</ele>
        <time>2021-05-08T11:40:36.000Z</time>
      </trkpt>
      <trkpt lat="47.16407" lon="-1.92685">
        <ele>93</ele>
        <time>2021-05-08T11:40:38.000Z</time>
      </trkpt>
      <trkpt lat="47.16397" lon="-1.92699">
        <ele>92</ele>
        <time>2021-05-08T11:40:40.000Z</time>
      </trkpt>
      <trkpt lat="47.16387" lon="-1.92716">
        <ele>92</ele>
        <time>2021-05-08T11:40:42.000Z</time>
      </trkpt>
      <trkpt lat="47.16378" lon="-1.92731">
        <ele>92</ele>
        <time>2021-05-08T11:40:44.000Z</time>
      </trkpt>
      <trkpt lat="47.16368" lon="-1.92747">
        <ele>93</ele>
        <time>2021-05-08T11:40:46.000Z</time>
      </trkpt>
      <trkpt lat="47.16358" lon="-1.92764">
        <ele>92</ele>
        <time>2021-05-08T11:40:48.000Z</time>
      </trkpt>
      <trkpt lat="47.16348" lon="-1.9278">
        <ele>92</ele>
        <time>2021-05-08T11:40:50.000Z</time>
      </trkpt>
      <trkpt lat="47.16338" lon="-1.92796">
        <ele>93</ele>
        <time>2021-05-08T11:40:52.000Z</time>
      </trkpt>
      <trkpt lat="47.16328" lon="-1.92812">
        <ele>92</ele>
        <time>2021-05-08T11:40:54.000Z</time>
      </trkpt>
      <trkpt lat="47.16317" lon="-1.92826">
        <ele>92</ele>
        <time>2021-05-08T11:40:56.000Z</time>
      </trkpt>
      <trkpt lat="47.16305" lon="-1.92841">
        <ele>92</ele>
        <time>2021-05-08T11:40:58.000Z</time>
      </trkpt>
      <trkpt lat="47.16294" lon="-1.92855">
        <ele>91</ele>
        <time>2021-05-08T11:41:00.000Z</time>
      </trkpt>
      <trkpt lat="47.16283" lon="-1.92867">
        <ele>91</ele>
        <time>2021-05-08T11:41:02.000Z</time>
      </trkpt>
      <trkpt lat="47.16271" lon="-1.92878">
        <ele>91</ele>
        <time>2021-05-08T11:41:04.000Z</time>
      </trkpt>
      <trkpt lat="47.1626" lon="-1.92889">
        <ele>91</ele>
        <time>2021-05-08T11:41:06.000Z</time>
      </trkpt>
      <trkpt lat="47.16248" lon="-1.929">
        <ele>91</ele>
        <time>2021-05-08T11:41:08.000Z</time>
      </trkpt>
      <trkpt lat="47.16236" lon="-1.9291">
        <ele>91</ele>
        <time>2021-05-08T11:41:10.000Z</time>
      </trkpt>
      <trkpt lat="47.16225" lon="-1.92921">
        <ele>91</ele>
        <time>2021-05-08T11:41:12.000Z</time>
      </trkpt>
      <trkpt lat="47.16214" lon="-1.92932">
        <ele>91</ele>
        <time>2021-05-08T11:41:14.000Z</time>
      </trkpt>
      <trkpt lat="47.16202" lon="-1.92942">
        <ele>91</ele>
        <time>2021-05-08T11:41:16.000Z</time>
      </trkpt>
      <trkpt lat="47.16191" lon="-1.92953">
        <ele>91</ele>
        <time>2021-05-08T11:41:18.000Z</time>
      </trkpt>
      <trkpt lat="47.16179" lon="-1.92964">
        <ele>91</ele>
        <time>2021-05-08T11:41:20.000Z</time>
      </trkpt>
      <trkpt lat="47.16167" lon="-1.92973">
        <ele>91</ele>
        <time>2021-05-08T11:41:22.000Z</time>
      </trkpt>
      <trkpt lat="47.16154" lon="-1.92981">
        <ele>91</ele>
        <time>2021-05-08T11:41:24.000Z</time>
      </trkpt>
      <trkpt lat="47.16141" lon="-1.92989">
        <ele>92</ele>
        <time>2021-05-08T11:41:26.000Z</time>
      </trkpt>
      <trkpt lat="47.16127" lon="-1.92997">
        <ele>92</ele>
        <time>2021-05-08T11:41:28.000Z</time>
      </trkpt>
      <trkpt lat="47.16114" lon="-1.93004">
        <ele>92</ele>
        <time>2021-05-08T11:41:30.000Z</time>
      </trkpt>
      <trkpt lat="47.16102" lon="-1.93012">
        <ele>92</ele>
        <time>2021-05-08T11:41:32.000Z</time>
      </trkpt>
      <trkpt lat="47.16089" lon="-1.9302">
        <ele>92</ele>
        <time>2021-05-08T11:41:34.000Z</time>
      </trkpt>
      <trkpt lat="47.16071" lon="-1.93031">
        <ele>93</ele>
        <time>2021-05-08T11:41:37.000Z</time>
      </trkpt>
      <trkpt lat="47.16059" lon="-1.93038">
        <ele>94</ele>
        <time>2021-05-08T11:41:39.000Z</time>
      </trkpt>
      <trkpt lat="47.16046" lon="-1.93046">
        <ele>93</ele>
        <time>2021-05-08T11:41:41.000Z</time>
      </trkpt>
      <trkpt lat="47.16034" lon="-1.93053">
        <ele>93</ele>
        <time>2021-05-08T11:41:43.000Z</time>
      </trkpt>
      <trkpt lat="47.16021" lon="-1.9306">
        <ele>93</ele>
        <time>2021-05-08T11:41:45.000Z</time>
      </trkpt>
      <trkpt lat="47.1601" lon="-1.93072">
        <ele>93</ele>
        <time>2021-05-08T11:41:47.000Z</time>
      </trkpt>
      <trkpt lat="47.16" lon="-1.93089">
        <ele>93</ele>
        <time>2021-05-08T11:41:49.000Z</time>
      </trkpt>
      <trkpt lat="47.15995" lon="-1.93108">
        <ele>91</ele>
        <time>2021-05-08T11:41:51.000Z</time>
      </trkpt>
      <trkpt lat="47.15992" lon="-1.93127">
        <ele>89</ele>
        <time>2021-05-08T11:41:53.000Z</time>
      </trkpt>
      <trkpt lat="47.15993" lon="-1.93146">
        <ele>88</ele>
        <time>2021-05-08T11:41:55.000Z</time>
      </trkpt>
      <trkpt lat="47.15995" lon="-1.93164">
        <ele>87</ele>
        <time>2021-05-08T11:41:57.000Z</time>
      </trkpt>
      <trkpt lat="47.15996" lon="-1.9318">
        <ele>86</ele>
        <time>2021-05-08T11:41:59.000Z</time>
      </trkpt>
      <trkpt lat="47.15998" lon="-1.93198">
        <ele>86</ele>
        <time>2021-05-08T11:42:01.000Z</time>
      </trkpt>
      <trkpt lat="47.16" lon="-1.93214">
        <ele>85</ele>
        <time>2021-05-08T11:42:03.000Z</time>
      </trkpt>
      <trkpt lat="47.16002" lon="-1.93231">
        <ele>85</ele>
        <time>2021-05-08T11:42:05.000Z</time>
      </trkpt>
      <trkpt lat="47.16004" lon="-1.93246">
        <ele>85</ele>
        <time>2021-05-08T11:42:07.000Z</time>
      </trkpt>
      <trkpt lat="47.16006" lon="-1.93262">
        <ele>86</ele>
        <time>2021-05-08T11:42:09.000Z</time>
      </trkpt>
      <trkpt lat="47.16008" lon="-1.93278">
        <ele>86</ele>
        <time>2021-05-08T11:42:11.000Z</time>
      </trkpt>
      <trkpt lat="47.16009" lon="-1.93295">
        <ele>87</ele>
        <time>2021-05-08T11:42:13.000Z</time>
      </trkpt>
      <trkpt lat="47.1601" lon="-1.93312">
        <ele>86</ele>
        <time>2021-05-08T11:42:15.000Z</time>
      </trkpt>
      <trkpt lat="47.16011" lon="-1.93329">
        <ele>86</ele>
        <time>2021-05-08T11:42:17.000Z</time>
      </trkpt>
      <trkpt lat="47.1601" lon="-1.93346">
        <ele>86</ele>
        <time>2021-05-08T11:42:19.000Z</time>
      </trkpt>
      <trkpt lat="47.16009" lon="-1.9336">
        <ele>86</ele>
        <time>2021-05-08T11:42:21.000Z</time>
      </trkpt>
      <trkpt lat="47.16006" lon="-1.93377">
        <ele>86</ele>
        <time>2021-05-08T11:42:23.000Z</time>
      </trkpt>
      <trkpt lat="47.16001" lon="-1.93392">
        <ele>87</ele>
        <time>2021-05-08T11:42:25.000Z</time>
      </trkpt>
      <trkpt lat="47.15997" lon="-1.93406">
        <ele>87</ele>
        <time>2021-05-08T11:42:27.000Z</time>
      </trkpt>
      <trkpt lat="47.15991" lon="-1.9342">
        <ele>87</ele>
        <time>2021-05-08T11:42:29.000Z</time>
      </trkpt>
      <trkpt lat="47.15986" lon="-1.93433">
        <ele>88</ele>
        <time>2021-05-08T11:42:31.000Z</time>
      </trkpt>
      <trkpt lat="47.15979" lon="-1.93448">
        <ele>88</ele>
        <time>2021-05-08T11:42:33.000Z</time>
      </trkpt>
      <trkpt lat="47.15971" lon="-1.93461">
        <ele>88</ele>
        <time>2021-05-08T11:42:35.000Z</time>
      </trkpt>
      <trkpt lat="47.15963" lon="-1.93472">
        <ele>88</ele>
        <time>2021-05-08T11:42:37.000Z</time>
      </trkpt>
      <trkpt lat="47.15955" lon="-1.93482">
        <ele>88</ele>
        <time>2021-05-08T11:42:39.000Z</time>
      </trkpt>
      <trkpt lat="47.15947" lon="-1.93493">
        <ele>89</ele>
        <time>2021-05-08T11:42:41.000Z</time>
      </trkpt>
      <trkpt lat="47.15939" lon="-1.93504">
        <ele>89</ele>
        <time>2021-05-08T11:42:43.000Z</time>
      </trkpt>
      <trkpt lat="47.1593" lon="-1.93515">
        <ele>89</ele>
        <time>2021-05-08T11:42:45.000Z</time>
      </trkpt>
      <trkpt lat="47.15921" lon="-1.93525">
        <ele>89</ele>
        <time>2021-05-08T11:42:47.000Z</time>
      </trkpt>
      <trkpt lat="47.15912" lon="-1.93534">
        <ele>89</ele>
        <time>2021-05-08T11:42:49.000Z</time>
      </trkpt>
      <trkpt lat="47.15901" lon="-1.9354">
        <ele>89</ele>
        <time>2021-05-08T11:42:51.000Z</time>
      </trkpt>
      <trkpt lat="47.1589" lon="-1.93545">
        <ele>89</ele>
        <time>2021-05-08T11:42:53.000Z</time>
      </trkpt>
      <trkpt lat="47.15878" lon="-1.93549">
        <ele>89</ele>
        <time>2021-05-08T11:42:55.000Z</time>
      </trkpt>
      <trkpt lat="47.15866" lon="-1.93553">
        <ele>88</ele>
        <time>2021-05-08T11:42:57.000Z</time>
      </trkpt>
      <trkpt lat="47.15854" lon="-1.93558">
        <ele>88</ele>
        <time>2021-05-08T11:42:59.000Z</time>
      </trkpt>
      <trkpt lat="47.15843" lon="-1.93563">
        <ele>88</ele>
        <time>2021-05-08T11:43:01.000Z</time>
      </trkpt>
      <trkpt lat="47.15831" lon="-1.9357">
        <ele>88</ele>
        <time>2021-05-08T11:43:03.000Z</time>
      </trkpt>
      <trkpt lat="47.1582" lon="-1.93575">
        <ele>88</ele>
        <time>2021-05-08T11:43:05.000Z</time>
      </trkpt>
      <trkpt lat="47.15808" lon="-1.93581">
        <ele>88</ele>
        <time>2021-05-08T11:43:07.000Z</time>
      </trkpt>
      <trkpt lat="47.15797" lon="-1.93586">
        <ele>88</ele>
        <time>2021-05-08T11:43:09.000Z</time>
      </trkpt>
      <trkpt lat="47.15785" lon="-1.93591">
        <ele>88</ele>
        <time>2021-05-08T11:43:11.000Z</time>
      </trkpt>
      <trkpt lat="47.15776" lon="-1.93603">
        <ele>88</ele>
        <time>2021-05-08T11:43:13.000Z</time>
      </trkpt>
      <trkpt lat="47.15775" lon="-1.9362">
        <ele>87</ele>
        <time>2021-05-08T11:43:15.000Z</time>
      </trkpt>
      <trkpt lat="47.15778" lon="-1.93639">
        <ele>86</ele>
        <time>2021-05-08T11:43:17.000Z</time>
      </trkpt>
      <trkpt lat="47.15782" lon="-1.93658">
        <ele>85</ele>
        <time>2021-05-08T11:43:19.000Z</time>
      </trkpt>
      <trkpt lat="47.15785" lon="-1.93677">
        <ele>85</ele>
        <time>2021-05-08T11:43:21.000Z</time>
      </trkpt>
      <trkpt lat="47.15789" lon="-1.93697">
        <ele>84</ele>
        <time>2021-05-08T11:43:23.000Z</time>
      </trkpt>
      <trkpt lat="47.15792" lon="-1.93716">
        <ele>83</ele>
        <time>2021-05-08T11:43:25.000Z</time>
      </trkpt>
      <trkpt lat="47.15795" lon="-1.93736">
        <ele>82</ele>
        <time>2021-05-08T11:43:27.000Z</time>
      </trkpt>
      <trkpt lat="47.15799" lon="-1.93757">
        <ele>82</ele>
        <time>2021-05-08T11:43:29.000Z</time>
      </trkpt>
      <trkpt lat="47.15803" lon="-1.93776">
        <ele>81</ele>
        <time>2021-05-08T11:43:31.000Z</time>
      </trkpt>
      <trkpt lat="47.15806" lon="-1.93796">
        <ele>81</ele>
        <time>2021-05-08T11:43:33.000Z</time>
      </trkpt>
      <trkpt lat="47.15809" lon="-1.93817">
        <ele>81</ele>
        <time>2021-05-08T11:43:35.000Z</time>
      </trkpt>
      <trkpt lat="47.15813" lon="-1.93837">
        <ele>80</ele>
        <time>2021-05-08T11:43:37.000Z</time>
      </trkpt>
      <trkpt lat="47.15816" lon="-1.93856">
        <ele>80</ele>
        <time>2021-05-08T11:43:39.000Z</time>
      </trkpt>
      <trkpt lat="47.1582" lon="-1.93876">
        <ele>80</ele>
        <time>2021-05-08T11:43:41.000Z</time>
      </trkpt>
      <trkpt lat="47.15824" lon="-1.93895">
        <ele>80</ele>
        <time>2021-05-08T11:43:43.000Z</time>
      </trkpt>
      <trkpt lat="47.15827" lon="-1.93914">
        <ele>80</ele>
        <time>2021-05-08T11:43:45.000Z</time>
      </trkpt>
      <trkpt lat="47.1583" lon="-1.93933">
        <ele>80</ele>
        <time>2021-05-08T11:43:47.000Z</time>
      </trkpt>
      <trkpt lat="47.15833" lon="-1.93951">
        <ele>80</ele>
        <time>2021-05-08T11:43:49.000Z</time>
      </trkpt>
      <trkpt lat="47.15836" lon="-1.9397">
        <ele>80</ele>
        <time>2021-05-08T11:43:51.000Z</time>
      </trkpt>
      <trkpt lat="47.15839" lon="-1.9399">
        <ele>80</ele>
        <time>2021-05-08T11:43:53.000Z</time>
      </trkpt>
      <trkpt lat="47.15841" lon="-1.94008">
        <ele>80</ele>
        <time>2021-05-08T11:43:55.000Z</time>
      </trkpt>
      <trkpt lat="47.15844" lon="-1.94027">
        <ele>80</ele>
        <time>2021-05-08T11:43:57.000Z</time>
      </trkpt>
      <trkpt lat="47.15846" lon="-1.94046">
        <ele>80</ele>
        <time>2021-05-08T11:43:59.000Z</time>
      </trkpt>
      <trkpt lat="47.15848" lon="-1.94064">
        <ele>80</ele>
        <time>2021-05-08T11:44:01.000Z</time>
      </trkpt>
      <trkpt lat="47.1585" lon="-1.94082">
        <ele>80</ele>
        <time>2021-05-08T11:44:03.000Z</time>
      </trkpt>
      <trkpt lat="47.15851" lon="-1.94099">
        <ele>80</ele>
        <time>2021-05-08T11:44:05.000Z</time>
      </trkpt>
      <trkpt lat="47.15853" lon="-1.94118">
        <ele>80</ele>
        <time>2021-05-08T11:44:07.000Z</time>
      </trkpt>
      <trkpt lat="47.15855" lon="-1.94136">
        <ele>80</ele>
        <time>2021-05-08T11:44:09.000Z</time>
      </trkpt>
      <trkpt lat="47.15857" lon="-1.94154">
        <ele>80</ele>
        <time>2021-05-08T11:44:11.000Z</time>
      </trkpt>
      <trkpt lat="47.15859" lon="-1.94173">
        <ele>80</ele>
        <time>2021-05-08T11:44:13.000Z</time>
      </trkpt>
      <trkpt lat="47.15862" lon="-1.94191">
        <ele>81</ele>
        <time>2021-05-08T11:44:15.000Z</time>
      </trkpt>
      <trkpt lat="47.15864" lon="-1.94209">
        <ele>81</ele>
        <time>2021-05-08T11:44:17.000Z</time>
      </trkpt>
      <trkpt lat="47.15865" lon="-1.94227">
        <ele>81</ele>
        <time>2021-05-08T11:44:19.000Z</time>
      </trkpt>
      <trkpt lat="47.15867" lon="-1.94245">
        <ele>81</ele>
        <time>2021-05-08T11:44:21.000Z</time>
      </trkpt>
      <trkpt lat="47.15871" lon="-1.94272">
        <ele>81</ele>
        <time>2021-05-08T11:44:24.000Z</time>
      </trkpt>
      <trkpt lat="47.15874" lon="-1.943">
        <ele>80</ele>
        <time>2021-05-08T11:44:27.000Z</time>
      </trkpt>
      <trkpt lat="47.15875" lon="-1.94318">
        <ele>80</ele>
        <time>2021-05-08T11:44:29.000Z</time>
      </trkpt>
      <trkpt lat="47.15878" lon="-1.94337">
        <ele>81</ele>
        <time>2021-05-08T11:44:31.000Z</time>
      </trkpt>
      <trkpt lat="47.1588" lon="-1.94354">
        <ele>81</ele>
        <time>2021-05-08T11:44:33.000Z</time>
      </trkpt>
      <trkpt lat="47.15881" lon="-1.94373">
        <ele>80</ele>
        <time>2021-05-08T11:44:35.000Z</time>
      </trkpt>
      <trkpt lat="47.15883" lon="-1.94391">
        <ele>81</ele>
        <time>2021-05-08T11:44:37.000Z</time>
      </trkpt>
      <trkpt lat="47.15885" lon="-1.94407">
        <ele>81</ele>
        <time>2021-05-08T11:44:39.000Z</time>
      </trkpt>
      <trkpt lat="47.15887" lon="-1.94423">
        <ele>82</ele>
        <time>2021-05-08T11:44:41.000Z</time>
      </trkpt>
      <trkpt lat="47.15889" lon="-1.94439">
        <ele>83</ele>
        <time>2021-05-08T11:44:43.000Z</time>
      </trkpt>
      <trkpt lat="47.15892" lon="-1.94455">
        <ele>83</ele>
        <time>2021-05-08T11:44:45.000Z</time>
      </trkpt>
      <trkpt lat="47.15894" lon="-1.94472">
        <ele>83</ele>
        <time>2021-05-08T11:44:47.000Z</time>
      </trkpt>
      <trkpt lat="47.15895" lon="-1.94488">
        <ele>83</ele>
        <time>2021-05-08T11:44:49.000Z</time>
      </trkpt>
      <trkpt lat="47.15897" lon="-1.94505">
        <ele>83</ele>
        <time>2021-05-08T11:44:51.000Z</time>
      </trkpt>
      <trkpt lat="47.15898" lon="-1.94522">
        <ele>84</ele>
        <time>2021-05-08T11:44:53.000Z</time>
      </trkpt>
      <trkpt lat="47.159" lon="-1.94538">
        <ele>84</ele>
        <time>2021-05-08T11:44:55.000Z</time>
      </trkpt>
      <trkpt lat="47.15902" lon="-1.94555">
        <ele>84</ele>
        <time>2021-05-08T11:44:57.000Z</time>
      </trkpt>
      <trkpt lat="47.15904" lon="-1.94571">
        <ele>84</ele>
        <time>2021-05-08T11:44:59.000Z</time>
      </trkpt>
      <trkpt lat="47.15905" lon="-1.94587">
        <ele>85</ele>
        <time>2021-05-08T11:45:01.000Z</time>
      </trkpt>
      <trkpt lat="47.15907" lon="-1.94602">
        <ele>85</ele>
        <time>2021-05-08T11:45:03.000Z</time>
      </trkpt>
      <trkpt lat="47.15908" lon="-1.94617">
        <ele>85</ele>
        <time>2021-05-08T11:45:05.000Z</time>
      </trkpt>
      <trkpt lat="47.1591" lon="-1.94637">
        <ele>85</ele>
        <time>2021-05-08T11:45:08.000Z</time>
      </trkpt>
      <trkpt lat="47.1591" lon="-1.94655">
        <ele>84</ele>
        <time>2021-05-08T11:45:11.000Z</time>
      </trkpt>
      <trkpt lat="47.15911" lon="-1.94672">
        <ele>84</ele>
        <time>2021-05-08T11:45:14.000Z</time>
      </trkpt>
      <trkpt lat="47.15913" lon="-1.94689">
        <ele>86</ele>
        <time>2021-05-08T11:45:16.000Z</time>
      </trkpt>
      <trkpt lat="47.15915" lon="-1.94717">
        <ele>86</ele>
        <time>2021-05-08T11:45:19.000Z</time>
      </trkpt>
      <trkpt lat="47.15919" lon="-1.94735">
        <ele>86</ele>
        <time>2021-05-08T11:45:21.000Z</time>
      </trkpt>
      <trkpt lat="47.15919" lon="-1.94754">
        <ele>86</ele>
        <time>2021-05-08T11:45:23.000Z</time>
      </trkpt>
      <trkpt lat="47.1592" lon="-1.94774">
        <ele>85</ele>
        <time>2021-05-08T11:45:25.000Z</time>
      </trkpt>
      <trkpt lat="47.15921" lon="-1.94793">
        <ele>86</ele>
        <time>2021-05-08T11:45:27.000Z</time>
      </trkpt>
      <trkpt lat="47.15923" lon="-1.94811">
        <ele>86</ele>
        <time>2021-05-08T11:45:29.000Z</time>
      </trkpt>
      <trkpt lat="47.15925" lon="-1.94828">
        <ele>86</ele>
        <time>2021-05-08T11:45:31.000Z</time>
      </trkpt>
      <trkpt lat="47.15926" lon="-1.94848">
        <ele>86</ele>
        <time>2021-05-08T11:45:33.000Z</time>
      </trkpt>
      <trkpt lat="47.15927" lon="-1.94868">
        <ele>86</ele>
        <time>2021-05-08T11:45:35.000Z</time>
      </trkpt>
      <trkpt lat="47.15928" lon="-1.94888">
        <ele>86</ele>
        <time>2021-05-08T11:45:37.000Z</time>
      </trkpt>
      <trkpt lat="47.15926" lon="-1.94917">
        <ele>86</ele>
        <time>2021-05-08T11:45:40.000Z</time>
      </trkpt>
      <trkpt lat="47.15924" lon="-1.94935">
        <ele>86</ele>
        <time>2021-05-08T11:45:42.000Z</time>
      </trkpt>
      <trkpt lat="47.15922" lon="-1.94955">
        <ele>86</ele>
        <time>2021-05-08T11:45:44.000Z</time>
      </trkpt>
      <trkpt lat="47.15919" lon="-1.94985">
        <ele>86</ele>
        <time>2021-05-08T11:45:47.000Z</time>
      </trkpt>
      <trkpt lat="47.15918" lon="-1.95004">
        <ele>86</ele>
        <time>2021-05-08T11:45:49.000Z</time>
      </trkpt>
      <trkpt lat="47.15916" lon="-1.95034">
        <ele>86</ele>
        <time>2021-05-08T11:45:52.000Z</time>
      </trkpt>
      <trkpt lat="47.15915" lon="-1.95053">
        <ele>85</ele>
        <time>2021-05-08T11:45:54.000Z</time>
      </trkpt>
      <trkpt lat="47.15913" lon="-1.95071">
        <ele>86</ele>
        <time>2021-05-08T11:45:56.000Z</time>
      </trkpt>
      <trkpt lat="47.15912" lon="-1.95091">
        <ele>85</ele>
        <time>2021-05-08T11:45:58.000Z</time>
      </trkpt>
      <trkpt lat="47.15911" lon="-1.9511">
        <ele>85</ele>
        <time>2021-05-08T11:46:00.000Z</time>
      </trkpt>
      <trkpt lat="47.1591" lon="-1.95129">
        <ele>84</ele>
        <time>2021-05-08T11:46:02.000Z</time>
      </trkpt>
      <trkpt lat="47.15907" lon="-1.95148">
        <ele>84</ele>
        <time>2021-05-08T11:46:04.000Z</time>
      </trkpt>
      <trkpt lat="47.15903" lon="-1.95167">
        <ele>83</ele>
        <time>2021-05-08T11:46:06.000Z</time>
      </trkpt>
      <trkpt lat="47.159" lon="-1.95186">
        <ele>83</ele>
        <time>2021-05-08T11:46:08.000Z</time>
      </trkpt>
      <trkpt lat="47.15897" lon="-1.95206">
        <ele>83</ele>
        <time>2021-05-08T11:46:10.000Z</time>
      </trkpt>
      <trkpt lat="47.15897" lon="-1.95225">
        <ele>83</ele>
        <time>2021-05-08T11:46:12.000Z</time>
      </trkpt>
      <trkpt lat="47.15896" lon="-1.95243">
        <ele>82</ele>
        <time>2021-05-08T11:46:14.000Z</time>
      </trkpt>
      <trkpt lat="47.15896" lon="-1.95262">
        <ele>82</ele>
        <time>2021-05-08T11:46:16.000Z</time>
      </trkpt>
      <trkpt lat="47.15896" lon="-1.95281">
        <ele>82</ele>
        <time>2021-05-08T11:46:18.000Z</time>
      </trkpt>
      <trkpt lat="47.15896" lon="-1.953">
        <ele>81</ele>
        <time>2021-05-08T11:46:20.000Z</time>
      </trkpt>
      <trkpt lat="47.15896" lon="-1.9532">
        <ele>81</ele>
        <time>2021-05-08T11:46:22.000Z</time>
      </trkpt>
      <trkpt lat="47.15896" lon="-1.9534">
        <ele>81</ele>
        <time>2021-05-08T11:46:24.000Z</time>
      </trkpt>
      <trkpt lat="47.15896" lon="-1.9537">
        <ele>80</ele>
        <time>2021-05-08T11:46:27.000Z</time>
      </trkpt>
      <trkpt lat="47.15895" lon="-1.95391">
        <ele>79</ele>
        <time>2021-05-08T11:46:29.000Z</time>
      </trkpt>
      <trkpt lat="47.15895" lon="-1.95413">
        <ele>79</ele>
        <time>2021-05-08T11:46:31.000Z</time>
      </trkpt>
      <trkpt lat="47.15896" lon="-1.95433">
        <ele>76</ele>
        <time>2021-05-08T11:46:33.000Z</time>
      </trkpt>
      <trkpt lat="47.15897" lon="-1.9545">
        <ele>74</ele>
        <time>2021-05-08T11:46:35.000Z</time>
      </trkpt>
      <trkpt lat="47.15896" lon="-1.9547">
        <ele>73</ele>
        <time>2021-05-08T11:46:37.000Z</time>
      </trkpt>
      <trkpt lat="47.15896" lon="-1.95496">
        <ele>73</ele>
        <time>2021-05-08T11:46:39.000Z</time>
      </trkpt>
      <trkpt lat="47.15896" lon="-1.9551">
        <ele>73</ele>
        <time>2021-05-08T11:46:40.000Z</time>
      </trkpt>
      <trkpt lat="47.15897" lon="-1.95535">
        <ele>74</ele>
        <time>2021-05-08T11:46:42.000Z</time>
      </trkpt>
      <trkpt lat="47.15898" lon="-1.95558">
        <ele>74</ele>
        <time>2021-05-08T11:46:44.000Z</time>
      </trkpt>
      <trkpt lat="47.15901" lon="-1.9558">
        <ele>75</ele>
        <time>2021-05-08T11:46:46.000Z</time>
      </trkpt>
      <trkpt lat="47.15905" lon="-1.956">
        <ele>75</ele>
        <time>2021-05-08T11:46:48.000Z</time>
      </trkpt>
      <trkpt lat="47.15911" lon="-1.95619">
        <ele>75</ele>
        <time>2021-05-08T11:46:50.000Z</time>
      </trkpt>
      <trkpt lat="47.15915" lon="-1.95637">
        <ele>74</ele>
        <time>2021-05-08T11:46:52.000Z</time>
      </trkpt>
      <trkpt lat="47.15923" lon="-1.95661">
        <ele>73</ele>
        <time>2021-05-08T11:46:55.000Z</time>
      </trkpt>
      <trkpt lat="47.15928" lon="-1.95675">
        <ele>73</ele>
        <time>2021-05-08T11:46:57.000Z</time>
      </trkpt>
      <trkpt lat="47.15933" lon="-1.95693">
        <ele>75</ele>
        <time>2021-05-08T11:46:59.000Z</time>
      </trkpt>
      <trkpt lat="47.15938" lon="-1.9571">
        <ele>74</ele>
        <time>2021-05-08T11:47:01.000Z</time>
      </trkpt>
      <trkpt lat="47.15943" lon="-1.95725">
        <ele>75</ele>
        <time>2021-05-08T11:47:03.000Z</time>
      </trkpt>
      <trkpt lat="47.15947" lon="-1.95741">
        <ele>75</ele>
        <time>2021-05-08T11:47:05.000Z</time>
      </trkpt>
      <trkpt lat="47.1595" lon="-1.95757">
        <ele>76</ele>
        <time>2021-05-08T11:47:07.000Z</time>
      </trkpt>
      <trkpt lat="47.15956" lon="-1.95781">
        <ele>77</ele>
        <time>2021-05-08T11:47:10.000Z</time>
      </trkpt>
      <trkpt lat="47.1596" lon="-1.95798">
        <ele>78</ele>
        <time>2021-05-08T11:47:12.000Z</time>
      </trkpt>
      <trkpt lat="47.15963" lon="-1.95814">
        <ele>78</ele>
        <time>2021-05-08T11:47:14.000Z</time>
      </trkpt>
      <trkpt lat="47.15967" lon="-1.9583">
        <ele>78</ele>
        <time>2021-05-08T11:47:16.000Z</time>
      </trkpt>
      <trkpt lat="47.1597" lon="-1.95845">
        <ele>78</ele>
        <time>2021-05-08T11:47:18.000Z</time>
      </trkpt>
      <trkpt lat="47.15975" lon="-1.95863">
        <ele>79</ele>
        <time>2021-05-08T11:47:20.000Z</time>
      </trkpt>
      <trkpt lat="47.1598" lon="-1.95878">
        <ele>80</ele>
        <time>2021-05-08T11:47:22.000Z</time>
      </trkpt>
      <trkpt lat="47.15987" lon="-1.95891">
        <ele>79</ele>
        <time>2021-05-08T11:47:24.000Z</time>
      </trkpt>
      <trkpt lat="47.15994" lon="-1.95905">
        <ele>81</ele>
        <time>2021-05-08T11:47:26.000Z</time>
      </trkpt>
      <trkpt lat="47.16002" lon="-1.95916">
        <ele>81</ele>
        <time>2021-05-08T11:47:28.000Z</time>
      </trkpt>
      <trkpt lat="47.16014" lon="-1.95936">
        <ele>81</ele>
        <time>2021-05-08T11:47:31.000Z</time>
      </trkpt>
      <trkpt lat="47.16024" lon="-1.9595">
        <ele>82</ele>
        <time>2021-05-08T11:47:33.000Z</time>
      </trkpt>
      <trkpt lat="47.16032" lon="-1.9596">
        <ele>82</ele>
        <time>2021-05-08T11:47:35.000Z</time>
      </trkpt>
      <trkpt lat="47.16038" lon="-1.95972">
        <ele>82</ele>
        <time>2021-05-08T11:47:38.000Z</time>
      </trkpt>
      <trkpt lat="47.16035" lon="-1.95985">
        <ele>82</ele>
        <time>2021-05-08T11:47:40.000Z</time>
      </trkpt>
      <trkpt lat="47.16029" lon="-1.95998">
        <ele>83</ele>
        <time>2021-05-08T11:47:42.000Z</time>
      </trkpt>
      <trkpt lat="47.16022" lon="-1.96012">
        <ele>83</ele>
        <time>2021-05-08T11:47:44.000Z</time>
      </trkpt>
      <trkpt lat="47.16015" lon="-1.96026">
        <ele>84</ele>
        <time>2021-05-08T11:47:46.000Z</time>
      </trkpt>
      <trkpt lat="47.16009" lon="-1.96041">
        <ele>84</ele>
        <time>2021-05-08T11:47:48.000Z</time>
      </trkpt>
      <trkpt lat="47.16003" lon="-1.96055">
        <ele>84</ele>
        <time>2021-05-08T11:47:50.000Z</time>
      </trkpt>
      <trkpt lat="47.15998" lon="-1.96069">
        <ele>84</ele>
        <time>2021-05-08T11:47:52.000Z</time>
      </trkpt>
      <trkpt lat="47.15992" lon="-1.96084">
        <ele>84</ele>
        <time>2021-05-08T11:47:54.000Z</time>
      </trkpt>
      <trkpt lat="47.15988" lon="-1.96099">
        <ele>84</ele>
        <time>2021-05-08T11:47:56.000Z</time>
      </trkpt>
      <trkpt lat="47.15982" lon="-1.96119">
        <ele>85</ele>
        <time>2021-05-08T11:47:59.000Z</time>
      </trkpt>
      <trkpt lat="47.15976" lon="-1.96142">
        <ele>87</ele>
        <time>2021-05-08T11:48:02.000Z</time>
      </trkpt>
      <trkpt lat="47.15973" lon="-1.96156">
        <ele>87</ele>
        <time>2021-05-08T11:48:04.000Z</time>
      </trkpt>
      <trkpt lat="47.15967" lon="-1.96173">
        <ele>87</ele>
        <time>2021-05-08T11:48:06.000Z</time>
      </trkpt>
      <trkpt lat="47.15962" lon="-1.96189">
        <ele>86</ele>
        <time>2021-05-08T11:48:08.000Z</time>
      </trkpt>
      <trkpt lat="47.15957" lon="-1.96206">
        <ele>84</ele>
        <time>2021-05-08T11:48:10.000Z</time>
      </trkpt>
      <trkpt lat="47.1595" lon="-1.96222">
        <ele>84</ele>
        <time>2021-05-08T11:48:12.000Z</time>
      </trkpt>
      <trkpt lat="47.15944" lon="-1.96237">
        <ele>84</ele>
        <time>2021-05-08T11:48:14.000Z</time>
      </trkpt>
      <trkpt lat="47.15937" lon="-1.9625">
        <ele>84</ele>
        <time>2021-05-08T11:48:16.000Z</time>
      </trkpt>
      <trkpt lat="47.15928" lon="-1.96262">
        <ele>84</ele>
        <time>2021-05-08T11:48:18.000Z</time>
      </trkpt>
      <trkpt lat="47.1592" lon="-1.96276">
        <ele>84</ele>
        <time>2021-05-08T11:48:20.000Z</time>
      </trkpt>
      <trkpt lat="47.15912" lon="-1.96291">
        <ele>84</ele>
        <time>2021-05-08T11:48:22.000Z</time>
      </trkpt>
      <trkpt lat="47.15904" lon="-1.96305">
        <ele>84</ele>
        <time>2021-05-08T11:48:24.000Z</time>
      </trkpt>
      <trkpt lat="47.15892" lon="-1.96326">
        <ele>84</ele>
        <time>2021-05-08T11:48:27.000Z</time>
      </trkpt>
      <trkpt lat="47.15884" lon="-1.96341">
        <ele>85</ele>
        <time>2021-05-08T11:48:29.000Z</time>
      </trkpt>
      <trkpt lat="47.15876" lon="-1.96356">
        <ele>85</ele>
        <time>2021-05-08T11:48:31.000Z</time>
      </trkpt>
      <trkpt lat="47.15868" lon="-1.96371">
        <ele>85</ele>
        <time>2021-05-08T11:48:33.000Z</time>
      </trkpt>
      <trkpt lat="47.1586" lon="-1.96385">
        <ele>85</ele>
        <time>2021-05-08T11:48:35.000Z</time>
      </trkpt>
      <trkpt lat="47.15852" lon="-1.96399">
        <ele>85</ele>
        <time>2021-05-08T11:48:37.000Z</time>
      </trkpt>
      <trkpt lat="47.15843" lon="-1.96414">
        <ele>85</ele>
        <time>2021-05-08T11:48:39.000Z</time>
      </trkpt>
      <trkpt lat="47.15836" lon="-1.96428">
        <ele>84</ele>
        <time>2021-05-08T11:48:41.000Z</time>
      </trkpt>
      <trkpt lat="47.15828" lon="-1.96443">
        <ele>84</ele>
        <time>2021-05-08T11:48:43.000Z</time>
      </trkpt>
      <trkpt lat="47.1582" lon="-1.96457">
        <ele>84</ele>
        <time>2021-05-08T11:48:45.000Z</time>
      </trkpt>
      <trkpt lat="47.15812" lon="-1.96471">
        <ele>84</ele>
        <time>2021-05-08T11:48:47.000Z</time>
      </trkpt>
      <trkpt lat="47.15805" lon="-1.96486">
        <ele>85</ele>
        <time>2021-05-08T11:48:49.000Z</time>
      </trkpt>
      <trkpt lat="47.15797" lon="-1.965">
        <ele>85</ele>
        <time>2021-05-08T11:48:51.000Z</time>
      </trkpt>
      <trkpt lat="47.15784" lon="-1.96521">
        <ele>85</ele>
        <time>2021-05-08T11:48:54.000Z</time>
      </trkpt>
      <trkpt lat="47.15776" lon="-1.96535">
        <ele>85</ele>
        <time>2021-05-08T11:48:56.000Z</time>
      </trkpt>
      <trkpt lat="47.15764" lon="-1.96556">
        <ele>85</ele>
        <time>2021-05-08T11:48:59.000Z</time>
      </trkpt>
      <trkpt lat="47.15756" lon="-1.9657">
        <ele>84</ele>
        <time>2021-05-08T11:49:01.000Z</time>
      </trkpt>
      <trkpt lat="47.15748" lon="-1.96583">
        <ele>84</ele>
        <time>2021-05-08T11:49:03.000Z</time>
      </trkpt>
      <trkpt lat="47.15741" lon="-1.96597">
        <ele>84</ele>
        <time>2021-05-08T11:49:05.000Z</time>
      </trkpt>
      <trkpt lat="47.15734" lon="-1.96612">
        <ele>84</ele>
        <time>2021-05-08T11:49:07.000Z</time>
      </trkpt>
      <trkpt lat="47.15726" lon="-1.96625">
        <ele>83</ele>
        <time>2021-05-08T11:49:09.000Z</time>
      </trkpt>
      <trkpt lat="47.15718" lon="-1.96638">
        <ele>83</ele>
        <time>2021-05-08T11:49:11.000Z</time>
      </trkpt>
      <trkpt lat="47.1571" lon="-1.96652">
        <ele>83</ele>
        <time>2021-05-08T11:49:13.000Z</time>
      </trkpt>
      <trkpt lat="47.15702" lon="-1.96666">
        <ele>82</ele>
        <time>2021-05-08T11:49:15.000Z</time>
      </trkpt>
      <trkpt lat="47.15696" lon="-1.96683">
        <ele>84</ele>
        <time>2021-05-08T11:49:17.000Z</time>
      </trkpt>
      <trkpt lat="47.15687" lon="-1.96696">
        <ele>83</ele>
        <time>2021-05-08T11:49:19.000Z</time>
      </trkpt>
      <trkpt lat="47.15677" lon="-1.9671">
        <ele>83</ele>
        <time>2021-05-08T11:49:21.000Z</time>
      </trkpt>
      <trkpt lat="47.15669" lon="-1.96725">
        <ele>82</ele>
        <time>2021-05-08T11:49:23.000Z</time>
      </trkpt>
      <trkpt lat="47.15659" lon="-1.9674">
        <ele>80</ele>
        <time>2021-05-08T11:49:25.000Z</time>
      </trkpt>
      <trkpt lat="47.15647" lon="-1.9676">
        <ele>74</ele>
        <time>2021-05-08T11:49:28.000Z</time>
      </trkpt>
      <trkpt lat="47.15641" lon="-1.96776">
        <ele>72</ele>
        <time>2021-05-08T11:49:30.000Z</time>
      </trkpt>
      <trkpt lat="47.15634" lon="-1.96804">
        <ele>73</ele>
        <time>2021-05-08T11:49:33.000Z</time>
      </trkpt>
      <trkpt lat="47.15632" lon="-1.96831">
        <ele>75</ele>
        <time>2021-05-08T11:49:36.000Z</time>
      </trkpt>
      <trkpt lat="47.15628" lon="-1.96851">
        <ele>76</ele>
        <time>2021-05-08T11:49:38.000Z</time>
      </trkpt>
      <trkpt lat="47.15624" lon="-1.9687">
        <ele>77</ele>
        <time>2021-05-08T11:49:40.000Z</time>
      </trkpt>
      <trkpt lat="47.15621" lon="-1.96888">
        <ele>79</ele>
        <time>2021-05-08T11:49:42.000Z</time>
      </trkpt>
      <trkpt lat="47.15618" lon="-1.96907">
        <ele>78</ele>
        <time>2021-05-08T11:49:44.000Z</time>
      </trkpt>
      <trkpt lat="47.15615" lon="-1.96925">
        <ele>79</ele>
        <time>2021-05-08T11:49:46.000Z</time>
      </trkpt>
      <trkpt lat="47.15611" lon="-1.96944">
        <ele>79</ele>
        <time>2021-05-08T11:49:48.000Z</time>
      </trkpt>
      <trkpt lat="47.15608" lon="-1.96962">
        <ele>79</ele>
        <time>2021-05-08T11:49:50.000Z</time>
      </trkpt>
      <trkpt lat="47.15603" lon="-1.9699">
        <ele>79</ele>
        <time>2021-05-08T11:49:53.000Z</time>
      </trkpt>
      <trkpt lat="47.15599" lon="-1.97008">
        <ele>80</ele>
        <time>2021-05-08T11:49:55.000Z</time>
      </trkpt>
      <trkpt lat="47.15592" lon="-1.97044">
        <ele>80</ele>
        <time>2021-05-08T11:49:59.000Z</time>
      </trkpt>
      <trkpt lat="47.15587" lon="-1.97059">
        <ele>76</ele>
        <time>2021-05-08T11:50:01.000Z</time>
      </trkpt>
      <trkpt lat="47.15583" lon="-1.97076">
        <ele>75</ele>
        <time>2021-05-08T11:50:03.000Z</time>
      </trkpt>
      <trkpt lat="47.15579" lon="-1.97097">
        <ele>76</ele>
        <time>2021-05-08T11:50:05.000Z</time>
      </trkpt>
      <trkpt lat="47.15576" lon="-1.97115">
        <ele>77</ele>
        <time>2021-05-08T11:50:07.000Z</time>
      </trkpt>
      <trkpt lat="47.15572" lon="-1.97136">
        <ele>77</ele>
        <time>2021-05-08T11:50:09.000Z</time>
      </trkpt>
      <trkpt lat="47.15569" lon="-1.97153">
        <ele>78</ele>
        <time>2021-05-08T11:50:11.000Z</time>
      </trkpt>
      <trkpt lat="47.15563" lon="-1.97181">
        <ele>78</ele>
        <time>2021-05-08T11:50:14.000Z</time>
      </trkpt>
      <trkpt lat="47.15559" lon="-1.972">
        <ele>79</ele>
        <time>2021-05-08T11:50:16.000Z</time>
      </trkpt>
      <trkpt lat="47.15555" lon="-1.97219">
        <ele>78</ele>
        <time>2021-05-08T11:50:18.000Z</time>
      </trkpt>
      <trkpt lat="47.15551" lon="-1.97239">
        <ele>78</ele>
        <time>2021-05-08T11:50:20.000Z</time>
      </trkpt>
      <trkpt lat="47.15548" lon="-1.97259">
        <ele>78</ele>
        <time>2021-05-08T11:50:22.000Z</time>
      </trkpt>
      <trkpt lat="47.15545" lon="-1.97278">
        <ele>77</ele>
        <time>2021-05-08T11:50:24.000Z</time>
      </trkpt>
      <trkpt lat="47.15541" lon="-1.97297">
        <ele>77</ele>
        <time>2021-05-08T11:50:26.000Z</time>
      </trkpt>
      <trkpt lat="47.15537" lon="-1.97316">
        <ele>77</ele>
        <time>2021-05-08T11:50:28.000Z</time>
      </trkpt>
      <trkpt lat="47.15534" lon="-1.97333">
        <ele>77</ele>
        <time>2021-05-08T11:50:30.000Z</time>
      </trkpt>
      <trkpt lat="47.15531" lon="-1.97347">
        <ele>74</ele>
        <time>2021-05-08T11:50:32.000Z</time>
      </trkpt>
      <trkpt lat="47.15528" lon="-1.97371">
        <ele>75</ele>
        <time>2021-05-08T11:50:34.000Z</time>
      </trkpt>
      <trkpt lat="47.15524" lon="-1.97391">
        <ele>75</ele>
        <time>2021-05-08T11:50:36.000Z</time>
      </trkpt>
      <trkpt lat="47.15521" lon="-1.97412">
        <ele>75</ele>
        <time>2021-05-08T11:50:38.000Z</time>
      </trkpt>
      <trkpt lat="47.15513" lon="-1.97448">
        <ele>76</ele>
        <time>2021-05-08T11:50:42.000Z</time>
      </trkpt>
      <trkpt lat="47.1551" lon="-1.97467">
        <ele>76</ele>
        <time>2021-05-08T11:50:44.000Z</time>
      </trkpt>
      <trkpt lat="47.15507" lon="-1.97487">
        <ele>75</ele>
        <time>2021-05-08T11:50:46.000Z</time>
      </trkpt>
      <trkpt lat="47.15502" lon="-1.97515">
        <ele>74</ele>
        <time>2021-05-08T11:50:49.000Z</time>
      </trkpt>
      <trkpt lat="47.15496" lon="-1.97542">
        <ele>74</ele>
        <time>2021-05-08T11:50:52.000Z</time>
      </trkpt>
      <trkpt lat="47.15492" lon="-1.97561">
        <ele>74</ele>
        <time>2021-05-08T11:50:54.000Z</time>
      </trkpt>
      <trkpt lat="47.15489" lon="-1.9758">
        <ele>71</ele>
        <time>2021-05-08T11:50:56.000Z</time>
      </trkpt>
      <trkpt lat="47.15486" lon="-1.97598">
        <ele>72</ele>
        <time>2021-05-08T11:50:58.000Z</time>
      </trkpt>
      <trkpt lat="47.15483" lon="-1.97616">
        <ele>72</ele>
        <time>2021-05-08T11:51:00.000Z</time>
      </trkpt>
      <trkpt lat="47.15481" lon="-1.97633">
        <ele>73</ele>
        <time>2021-05-08T11:51:02.000Z</time>
      </trkpt>
      <trkpt lat="47.15476" lon="-1.97652">
        <ele>73</ele>
        <time>2021-05-08T11:51:04.000Z</time>
      </trkpt>
      <trkpt lat="47.15473" lon="-1.97671">
        <ele>74</ele>
        <time>2021-05-08T11:51:06.000Z</time>
      </trkpt>
      <trkpt lat="47.15469" lon="-1.9769">
        <ele>74</ele>
        <time>2021-05-08T11:51:08.000Z</time>
      </trkpt>
      <trkpt lat="47.15465" lon="-1.97706">
        <ele>74</ele>
        <time>2021-05-08T11:51:10.000Z</time>
      </trkpt>
      <trkpt lat="47.15462" lon="-1.97727">
        <ele>73</ele>
        <time>2021-05-08T11:51:12.000Z</time>
      </trkpt>
      <trkpt lat="47.15458" lon="-1.97747">
        <ele>74</ele>
        <time>2021-05-08T11:51:14.000Z</time>
      </trkpt>
      <trkpt lat="47.15454" lon="-1.97766">
        <ele>74</ele>
        <time>2021-05-08T11:51:16.000Z</time>
      </trkpt>
      <trkpt lat="47.15452" lon="-1.97785">
        <ele>74</ele>
        <time>2021-05-08T11:51:18.000Z</time>
      </trkpt>
      <trkpt lat="47.15449" lon="-1.97805">
        <ele>74</ele>
        <time>2021-05-08T11:51:20.000Z</time>
      </trkpt>
      <trkpt lat="47.15446" lon="-1.97823">
        <ele>70</ele>
        <time>2021-05-08T11:51:22.000Z</time>
      </trkpt>
      <trkpt lat="47.15444" lon="-1.9784">
        <ele>66</ele>
        <time>2021-05-08T11:51:24.000Z</time>
      </trkpt>
      <trkpt lat="47.15442" lon="-1.97859">
        <ele>67</ele>
        <time>2021-05-08T11:51:26.000Z</time>
      </trkpt>
      <trkpt lat="47.15441" lon="-1.97877">
        <ele>68</ele>
        <time>2021-05-08T11:51:28.000Z</time>
      </trkpt>
      <trkpt lat="47.1544" lon="-1.97905">
        <ele>69</ele>
        <time>2021-05-08T11:51:31.000Z</time>
      </trkpt>
      <trkpt lat="47.1544" lon="-1.97932">
        <ele>68</ele>
        <time>2021-05-08T11:51:34.000Z</time>
      </trkpt>
      <trkpt lat="47.15441" lon="-1.97951">
        <ele>66</ele>
        <time>2021-05-08T11:51:36.000Z</time>
      </trkpt>
      <trkpt lat="47.15439" lon="-1.97969">
        <ele>68</ele>
        <time>2021-05-08T11:51:38.000Z</time>
      </trkpt>
      <trkpt lat="47.15437" lon="-1.97986">
        <ele>71</ele>
        <time>2021-05-08T11:51:40.000Z</time>
      </trkpt>
      <trkpt lat="47.15436" lon="-1.98004">
        <ele>72</ele>
        <time>2021-05-08T11:51:42.000Z</time>
      </trkpt>
      <trkpt lat="47.15435" lon="-1.9802">
        <ele>73</ele>
        <time>2021-05-08T11:51:44.000Z</time>
      </trkpt>
      <trkpt lat="47.15435" lon="-1.98039">
        <ele>73</ele>
        <time>2021-05-08T11:51:46.000Z</time>
      </trkpt>
      <trkpt lat="47.15434" lon="-1.98057">
        <ele>73</ele>
        <time>2021-05-08T11:51:48.000Z</time>
      </trkpt>
      <trkpt lat="47.15434" lon="-1.98075">
        <ele>73</ele>
        <time>2021-05-08T11:51:50.000Z</time>
      </trkpt>
      <trkpt lat="47.15433" lon="-1.98094">
        <ele>74</ele>
        <time>2021-05-08T11:51:52.000Z</time>
      </trkpt>
      <trkpt lat="47.15432" lon="-1.98111">
        <ele>74</ele>
        <time>2021-05-08T11:51:54.000Z</time>
      </trkpt>
      <trkpt lat="47.15432" lon="-1.9813">
        <ele>74</ele>
        <time>2021-05-08T11:51:56.000Z</time>
      </trkpt>
      <trkpt lat="47.15431" lon="-1.98148">
        <ele>75</ele>
        <time>2021-05-08T11:51:58.000Z</time>
      </trkpt>
      <trkpt lat="47.1543" lon="-1.98166">
        <ele>75</ele>
        <time>2021-05-08T11:52:00.000Z</time>
      </trkpt>
      <trkpt lat="47.15429" lon="-1.98184">
        <ele>76</ele>
        <time>2021-05-08T11:52:02.000Z</time>
      </trkpt>
      <trkpt lat="47.15428" lon="-1.98202">
        <ele>75</ele>
        <time>2021-05-08T11:52:04.000Z</time>
      </trkpt>
      <trkpt lat="47.15428" lon="-1.98229">
        <ele>75</ele>
        <time>2021-05-08T11:52:07.000Z</time>
      </trkpt>
      <trkpt lat="47.15426" lon="-1.98257">
        <ele>75</ele>
        <time>2021-05-08T11:52:10.000Z</time>
      </trkpt>
      <trkpt lat="47.15425" lon="-1.98275">
        <ele>75</ele>
        <time>2021-05-08T11:52:12.000Z</time>
      </trkpt>
      <trkpt lat="47.15423" lon="-1.98294">
        <ele>75</ele>
        <time>2021-05-08T11:52:14.000Z</time>
      </trkpt>
      <trkpt lat="47.1542" lon="-1.98313">
        <ele>75</ele>
        <time>2021-05-08T11:52:16.000Z</time>
      </trkpt>
      <trkpt lat="47.15415" lon="-1.98328">
        <ele>74</ele>
        <time>2021-05-08T11:52:18.000Z</time>
      </trkpt>
      <trkpt lat="47.15405" lon="-1.98354">
        <ele>75</ele>
        <time>2021-05-08T11:52:21.000Z</time>
      </trkpt>
      <trkpt lat="47.15395" lon="-1.98367">
        <ele>72</ele>
        <time>2021-05-08T11:52:23.000Z</time>
      </trkpt>
      <trkpt lat="47.15385" lon="-1.98381">
        <ele>69</ele>
        <time>2021-05-08T11:52:25.000Z</time>
      </trkpt>
      <trkpt lat="47.15378" lon="-1.98393">
        <ele>71</ele>
        <time>2021-05-08T11:52:27.000Z</time>
      </trkpt>
      <trkpt lat="47.15368" lon="-1.98404">
        <ele>72</ele>
        <time>2021-05-08T11:52:29.000Z</time>
      </trkpt>
      <trkpt lat="47.15352" lon="-1.9842">
        <ele>73</ele>
        <time>2021-05-08T11:52:32.000Z</time>
      </trkpt>
      <trkpt lat="47.15343" lon="-1.98431">
        <ele>74</ele>
        <time>2021-05-08T11:52:34.000Z</time>
      </trkpt>
      <trkpt lat="47.15332" lon="-1.98441">
        <ele>74</ele>
        <time>2021-05-08T11:52:36.000Z</time>
      </trkpt>
      <trkpt lat="47.1532" lon="-1.98448">
        <ele>74</ele>
        <time>2021-05-08T11:52:38.000Z</time>
      </trkpt>
      <trkpt lat="47.15309" lon="-1.98456">
        <ele>74</ele>
        <time>2021-05-08T11:52:40.000Z</time>
      </trkpt>
      <trkpt lat="47.15296" lon="-1.98461">
        <ele>73</ele>
        <time>2021-05-08T11:52:42.000Z</time>
      </trkpt>
      <trkpt lat="47.15277" lon="-1.98466">
        <ele>75</ele>
        <time>2021-05-08T11:52:45.000Z</time>
      </trkpt>
      <trkpt lat="47.15266" lon="-1.98471">
        <ele>76</ele>
        <time>2021-05-08T11:52:47.000Z</time>
      </trkpt>
      <trkpt lat="47.15255" lon="-1.98477">
        <ele>77</ele>
        <time>2021-05-08T11:52:49.000Z</time>
      </trkpt>
      <trkpt lat="47.15243" lon="-1.98482">
        <ele>76</ele>
        <time>2021-05-08T11:52:51.000Z</time>
      </trkpt>
      <trkpt lat="47.15231" lon="-1.98487">
        <ele>76</ele>
        <time>2021-05-08T11:52:53.000Z</time>
      </trkpt>
      <trkpt lat="47.15215" lon="-1.98494">
        <ele>77</ele>
        <time>2021-05-08T11:52:56.000Z</time>
      </trkpt>
      <trkpt lat="47.15204" lon="-1.98503">
        <ele>78</ele>
        <time>2021-05-08T11:52:58.000Z</time>
      </trkpt>
      <trkpt lat="47.15193" lon="-1.98506">
        <ele>77</ele>
        <time>2021-05-08T11:53:00.000Z</time>
      </trkpt>
      <trkpt lat="47.15176" lon="-1.98512">
        <ele>78</ele>
        <time>2021-05-08T11:53:03.000Z</time>
      </trkpt>
      <trkpt lat="47.15164" lon="-1.98517">
        <ele>78</ele>
        <time>2021-05-08T11:53:05.000Z</time>
      </trkpt>
      <trkpt lat="47.15152" lon="-1.98522">
        <ele>78</ele>
        <time>2021-05-08T11:53:07.000Z</time>
      </trkpt>
      <trkpt lat="47.15141" lon="-1.98526">
        <ele>79</ele>
        <time>2021-05-08T11:53:09.000Z</time>
      </trkpt>
      <trkpt lat="47.15134" lon="-1.98534">
        <ele>79</ele>
        <time>2021-05-08T11:53:11.000Z</time>
      </trkpt>
      <trkpt lat="47.15133" lon="-1.98549">
        <ele>77</ele>
        <time>2021-05-08T11:53:13.000Z</time>
      </trkpt>
      <trkpt lat="47.15135" lon="-1.98567">
        <ele>76</ele>
        <time>2021-05-08T11:53:15.000Z</time>
      </trkpt>
      <trkpt lat="47.15136" lon="-1.98586">
        <ele>77</ele>
        <time>2021-05-08T11:53:17.000Z</time>
      </trkpt>
      <trkpt lat="47.15134" lon="-1.98604">
        <ele>76</ele>
        <time>2021-05-08T11:53:19.000Z</time>
      </trkpt>
      <trkpt lat="47.15132" lon="-1.98621">
        <ele>75</ele>
        <time>2021-05-08T11:53:21.000Z</time>
      </trkpt>
      <trkpt lat="47.15131" lon="-1.98638">
        <ele>74</ele>
        <time>2021-05-08T11:53:23.000Z</time>
      </trkpt>
      <trkpt lat="47.15124" lon="-1.98652">
        <ele>75</ele>
        <time>2021-05-08T11:53:25.000Z</time>
      </trkpt>
      <trkpt lat="47.15108" lon="-1.98664">
        <ele>75</ele>
        <time>2021-05-08T11:53:28.000Z</time>
      </trkpt>
      <trkpt lat="47.15098" lon="-1.98674">
        <ele>75</ele>
        <time>2021-05-08T11:53:30.000Z</time>
      </trkpt>
      <trkpt lat="47.15087" lon="-1.98683">
        <ele>74</ele>
        <time>2021-05-08T11:53:32.000Z</time>
      </trkpt>
      <trkpt lat="47.15075" lon="-1.98692">
        <ele>70</ele>
        <time>2021-05-08T11:53:34.000Z</time>
      </trkpt>
      <trkpt lat="47.15065" lon="-1.98703">
        <ele>70</ele>
        <time>2021-05-08T11:53:36.000Z</time>
      </trkpt>
      <trkpt lat="47.15055" lon="-1.98713">
        <ele>70</ele>
        <time>2021-05-08T11:53:38.000Z</time>
      </trkpt>
      <trkpt lat="47.15045" lon="-1.98724">
        <ele>71</ele>
        <time>2021-05-08T11:53:40.000Z</time>
      </trkpt>
      <trkpt lat="47.15035" lon="-1.98734">
        <ele>71</ele>
        <time>2021-05-08T11:53:42.000Z</time>
      </trkpt>
      <trkpt lat="47.15024" lon="-1.98745">
        <ele>71</ele>
        <time>2021-05-08T11:53:44.000Z</time>
      </trkpt>
      <trkpt lat="47.15014" lon="-1.98755">
        <ele>71</ele>
        <time>2021-05-08T11:53:46.000Z</time>
      </trkpt>
      <trkpt lat="47.15004" lon="-1.98765">
        <ele>71</ele>
        <time>2021-05-08T11:53:48.000Z</time>
      </trkpt>
      <trkpt lat="47.14994" lon="-1.98775">
        <ele>72</ele>
        <time>2021-05-08T11:53:50.000Z</time>
      </trkpt>
      <trkpt lat="47.14983" lon="-1.98785">
        <ele>73</ele>
        <time>2021-05-08T11:53:52.000Z</time>
      </trkpt>
      <trkpt lat="47.14973" lon="-1.98796">
        <ele>72</ele>
        <time>2021-05-08T11:53:54.000Z</time>
      </trkpt>
      <trkpt lat="47.14963" lon="-1.98808">
        <ele>72</ele>
        <time>2021-05-08T11:53:56.000Z</time>
      </trkpt>
      <trkpt lat="47.14953" lon="-1.98821">
        <ele>71</ele>
        <time>2021-05-08T11:53:58.000Z</time>
      </trkpt>
      <trkpt lat="47.14943" lon="-1.98833">
        <ele>71</ele>
        <time>2021-05-08T11:54:00.000Z</time>
      </trkpt>
      <trkpt lat="47.14934" lon="-1.98845">
        <ele>70</ele>
        <time>2021-05-08T11:54:02.000Z</time>
      </trkpt>
      <trkpt lat="47.14923" lon="-1.98857">
        <ele>70</ele>
        <time>2021-05-08T11:54:04.000Z</time>
      </trkpt>
      <trkpt lat="47.1491" lon="-1.98878">
        <ele>69</ele>
        <time>2021-05-08T11:54:07.000Z</time>
      </trkpt>
      <trkpt lat="47.14899" lon="-1.98892">
        <ele>69</ele>
        <time>2021-05-08T11:54:09.000Z</time>
      </trkpt>
      <trkpt lat="47.1489" lon="-1.98906">
        <ele>68</ele>
        <time>2021-05-08T11:54:11.000Z</time>
      </trkpt>
      <trkpt lat="47.14877" lon="-1.98928">
        <ele>66</ele>
        <time>2021-05-08T11:54:14.000Z</time>
      </trkpt>
      <trkpt lat="47.1486" lon="-1.98948">
        <ele>65</ele>
        <time>2021-05-08T11:54:17.000Z</time>
      </trkpt>
      <trkpt lat="47.1485" lon="-1.98962">
        <ele>65</ele>
        <time>2021-05-08T11:54:19.000Z</time>
      </trkpt>
      <trkpt lat="47.1484" lon="-1.98976">
        <ele>65</ele>
        <time>2021-05-08T11:54:21.000Z</time>
      </trkpt>
      <trkpt lat="47.1483" lon="-1.98989">
        <ele>65</ele>
        <time>2021-05-08T11:54:23.000Z</time>
      </trkpt>
      <trkpt lat="47.1482" lon="-1.99003">
        <ele>65</ele>
        <time>2021-05-08T11:54:25.000Z</time>
      </trkpt>
      <trkpt lat="47.14811" lon="-1.99017">
        <ele>64</ele>
        <time>2021-05-08T11:54:27.000Z</time>
      </trkpt>
      <trkpt lat="47.14804" lon="-1.9903">
        <ele>64</ele>
        <time>2021-05-08T11:54:29.000Z</time>
      </trkpt>
      <trkpt lat="47.14794" lon="-1.99043">
        <ele>65</ele>
        <time>2021-05-08T11:54:31.000Z</time>
      </trkpt>
      <trkpt lat="47.1478" lon="-1.99064">
        <ele>65</ele>
        <time>2021-05-08T11:54:34.000Z</time>
      </trkpt>
      <trkpt lat="47.14772" lon="-1.99078">
        <ele>65</ele>
        <time>2021-05-08T11:54:36.000Z</time>
      </trkpt>
      <trkpt lat="47.14761" lon="-1.99092">
        <ele>63</ele>
        <time>2021-05-08T11:54:38.000Z</time>
      </trkpt>
      <trkpt lat="47.14752" lon="-1.99107">
        <ele>62</ele>
        <time>2021-05-08T11:54:40.000Z</time>
      </trkpt>
      <trkpt lat="47.14743" lon="-1.9912">
        <ele>63</ele>
        <time>2021-05-08T11:54:42.000Z</time>
      </trkpt>
      <trkpt lat="47.1473" lon="-1.99142">
        <ele>63</ele>
        <time>2021-05-08T11:54:45.000Z</time>
      </trkpt>
      <trkpt lat="47.14721" lon="-1.99156">
        <ele>63</ele>
        <time>2021-05-08T11:54:47.000Z</time>
      </trkpt>
      <trkpt lat="47.14713" lon="-1.99171">
        <ele>63</ele>
        <time>2021-05-08T11:54:49.000Z</time>
      </trkpt>
      <trkpt lat="47.14706" lon="-1.99186">
        <ele>62</ele>
        <time>2021-05-08T11:54:51.000Z</time>
      </trkpt>
      <trkpt lat="47.14699" lon="-1.99203">
        <ele>63</ele>
        <time>2021-05-08T11:54:53.000Z</time>
      </trkpt>
      <trkpt lat="47.14691" lon="-1.99217">
        <ele>64</ele>
        <time>2021-05-08T11:54:55.000Z</time>
      </trkpt>
      <trkpt lat="47.14683" lon="-1.99231">
        <ele>64</ele>
        <time>2021-05-08T11:54:57.000Z</time>
      </trkpt>
      <trkpt lat="47.14676" lon="-1.99245">
        <ele>64</ele>
        <time>2021-05-08T11:54:59.000Z</time>
      </trkpt>
      <trkpt lat="47.1467" lon="-1.9926">
        <ele>64</ele>
        <time>2021-05-08T11:55:01.000Z</time>
      </trkpt>
      <trkpt lat="47.1466" lon="-1.99274">
        <ele>64</ele>
        <time>2021-05-08T11:55:03.000Z</time>
      </trkpt>
      <trkpt lat="47.14652" lon="-1.99289">
        <ele>63</ele>
        <time>2021-05-08T11:55:05.000Z</time>
      </trkpt>
      <trkpt lat="47.14641" lon="-1.99311">
        <ele>63</ele>
        <time>2021-05-08T11:55:08.000Z</time>
      </trkpt>
      <trkpt lat="47.14631" lon="-1.99324">
        <ele>64</ele>
        <time>2021-05-08T11:55:10.000Z</time>
      </trkpt>
      <trkpt lat="47.14623" lon="-1.99338">
        <ele>64</ele>
        <time>2021-05-08T11:55:12.000Z</time>
      </trkpt>
      <trkpt lat="47.14616" lon="-1.99352">
        <ele>64</ele>
        <time>2021-05-08T11:55:14.000Z</time>
      </trkpt>
      <trkpt lat="47.14605" lon="-1.99376">
        <ele>64</ele>
        <time>2021-05-08T11:55:17.000Z</time>
      </trkpt>
      <trkpt lat="47.14597" lon="-1.99389">
        <ele>65</ele>
        <time>2021-05-08T11:55:19.000Z</time>
      </trkpt>
      <trkpt lat="47.14588" lon="-1.99403">
        <ele>65</ele>
        <time>2021-05-08T11:55:21.000Z</time>
      </trkpt>
      <trkpt lat="47.1458" lon="-1.99418">
        <ele>65</ele>
        <time>2021-05-08T11:55:23.000Z</time>
      </trkpt>
      <trkpt lat="47.14566" lon="-1.99436">
        <ele>62</ele>
        <time>2021-05-08T11:55:26.000Z</time>
      </trkpt>
      <trkpt lat="47.1456" lon="-1.99454">
        <ele>63</ele>
        <time>2021-05-08T11:55:28.000Z</time>
      </trkpt>
      <trkpt lat="47.14552" lon="-1.99469">
        <ele>63</ele>
        <time>2021-05-08T11:55:30.000Z</time>
      </trkpt>
      <trkpt lat="47.14543" lon="-1.99485">
        <ele>63</ele>
        <time>2021-05-08T11:55:32.000Z</time>
      </trkpt>
      <trkpt lat="47.14534" lon="-1.99501">
        <ele>64</ele>
        <time>2021-05-08T11:55:34.000Z</time>
      </trkpt>
      <trkpt lat="47.14526" lon="-1.99516">
        <ele>64</ele>
        <time>2021-05-08T11:55:36.000Z</time>
      </trkpt>
      <trkpt lat="47.14517" lon="-1.99532">
        <ele>64</ele>
        <time>2021-05-08T11:55:38.000Z</time>
      </trkpt>
      <trkpt lat="47.14508" lon="-1.99547">
        <ele>64</ele>
        <time>2021-05-08T11:55:40.000Z</time>
      </trkpt>
      <trkpt lat="47.14493" lon="-1.99574">
        <ele>60</ele>
        <time>2021-05-08T11:55:43.000Z</time>
      </trkpt>
      <trkpt lat="47.14481" lon="-1.99599">
        <ele>61</ele>
        <time>2021-05-08T11:55:46.000Z</time>
      </trkpt>
      <trkpt lat="47.14472" lon="-1.99615">
        <ele>61</ele>
        <time>2021-05-08T11:55:48.000Z</time>
      </trkpt>
      <trkpt lat="47.14463" lon="-1.9963">
        <ele>62</ele>
        <time>2021-05-08T11:55:50.000Z</time>
      </trkpt>
      <trkpt lat="47.14455" lon="-1.99646">
        <ele>62</ele>
        <time>2021-05-08T11:55:52.000Z</time>
      </trkpt>
      <trkpt lat="47.14443" lon="-1.9967">
        <ele>63</ele>
        <time>2021-05-08T11:55:55.000Z</time>
      </trkpt>
      <trkpt lat="47.14434" lon="-1.99687">
        <ele>62</ele>
        <time>2021-05-08T11:55:57.000Z</time>
      </trkpt>
      <trkpt lat="47.14425" lon="-1.99702">
        <ele>62</ele>
        <time>2021-05-08T11:55:59.000Z</time>
      </trkpt>
      <trkpt lat="47.14416" lon="-1.99716">
        <ele>62</ele>
        <time>2021-05-08T11:56:01.000Z</time>
      </trkpt>
      <trkpt lat="47.14407" lon="-1.9973">
        <ele>62</ele>
        <time>2021-05-08T11:56:03.000Z</time>
      </trkpt>
      <trkpt lat="47.14398" lon="-1.99745">
        <ele>62</ele>
        <time>2021-05-08T11:56:05.000Z</time>
      </trkpt>
      <trkpt lat="47.1439" lon="-1.99759">
        <ele>62</ele>
        <time>2021-05-08T11:56:07.000Z</time>
      </trkpt>
      <trkpt lat="47.14381" lon="-1.99774">
        <ele>62</ele>
        <time>2021-05-08T11:56:09.000Z</time>
      </trkpt>
      <trkpt lat="47.14372" lon="-1.99788">
        <ele>62</ele>
        <time>2021-05-08T11:56:11.000Z</time>
      </trkpt>
      <trkpt lat="47.14363" lon="-1.99803">
        <ele>62</ele>
        <time>2021-05-08T11:56:13.000Z</time>
      </trkpt>
      <trkpt lat="47.14353" lon="-1.99818">
        <ele>62</ele>
        <time>2021-05-08T11:56:15.000Z</time>
      </trkpt>
      <trkpt lat="47.14341" lon="-1.99841">
        <ele>62</ele>
        <time>2021-05-08T11:56:18.000Z</time>
      </trkpt>
      <trkpt lat="47.14332" lon="-1.99855">
        <ele>62</ele>
        <time>2021-05-08T11:56:20.000Z</time>
      </trkpt>
      <trkpt lat="47.14324" lon="-1.99868">
        <ele>61</ele>
        <time>2021-05-08T11:56:22.000Z</time>
      </trkpt>
      <trkpt lat="47.14316" lon="-1.99881">
        <ele>61</ele>
        <time>2021-05-08T11:56:24.000Z</time>
      </trkpt>
      <trkpt lat="47.14307" lon="-1.99895">
        <ele>60</ele>
        <time>2021-05-08T11:56:26.000Z</time>
      </trkpt>
      <trkpt lat="47.14298" lon="-1.99909">
        <ele>60</ele>
        <time>2021-05-08T11:56:28.000Z</time>
      </trkpt>
      <trkpt lat="47.14289" lon="-1.99921">
        <ele>61</ele>
        <time>2021-05-08T11:56:30.000Z</time>
      </trkpt>
      <trkpt lat="47.1428" lon="-1.99934">
        <ele>60</ele>
        <time>2021-05-08T11:56:32.000Z</time>
      </trkpt>
      <trkpt lat="47.14272" lon="-1.99948">
        <ele>60</ele>
        <time>2021-05-08T11:56:34.000Z</time>
      </trkpt>
      <trkpt lat="47.14264" lon="-1.99962">
        <ele>60</ele>
        <time>2021-05-08T11:56:36.000Z</time>
      </trkpt>
      <trkpt lat="47.14255" lon="-1.99976">
        <ele>60</ele>
        <time>2021-05-08T11:56:38.000Z</time>
      </trkpt>
      <trkpt lat="47.14247" lon="-1.9999">
        <ele>60</ele>
        <time>2021-05-08T11:56:40.000Z</time>
      </trkpt>
      <trkpt lat="47.14238" lon="-2.00004">
        <ele>60</ele>
        <time>2021-05-08T11:56:42.000Z</time>
      </trkpt>
      <trkpt lat="47.14229" lon="-2.00017">
        <ele>60</ele>
        <time>2021-05-08T11:56:44.000Z</time>
      </trkpt>
      <trkpt lat="47.14221" lon="-2.0003">
        <ele>60</ele>
        <time>2021-05-08T11:56:46.000Z</time>
      </trkpt>
      <trkpt lat="47.14211" lon="-2.00049">
        <ele>57</ele>
        <time>2021-05-08T11:56:49.000Z</time>
      </trkpt>
      <trkpt lat="47.14203" lon="-2.00062">
        <ele>58</ele>
        <time>2021-05-08T11:56:51.000Z</time>
      </trkpt>
      <trkpt lat="47.14189" lon="-2.00083">
        <ele>59</ele>
        <time>2021-05-08T11:56:54.000Z</time>
      </trkpt>
      <trkpt lat="47.1418" lon="-2.00098">
        <ele>57</ele>
        <time>2021-05-08T11:56:56.000Z</time>
      </trkpt>
      <trkpt lat="47.14172" lon="-2.00115">
        <ele>57</ele>
        <time>2021-05-08T11:56:58.000Z</time>
      </trkpt>
      <trkpt lat="47.14162" lon="-2.00129">
        <ele>58</ele>
        <time>2021-05-08T11:57:00.000Z</time>
      </trkpt>
      <trkpt lat="47.14152" lon="-2.00144">
        <ele>58</ele>
        <time>2021-05-08T11:57:02.000Z</time>
      </trkpt>
      <trkpt lat="47.14139" lon="-2.00164">
        <ele>58</ele>
        <time>2021-05-08T11:57:05.000Z</time>
      </trkpt>
      <trkpt lat="47.14131" lon="-2.00177">
        <ele>59</ele>
        <time>2021-05-08T11:57:07.000Z</time>
      </trkpt>
      <trkpt lat="47.14123" lon="-2.00191">
        <ele>60</ele>
        <time>2021-05-08T11:57:09.000Z</time>
      </trkpt>
      <trkpt lat="47.14113" lon="-2.00205">
        <ele>59</ele>
        <time>2021-05-08T11:57:11.000Z</time>
      </trkpt>
      <trkpt lat="47.14105" lon="-2.00219">
        <ele>59</ele>
        <time>2021-05-08T11:57:13.000Z</time>
      </trkpt>
      <trkpt lat="47.14097" lon="-2.00234">
        <ele>59</ele>
        <time>2021-05-08T11:57:15.000Z</time>
      </trkpt>
      <trkpt lat="47.14089" lon="-2.00248">
        <ele>59</ele>
        <time>2021-05-08T11:57:17.000Z</time>
      </trkpt>
      <trkpt lat="47.14081" lon="-2.00263">
        <ele>59</ele>
        <time>2021-05-08T11:57:19.000Z</time>
      </trkpt>
      <trkpt lat="47.14074" lon="-2.00279">
        <ele>59</ele>
        <time>2021-05-08T11:57:21.000Z</time>
      </trkpt>
      <trkpt lat="47.14066" lon="-2.00294">
        <ele>59</ele>
        <time>2021-05-08T11:57:23.000Z</time>
      </trkpt>
      <trkpt lat="47.14055" lon="-2.00317">
        <ele>59</ele>
        <time>2021-05-08T11:57:26.000Z</time>
      </trkpt>
      <trkpt lat="47.14047" lon="-2.00333">
        <ele>59</ele>
        <time>2021-05-08T11:57:28.000Z</time>
      </trkpt>
      <trkpt lat="47.14039" lon="-2.00348">
        <ele>58</ele>
        <time>2021-05-08T11:57:30.000Z</time>
      </trkpt>
      <trkpt lat="47.14029" lon="-2.00371">
        <ele>58</ele>
        <time>2021-05-08T11:57:33.000Z</time>
      </trkpt>
      <trkpt lat="47.14019" lon="-2.00393">
        <ele>57</ele>
        <time>2021-05-08T11:57:36.000Z</time>
      </trkpt>
      <trkpt lat="47.14007" lon="-2.00413">
        <ele>56</ele>
        <time>2021-05-08T11:57:39.000Z</time>
      </trkpt>
      <trkpt lat="47.14" lon="-2.00429">
        <ele>56</ele>
        <time>2021-05-08T11:57:41.000Z</time>
      </trkpt>
      <trkpt lat="47.13994" lon="-2.00445">
        <ele>57</ele>
        <time>2021-05-08T11:57:43.000Z</time>
      </trkpt>
      <trkpt lat="47.13983" lon="-2.00467">
        <ele>57</ele>
        <time>2021-05-08T11:57:46.000Z</time>
      </trkpt>
      <trkpt lat="47.13975" lon="-2.00482">
        <ele>58</ele>
        <time>2021-05-08T11:57:48.000Z</time>
      </trkpt>
      <trkpt lat="47.13968" lon="-2.00497">
        <ele>58</ele>
        <time>2021-05-08T11:57:50.000Z</time>
      </trkpt>
      <trkpt lat="47.13961" lon="-2.00512">
        <ele>58</ele>
        <time>2021-05-08T11:57:52.000Z</time>
      </trkpt>
      <trkpt lat="47.13954" lon="-2.00528">
        <ele>59</ele>
        <time>2021-05-08T11:57:54.000Z</time>
      </trkpt>
      <trkpt lat="47.13947" lon="-2.00543">
        <ele>59</ele>
        <time>2021-05-08T11:57:56.000Z</time>
      </trkpt>
      <trkpt lat="47.1394" lon="-2.00559">
        <ele>59</ele>
        <time>2021-05-08T11:57:58.000Z</time>
      </trkpt>
      <trkpt lat="47.13932" lon="-2.00574">
        <ele>59</ele>
        <time>2021-05-08T11:58:00.000Z</time>
      </trkpt>
      <trkpt lat="47.13925" lon="-2.0059">
        <ele>58</ele>
        <time>2021-05-08T11:58:02.000Z</time>
      </trkpt>
      <trkpt lat="47.13918" lon="-2.00605">
        <ele>59</ele>
        <time>2021-05-08T11:58:04.000Z</time>
      </trkpt>
      <trkpt lat="47.13911" lon="-2.00621">
        <ele>59</ele>
        <time>2021-05-08T11:58:06.000Z</time>
      </trkpt>
      <trkpt lat="47.13904" lon="-2.00635">
        <ele>59</ele>
        <time>2021-05-08T11:58:08.000Z</time>
      </trkpt>
      <trkpt lat="47.13895" lon="-2.00657">
        <ele>59</ele>
        <time>2021-05-08T11:58:11.000Z</time>
      </trkpt>
      <trkpt lat="47.13888" lon="-2.00673">
        <ele>58</ele>
        <time>2021-05-08T11:58:13.000Z</time>
      </trkpt>
      <trkpt lat="47.13881" lon="-2.00688">
        <ele>57</ele>
        <time>2021-05-08T11:58:15.000Z</time>
      </trkpt>
      <trkpt lat="47.13872" lon="-2.00704">
        <ele>56</ele>
        <time>2021-05-08T11:58:17.000Z</time>
      </trkpt>
      <trkpt lat="47.13865" lon="-2.00718">
        <ele>54</ele>
        <time>2021-05-08T11:58:19.000Z</time>
      </trkpt>
      <trkpt lat="47.1386" lon="-2.0073">
        <ele>56</ele>
        <time>2021-05-08T11:58:21.000Z</time>
      </trkpt>
      <trkpt lat="47.13852" lon="-2.00744">
        <ele>56</ele>
        <time>2021-05-08T11:58:23.000Z</time>
      </trkpt>
      <trkpt lat="47.13843" lon="-2.00756">
        <ele>54</ele>
        <time>2021-05-08T11:58:25.000Z</time>
      </trkpt>
      <trkpt lat="47.13836" lon="-2.00777">
        <ele>57</ele>
        <time>2021-05-08T11:58:28.000Z</time>
      </trkpt>
      <trkpt lat="47.1383" lon="-2.00791">
        <ele>58</ele>
        <time>2021-05-08T11:58:30.000Z</time>
      </trkpt>
      <trkpt lat="47.13825" lon="-2.00805">
        <ele>58</ele>
        <time>2021-05-08T11:58:32.000Z</time>
      </trkpt>
      <trkpt lat="47.13818" lon="-2.00819">
        <ele>59</ele>
        <time>2021-05-08T11:58:34.000Z</time>
      </trkpt>
      <trkpt lat="47.13811" lon="-2.00832">
        <ele>59</ele>
        <time>2021-05-08T11:58:36.000Z</time>
      </trkpt>
      <trkpt lat="47.13796" lon="-2.00861">
        <ele>60</ele>
        <time>2021-05-08T11:58:40.000Z</time>
      </trkpt>
      <trkpt lat="47.13791" lon="-2.00875">
        <ele>60</ele>
        <time>2021-05-08T11:58:42.000Z</time>
      </trkpt>
      <trkpt lat="47.13784" lon="-2.0089">
        <ele>59</ele>
        <time>2021-05-08T11:58:44.000Z</time>
      </trkpt>
      <trkpt lat="47.13777" lon="-2.00903">
        <ele>60</ele>
        <time>2021-05-08T11:58:46.000Z</time>
      </trkpt>
      <trkpt lat="47.13768" lon="-2.00923">
        <ele>60</ele>
        <time>2021-05-08T11:58:49.000Z</time>
      </trkpt>
      <trkpt lat="47.13761" lon="-2.00937">
        <ele>60</ele>
        <time>2021-05-08T11:58:51.000Z</time>
      </trkpt>
      <trkpt lat="47.13755" lon="-2.00951">
        <ele>59</ele>
        <time>2021-05-08T11:58:53.000Z</time>
      </trkpt>
      <trkpt lat="47.13749" lon="-2.00966">
        <ele>59</ele>
        <time>2021-05-08T11:58:55.000Z</time>
      </trkpt>
      <trkpt lat="47.13744" lon="-2.00982">
        <ele>60</ele>
        <time>2021-05-08T11:58:57.000Z</time>
      </trkpt>
      <trkpt lat="47.13737" lon="-2.00995">
        <ele>60</ele>
        <time>2021-05-08T11:58:59.000Z</time>
      </trkpt>
      <trkpt lat="47.13731" lon="-2.01011">
        <ele>60</ele>
        <time>2021-05-08T11:59:01.000Z</time>
      </trkpt>
      <trkpt lat="47.13726" lon="-2.01026">
        <ele>61</ele>
        <time>2021-05-08T11:59:03.000Z</time>
      </trkpt>
      <trkpt lat="47.13721" lon="-2.01049">
        <ele>60</ele>
        <time>2021-05-08T11:59:06.000Z</time>
      </trkpt>
      <trkpt lat="47.13716" lon="-2.01065">
        <ele>61</ele>
        <time>2021-05-08T11:59:08.000Z</time>
      </trkpt>
      <trkpt lat="47.13711" lon="-2.0108">
        <ele>61</ele>
        <time>2021-05-08T11:59:10.000Z</time>
      </trkpt>
      <trkpt lat="47.13707" lon="-2.01094">
        <ele>61</ele>
        <time>2021-05-08T11:59:12.000Z</time>
      </trkpt>
      <trkpt lat="47.13702" lon="-2.01109">
        <ele>61</ele>
        <time>2021-05-08T11:59:14.000Z</time>
      </trkpt>
      <trkpt lat="47.13697" lon="-2.01123">
        <ele>61</ele>
        <time>2021-05-08T11:59:16.000Z</time>
      </trkpt>
      <trkpt lat="47.1369" lon="-2.01146">
        <ele>62</ele>
        <time>2021-05-08T11:59:19.000Z</time>
      </trkpt>
      <trkpt lat="47.13685" lon="-2.01161">
        <ele>62</ele>
        <time>2021-05-08T11:59:21.000Z</time>
      </trkpt>
      <trkpt lat="47.13681" lon="-2.01176">
        <ele>62</ele>
        <time>2021-05-08T11:59:23.000Z</time>
      </trkpt>
      <trkpt lat="47.13676" lon="-2.01191">
        <ele>62</ele>
        <time>2021-05-08T11:59:25.000Z</time>
      </trkpt>
      <trkpt lat="47.13669" lon="-2.01214">
        <ele>62</ele>
        <time>2021-05-08T11:59:28.000Z</time>
      </trkpt>
      <trkpt lat="47.13664" lon="-2.0123">
        <ele>62</ele>
        <time>2021-05-08T11:59:30.000Z</time>
      </trkpt>
      <trkpt lat="47.13659" lon="-2.01246">
        <ele>62</ele>
        <time>2021-05-08T11:59:32.000Z</time>
      </trkpt>
      <trkpt lat="47.13654" lon="-2.01262">
        <ele>62</ele>
        <time>2021-05-08T11:59:34.000Z</time>
      </trkpt>
      <trkpt lat="47.13651" lon="-2.01281">
        <ele>62</ele>
        <time>2021-05-08T11:59:36.000Z</time>
      </trkpt>
      <trkpt lat="47.13643" lon="-2.01295">
        <ele>63</ele>
        <time>2021-05-08T11:59:38.000Z</time>
      </trkpt>
      <trkpt lat="47.13638" lon="-2.0131">
        <ele>63</ele>
        <time>2021-05-08T11:59:40.000Z</time>
      </trkpt>
      <trkpt lat="47.13631" lon="-2.01335">
        <ele>62</ele>
        <time>2021-05-08T11:59:43.000Z</time>
      </trkpt>
      <trkpt lat="47.13626" lon="-2.01352">
        <ele>63</ele>
        <time>2021-05-08T11:59:45.000Z</time>
      </trkpt>
      <trkpt lat="47.13621" lon="-2.01368">
        <ele>63</ele>
        <time>2021-05-08T11:59:47.000Z</time>
      </trkpt>
      <trkpt lat="47.13616" lon="-2.01384">
        <ele>63</ele>
        <time>2021-05-08T11:59:49.000Z</time>
      </trkpt>
      <trkpt lat="47.13609" lon="-2.0141">
        <ele>62</ele>
        <time>2021-05-08T11:59:52.000Z</time>
      </trkpt>
      <trkpt lat="47.13603" lon="-2.01427">
        <ele>62</ele>
        <time>2021-05-08T11:59:54.000Z</time>
      </trkpt>
      <trkpt lat="47.13598" lon="-2.01443">
        <ele>62</ele>
        <time>2021-05-08T11:59:56.000Z</time>
      </trkpt>
      <trkpt lat="47.13593" lon="-2.01459">
        <ele>62</ele>
        <time>2021-05-08T11:59:58.000Z</time>
      </trkpt>
      <trkpt lat="47.13588" lon="-2.01476">
        <ele>62</ele>
        <time>2021-05-08T12:00:00.000Z</time>
      </trkpt>
      <trkpt lat="47.13583" lon="-2.01493">
        <ele>61</ele>
        <time>2021-05-08T12:00:02.000Z</time>
      </trkpt>
      <trkpt lat="47.13577" lon="-2.0151">
        <ele>62</ele>
        <time>2021-05-08T12:00:04.000Z</time>
      </trkpt>
      <trkpt lat="47.13572" lon="-2.01527">
        <ele>62</ele>
        <time>2021-05-08T12:00:06.000Z</time>
      </trkpt>
      <trkpt lat="47.13568" lon="-2.01543">
        <ele>62</ele>
        <time>2021-05-08T12:00:08.000Z</time>
      </trkpt>
      <trkpt lat="47.13564" lon="-2.0156">
        <ele>62</ele>
        <time>2021-05-08T12:00:10.000Z</time>
      </trkpt>
      <trkpt lat="47.13561" lon="-2.01577">
        <ele>62</ele>
        <time>2021-05-08T12:00:12.000Z</time>
      </trkpt>
      <trkpt lat="47.13558" lon="-2.01596">
        <ele>62</ele>
        <time>2021-05-08T12:00:14.000Z</time>
      </trkpt>
      <trkpt lat="47.13555" lon="-2.01615">
        <ele>62</ele>
        <time>2021-05-08T12:00:16.000Z</time>
      </trkpt>
      <trkpt lat="47.13553" lon="-2.01634">
        <ele>62</ele>
        <time>2021-05-08T12:00:18.000Z</time>
      </trkpt>
      <trkpt lat="47.13551" lon="-2.01653">
        <ele>61</ele>
        <time>2021-05-08T12:00:20.000Z</time>
      </trkpt>
      <trkpt lat="47.13548" lon="-2.01674">
        <ele>60</ele>
        <time>2021-05-08T12:00:22.000Z</time>
      </trkpt>
      <trkpt lat="47.13546" lon="-2.01704">
        <ele>60</ele>
        <time>2021-05-08T12:00:25.000Z</time>
      </trkpt>
      <trkpt lat="47.13545" lon="-2.01732">
        <ele>61</ele>
        <time>2021-05-08T12:00:28.000Z</time>
      </trkpt>
      <trkpt lat="47.13541" lon="-2.01762">
        <ele>61</ele>
        <time>2021-05-08T12:00:31.000Z</time>
      </trkpt>
      <trkpt lat="47.13537" lon="-2.01783">
        <ele>61</ele>
        <time>2021-05-08T12:00:33.000Z</time>
      </trkpt>
      <trkpt lat="47.13534" lon="-2.01804">
        <ele>60</ele>
        <time>2021-05-08T12:00:35.000Z</time>
      </trkpt>
      <trkpt lat="47.13532" lon="-2.01825">
        <ele>60</ele>
        <time>2021-05-08T12:00:37.000Z</time>
      </trkpt>
      <trkpt lat="47.13529" lon="-2.01846">
        <ele>60</ele>
        <time>2021-05-08T12:00:39.000Z</time>
      </trkpt>
      <trkpt lat="47.13527" lon="-2.01868">
        <ele>59</ele>
        <time>2021-05-08T12:00:41.000Z</time>
      </trkpt>
      <trkpt lat="47.13525" lon="-2.01889">
        <ele>59</ele>
        <time>2021-05-08T12:00:43.000Z</time>
      </trkpt>
      <trkpt lat="47.13522" lon="-2.01911">
        <ele>58</ele>
        <time>2021-05-08T12:00:45.000Z</time>
      </trkpt>
      <trkpt lat="47.13519" lon="-2.01932">
        <ele>58</ele>
        <time>2021-05-08T12:00:47.000Z</time>
      </trkpt>
      <trkpt lat="47.13516" lon="-2.01954">
        <ele>57</ele>
        <time>2021-05-08T12:00:49.000Z</time>
      </trkpt>
      <trkpt lat="47.13514" lon="-2.01972">
        <ele>57</ele>
        <time>2021-05-08T12:00:51.000Z</time>
      </trkpt>
      <trkpt lat="47.13512" lon="-2.01989">
        <ele>57</ele>
        <time>2021-05-08T12:00:53.000Z</time>
      </trkpt>
      <trkpt lat="47.1351" lon="-2.02007">
        <ele>57</ele>
        <time>2021-05-08T12:00:55.000Z</time>
      </trkpt>
      <trkpt lat="47.13508" lon="-2.02026">
        <ele>57</ele>
        <time>2021-05-08T12:00:57.000Z</time>
      </trkpt>
      <trkpt lat="47.13505" lon="-2.02045">
        <ele>57</ele>
        <time>2021-05-08T12:00:59.000Z</time>
      </trkpt>
      <trkpt lat="47.13504" lon="-2.02064">
        <ele>56</ele>
        <time>2021-05-08T12:01:01.000Z</time>
      </trkpt>
      <trkpt lat="47.13502" lon="-2.02083">
        <ele>56</ele>
        <time>2021-05-08T12:01:03.000Z</time>
      </trkpt>
      <trkpt lat="47.135" lon="-2.02101">
        <ele>56</ele>
        <time>2021-05-08T12:01:05.000Z</time>
      </trkpt>
      <trkpt lat="47.13497" lon="-2.02119">
        <ele>56</ele>
        <time>2021-05-08T12:01:07.000Z</time>
      </trkpt>
      <trkpt lat="47.13495" lon="-2.02138">
        <ele>56</ele>
        <time>2021-05-08T12:01:09.000Z</time>
      </trkpt>
      <trkpt lat="47.13492" lon="-2.02158">
        <ele>56</ele>
        <time>2021-05-08T12:01:11.000Z</time>
      </trkpt>
      <trkpt lat="47.13488" lon="-2.02177">
        <ele>55</ele>
        <time>2021-05-08T12:01:13.000Z</time>
      </trkpt>
      <trkpt lat="47.13486" lon="-2.02196">
        <ele>55</ele>
        <time>2021-05-08T12:01:15.000Z</time>
      </trkpt>
      <trkpt lat="47.13482" lon="-2.02225">
        <ele>55</ele>
        <time>2021-05-08T12:01:18.000Z</time>
      </trkpt>
      <trkpt lat="47.13477" lon="-2.02245">
        <ele>52</ele>
        <time>2021-05-08T12:01:20.000Z</time>
      </trkpt>
      <trkpt lat="47.13473" lon="-2.02264">
        <ele>54</ele>
        <time>2021-05-08T12:01:22.000Z</time>
      </trkpt>
      <trkpt lat="47.13469" lon="-2.02283">
        <ele>55</ele>
        <time>2021-05-08T12:01:24.000Z</time>
      </trkpt>
      <trkpt lat="47.13461" lon="-2.02311">
        <ele>52</ele>
        <time>2021-05-08T12:01:27.000Z</time>
      </trkpt>
      <trkpt lat="47.13456" lon="-2.0233">
        <ele>49</ele>
        <time>2021-05-08T12:01:29.000Z</time>
      </trkpt>
      <trkpt lat="47.1345" lon="-2.02347">
        <ele>52</ele>
        <time>2021-05-08T12:01:31.000Z</time>
      </trkpt>
      <trkpt lat="47.13443" lon="-2.02363">
        <ele>53</ele>
        <time>2021-05-08T12:01:33.000Z</time>
      </trkpt>
      <trkpt lat="47.13433" lon="-2.02388">
        <ele>54</ele>
        <time>2021-05-08T12:01:36.000Z</time>
      </trkpt>
      <trkpt lat="47.13426" lon="-2.02405">
        <ele>55</ele>
        <time>2021-05-08T12:01:38.000Z</time>
      </trkpt>
      <trkpt lat="47.13419" lon="-2.02421">
        <ele>55</ele>
        <time>2021-05-08T12:01:40.000Z</time>
      </trkpt>
      <trkpt lat="47.13409" lon="-2.02446">
        <ele>55</ele>
        <time>2021-05-08T12:01:43.000Z</time>
      </trkpt>
      <trkpt lat="47.13401" lon="-2.02464">
        <ele>55</ele>
        <time>2021-05-08T12:01:45.000Z</time>
      </trkpt>
      <trkpt lat="47.13394" lon="-2.0248">
        <ele>56</ele>
        <time>2021-05-08T12:01:47.000Z</time>
      </trkpt>
      <trkpt lat="47.13387" lon="-2.02495">
        <ele>56</ele>
        <time>2021-05-08T12:01:49.000Z</time>
      </trkpt>
      <trkpt lat="47.13381" lon="-2.02511">
        <ele>57</ele>
        <time>2021-05-08T12:01:51.000Z</time>
      </trkpt>
      <trkpt lat="47.13374" lon="-2.02528">
        <ele>57</ele>
        <time>2021-05-08T12:01:53.000Z</time>
      </trkpt>
      <trkpt lat="47.13367" lon="-2.02544">
        <ele>57</ele>
        <time>2021-05-08T12:01:55.000Z</time>
      </trkpt>
      <trkpt lat="47.13361" lon="-2.02561">
        <ele>56</ele>
        <time>2021-05-08T12:01:57.000Z</time>
      </trkpt>
      <trkpt lat="47.13352" lon="-2.02587">
        <ele>58</ele>
        <time>2021-05-08T12:02:00.000Z</time>
      </trkpt>
      <trkpt lat="47.13341" lon="-2.02612">
        <ele>58</ele>
        <time>2021-05-08T12:02:03.000Z</time>
      </trkpt>
      <trkpt lat="47.13333" lon="-2.02627">
        <ele>58</ele>
        <time>2021-05-08T12:02:05.000Z</time>
      </trkpt>
      <trkpt lat="47.13326" lon="-2.02643">
        <ele>57</ele>
        <time>2021-05-08T12:02:07.000Z</time>
      </trkpt>
      <trkpt lat="47.13318" lon="-2.0266">
        <ele>54</ele>
        <time>2021-05-08T12:02:09.000Z</time>
      </trkpt>
      <trkpt lat="47.13311" lon="-2.02676">
        <ele>55</ele>
        <time>2021-05-08T12:02:11.000Z</time>
      </trkpt>
      <trkpt lat="47.133" lon="-2.02701">
        <ele>53</ele>
        <time>2021-05-08T12:02:14.000Z</time>
      </trkpt>
      <trkpt lat="47.13293" lon="-2.02717">
        <ele>54</ele>
        <time>2021-05-08T12:02:16.000Z</time>
      </trkpt>
      <trkpt lat="47.13287" lon="-2.02734">
        <ele>56</ele>
        <time>2021-05-08T12:02:18.000Z</time>
      </trkpt>
      <trkpt lat="47.13282" lon="-2.0275">
        <ele>57</ele>
        <time>2021-05-08T12:02:20.000Z</time>
      </trkpt>
      <trkpt lat="47.13273" lon="-2.02775">
        <ele>57</ele>
        <time>2021-05-08T12:02:23.000Z</time>
      </trkpt>
      <trkpt lat="47.13268" lon="-2.02792">
        <ele>58</ele>
        <time>2021-05-08T12:02:25.000Z</time>
      </trkpt>
      <trkpt lat="47.13263" lon="-2.0281">
        <ele>58</ele>
        <time>2021-05-08T12:02:27.000Z</time>
      </trkpt>
      <trkpt lat="47.13258" lon="-2.02829">
        <ele>58</ele>
        <time>2021-05-08T12:02:29.000Z</time>
      </trkpt>
      <trkpt lat="47.13254" lon="-2.02849">
        <ele>58</ele>
        <time>2021-05-08T12:02:31.000Z</time>
      </trkpt>
      <trkpt lat="47.13249" lon="-2.02867">
        <ele>58</ele>
        <time>2021-05-08T12:02:33.000Z</time>
      </trkpt>
      <trkpt lat="47.13245" lon="-2.02886">
        <ele>59</ele>
        <time>2021-05-08T12:02:35.000Z</time>
      </trkpt>
      <trkpt lat="47.13238" lon="-2.02914">
        <ele>59</ele>
        <time>2021-05-08T12:02:38.000Z</time>
      </trkpt>
      <trkpt lat="47.13233" lon="-2.02933">
        <ele>58</ele>
        <time>2021-05-08T12:02:40.000Z</time>
      </trkpt>
      <trkpt lat="47.13228" lon="-2.02951">
        <ele>58</ele>
        <time>2021-05-08T12:02:42.000Z</time>
      </trkpt>
      <trkpt lat="47.13225" lon="-2.02971">
        <ele>59</ele>
        <time>2021-05-08T12:02:44.000Z</time>
      </trkpt>
      <trkpt lat="47.13219" lon="-2.02988">
        <ele>59</ele>
        <time>2021-05-08T12:02:46.000Z</time>
      </trkpt>
      <trkpt lat="47.13209" lon="-2.03026">
        <ele>58</ele>
        <time>2021-05-08T12:02:50.000Z</time>
      </trkpt>
      <trkpt lat="47.13202" lon="-2.03044">
        <ele>56</ele>
        <time>2021-05-08T12:02:52.000Z</time>
      </trkpt>
      <trkpt lat="47.13193" lon="-2.03061">
        <ele>55</ele>
        <time>2021-05-08T12:02:54.000Z</time>
      </trkpt>
      <trkpt lat="47.13188" lon="-2.0308">
        <ele>55</ele>
        <time>2021-05-08T12:02:56.000Z</time>
      </trkpt>
      <trkpt lat="47.13183" lon="-2.03111">
        <ele>54</ele>
        <time>2021-05-08T12:02:59.000Z</time>
      </trkpt>
      <trkpt lat="47.13178" lon="-2.03129">
        <ele>54</ele>
        <time>2021-05-08T12:03:01.000Z</time>
      </trkpt>
      <trkpt lat="47.13171" lon="-2.03146">
        <ele>54</ele>
        <time>2021-05-08T12:03:03.000Z</time>
      </trkpt>
      <trkpt lat="47.13165" lon="-2.03164">
        <ele>54</ele>
        <time>2021-05-08T12:03:05.000Z</time>
      </trkpt>
      <trkpt lat="47.13158" lon="-2.03183">
        <ele>54</ele>
        <time>2021-05-08T12:03:07.000Z</time>
      </trkpt>
      <trkpt lat="47.13152" lon="-2.032">
        <ele>54</ele>
        <time>2021-05-08T12:03:09.000Z</time>
      </trkpt>
      <trkpt lat="47.13147" lon="-2.03217">
        <ele>55</ele>
        <time>2021-05-08T12:03:11.000Z</time>
      </trkpt>
      <trkpt lat="47.13141" lon="-2.03234">
        <ele>55</ele>
        <time>2021-05-08T12:03:13.000Z</time>
      </trkpt>
      <trkpt lat="47.13132" lon="-2.03262">
        <ele>54</ele>
        <time>2021-05-08T12:03:16.000Z</time>
      </trkpt>
      <trkpt lat="47.13124" lon="-2.03289">
        <ele>54</ele>
        <time>2021-05-08T12:03:19.000Z</time>
      </trkpt>
      <trkpt lat="47.13119" lon="-2.03306">
        <ele>54</ele>
        <time>2021-05-08T12:03:21.000Z</time>
      </trkpt>
      <trkpt lat="47.13114" lon="-2.03323">
        <ele>55</ele>
        <time>2021-05-08T12:03:23.000Z</time>
      </trkpt>
      <trkpt lat="47.13107" lon="-2.03341">
        <ele>55</ele>
        <time>2021-05-08T12:03:25.000Z</time>
      </trkpt>
      <trkpt lat="47.13101" lon="-2.03359">
        <ele>54</ele>
        <time>2021-05-08T12:03:27.000Z</time>
      </trkpt>
      <trkpt lat="47.13097" lon="-2.03377">
        <ele>53</ele>
        <time>2021-05-08T12:03:29.000Z</time>
      </trkpt>
      <trkpt lat="47.13093" lon="-2.03394">
        <ele>51</ele>
        <time>2021-05-08T12:03:31.000Z</time>
      </trkpt>
      <trkpt lat="47.13091" lon="-2.03414">
        <ele>53</ele>
        <time>2021-05-08T12:03:33.000Z</time>
      </trkpt>
      <trkpt lat="47.13088" lon="-2.03433">
        <ele>53</ele>
        <time>2021-05-08T12:03:35.000Z</time>
      </trkpt>
      <trkpt lat="47.13085" lon="-2.03453">
        <ele>54</ele>
        <time>2021-05-08T12:03:37.000Z</time>
      </trkpt>
      <trkpt lat="47.13081" lon="-2.0347">
        <ele>54</ele>
        <time>2021-05-08T12:03:39.000Z</time>
      </trkpt>
      <trkpt lat="47.13078" lon="-2.03489">
        <ele>54</ele>
        <time>2021-05-08T12:03:41.000Z</time>
      </trkpt>
      <trkpt lat="47.13075" lon="-2.03517">
        <ele>53</ele>
        <time>2021-05-08T12:03:44.000Z</time>
      </trkpt>
      <trkpt lat="47.13073" lon="-2.03538">
        <ele>51</ele>
        <time>2021-05-08T12:03:46.000Z</time>
      </trkpt>
      <trkpt lat="47.1307" lon="-2.03558">
        <ele>51</ele>
        <time>2021-05-08T12:03:48.000Z</time>
      </trkpt>
      <trkpt lat="47.13065" lon="-2.03577">
        <ele>51</ele>
        <time>2021-05-08T12:03:50.000Z</time>
      </trkpt>
      <trkpt lat="47.1306" lon="-2.03596">
        <ele>50</ele>
        <time>2021-05-08T12:03:52.000Z</time>
      </trkpt>
      <trkpt lat="47.13055" lon="-2.03613">
        <ele>49</ele>
        <time>2021-05-08T12:03:54.000Z</time>
      </trkpt>
      <trkpt lat="47.13048" lon="-2.03632">
        <ele>49</ele>
        <time>2021-05-08T12:03:56.000Z</time>
      </trkpt>
      <trkpt lat="47.13038" lon="-2.0365">
        <ele>49</ele>
        <time>2021-05-08T12:03:58.000Z</time>
      </trkpt>
      <trkpt lat="47.13029" lon="-2.03678">
        <ele>50</ele>
        <time>2021-05-08T12:04:01.000Z</time>
      </trkpt>
      <trkpt lat="47.13028" lon="-2.03698">
        <ele>48</ele>
        <time>2021-05-08T12:04:03.000Z</time>
      </trkpt>
      <trkpt lat="47.1303" lon="-2.03718">
        <ele>49</ele>
        <time>2021-05-08T12:04:05.000Z</time>
      </trkpt>
      <trkpt lat="47.13035" lon="-2.03739">
        <ele>48</ele>
        <time>2021-05-08T12:04:07.000Z</time>
      </trkpt>
      <trkpt lat="47.13041" lon="-2.03759">
        <ele>47</ele>
        <time>2021-05-08T12:04:09.000Z</time>
      </trkpt>
      <trkpt lat="47.13046" lon="-2.03779">
        <ele>49</ele>
        <time>2021-05-08T12:04:11.000Z</time>
      </trkpt>
      <trkpt lat="47.13052" lon="-2.03797">
        <ele>50</ele>
        <time>2021-05-08T12:04:13.000Z</time>
      </trkpt>
      <trkpt lat="47.13057" lon="-2.03816">
        <ele>51</ele>
        <time>2021-05-08T12:04:15.000Z</time>
      </trkpt>
      <trkpt lat="47.13062" lon="-2.03835">
        <ele>52</ele>
        <time>2021-05-08T12:04:17.000Z</time>
      </trkpt>
      <trkpt lat="47.13067" lon="-2.03854">
        <ele>52</ele>
        <time>2021-05-08T12:04:19.000Z</time>
      </trkpt>
      <trkpt lat="47.13073" lon="-2.03883">
        <ele>52</ele>
        <time>2021-05-08T12:04:22.000Z</time>
      </trkpt>
      <trkpt lat="47.13075" lon="-2.03902">
        <ele>53</ele>
        <time>2021-05-08T12:04:24.000Z</time>
      </trkpt>
      <trkpt lat="47.13077" lon="-2.03923">
        <ele>53</ele>
        <time>2021-05-08T12:04:26.000Z</time>
      </trkpt>
      <trkpt lat="47.13078" lon="-2.03944">
        <ele>53</ele>
        <time>2021-05-08T12:04:28.000Z</time>
      </trkpt>
      <trkpt lat="47.1308" lon="-2.03974">
        <ele>53</ele>
        <time>2021-05-08T12:04:31.000Z</time>
      </trkpt>
      <trkpt lat="47.13082" lon="-2.03994">
        <ele>53</ele>
        <time>2021-05-08T12:04:33.000Z</time>
      </trkpt>
      <trkpt lat="47.13083" lon="-2.04014">
        <ele>54</ele>
        <time>2021-05-08T12:04:35.000Z</time>
      </trkpt>
      <trkpt lat="47.13087" lon="-2.04042">
        <ele>54</ele>
        <time>2021-05-08T12:04:38.000Z</time>
      </trkpt>
      <trkpt lat="47.13088" lon="-2.0406">
        <ele>53</ele>
        <time>2021-05-08T12:04:40.000Z</time>
      </trkpt>
      <trkpt lat="47.1309" lon="-2.04079">
        <ele>53</ele>
        <time>2021-05-08T12:04:42.000Z</time>
      </trkpt>
      <trkpt lat="47.13093" lon="-2.04098">
        <ele>51</ele>
        <time>2021-05-08T12:04:44.000Z</time>
      </trkpt>
      <trkpt lat="47.13095" lon="-2.0412">
        <ele>51</ele>
        <time>2021-05-08T12:04:46.000Z</time>
      </trkpt>
      <trkpt lat="47.13095" lon="-2.04138">
        <ele>51</ele>
        <time>2021-05-08T12:04:48.000Z</time>
      </trkpt>
      <trkpt lat="47.13097" lon="-2.04167">
        <ele>52</ele>
        <time>2021-05-08T12:04:51.000Z</time>
      </trkpt>
      <trkpt lat="47.13098" lon="-2.04186">
        <ele>51</ele>
        <time>2021-05-08T12:04:53.000Z</time>
      </trkpt>
      <trkpt lat="47.13099" lon="-2.04205">
        <ele>51</ele>
        <time>2021-05-08T12:04:55.000Z</time>
      </trkpt>
      <trkpt lat="47.13101" lon="-2.04225">
        <ele>52</ele>
        <time>2021-05-08T12:04:57.000Z</time>
      </trkpt>
      <trkpt lat="47.13101" lon="-2.04246">
        <ele>52</ele>
        <time>2021-05-08T12:04:59.000Z</time>
      </trkpt>
      <trkpt lat="47.13101" lon="-2.04264">
        <ele>52</ele>
        <time>2021-05-08T12:05:01.000Z</time>
      </trkpt>
      <trkpt lat="47.13102" lon="-2.04282">
        <ele>53</ele>
        <time>2021-05-08T12:05:03.000Z</time>
      </trkpt>
      <trkpt lat="47.13104" lon="-2.043">
        <ele>54</ele>
        <time>2021-05-08T12:05:05.000Z</time>
      </trkpt>
      <trkpt lat="47.13106" lon="-2.04318">
        <ele>55</ele>
        <time>2021-05-08T12:05:07.000Z</time>
      </trkpt>
      <trkpt lat="47.13108" lon="-2.04339">
        <ele>55</ele>
        <time>2021-05-08T12:05:09.000Z</time>
      </trkpt>
      <trkpt lat="47.13107" lon="-2.04359">
        <ele>55</ele>
        <time>2021-05-08T12:05:11.000Z</time>
      </trkpt>
      <trkpt lat="47.13104" lon="-2.04378">
        <ele>55</ele>
        <time>2021-05-08T12:05:13.000Z</time>
      </trkpt>
      <trkpt lat="47.13098" lon="-2.04395">
        <ele>56</ele>
        <time>2021-05-08T12:05:15.000Z</time>
      </trkpt>
      <trkpt lat="47.1309" lon="-2.04412">
        <ele>56</ele>
        <time>2021-05-08T12:05:17.000Z</time>
      </trkpt>
      <trkpt lat="47.13079" lon="-2.04436">
        <ele>55</ele>
        <time>2021-05-08T12:05:20.000Z</time>
      </trkpt>
      <trkpt lat="47.13071" lon="-2.04451">
        <ele>56</ele>
        <time>2021-05-08T12:05:22.000Z</time>
      </trkpt>
      <trkpt lat="47.13061" lon="-2.04464">
        <ele>55</ele>
        <time>2021-05-08T12:05:24.000Z</time>
      </trkpt>
      <trkpt lat="47.1305" lon="-2.04478">
        <ele>55</ele>
        <time>2021-05-08T12:05:26.000Z</time>
      </trkpt>
      <trkpt lat="47.13041" lon="-2.04494">
        <ele>56</ele>
        <time>2021-05-08T12:05:28.000Z</time>
      </trkpt>
      <trkpt lat="47.13032" lon="-2.04508">
        <ele>55</ele>
        <time>2021-05-08T12:05:30.000Z</time>
      </trkpt>
      <trkpt lat="47.13018" lon="-2.04529">
        <ele>55</ele>
        <time>2021-05-08T12:05:33.000Z</time>
      </trkpt>
      <trkpt lat="47.13009" lon="-2.04543">
        <ele>56</ele>
        <time>2021-05-08T12:05:35.000Z</time>
      </trkpt>
      <trkpt lat="47.13" lon="-2.04558">
        <ele>56</ele>
        <time>2021-05-08T12:05:37.000Z</time>
      </trkpt>
      <trkpt lat="47.12992" lon="-2.04572">
        <ele>56</ele>
        <time>2021-05-08T12:05:39.000Z</time>
      </trkpt>
      <trkpt lat="47.12984" lon="-2.04587">
        <ele>56</ele>
        <time>2021-05-08T12:05:41.000Z</time>
      </trkpt>
      <trkpt lat="47.12976" lon="-2.04601">
        <ele>56</ele>
        <time>2021-05-08T12:05:43.000Z</time>
      </trkpt>
      <trkpt lat="47.12968" lon="-2.04615">
        <ele>56</ele>
        <time>2021-05-08T12:05:45.000Z</time>
      </trkpt>
      <trkpt lat="47.1296" lon="-2.0463">
        <ele>56</ele>
        <time>2021-05-08T12:05:47.000Z</time>
      </trkpt>
      <trkpt lat="47.12954" lon="-2.04644">
        <ele>57</ele>
        <time>2021-05-08T12:05:49.000Z</time>
      </trkpt>
      <trkpt lat="47.12951" lon="-2.04663">
        <ele>56</ele>
        <time>2021-05-08T12:05:51.000Z</time>
      </trkpt>
      <trkpt lat="47.12949" lon="-2.04682">
        <ele>56</ele>
        <time>2021-05-08T12:05:53.000Z</time>
      </trkpt>
      <trkpt lat="47.12948" lon="-2.04701">
        <ele>55</ele>
        <time>2021-05-08T12:05:55.000Z</time>
      </trkpt>
      <trkpt lat="47.12948" lon="-2.04719">
        <ele>55</ele>
        <time>2021-05-08T12:05:57.000Z</time>
      </trkpt>
      <trkpt lat="47.12947" lon="-2.04734">
        <ele>55</ele>
        <time>2021-05-08T12:05:59.000Z</time>
      </trkpt>
      <trkpt lat="47.12948" lon="-2.04749">
        <ele>55</ele>
        <time>2021-05-08T12:06:01.000Z</time>
      </trkpt>
      <trkpt lat="47.12948" lon="-2.04762">
        <ele>54</ele>
        <time>2021-05-08T12:06:03.000Z</time>
      </trkpt>
      <trkpt lat="47.1295" lon="-2.04781">
        <ele>54</ele>
        <time>2021-05-08T12:06:07.000Z</time>
      </trkpt>
      <trkpt lat="47.1295" lon="-2.04805">
        <ele>53</ele>
        <time>2021-05-08T12:06:10.000Z</time>
      </trkpt>
      <trkpt lat="47.12952" lon="-2.04831">
        <ele>54</ele>
        <time>2021-05-08T12:06:13.000Z</time>
      </trkpt>
      <trkpt lat="47.12952" lon="-2.04845">
        <ele>55</ele>
        <time>2021-05-08T12:06:15.000Z</time>
      </trkpt>
      <trkpt lat="47.12952" lon="-2.04861">
        <ele>56</ele>
        <time>2021-05-08T12:06:17.000Z</time>
      </trkpt>
      <trkpt lat="47.12954" lon="-2.04892">
        <ele>57</ele>
        <time>2021-05-08T12:06:21.000Z</time>
      </trkpt>
      <trkpt lat="47.12957" lon="-2.04906">
        <ele>55</ele>
        <time>2021-05-08T12:06:23.000Z</time>
      </trkpt>
      <trkpt lat="47.12962" lon="-2.04922">
        <ele>54</ele>
        <time>2021-05-08T12:06:25.000Z</time>
      </trkpt>
      <trkpt lat="47.12966" lon="-2.04938">
        <ele>54</ele>
        <time>2021-05-08T12:06:27.000Z</time>
      </trkpt>
      <trkpt lat="47.12971" lon="-2.04952">
        <ele>55</ele>
        <time>2021-05-08T12:06:29.000Z</time>
      </trkpt>
      <trkpt lat="47.12981" lon="-2.0497">
        <ele>56</ele>
        <time>2021-05-08T12:06:32.000Z</time>
      </trkpt>
      <trkpt lat="47.12988" lon="-2.04982">
        <ele>56</ele>
        <time>2021-05-08T12:06:34.000Z</time>
      </trkpt>
      <trkpt lat="47.12994" lon="-2.04995">
        <ele>57</ele>
        <time>2021-05-08T12:06:36.000Z</time>
      </trkpt>
      <trkpt lat="47.13001" lon="-2.05007">
        <ele>56</ele>
        <time>2021-05-08T12:06:38.000Z</time>
      </trkpt>
      <trkpt lat="47.13007" lon="-2.0502">
        <ele>56</ele>
        <time>2021-05-08T12:06:40.000Z</time>
      </trkpt>
      <trkpt lat="47.13014" lon="-2.05033">
        <ele>56</ele>
        <time>2021-05-08T12:06:42.000Z</time>
      </trkpt>
      <trkpt lat="47.13021" lon="-2.05048">
        <ele>56</ele>
        <time>2021-05-08T12:06:44.000Z</time>
      </trkpt>
      <trkpt lat="47.13029" lon="-2.05076">
        <ele>54</ele>
        <time>2021-05-08T12:06:47.000Z</time>
      </trkpt>
      <trkpt lat="47.13032" lon="-2.05095">
        <ele>55</ele>
        <time>2021-05-08T12:06:49.000Z</time>
      </trkpt>
      <trkpt lat="47.13035" lon="-2.05117">
        <ele>54</ele>
        <time>2021-05-08T12:06:51.000Z</time>
      </trkpt>
      <trkpt lat="47.13036" lon="-2.05141">
        <ele>54</ele>
        <time>2021-05-08T12:06:53.000Z</time>
      </trkpt>
      <trkpt lat="47.13038" lon="-2.05162">
        <ele>53</ele>
        <time>2021-05-08T12:06:55.000Z</time>
      </trkpt>
      <trkpt lat="47.13038" lon="-2.05196">
        <ele>53</ele>
        <time>2021-05-08T12:06:58.000Z</time>
      </trkpt>
      <trkpt lat="47.13036" lon="-2.05218">
        <ele>52</ele>
        <time>2021-05-08T12:07:00.000Z</time>
      </trkpt>
      <trkpt lat="47.13036" lon="-2.0524">
        <ele>53</ele>
        <time>2021-05-08T12:07:02.000Z</time>
      </trkpt>
      <trkpt lat="47.13037" lon="-2.05261">
        <ele>53</ele>
        <time>2021-05-08T12:07:04.000Z</time>
      </trkpt>
      <trkpt lat="47.13037" lon="-2.05281">
        <ele>52</ele>
        <time>2021-05-08T12:07:06.000Z</time>
      </trkpt>
      <trkpt lat="47.13037" lon="-2.0531">
        <ele>52</ele>
        <time>2021-05-08T12:07:09.000Z</time>
      </trkpt>
      <trkpt lat="47.13036" lon="-2.0533">
        <ele>52</ele>
        <time>2021-05-08T12:07:11.000Z</time>
      </trkpt>
      <trkpt lat="47.13037" lon="-2.05349">
        <ele>52</ele>
        <time>2021-05-08T12:07:13.000Z</time>
      </trkpt>
      <trkpt lat="47.13037" lon="-2.0537">
        <ele>52</ele>
        <time>2021-05-08T12:07:15.000Z</time>
      </trkpt>
      <trkpt lat="47.13038" lon="-2.0539">
        <ele>52</ele>
        <time>2021-05-08T12:07:17.000Z</time>
      </trkpt>
      <trkpt lat="47.13038" lon="-2.05411">
        <ele>52</ele>
        <time>2021-05-08T12:07:19.000Z</time>
      </trkpt>
      <trkpt lat="47.13037" lon="-2.05429">
        <ele>52</ele>
        <time>2021-05-08T12:07:21.000Z</time>
      </trkpt>
      <trkpt lat="47.13036" lon="-2.05448">
        <ele>51</ele>
        <time>2021-05-08T12:07:23.000Z</time>
      </trkpt>
      <trkpt lat="47.13035" lon="-2.05469">
        <ele>51</ele>
        <time>2021-05-08T12:07:25.000Z</time>
      </trkpt>
      <trkpt lat="47.13026" lon="-2.05507">
        <ele>51</ele>
        <time>2021-05-08T12:07:29.000Z</time>
      </trkpt>
      <trkpt lat="47.13018" lon="-2.05535">
        <ele>51</ele>
        <time>2021-05-08T12:07:32.000Z</time>
      </trkpt>
      <trkpt lat="47.13013" lon="-2.0555">
        <ele>52</ele>
        <time>2021-05-08T12:07:34.000Z</time>
      </trkpt>
      <trkpt lat="47.13008" lon="-2.05566">
        <ele>52</ele>
        <time>2021-05-08T12:07:36.000Z</time>
      </trkpt>
      <trkpt lat="47.13003" lon="-2.05581">
        <ele>52</ele>
        <time>2021-05-08T12:07:38.000Z</time>
      </trkpt>
      <trkpt lat="47.12998" lon="-2.05598">
        <ele>52</ele>
        <time>2021-05-08T12:07:40.000Z</time>
      </trkpt>
      <trkpt lat="47.12993" lon="-2.05615">
        <ele>53</ele>
        <time>2021-05-08T12:07:42.000Z</time>
      </trkpt>
      <trkpt lat="47.12988" lon="-2.05632">
        <ele>53</ele>
        <time>2021-05-08T12:07:44.000Z</time>
      </trkpt>
      <trkpt lat="47.12983" lon="-2.05648">
        <ele>53</ele>
        <time>2021-05-08T12:07:46.000Z</time>
      </trkpt>
      <trkpt lat="47.1298" lon="-2.05665">
        <ele>54</ele>
        <time>2021-05-08T12:07:48.000Z</time>
      </trkpt>
      <trkpt lat="47.12977" lon="-2.05682">
        <ele>54</ele>
        <time>2021-05-08T12:07:50.000Z</time>
      </trkpt>
      <trkpt lat="47.12974" lon="-2.05698">
        <ele>54</ele>
        <time>2021-05-08T12:07:52.000Z</time>
      </trkpt>
      <trkpt lat="47.12973" lon="-2.05715">
        <ele>55</ele>
        <time>2021-05-08T12:07:54.000Z</time>
      </trkpt>
      <trkpt lat="47.12971" lon="-2.05731">
        <ele>55</ele>
        <time>2021-05-08T12:07:56.000Z</time>
      </trkpt>
      <trkpt lat="47.1297" lon="-2.05745">
        <ele>55</ele>
        <time>2021-05-08T12:07:58.000Z</time>
      </trkpt>
      <trkpt lat="47.12968" lon="-2.05759">
        <ele>56</ele>
        <time>2021-05-08T12:08:00.000Z</time>
      </trkpt>
      <trkpt lat="47.12967" lon="-2.05773">
        <ele>56</ele>
        <time>2021-05-08T12:08:02.000Z</time>
      </trkpt>
      <trkpt lat="47.12967" lon="-2.05787">
        <ele>56</ele>
        <time>2021-05-08T12:08:04.000Z</time>
      </trkpt>
      <trkpt lat="47.12965" lon="-2.05812">
        <ele>57</ele>
        <time>2021-05-08T12:08:07.000Z</time>
      </trkpt>
      <trkpt lat="47.12964" lon="-2.05827">
        <ele>57</ele>
        <time>2021-05-08T12:08:09.000Z</time>
      </trkpt>
      <trkpt lat="47.12962" lon="-2.05842">
        <ele>57</ele>
        <time>2021-05-08T12:08:11.000Z</time>
      </trkpt>
      <trkpt lat="47.12958" lon="-2.05861">
        <ele>57</ele>
        <time>2021-05-08T12:08:14.000Z</time>
      </trkpt>
      <trkpt lat="47.12957" lon="-2.05878">
        <ele>57</ele>
        <time>2021-05-08T12:08:16.000Z</time>
      </trkpt>
      <trkpt lat="47.12957" lon="-2.05894">
        <ele>55</ele>
        <time>2021-05-08T12:08:18.000Z</time>
      </trkpt>
      <trkpt lat="47.1295" lon="-2.05917">
        <ele>59</ele>
        <time>2021-05-08T12:08:21.000Z</time>
      </trkpt>
      <trkpt lat="47.12947" lon="-2.05932">
        <ele>61</ele>
        <time>2021-05-08T12:08:23.000Z</time>
      </trkpt>
      <trkpt lat="47.12943" lon="-2.05947">
        <ele>60</ele>
        <time>2021-05-08T12:08:25.000Z</time>
      </trkpt>
      <trkpt lat="47.1294" lon="-2.05963">
        <ele>62</ele>
        <time>2021-05-08T12:08:27.000Z</time>
      </trkpt>
      <trkpt lat="47.12934" lon="-2.05991">
        <ele>60</ele>
        <time>2021-05-08T12:08:30.000Z</time>
      </trkpt>
      <trkpt lat="47.1293" lon="-2.06007">
        <ele>59</ele>
        <time>2021-05-08T12:08:32.000Z</time>
      </trkpt>
      <trkpt lat="47.12927" lon="-2.06027">
        <ele>59</ele>
        <time>2021-05-08T12:08:34.000Z</time>
      </trkpt>
      <trkpt lat="47.12922" lon="-2.06045">
        <ele>58</ele>
        <time>2021-05-08T12:08:36.000Z</time>
      </trkpt>
      <trkpt lat="47.12917" lon="-2.06063">
        <ele>57</ele>
        <time>2021-05-08T12:08:38.000Z</time>
      </trkpt>
      <trkpt lat="47.12909" lon="-2.06089">
        <ele>57</ele>
        <time>2021-05-08T12:08:41.000Z</time>
      </trkpt>
      <trkpt lat="47.12895" lon="-2.06113">
        <ele>55</ele>
        <time>2021-05-08T12:08:44.000Z</time>
      </trkpt>
      <trkpt lat="47.12885" lon="-2.06128">
        <ele>54</ele>
        <time>2021-05-08T12:08:46.000Z</time>
      </trkpt>
      <trkpt lat="47.12875" lon="-2.06144">
        <ele>54</ele>
        <time>2021-05-08T12:08:48.000Z</time>
      </trkpt>
      <trkpt lat="47.12865" lon="-2.06158">
        <ele>49</ele>
        <time>2021-05-08T12:08:50.000Z</time>
      </trkpt>
      <trkpt lat="47.12853" lon="-2.06173">
        <ele>49</ele>
        <time>2021-05-08T12:08:52.000Z</time>
      </trkpt>
      <trkpt lat="47.12838" lon="-2.06188">
        <ele>48</ele>
        <time>2021-05-08T12:08:54.000Z</time>
      </trkpt>
      <trkpt lat="47.12816" lon="-2.06209">
        <ele>50</ele>
        <time>2021-05-08T12:08:57.000Z</time>
      </trkpt>
      <trkpt lat="47.12794" lon="-2.06226">
        <ele>51</ele>
        <time>2021-05-08T12:09:00.000Z</time>
      </trkpt>
      <trkpt lat="47.1278" lon="-2.06237">
        <ele>52</ele>
        <time>2021-05-08T12:09:02.000Z</time>
      </trkpt>
      <trkpt lat="47.12767" lon="-2.06251">
        <ele>51</ele>
        <time>2021-05-08T12:09:04.000Z</time>
      </trkpt>
      <trkpt lat="47.12755" lon="-2.06265">
        <ele>52</ele>
        <time>2021-05-08T12:09:06.000Z</time>
      </trkpt>
      <trkpt lat="47.12746" lon="-2.06282">
        <ele>52</ele>
        <time>2021-05-08T12:09:08.000Z</time>
      </trkpt>
      <trkpt lat="47.12739" lon="-2.063">
        <ele>52</ele>
        <time>2021-05-08T12:09:10.000Z</time>
      </trkpt>
      <trkpt lat="47.12734" lon="-2.06319">
        <ele>52</ele>
        <time>2021-05-08T12:09:12.000Z</time>
      </trkpt>
      <trkpt lat="47.12731" lon="-2.06338">
        <ele>52</ele>
        <time>2021-05-08T12:09:14.000Z</time>
      </trkpt>
      <trkpt lat="47.12728" lon="-2.06357">
        <ele>52</ele>
        <time>2021-05-08T12:09:16.000Z</time>
      </trkpt>
      <trkpt lat="47.12726" lon="-2.06374">
        <ele>53</ele>
        <time>2021-05-08T12:09:18.000Z</time>
      </trkpt>
      <trkpt lat="47.12723" lon="-2.0639">
        <ele>53</ele>
        <time>2021-05-08T12:09:20.000Z</time>
      </trkpt>
      <trkpt lat="47.12721" lon="-2.06408">
        <ele>54</ele>
        <time>2021-05-08T12:09:22.000Z</time>
      </trkpt>
      <trkpt lat="47.12717" lon="-2.06426">
        <ele>54</ele>
        <time>2021-05-08T12:09:24.000Z</time>
      </trkpt>
      <trkpt lat="47.12711" lon="-2.06445">
        <ele>51</ele>
        <time>2021-05-08T12:09:26.000Z</time>
      </trkpt>
      <trkpt lat="47.12705" lon="-2.06462">
        <ele>51</ele>
        <time>2021-05-08T12:09:28.000Z</time>
      </trkpt>
      <trkpt lat="47.12699" lon="-2.06477">
        <ele>52</ele>
        <time>2021-05-08T12:09:30.000Z</time>
      </trkpt>
      <trkpt lat="47.12692" lon="-2.06491">
        <ele>54</ele>
        <time>2021-05-08T12:09:32.000Z</time>
      </trkpt>
      <trkpt lat="47.12686" lon="-2.06506">
        <ele>54</ele>
        <time>2021-05-08T12:09:34.000Z</time>
      </trkpt>
      <trkpt lat="47.12682" lon="-2.06522">
        <ele>55</ele>
        <time>2021-05-08T12:09:36.000Z</time>
      </trkpt>
      <trkpt lat="47.12676" lon="-2.06538">
        <ele>55</ele>
        <time>2021-05-08T12:09:38.000Z</time>
      </trkpt>
      <trkpt lat="47.12672" lon="-2.06555">
        <ele>55</ele>
        <time>2021-05-08T12:09:40.000Z</time>
      </trkpt>
      <trkpt lat="47.1267" lon="-2.06571">
        <ele>55</ele>
        <time>2021-05-08T12:09:42.000Z</time>
      </trkpt>
      <trkpt lat="47.12665" lon="-2.06588">
        <ele>55</ele>
        <time>2021-05-08T12:09:44.000Z</time>
      </trkpt>
      <trkpt lat="47.12661" lon="-2.06604">
        <ele>55</ele>
        <time>2021-05-08T12:09:46.000Z</time>
      </trkpt>
      <trkpt lat="47.12657" lon="-2.06622">
        <ele>55</ele>
        <time>2021-05-08T12:09:48.000Z</time>
      </trkpt>
      <trkpt lat="47.12654" lon="-2.0664">
        <ele>55</ele>
        <time>2021-05-08T12:09:50.000Z</time>
      </trkpt>
      <trkpt lat="47.1265" lon="-2.06657">
        <ele>54</ele>
        <time>2021-05-08T12:09:52.000Z</time>
      </trkpt>
      <trkpt lat="47.12645" lon="-2.06684">
        <ele>53</ele>
        <time>2021-05-08T12:09:55.000Z</time>
      </trkpt>
      <trkpt lat="47.12642" lon="-2.06707">
        <ele>49</ele>
        <time>2021-05-08T12:09:57.000Z</time>
      </trkpt>
      <trkpt lat="47.12639" lon="-2.06727">
        <ele>49</ele>
        <time>2021-05-08T12:09:59.000Z</time>
      </trkpt>
      <trkpt lat="47.12636" lon="-2.06744">
        <ele>50</ele>
        <time>2021-05-08T12:10:01.000Z</time>
      </trkpt>
      <trkpt lat="47.12633" lon="-2.0676">
        <ele>52</ele>
        <time>2021-05-08T12:10:03.000Z</time>
      </trkpt>
      <trkpt lat="47.1263" lon="-2.06777">
        <ele>53</ele>
        <time>2021-05-08T12:10:05.000Z</time>
      </trkpt>
      <trkpt lat="47.12628" lon="-2.06794">
        <ele>54</ele>
        <time>2021-05-08T12:10:07.000Z</time>
      </trkpt>
      <trkpt lat="47.12625" lon="-2.06809">
        <ele>55</ele>
        <time>2021-05-08T12:10:09.000Z</time>
      </trkpt>
      <trkpt lat="47.12622" lon="-2.06825">
        <ele>56</ele>
        <time>2021-05-08T12:10:11.000Z</time>
      </trkpt>
      <trkpt lat="47.12619" lon="-2.06841">
        <ele>56</ele>
        <time>2021-05-08T12:10:13.000Z</time>
      </trkpt>
      <trkpt lat="47.12616" lon="-2.06859">
        <ele>57</ele>
        <time>2021-05-08T12:10:15.000Z</time>
      </trkpt>
      <trkpt lat="47.12614" lon="-2.06875">
        <ele>58</ele>
        <time>2021-05-08T12:10:17.000Z</time>
      </trkpt>
      <trkpt lat="47.12611" lon="-2.06895">
        <ele>57</ele>
        <time>2021-05-08T12:10:19.000Z</time>
      </trkpt>
      <trkpt lat="47.12609" lon="-2.06912">
        <ele>57</ele>
        <time>2021-05-08T12:10:21.000Z</time>
      </trkpt>
      <trkpt lat="47.12604" lon="-2.06933">
        <ele>58</ele>
        <time>2021-05-08T12:10:24.000Z</time>
      </trkpt>
      <trkpt lat="47.126" lon="-2.06956">
        <ele>58</ele>
        <time>2021-05-08T12:10:27.000Z</time>
      </trkpt>
      <trkpt lat="47.12596" lon="-2.06973">
        <ele>59</ele>
        <time>2021-05-08T12:10:29.000Z</time>
      </trkpt>
      <trkpt lat="47.12593" lon="-2.06987">
        <ele>60</ele>
        <time>2021-05-08T12:10:31.000Z</time>
      </trkpt>
      <trkpt lat="47.12592" lon="-2.07002">
        <ele>60</ele>
        <time>2021-05-08T12:10:33.000Z</time>
      </trkpt>
      <trkpt lat="47.1259" lon="-2.07019">
        <ele>61</ele>
        <time>2021-05-08T12:10:35.000Z</time>
      </trkpt>
      <trkpt lat="47.12588" lon="-2.07036">
        <ele>61</ele>
        <time>2021-05-08T12:10:37.000Z</time>
      </trkpt>
      <trkpt lat="47.12585" lon="-2.07051">
        <ele>61</ele>
        <time>2021-05-08T12:10:39.000Z</time>
      </trkpt>
      <trkpt lat="47.12586" lon="-2.07076">
        <ele>62</ele>
        <time>2021-05-08T12:10:42.000Z</time>
      </trkpt>
      <trkpt lat="47.12588" lon="-2.07092">
        <ele>61</ele>
        <time>2021-05-08T12:10:44.000Z</time>
      </trkpt>
      <trkpt lat="47.12588" lon="-2.0711">
        <ele>62</ele>
        <time>2021-05-08T12:10:46.000Z</time>
      </trkpt>
      <trkpt lat="47.1259" lon="-2.07126">
        <ele>61</ele>
        <time>2021-05-08T12:10:48.000Z</time>
      </trkpt>
      <trkpt lat="47.12593" lon="-2.07143">
        <ele>61</ele>
        <time>2021-05-08T12:10:50.000Z</time>
      </trkpt>
      <trkpt lat="47.12596" lon="-2.07158">
        <ele>61</ele>
        <time>2021-05-08T12:10:52.000Z</time>
      </trkpt>
      <trkpt lat="47.12599" lon="-2.07174">
        <ele>61</ele>
        <time>2021-05-08T12:10:54.000Z</time>
      </trkpt>
      <trkpt lat="47.12603" lon="-2.0719">
        <ele>62</ele>
        <time>2021-05-08T12:10:56.000Z</time>
      </trkpt>
      <trkpt lat="47.12606" lon="-2.07207">
        <ele>61</ele>
        <time>2021-05-08T12:10:58.000Z</time>
      </trkpt>
      <trkpt lat="47.12608" lon="-2.07224">
        <ele>60</ele>
        <time>2021-05-08T12:11:00.000Z</time>
      </trkpt>
      <trkpt lat="47.12612" lon="-2.07242">
        <ele>61</ele>
        <time>2021-05-08T12:11:02.000Z</time>
      </trkpt>
      <trkpt lat="47.12616" lon="-2.07257">
        <ele>61</ele>
        <time>2021-05-08T12:11:04.000Z</time>
      </trkpt>
      <trkpt lat="47.12619" lon="-2.07273">
        <ele>61</ele>
        <time>2021-05-08T12:11:06.000Z</time>
      </trkpt>
      <trkpt lat="47.12622" lon="-2.0729">
        <ele>61</ele>
        <time>2021-05-08T12:11:08.000Z</time>
      </trkpt>
      <trkpt lat="47.12624" lon="-2.07307">
        <ele>61</ele>
        <time>2021-05-08T12:11:10.000Z</time>
      </trkpt>
      <trkpt lat="47.12627" lon="-2.07324">
        <ele>61</ele>
        <time>2021-05-08T12:11:12.000Z</time>
      </trkpt>
      <trkpt lat="47.12625" lon="-2.07354">
        <ele>59</ele>
        <time>2021-05-08T12:11:15.000Z</time>
      </trkpt>
      <trkpt lat="47.12626" lon="-2.07372">
        <ele>57</ele>
        <time>2021-05-08T12:11:17.000Z</time>
      </trkpt>
      <trkpt lat="47.12628" lon="-2.07387">
        <ele>57</ele>
        <time>2021-05-08T12:11:19.000Z</time>
      </trkpt>
      <trkpt lat="47.12627" lon="-2.07404">
        <ele>59</ele>
        <time>2021-05-08T12:11:21.000Z</time>
      </trkpt>
      <trkpt lat="47.12628" lon="-2.07421">
        <ele>60</ele>
        <time>2021-05-08T12:11:23.000Z</time>
      </trkpt>
      <trkpt lat="47.12627" lon="-2.07438">
        <ele>60</ele>
        <time>2021-05-08T12:11:25.000Z</time>
      </trkpt>
      <trkpt lat="47.12626" lon="-2.07456">
        <ele>60</ele>
        <time>2021-05-08T12:11:27.000Z</time>
      </trkpt>
      <trkpt lat="47.12625" lon="-2.07481">
        <ele>61</ele>
        <time>2021-05-08T12:11:30.000Z</time>
      </trkpt>
      <trkpt lat="47.12626" lon="-2.075">
        <ele>61</ele>
        <time>2021-05-08T12:11:32.000Z</time>
      </trkpt>
      <trkpt lat="47.12624" lon="-2.07516">
        <ele>61</ele>
        <time>2021-05-08T12:11:34.000Z</time>
      </trkpt>
      <trkpt lat="47.12623" lon="-2.07533">
        <ele>60</ele>
        <time>2021-05-08T12:11:36.000Z</time>
      </trkpt>
      <trkpt lat="47.12622" lon="-2.0755">
        <ele>61</ele>
        <time>2021-05-08T12:11:38.000Z</time>
      </trkpt>
      <trkpt lat="47.1262" lon="-2.07569">
        <ele>61</ele>
        <time>2021-05-08T12:11:40.000Z</time>
      </trkpt>
      <trkpt lat="47.12619" lon="-2.07587">
        <ele>60</ele>
        <time>2021-05-08T12:11:42.000Z</time>
      </trkpt>
      <trkpt lat="47.12613" lon="-2.07618">
        <ele>57</ele>
        <time>2021-05-08T12:11:45.000Z</time>
      </trkpt>
      <trkpt lat="47.12607" lon="-2.07646">
        <ele>56</ele>
        <time>2021-05-08T12:11:48.000Z</time>
      </trkpt>
      <trkpt lat="47.12604" lon="-2.07663">
        <ele>56</ele>
        <time>2021-05-08T12:11:50.000Z</time>
      </trkpt>
      <trkpt lat="47.12601" lon="-2.07682">
        <ele>56</ele>
        <time>2021-05-08T12:11:52.000Z</time>
      </trkpt>
      <trkpt lat="47.12598" lon="-2.07715">
        <ele>56</ele>
        <time>2021-05-08T12:11:55.000Z</time>
      </trkpt>
      <trkpt lat="47.12596" lon="-2.07739">
        <ele>55</ele>
        <time>2021-05-08T12:11:57.000Z</time>
      </trkpt>
      <trkpt lat="47.12588" lon="-2.07783">
        <ele>55</ele>
        <time>2021-05-08T12:12:01.000Z</time>
      </trkpt>
      <trkpt lat="47.12584" lon="-2.07801">
        <ele>56</ele>
        <time>2021-05-08T12:12:03.000Z</time>
      </trkpt>
      <trkpt lat="47.12578" lon="-2.07826">
        <ele>56</ele>
        <time>2021-05-08T12:12:06.000Z</time>
      </trkpt>
      <trkpt lat="47.12574" lon="-2.07842">
        <ele>56</ele>
        <time>2021-05-08T12:12:08.000Z</time>
      </trkpt>
      <trkpt lat="47.12571" lon="-2.07858">
        <ele>57</ele>
        <time>2021-05-08T12:12:10.000Z</time>
      </trkpt>
      <trkpt lat="47.12568" lon="-2.07875">
        <ele>58</ele>
        <time>2021-05-08T12:12:12.000Z</time>
      </trkpt>
      <trkpt lat="47.12565" lon="-2.0789">
        <ele>58</ele>
        <time>2021-05-08T12:12:14.000Z</time>
      </trkpt>
      <trkpt lat="47.12562" lon="-2.07907">
        <ele>59</ele>
        <time>2021-05-08T12:12:16.000Z</time>
      </trkpt>
      <trkpt lat="47.12558" lon="-2.07923">
        <ele>59</ele>
        <time>2021-05-08T12:12:18.000Z</time>
      </trkpt>
      <trkpt lat="47.12555" lon="-2.0794">
        <ele>60</ele>
        <time>2021-05-08T12:12:20.000Z</time>
      </trkpt>
      <trkpt lat="47.12553" lon="-2.07957">
        <ele>60</ele>
        <time>2021-05-08T12:12:22.000Z</time>
      </trkpt>
      <trkpt lat="47.12551" lon="-2.07974">
        <ele>61</ele>
        <time>2021-05-08T12:12:24.000Z</time>
      </trkpt>
      <trkpt lat="47.12546" lon="-2.07991">
        <ele>61</ele>
        <time>2021-05-08T12:12:26.000Z</time>
      </trkpt>
      <trkpt lat="47.12542" lon="-2.08008">
        <ele>62</ele>
        <time>2021-05-08T12:12:28.000Z</time>
      </trkpt>
      <trkpt lat="47.12538" lon="-2.08024">
        <ele>63</ele>
        <time>2021-05-08T12:12:30.000Z</time>
      </trkpt>
      <trkpt lat="47.12533" lon="-2.08041">
        <ele>62</ele>
        <time>2021-05-08T12:12:32.000Z</time>
      </trkpt>
      <trkpt lat="47.12527" lon="-2.08055">
        <ele>63</ele>
        <time>2021-05-08T12:12:34.000Z</time>
      </trkpt>
      <trkpt lat="47.12519" lon="-2.08069">
        <ele>59</ele>
        <time>2021-05-08T12:12:36.000Z</time>
      </trkpt>
      <trkpt lat="47.12505" lon="-2.08099">
        <ele>60</ele>
        <time>2021-05-08T12:12:40.000Z</time>
      </trkpt>
      <trkpt lat="47.12499" lon="-2.08113">
        <ele>61</ele>
        <time>2021-05-08T12:12:42.000Z</time>
      </trkpt>
      <trkpt lat="47.12494" lon="-2.08126">
        <ele>61</ele>
        <time>2021-05-08T12:12:44.000Z</time>
      </trkpt>
      <trkpt lat="47.12489" lon="-2.08142">
        <ele>63</ele>
        <time>2021-05-08T12:12:46.000Z</time>
      </trkpt>
      <trkpt lat="47.12483" lon="-2.08156">
        <ele>64</ele>
        <time>2021-05-08T12:12:48.000Z</time>
      </trkpt>
      <trkpt lat="47.12477" lon="-2.0817">
        <ele>65</ele>
        <time>2021-05-08T12:12:50.000Z</time>
      </trkpt>
      <trkpt lat="47.12471" lon="-2.08183">
        <ele>66</ele>
        <time>2021-05-08T12:12:52.000Z</time>
      </trkpt>
      <trkpt lat="47.12464" lon="-2.08196">
        <ele>67</ele>
        <time>2021-05-08T12:12:54.000Z</time>
      </trkpt>
      <trkpt lat="47.12457" lon="-2.08208">
        <ele>68</ele>
        <time>2021-05-08T12:12:56.000Z</time>
      </trkpt>
      <trkpt lat="47.12449" lon="-2.08218">
        <ele>68</ele>
        <time>2021-05-08T12:12:58.000Z</time>
      </trkpt>
      <trkpt lat="47.12434" lon="-2.08231">
        <ele>68</ele>
        <time>2021-05-08T12:13:01.000Z</time>
      </trkpt>
      <trkpt lat="47.12424" lon="-2.08239">
        <ele>68</ele>
        <time>2021-05-08T12:13:03.000Z</time>
      </trkpt>
      <trkpt lat="47.12415" lon="-2.08246">
        <ele>68</ele>
        <time>2021-05-08T12:13:05.000Z</time>
      </trkpt>
      <trkpt lat="47.12406" lon="-2.08253">
        <ele>69</ele>
        <time>2021-05-08T12:13:07.000Z</time>
      </trkpt>
      <trkpt lat="47.12392" lon="-2.08263">
        <ele>69</ele>
        <time>2021-05-08T12:13:10.000Z</time>
      </trkpt>
      <trkpt lat="47.12383" lon="-2.08269">
        <ele>70</ele>
        <time>2021-05-08T12:13:12.000Z</time>
      </trkpt>
      <trkpt lat="47.12373" lon="-2.08275">
        <ele>70</ele>
        <time>2021-05-08T12:13:14.000Z</time>
      </trkpt>
      <trkpt lat="47.12358" lon="-2.08284">
        <ele>70</ele>
        <time>2021-05-08T12:13:17.000Z</time>
      </trkpt>
      <trkpt lat="47.12348" lon="-2.0829">
        <ele>70</ele>
        <time>2021-05-08T12:13:19.000Z</time>
      </trkpt>
      <trkpt lat="47.12339" lon="-2.08297">
        <ele>69</ele>
        <time>2021-05-08T12:13:21.000Z</time>
      </trkpt>
      <trkpt lat="47.12323" lon="-2.08308">
        <ele>69</ele>
        <time>2021-05-08T12:13:24.000Z</time>
      </trkpt>
      <trkpt lat="47.12305" lon="-2.08319">
        <ele>70</ele>
        <time>2021-05-08T12:13:28.000Z</time>
      </trkpt>
      <trkpt lat="47.12295" lon="-2.08326">
        <ele>70</ele>
        <time>2021-05-08T12:13:30.000Z</time>
      </trkpt>
      <trkpt lat="47.12286" lon="-2.08333">
        <ele>71</ele>
        <time>2021-05-08T12:13:32.000Z</time>
      </trkpt>
      <trkpt lat="47.12277" lon="-2.08339">
        <ele>71</ele>
        <time>2021-05-08T12:13:34.000Z</time>
      </trkpt>
      <trkpt lat="47.12267" lon="-2.08346">
        <ele>72</ele>
        <time>2021-05-08T12:13:36.000Z</time>
      </trkpt>
      <trkpt lat="47.12258" lon="-2.08353">
        <ele>72</ele>
        <time>2021-05-08T12:13:38.000Z</time>
      </trkpt>
      <trkpt lat="47.12248" lon="-2.08361">
        <ele>71</ele>
        <time>2021-05-08T12:13:40.000Z</time>
      </trkpt>
      <trkpt lat="47.12237" lon="-2.0837">
        <ele>71</ele>
        <time>2021-05-08T12:13:42.000Z</time>
      </trkpt>
      <trkpt lat="47.12228" lon="-2.08379">
        <ele>71</ele>
        <time>2021-05-08T12:13:44.000Z</time>
      </trkpt>
      <trkpt lat="47.12215" lon="-2.08394">
        <ele>71</ele>
        <time>2021-05-08T12:13:47.000Z</time>
      </trkpt>
      <trkpt lat="47.12209" lon="-2.08407">
        <ele>71</ele>
        <time>2021-05-08T12:13:49.000Z</time>
      </trkpt>
      <trkpt lat="47.12204" lon="-2.08421">
        <ele>71</ele>
        <time>2021-05-08T12:13:51.000Z</time>
      </trkpt>
      <trkpt lat="47.122" lon="-2.08436">
        <ele>71</ele>
        <time>2021-05-08T12:13:53.000Z</time>
      </trkpt>
      <trkpt lat="47.12194" lon="-2.08456">
        <ele>71</ele>
        <time>2021-05-08T12:13:56.000Z</time>
      </trkpt>
      <trkpt lat="47.12186" lon="-2.08475">
        <ele>72</ele>
        <time>2021-05-08T12:13:59.000Z</time>
      </trkpt>
      <trkpt lat="47.12176" lon="-2.08492">
        <ele>69</ele>
        <time>2021-05-08T12:14:02.000Z</time>
      </trkpt>
      <trkpt lat="47.12168" lon="-2.08504">
        <ele>65</ele>
        <time>2021-05-08T12:14:04.000Z</time>
      </trkpt>
      <trkpt lat="47.12158" lon="-2.08507">
        <ele>68</ele>
        <time>2021-05-08T12:14:06.000Z</time>
      </trkpt>
      <trkpt lat="47.12147" lon="-2.08511">
        <ele>69</ele>
        <time>2021-05-08T12:14:08.000Z</time>
      </trkpt>
      <trkpt lat="47.12134" lon="-2.08529">
        <ele>69</ele>
        <time>2021-05-08T12:14:11.000Z</time>
      </trkpt>
      <trkpt lat="47.12124" lon="-2.08551">
        <ele>70</ele>
        <time>2021-05-08T12:14:14.000Z</time>
      </trkpt>
      <trkpt lat="47.12116" lon="-2.08562">
        <ele>70</ele>
        <time>2021-05-08T12:14:16.000Z</time>
      </trkpt>
      <trkpt lat="47.12116" lon="-2.08576">
        <ele>69</ele>
        <time>2021-05-08T12:14:18.000Z</time>
      </trkpt>
      <trkpt lat="47.12111" lon="-2.08588">
        <ele>69</ele>
        <time>2021-05-08T12:14:20.000Z</time>
      </trkpt>
      <trkpt lat="47.12106" lon="-2.08612">
        <ele>70</ele>
        <time>2021-05-08T12:14:23.000Z</time>
      </trkpt>
      <trkpt lat="47.12099" lon="-2.08626">
        <ele>70</ele>
        <time>2021-05-08T12:14:25.000Z</time>
      </trkpt>
      <trkpt lat="47.12092" lon="-2.0864">
        <ele>71</ele>
        <time>2021-05-08T12:14:27.000Z</time>
      </trkpt>
      <trkpt lat="47.12087" lon="-2.08652">
        <ele>71</ele>
        <time>2021-05-08T12:14:29.000Z</time>
      </trkpt>
      <trkpt lat="47.1208" lon="-2.08674">
        <ele>71</ele>
        <time>2021-05-08T12:14:32.000Z</time>
      </trkpt>
      <trkpt lat="47.12076" lon="-2.0869">
        <ele>70</ele>
        <time>2021-05-08T12:14:34.000Z</time>
      </trkpt>
      <trkpt lat="47.12074" lon="-2.08705">
        <ele>70</ele>
        <time>2021-05-08T12:14:36.000Z</time>
      </trkpt>
      <trkpt lat="47.12072" lon="-2.08719">
        <ele>71</ele>
        <time>2021-05-08T12:14:38.000Z</time>
      </trkpt>
      <trkpt lat="47.12071" lon="-2.08742">
        <ele>71</ele>
        <time>2021-05-08T12:14:41.000Z</time>
      </trkpt>
      <trkpt lat="47.12068" lon="-2.08759">
        <ele>71</ele>
        <time>2021-05-08T12:14:43.000Z</time>
      </trkpt>
      <trkpt lat="47.12067" lon="-2.08774">
        <ele>71</ele>
        <time>2021-05-08T12:14:45.000Z</time>
      </trkpt>
      <trkpt lat="47.12068" lon="-2.08788">
        <ele>71</ele>
        <time>2021-05-08T12:14:47.000Z</time>
      </trkpt>
      <trkpt lat="47.12068" lon="-2.08808">
        <ele>71</ele>
        <time>2021-05-08T12:14:49.000Z</time>
      </trkpt>
      <trkpt lat="47.12065" lon="-2.08829">
        <ele>69</ele>
        <time>2021-05-08T12:14:51.000Z</time>
      </trkpt>
      <trkpt lat="47.12058" lon="-2.08851">
        <ele>68</ele>
        <time>2021-05-08T12:14:53.000Z</time>
      </trkpt>
      <trkpt lat="47.12051" lon="-2.08875">
        <ele>66</ele>
        <time>2021-05-08T12:14:55.000Z</time>
      </trkpt>
      <trkpt lat="47.12039" lon="-2.08894">
        <ele>66</ele>
        <time>2021-05-08T12:14:57.000Z</time>
      </trkpt>
      <trkpt lat="47.1203" lon="-2.08902">
        <ele>66</ele>
        <time>2021-05-08T12:14:58.000Z</time>
      </trkpt>
      <trkpt lat="47.12015" lon="-2.08921">
        <ele>63</ele>
        <time>2021-05-08T12:15:00.000Z</time>
      </trkpt>
      <trkpt lat="47.12001" lon="-2.08943">
        <ele>61</ele>
        <time>2021-05-08T12:15:02.000Z</time>
      </trkpt>
      <trkpt lat="47.11994" lon="-2.08953">
        <ele>61</ele>
        <time>2021-05-08T12:15:03.000Z</time>
      </trkpt>
      <trkpt lat="47.11987" lon="-2.08963">
        <ele>60</ele>
        <time>2021-05-08T12:15:04.000Z</time>
      </trkpt>
      <trkpt lat="47.11981" lon="-2.08976">
        <ele>59</ele>
        <time>2021-05-08T12:15:05.000Z</time>
      </trkpt>
      <trkpt lat="47.11975" lon="-2.08989">
        <ele>58</ele>
        <time>2021-05-08T12:15:06.000Z</time>
      </trkpt>
      <trkpt lat="47.11971" lon="-2.09002">
        <ele>57</ele>
        <time>2021-05-08T12:15:07.000Z</time>
      </trkpt>
      <trkpt lat="47.11965" lon="-2.09013">
        <ele>57</ele>
        <time>2021-05-08T12:15:08.000Z</time>
      </trkpt>
      <trkpt lat="47.11953" lon="-2.09042">
        <ele>56</ele>
        <time>2021-05-08T12:15:11.000Z</time>
      </trkpt>
      <trkpt lat="47.11947" lon="-2.09054">
        <ele>56</ele>
        <time>2021-05-08T12:15:14.000Z</time>
      </trkpt>
      <trkpt lat="47.11936" lon="-2.09047">
        <ele>56</ele>
        <time>2021-05-08T12:15:19.000Z</time>
      </trkpt>
      <trkpt lat="47.11928" lon="-2.09053">
        <ele>57</ele>
        <time>2021-05-08T12:15:23.000Z</time>
      </trkpt>
      <trkpt lat="47.11926" lon="-2.09067">
        <ele>57</ele>
        <time>2021-05-08T12:15:39.000Z</time>
      </trkpt>
      <trkpt lat="47.11924" lon="-2.0908">
        <ele>56</ele>
        <time>2021-05-08T12:16:00.000Z</time>
      </trkpt>
      <trkpt lat="47.11917" lon="-2.09093">
        <ele>56</ele>
        <time>2021-05-08T12:16:39.000Z</time>
      </trkpt>
      <trkpt lat="47.11913" lon="-2.09105">
        <ele>56</ele>
        <time>2021-05-08T12:16:44.000Z</time>
      </trkpt>
      <trkpt lat="47.11919" lon="-2.0912">
        <ele>56</ele>
        <time>2021-05-08T12:16:48.000Z</time>
      </trkpt>
      <trkpt lat="47.11906" lon="-2.09141">
        <ele>57</ele>
        <time>2021-05-08T12:16:50.000Z</time>
      </trkpt>
      <trkpt lat="47.119" lon="-2.09156">
        <ele>56</ele>
        <time>2021-05-08T12:16:52.000Z</time>
      </trkpt>
      <trkpt lat="47.11899" lon="-2.09173">
        <ele>57</ele>
        <time>2021-05-08T12:16:55.000Z</time>
      </trkpt>
      <trkpt lat="47.11898" lon="-2.09188">
        <ele>59</ele>
        <time>2021-05-08T12:16:58.000Z</time>
      </trkpt>
      <trkpt lat="47.119" lon="-2.09202">
        <ele>60</ele>
        <time>2021-05-08T12:17:01.000Z</time>
      </trkpt>
      <trkpt lat="47.11902" lon="-2.09218">
        <ele>60</ele>
        <time>2021-05-08T12:17:04.000Z</time>
      </trkpt>
      <trkpt lat="47.11899" lon="-2.09236">
        <ele>60</ele>
        <time>2021-05-08T12:17:07.000Z</time>
      </trkpt>
      <trkpt lat="47.11896" lon="-2.09254">
        <ele>61</ele>
        <time>2021-05-08T12:17:10.000Z</time>
      </trkpt>
      <trkpt lat="47.11894" lon="-2.0927">
        <ele>62</ele>
        <time>2021-05-08T12:17:13.000Z</time>
      </trkpt>
      <trkpt lat="47.11892" lon="-2.09288">
        <ele>63</ele>
        <time>2021-05-08T12:17:16.000Z</time>
      </trkpt>
      <trkpt lat="47.11888" lon="-2.09304">
        <ele>64</ele>
        <time>2021-05-08T12:17:19.000Z</time>
      </trkpt>
      <trkpt lat="47.11884" lon="-2.09322">
        <ele>63</ele>
        <time>2021-05-08T12:17:22.000Z</time>
      </trkpt>
      <trkpt lat="47.11881" lon="-2.0934">
        <ele>63</ele>
        <time>2021-05-08T12:17:25.000Z</time>
      </trkpt>
      <trkpt lat="47.11868" lon="-2.09335">
        <ele>64</ele>
        <time>2021-05-08T12:17:28.000Z</time>
      </trkpt>
      <trkpt lat="47.11857" lon="-2.09325">
        <ele>64</ele>
        <time>2021-05-08T12:17:31.000Z</time>
      </trkpt>
      <trkpt lat="47.11847" lon="-2.09319">
        <ele>65</ele>
        <time>2021-05-08T12:17:33.000Z</time>
      </trkpt>
      <trkpt lat="47.11837" lon="-2.09313">
        <ele>65</ele>
        <time>2021-05-08T12:17:35.000Z</time>
      </trkpt>
      <trkpt lat="47.11826" lon="-2.09307">
        <ele>65</ele>
        <time>2021-05-08T12:17:37.000Z</time>
      </trkpt>
      <trkpt lat="47.11815" lon="-2.093">
        <ele>64</ele>
        <time>2021-05-08T12:17:39.000Z</time>
      </trkpt>
      <trkpt lat="47.11805" lon="-2.09293">
        <ele>64</ele>
        <time>2021-05-08T12:17:41.000Z</time>
      </trkpt>
      <trkpt lat="47.11794" lon="-2.09287">
        <ele>64</ele>
        <time>2021-05-08T12:17:43.000Z</time>
      </trkpt>
      <trkpt lat="47.11783" lon="-2.0928">
        <ele>64</ele>
        <time>2021-05-08T12:17:45.000Z</time>
      </trkpt>
      <trkpt lat="47.11773" lon="-2.09274">
        <ele>64</ele>
        <time>2021-05-08T12:17:47.000Z</time>
      </trkpt>
      <trkpt lat="47.11762" lon="-2.09269">
        <ele>63</ele>
        <time>2021-05-08T12:17:49.000Z</time>
      </trkpt>
      <trkpt lat="47.11752" lon="-2.09263">
        <ele>62</ele>
        <time>2021-05-08T12:17:51.000Z</time>
      </trkpt>
      <trkpt lat="47.1174" lon="-2.09259">
        <ele>62</ele>
        <time>2021-05-08T12:17:53.000Z</time>
      </trkpt>
      <trkpt lat="47.11728" lon="-2.09256">
        <ele>62</ele>
        <time>2021-05-08T12:17:55.000Z</time>
      </trkpt>
      <trkpt lat="47.11716" lon="-2.09254">
        <ele>62</ele>
        <time>2021-05-08T12:17:57.000Z</time>
      </trkpt>
      <trkpt lat="47.11703" lon="-2.09251">
        <ele>62</ele>
        <time>2021-05-08T12:17:59.000Z</time>
      </trkpt>
      <trkpt lat="47.1169" lon="-2.09248">
        <ele>61</ele>
        <time>2021-05-08T12:18:01.000Z</time>
      </trkpt>
      <trkpt lat="47.11677" lon="-2.09246">
        <ele>60</ele>
        <time>2021-05-08T12:18:03.000Z</time>
      </trkpt>
      <trkpt lat="47.11664" lon="-2.09247">
        <ele>59</ele>
        <time>2021-05-08T12:18:05.000Z</time>
      </trkpt>
      <trkpt lat="47.11651" lon="-2.09251">
        <ele>59</ele>
        <time>2021-05-08T12:18:07.000Z</time>
      </trkpt>
      <trkpt lat="47.11639" lon="-2.09252">
        <ele>59</ele>
        <time>2021-05-08T12:18:09.000Z</time>
      </trkpt>
      <trkpt lat="47.11627" lon="-2.09257">
        <ele>59</ele>
        <time>2021-05-08T12:18:11.000Z</time>
      </trkpt>
      <trkpt lat="47.11616" lon="-2.09264">
        <ele>58</ele>
        <time>2021-05-08T12:18:13.000Z</time>
      </trkpt>
      <trkpt lat="47.11605" lon="-2.09271">
        <ele>58</ele>
        <time>2021-05-08T12:18:15.000Z</time>
      </trkpt>
      <trkpt lat="47.11594" lon="-2.09277">
        <ele>57</ele>
        <time>2021-05-08T12:18:17.000Z</time>
      </trkpt>
      <trkpt lat="47.11583" lon="-2.09283">
        <ele>57</ele>
        <time>2021-05-08T12:18:19.000Z</time>
      </trkpt>
      <trkpt lat="47.11573" lon="-2.09291">
        <ele>56</ele>
        <time>2021-05-08T12:18:21.000Z</time>
      </trkpt>
      <trkpt lat="47.11562" lon="-2.093">
        <ele>55</ele>
        <time>2021-05-08T12:18:23.000Z</time>
      </trkpt>
      <trkpt lat="47.11551" lon="-2.09308">
        <ele>54</ele>
        <time>2021-05-08T12:18:25.000Z</time>
      </trkpt>
      <trkpt lat="47.1154" lon="-2.09317">
        <ele>54</ele>
        <time>2021-05-08T12:18:27.000Z</time>
      </trkpt>
      <trkpt lat="47.1153" lon="-2.09325">
        <ele>53</ele>
        <time>2021-05-08T12:18:29.000Z</time>
      </trkpt>
      <trkpt lat="47.1152" lon="-2.09334">
        <ele>53</ele>
        <time>2021-05-08T12:18:31.000Z</time>
      </trkpt>
      <trkpt lat="47.1151" lon="-2.09343">
        <ele>53</ele>
        <time>2021-05-08T12:18:33.000Z</time>
      </trkpt>
      <trkpt lat="47.11503" lon="-2.09356">
        <ele>52</ele>
        <time>2021-05-08T12:18:35.000Z</time>
      </trkpt>
      <trkpt lat="47.11501" lon="-2.09374">
        <ele>52</ele>
        <time>2021-05-08T12:18:37.000Z</time>
      </trkpt>
      <trkpt lat="47.11496" lon="-2.09389">
        <ele>52</ele>
        <time>2021-05-08T12:18:39.000Z</time>
      </trkpt>
      <trkpt lat="47.11488" lon="-2.09402">
        <ele>52</ele>
        <time>2021-05-08T12:18:41.000Z</time>
      </trkpt>
      <trkpt lat="47.11484" lon="-2.09418">
        <ele>52</ele>
        <time>2021-05-08T12:18:43.000Z</time>
      </trkpt>
      <trkpt lat="47.11486" lon="-2.09435">
        <ele>52</ele>
        <time>2021-05-08T12:18:45.000Z</time>
      </trkpt>
      <trkpt lat="47.11489" lon="-2.09452">
        <ele>52</ele>
        <time>2021-05-08T12:18:47.000Z</time>
      </trkpt>
      <trkpt lat="47.11489" lon="-2.09469">
        <ele>52</ele>
        <time>2021-05-08T12:18:49.000Z</time>
      </trkpt>
      <trkpt lat="47.11488" lon="-2.09485">
        <ele>51</ele>
        <time>2021-05-08T12:18:51.000Z</time>
      </trkpt>
      <trkpt lat="47.11486" lon="-2.09501">
        <ele>51</ele>
        <time>2021-05-08T12:18:53.000Z</time>
      </trkpt>
      <trkpt lat="47.11486" lon="-2.09518">
        <ele>51</ele>
        <time>2021-05-08T12:18:55.000Z</time>
      </trkpt>
      <trkpt lat="47.11486" lon="-2.09536">
        <ele>51</ele>
        <time>2021-05-08T12:18:57.000Z</time>
      </trkpt>
      <trkpt lat="47.11486" lon="-2.09553">
        <ele>51</ele>
        <time>2021-05-08T12:18:59.000Z</time>
      </trkpt>
      <trkpt lat="47.11487" lon="-2.09571">
        <ele>51</ele>
        <time>2021-05-08T12:19:01.000Z</time>
      </trkpt>
      <trkpt lat="47.11487" lon="-2.09588">
        <ele>51</ele>
        <time>2021-05-08T12:19:03.000Z</time>
      </trkpt>
      <trkpt lat="47.11486" lon="-2.09605">
        <ele>51</ele>
        <time>2021-05-08T12:19:05.000Z</time>
      </trkpt>
      <trkpt lat="47.11484" lon="-2.09628">
        <ele>52</ele>
        <time>2021-05-08T12:19:07.000Z</time>
      </trkpt>
      <trkpt lat="47.11485" lon="-2.09648">
        <ele>51</ele>
        <time>2021-05-08T12:19:10.000Z</time>
      </trkpt>
      <trkpt lat="47.11482" lon="-2.09675">
        <ele>50</ele>
        <time>2021-05-08T12:19:13.000Z</time>
      </trkpt>
      <trkpt lat="47.11481" lon="-2.09691">
        <ele>49</ele>
        <time>2021-05-08T12:19:15.000Z</time>
      </trkpt>
      <trkpt lat="47.11482" lon="-2.09707">
        <ele>50</ele>
        <time>2021-05-08T12:19:17.000Z</time>
      </trkpt>
      <trkpt lat="47.11483" lon="-2.09723">
        <ele>50</ele>
        <time>2021-05-08T12:19:19.000Z</time>
      </trkpt>
      <trkpt lat="47.11483" lon="-2.09739">
        <ele>49</ele>
        <time>2021-05-08T12:19:21.000Z</time>
      </trkpt>
      <trkpt lat="47.11483" lon="-2.09755">
        <ele>48</ele>
        <time>2021-05-08T12:19:23.000Z</time>
      </trkpt>
      <trkpt lat="47.11483" lon="-2.09769">
        <ele>48</ele>
        <time>2021-05-08T12:19:25.000Z</time>
      </trkpt>
      <trkpt lat="47.11482" lon="-2.09785">
        <ele>49</ele>
        <time>2021-05-08T12:19:27.000Z</time>
      </trkpt>
      <trkpt lat="47.11476" lon="-2.09807">
        <ele>49</ele>
        <time>2021-05-08T12:19:30.000Z</time>
      </trkpt>
      <trkpt lat="47.11472" lon="-2.09823">
        <ele>49</ele>
        <time>2021-05-08T12:19:32.000Z</time>
      </trkpt>
      <trkpt lat="47.11465" lon="-2.09835">
        <ele>50</ele>
        <time>2021-05-08T12:19:35.000Z</time>
      </trkpt>
      <trkpt lat="47.11463" lon="-2.0985">
        <ele>51</ele>
        <time>2021-05-08T12:19:41.000Z</time>
      </trkpt>
      <trkpt lat="47.11459" lon="-2.09868">
        <ele>51</ele>
        <time>2021-05-08T12:19:44.000Z</time>
      </trkpt>
      <trkpt lat="47.11455" lon="-2.09882">
        <ele>51</ele>
        <time>2021-05-08T12:19:46.000Z</time>
      </trkpt>
      <trkpt lat="47.11449" lon="-2.09895">
        <ele>50</ele>
        <time>2021-05-08T12:19:48.000Z</time>
      </trkpt>
      <trkpt lat="47.11446" lon="-2.09916">
        <ele>51</ele>
        <time>2021-05-08T12:19:50.000Z</time>
      </trkpt>
      <trkpt lat="47.11443" lon="-2.09933">
        <ele>51</ele>
        <time>2021-05-08T12:19:52.000Z</time>
      </trkpt>
      <trkpt lat="47.1144" lon="-2.09949">
        <ele>51</ele>
        <time>2021-05-08T12:19:54.000Z</time>
      </trkpt>
      <trkpt lat="47.11438" lon="-2.09965">
        <ele>52</ele>
        <time>2021-05-08T12:19:56.000Z</time>
      </trkpt>
      <trkpt lat="47.11434" lon="-2.09981">
        <ele>51</ele>
        <time>2021-05-08T12:19:58.000Z</time>
      </trkpt>
      <trkpt lat="47.11432" lon="-2.09996">
        <ele>51</ele>
        <time>2021-05-08T12:20:00.000Z</time>
      </trkpt>
      <trkpt lat="47.1143" lon="-2.10012">
        <ele>51</ele>
        <time>2021-05-08T12:20:02.000Z</time>
      </trkpt>
      <trkpt lat="47.11428" lon="-2.10027">
        <ele>51</ele>
        <time>2021-05-08T12:20:04.000Z</time>
      </trkpt>
      <trkpt lat="47.11427" lon="-2.10043">
        <ele>52</ele>
        <time>2021-05-08T12:20:06.000Z</time>
      </trkpt>
      <trkpt lat="47.11426" lon="-2.10067">
        <ele>52</ele>
        <time>2021-05-08T12:20:09.000Z</time>
      </trkpt>
      <trkpt lat="47.11427" lon="-2.10082">
        <ele>48</ele>
        <time>2021-05-08T12:20:11.000Z</time>
      </trkpt>
      <trkpt lat="47.11427" lon="-2.10101">
        <ele>49</ele>
        <time>2021-05-08T12:20:13.000Z</time>
      </trkpt>
      <trkpt lat="47.11425" lon="-2.10119">
        <ele>50</ele>
        <time>2021-05-08T12:20:15.000Z</time>
      </trkpt>
      <trkpt lat="47.1142" lon="-2.10138">
        <ele>50</ele>
        <time>2021-05-08T12:20:17.000Z</time>
      </trkpt>
      <trkpt lat="47.11414" lon="-2.10155">
        <ele>49</ele>
        <time>2021-05-08T12:20:19.000Z</time>
      </trkpt>
      <trkpt lat="47.11411" lon="-2.10168">
        <ele>48</ele>
        <time>2021-05-08T12:20:21.000Z</time>
      </trkpt>
      <trkpt lat="47.11408" lon="-2.10184">
        <ele>49</ele>
        <time>2021-05-08T12:20:23.000Z</time>
      </trkpt>
      <trkpt lat="47.11405" lon="-2.102">
        <ele>49</ele>
        <time>2021-05-08T12:20:25.000Z</time>
      </trkpt>
      <trkpt lat="47.11403" lon="-2.10214">
        <ele>46</ele>
        <time>2021-05-08T12:20:27.000Z</time>
      </trkpt>
      <trkpt lat="47.11401" lon="-2.10229">
        <ele>47</ele>
        <time>2021-05-08T12:20:29.000Z</time>
      </trkpt>
      <trkpt lat="47.11394" lon="-2.10246">
        <ele>49</ele>
        <time>2021-05-08T12:20:31.000Z</time>
      </trkpt>
      <trkpt lat="47.11385" lon="-2.10258">
        <ele>50</ele>
        <time>2021-05-08T12:20:33.000Z</time>
      </trkpt>
      <trkpt lat="47.11376" lon="-2.1027">
        <ele>50</ele>
        <time>2021-05-08T12:20:35.000Z</time>
      </trkpt>
      <trkpt lat="47.11368" lon="-2.10281">
        <ele>48</ele>
        <time>2021-05-08T12:20:37.000Z</time>
      </trkpt>
      <trkpt lat="47.11359" lon="-2.10294">
        <ele>50</ele>
        <time>2021-05-08T12:20:39.000Z</time>
      </trkpt>
      <trkpt lat="47.11352" lon="-2.10306">
        <ele>51</ele>
        <time>2021-05-08T12:20:41.000Z</time>
      </trkpt>
      <trkpt lat="47.11344" lon="-2.10318">
        <ele>51</ele>
        <time>2021-05-08T12:20:43.000Z</time>
      </trkpt>
      <trkpt lat="47.11336" lon="-2.10329">
        <ele>52</ele>
        <time>2021-05-08T12:20:45.000Z</time>
      </trkpt>
      <trkpt lat="47.11326" lon="-2.10339">
        <ele>53</ele>
        <time>2021-05-08T12:20:47.000Z</time>
      </trkpt>
      <trkpt lat="47.11315" lon="-2.10348">
        <ele>51</ele>
        <time>2021-05-08T12:20:49.000Z</time>
      </trkpt>
      <trkpt lat="47.11304" lon="-2.10357">
        <ele>50</ele>
        <time>2021-05-08T12:20:51.000Z</time>
      </trkpt>
      <trkpt lat="47.11294" lon="-2.10363">
        <ele>51</ele>
        <time>2021-05-08T12:20:53.000Z</time>
      </trkpt>
      <trkpt lat="47.11283" lon="-2.10369">
        <ele>52</ele>
        <time>2021-05-08T12:20:55.000Z</time>
      </trkpt>
      <trkpt lat="47.11273" lon="-2.10374">
        <ele>54</ele>
        <time>2021-05-08T12:20:57.000Z</time>
      </trkpt>
      <trkpt lat="47.11261" lon="-2.10383">
        <ele>54</ele>
        <time>2021-05-08T12:20:59.000Z</time>
      </trkpt>
      <trkpt lat="47.1125" lon="-2.10384">
        <ele>55</ele>
        <time>2021-05-08T12:21:01.000Z</time>
      </trkpt>
      <trkpt lat="47.1124" lon="-2.10387">
        <ele>56</ele>
        <time>2021-05-08T12:21:03.000Z</time>
      </trkpt>
      <trkpt lat="47.11231" lon="-2.10395">
        <ele>56</ele>
        <time>2021-05-08T12:21:05.000Z</time>
      </trkpt>
      <trkpt lat="47.11223" lon="-2.10405">
        <ele>55</ele>
        <time>2021-05-08T12:21:07.000Z</time>
      </trkpt>
      <trkpt lat="47.11216" lon="-2.10417">
        <ele>56</ele>
        <time>2021-05-08T12:21:09.000Z</time>
      </trkpt>
      <trkpt lat="47.11211" lon="-2.1043">
        <ele>58</ele>
        <time>2021-05-08T12:21:11.000Z</time>
      </trkpt>
      <trkpt lat="47.11196" lon="-2.10443">
        <ele>57</ele>
        <time>2021-05-08T12:21:14.000Z</time>
      </trkpt>
      <trkpt lat="47.11187" lon="-2.10446">
        <ele>58</ele>
        <time>2021-05-08T12:21:16.000Z</time>
      </trkpt>
      <trkpt lat="47.11178" lon="-2.10449">
        <ele>59</ele>
        <time>2021-05-08T12:21:18.000Z</time>
      </trkpt>
      <trkpt lat="47.11168" lon="-2.10451">
        <ele>60</ele>
        <time>2021-05-08T12:21:20.000Z</time>
      </trkpt>
      <trkpt lat="47.11159" lon="-2.1045">
        <ele>60</ele>
        <time>2021-05-08T12:21:22.000Z</time>
      </trkpt>
      <trkpt lat="47.1115" lon="-2.10445">
        <ele>60</ele>
        <time>2021-05-08T12:21:24.000Z</time>
      </trkpt>
      <trkpt lat="47.11141" lon="-2.10436">
        <ele>60</ele>
        <time>2021-05-08T12:21:26.000Z</time>
      </trkpt>
      <trkpt lat="47.11134" lon="-2.10429">
        <ele>60</ele>
        <time>2021-05-08T12:21:28.000Z</time>
      </trkpt>
      <trkpt lat="47.11125" lon="-2.10432">
        <ele>54</ele>
        <time>2021-05-08T12:21:40.000Z</time>
      </trkpt>
      <trkpt lat="47.11119" lon="-2.10422">
        <ele>58</ele>
        <time>2021-05-08T12:22:20.000Z</time>
      </trkpt>
      <trkpt lat="47.11104" lon="-2.10424">
        <ele>59</ele>
        <time>2021-05-08T12:22:23.000Z</time>
      </trkpt>
      <trkpt lat="47.11096" lon="-2.10435">
        <ele>59</ele>
        <time>2021-05-08T12:22:25.000Z</time>
      </trkpt>
      <trkpt lat="47.1109" lon="-2.10448">
        <ele>60</ele>
        <time>2021-05-08T12:22:27.000Z</time>
      </trkpt>
      <trkpt lat="47.11084" lon="-2.10463">
        <ele>60</ele>
        <time>2021-05-08T12:22:29.000Z</time>
      </trkpt>
      <trkpt lat="47.11079" lon="-2.10478">
        <ele>61</ele>
        <time>2021-05-08T12:22:31.000Z</time>
      </trkpt>
      <trkpt lat="47.11073" lon="-2.10493">
        <ele>61</ele>
        <time>2021-05-08T12:22:33.000Z</time>
      </trkpt>
      <trkpt lat="47.11067" lon="-2.10507">
        <ele>62</ele>
        <time>2021-05-08T12:22:35.000Z</time>
      </trkpt>
      <trkpt lat="47.11059" lon="-2.10519">
        <ele>62</ele>
        <time>2021-05-08T12:22:37.000Z</time>
      </trkpt>
      <trkpt lat="47.11051" lon="-2.1053">
        <ele>63</ele>
        <time>2021-05-08T12:22:39.000Z</time>
      </trkpt>
      <trkpt lat="47.11043" lon="-2.1054">
        <ele>64</ele>
        <time>2021-05-08T12:22:41.000Z</time>
      </trkpt>
      <trkpt lat="47.11036" lon="-2.10551">
        <ele>64</ele>
        <time>2021-05-08T12:22:43.000Z</time>
      </trkpt>
      <trkpt lat="47.11027" lon="-2.10562">
        <ele>64</ele>
        <time>2021-05-08T12:22:45.000Z</time>
      </trkpt>
      <trkpt lat="47.11015" lon="-2.10573">
        <ele>62</ele>
        <time>2021-05-08T12:22:47.000Z</time>
      </trkpt>
      <trkpt lat="47.11003" lon="-2.10587">
        <ele>62</ele>
        <time>2021-05-08T12:22:49.000Z</time>
      </trkpt>
      <trkpt lat="47.10995" lon="-2.10605">
        <ele>61</ele>
        <time>2021-05-08T12:22:51.000Z</time>
      </trkpt>
      <trkpt lat="47.10988" lon="-2.10622">
        <ele>61</ele>
        <time>2021-05-08T12:22:53.000Z</time>
      </trkpt>
      <trkpt lat="47.10989" lon="-2.10641">
        <ele>60</ele>
        <time>2021-05-08T12:22:55.000Z</time>
      </trkpt>
      <trkpt lat="47.10993" lon="-2.1066">
        <ele>60</ele>
        <time>2021-05-08T12:22:57.000Z</time>
      </trkpt>
      <trkpt lat="47.10988" lon="-2.10679">
        <ele>60</ele>
        <time>2021-05-08T12:22:59.000Z</time>
      </trkpt>
      <trkpt lat="47.1098" lon="-2.10692">
        <ele>60</ele>
        <time>2021-05-08T12:23:01.000Z</time>
      </trkpt>
      <trkpt lat="47.1097" lon="-2.10702">
        <ele>60</ele>
        <time>2021-05-08T12:23:03.000Z</time>
      </trkpt>
      <trkpt lat="47.10961" lon="-2.10713">
        <ele>60</ele>
        <time>2021-05-08T12:23:05.000Z</time>
      </trkpt>
      <trkpt lat="47.10954" lon="-2.10727">
        <ele>60</ele>
        <time>2021-05-08T12:23:07.000Z</time>
      </trkpt>
      <trkpt lat="47.10945" lon="-2.10738">
        <ele>60</ele>
        <time>2021-05-08T12:23:09.000Z</time>
      </trkpt>
      <trkpt lat="47.10935" lon="-2.10743">
        <ele>60</ele>
        <time>2021-05-08T12:23:11.000Z</time>
      </trkpt>
      <trkpt lat="47.10923" lon="-2.10741">
        <ele>59</ele>
        <time>2021-05-08T12:23:13.000Z</time>
      </trkpt>
      <trkpt lat="47.10914" lon="-2.10733">
        <ele>60</ele>
        <time>2021-05-08T12:23:15.000Z</time>
      </trkpt>
      <trkpt lat="47.10906" lon="-2.10723">
        <ele>60</ele>
        <time>2021-05-08T12:23:17.000Z</time>
      </trkpt>
      <trkpt lat="47.10896" lon="-2.10721">
        <ele>60</ele>
        <time>2021-05-08T12:23:19.000Z</time>
      </trkpt>
      <trkpt lat="47.10886" lon="-2.10725">
        <ele>60</ele>
        <time>2021-05-08T12:23:21.000Z</time>
      </trkpt>
      <trkpt lat="47.10876" lon="-2.1073">
        <ele>59</ele>
        <time>2021-05-08T12:23:23.000Z</time>
      </trkpt>
      <trkpt lat="47.10866" lon="-2.10735">
        <ele>59</ele>
        <time>2021-05-08T12:23:25.000Z</time>
      </trkpt>
      <trkpt lat="47.10855" lon="-2.10735">
        <ele>59</ele>
        <time>2021-05-08T12:23:27.000Z</time>
      </trkpt>
      <trkpt lat="47.10847" lon="-2.10725">
        <ele>60</ele>
        <time>2021-05-08T12:23:29.000Z</time>
      </trkpt>
      <trkpt lat="47.10841" lon="-2.10713">
        <ele>60</ele>
        <time>2021-05-08T12:23:31.000Z</time>
      </trkpt>
      <trkpt lat="47.10834" lon="-2.10702">
        <ele>60</ele>
        <time>2021-05-08T12:23:33.000Z</time>
      </trkpt>
      <trkpt lat="47.10826" lon="-2.10694">
        <ele>60</ele>
        <time>2021-05-08T12:23:35.000Z</time>
      </trkpt>
      <trkpt lat="47.10817" lon="-2.10684">
        <ele>60</ele>
        <time>2021-05-08T12:23:37.000Z</time>
      </trkpt>
      <trkpt lat="47.1081" lon="-2.10672">
        <ele>60</ele>
        <time>2021-05-08T12:23:39.000Z</time>
      </trkpt>
      <trkpt lat="47.10803" lon="-2.10659">
        <ele>60</ele>
        <time>2021-05-08T12:23:41.000Z</time>
      </trkpt>
      <trkpt lat="47.10795" lon="-2.10648">
        <ele>60</ele>
        <time>2021-05-08T12:23:43.000Z</time>
      </trkpt>
      <trkpt lat="47.10786" lon="-2.10639">
        <ele>60</ele>
        <time>2021-05-08T12:23:45.000Z</time>
      </trkpt>
      <trkpt lat="47.10777" lon="-2.10631">
        <ele>60</ele>
        <time>2021-05-08T12:23:47.000Z</time>
      </trkpt>
      <trkpt lat="47.10767" lon="-2.10624">
        <ele>60</ele>
        <time>2021-05-08T12:23:49.000Z</time>
      </trkpt>
      <trkpt lat="47.10758" lon="-2.10615">
        <ele>60</ele>
        <time>2021-05-08T12:23:51.000Z</time>
      </trkpt>
      <trkpt lat="47.10751" lon="-2.10603">
        <ele>61</ele>
        <time>2021-05-08T12:23:53.000Z</time>
      </trkpt>
      <trkpt lat="47.10746" lon="-2.1059">
        <ele>61</ele>
        <time>2021-05-08T12:23:55.000Z</time>
      </trkpt>
      <trkpt lat="47.10742" lon="-2.10577">
        <ele>62</ele>
        <time>2021-05-08T12:23:57.000Z</time>
      </trkpt>
      <trkpt lat="47.10744" lon="-2.10562">
        <ele>62</ele>
        <time>2021-05-08T12:23:59.000Z</time>
      </trkpt>
      <trkpt lat="47.10751" lon="-2.10548">
        <ele>63</ele>
        <time>2021-05-08T12:24:01.000Z</time>
      </trkpt>
      <trkpt lat="47.10757" lon="-2.10535">
        <ele>63</ele>
        <time>2021-05-08T12:24:03.000Z</time>
      </trkpt>
      <trkpt lat="47.10763" lon="-2.1052">
        <ele>64</ele>
        <time>2021-05-08T12:24:05.000Z</time>
      </trkpt>
      <trkpt lat="47.1077" lon="-2.10507">
        <ele>64</ele>
        <time>2021-05-08T12:24:07.000Z</time>
      </trkpt>
      <trkpt lat="47.10776" lon="-2.10492">
        <ele>65</ele>
        <time>2021-05-08T12:24:09.000Z</time>
      </trkpt>
      <trkpt lat="47.10782" lon="-2.10479">
        <ele>66</ele>
        <time>2021-05-08T12:24:11.000Z</time>
      </trkpt>
      <trkpt lat="47.10787" lon="-2.10468">
        <ele>66</ele>
        <time>2021-05-08T12:24:13.000Z</time>
      </trkpt>
      <trkpt lat="47.10791" lon="-2.10456">
        <ele>67</ele>
        <time>2021-05-08T12:24:15.000Z</time>
      </trkpt>
      <trkpt lat="47.10797" lon="-2.10443">
        <ele>68</ele>
        <time>2021-05-08T12:24:17.000Z</time>
      </trkpt>
      <trkpt lat="47.10804" lon="-2.10429">
        <ele>69</ele>
        <time>2021-05-08T12:24:19.000Z</time>
      </trkpt>
      <trkpt lat="47.1081" lon="-2.10415">
        <ele>70</ele>
        <time>2021-05-08T12:24:21.000Z</time>
      </trkpt>
      <trkpt lat="47.10816" lon="-2.10401">
        <ele>71</ele>
        <time>2021-05-08T12:24:23.000Z</time>
      </trkpt>
      <trkpt lat="47.10821" lon="-2.10388">
        <ele>71</ele>
        <time>2021-05-08T12:24:25.000Z</time>
      </trkpt>
      <trkpt lat="47.10827" lon="-2.10375">
        <ele>72</ele>
        <time>2021-05-08T12:24:27.000Z</time>
      </trkpt>
      <trkpt lat="47.10832" lon="-2.10364">
        <ele>72</ele>
        <time>2021-05-08T12:24:29.000Z</time>
      </trkpt>
      <trkpt lat="47.10838" lon="-2.10349">
        <ele>73</ele>
        <time>2021-05-08T12:24:32.000Z</time>
      </trkpt>
      <trkpt lat="47.1084" lon="-2.10332">
        <ele>74</ele>
        <time>2021-05-08T12:24:35.000Z</time>
      </trkpt>
      <trkpt lat="47.10837" lon="-2.10318">
        <ele>74</ele>
        <time>2021-05-08T12:24:37.000Z</time>
      </trkpt>
      <trkpt lat="47.10832" lon="-2.10302">
        <ele>74</ele>
        <time>2021-05-08T12:24:39.000Z</time>
      </trkpt>
      <trkpt lat="47.10829" lon="-2.10287">
        <ele>74</ele>
        <time>2021-05-08T12:24:41.000Z</time>
      </trkpt>
      <trkpt lat="47.10827" lon="-2.10272">
        <ele>74</ele>
        <time>2021-05-08T12:24:43.000Z</time>
      </trkpt>
      <trkpt lat="47.10826" lon="-2.10257">
        <ele>74</ele>
        <time>2021-05-08T12:24:45.000Z</time>
      </trkpt>
      <trkpt lat="47.10824" lon="-2.10241">
        <ele>75</ele>
        <time>2021-05-08T12:24:47.000Z</time>
      </trkpt>
      <trkpt lat="47.1082" lon="-2.10226">
        <ele>75</ele>
        <time>2021-05-08T12:24:49.000Z</time>
      </trkpt>
      <trkpt lat="47.10817" lon="-2.10211">
        <ele>75</ele>
        <time>2021-05-08T12:24:51.000Z</time>
      </trkpt>
      <trkpt lat="47.10815" lon="-2.10195">
        <ele>75</ele>
        <time>2021-05-08T12:24:53.000Z</time>
      </trkpt>
      <trkpt lat="47.10814" lon="-2.10181">
        <ele>75</ele>
        <time>2021-05-08T12:24:55.000Z</time>
      </trkpt>
      <trkpt lat="47.10812" lon="-2.10166">
        <ele>75</ele>
        <time>2021-05-08T12:24:57.000Z</time>
      </trkpt>
      <trkpt lat="47.10808" lon="-2.10151">
        <ele>75</ele>
        <time>2021-05-08T12:24:59.000Z</time>
      </trkpt>
      <trkpt lat="47.10805" lon="-2.10136">
        <ele>75</ele>
        <time>2021-05-08T12:25:01.000Z</time>
      </trkpt>
      <trkpt lat="47.10804" lon="-2.1012">
        <ele>74</ele>
        <time>2021-05-08T12:25:03.000Z</time>
      </trkpt>
      <trkpt lat="47.10803" lon="-2.10102">
        <ele>74</ele>
        <time>2021-05-08T12:25:05.000Z</time>
      </trkpt>
      <trkpt lat="47.108" lon="-2.10086">
        <ele>74</ele>
        <time>2021-05-08T12:25:07.000Z</time>
      </trkpt>
      <trkpt lat="47.10798" lon="-2.1007">
        <ele>74</ele>
        <time>2021-05-08T12:25:09.000Z</time>
      </trkpt>
      <trkpt lat="47.10796" lon="-2.10054">
        <ele>74</ele>
        <time>2021-05-08T12:25:11.000Z</time>
      </trkpt>
      <trkpt lat="47.10794" lon="-2.10038">
        <ele>74</ele>
        <time>2021-05-08T12:25:13.000Z</time>
      </trkpt>
      <trkpt lat="47.10792" lon="-2.10023">
        <ele>74</ele>
        <time>2021-05-08T12:25:15.000Z</time>
      </trkpt>
      <trkpt lat="47.1079" lon="-2.10007">
        <ele>75</ele>
        <time>2021-05-08T12:25:17.000Z</time>
      </trkpt>
      <trkpt lat="47.10789" lon="-2.09991">
        <ele>74</ele>
        <time>2021-05-08T12:25:19.000Z</time>
      </trkpt>
      <trkpt lat="47.10789" lon="-2.09975">
        <ele>74</ele>
        <time>2021-05-08T12:25:21.000Z</time>
      </trkpt>
      <trkpt lat="47.10787" lon="-2.0996">
        <ele>74</ele>
        <time>2021-05-08T12:25:23.000Z</time>
      </trkpt>
      <trkpt lat="47.10786" lon="-2.09945">
        <ele>74</ele>
        <time>2021-05-08T12:25:25.000Z</time>
      </trkpt>
      <trkpt lat="47.10785" lon="-2.0993">
        <ele>73</ele>
        <time>2021-05-08T12:25:27.000Z</time>
      </trkpt>
      <trkpt lat="47.10784" lon="-2.09915">
        <ele>73</ele>
        <time>2021-05-08T12:25:29.000Z</time>
      </trkpt>
      <trkpt lat="47.10784" lon="-2.099">
        <ele>73</ele>
        <time>2021-05-08T12:25:31.000Z</time>
      </trkpt>
      <trkpt lat="47.10784" lon="-2.09884">
        <ele>73</ele>
        <time>2021-05-08T12:25:33.000Z</time>
      </trkpt>
      <trkpt lat="47.10783" lon="-2.09869">
        <ele>74</ele>
        <time>2021-05-08T12:25:35.000Z</time>
      </trkpt>
      <trkpt lat="47.10782" lon="-2.09855">
        <ele>73</ele>
        <time>2021-05-08T12:25:37.000Z</time>
      </trkpt>
      <trkpt lat="47.10782" lon="-2.09841">
        <ele>73</ele>
        <time>2021-05-08T12:25:39.000Z</time>
      </trkpt>
      <trkpt lat="47.10782" lon="-2.09823">
        <ele>73</ele>
        <time>2021-05-08T12:25:42.000Z</time>
      </trkpt>
      <trkpt lat="47.10782" lon="-2.09809">
        <ele>73</ele>
        <time>2021-05-08T12:25:46.000Z</time>
      </trkpt>
      <trkpt lat="47.1078" lon="-2.09791">
        <ele>72</ele>
        <time>2021-05-08T12:25:52.000Z</time>
      </trkpt>
      <trkpt lat="47.10781" lon="-2.09774">
        <ele>72</ele>
        <time>2021-05-08T12:25:54.000Z</time>
      </trkpt>
      <trkpt lat="47.10782" lon="-2.09754">
        <ele>72</ele>
        <time>2021-05-08T12:25:56.000Z</time>
      </trkpt>
      <trkpt lat="47.1078" lon="-2.09733">
        <ele>72</ele>
        <time>2021-05-08T12:25:58.000Z</time>
      </trkpt>
      <trkpt lat="47.10776" lon="-2.09715">
        <ele>72</ele>
        <time>2021-05-08T12:26:00.000Z</time>
      </trkpt>
      <trkpt lat="47.10772" lon="-2.09697">
        <ele>72</ele>
        <time>2021-05-08T12:26:02.000Z</time>
      </trkpt>
      <trkpt lat="47.10768" lon="-2.09681">
        <ele>72</ele>
        <time>2021-05-08T12:26:04.000Z</time>
      </trkpt>
      <trkpt lat="47.10764" lon="-2.09664">
        <ele>71</ele>
        <time>2021-05-08T12:26:06.000Z</time>
      </trkpt>
      <trkpt lat="47.10761" lon="-2.09648">
        <ele>71</ele>
        <time>2021-05-08T12:26:08.000Z</time>
      </trkpt>
      <trkpt lat="47.10757" lon="-2.09632">
        <ele>71</ele>
        <time>2021-05-08T12:26:10.000Z</time>
      </trkpt>
      <trkpt lat="47.10754" lon="-2.09619">
        <ele>72</ele>
        <time>2021-05-08T12:26:12.000Z</time>
      </trkpt>
      <trkpt lat="47.10757" lon="-2.09604">
        <ele>74</ele>
        <time>2021-05-08T12:26:24.000Z</time>
      </trkpt>
      <trkpt lat="47.10756" lon="-2.09588">
        <ele>74</ele>
        <time>2021-05-08T12:26:27.000Z</time>
      </trkpt>
      <trkpt lat="47.10751" lon="-2.09576">
        <ele>73</ele>
        <time>2021-05-08T12:26:29.000Z</time>
      </trkpt>
      <trkpt lat="47.10746" lon="-2.09562">
        <ele>74</ele>
        <time>2021-05-08T12:26:31.000Z</time>
      </trkpt>
      <trkpt lat="47.1074" lon="-2.09548">
        <ele>74</ele>
        <time>2021-05-08T12:26:33.000Z</time>
      </trkpt>
      <trkpt lat="47.10735" lon="-2.09535">
        <ele>73</ele>
        <time>2021-05-08T12:26:35.000Z</time>
      </trkpt>
      <trkpt lat="47.10728" lon="-2.09524">
        <ele>74</ele>
        <time>2021-05-08T12:26:37.000Z</time>
      </trkpt>
      <trkpt lat="47.1072" lon="-2.09515">
        <ele>75</ele>
        <time>2021-05-08T12:26:39.000Z</time>
      </trkpt>
      <trkpt lat="47.10713" lon="-2.09504">
        <ele>75</ele>
        <time>2021-05-08T12:26:41.000Z</time>
      </trkpt>
      <trkpt lat="47.10709" lon="-2.09492">
        <ele>76</ele>
        <time>2021-05-08T12:26:43.000Z</time>
      </trkpt>
      <trkpt lat="47.10713" lon="-2.0948">
        <ele>76</ele>
        <time>2021-05-08T12:26:45.000Z</time>
      </trkpt>
      <trkpt lat="47.10721" lon="-2.09471">
        <ele>75</ele>
        <time>2021-05-08T12:26:47.000Z</time>
      </trkpt>
      <trkpt lat="47.10729" lon="-2.09462">
        <ele>75</ele>
        <time>2021-05-08T12:26:49.000Z</time>
      </trkpt>
      <trkpt lat="47.10735" lon="-2.09451">
        <ele>74</ele>
        <time>2021-05-08T12:26:51.000Z</time>
      </trkpt>
      <trkpt lat="47.10733" lon="-2.09436">
        <ele>74</ele>
        <time>2021-05-08T12:26:53.000Z</time>
      </trkpt>
      <trkpt lat="47.10728" lon="-2.09422">
        <ele>74</ele>
        <time>2021-05-08T12:26:55.000Z</time>
      </trkpt>
      <trkpt lat="47.10722" lon="-2.09409">
        <ele>73</ele>
        <time>2021-05-08T12:26:57.000Z</time>
      </trkpt>
      <trkpt lat="47.10716" lon="-2.09394">
        <ele>73</ele>
        <time>2021-05-08T12:26:59.000Z</time>
      </trkpt>
      <trkpt lat="47.10709" lon="-2.09378">
        <ele>72</ele>
        <time>2021-05-08T12:27:01.000Z</time>
      </trkpt>
      <trkpt lat="47.10702" lon="-2.09359">
        <ele>71</ele>
        <time>2021-05-08T12:27:03.000Z</time>
      </trkpt>
      <trkpt lat="47.10697" lon="-2.0934">
        <ele>71</ele>
        <time>2021-05-08T12:27:05.000Z</time>
      </trkpt>
      <trkpt lat="47.10694" lon="-2.09321">
        <ele>71</ele>
        <time>2021-05-08T12:27:07.000Z</time>
      </trkpt>
      <trkpt lat="47.10691" lon="-2.09304">
        <ele>72</ele>
        <time>2021-05-08T12:27:09.000Z</time>
      </trkpt>
      <trkpt lat="47.10689" lon="-2.09287">
        <ele>72</ele>
        <time>2021-05-08T12:27:11.000Z</time>
      </trkpt>
      <trkpt lat="47.10687" lon="-2.09271">
        <ele>72</ele>
        <time>2021-05-08T12:27:13.000Z</time>
      </trkpt>
      <trkpt lat="47.10685" lon="-2.09255">
        <ele>73</ele>
        <time>2021-05-08T12:27:15.000Z</time>
      </trkpt>
      <trkpt lat="47.10683" lon="-2.09239">
        <ele>74</ele>
        <time>2021-05-08T12:27:17.000Z</time>
      </trkpt>
      <trkpt lat="47.10681" lon="-2.09221">
        <ele>74</ele>
        <time>2021-05-08T12:27:19.000Z</time>
      </trkpt>
      <trkpt lat="47.10679" lon="-2.09204">
        <ele>75</ele>
        <time>2021-05-08T12:27:21.000Z</time>
      </trkpt>
      <trkpt lat="47.10676" lon="-2.09188">
        <ele>75</ele>
        <time>2021-05-08T12:27:23.000Z</time>
      </trkpt>
      <trkpt lat="47.10675" lon="-2.09172">
        <ele>75</ele>
        <time>2021-05-08T12:27:25.000Z</time>
      </trkpt>
      <trkpt lat="47.10672" lon="-2.09157">
        <ele>76</ele>
        <time>2021-05-08T12:27:27.000Z</time>
      </trkpt>
      <trkpt lat="47.10669" lon="-2.09144">
        <ele>76</ele>
        <time>2021-05-08T12:27:29.000Z</time>
      </trkpt>
      <trkpt lat="47.10666" lon="-2.09131">
        <ele>76</ele>
        <time>2021-05-08T12:27:31.000Z</time>
      </trkpt>
      <trkpt lat="47.10664" lon="-2.09118">
        <ele>76</ele>
        <time>2021-05-08T12:27:33.000Z</time>
      </trkpt>
      <trkpt lat="47.10661" lon="-2.09104">
        <ele>76</ele>
        <time>2021-05-08T12:27:35.000Z</time>
      </trkpt>
      <trkpt lat="47.10669" lon="-2.09093">
        <ele>75</ele>
        <time>2021-05-08T12:27:37.000Z</time>
      </trkpt>
      <trkpt lat="47.10679" lon="-2.09088">
        <ele>76</ele>
        <time>2021-05-08T12:27:39.000Z</time>
      </trkpt>
      <trkpt lat="47.1069" lon="-2.09084">
        <ele>76</ele>
        <time>2021-05-08T12:27:41.000Z</time>
      </trkpt>
      <trkpt lat="47.10701" lon="-2.09082">
        <ele>76</ele>
        <time>2021-05-08T12:27:43.000Z</time>
      </trkpt>
      <trkpt lat="47.10713" lon="-2.0908">
        <ele>76</ele>
        <time>2021-05-08T12:27:45.000Z</time>
      </trkpt>
      <trkpt lat="47.10724" lon="-2.09078">
        <ele>76</ele>
        <time>2021-05-08T12:27:47.000Z</time>
      </trkpt>
      <trkpt lat="47.10735" lon="-2.09076">
        <ele>76</ele>
        <time>2021-05-08T12:27:49.000Z</time>
      </trkpt>
      <trkpt lat="47.10745" lon="-2.09074">
        <ele>77</ele>
        <time>2021-05-08T12:27:51.000Z</time>
      </trkpt>
      <trkpt lat="47.10755" lon="-2.0907">
        <ele>77</ele>
        <time>2021-05-08T12:27:53.000Z</time>
      </trkpt>
      <trkpt lat="47.10757" lon="-2.09051">
        <ele>77</ele>
        <time>2021-05-08T12:27:56.000Z</time>
      </trkpt>
      <trkpt lat="47.10754" lon="-2.09035">
        <ele>78</ele>
        <time>2021-05-08T12:27:58.000Z</time>
      </trkpt>
      <trkpt lat="47.1075" lon="-2.09019">
        <ele>78</ele>
        <time>2021-05-08T12:28:00.000Z</time>
      </trkpt>
      <trkpt lat="47.10747" lon="-2.09004">
        <ele>77</ele>
        <time>2021-05-08T12:28:02.000Z</time>
      </trkpt>
      <trkpt lat="47.10743" lon="-2.08988">
        <ele>77</ele>
        <time>2021-05-08T12:28:04.000Z</time>
      </trkpt>
      <trkpt lat="47.1074" lon="-2.08972">
        <ele>76</ele>
        <time>2021-05-08T12:28:06.000Z</time>
      </trkpt>
      <trkpt lat="47.10739" lon="-2.08955">
        <ele>77</ele>
        <time>2021-05-08T12:28:08.000Z</time>
      </trkpt>
      <trkpt lat="47.10741" lon="-2.08938">
        <ele>77</ele>
        <time>2021-05-08T12:28:10.000Z</time>
      </trkpt>
      <trkpt lat="47.10745" lon="-2.08923">
        <ele>77</ele>
        <time>2021-05-08T12:28:12.000Z</time>
      </trkpt>
      <trkpt lat="47.10751" lon="-2.08908">
        <ele>77</ele>
        <time>2021-05-08T12:28:14.000Z</time>
      </trkpt>
      <trkpt lat="47.10758" lon="-2.08894">
        <ele>77</ele>
        <time>2021-05-08T12:28:16.000Z</time>
      </trkpt>
      <trkpt lat="47.10764" lon="-2.0888">
        <ele>77</ele>
        <time>2021-05-08T12:28:18.000Z</time>
      </trkpt>
      <trkpt lat="47.10768" lon="-2.08865">
        <ele>78</ele>
        <time>2021-05-08T12:28:20.000Z</time>
      </trkpt>
      <trkpt lat="47.10771" lon="-2.08848">
        <ele>78</ele>
        <time>2021-05-08T12:28:22.000Z</time>
      </trkpt>
      <trkpt lat="47.10773" lon="-2.08831">
        <ele>78</ele>
        <time>2021-05-08T12:28:24.000Z</time>
      </trkpt>
      <trkpt lat="47.1077" lon="-2.08814">
        <ele>78</ele>
        <time>2021-05-08T12:28:26.000Z</time>
      </trkpt>
      <trkpt lat="47.10766" lon="-2.08797">
        <ele>79</ele>
        <time>2021-05-08T12:28:28.000Z</time>
      </trkpt>
      <trkpt lat="47.10761" lon="-2.08781">
        <ele>79</ele>
        <time>2021-05-08T12:28:30.000Z</time>
      </trkpt>
      <trkpt lat="47.10757" lon="-2.08766">
        <ele>79</ele>
        <time>2021-05-08T12:28:32.000Z</time>
      </trkpt>
      <trkpt lat="47.10752" lon="-2.0875">
        <ele>78</ele>
        <time>2021-05-08T12:28:34.000Z</time>
      </trkpt>
      <trkpt lat="47.10748" lon="-2.08733">
        <ele>78</ele>
        <time>2021-05-08T12:28:36.000Z</time>
      </trkpt>
      <trkpt lat="47.10745" lon="-2.08718">
        <ele>78</ele>
        <time>2021-05-08T12:28:38.000Z</time>
      </trkpt>
      <trkpt lat="47.10742" lon="-2.08702">
        <ele>78</ele>
        <time>2021-05-08T12:28:40.000Z</time>
      </trkpt>
      <trkpt lat="47.10738" lon="-2.08685">
        <ele>78</ele>
        <time>2021-05-08T12:28:42.000Z</time>
      </trkpt>
      <trkpt lat="47.10735" lon="-2.0867">
        <ele>78</ele>
        <time>2021-05-08T12:28:44.000Z</time>
      </trkpt>
      <trkpt lat="47.1073" lon="-2.08656">
        <ele>78</ele>
        <time>2021-05-08T12:28:46.000Z</time>
      </trkpt>
      <trkpt lat="47.10724" lon="-2.08642">
        <ele>78</ele>
        <time>2021-05-08T12:28:48.000Z</time>
      </trkpt>
      <trkpt lat="47.10719" lon="-2.08626">
        <ele>77</ele>
        <time>2021-05-08T12:28:50.000Z</time>
      </trkpt>
      <trkpt lat="47.10715" lon="-2.08609">
        <ele>77</ele>
        <time>2021-05-08T12:28:52.000Z</time>
      </trkpt>
      <trkpt lat="47.10713" lon="-2.08591">
        <ele>77</ele>
        <time>2021-05-08T12:28:54.000Z</time>
      </trkpt>
      <trkpt lat="47.10711" lon="-2.08572">
        <ele>77</ele>
        <time>2021-05-08T12:28:56.000Z</time>
      </trkpt>
      <trkpt lat="47.10709" lon="-2.08554">
        <ele>77</ele>
        <time>2021-05-08T12:28:58.000Z</time>
      </trkpt>
      <trkpt lat="47.10708" lon="-2.08535">
        <ele>76</ele>
        <time>2021-05-08T12:29:00.000Z</time>
      </trkpt>
      <trkpt lat="47.10706" lon="-2.08517">
        <ele>76</ele>
        <time>2021-05-08T12:29:02.000Z</time>
      </trkpt>
      <trkpt lat="47.10702" lon="-2.08498">
        <ele>76</ele>
        <time>2021-05-08T12:29:04.000Z</time>
      </trkpt>
      <trkpt lat="47.10697" lon="-2.08481">
        <ele>75</ele>
        <time>2021-05-08T12:29:06.000Z</time>
      </trkpt>
      <trkpt lat="47.10691" lon="-2.08463">
        <ele>75</ele>
        <time>2021-05-08T12:29:08.000Z</time>
      </trkpt>
      <trkpt lat="47.10684" lon="-2.08446">
        <ele>75</ele>
        <time>2021-05-08T12:29:10.000Z</time>
      </trkpt>
      <trkpt lat="47.10676" lon="-2.0843">
        <ele>76</ele>
        <time>2021-05-08T12:29:12.000Z</time>
      </trkpt>
      <trkpt lat="47.10668" lon="-2.08415">
        <ele>76</ele>
        <time>2021-05-08T12:29:14.000Z</time>
      </trkpt>
      <trkpt lat="47.10659" lon="-2.084">
        <ele>77</ele>
        <time>2021-05-08T12:29:16.000Z</time>
      </trkpt>
      <trkpt lat="47.1065" lon="-2.08386">
        <ele>77</ele>
        <time>2021-05-08T12:29:18.000Z</time>
      </trkpt>
      <trkpt lat="47.10642" lon="-2.08372">
        <ele>77</ele>
        <time>2021-05-08T12:29:20.000Z</time>
      </trkpt>
      <trkpt lat="47.10634" lon="-2.08357">
        <ele>77</ele>
        <time>2021-05-08T12:29:22.000Z</time>
      </trkpt>
      <trkpt lat="47.10626" lon="-2.08343">
        <ele>77</ele>
        <time>2021-05-08T12:29:24.000Z</time>
      </trkpt>
      <trkpt lat="47.10618" lon="-2.0833">
        <ele>78</ele>
        <time>2021-05-08T12:29:26.000Z</time>
      </trkpt>
      <trkpt lat="47.1061" lon="-2.08316">
        <ele>78</ele>
        <time>2021-05-08T12:29:28.000Z</time>
      </trkpt>
      <trkpt lat="47.10602" lon="-2.08302">
        <ele>78</ele>
        <time>2021-05-08T12:29:30.000Z</time>
      </trkpt>
      <trkpt lat="47.10595" lon="-2.08286">
        <ele>78</ele>
        <time>2021-05-08T12:29:32.000Z</time>
      </trkpt>
      <trkpt lat="47.10587" lon="-2.08272">
        <ele>78</ele>
        <time>2021-05-08T12:29:34.000Z</time>
      </trkpt>
      <trkpt lat="47.10579" lon="-2.08257">
        <ele>78</ele>
        <time>2021-05-08T12:29:36.000Z</time>
      </trkpt>
      <trkpt lat="47.10571" lon="-2.08242">
        <ele>78</ele>
        <time>2021-05-08T12:29:38.000Z</time>
      </trkpt>
      <trkpt lat="47.10563" lon="-2.08228">
        <ele>77</ele>
        <time>2021-05-08T12:29:40.000Z</time>
      </trkpt>
      <trkpt lat="47.10555" lon="-2.08213">
        <ele>77</ele>
        <time>2021-05-08T12:29:42.000Z</time>
      </trkpt>
      <trkpt lat="47.10548" lon="-2.08198">
        <ele>77</ele>
        <time>2021-05-08T12:29:44.000Z</time>
      </trkpt>
      <trkpt lat="47.1054" lon="-2.08182">
        <ele>77</ele>
        <time>2021-05-08T12:29:46.000Z</time>
      </trkpt>
      <trkpt lat="47.10532" lon="-2.08166">
        <ele>76</ele>
        <time>2021-05-08T12:29:48.000Z</time>
      </trkpt>
      <trkpt lat="47.10525" lon="-2.08151">
        <ele>76</ele>
        <time>2021-05-08T12:29:50.000Z</time>
      </trkpt>
      <trkpt lat="47.10518" lon="-2.08135">
        <ele>76</ele>
        <time>2021-05-08T12:29:52.000Z</time>
      </trkpt>
      <trkpt lat="47.10511" lon="-2.0812">
        <ele>77</ele>
        <time>2021-05-08T12:29:54.000Z</time>
      </trkpt>
      <trkpt lat="47.10503" lon="-2.08105">
        <ele>77</ele>
        <time>2021-05-08T12:29:56.000Z</time>
      </trkpt>
      <trkpt lat="47.10496" lon="-2.0809">
        <ele>77</ele>
        <time>2021-05-08T12:29:58.000Z</time>
      </trkpt>
      <trkpt lat="47.10489" lon="-2.08076">
        <ele>78</ele>
        <time>2021-05-08T12:30:00.000Z</time>
      </trkpt>
      <trkpt lat="47.10482" lon="-2.08062">
        <ele>78</ele>
        <time>2021-05-08T12:30:02.000Z</time>
      </trkpt>
      <trkpt lat="47.10475" lon="-2.08048">
        <ele>78</ele>
        <time>2021-05-08T12:30:04.000Z</time>
      </trkpt>
      <trkpt lat="47.10466" lon="-2.08037">
        <ele>77</ele>
        <time>2021-05-08T12:30:06.000Z</time>
      </trkpt>
      <trkpt lat="47.10456" lon="-2.08026">
        <ele>77</ele>
        <time>2021-05-08T12:30:08.000Z</time>
      </trkpt>
      <trkpt lat="47.10447" lon="-2.08015">
        <ele>77</ele>
        <time>2021-05-08T12:30:10.000Z</time>
      </trkpt>
      <trkpt lat="47.10437" lon="-2.08004">
        <ele>76</ele>
        <time>2021-05-08T12:30:12.000Z</time>
      </trkpt>
      <trkpt lat="47.10427" lon="-2.07994">
        <ele>76</ele>
        <time>2021-05-08T12:30:14.000Z</time>
      </trkpt>
      <trkpt lat="47.10421" lon="-2.07981">
        <ele>76</ele>
        <time>2021-05-08T12:30:16.000Z</time>
      </trkpt>
      <trkpt lat="47.10417" lon="-2.07965">
        <ele>76</ele>
        <time>2021-05-08T12:30:18.000Z</time>
      </trkpt>
      <trkpt lat="47.10411" lon="-2.0795">
        <ele>76</ele>
        <time>2021-05-08T12:30:20.000Z</time>
      </trkpt>
      <trkpt lat="47.10404" lon="-2.07932">
        <ele>75</ele>
        <time>2021-05-08T12:30:22.000Z</time>
      </trkpt>
      <trkpt lat="47.10397" lon="-2.07914">
        <ele>75</ele>
        <time>2021-05-08T12:30:24.000Z</time>
      </trkpt>
      <trkpt lat="47.10394" lon="-2.07895">
        <ele>75</ele>
        <time>2021-05-08T12:30:26.000Z</time>
      </trkpt>
      <trkpt lat="47.1039" lon="-2.07876">
        <ele>74</ele>
        <time>2021-05-08T12:30:28.000Z</time>
      </trkpt>
      <trkpt lat="47.10388" lon="-2.07856">
        <ele>73</ele>
        <time>2021-05-08T12:30:30.000Z</time>
      </trkpt>
      <trkpt lat="47.10389" lon="-2.07836">
        <ele>73</ele>
        <time>2021-05-08T12:30:32.000Z</time>
      </trkpt>
      <trkpt lat="47.10388" lon="-2.07817">
        <ele>73</ele>
        <time>2021-05-08T12:30:34.000Z</time>
      </trkpt>
      <trkpt lat="47.1039" lon="-2.07798">
        <ele>73</ele>
        <time>2021-05-08T12:30:36.000Z</time>
      </trkpt>
      <trkpt lat="47.10394" lon="-2.07779">
        <ele>73</ele>
        <time>2021-05-08T12:30:38.000Z</time>
      </trkpt>
      <trkpt lat="47.10399" lon="-2.0776">
        <ele>73</ele>
        <time>2021-05-08T12:30:40.000Z</time>
      </trkpt>
      <trkpt lat="47.10404" lon="-2.07742">
        <ele>73</ele>
        <time>2021-05-08T12:30:42.000Z</time>
      </trkpt>
      <trkpt lat="47.10409" lon="-2.07724">
        <ele>73</ele>
        <time>2021-05-08T12:30:44.000Z</time>
      </trkpt>
      <trkpt lat="47.10413" lon="-2.07706">
        <ele>73</ele>
        <time>2021-05-08T12:30:46.000Z</time>
      </trkpt>
      <trkpt lat="47.10414" lon="-2.07687">
        <ele>73</ele>
        <time>2021-05-08T12:30:48.000Z</time>
      </trkpt>
      <trkpt lat="47.10412" lon="-2.07668">
        <ele>74</ele>
        <time>2021-05-08T12:30:50.000Z</time>
      </trkpt>
      <trkpt lat="47.10409" lon="-2.07651">
        <ele>74</ele>
        <time>2021-05-08T12:30:52.000Z</time>
      </trkpt>
      <trkpt lat="47.10404" lon="-2.07637">
        <ele>75</ele>
        <time>2021-05-08T12:30:54.000Z</time>
      </trkpt>
      <trkpt lat="47.10398" lon="-2.0762">
        <ele>74</ele>
        <time>2021-05-08T12:30:56.000Z</time>
      </trkpt>
      <trkpt lat="47.10393" lon="-2.07601">
        <ele>75</ele>
        <time>2021-05-08T12:30:58.000Z</time>
      </trkpt>
      <trkpt lat="47.10388" lon="-2.07582">
        <ele>75</ele>
        <time>2021-05-08T12:31:00.000Z</time>
      </trkpt>
      <trkpt lat="47.10383" lon="-2.07562">
        <ele>74</ele>
        <time>2021-05-08T12:31:02.000Z</time>
      </trkpt>
      <trkpt lat="47.10377" lon="-2.07543">
        <ele>74</ele>
        <time>2021-05-08T12:31:04.000Z</time>
      </trkpt>
      <trkpt lat="47.1037" lon="-2.07525">
        <ele>74</ele>
        <time>2021-05-08T12:31:06.000Z</time>
      </trkpt>
      <trkpt lat="47.10363" lon="-2.07507">
        <ele>73</ele>
        <time>2021-05-08T12:31:08.000Z</time>
      </trkpt>
      <trkpt lat="47.10355" lon="-2.0749">
        <ele>73</ele>
        <time>2021-05-08T12:31:10.000Z</time>
      </trkpt>
      <trkpt lat="47.1035" lon="-2.07473">
        <ele>72</ele>
        <time>2021-05-08T12:31:12.000Z</time>
      </trkpt>
      <trkpt lat="47.10354" lon="-2.07457">
        <ele>72</ele>
        <time>2021-05-08T12:31:14.000Z</time>
      </trkpt>
      <trkpt lat="47.10361" lon="-2.0744">
        <ele>72</ele>
        <time>2021-05-08T12:31:16.000Z</time>
      </trkpt>
      <trkpt lat="47.10365" lon="-2.07422">
        <ele>72</ele>
        <time>2021-05-08T12:31:18.000Z</time>
      </trkpt>
      <trkpt lat="47.10369" lon="-2.07406">
        <ele>73</ele>
        <time>2021-05-08T12:31:20.000Z</time>
      </trkpt>
      <trkpt lat="47.10373" lon="-2.07391">
        <ele>74</ele>
        <time>2021-05-08T12:31:22.000Z</time>
      </trkpt>
      <trkpt lat="47.10375" lon="-2.07377">
        <ele>74</ele>
        <time>2021-05-08T12:31:24.000Z</time>
      </trkpt>
      <trkpt lat="47.10379" lon="-2.07362">
        <ele>74</ele>
        <time>2021-05-08T12:31:26.000Z</time>
      </trkpt>
      <trkpt lat="47.10381" lon="-2.07346">
        <ele>75</ele>
        <time>2021-05-08T12:31:28.000Z</time>
      </trkpt>
      <trkpt lat="47.10382" lon="-2.0733">
        <ele>75</ele>
        <time>2021-05-08T12:31:30.000Z</time>
      </trkpt>
      <trkpt lat="47.10385" lon="-2.07314">
        <ele>76</ele>
        <time>2021-05-08T12:31:32.000Z</time>
      </trkpt>
      <trkpt lat="47.10391" lon="-2.07301">
        <ele>77</ele>
        <time>2021-05-08T12:31:34.000Z</time>
      </trkpt>
      <trkpt lat="47.10398" lon="-2.07289">
        <ele>77</ele>
        <time>2021-05-08T12:31:36.000Z</time>
      </trkpt>
      <trkpt lat="47.10405" lon="-2.07277">
        <ele>77</ele>
        <time>2021-05-08T12:31:38.000Z</time>
      </trkpt>
      <trkpt lat="47.10412" lon="-2.07265">
        <ele>78</ele>
        <time>2021-05-08T12:31:40.000Z</time>
      </trkpt>
      <trkpt lat="47.10418" lon="-2.07252">
        <ele>78</ele>
        <time>2021-05-08T12:31:42.000Z</time>
      </trkpt>
      <trkpt lat="47.10424" lon="-2.07238">
        <ele>78</ele>
        <time>2021-05-08T12:31:44.000Z</time>
      </trkpt>
      <trkpt lat="47.10429" lon="-2.07224">
        <ele>79</ele>
        <time>2021-05-08T12:31:46.000Z</time>
      </trkpt>
      <trkpt lat="47.10433" lon="-2.0721">
        <ele>79</ele>
        <time>2021-05-08T12:31:48.000Z</time>
      </trkpt>
      <trkpt lat="47.10438" lon="-2.07195">
        <ele>79</ele>
        <time>2021-05-08T12:31:50.000Z</time>
      </trkpt>
      <trkpt lat="47.10441" lon="-2.07181">
        <ele>79</ele>
        <time>2021-05-08T12:31:52.000Z</time>
      </trkpt>
      <trkpt lat="47.10442" lon="-2.07166">
        <ele>79</ele>
        <time>2021-05-08T12:31:54.000Z</time>
      </trkpt>
      <trkpt lat="47.10441" lon="-2.07152">
        <ele>80</ele>
        <time>2021-05-08T12:31:56.000Z</time>
      </trkpt>
      <trkpt lat="47.10441" lon="-2.07133">
        <ele>80</ele>
        <time>2021-05-08T12:31:59.000Z</time>
      </trkpt>
      <trkpt lat="47.10442" lon="-2.07116">
        <ele>80</ele>
        <time>2021-05-08T12:32:02.000Z</time>
      </trkpt>
      <trkpt lat="47.10443" lon="-2.07102">
        <ele>81</ele>
        <time>2021-05-08T12:32:04.000Z</time>
      </trkpt>
      <trkpt lat="47.10445" lon="-2.07086">
        <ele>81</ele>
        <time>2021-05-08T12:32:06.000Z</time>
      </trkpt>
      <trkpt lat="47.10446" lon="-2.0707">
        <ele>82</ele>
        <time>2021-05-08T12:32:08.000Z</time>
      </trkpt>
      <trkpt lat="47.10449" lon="-2.07055">
        <ele>82</ele>
        <time>2021-05-08T12:32:10.000Z</time>
      </trkpt>
      <trkpt lat="47.10454" lon="-2.07038">
        <ele>82</ele>
        <time>2021-05-08T12:32:12.000Z</time>
      </trkpt>
      <trkpt lat="47.10458" lon="-2.07022">
        <ele>81</ele>
        <time>2021-05-08T12:32:14.000Z</time>
      </trkpt>
      <trkpt lat="47.10463" lon="-2.07006">
        <ele>82</ele>
        <time>2021-05-08T12:32:16.000Z</time>
      </trkpt>
      <trkpt lat="47.10468" lon="-2.06992">
        <ele>82</ele>
        <time>2021-05-08T12:32:18.000Z</time>
      </trkpt>
      <trkpt lat="47.10473" lon="-2.06978">
        <ele>82</ele>
        <time>2021-05-08T12:32:20.000Z</time>
      </trkpt>
      <trkpt lat="47.10478" lon="-2.06965">
        <ele>82</ele>
        <time>2021-05-08T12:32:22.000Z</time>
      </trkpt>
      <trkpt lat="47.10483" lon="-2.06952">
        <ele>82</ele>
        <time>2021-05-08T12:32:24.000Z</time>
      </trkpt>
      <trkpt lat="47.10489" lon="-2.0694">
        <ele>82</ele>
        <time>2021-05-08T12:32:26.000Z</time>
      </trkpt>
      <trkpt lat="47.10495" lon="-2.06928">
        <ele>82</ele>
        <time>2021-05-08T12:32:28.000Z</time>
      </trkpt>
      <trkpt lat="47.105" lon="-2.06915">
        <ele>82</ele>
        <time>2021-05-08T12:32:30.000Z</time>
      </trkpt>
      <trkpt lat="47.10502" lon="-2.069">
        <ele>82</ele>
        <time>2021-05-08T12:32:32.000Z</time>
      </trkpt>
      <trkpt lat="47.105" lon="-2.06884">
        <ele>82</ele>
        <time>2021-05-08T12:32:34.000Z</time>
      </trkpt>
      <trkpt lat="47.10495" lon="-2.06867">
        <ele>82</ele>
        <time>2021-05-08T12:32:36.000Z</time>
      </trkpt>
      <trkpt lat="47.10491" lon="-2.06851">
        <ele>82</ele>
        <time>2021-05-08T12:32:38.000Z</time>
      </trkpt>
      <trkpt lat="47.10486" lon="-2.06835">
        <ele>83</ele>
        <time>2021-05-08T12:32:40.000Z</time>
      </trkpt>
      <trkpt lat="47.10481" lon="-2.06819">
        <ele>83</ele>
        <time>2021-05-08T12:32:42.000Z</time>
      </trkpt>
      <trkpt lat="47.10477" lon="-2.06802">
        <ele>83</ele>
        <time>2021-05-08T12:32:44.000Z</time>
      </trkpt>
      <trkpt lat="47.10472" lon="-2.06785">
        <ele>83</ele>
        <time>2021-05-08T12:32:46.000Z</time>
      </trkpt>
      <trkpt lat="47.10468" lon="-2.06769">
        <ele>83</ele>
        <time>2021-05-08T12:32:48.000Z</time>
      </trkpt>
      <trkpt lat="47.10463" lon="-2.06752">
        <ele>84</ele>
        <time>2021-05-08T12:32:50.000Z</time>
      </trkpt>
      <trkpt lat="47.10458" lon="-2.06736">
        <ele>84</ele>
        <time>2021-05-08T12:32:52.000Z</time>
      </trkpt>
      <trkpt lat="47.10454" lon="-2.06719">
        <ele>84</ele>
        <time>2021-05-08T12:32:54.000Z</time>
      </trkpt>
      <trkpt lat="47.10449" lon="-2.06702">
        <ele>84</ele>
        <time>2021-05-08T12:32:56.000Z</time>
      </trkpt>
      <trkpt lat="47.10444" lon="-2.06686">
        <ele>84</ele>
        <time>2021-05-08T12:32:58.000Z</time>
      </trkpt>
      <trkpt lat="47.10439" lon="-2.06669">
        <ele>84</ele>
        <time>2021-05-08T12:33:00.000Z</time>
      </trkpt>
      <trkpt lat="47.10434" lon="-2.06653">
        <ele>84</ele>
        <time>2021-05-08T12:33:02.000Z</time>
      </trkpt>
      <trkpt lat="47.10429" lon="-2.06637">
        <ele>84</ele>
        <time>2021-05-08T12:33:04.000Z</time>
      </trkpt>
      <trkpt lat="47.10425" lon="-2.06621">
        <ele>84</ele>
        <time>2021-05-08T12:33:06.000Z</time>
      </trkpt>
      <trkpt lat="47.10421" lon="-2.06606">
        <ele>84</ele>
        <time>2021-05-08T12:33:08.000Z</time>
      </trkpt>
      <trkpt lat="47.10415" lon="-2.06589">
        <ele>85</ele>
        <time>2021-05-08T12:33:10.000Z</time>
      </trkpt>
      <trkpt lat="47.10411" lon="-2.06572">
        <ele>85</ele>
        <time>2021-05-08T12:33:12.000Z</time>
      </trkpt>
      <trkpt lat="47.10405" lon="-2.06556">
        <ele>85</ele>
        <time>2021-05-08T12:33:14.000Z</time>
      </trkpt>
      <trkpt lat="47.104" lon="-2.06539">
        <ele>85</ele>
        <time>2021-05-08T12:33:16.000Z</time>
      </trkpt>
      <trkpt lat="47.10395" lon="-2.06522">
        <ele>85</ele>
        <time>2021-05-08T12:33:18.000Z</time>
      </trkpt>
      <trkpt lat="47.10391" lon="-2.06506">
        <ele>85</ele>
        <time>2021-05-08T12:33:20.000Z</time>
      </trkpt>
      <trkpt lat="47.10386" lon="-2.06489">
        <ele>85</ele>
        <time>2021-05-08T12:33:22.000Z</time>
      </trkpt>
      <trkpt lat="47.10381" lon="-2.06472">
        <ele>85</ele>
        <time>2021-05-08T12:33:24.000Z</time>
      </trkpt>
      <trkpt lat="47.10376" lon="-2.06455">
        <ele>85</ele>
        <time>2021-05-08T12:33:26.000Z</time>
      </trkpt>
      <trkpt lat="47.10371" lon="-2.06437">
        <ele>86</ele>
        <time>2021-05-08T12:33:28.000Z</time>
      </trkpt>
      <trkpt lat="47.10366" lon="-2.0642">
        <ele>86</ele>
        <time>2021-05-08T12:33:30.000Z</time>
      </trkpt>
      <trkpt lat="47.10362" lon="-2.06403">
        <ele>86</ele>
        <time>2021-05-08T12:33:32.000Z</time>
      </trkpt>
      <trkpt lat="47.10357" lon="-2.06386">
        <ele>86</ele>
        <time>2021-05-08T12:33:34.000Z</time>
      </trkpt>
      <trkpt lat="47.10352" lon="-2.06369">
        <ele>86</ele>
        <time>2021-05-08T12:33:36.000Z</time>
      </trkpt>
      <trkpt lat="47.10347" lon="-2.06352">
        <ele>86</ele>
        <time>2021-05-08T12:33:38.000Z</time>
      </trkpt>
      <trkpt lat="47.10342" lon="-2.06335">
        <ele>86</ele>
        <time>2021-05-08T12:33:40.000Z</time>
      </trkpt>
      <trkpt lat="47.10337" lon="-2.06317">
        <ele>86</ele>
        <time>2021-05-08T12:33:42.000Z</time>
      </trkpt>
      <trkpt lat="47.10332" lon="-2.063">
        <ele>87</ele>
        <time>2021-05-08T12:33:44.000Z</time>
      </trkpt>
      <trkpt lat="47.10327" lon="-2.06283">
        <ele>87</ele>
        <time>2021-05-08T12:33:46.000Z</time>
      </trkpt>
      <trkpt lat="47.10322" lon="-2.06266">
        <ele>87</ele>
        <time>2021-05-08T12:33:48.000Z</time>
      </trkpt>
      <trkpt lat="47.10317" lon="-2.06248">
        <ele>87</ele>
        <time>2021-05-08T12:33:50.000Z</time>
      </trkpt>
      <trkpt lat="47.10312" lon="-2.06231">
        <ele>88</ele>
        <time>2021-05-08T12:33:52.000Z</time>
      </trkpt>
      <trkpt lat="47.10307" lon="-2.06213">
        <ele>88</ele>
        <time>2021-05-08T12:33:54.000Z</time>
      </trkpt>
      <trkpt lat="47.10302" lon="-2.06197">
        <ele>88</ele>
        <time>2021-05-08T12:33:56.000Z</time>
      </trkpt>
      <trkpt lat="47.10297" lon="-2.0618">
        <ele>88</ele>
        <time>2021-05-08T12:33:58.000Z</time>
      </trkpt>
      <trkpt lat="47.10291" lon="-2.06163">
        <ele>88</ele>
        <time>2021-05-08T12:34:00.000Z</time>
      </trkpt>
      <trkpt lat="47.10286" lon="-2.06146">
        <ele>88</ele>
        <time>2021-05-08T12:34:02.000Z</time>
      </trkpt>
      <trkpt lat="47.1028" lon="-2.06129">
        <ele>88</ele>
        <time>2021-05-08T12:34:04.000Z</time>
      </trkpt>
      <trkpt lat="47.10275" lon="-2.06112">
        <ele>88</ele>
        <time>2021-05-08T12:34:06.000Z</time>
      </trkpt>
      <trkpt lat="47.10269" lon="-2.06095">
        <ele>88</ele>
        <time>2021-05-08T12:34:08.000Z</time>
      </trkpt>
      <trkpt lat="47.10264" lon="-2.06079">
        <ele>88</ele>
        <time>2021-05-08T12:34:10.000Z</time>
      </trkpt>
      <trkpt lat="47.10258" lon="-2.06063">
        <ele>88</ele>
        <time>2021-05-08T12:34:12.000Z</time>
      </trkpt>
      <trkpt lat="47.10252" lon="-2.06046">
        <ele>89</ele>
        <time>2021-05-08T12:34:14.000Z</time>
      </trkpt>
      <trkpt lat="47.10246" lon="-2.0603">
        <ele>89</ele>
        <time>2021-05-08T12:34:16.000Z</time>
      </trkpt>
      <trkpt lat="47.1024" lon="-2.06014">
        <ele>89</ele>
        <time>2021-05-08T12:34:18.000Z</time>
      </trkpt>
      <trkpt lat="47.10235" lon="-2.05997">
        <ele>89</ele>
        <time>2021-05-08T12:34:20.000Z</time>
      </trkpt>
      <trkpt lat="47.1023" lon="-2.0598">
        <ele>89</ele>
        <time>2021-05-08T12:34:22.000Z</time>
      </trkpt>
      <trkpt lat="47.10225" lon="-2.05962">
        <ele>89</ele>
        <time>2021-05-08T12:34:24.000Z</time>
      </trkpt>
      <trkpt lat="47.10219" lon="-2.05946">
        <ele>89</ele>
        <time>2021-05-08T12:34:26.000Z</time>
      </trkpt>
      <trkpt lat="47.10214" lon="-2.05929">
        <ele>89</ele>
        <time>2021-05-08T12:34:28.000Z</time>
      </trkpt>
      <trkpt lat="47.10208" lon="-2.05912">
        <ele>88</ele>
        <time>2021-05-08T12:34:30.000Z</time>
      </trkpt>
      <trkpt lat="47.10203" lon="-2.05895">
        <ele>88</ele>
        <time>2021-05-08T12:34:32.000Z</time>
      </trkpt>
      <trkpt lat="47.10197" lon="-2.05878">
        <ele>88</ele>
        <time>2021-05-08T12:34:34.000Z</time>
      </trkpt>
      <trkpt lat="47.10191" lon="-2.05861">
        <ele>88</ele>
        <time>2021-05-08T12:34:36.000Z</time>
      </trkpt>
      <trkpt lat="47.10186" lon="-2.05845">
        <ele>88</ele>
        <time>2021-05-08T12:34:38.000Z</time>
      </trkpt>
      <trkpt lat="47.10181" lon="-2.05829">
        <ele>88</ele>
        <time>2021-05-08T12:34:40.000Z</time>
      </trkpt>
      <trkpt lat="47.10175" lon="-2.05812">
        <ele>88</ele>
        <time>2021-05-08T12:34:42.000Z</time>
      </trkpt>
      <trkpt lat="47.1017" lon="-2.05795">
        <ele>88</ele>
        <time>2021-05-08T12:34:44.000Z</time>
      </trkpt>
      <trkpt lat="47.10164" lon="-2.05778">
        <ele>88</ele>
        <time>2021-05-08T12:34:46.000Z</time>
      </trkpt>
      <trkpt lat="47.10158" lon="-2.05761">
        <ele>89</ele>
        <time>2021-05-08T12:34:48.000Z</time>
      </trkpt>
      <trkpt lat="47.10153" lon="-2.05743">
        <ele>89</ele>
        <time>2021-05-08T12:34:50.000Z</time>
      </trkpt>
      <trkpt lat="47.10147" lon="-2.05726">
        <ele>89</ele>
        <time>2021-05-08T12:34:52.000Z</time>
      </trkpt>
      <trkpt lat="47.10141" lon="-2.05709">
        <ele>89</ele>
        <time>2021-05-08T12:34:54.000Z</time>
      </trkpt>
      <trkpt lat="47.10135" lon="-2.05693">
        <ele>89</ele>
        <time>2021-05-08T12:34:56.000Z</time>
      </trkpt>
      <trkpt lat="47.1013" lon="-2.05676">
        <ele>89</ele>
        <time>2021-05-08T12:34:58.000Z</time>
      </trkpt>
      <trkpt lat="47.10124" lon="-2.0566">
        <ele>89</ele>
        <time>2021-05-08T12:35:00.000Z</time>
      </trkpt>
      <trkpt lat="47.10119" lon="-2.05643">
        <ele>90</ele>
        <time>2021-05-08T12:35:02.000Z</time>
      </trkpt>
      <trkpt lat="47.10114" lon="-2.05627">
        <ele>90</ele>
        <time>2021-05-08T12:35:04.000Z</time>
      </trkpt>
      <trkpt lat="47.10108" lon="-2.05609">
        <ele>90</ele>
        <time>2021-05-08T12:35:06.000Z</time>
      </trkpt>
      <trkpt lat="47.10103" lon="-2.05593">
        <ele>90</ele>
        <time>2021-05-08T12:35:08.000Z</time>
      </trkpt>
      <trkpt lat="47.10097" lon="-2.05577">
        <ele>90</ele>
        <time>2021-05-08T12:35:10.000Z</time>
      </trkpt>
      <trkpt lat="47.10092" lon="-2.05561">
        <ele>90</ele>
        <time>2021-05-08T12:35:12.000Z</time>
      </trkpt>
      <trkpt lat="47.10087" lon="-2.05544">
        <ele>90</ele>
        <time>2021-05-08T12:35:14.000Z</time>
      </trkpt>
      <trkpt lat="47.10081" lon="-2.05527">
        <ele>90</ele>
        <time>2021-05-08T12:35:16.000Z</time>
      </trkpt>
      <trkpt lat="47.10076" lon="-2.05511">
        <ele>90</ele>
        <time>2021-05-08T12:35:18.000Z</time>
      </trkpt>
      <trkpt lat="47.1007" lon="-2.05494">
        <ele>89</ele>
        <time>2021-05-08T12:35:20.000Z</time>
      </trkpt>
      <trkpt lat="47.10065" lon="-2.05478">
        <ele>89</ele>
        <time>2021-05-08T12:35:22.000Z</time>
      </trkpt>
      <trkpt lat="47.10059" lon="-2.05461">
        <ele>88</ele>
        <time>2021-05-08T12:35:24.000Z</time>
      </trkpt>
      <trkpt lat="47.10054" lon="-2.05444">
        <ele>88</ele>
        <time>2021-05-08T12:35:26.000Z</time>
      </trkpt>
      <trkpt lat="47.10048" lon="-2.05426">
        <ele>88</ele>
        <time>2021-05-08T12:35:28.000Z</time>
      </trkpt>
      <trkpt lat="47.10042" lon="-2.05409">
        <ele>88</ele>
        <time>2021-05-08T12:35:30.000Z</time>
      </trkpt>
      <trkpt lat="47.10037" lon="-2.05392">
        <ele>88</ele>
        <time>2021-05-08T12:35:32.000Z</time>
      </trkpt>
      <trkpt lat="47.10031" lon="-2.05375">
        <ele>88</ele>
        <time>2021-05-08T12:35:34.000Z</time>
      </trkpt>
      <trkpt lat="47.10025" lon="-2.05358">
        <ele>88</ele>
        <time>2021-05-08T12:35:36.000Z</time>
      </trkpt>
      <trkpt lat="47.1002" lon="-2.0534">
        <ele>88</ele>
        <time>2021-05-08T12:35:38.000Z</time>
      </trkpt>
      <trkpt lat="47.10014" lon="-2.05324">
        <ele>88</ele>
        <time>2021-05-08T12:35:40.000Z</time>
      </trkpt>
      <trkpt lat="47.10008" lon="-2.05307">
        <ele>88</ele>
        <time>2021-05-08T12:35:42.000Z</time>
      </trkpt>
      <trkpt lat="47.10003" lon="-2.05289">
        <ele>88</ele>
        <time>2021-05-08T12:35:44.000Z</time>
      </trkpt>
      <trkpt lat="47.09997" lon="-2.05272">
        <ele>88</ele>
        <time>2021-05-08T12:35:46.000Z</time>
      </trkpt>
      <trkpt lat="47.09991" lon="-2.05255">
        <ele>87</ele>
        <time>2021-05-08T12:35:48.000Z</time>
      </trkpt>
      <trkpt lat="47.09985" lon="-2.05238">
        <ele>87</ele>
        <time>2021-05-08T12:35:50.000Z</time>
      </trkpt>
      <trkpt lat="47.0998" lon="-2.05221">
        <ele>87</ele>
        <time>2021-05-08T12:35:52.000Z</time>
      </trkpt>
      <trkpt lat="47.09974" lon="-2.05204">
        <ele>87</ele>
        <time>2021-05-08T12:35:54.000Z</time>
      </trkpt>
      <trkpt lat="47.09969" lon="-2.05186">
        <ele>86</ele>
        <time>2021-05-08T12:35:56.000Z</time>
      </trkpt>
      <trkpt lat="47.09963" lon="-2.05169">
        <ele>86</ele>
        <time>2021-05-08T12:35:58.000Z</time>
      </trkpt>
      <trkpt lat="47.09957" lon="-2.05152">
        <ele>86</ele>
        <time>2021-05-08T12:36:00.000Z</time>
      </trkpt>
      <trkpt lat="47.09951" lon="-2.05135">
        <ele>86</ele>
        <time>2021-05-08T12:36:02.000Z</time>
      </trkpt>
      <trkpt lat="47.09946" lon="-2.05118">
        <ele>86</ele>
        <time>2021-05-08T12:36:04.000Z</time>
      </trkpt>
      <trkpt lat="47.0994" lon="-2.05101">
        <ele>86</ele>
        <time>2021-05-08T12:36:06.000Z</time>
      </trkpt>
      <trkpt lat="47.09934" lon="-2.05083">
        <ele>86</ele>
        <time>2021-05-08T12:36:08.000Z</time>
      </trkpt>
      <trkpt lat="47.09929" lon="-2.05066">
        <ele>86</ele>
        <time>2021-05-08T12:36:10.000Z</time>
      </trkpt>
      <trkpt lat="47.09922" lon="-2.05049">
        <ele>86</ele>
        <time>2021-05-08T12:36:12.000Z</time>
      </trkpt>
      <trkpt lat="47.09917" lon="-2.05031">
        <ele>86</ele>
        <time>2021-05-08T12:36:14.000Z</time>
      </trkpt>
      <trkpt lat="47.09912" lon="-2.05014">
        <ele>86</ele>
        <time>2021-05-08T12:36:16.000Z</time>
      </trkpt>
      <trkpt lat="47.09906" lon="-2.04997">
        <ele>85</ele>
        <time>2021-05-08T12:36:18.000Z</time>
      </trkpt>
      <trkpt lat="47.099" lon="-2.0498">
        <ele>85</ele>
        <time>2021-05-08T12:36:20.000Z</time>
      </trkpt>
      <trkpt lat="47.09894" lon="-2.04964">
        <ele>85</ele>
        <time>2021-05-08T12:36:22.000Z</time>
      </trkpt>
      <trkpt lat="47.0989" lon="-2.04946">
        <ele>85</ele>
        <time>2021-05-08T12:36:24.000Z</time>
      </trkpt>
      <trkpt lat="47.09884" lon="-2.04928">
        <ele>84</ele>
        <time>2021-05-08T12:36:26.000Z</time>
      </trkpt>
      <trkpt lat="47.09878" lon="-2.0491">
        <ele>84</ele>
        <time>2021-05-08T12:36:28.000Z</time>
      </trkpt>
      <trkpt lat="47.09873" lon="-2.04893">
        <ele>84</ele>
        <time>2021-05-08T12:36:30.000Z</time>
      </trkpt>
      <trkpt lat="47.09868" lon="-2.04875">
        <ele>84</ele>
        <time>2021-05-08T12:36:32.000Z</time>
      </trkpt>
      <trkpt lat="47.09863" lon="-2.04857">
        <ele>84</ele>
        <time>2021-05-08T12:36:34.000Z</time>
      </trkpt>
      <trkpt lat="47.09858" lon="-2.04839">
        <ele>84</ele>
        <time>2021-05-08T12:36:36.000Z</time>
      </trkpt>
      <trkpt lat="47.09855" lon="-2.0482">
        <ele>84</ele>
        <time>2021-05-08T12:36:38.000Z</time>
      </trkpt>
      <trkpt lat="47.0985" lon="-2.04802">
        <ele>83</ele>
        <time>2021-05-08T12:36:40.000Z</time>
      </trkpt>
      <trkpt lat="47.09845" lon="-2.04785">
        <ele>83</ele>
        <time>2021-05-08T12:36:42.000Z</time>
      </trkpt>
      <trkpt lat="47.0984" lon="-2.04767">
        <ele>83</ele>
        <time>2021-05-08T12:36:44.000Z</time>
      </trkpt>
      <trkpt lat="47.09834" lon="-2.0475">
        <ele>83</ele>
        <time>2021-05-08T12:36:46.000Z</time>
      </trkpt>
      <trkpt lat="47.09829" lon="-2.04734">
        <ele>83</ele>
        <time>2021-05-08T12:36:48.000Z</time>
      </trkpt>
      <trkpt lat="47.09821" lon="-2.04719">
        <ele>83</ele>
        <time>2021-05-08T12:36:50.000Z</time>
      </trkpt>
      <trkpt lat="47.09812" lon="-2.04707">
        <ele>83</ele>
        <time>2021-05-08T12:36:52.000Z</time>
      </trkpt>
      <trkpt lat="47.09801" lon="-2.04696">
        <ele>83</ele>
        <time>2021-05-08T12:36:54.000Z</time>
      </trkpt>
      <trkpt lat="47.0979" lon="-2.04687">
        <ele>83</ele>
        <time>2021-05-08T12:36:56.000Z</time>
      </trkpt>
      <trkpt lat="47.09777" lon="-2.0468">
        <ele>83</ele>
        <time>2021-05-08T12:36:58.000Z</time>
      </trkpt>
      <trkpt lat="47.09765" lon="-2.04676">
        <ele>83</ele>
        <time>2021-05-08T12:37:00.000Z</time>
      </trkpt>
      <trkpt lat="47.09752" lon="-2.04673">
        <ele>83</ele>
        <time>2021-05-08T12:37:02.000Z</time>
      </trkpt>
      <trkpt lat="47.09739" lon="-2.0467">
        <ele>83</ele>
        <time>2021-05-08T12:37:04.000Z</time>
      </trkpt>
      <trkpt lat="47.09727" lon="-2.04667">
        <ele>83</ele>
        <time>2021-05-08T12:37:06.000Z</time>
      </trkpt>
      <trkpt lat="47.09714" lon="-2.04663">
        <ele>83</ele>
        <time>2021-05-08T12:37:08.000Z</time>
      </trkpt>
      <trkpt lat="47.09702" lon="-2.0466">
        <ele>83</ele>
        <time>2021-05-08T12:37:10.000Z</time>
      </trkpt>
      <trkpt lat="47.0969" lon="-2.04656">
        <ele>83</ele>
        <time>2021-05-08T12:37:12.000Z</time>
      </trkpt>
      <trkpt lat="47.09678" lon="-2.04653">
        <ele>83</ele>
        <time>2021-05-08T12:37:14.000Z</time>
      </trkpt>
      <trkpt lat="47.09667" lon="-2.04649">
        <ele>83</ele>
        <time>2021-05-08T12:37:16.000Z</time>
      </trkpt>
      <trkpt lat="47.09655" lon="-2.04646">
        <ele>83</ele>
        <time>2021-05-08T12:37:18.000Z</time>
      </trkpt>
      <trkpt lat="47.09643" lon="-2.04642">
        <ele>83</ele>
        <time>2021-05-08T12:37:20.000Z</time>
      </trkpt>
      <trkpt lat="47.09632" lon="-2.0464">
        <ele>84</ele>
        <time>2021-05-08T12:37:22.000Z</time>
      </trkpt>
      <trkpt lat="47.0962" lon="-2.04636">
        <ele>84</ele>
        <time>2021-05-08T12:37:24.000Z</time>
      </trkpt>
      <trkpt lat="47.09608" lon="-2.04633">
        <ele>84</ele>
        <time>2021-05-08T12:37:26.000Z</time>
      </trkpt>
      <trkpt lat="47.09596" lon="-2.04629">
        <ele>84</ele>
        <time>2021-05-08T12:37:28.000Z</time>
      </trkpt>
      <trkpt lat="47.09584" lon="-2.04626">
        <ele>84</ele>
        <time>2021-05-08T12:37:30.000Z</time>
      </trkpt>
      <trkpt lat="47.09573" lon="-2.04623">
        <ele>84</ele>
        <time>2021-05-08T12:37:32.000Z</time>
      </trkpt>
      <trkpt lat="47.09561" lon="-2.04619">
        <ele>84</ele>
        <time>2021-05-08T12:37:34.000Z</time>
      </trkpt>
      <trkpt lat="47.09549" lon="-2.04616">
        <ele>84</ele>
        <time>2021-05-08T12:37:36.000Z</time>
      </trkpt>
      <trkpt lat="47.09538" lon="-2.04611">
        <ele>84</ele>
        <time>2021-05-08T12:37:38.000Z</time>
      </trkpt>
      <trkpt lat="47.09525" lon="-2.04608">
        <ele>83</ele>
        <time>2021-05-08T12:37:40.000Z</time>
      </trkpt>
      <trkpt lat="47.09513" lon="-2.04604">
        <ele>83</ele>
        <time>2021-05-08T12:37:42.000Z</time>
      </trkpt>
      <trkpt lat="47.09501" lon="-2.046">
        <ele>82</ele>
        <time>2021-05-08T12:37:44.000Z</time>
      </trkpt>
      <trkpt lat="47.09488" lon="-2.04597">
        <ele>82</ele>
        <time>2021-05-08T12:37:46.000Z</time>
      </trkpt>
      <trkpt lat="47.09475" lon="-2.04594">
        <ele>82</ele>
        <time>2021-05-08T12:37:48.000Z</time>
      </trkpt>
      <trkpt lat="47.09462" lon="-2.0459">
        <ele>81</ele>
        <time>2021-05-08T12:37:50.000Z</time>
      </trkpt>
      <trkpt lat="47.09448" lon="-2.04587">
        <ele>81</ele>
        <time>2021-05-08T12:37:52.000Z</time>
      </trkpt>
      <trkpt lat="47.09434" lon="-2.04583">
        <ele>80</ele>
        <time>2021-05-08T12:37:54.000Z</time>
      </trkpt>
      <trkpt lat="47.0942" lon="-2.04581">
        <ele>80</ele>
        <time>2021-05-08T12:37:56.000Z</time>
      </trkpt>
      <trkpt lat="47.09407" lon="-2.0458">
        <ele>79</ele>
        <time>2021-05-08T12:37:58.000Z</time>
      </trkpt>
      <trkpt lat="47.09393" lon="-2.0458">
        <ele>79</ele>
        <time>2021-05-08T12:38:00.000Z</time>
      </trkpt>
      <trkpt lat="47.09379" lon="-2.0458">
        <ele>80</ele>
        <time>2021-05-08T12:38:02.000Z</time>
      </trkpt>
      <trkpt lat="47.09366" lon="-2.04583">
        <ele>79</ele>
        <time>2021-05-08T12:38:04.000Z</time>
      </trkpt>
      <trkpt lat="47.09353" lon="-2.04586">
        <ele>79</ele>
        <time>2021-05-08T12:38:06.000Z</time>
      </trkpt>
      <trkpt lat="47.0934" lon="-2.04591">
        <ele>80</ele>
        <time>2021-05-08T12:38:08.000Z</time>
      </trkpt>
      <trkpt lat="47.09328" lon="-2.046">
        <ele>80</ele>
        <time>2021-05-08T12:38:10.000Z</time>
      </trkpt>
      <trkpt lat="47.09316" lon="-2.04607">
        <ele>80</ele>
        <time>2021-05-08T12:38:12.000Z</time>
      </trkpt>
      <trkpt lat="47.09304" lon="-2.04617">
        <ele>79</ele>
        <time>2021-05-08T12:38:14.000Z</time>
      </trkpt>
      <trkpt lat="47.09294" lon="-2.04626">
        <ele>79</ele>
        <time>2021-05-08T12:38:16.000Z</time>
      </trkpt>
      <trkpt lat="47.09284" lon="-2.04635">
        <ele>79</ele>
        <time>2021-05-08T12:38:18.000Z</time>
      </trkpt>
      <trkpt lat="47.09273" lon="-2.04644">
        <ele>79</ele>
        <time>2021-05-08T12:38:20.000Z</time>
      </trkpt>
      <trkpt lat="47.09262" lon="-2.04652">
        <ele>79</ele>
        <time>2021-05-08T12:38:22.000Z</time>
      </trkpt>
      <trkpt lat="47.09251" lon="-2.04662">
        <ele>78</ele>
        <time>2021-05-08T12:38:24.000Z</time>
      </trkpt>
      <trkpt lat="47.09241" lon="-2.0467">
        <ele>79</ele>
        <time>2021-05-08T12:38:26.000Z</time>
      </trkpt>
      <trkpt lat="47.0923" lon="-2.04679">
        <ele>79</ele>
        <time>2021-05-08T12:38:28.000Z</time>
      </trkpt>
      <trkpt lat="47.09221" lon="-2.04688">
        <ele>79</ele>
        <time>2021-05-08T12:38:30.000Z</time>
      </trkpt>
      <trkpt lat="47.0921" lon="-2.04696">
        <ele>79</ele>
        <time>2021-05-08T12:38:32.000Z</time>
      </trkpt>
      <trkpt lat="47.092" lon="-2.04705">
        <ele>79</ele>
        <time>2021-05-08T12:38:34.000Z</time>
      </trkpt>
      <trkpt lat="47.09189" lon="-2.04714">
        <ele>80</ele>
        <time>2021-05-08T12:38:36.000Z</time>
      </trkpt>
      <trkpt lat="47.09179" lon="-2.04722">
        <ele>80</ele>
        <time>2021-05-08T12:38:38.000Z</time>
      </trkpt>
      <trkpt lat="47.09169" lon="-2.04731">
        <ele>80</ele>
        <time>2021-05-08T12:38:40.000Z</time>
      </trkpt>
      <trkpt lat="47.09159" lon="-2.0474">
        <ele>81</ele>
        <time>2021-05-08T12:38:42.000Z</time>
      </trkpt>
      <trkpt lat="47.09149" lon="-2.04749">
        <ele>81</ele>
        <time>2021-05-08T12:38:44.000Z</time>
      </trkpt>
      <trkpt lat="47.09138" lon="-2.04757">
        <ele>81</ele>
        <time>2021-05-08T12:38:46.000Z</time>
      </trkpt>
      <trkpt lat="47.09129" lon="-2.04765">
        <ele>81</ele>
        <time>2021-05-08T12:38:48.000Z</time>
      </trkpt>
      <trkpt lat="47.09119" lon="-2.04773">
        <ele>81</ele>
        <time>2021-05-08T12:38:50.000Z</time>
      </trkpt>
      <trkpt lat="47.09109" lon="-2.04781">
        <ele>82</ele>
        <time>2021-05-08T12:38:52.000Z</time>
      </trkpt>
      <trkpt lat="47.09101" lon="-2.04789">
        <ele>82</ele>
        <time>2021-05-08T12:38:54.000Z</time>
      </trkpt>
      <trkpt lat="47.09091" lon="-2.04797">
        <ele>82</ele>
        <time>2021-05-08T12:38:56.000Z</time>
      </trkpt>
      <trkpt lat="47.09081" lon="-2.04804">
        <ele>82</ele>
        <time>2021-05-08T12:38:58.000Z</time>
      </trkpt>
      <trkpt lat="47.0907" lon="-2.04811">
        <ele>82</ele>
        <time>2021-05-08T12:39:00.000Z</time>
      </trkpt>
      <trkpt lat="47.09058" lon="-2.04817">
        <ele>82</ele>
        <time>2021-05-08T12:39:02.000Z</time>
      </trkpt>
      <trkpt lat="47.09047" lon="-2.04822">
        <ele>83</ele>
        <time>2021-05-08T12:39:04.000Z</time>
      </trkpt>
      <trkpt lat="47.09034" lon="-2.04826">
        <ele>82</ele>
        <time>2021-05-08T12:39:06.000Z</time>
      </trkpt>
      <trkpt lat="47.09022" lon="-2.04828">
        <ele>81</ele>
        <time>2021-05-08T12:39:08.000Z</time>
      </trkpt>
      <trkpt lat="47.09009" lon="-2.04828">
        <ele>81</ele>
        <time>2021-05-08T12:39:10.000Z</time>
      </trkpt>
      <trkpt lat="47.08995" lon="-2.04828">
        <ele>80</ele>
        <time>2021-05-08T12:39:12.000Z</time>
      </trkpt>
      <trkpt lat="47.08982" lon="-2.04828">
        <ele>80</ele>
        <time>2021-05-08T12:39:14.000Z</time>
      </trkpt>
      <trkpt lat="47.08969" lon="-2.04825">
        <ele>80</ele>
        <time>2021-05-08T12:39:16.000Z</time>
      </trkpt>
      <trkpt lat="47.08956" lon="-2.0482">
        <ele>79</ele>
        <time>2021-05-08T12:39:18.000Z</time>
      </trkpt>
      <trkpt lat="47.08943" lon="-2.04815">
        <ele>80</ele>
        <time>2021-05-08T12:39:20.000Z</time>
      </trkpt>
      <trkpt lat="47.08931" lon="-2.04809">
        <ele>80</ele>
        <time>2021-05-08T12:39:22.000Z</time>
      </trkpt>
      <trkpt lat="47.08919" lon="-2.048">
        <ele>79</ele>
        <time>2021-05-08T12:39:24.000Z</time>
      </trkpt>
      <trkpt lat="47.08908" lon="-2.04791">
        <ele>79</ele>
        <time>2021-05-08T12:39:26.000Z</time>
      </trkpt>
      <trkpt lat="47.08897" lon="-2.04781">
        <ele>79</ele>
        <time>2021-05-08T12:39:28.000Z</time>
      </trkpt>
      <trkpt lat="47.08886" lon="-2.04771">
        <ele>78</ele>
        <time>2021-05-08T12:39:30.000Z</time>
      </trkpt>
      <trkpt lat="47.08876" lon="-2.04761">
        <ele>78</ele>
        <time>2021-05-08T12:39:32.000Z</time>
      </trkpt>
      <trkpt lat="47.08865" lon="-2.0475">
        <ele>78</ele>
        <time>2021-05-08T12:39:34.000Z</time>
      </trkpt>
      <trkpt lat="47.08854" lon="-2.04739">
        <ele>77</ele>
        <time>2021-05-08T12:39:36.000Z</time>
      </trkpt>
      <trkpt lat="47.08843" lon="-2.04726">
        <ele>76</ele>
        <time>2021-05-08T12:39:38.000Z</time>
      </trkpt>
      <trkpt lat="47.08832" lon="-2.04712">
        <ele>75</ele>
        <time>2021-05-08T12:39:40.000Z</time>
      </trkpt>
      <trkpt lat="47.0882" lon="-2.04699">
        <ele>75</ele>
        <time>2021-05-08T12:39:42.000Z</time>
      </trkpt>
      <trkpt lat="47.08809" lon="-2.04686">
        <ele>75</ele>
        <time>2021-05-08T12:39:44.000Z</time>
      </trkpt>
      <trkpt lat="47.08797" lon="-2.04674">
        <ele>75</ele>
        <time>2021-05-08T12:39:46.000Z</time>
      </trkpt>
      <trkpt lat="47.08783" lon="-2.04661">
        <ele>74</ele>
        <time>2021-05-08T12:39:48.000Z</time>
      </trkpt>
      <trkpt lat="47.08771" lon="-2.04649">
        <ele>73</ele>
        <time>2021-05-08T12:39:50.000Z</time>
      </trkpt>
      <trkpt lat="47.08759" lon="-2.04637">
        <ele>72</ele>
        <time>2021-05-08T12:39:52.000Z</time>
      </trkpt>
      <trkpt lat="47.08747" lon="-2.04625">
        <ele>72</ele>
        <time>2021-05-08T12:39:54.000Z</time>
      </trkpt>
      <trkpt lat="47.08736" lon="-2.04613">
        <ele>71</ele>
        <time>2021-05-08T12:39:56.000Z</time>
      </trkpt>
      <trkpt lat="47.08724" lon="-2.04601">
        <ele>70</ele>
        <time>2021-05-08T12:39:58.000Z</time>
      </trkpt>
      <trkpt lat="47.08712" lon="-2.0459">
        <ele>70</ele>
        <time>2021-05-08T12:40:00.000Z</time>
      </trkpt>
      <trkpt lat="47.087" lon="-2.04578">
        <ele>69</ele>
        <time>2021-05-08T12:40:02.000Z</time>
      </trkpt>
      <trkpt lat="47.08688" lon="-2.04565">
        <ele>68</ele>
        <time>2021-05-08T12:40:04.000Z</time>
      </trkpt>
      <trkpt lat="47.08677" lon="-2.04552">
        <ele>68</ele>
        <time>2021-05-08T12:40:06.000Z</time>
      </trkpt>
      <trkpt lat="47.08666" lon="-2.04539">
        <ele>68</ele>
        <time>2021-05-08T12:40:08.000Z</time>
      </trkpt>
      <trkpt lat="47.08654" lon="-2.04528">
        <ele>68</ele>
        <time>2021-05-08T12:40:10.000Z</time>
      </trkpt>
      <trkpt lat="47.08642" lon="-2.04516">
        <ele>68</ele>
        <time>2021-05-08T12:40:12.000Z</time>
      </trkpt>
      <trkpt lat="47.08632" lon="-2.04505">
        <ele>68</ele>
        <time>2021-05-08T12:40:14.000Z</time>
      </trkpt>
      <trkpt lat="47.08621" lon="-2.04495">
        <ele>69</ele>
        <time>2021-05-08T12:40:16.000Z</time>
      </trkpt>
      <trkpt lat="47.08611" lon="-2.04484">
        <ele>70</ele>
        <time>2021-05-08T12:40:18.000Z</time>
      </trkpt>
      <trkpt lat="47.08601" lon="-2.04474">
        <ele>70</ele>
        <time>2021-05-08T12:40:20.000Z</time>
      </trkpt>
      <trkpt lat="47.08592" lon="-2.04464">
        <ele>70</ele>
        <time>2021-05-08T12:40:22.000Z</time>
      </trkpt>
      <trkpt lat="47.08583" lon="-2.04453">
        <ele>71</ele>
        <time>2021-05-08T12:40:24.000Z</time>
      </trkpt>
      <trkpt lat="47.08573" lon="-2.0444">
        <ele>71</ele>
        <time>2021-05-08T12:40:26.000Z</time>
      </trkpt>
      <trkpt lat="47.08565" lon="-2.04427">
        <ele>71</ele>
        <time>2021-05-08T12:40:28.000Z</time>
      </trkpt>
      <trkpt lat="47.08556" lon="-2.04416">
        <ele>71</ele>
        <time>2021-05-08T12:40:30.000Z</time>
      </trkpt>
      <trkpt lat="47.08548" lon="-2.04403">
        <ele>71</ele>
        <time>2021-05-08T12:40:32.000Z</time>
      </trkpt>
      <trkpt lat="47.08541" lon="-2.04389">
        <ele>70</ele>
        <time>2021-05-08T12:40:34.000Z</time>
      </trkpt>
      <trkpt lat="47.08533" lon="-2.04375">
        <ele>70</ele>
        <time>2021-05-08T12:40:36.000Z</time>
      </trkpt>
      <trkpt lat="47.08525" lon="-2.04361">
        <ele>70</ele>
        <time>2021-05-08T12:40:38.000Z</time>
      </trkpt>
      <trkpt lat="47.08517" lon="-2.04347">
        <ele>70</ele>
        <time>2021-05-08T12:40:40.000Z</time>
      </trkpt>
      <trkpt lat="47.08509" lon="-2.04331">
        <ele>70</ele>
        <time>2021-05-08T12:40:42.000Z</time>
      </trkpt>
      <trkpt lat="47.08501" lon="-2.04315">
        <ele>69</ele>
        <time>2021-05-08T12:40:44.000Z</time>
      </trkpt>
      <trkpt lat="47.08492" lon="-2.04302">
        <ele>70</ele>
        <time>2021-05-08T12:40:46.000Z</time>
      </trkpt>
      <trkpt lat="47.08485" lon="-2.04287">
        <ele>69</ele>
        <time>2021-05-08T12:40:48.000Z</time>
      </trkpt>
      <trkpt lat="47.08477" lon="-2.04272">
        <ele>69</ele>
        <time>2021-05-08T12:40:50.000Z</time>
      </trkpt>
      <trkpt lat="47.0847" lon="-2.04258">
        <ele>69</ele>
        <time>2021-05-08T12:40:52.000Z</time>
      </trkpt>
      <trkpt lat="47.08463" lon="-2.04243">
        <ele>68</ele>
        <time>2021-05-08T12:40:54.000Z</time>
      </trkpt>
      <trkpt lat="47.08455" lon="-2.04228">
        <ele>68</ele>
        <time>2021-05-08T12:40:56.000Z</time>
      </trkpt>
      <trkpt lat="47.08446" lon="-2.04214">
        <ele>68</ele>
        <time>2021-05-08T12:40:58.000Z</time>
      </trkpt>
      <trkpt lat="47.08438" lon="-2.042">
        <ele>68</ele>
        <time>2021-05-08T12:41:00.000Z</time>
      </trkpt>
      <trkpt lat="47.08429" lon="-2.04187">
        <ele>68</ele>
        <time>2021-05-08T12:41:02.000Z</time>
      </trkpt>
      <trkpt lat="47.08421" lon="-2.04173">
        <ele>68</ele>
        <time>2021-05-08T12:41:04.000Z</time>
      </trkpt>
      <trkpt lat="47.08412" lon="-2.04158">
        <ele>68</ele>
        <time>2021-05-08T12:41:06.000Z</time>
      </trkpt>
      <trkpt lat="47.08403" lon="-2.04146">
        <ele>68</ele>
        <time>2021-05-08T12:41:08.000Z</time>
      </trkpt>
      <trkpt lat="47.08393" lon="-2.04133">
        <ele>68</ele>
        <time>2021-05-08T12:41:10.000Z</time>
      </trkpt>
      <trkpt lat="47.08383" lon="-2.04122">
        <ele>68</ele>
        <time>2021-05-08T12:41:12.000Z</time>
      </trkpt>
      <trkpt lat="47.08373" lon="-2.04112">
        <ele>67</ele>
        <time>2021-05-08T12:41:14.000Z</time>
      </trkpt>
      <trkpt lat="47.08362" lon="-2.04101">
        <ele>67</ele>
        <time>2021-05-08T12:41:16.000Z</time>
      </trkpt>
      <trkpt lat="47.08351" lon="-2.0409">
        <ele>66</ele>
        <time>2021-05-08T12:41:18.000Z</time>
      </trkpt>
      <trkpt lat="47.0834" lon="-2.04079">
        <ele>66</ele>
        <time>2021-05-08T12:41:20.000Z</time>
      </trkpt>
      <trkpt lat="47.0833" lon="-2.04067">
        <ele>66</ele>
        <time>2021-05-08T12:41:22.000Z</time>
      </trkpt>
      <trkpt lat="47.0832" lon="-2.04057">
        <ele>65</ele>
        <time>2021-05-08T12:41:24.000Z</time>
      </trkpt>
      <trkpt lat="47.0831" lon="-2.04045">
        <ele>65</ele>
        <time>2021-05-08T12:41:26.000Z</time>
      </trkpt>
      <trkpt lat="47.083" lon="-2.04035">
        <ele>65</ele>
        <time>2021-05-08T12:41:28.000Z</time>
      </trkpt>
      <trkpt lat="47.08289" lon="-2.04025">
        <ele>65</ele>
        <time>2021-05-08T12:41:30.000Z</time>
      </trkpt>
      <trkpt lat="47.08279" lon="-2.04014">
        <ele>65</ele>
        <time>2021-05-08T12:41:32.000Z</time>
      </trkpt>
      <trkpt lat="47.08269" lon="-2.04003">
        <ele>65</ele>
        <time>2021-05-08T12:41:34.000Z</time>
      </trkpt>
      <trkpt lat="47.08258" lon="-2.03993">
        <ele>64</ele>
        <time>2021-05-08T12:41:36.000Z</time>
      </trkpt>
      <trkpt lat="47.08248" lon="-2.03981">
        <ele>65</ele>
        <time>2021-05-08T12:41:38.000Z</time>
      </trkpt>
      <trkpt lat="47.08237" lon="-2.03968">
        <ele>64</ele>
        <time>2021-05-08T12:41:40.000Z</time>
      </trkpt>
      <trkpt lat="47.08227" lon="-2.03957">
        <ele>65</ele>
        <time>2021-05-08T12:41:42.000Z</time>
      </trkpt>
      <trkpt lat="47.08217" lon="-2.03946">
        <ele>65</ele>
        <time>2021-05-08T12:41:44.000Z</time>
      </trkpt>
      <trkpt lat="47.08206" lon="-2.03936">
        <ele>65</ele>
        <time>2021-05-08T12:41:46.000Z</time>
      </trkpt>
      <trkpt lat="47.08196" lon="-2.03924">
        <ele>64</ele>
        <time>2021-05-08T12:41:48.000Z</time>
      </trkpt>
      <trkpt lat="47.08186" lon="-2.03912">
        <ele>63</ele>
        <time>2021-05-08T12:41:50.000Z</time>
      </trkpt>
      <trkpt lat="47.08176" lon="-2.03902">
        <ele>64</ele>
        <time>2021-05-08T12:41:52.000Z</time>
      </trkpt>
      <trkpt lat="47.08166" lon="-2.03891">
        <ele>63</ele>
        <time>2021-05-08T12:41:54.000Z</time>
      </trkpt>
      <trkpt lat="47.08156" lon="-2.0388">
        <ele>63</ele>
        <time>2021-05-08T12:41:56.000Z</time>
      </trkpt>
      <trkpt lat="47.08147" lon="-2.0387">
        <ele>63</ele>
        <time>2021-05-08T12:41:58.000Z</time>
      </trkpt>
      <trkpt lat="47.08139" lon="-2.03861">
        <ele>62</ele>
        <time>2021-05-08T12:42:00.000Z</time>
      </trkpt>
      <trkpt lat="47.0813" lon="-2.03851">
        <ele>62</ele>
        <time>2021-05-08T12:42:02.000Z</time>
      </trkpt>
      <trkpt lat="47.0812" lon="-2.03839">
        <ele>62</ele>
        <time>2021-05-08T12:42:04.000Z</time>
      </trkpt>
      <trkpt lat="47.08109" lon="-2.03828">
        <ele>62</ele>
        <time>2021-05-08T12:42:06.000Z</time>
      </trkpt>
      <trkpt lat="47.08099" lon="-2.03816">
        <ele>63</ele>
        <time>2021-05-08T12:42:08.000Z</time>
      </trkpt>
      <trkpt lat="47.0809" lon="-2.03804">
        <ele>63</ele>
        <time>2021-05-08T12:42:10.000Z</time>
      </trkpt>
      <trkpt lat="47.0808" lon="-2.03794">
        <ele>63</ele>
        <time>2021-05-08T12:42:12.000Z</time>
      </trkpt>
      <trkpt lat="47.0807" lon="-2.03782">
        <ele>64</ele>
        <time>2021-05-08T12:42:14.000Z</time>
      </trkpt>
      <trkpt lat="47.0806" lon="-2.03772">
        <ele>65</ele>
        <time>2021-05-08T12:42:16.000Z</time>
      </trkpt>
      <trkpt lat="47.0805" lon="-2.03761">
        <ele>65</ele>
        <time>2021-05-08T12:42:18.000Z</time>
      </trkpt>
      <trkpt lat="47.0804" lon="-2.0375">
        <ele>65</ele>
        <time>2021-05-08T12:42:20.000Z</time>
      </trkpt>
      <trkpt lat="47.08031" lon="-2.03739">
        <ele>65</ele>
        <time>2021-05-08T12:42:22.000Z</time>
      </trkpt>
      <trkpt lat="47.08021" lon="-2.03728">
        <ele>64</ele>
        <time>2021-05-08T12:42:24.000Z</time>
      </trkpt>
      <trkpt lat="47.08011" lon="-2.03716">
        <ele>64</ele>
        <time>2021-05-08T12:42:26.000Z</time>
      </trkpt>
      <trkpt lat="47.08002" lon="-2.03704">
        <ele>63</ele>
        <time>2021-05-08T12:42:28.000Z</time>
      </trkpt>
      <trkpt lat="47.07993" lon="-2.0369">
        <ele>63</ele>
        <time>2021-05-08T12:42:30.000Z</time>
      </trkpt>
      <trkpt lat="47.07985" lon="-2.03677">
        <ele>64</ele>
        <time>2021-05-08T12:42:32.000Z</time>
      </trkpt>
      <trkpt lat="47.07976" lon="-2.03665">
        <ele>64</ele>
        <time>2021-05-08T12:42:34.000Z</time>
      </trkpt>
      <trkpt lat="47.07967" lon="-2.03653">
        <ele>64</ele>
        <time>2021-05-08T12:42:36.000Z</time>
      </trkpt>
      <trkpt lat="47.07958" lon="-2.03641">
        <ele>64</ele>
        <time>2021-05-08T12:42:38.000Z</time>
      </trkpt>
      <trkpt lat="47.07949" lon="-2.03629">
        <ele>65</ele>
        <time>2021-05-08T12:42:40.000Z</time>
      </trkpt>
      <trkpt lat="47.0794" lon="-2.03616">
        <ele>65</ele>
        <time>2021-05-08T12:42:42.000Z</time>
      </trkpt>
      <trkpt lat="47.07929" lon="-2.03604">
        <ele>64</ele>
        <time>2021-05-08T12:42:44.000Z</time>
      </trkpt>
      <trkpt lat="47.07919" lon="-2.03592">
        <ele>63</ele>
        <time>2021-05-08T12:42:46.000Z</time>
      </trkpt>
      <trkpt lat="47.07909" lon="-2.03581">
        <ele>63</ele>
        <time>2021-05-08T12:42:48.000Z</time>
      </trkpt>
      <trkpt lat="47.07898" lon="-2.0357">
        <ele>63</ele>
        <time>2021-05-08T12:42:50.000Z</time>
      </trkpt>
      <trkpt lat="47.07888" lon="-2.03558">
        <ele>64</ele>
        <time>2021-05-08T12:42:52.000Z</time>
      </trkpt>
      <trkpt lat="47.07879" lon="-2.03544">
        <ele>64</ele>
        <time>2021-05-08T12:42:54.000Z</time>
      </trkpt>
      <trkpt lat="47.0787" lon="-2.0353">
        <ele>63</ele>
        <time>2021-05-08T12:42:56.000Z</time>
      </trkpt>
      <trkpt lat="47.07861" lon="-2.03517">
        <ele>62</ele>
        <time>2021-05-08T12:42:58.000Z</time>
      </trkpt>
      <trkpt lat="47.07852" lon="-2.03505">
        <ele>61</ele>
        <time>2021-05-08T12:43:00.000Z</time>
      </trkpt>
      <trkpt lat="47.07843" lon="-2.03493">
        <ele>60</ele>
        <time>2021-05-08T12:43:02.000Z</time>
      </trkpt>
      <trkpt lat="47.07835" lon="-2.03479">
        <ele>60</ele>
        <time>2021-05-08T12:43:04.000Z</time>
      </trkpt>
      <trkpt lat="47.07827" lon="-2.03465">
        <ele>61</ele>
        <time>2021-05-08T12:43:06.000Z</time>
      </trkpt>
      <trkpt lat="47.07819" lon="-2.03452">
        <ele>60</ele>
        <time>2021-05-08T12:43:08.000Z</time>
      </trkpt>
      <trkpt lat="47.07811" lon="-2.03438">
        <ele>60</ele>
        <time>2021-05-08T12:43:10.000Z</time>
      </trkpt>
      <trkpt lat="47.07803" lon="-2.03422">
        <ele>60</ele>
        <time>2021-05-08T12:43:12.000Z</time>
      </trkpt>
      <trkpt lat="47.07795" lon="-2.03408">
        <ele>60</ele>
        <time>2021-05-08T12:43:14.000Z</time>
      </trkpt>
      <trkpt lat="47.07788" lon="-2.03393">
        <ele>60</ele>
        <time>2021-05-08T12:43:16.000Z</time>
      </trkpt>
      <trkpt lat="47.07781" lon="-2.03378">
        <ele>60</ele>
        <time>2021-05-08T12:43:18.000Z</time>
      </trkpt>
      <trkpt lat="47.07774" lon="-2.03363">
        <ele>61</ele>
        <time>2021-05-08T12:43:20.000Z</time>
      </trkpt>
      <trkpt lat="47.07769" lon="-2.03347">
        <ele>60</ele>
        <time>2021-05-08T12:43:22.000Z</time>
      </trkpt>
      <trkpt lat="47.07762" lon="-2.03332">
        <ele>60</ele>
        <time>2021-05-08T12:43:24.000Z</time>
      </trkpt>
      <trkpt lat="47.07756" lon="-2.03317">
        <ele>60</ele>
        <time>2021-05-08T12:43:26.000Z</time>
      </trkpt>
      <trkpt lat="47.0775" lon="-2.03302">
        <ele>60</ele>
        <time>2021-05-08T12:43:28.000Z</time>
      </trkpt>
      <trkpt lat="47.07744" lon="-2.03286">
        <ele>60</ele>
        <time>2021-05-08T12:43:30.000Z</time>
      </trkpt>
      <trkpt lat="47.07738" lon="-2.03271">
        <ele>60</ele>
        <time>2021-05-08T12:43:32.000Z</time>
      </trkpt>
      <trkpt lat="47.07732" lon="-2.03255">
        <ele>59</ele>
        <time>2021-05-08T12:43:34.000Z</time>
      </trkpt>
      <trkpt lat="47.07725" lon="-2.03239">
        <ele>60</ele>
        <time>2021-05-08T12:43:36.000Z</time>
      </trkpt>
      <trkpt lat="47.07719" lon="-2.03224">
        <ele>60</ele>
        <time>2021-05-08T12:43:38.000Z</time>
      </trkpt>
      <trkpt lat="47.07714" lon="-2.03209">
        <ele>60</ele>
        <time>2021-05-08T12:43:40.000Z</time>
      </trkpt>
      <trkpt lat="47.07708" lon="-2.03194">
        <ele>60</ele>
        <time>2021-05-08T12:43:42.000Z</time>
      </trkpt>
      <trkpt lat="47.07702" lon="-2.03178">
        <ele>60</ele>
        <time>2021-05-08T12:43:44.000Z</time>
      </trkpt>
      <trkpt lat="47.07695" lon="-2.03164">
        <ele>60</ele>
        <time>2021-05-08T12:43:46.000Z</time>
      </trkpt>
      <trkpt lat="47.07689" lon="-2.03148">
        <ele>60</ele>
        <time>2021-05-08T12:43:48.000Z</time>
      </trkpt>
      <trkpt lat="47.07682" lon="-2.03133">
        <ele>60</ele>
        <time>2021-05-08T12:43:50.000Z</time>
      </trkpt>
      <trkpt lat="47.07675" lon="-2.03116">
        <ele>60</ele>
        <time>2021-05-08T12:43:52.000Z</time>
      </trkpt>
      <trkpt lat="47.07669" lon="-2.031">
        <ele>60</ele>
        <time>2021-05-08T12:43:54.000Z</time>
      </trkpt>
      <trkpt lat="47.07662" lon="-2.03083">
        <ele>60</ele>
        <time>2021-05-08T12:43:56.000Z</time>
      </trkpt>
      <trkpt lat="47.07656" lon="-2.03068">
        <ele>60</ele>
        <time>2021-05-08T12:43:58.000Z</time>
      </trkpt>
      <trkpt lat="47.0765" lon="-2.03054">
        <ele>60</ele>
        <time>2021-05-08T12:44:00.000Z</time>
      </trkpt>
      <trkpt lat="47.07643" lon="-2.0304">
        <ele>59</ele>
        <time>2021-05-08T12:44:02.000Z</time>
      </trkpt>
      <trkpt lat="47.07638" lon="-2.03024">
        <ele>59</ele>
        <time>2021-05-08T12:44:04.000Z</time>
      </trkpt>
      <trkpt lat="47.07632" lon="-2.03008">
        <ele>59</ele>
        <time>2021-05-08T12:44:06.000Z</time>
      </trkpt>
      <trkpt lat="47.07625" lon="-2.02992">
        <ele>59</ele>
        <time>2021-05-08T12:44:08.000Z</time>
      </trkpt>
      <trkpt lat="47.07618" lon="-2.02977">
        <ele>58</ele>
        <time>2021-05-08T12:44:10.000Z</time>
      </trkpt>
      <trkpt lat="47.07612" lon="-2.02961">
        <ele>58</ele>
        <time>2021-05-08T12:44:12.000Z</time>
      </trkpt>
      <trkpt lat="47.07605" lon="-2.02945">
        <ele>58</ele>
        <time>2021-05-08T12:44:14.000Z</time>
      </trkpt>
      <trkpt lat="47.07599" lon="-2.02929">
        <ele>58</ele>
        <time>2021-05-08T12:44:16.000Z</time>
      </trkpt>
      <trkpt lat="47.07592" lon="-2.02913">
        <ele>59</ele>
        <time>2021-05-08T12:44:18.000Z</time>
      </trkpt>
      <trkpt lat="47.07586" lon="-2.02898">
        <ele>59</ele>
        <time>2021-05-08T12:44:20.000Z</time>
      </trkpt>
      <trkpt lat="47.0758" lon="-2.02882">
        <ele>59</ele>
        <time>2021-05-08T12:44:22.000Z</time>
      </trkpt>
      <trkpt lat="47.07574" lon="-2.02866">
        <ele>59</ele>
        <time>2021-05-08T12:44:24.000Z</time>
      </trkpt>
      <trkpt lat="47.07567" lon="-2.0285">
        <ele>59</ele>
        <time>2021-05-08T12:44:26.000Z</time>
      </trkpt>
      <trkpt lat="47.07561" lon="-2.02834">
        <ele>58</ele>
        <time>2021-05-08T12:44:28.000Z</time>
      </trkpt>
      <trkpt lat="47.07554" lon="-2.02819">
        <ele>58</ele>
        <time>2021-05-08T12:44:30.000Z</time>
      </trkpt>
      <trkpt lat="47.07548" lon="-2.02804">
        <ele>58</ele>
        <time>2021-05-08T12:44:32.000Z</time>
      </trkpt>
      <trkpt lat="47.07541" lon="-2.02789">
        <ele>58</ele>
        <time>2021-05-08T12:44:34.000Z</time>
      </trkpt>
      <trkpt lat="47.07534" lon="-2.02773">
        <ele>58</ele>
        <time>2021-05-08T12:44:36.000Z</time>
      </trkpt>
      <trkpt lat="47.07528" lon="-2.02757">
        <ele>58</ele>
        <time>2021-05-08T12:44:38.000Z</time>
      </trkpt>
      <trkpt lat="47.07521" lon="-2.02741">
        <ele>58</ele>
        <time>2021-05-08T12:44:40.000Z</time>
      </trkpt>
      <trkpt lat="47.07515" lon="-2.02725">
        <ele>59</ele>
        <time>2021-05-08T12:44:42.000Z</time>
      </trkpt>
      <trkpt lat="47.07508" lon="-2.0271">
        <ele>58</ele>
        <time>2021-05-08T12:44:44.000Z</time>
      </trkpt>
      <trkpt lat="47.07502" lon="-2.02695">
        <ele>59</ele>
        <time>2021-05-08T12:44:46.000Z</time>
      </trkpt>
      <trkpt lat="47.07495" lon="-2.02679">
        <ele>59</ele>
        <time>2021-05-08T12:44:48.000Z</time>
      </trkpt>
      <trkpt lat="47.07489" lon="-2.02663">
        <ele>59</ele>
        <time>2021-05-08T12:44:50.000Z</time>
      </trkpt>
      <trkpt lat="47.07483" lon="-2.02647">
        <ele>59</ele>
        <time>2021-05-08T12:44:52.000Z</time>
      </trkpt>
      <trkpt lat="47.07477" lon="-2.02632">
        <ele>59</ele>
        <time>2021-05-08T12:44:54.000Z</time>
      </trkpt>
      <trkpt lat="47.07471" lon="-2.02617">
        <ele>59</ele>
        <time>2021-05-08T12:44:56.000Z</time>
      </trkpt>
      <trkpt lat="47.07465" lon="-2.02602">
        <ele>59</ele>
        <time>2021-05-08T12:44:58.000Z</time>
      </trkpt>
      <trkpt lat="47.07459" lon="-2.02587">
        <ele>59</ele>
        <time>2021-05-08T12:45:00.000Z</time>
      </trkpt>
      <trkpt lat="47.07453" lon="-2.02573">
        <ele>59</ele>
        <time>2021-05-08T12:45:02.000Z</time>
      </trkpt>
      <trkpt lat="47.07447" lon="-2.02558">
        <ele>59</ele>
        <time>2021-05-08T12:45:04.000Z</time>
      </trkpt>
      <trkpt lat="47.07442" lon="-2.02543">
        <ele>59</ele>
        <time>2021-05-08T12:45:06.000Z</time>
      </trkpt>
      <trkpt lat="47.07436" lon="-2.02529">
        <ele>59</ele>
        <time>2021-05-08T12:45:08.000Z</time>
      </trkpt>
      <trkpt lat="47.0743" lon="-2.02514">
        <ele>59</ele>
        <time>2021-05-08T12:45:10.000Z</time>
      </trkpt>
      <trkpt lat="47.07424" lon="-2.025">
        <ele>60</ele>
        <time>2021-05-08T12:45:12.000Z</time>
      </trkpt>
      <trkpt lat="47.07418" lon="-2.02485">
        <ele>60</ele>
        <time>2021-05-08T12:45:14.000Z</time>
      </trkpt>
      <trkpt lat="47.07412" lon="-2.0247">
        <ele>61</ele>
        <time>2021-05-08T12:45:16.000Z</time>
      </trkpt>
      <trkpt lat="47.07406" lon="-2.02454">
        <ele>61</ele>
        <time>2021-05-08T12:45:18.000Z</time>
      </trkpt>
      <trkpt lat="47.07399" lon="-2.0244">
        <ele>61</ele>
        <time>2021-05-08T12:45:20.000Z</time>
      </trkpt>
      <trkpt lat="47.07393" lon="-2.02425">
        <ele>62</ele>
        <time>2021-05-08T12:45:22.000Z</time>
      </trkpt>
      <trkpt lat="47.07387" lon="-2.02409">
        <ele>62</ele>
        <time>2021-05-08T12:45:24.000Z</time>
      </trkpt>
      <trkpt lat="47.0738" lon="-2.02394">
        <ele>62</ele>
        <time>2021-05-08T12:45:26.000Z</time>
      </trkpt>
      <trkpt lat="47.07374" lon="-2.02379">
        <ele>62</ele>
        <time>2021-05-08T12:45:28.000Z</time>
      </trkpt>
      <trkpt lat="47.07368" lon="-2.02365">
        <ele>63</ele>
        <time>2021-05-08T12:45:30.000Z</time>
      </trkpt>
      <trkpt lat="47.07362" lon="-2.02351">
        <ele>63</ele>
        <time>2021-05-08T12:45:32.000Z</time>
      </trkpt>
      <trkpt lat="47.07356" lon="-2.02336">
        <ele>63</ele>
        <time>2021-05-08T12:45:34.000Z</time>
      </trkpt>
      <trkpt lat="47.07349" lon="-2.02321">
        <ele>62</ele>
        <time>2021-05-08T12:45:36.000Z</time>
      </trkpt>
      <trkpt lat="47.07343" lon="-2.02305">
        <ele>62</ele>
        <time>2021-05-08T12:45:38.000Z</time>
      </trkpt>
      <trkpt lat="47.07337" lon="-2.02289">
        <ele>62</ele>
        <time>2021-05-08T12:45:40.000Z</time>
      </trkpt>
      <trkpt lat="47.07331" lon="-2.02274">
        <ele>62</ele>
        <time>2021-05-08T12:45:42.000Z</time>
      </trkpt>
      <trkpt lat="47.07325" lon="-2.02259">
        <ele>62</ele>
        <time>2021-05-08T12:45:44.000Z</time>
      </trkpt>
      <trkpt lat="47.07319" lon="-2.02244">
        <ele>62</ele>
        <time>2021-05-08T12:45:46.000Z</time>
      </trkpt>
      <trkpt lat="47.07313" lon="-2.02229">
        <ele>63</ele>
        <time>2021-05-08T12:45:48.000Z</time>
      </trkpt>
      <trkpt lat="47.07306" lon="-2.02214">
        <ele>63</ele>
        <time>2021-05-08T12:45:50.000Z</time>
      </trkpt>
      <trkpt lat="47.07301" lon="-2.02199">
        <ele>63</ele>
        <time>2021-05-08T12:45:52.000Z</time>
      </trkpt>
      <trkpt lat="47.07295" lon="-2.02186">
        <ele>63</ele>
        <time>2021-05-08T12:45:54.000Z</time>
      </trkpt>
      <trkpt lat="47.0729" lon="-2.02173">
        <ele>63</ele>
        <time>2021-05-08T12:45:57.000Z</time>
      </trkpt>
      <trkpt lat="47.07282" lon="-2.02157">
        <ele>63</ele>
        <time>2021-05-08T12:46:00.000Z</time>
      </trkpt>
      <trkpt lat="47.07274" lon="-2.02142">
        <ele>63</ele>
        <time>2021-05-08T12:46:02.000Z</time>
      </trkpt>
      <trkpt lat="47.07267" lon="-2.02124">
        <ele>63</ele>
        <time>2021-05-08T12:46:04.000Z</time>
      </trkpt>
      <trkpt lat="47.0726" lon="-2.02107">
        <ele>62</ele>
        <time>2021-05-08T12:46:06.000Z</time>
      </trkpt>
      <trkpt lat="47.07252" lon="-2.02091">
        <ele>62</ele>
        <time>2021-05-08T12:46:08.000Z</time>
      </trkpt>
      <trkpt lat="47.07243" lon="-2.02075">
        <ele>61</ele>
        <time>2021-05-08T12:46:10.000Z</time>
      </trkpt>
      <trkpt lat="47.07236" lon="-2.02059">
        <ele>61</ele>
        <time>2021-05-08T12:46:12.000Z</time>
      </trkpt>
      <trkpt lat="47.07228" lon="-2.02043">
        <ele>62</ele>
        <time>2021-05-08T12:46:14.000Z</time>
      </trkpt>
      <trkpt lat="47.07221" lon="-2.02028">
        <ele>61</ele>
        <time>2021-05-08T12:46:16.000Z</time>
      </trkpt>
      <trkpt lat="47.07214" lon="-2.02012">
        <ele>62</ele>
        <time>2021-05-08T12:46:18.000Z</time>
      </trkpt>
      <trkpt lat="47.07207" lon="-2.01996">
        <ele>61</ele>
        <time>2021-05-08T12:46:20.000Z</time>
      </trkpt>
      <trkpt lat="47.072" lon="-2.0198">
        <ele>61</ele>
        <time>2021-05-08T12:46:22.000Z</time>
      </trkpt>
      <trkpt lat="47.07193" lon="-2.01964">
        <ele>62</ele>
        <time>2021-05-08T12:46:24.000Z</time>
      </trkpt>
      <trkpt lat="47.07181" lon="-2.01941">
        <ele>61</ele>
        <time>2021-05-08T12:46:27.000Z</time>
      </trkpt>
      <trkpt lat="47.07174" lon="-2.01926">
        <ele>61</ele>
        <time>2021-05-08T12:46:29.000Z</time>
      </trkpt>
      <trkpt lat="47.07168" lon="-2.0191">
        <ele>61</ele>
        <time>2021-05-08T12:46:31.000Z</time>
      </trkpt>
      <trkpt lat="47.07157" lon="-2.01887">
        <ele>61</ele>
        <time>2021-05-08T12:46:34.000Z</time>
      </trkpt>
      <trkpt lat="47.0715" lon="-2.01871">
        <ele>61</ele>
        <time>2021-05-08T12:46:36.000Z</time>
      </trkpt>
      <trkpt lat="47.07143" lon="-2.01856">
        <ele>61</ele>
        <time>2021-05-08T12:46:38.000Z</time>
      </trkpt>
      <trkpt lat="47.07137" lon="-2.01841">
        <ele>61</ele>
        <time>2021-05-08T12:46:40.000Z</time>
      </trkpt>
      <trkpt lat="47.07126" lon="-2.01819">
        <ele>61</ele>
        <time>2021-05-08T12:46:43.000Z</time>
      </trkpt>
      <trkpt lat="47.0712" lon="-2.01803">
        <ele>62</ele>
        <time>2021-05-08T12:46:45.000Z</time>
      </trkpt>
      <trkpt lat="47.07112" lon="-2.01788">
        <ele>62</ele>
        <time>2021-05-08T12:46:47.000Z</time>
      </trkpt>
      <trkpt lat="47.07105" lon="-2.01773">
        <ele>61</ele>
        <time>2021-05-08T12:46:49.000Z</time>
      </trkpt>
      <trkpt lat="47.07099" lon="-2.01758">
        <ele>62</ele>
        <time>2021-05-08T12:46:51.000Z</time>
      </trkpt>
      <trkpt lat="47.07092" lon="-2.01743">
        <ele>62</ele>
        <time>2021-05-08T12:46:53.000Z</time>
      </trkpt>
      <trkpt lat="47.07085" lon="-2.01729">
        <ele>62</ele>
        <time>2021-05-08T12:46:55.000Z</time>
      </trkpt>
      <trkpt lat="47.07078" lon="-2.01713">
        <ele>62</ele>
        <time>2021-05-08T12:46:57.000Z</time>
      </trkpt>
      <trkpt lat="47.07071" lon="-2.01698">
        <ele>62</ele>
        <time>2021-05-08T12:46:59.000Z</time>
      </trkpt>
      <trkpt lat="47.07064" lon="-2.01684">
        <ele>63</ele>
        <time>2021-05-08T12:47:01.000Z</time>
      </trkpt>
      <trkpt lat="47.07057" lon="-2.01669">
        <ele>63</ele>
        <time>2021-05-08T12:47:03.000Z</time>
      </trkpt>
      <trkpt lat="47.0705" lon="-2.01654">
        <ele>63</ele>
        <time>2021-05-08T12:47:05.000Z</time>
      </trkpt>
      <trkpt lat="47.07044" lon="-2.01639">
        <ele>64</ele>
        <time>2021-05-08T12:47:07.000Z</time>
      </trkpt>
      <trkpt lat="47.07037" lon="-2.01624">
        <ele>64</ele>
        <time>2021-05-08T12:47:09.000Z</time>
      </trkpt>
      <trkpt lat="47.0703" lon="-2.0161">
        <ele>64</ele>
        <time>2021-05-08T12:47:11.000Z</time>
      </trkpt>
      <trkpt lat="47.07024" lon="-2.01595">
        <ele>65</ele>
        <time>2021-05-08T12:47:13.000Z</time>
      </trkpt>
      <trkpt lat="47.07013" lon="-2.01573">
        <ele>64</ele>
        <time>2021-05-08T12:47:16.000Z</time>
      </trkpt>
      <trkpt lat="47.07006" lon="-2.01559">
        <ele>65</ele>
        <time>2021-05-08T12:47:18.000Z</time>
      </trkpt>
      <trkpt lat="47.06999" lon="-2.01544">
        <ele>65</ele>
        <time>2021-05-08T12:47:20.000Z</time>
      </trkpt>
      <trkpt lat="47.06992" lon="-2.01529">
        <ele>65</ele>
        <time>2021-05-08T12:47:22.000Z</time>
      </trkpt>
      <trkpt lat="47.06986" lon="-2.01515">
        <ele>65</ele>
        <time>2021-05-08T12:47:24.000Z</time>
      </trkpt>
      <trkpt lat="47.06976" lon="-2.01494">
        <ele>65</ele>
        <time>2021-05-08T12:47:27.000Z</time>
      </trkpt>
      <trkpt lat="47.0697" lon="-2.01479">
        <ele>65</ele>
        <time>2021-05-08T12:47:29.000Z</time>
      </trkpt>
      <trkpt lat="47.06963" lon="-2.01465">
        <ele>65</ele>
        <time>2021-05-08T12:47:31.000Z</time>
      </trkpt>
      <trkpt lat="47.06956" lon="-2.0145">
        <ele>65</ele>
        <time>2021-05-08T12:47:33.000Z</time>
      </trkpt>
      <trkpt lat="47.06949" lon="-2.01436">
        <ele>65</ele>
        <time>2021-05-08T12:47:35.000Z</time>
      </trkpt>
      <trkpt lat="47.06943" lon="-2.01422">
        <ele>65</ele>
        <time>2021-05-08T12:47:37.000Z</time>
      </trkpt>
      <trkpt lat="47.06937" lon="-2.01407">
        <ele>65</ele>
        <time>2021-05-08T12:47:39.000Z</time>
      </trkpt>
      <trkpt lat="47.06931" lon="-2.01393">
        <ele>65</ele>
        <time>2021-05-08T12:47:41.000Z</time>
      </trkpt>
      <trkpt lat="47.06924" lon="-2.01378">
        <ele>65</ele>
        <time>2021-05-08T12:47:43.000Z</time>
      </trkpt>
      <trkpt lat="47.06917" lon="-2.01364">
        <ele>64</ele>
        <time>2021-05-08T12:47:45.000Z</time>
      </trkpt>
      <trkpt lat="47.06911" lon="-2.01349">
        <ele>64</ele>
        <time>2021-05-08T12:47:47.000Z</time>
      </trkpt>
      <trkpt lat="47.06904" lon="-2.01335">
        <ele>64</ele>
        <time>2021-05-08T12:47:49.000Z</time>
      </trkpt>
      <trkpt lat="47.06898" lon="-2.01321">
        <ele>64</ele>
        <time>2021-05-08T12:47:51.000Z</time>
      </trkpt>
      <trkpt lat="47.06891" lon="-2.01306">
        <ele>64</ele>
        <time>2021-05-08T12:47:53.000Z</time>
      </trkpt>
      <trkpt lat="47.06884" lon="-2.01292">
        <ele>64</ele>
        <time>2021-05-08T12:47:55.000Z</time>
      </trkpt>
      <trkpt lat="47.06877" lon="-2.01277">
        <ele>64</ele>
        <time>2021-05-08T12:47:57.000Z</time>
      </trkpt>
      <trkpt lat="47.06869" lon="-2.01262">
        <ele>63</ele>
        <time>2021-05-08T12:47:59.000Z</time>
      </trkpt>
      <trkpt lat="47.06862" lon="-2.01247">
        <ele>63</ele>
        <time>2021-05-08T12:48:01.000Z</time>
      </trkpt>
      <trkpt lat="47.06855" lon="-2.01232">
        <ele>62</ele>
        <time>2021-05-08T12:48:03.000Z</time>
      </trkpt>
      <trkpt lat="47.06848" lon="-2.01217">
        <ele>62</ele>
        <time>2021-05-08T12:48:05.000Z</time>
      </trkpt>
      <trkpt lat="47.06842" lon="-2.01201">
        <ele>63</ele>
        <time>2021-05-08T12:48:07.000Z</time>
      </trkpt>
      <trkpt lat="47.06835" lon="-2.01185">
        <ele>62</ele>
        <time>2021-05-08T12:48:09.000Z</time>
      </trkpt>
      <trkpt lat="47.06829" lon="-2.01168">
        <ele>62</ele>
        <time>2021-05-08T12:48:11.000Z</time>
      </trkpt>
      <trkpt lat="47.06821" lon="-2.01152">
        <ele>63</ele>
        <time>2021-05-08T12:48:13.000Z</time>
      </trkpt>
      <trkpt lat="47.06813" lon="-2.01136">
        <ele>62</ele>
        <time>2021-05-08T12:48:15.000Z</time>
      </trkpt>
      <trkpt lat="47.06805" lon="-2.0112">
        <ele>62</ele>
        <time>2021-05-08T12:48:17.000Z</time>
      </trkpt>
      <trkpt lat="47.06797" lon="-2.01104">
        <ele>62</ele>
        <time>2021-05-08T12:48:19.000Z</time>
      </trkpt>
      <trkpt lat="47.0679" lon="-2.01087">
        <ele>62</ele>
        <time>2021-05-08T12:48:21.000Z</time>
      </trkpt>
      <trkpt lat="47.06778" lon="-2.01061">
        <ele>62</ele>
        <time>2021-05-08T12:48:24.000Z</time>
      </trkpt>
      <trkpt lat="47.06769" lon="-2.01044">
        <ele>61</ele>
        <time>2021-05-08T12:48:26.000Z</time>
      </trkpt>
      <trkpt lat="47.06761" lon="-2.01026">
        <ele>60</ele>
        <time>2021-05-08T12:48:28.000Z</time>
      </trkpt>
      <trkpt lat="47.06753" lon="-2.01009">
        <ele>60</ele>
        <time>2021-05-08T12:48:30.000Z</time>
      </trkpt>
      <trkpt lat="47.06745" lon="-2.00991">
        <ele>59</ele>
        <time>2021-05-08T12:48:32.000Z</time>
      </trkpt>
      <trkpt lat="47.06737" lon="-2.00973">
        <ele>58</ele>
        <time>2021-05-08T12:48:34.000Z</time>
      </trkpt>
      <trkpt lat="47.06729" lon="-2.00955">
        <ele>58</ele>
        <time>2021-05-08T12:48:36.000Z</time>
      </trkpt>
      <trkpt lat="47.0672" lon="-2.00938">
        <ele>58</ele>
        <time>2021-05-08T12:48:38.000Z</time>
      </trkpt>
      <trkpt lat="47.06713" lon="-2.0092">
        <ele>57</ele>
        <time>2021-05-08T12:48:40.000Z</time>
      </trkpt>
      <trkpt lat="47.06705" lon="-2.00903">
        <ele>57</ele>
        <time>2021-05-08T12:48:42.000Z</time>
      </trkpt>
      <trkpt lat="47.06697" lon="-2.00886">
        <ele>57</ele>
        <time>2021-05-08T12:48:44.000Z</time>
      </trkpt>
      <trkpt lat="47.06685" lon="-2.0086">
        <ele>56</ele>
        <time>2021-05-08T12:48:47.000Z</time>
      </trkpt>
      <trkpt lat="47.06677" lon="-2.00843">
        <ele>56</ele>
        <time>2021-05-08T12:48:49.000Z</time>
      </trkpt>
      <trkpt lat="47.06668" lon="-2.00827">
        <ele>56</ele>
        <time>2021-05-08T12:48:51.000Z</time>
      </trkpt>
      <trkpt lat="47.0666" lon="-2.00812">
        <ele>56</ele>
        <time>2021-05-08T12:48:53.000Z</time>
      </trkpt>
      <trkpt lat="47.06653" lon="-2.00796">
        <ele>57</ele>
        <time>2021-05-08T12:48:55.000Z</time>
      </trkpt>
      <trkpt lat="47.06646" lon="-2.00779">
        <ele>58</ele>
        <time>2021-05-08T12:48:57.000Z</time>
      </trkpt>
      <trkpt lat="47.06639" lon="-2.00763">
        <ele>58</ele>
        <time>2021-05-08T12:48:59.000Z</time>
      </trkpt>
      <trkpt lat="47.06632" lon="-2.00747">
        <ele>59</ele>
        <time>2021-05-08T12:49:01.000Z</time>
      </trkpt>
      <trkpt lat="47.06624" lon="-2.00732">
        <ele>59</ele>
        <time>2021-05-08T12:49:03.000Z</time>
      </trkpt>
      <trkpt lat="47.06618" lon="-2.00715">
        <ele>59</ele>
        <time>2021-05-08T12:49:05.000Z</time>
      </trkpt>
      <trkpt lat="47.06611" lon="-2.00699">
        <ele>59</ele>
        <time>2021-05-08T12:49:07.000Z</time>
      </trkpt>
      <trkpt lat="47.06604" lon="-2.00683">
        <ele>59</ele>
        <time>2021-05-08T12:49:09.000Z</time>
      </trkpt>
      <trkpt lat="47.06596" lon="-2.00667">
        <ele>59</ele>
        <time>2021-05-08T12:49:11.000Z</time>
      </trkpt>
      <trkpt lat="47.06589" lon="-2.00651">
        <ele>60</ele>
        <time>2021-05-08T12:49:13.000Z</time>
      </trkpt>
      <trkpt lat="47.06581" lon="-2.00635">
        <ele>60</ele>
        <time>2021-05-08T12:49:15.000Z</time>
      </trkpt>
      <trkpt lat="47.06574" lon="-2.00619">
        <ele>60</ele>
        <time>2021-05-08T12:49:17.000Z</time>
      </trkpt>
      <trkpt lat="47.06567" lon="-2.00604">
        <ele>60</ele>
        <time>2021-05-08T12:49:19.000Z</time>
      </trkpt>
      <trkpt lat="47.0656" lon="-2.00588">
        <ele>60</ele>
        <time>2021-05-08T12:49:21.000Z</time>
      </trkpt>
      <trkpt lat="47.06553" lon="-2.00573">
        <ele>60</ele>
        <time>2021-05-08T12:49:23.000Z</time>
      </trkpt>
      <trkpt lat="47.06545" lon="-2.00558">
        <ele>60</ele>
        <time>2021-05-08T12:49:25.000Z</time>
      </trkpt>
      <trkpt lat="47.06539" lon="-2.00543">
        <ele>60</ele>
        <time>2021-05-08T12:49:27.000Z</time>
      </trkpt>
      <trkpt lat="47.06532" lon="-2.00528">
        <ele>60</ele>
        <time>2021-05-08T12:49:29.000Z</time>
      </trkpt>
      <trkpt lat="47.06525" lon="-2.00513">
        <ele>60</ele>
        <time>2021-05-08T12:49:31.000Z</time>
      </trkpt>
      <trkpt lat="47.06518" lon="-2.00499">
        <ele>60</ele>
        <time>2021-05-08T12:49:33.000Z</time>
      </trkpt>
      <trkpt lat="47.06512" lon="-2.00484">
        <ele>60</ele>
        <time>2021-05-08T12:49:35.000Z</time>
      </trkpt>
      <trkpt lat="47.06506" lon="-2.0047">
        <ele>60</ele>
        <time>2021-05-08T12:49:37.000Z</time>
      </trkpt>
      <trkpt lat="47.06499" lon="-2.00456">
        <ele>59</ele>
        <time>2021-05-08T12:49:39.000Z</time>
      </trkpt>
      <trkpt lat="47.06493" lon="-2.00442">
        <ele>59</ele>
        <time>2021-05-08T12:49:41.000Z</time>
      </trkpt>
      <trkpt lat="47.06486" lon="-2.00428">
        <ele>59</ele>
        <time>2021-05-08T12:49:43.000Z</time>
      </trkpt>
      <trkpt lat="47.06479" lon="-2.00412">
        <ele>58</ele>
        <time>2021-05-08T12:49:45.000Z</time>
      </trkpt>
      <trkpt lat="47.06472" lon="-2.00397">
        <ele>58</ele>
        <time>2021-05-08T12:49:47.000Z</time>
      </trkpt>
      <trkpt lat="47.06465" lon="-2.00381">
        <ele>58</ele>
        <time>2021-05-08T12:49:49.000Z</time>
      </trkpt>
      <trkpt lat="47.06458" lon="-2.00366">
        <ele>57</ele>
        <time>2021-05-08T12:49:51.000Z</time>
      </trkpt>
      <trkpt lat="47.0645" lon="-2.0035">
        <ele>57</ele>
        <time>2021-05-08T12:49:53.000Z</time>
      </trkpt>
      <trkpt lat="47.06443" lon="-2.00334">
        <ele>57</ele>
        <time>2021-05-08T12:49:55.000Z</time>
      </trkpt>
      <trkpt lat="47.06435" lon="-2.00318">
        <ele>57</ele>
        <time>2021-05-08T12:49:57.000Z</time>
      </trkpt>
      <trkpt lat="47.06427" lon="-2.00302">
        <ele>57</ele>
        <time>2021-05-08T12:49:59.000Z</time>
      </trkpt>
      <trkpt lat="47.06418" lon="-2.00286">
        <ele>57</ele>
        <time>2021-05-08T12:50:01.000Z</time>
      </trkpt>
      <trkpt lat="47.06409" lon="-2.00271">
        <ele>57</ele>
        <time>2021-05-08T12:50:03.000Z</time>
      </trkpt>
      <trkpt lat="47.06401" lon="-2.00256">
        <ele>56</ele>
        <time>2021-05-08T12:50:05.000Z</time>
      </trkpt>
      <trkpt lat="47.06394" lon="-2.0024">
        <ele>56</ele>
        <time>2021-05-08T12:50:07.000Z</time>
      </trkpt>
      <trkpt lat="47.06388" lon="-2.00223">
        <ele>56</ele>
        <time>2021-05-08T12:50:09.000Z</time>
      </trkpt>
      <trkpt lat="47.06383" lon="-2.00207">
        <ele>56</ele>
        <time>2021-05-08T12:50:11.000Z</time>
      </trkpt>
      <trkpt lat="47.06377" lon="-2.00191">
        <ele>56</ele>
        <time>2021-05-08T12:50:13.000Z</time>
      </trkpt>
      <trkpt lat="47.06372" lon="-2.00174">
        <ele>56</ele>
        <time>2021-05-08T12:50:15.000Z</time>
      </trkpt>
      <trkpt lat="47.06367" lon="-2.00158">
        <ele>56</ele>
        <time>2021-05-08T12:50:17.000Z</time>
      </trkpt>
      <trkpt lat="47.06361" lon="-2.00142">
        <ele>56</ele>
        <time>2021-05-08T12:50:19.000Z</time>
      </trkpt>
      <trkpt lat="47.06356" lon="-2.00127">
        <ele>56</ele>
        <time>2021-05-08T12:50:21.000Z</time>
      </trkpt>
      <trkpt lat="47.06354" lon="-2.0011">
        <ele>56</ele>
        <time>2021-05-08T12:50:23.000Z</time>
      </trkpt>
      <trkpt lat="47.06353" lon="-2.00095">
        <ele>56</ele>
        <time>2021-05-08T12:50:25.000Z</time>
      </trkpt>
      <trkpt lat="47.06345" lon="-2.00082">
        <ele>57</ele>
        <time>2021-05-08T12:50:28.000Z</time>
      </trkpt>
      <trkpt lat="47.06335" lon="-2.00084">
        <ele>57</ele>
        <time>2021-05-08T12:50:30.000Z</time>
      </trkpt>
      <trkpt lat="47.06322" lon="-2.00091">
        <ele>57</ele>
        <time>2021-05-08T12:50:33.000Z</time>
      </trkpt>
      <trkpt lat="47.06314" lon="-2.00096">
        <ele>56</ele>
        <time>2021-05-08T12:50:35.000Z</time>
      </trkpt>
      <trkpt lat="47.06304" lon="-2.00102">
        <ele>57</ele>
        <time>2021-05-08T12:50:38.000Z</time>
      </trkpt>
      <trkpt lat="47.06294" lon="-2.00109">
        <ele>57</ele>
        <time>2021-05-08T12:50:42.000Z</time>
      </trkpt>
      <trkpt lat="47.06284" lon="-2.00114">
        <ele>57</ele>
        <time>2021-05-08T12:50:45.000Z</time>
      </trkpt>
      <trkpt lat="47.06274" lon="-2.00121">
        <ele>55</ele>
        <time>2021-05-08T12:50:48.000Z</time>
      </trkpt>
      <trkpt lat="47.06263" lon="-2.00126">
        <ele>55</ele>
        <time>2021-05-08T12:50:51.000Z</time>
      </trkpt>
      <trkpt lat="47.06251" lon="-2.0013">
        <ele>56</ele>
        <time>2021-05-08T12:50:54.000Z</time>
      </trkpt>
      <trkpt lat="47.06241" lon="-2.00131">
        <ele>56</ele>
        <time>2021-05-08T12:50:57.000Z</time>
      </trkpt>
      <trkpt lat="47.06231" lon="-2.00139">
        <ele>56</ele>
        <time>2021-05-08T12:51:00.000Z</time>
      </trkpt>
      <trkpt lat="47.06232" lon="-2.00156">
        <ele>55</ele>
        <time>2021-05-08T12:51:02.000Z</time>
      </trkpt>
      <trkpt lat="47.06229" lon="-2.00173">
        <ele>55</ele>
        <time>2021-05-08T12:51:05.000Z</time>
      </trkpt>
      <trkpt lat="47.06222" lon="-2.0018">
        <ele>55</ele>
        <time>2021-05-08T12:51:07.000Z</time>
      </trkpt>
      <trkpt lat="47.06211" lon="-2.00187">
        <ele>55</ele>
        <time>2021-05-08T12:51:10.000Z</time>
      </trkpt>
      <trkpt lat="47.06202" lon="-2.00189">
        <ele>54</ele>
        <time>2021-05-08T12:51:12.000Z</time>
      </trkpt>
      <trkpt lat="47.06192" lon="-2.0019">
        <ele>54</ele>
        <time>2021-05-08T12:51:14.000Z</time>
      </trkpt>
      <trkpt lat="47.06183" lon="-2.00192">
        <ele>53</ele>
        <time>2021-05-08T12:51:16.000Z</time>
      </trkpt>
      <trkpt lat="47.06174" lon="-2.00195">
        <ele>53</ele>
        <time>2021-05-08T12:51:18.000Z</time>
      </trkpt>
      <trkpt lat="47.06164" lon="-2.002">
        <ele>53</ele>
        <time>2021-05-08T12:51:20.000Z</time>
      </trkpt>
      <trkpt lat="47.06154" lon="-2.00205">
        <ele>52</ele>
        <time>2021-05-08T12:51:22.000Z</time>
      </trkpt>
      <trkpt lat="47.06145" lon="-2.00209">
        <ele>52</ele>
        <time>2021-05-08T12:51:24.000Z</time>
      </trkpt>
      <trkpt lat="47.06133" lon="-2.00216">
        <ele>53</ele>
        <time>2021-05-08T12:51:27.000Z</time>
      </trkpt>
      <trkpt lat="47.0612" lon="-2.0022">
        <ele>52</ele>
        <time>2021-05-08T12:51:30.000Z</time>
      </trkpt>
      <trkpt lat="47.0611" lon="-2.00225">
        <ele>52</ele>
        <time>2021-05-08T12:51:32.000Z</time>
      </trkpt>
      <trkpt lat="47.061" lon="-2.00229">
        <ele>53</ele>
        <time>2021-05-08T12:51:34.000Z</time>
      </trkpt>
      <trkpt lat="47.0609" lon="-2.00233">
        <ele>53</ele>
        <time>2021-05-08T12:51:36.000Z</time>
      </trkpt>
      <trkpt lat="47.0608" lon="-2.00237">
        <ele>53</ele>
        <time>2021-05-08T12:51:38.000Z</time>
      </trkpt>
      <trkpt lat="47.06069" lon="-2.00242">
        <ele>53</ele>
        <time>2021-05-08T12:51:40.000Z</time>
      </trkpt>
      <trkpt lat="47.0606" lon="-2.00247">
        <ele>52</ele>
        <time>2021-05-08T12:51:42.000Z</time>
      </trkpt>
      <trkpt lat="47.0605" lon="-2.00252">
        <ele>52</ele>
        <time>2021-05-08T12:51:44.000Z</time>
      </trkpt>
      <trkpt lat="47.06039" lon="-2.00257">
        <ele>52</ele>
        <time>2021-05-08T12:51:46.000Z</time>
      </trkpt>
      <trkpt lat="47.06029" lon="-2.00262">
        <ele>52</ele>
        <time>2021-05-08T12:51:48.000Z</time>
      </trkpt>
      <trkpt lat="47.0602" lon="-2.00267">
        <ele>52</ele>
        <time>2021-05-08T12:51:50.000Z</time>
      </trkpt>
      <trkpt lat="47.0601" lon="-2.0027">
        <ele>52</ele>
        <time>2021-05-08T12:51:52.000Z</time>
      </trkpt>
      <trkpt lat="47.06001" lon="-2.00274">
        <ele>52</ele>
        <time>2021-05-08T12:51:54.000Z</time>
      </trkpt>
      <trkpt lat="47.05989" lon="-2.0028">
        <ele>53</ele>
        <time>2021-05-08T12:51:57.000Z</time>
      </trkpt>
      <trkpt lat="47.0598" lon="-2.00288">
        <ele>53</ele>
        <time>2021-05-08T12:52:01.000Z</time>
      </trkpt>
      <trkpt lat="47.05972" lon="-2.00281">
        <ele>53</ele>
        <time>2021-05-08T12:52:29.000Z</time>
      </trkpt>
      <trkpt lat="47.05984" lon="-2.00278">
        <ele>54</ele>
        <time>2021-05-08T12:53:17.000Z</time>
      </trkpt>
      <trkpt lat="47.05997" lon="-2.00273">
        <ele>53</ele>
        <time>2021-05-08T12:53:20.000Z</time>
      </trkpt>
      <trkpt lat="47.06007" lon="-2.00268">
        <ele>53</ele>
        <time>2021-05-08T12:53:22.000Z</time>
      </trkpt>
      <trkpt lat="47.06017" lon="-2.00262">
        <ele>53</ele>
        <time>2021-05-08T12:53:24.000Z</time>
      </trkpt>
      <trkpt lat="47.06029" lon="-2.00258">
        <ele>53</ele>
        <time>2021-05-08T12:53:26.000Z</time>
      </trkpt>
      <trkpt lat="47.0604" lon="-2.00254">
        <ele>54</ele>
        <time>2021-05-08T12:53:28.000Z</time>
      </trkpt>
      <trkpt lat="47.06051" lon="-2.00248">
        <ele>54</ele>
        <time>2021-05-08T12:53:30.000Z</time>
      </trkpt>
      <trkpt lat="47.06062" lon="-2.00242">
        <ele>53</ele>
        <time>2021-05-08T12:53:32.000Z</time>
      </trkpt>
      <trkpt lat="47.06071" lon="-2.00236">
        <ele>53</ele>
        <time>2021-05-08T12:53:34.000Z</time>
      </trkpt>
      <trkpt lat="47.06069" lon="-2.00222">
        <ele>53</ele>
        <time>2021-05-08T12:53:37.000Z</time>
      </trkpt>
      <trkpt lat="47.06059" lon="-2.00214">
        <ele>54</ele>
        <time>2021-05-08T12:53:39.000Z</time>
      </trkpt>
      <trkpt lat="47.0605" lon="-2.00204">
        <ele>54</ele>
        <time>2021-05-08T12:53:41.000Z</time>
      </trkpt>
      <trkpt lat="47.06041" lon="-2.00194">
        <ele>54</ele>
        <time>2021-05-08T12:53:43.000Z</time>
      </trkpt>
      <trkpt lat="47.06031" lon="-2.00184">
        <ele>53</ele>
        <time>2021-05-08T12:53:45.000Z</time>
      </trkpt>
      <trkpt lat="47.06022" lon="-2.00175">
        <ele>52</ele>
        <time>2021-05-08T12:53:47.000Z</time>
      </trkpt>
      <trkpt lat="47.06012" lon="-2.00163">
        <ele>52</ele>
        <time>2021-05-08T12:53:49.000Z</time>
      </trkpt>
      <trkpt lat="47.06002" lon="-2.00152">
        <ele>52</ele>
        <time>2021-05-08T12:53:51.000Z</time>
      </trkpt>
      <trkpt lat="47.05992" lon="-2.00141">
        <ele>52</ele>
        <time>2021-05-08T12:53:53.000Z</time>
      </trkpt>
      <trkpt lat="47.05982" lon="-2.00131">
        <ele>53</ele>
        <time>2021-05-08T12:53:55.000Z</time>
      </trkpt>
      <trkpt lat="47.05972" lon="-2.00121">
        <ele>53</ele>
        <time>2021-05-08T12:53:57.000Z</time>
      </trkpt>
      <trkpt lat="47.05962" lon="-2.0011">
        <ele>52</ele>
        <time>2021-05-08T12:53:59.000Z</time>
      </trkpt>
      <trkpt lat="47.05951" lon="-2.00099">
        <ele>53</ele>
        <time>2021-05-08T12:54:01.000Z</time>
      </trkpt>
      <trkpt lat="47.05941" lon="-2.00088">
        <ele>52</ele>
        <time>2021-05-08T12:54:03.000Z</time>
      </trkpt>
      <trkpt lat="47.0593" lon="-2.00076">
        <ele>52</ele>
        <time>2021-05-08T12:54:05.000Z</time>
      </trkpt>
      <trkpt lat="47.0592" lon="-2.00065">
        <ele>52</ele>
        <time>2021-05-08T12:54:07.000Z</time>
      </trkpt>
      <trkpt lat="47.05909" lon="-2.00052">
        <ele>51</ele>
        <time>2021-05-08T12:54:09.000Z</time>
      </trkpt>
      <trkpt lat="47.05899" lon="-2.00041">
        <ele>51</ele>
        <time>2021-05-08T12:54:11.000Z</time>
      </trkpt>
      <trkpt lat="47.05888" lon="-2.0003">
        <ele>52</ele>
        <time>2021-05-08T12:54:13.000Z</time>
      </trkpt>
      <trkpt lat="47.05878" lon="-2.00018">
        <ele>52</ele>
        <time>2021-05-08T12:54:15.000Z</time>
      </trkpt>
      <trkpt lat="47.05868" lon="-2.00007">
        <ele>52</ele>
        <time>2021-05-08T12:54:17.000Z</time>
      </trkpt>
      <trkpt lat="47.05858" lon="-1.99996">
        <ele>52</ele>
        <time>2021-05-08T12:54:19.000Z</time>
      </trkpt>
      <trkpt lat="47.05847" lon="-1.99986">
        <ele>52</ele>
        <time>2021-05-08T12:54:21.000Z</time>
      </trkpt>
      <trkpt lat="47.05837" lon="-1.99975">
        <ele>52</ele>
        <time>2021-05-08T12:54:23.000Z</time>
      </trkpt>
      <trkpt lat="47.05828" lon="-1.99964">
        <ele>52</ele>
        <time>2021-05-08T12:54:25.000Z</time>
      </trkpt>
      <trkpt lat="47.05818" lon="-1.99954">
        <ele>52</ele>
        <time>2021-05-08T12:54:27.000Z</time>
      </trkpt>
      <trkpt lat="47.05808" lon="-1.99943">
        <ele>52</ele>
        <time>2021-05-08T12:54:29.000Z</time>
      </trkpt>
      <trkpt lat="47.05798" lon="-1.99932">
        <ele>52</ele>
        <time>2021-05-08T12:54:31.000Z</time>
      </trkpt>
      <trkpt lat="47.05787" lon="-1.99921">
        <ele>52</ele>
        <time>2021-05-08T12:54:33.000Z</time>
      </trkpt>
      <trkpt lat="47.05777" lon="-1.99911">
        <ele>52</ele>
        <time>2021-05-08T12:54:35.000Z</time>
      </trkpt>
      <trkpt lat="47.05767" lon="-1.99901">
        <ele>52</ele>
        <time>2021-05-08T12:54:37.000Z</time>
      </trkpt>
      <trkpt lat="47.05757" lon="-1.9989">
        <ele>52</ele>
        <time>2021-05-08T12:54:39.000Z</time>
      </trkpt>
      <trkpt lat="47.05747" lon="-1.99879">
        <ele>52</ele>
        <time>2021-05-08T12:54:41.000Z</time>
      </trkpt>
      <trkpt lat="47.05737" lon="-1.99868">
        <ele>53</ele>
        <time>2021-05-08T12:54:43.000Z</time>
      </trkpt>
      <trkpt lat="47.05728" lon="-1.99858">
        <ele>53</ele>
        <time>2021-05-08T12:54:45.000Z</time>
      </trkpt>
      <trkpt lat="47.05718" lon="-1.99847">
        <ele>53</ele>
        <time>2021-05-08T12:54:47.000Z</time>
      </trkpt>
      <trkpt lat="47.05709" lon="-1.99837">
        <ele>53</ele>
        <time>2021-05-08T12:54:49.000Z</time>
      </trkpt>
      <trkpt lat="47.05698" lon="-1.9983">
        <ele>53</ele>
        <time>2021-05-08T12:54:51.000Z</time>
      </trkpt>
      <trkpt lat="47.05685" lon="-1.99824">
        <ele>53</ele>
        <time>2021-05-08T12:54:53.000Z</time>
      </trkpt>
      <trkpt lat="47.05674" lon="-1.99817">
        <ele>52</ele>
        <time>2021-05-08T12:54:55.000Z</time>
      </trkpt>
      <trkpt lat="47.05662" lon="-1.99811">
        <ele>52</ele>
        <time>2021-05-08T12:54:57.000Z</time>
      </trkpt>
      <trkpt lat="47.0565" lon="-1.99804">
        <ele>52</ele>
        <time>2021-05-08T12:54:59.000Z</time>
      </trkpt>
      <trkpt lat="47.05639" lon="-1.99796">
        <ele>52</ele>
        <time>2021-05-08T12:55:01.000Z</time>
      </trkpt>
      <trkpt lat="47.05629" lon="-1.99787">
        <ele>53</ele>
        <time>2021-05-08T12:55:03.000Z</time>
      </trkpt>
      <trkpt lat="47.05618" lon="-1.99778">
        <ele>53</ele>
        <time>2021-05-08T12:55:05.000Z</time>
      </trkpt>
      <trkpt lat="47.05608" lon="-1.99769">
        <ele>53</ele>
        <time>2021-05-08T12:55:07.000Z</time>
      </trkpt>
      <trkpt lat="47.05598" lon="-1.99759">
        <ele>53</ele>
        <time>2021-05-08T12:55:09.000Z</time>
      </trkpt>
      <trkpt lat="47.05588" lon="-1.99749">
        <ele>52</ele>
        <time>2021-05-08T12:55:11.000Z</time>
      </trkpt>
      <trkpt lat="47.05578" lon="-1.9974">
        <ele>52</ele>
        <time>2021-05-08T12:55:13.000Z</time>
      </trkpt>
      <trkpt lat="47.05567" lon="-1.9973">
        <ele>52</ele>
        <time>2021-05-08T12:55:15.000Z</time>
      </trkpt>
      <trkpt lat="47.05556" lon="-1.99721">
        <ele>52</ele>
        <time>2021-05-08T12:55:17.000Z</time>
      </trkpt>
      <trkpt lat="47.05546" lon="-1.99711">
        <ele>52</ele>
        <time>2021-05-08T12:55:19.000Z</time>
      </trkpt>
      <trkpt lat="47.05535" lon="-1.99702">
        <ele>52</ele>
        <time>2021-05-08T12:55:21.000Z</time>
      </trkpt>
      <trkpt lat="47.05524" lon="-1.99693">
        <ele>52</ele>
        <time>2021-05-08T12:55:23.000Z</time>
      </trkpt>
      <trkpt lat="47.05514" lon="-1.99683">
        <ele>51</ele>
        <time>2021-05-08T12:55:25.000Z</time>
      </trkpt>
      <trkpt lat="47.05504" lon="-1.99674">
        <ele>52</ele>
        <time>2021-05-08T12:55:27.000Z</time>
      </trkpt>
      <trkpt lat="47.05493" lon="-1.99665">
        <ele>52</ele>
        <time>2021-05-08T12:55:29.000Z</time>
      </trkpt>
      <trkpt lat="47.05483" lon="-1.99656">
        <ele>52</ele>
        <time>2021-05-08T12:55:31.000Z</time>
      </trkpt>
      <trkpt lat="47.05474" lon="-1.99647">
        <ele>52</ele>
        <time>2021-05-08T12:55:33.000Z</time>
      </trkpt>
      <trkpt lat="47.05464" lon="-1.99637">
        <ele>52</ele>
        <time>2021-05-08T12:55:35.000Z</time>
      </trkpt>
      <trkpt lat="47.05453" lon="-1.99629">
        <ele>52</ele>
        <time>2021-05-08T12:55:37.000Z</time>
      </trkpt>
      <trkpt lat="47.05443" lon="-1.99621">
        <ele>52</ele>
        <time>2021-05-08T12:55:39.000Z</time>
      </trkpt>
      <trkpt lat="47.05433" lon="-1.9961">
        <ele>52</ele>
        <time>2021-05-08T12:55:41.000Z</time>
      </trkpt>
      <trkpt lat="47.05423" lon="-1.99598">
        <ele>53</ele>
        <time>2021-05-08T12:55:43.000Z</time>
      </trkpt>
      <trkpt lat="47.05415" lon="-1.99584">
        <ele>52</ele>
        <time>2021-05-08T12:55:45.000Z</time>
      </trkpt>
      <trkpt lat="47.0541" lon="-1.99569">
        <ele>53</ele>
        <time>2021-05-08T12:55:47.000Z</time>
      </trkpt>
      <trkpt lat="47.05406" lon="-1.99552">
        <ele>53</ele>
        <time>2021-05-08T12:55:49.000Z</time>
      </trkpt>
      <trkpt lat="47.05403" lon="-1.99535">
        <ele>53</ele>
        <time>2021-05-08T12:55:51.000Z</time>
      </trkpt>
      <trkpt lat="47.054" lon="-1.99518">
        <ele>53</ele>
        <time>2021-05-08T12:55:53.000Z</time>
      </trkpt>
      <trkpt lat="47.05397" lon="-1.995">
        <ele>53</ele>
        <time>2021-05-08T12:55:55.000Z</time>
      </trkpt>
      <trkpt lat="47.05392" lon="-1.99483">
        <ele>53</ele>
        <time>2021-05-08T12:55:57.000Z</time>
      </trkpt>
      <trkpt lat="47.05387" lon="-1.99467">
        <ele>53</ele>
        <time>2021-05-08T12:55:59.000Z</time>
      </trkpt>
      <trkpt lat="47.0538" lon="-1.99452">
        <ele>53</ele>
        <time>2021-05-08T12:56:01.000Z</time>
      </trkpt>
      <trkpt lat="47.05371" lon="-1.99439">
        <ele>53</ele>
        <time>2021-05-08T12:56:03.000Z</time>
      </trkpt>
      <trkpt lat="47.0536" lon="-1.99429">
        <ele>52</ele>
        <time>2021-05-08T12:56:05.000Z</time>
      </trkpt>
      <trkpt lat="47.05349" lon="-1.99422">
        <ele>52</ele>
        <time>2021-05-08T12:56:07.000Z</time>
      </trkpt>
      <trkpt lat="47.05337" lon="-1.99417">
        <ele>52</ele>
        <time>2021-05-08T12:56:09.000Z</time>
      </trkpt>
      <trkpt lat="47.05325" lon="-1.99413">
        <ele>52</ele>
        <time>2021-05-08T12:56:11.000Z</time>
      </trkpt>
      <trkpt lat="47.05313" lon="-1.99408">
        <ele>53</ele>
        <time>2021-05-08T12:56:13.000Z</time>
      </trkpt>
      <trkpt lat="47.05303" lon="-1.99401">
        <ele>52</ele>
        <time>2021-05-08T12:56:15.000Z</time>
      </trkpt>
      <trkpt lat="47.05293" lon="-1.99391">
        <ele>53</ele>
        <time>2021-05-08T12:56:17.000Z</time>
      </trkpt>
      <trkpt lat="47.05284" lon="-1.99379">
        <ele>53</ele>
        <time>2021-05-08T12:56:19.000Z</time>
      </trkpt>
      <trkpt lat="47.05277" lon="-1.99365">
        <ele>53</ele>
        <time>2021-05-08T12:56:21.000Z</time>
      </trkpt>
      <trkpt lat="47.05272" lon="-1.99349">
        <ele>53</ele>
        <time>2021-05-08T12:56:23.000Z</time>
      </trkpt>
      <trkpt lat="47.05268" lon="-1.99332">
        <ele>53</ele>
        <time>2021-05-08T12:56:25.000Z</time>
      </trkpt>
      <trkpt lat="47.05263" lon="-1.99315">
        <ele>53</ele>
        <time>2021-05-08T12:56:27.000Z</time>
      </trkpt>
      <trkpt lat="47.05259" lon="-1.99298">
        <ele>53</ele>
        <time>2021-05-08T12:56:29.000Z</time>
      </trkpt>
      <trkpt lat="47.05252" lon="-1.99282">
        <ele>52</ele>
        <time>2021-05-08T12:56:31.000Z</time>
      </trkpt>
      <trkpt lat="47.05244" lon="-1.99268">
        <ele>52</ele>
        <time>2021-05-08T12:56:33.000Z</time>
      </trkpt>
      <trkpt lat="47.05235" lon="-1.99255">
        <ele>52</ele>
        <time>2021-05-08T12:56:35.000Z</time>
      </trkpt>
      <trkpt lat="47.05224" lon="-1.99248">
        <ele>52</ele>
        <time>2021-05-08T12:56:37.000Z</time>
      </trkpt>
      <trkpt lat="47.05213" lon="-1.99245">
        <ele>52</ele>
        <time>2021-05-08T12:56:39.000Z</time>
      </trkpt>
      <trkpt lat="47.05201" lon="-1.99243">
        <ele>52</ele>
        <time>2021-05-08T12:56:41.000Z</time>
      </trkpt>
      <trkpt lat="47.0519" lon="-1.9924">
        <ele>52</ele>
        <time>2021-05-08T12:56:43.000Z</time>
      </trkpt>
      <trkpt lat="47.05179" lon="-1.99236">
        <ele>52</ele>
        <time>2021-05-08T12:56:45.000Z</time>
      </trkpt>
      <trkpt lat="47.05169" lon="-1.99227">
        <ele>52</ele>
        <time>2021-05-08T12:56:47.000Z</time>
      </trkpt>
      <trkpt lat="47.0516" lon="-1.99216">
        <ele>53</ele>
        <time>2021-05-08T12:56:49.000Z</time>
      </trkpt>
      <trkpt lat="47.05153" lon="-1.99203">
        <ele>53</ele>
        <time>2021-05-08T12:56:51.000Z</time>
      </trkpt>
      <trkpt lat="47.05146" lon="-1.9919">
        <ele>53</ele>
        <time>2021-05-08T12:56:53.000Z</time>
      </trkpt>
      <trkpt lat="47.05139" lon="-1.99176">
        <ele>53</ele>
        <time>2021-05-08T12:56:55.000Z</time>
      </trkpt>
      <trkpt lat="47.05131" lon="-1.99162">
        <ele>52</ele>
        <time>2021-05-08T12:56:57.000Z</time>
      </trkpt>
      <trkpt lat="47.05124" lon="-1.99148">
        <ele>53</ele>
        <time>2021-05-08T12:56:59.000Z</time>
      </trkpt>
      <trkpt lat="47.05117" lon="-1.99135">
        <ele>52</ele>
        <time>2021-05-08T12:57:01.000Z</time>
      </trkpt>
      <trkpt lat="47.0511" lon="-1.99121">
        <ele>52</ele>
        <time>2021-05-08T12:57:03.000Z</time>
      </trkpt>
      <trkpt lat="47.05103" lon="-1.99108">
        <ele>53</ele>
        <time>2021-05-08T12:57:05.000Z</time>
      </trkpt>
      <trkpt lat="47.05097" lon="-1.99095">
        <ele>53</ele>
        <time>2021-05-08T12:57:07.000Z</time>
      </trkpt>
      <trkpt lat="47.0509" lon="-1.99083">
        <ele>53</ele>
        <time>2021-05-08T12:57:09.000Z</time>
      </trkpt>
      <trkpt lat="47.05084" lon="-1.99071">
        <ele>52</ele>
        <time>2021-05-08T12:57:11.000Z</time>
      </trkpt>
      <trkpt lat="47.05079" lon="-1.9906">
        <ele>52</ele>
        <time>2021-05-08T12:57:13.000Z</time>
      </trkpt>
      <trkpt lat="47.0508" lon="-1.99045">
        <ele>52</ele>
        <time>2021-05-08T12:57:16.000Z</time>
      </trkpt>
      <trkpt lat="47.05087" lon="-1.99036">
        <ele>53</ele>
        <time>2021-05-08T12:59:28.000Z</time>
      </trkpt>
      <trkpt lat="47.05098" lon="-1.99025">
        <ele>52</ele>
        <time>2021-05-08T12:59:31.000Z</time>
      </trkpt>
      <trkpt lat="47.05108" lon="-1.99016">
        <ele>51</ele>
        <time>2021-05-08T12:59:33.000Z</time>
      </trkpt>
      <trkpt lat="47.05118" lon="-1.9901">
        <ele>51</ele>
        <time>2021-05-08T12:59:35.000Z</time>
      </trkpt>
      <trkpt lat="47.0513" lon="-1.9901">
        <ele>51</ele>
        <time>2021-05-08T12:59:37.000Z</time>
      </trkpt>
      <trkpt lat="47.05141" lon="-1.99012">
        <ele>51</ele>
        <time>2021-05-08T12:59:39.000Z</time>
      </trkpt>
      <trkpt lat="47.05154" lon="-1.99011">
        <ele>51</ele>
        <time>2021-05-08T12:59:41.000Z</time>
      </trkpt>
      <trkpt lat="47.05166" lon="-1.99004">
        <ele>50</ele>
        <time>2021-05-08T12:59:43.000Z</time>
      </trkpt>
      <trkpt lat="47.05176" lon="-1.98991">
        <ele>50</ele>
        <time>2021-05-08T12:59:45.000Z</time>
      </trkpt>
      <trkpt lat="47.05187" lon="-1.98979">
        <ele>50</ele>
        <time>2021-05-08T12:59:47.000Z</time>
      </trkpt>
      <trkpt lat="47.05199" lon="-1.98971">
        <ele>51</ele>
        <time>2021-05-08T12:59:49.000Z</time>
      </trkpt>
      <trkpt lat="47.05212" lon="-1.98965">
        <ele>51</ele>
        <time>2021-05-08T12:59:51.000Z</time>
      </trkpt>
      <trkpt lat="47.05225" lon="-1.98961">
        <ele>52</ele>
        <time>2021-05-08T12:59:53.000Z</time>
      </trkpt>
      <trkpt lat="47.05238" lon="-1.98958">
        <ele>51</ele>
        <time>2021-05-08T12:59:55.000Z</time>
      </trkpt>
      <trkpt lat="47.05252" lon="-1.98952">
        <ele>51</ele>
        <time>2021-05-08T12:59:57.000Z</time>
      </trkpt>
      <trkpt lat="47.05264" lon="-1.98942">
        <ele>51</ele>
        <time>2021-05-08T12:59:59.000Z</time>
      </trkpt>
      <trkpt lat="47.05277" lon="-1.98933">
        <ele>51</ele>
        <time>2021-05-08T13:00:01.000Z</time>
      </trkpt>
      <trkpt lat="47.05291" lon="-1.98925">
        <ele>51</ele>
        <time>2021-05-08T13:00:03.000Z</time>
      </trkpt>
      <trkpt lat="47.05305" lon="-1.98918">
        <ele>51</ele>
        <time>2021-05-08T13:00:05.000Z</time>
      </trkpt>
      <trkpt lat="47.05319" lon="-1.98911">
        <ele>51</ele>
        <time>2021-05-08T13:00:07.000Z</time>
      </trkpt>
      <trkpt lat="47.05333" lon="-1.98904">
        <ele>51</ele>
        <time>2021-05-08T13:00:09.000Z</time>
      </trkpt>
      <trkpt lat="47.05348" lon="-1.98897">
        <ele>51</ele>
        <time>2021-05-08T13:00:11.000Z</time>
      </trkpt>
      <trkpt lat="47.05362" lon="-1.9889">
        <ele>51</ele>
        <time>2021-05-08T13:00:13.000Z</time>
      </trkpt>
      <trkpt lat="47.05377" lon="-1.98883">
        <ele>51</ele>
        <time>2021-05-08T13:00:15.000Z</time>
      </trkpt>
      <trkpt lat="47.05391" lon="-1.98876">
        <ele>51</ele>
        <time>2021-05-08T13:00:17.000Z</time>
      </trkpt>
      <trkpt lat="47.05406" lon="-1.98869">
        <ele>51</ele>
        <time>2021-05-08T13:00:19.000Z</time>
      </trkpt>
      <trkpt lat="47.05422" lon="-1.98867">
        <ele>51</ele>
        <time>2021-05-08T13:00:21.000Z</time>
      </trkpt>
      <trkpt lat="47.05437" lon="-1.98873">
        <ele>51</ele>
        <time>2021-05-08T13:00:23.000Z</time>
      </trkpt>
      <trkpt lat="47.0545" lon="-1.98883">
        <ele>51</ele>
        <time>2021-05-08T13:00:25.000Z</time>
      </trkpt>
      <trkpt lat="47.05463" lon="-1.98893">
        <ele>51</ele>
        <time>2021-05-08T13:00:27.000Z</time>
      </trkpt>
      <trkpt lat="47.05477" lon="-1.98897">
        <ele>51</ele>
        <time>2021-05-08T13:00:29.000Z</time>
      </trkpt>
      <trkpt lat="47.05492" lon="-1.98898">
        <ele>51</ele>
        <time>2021-05-08T13:00:31.000Z</time>
      </trkpt>
      <trkpt lat="47.05507" lon="-1.98898">
        <ele>51</ele>
        <time>2021-05-08T13:00:33.000Z</time>
      </trkpt>
      <trkpt lat="47.05521" lon="-1.98898">
        <ele>51</ele>
        <time>2021-05-08T13:00:35.000Z</time>
      </trkpt>
      <trkpt lat="47.05536" lon="-1.98898">
        <ele>51</ele>
        <time>2021-05-08T13:00:37.000Z</time>
      </trkpt>
      <trkpt lat="47.05551" lon="-1.98898">
        <ele>51</ele>
        <time>2021-05-08T13:00:39.000Z</time>
      </trkpt>
      <trkpt lat="47.05566" lon="-1.98898">
        <ele>51</ele>
        <time>2021-05-08T13:00:41.000Z</time>
      </trkpt>
      <trkpt lat="47.05581" lon="-1.98898">
        <ele>51</ele>
        <time>2021-05-08T13:00:43.000Z</time>
      </trkpt>
      <trkpt lat="47.05596" lon="-1.98898">
        <ele>51</ele>
        <time>2021-05-08T13:00:45.000Z</time>
      </trkpt>
      <trkpt lat="47.05611" lon="-1.98898">
        <ele>51</ele>
        <time>2021-05-08T13:00:47.000Z</time>
      </trkpt>
      <trkpt lat="47.05626" lon="-1.98899">
        <ele>51</ele>
        <time>2021-05-08T13:00:49.000Z</time>
      </trkpt>
      <trkpt lat="47.05641" lon="-1.98899">
        <ele>51</ele>
        <time>2021-05-08T13:00:51.000Z</time>
      </trkpt>
      <trkpt lat="47.05656" lon="-1.98899">
        <ele>51</ele>
        <time>2021-05-08T13:00:53.000Z</time>
      </trkpt>
      <trkpt lat="47.05671" lon="-1.98899">
        <ele>51</ele>
        <time>2021-05-08T13:00:55.000Z</time>
      </trkpt>
      <trkpt lat="47.05686" lon="-1.989">
        <ele>51</ele>
        <time>2021-05-08T13:00:57.000Z</time>
      </trkpt>
      <trkpt lat="47.05701" lon="-1.98901">
        <ele>51</ele>
        <time>2021-05-08T13:00:59.000Z</time>
      </trkpt>
      <trkpt lat="47.05716" lon="-1.98901">
        <ele>51</ele>
        <time>2021-05-08T13:01:01.000Z</time>
      </trkpt>
      <trkpt lat="47.0573" lon="-1.98901">
        <ele>51</ele>
        <time>2021-05-08T13:01:03.000Z</time>
      </trkpt>
      <trkpt lat="47.05745" lon="-1.98901">
        <ele>51</ele>
        <time>2021-05-08T13:01:05.000Z</time>
      </trkpt>
      <trkpt lat="47.0576" lon="-1.98901">
        <ele>51</ele>
        <time>2021-05-08T13:01:07.000Z</time>
      </trkpt>
      <trkpt lat="47.05775" lon="-1.98902">
        <ele>51</ele>
        <time>2021-05-08T13:01:09.000Z</time>
      </trkpt>
      <trkpt lat="47.0579" lon="-1.98902">
        <ele>51</ele>
        <time>2021-05-08T13:01:11.000Z</time>
      </trkpt>
      <trkpt lat="47.05804" lon="-1.98903">
        <ele>51</ele>
        <time>2021-05-08T13:01:13.000Z</time>
      </trkpt>
      <trkpt lat="47.05819" lon="-1.98901">
        <ele>51</ele>
        <time>2021-05-08T13:01:15.000Z</time>
      </trkpt>
      <trkpt lat="47.05834" lon="-1.98898">
        <ele>50</ele>
        <time>2021-05-08T13:01:17.000Z</time>
      </trkpt>
      <trkpt lat="47.05848" lon="-1.9889">
        <ele>50</ele>
        <time>2021-05-08T13:01:19.000Z</time>
      </trkpt>
      <trkpt lat="47.05862" lon="-1.98882">
        <ele>50</ele>
        <time>2021-05-08T13:01:21.000Z</time>
      </trkpt>
      <trkpt lat="47.05876" lon="-1.98874">
        <ele>50</ele>
        <time>2021-05-08T13:01:23.000Z</time>
      </trkpt>
      <trkpt lat="47.0589" lon="-1.98867">
        <ele>50</ele>
        <time>2021-05-08T13:01:25.000Z</time>
      </trkpt>
      <trkpt lat="47.05904" lon="-1.98859">
        <ele>50</ele>
        <time>2021-05-08T13:01:27.000Z</time>
      </trkpt>
      <trkpt lat="47.05918" lon="-1.98849">
        <ele>50</ele>
        <time>2021-05-08T13:01:29.000Z</time>
      </trkpt>
      <trkpt lat="47.05929" lon="-1.98834">
        <ele>50</ele>
        <time>2021-05-08T13:01:31.000Z</time>
      </trkpt>
      <trkpt lat="47.05935" lon="-1.98815">
        <ele>50</ele>
        <time>2021-05-08T13:01:33.000Z</time>
      </trkpt>
      <trkpt lat="47.05937" lon="-1.98794">
        <ele>50</ele>
        <time>2021-05-08T13:01:35.000Z</time>
      </trkpt>
      <trkpt lat="47.0594" lon="-1.98774">
        <ele>50</ele>
        <time>2021-05-08T13:01:37.000Z</time>
      </trkpt>
      <trkpt lat="47.05947" lon="-1.98756">
        <ele>50</ele>
        <time>2021-05-08T13:01:39.000Z</time>
      </trkpt>
      <trkpt lat="47.05959" lon="-1.98743">
        <ele>51</ele>
        <time>2021-05-08T13:01:41.000Z</time>
      </trkpt>
      <trkpt lat="47.05971" lon="-1.98733">
        <ele>51</ele>
        <time>2021-05-08T13:01:43.000Z</time>
      </trkpt>
      <trkpt lat="47.05983" lon="-1.98724">
        <ele>51</ele>
        <time>2021-05-08T13:01:45.000Z</time>
      </trkpt>
      <trkpt lat="47.05995" lon="-1.98716">
        <ele>52</ele>
        <time>2021-05-08T13:01:47.000Z</time>
      </trkpt>
      <trkpt lat="47.06006" lon="-1.98704">
        <ele>52</ele>
        <time>2021-05-08T13:01:49.000Z</time>
      </trkpt>
      <trkpt lat="47.06017" lon="-1.98691">
        <ele>52</ele>
        <time>2021-05-08T13:01:51.000Z</time>
      </trkpt>
      <trkpt lat="47.06028" lon="-1.98677">
        <ele>52</ele>
        <time>2021-05-08T13:01:53.000Z</time>
      </trkpt>
      <trkpt lat="47.06039" lon="-1.98664">
        <ele>52</ele>
        <time>2021-05-08T13:01:55.000Z</time>
      </trkpt>
      <trkpt lat="47.06051" lon="-1.9865">
        <ele>52</ele>
        <time>2021-05-08T13:01:57.000Z</time>
      </trkpt>
      <trkpt lat="47.06061" lon="-1.98635">
        <ele>52</ele>
        <time>2021-05-08T13:01:59.000Z</time>
      </trkpt>
      <trkpt lat="47.06071" lon="-1.98622">
        <ele>53</ele>
        <time>2021-05-08T13:02:01.000Z</time>
      </trkpt>
      <trkpt lat="47.06082" lon="-1.9861">
        <ele>52</ele>
        <time>2021-05-08T13:02:03.000Z</time>
      </trkpt>
      <trkpt lat="47.06092" lon="-1.98596">
        <ele>53</ele>
        <time>2021-05-08T13:02:05.000Z</time>
      </trkpt>
      <trkpt lat="47.06103" lon="-1.98583">
        <ele>53</ele>
        <time>2021-05-08T13:02:07.000Z</time>
      </trkpt>
      <trkpt lat="47.06115" lon="-1.98571">
        <ele>54</ele>
        <time>2021-05-08T13:02:09.000Z</time>
      </trkpt>
      <trkpt lat="47.06127" lon="-1.9856">
        <ele>54</ele>
        <time>2021-05-08T13:02:11.000Z</time>
      </trkpt>
      <trkpt lat="47.06139" lon="-1.98549">
        <ele>55</ele>
        <time>2021-05-08T13:02:13.000Z</time>
      </trkpt>
      <trkpt lat="47.06152" lon="-1.98538">
        <ele>55</ele>
        <time>2021-05-08T13:02:15.000Z</time>
      </trkpt>
      <trkpt lat="47.06164" lon="-1.98528">
        <ele>55</ele>
        <time>2021-05-08T13:02:17.000Z</time>
      </trkpt>
      <trkpt lat="47.06177" lon="-1.98519">
        <ele>55</ele>
        <time>2021-05-08T13:02:19.000Z</time>
      </trkpt>
      <trkpt lat="47.06189" lon="-1.9851">
        <ele>56</ele>
        <time>2021-05-08T13:02:21.000Z</time>
      </trkpt>
      <trkpt lat="47.06201" lon="-1.98501">
        <ele>56</ele>
        <time>2021-05-08T13:02:23.000Z</time>
      </trkpt>
      <trkpt lat="47.06212" lon="-1.98494">
        <ele>56</ele>
        <time>2021-05-08T13:02:25.000Z</time>
      </trkpt>
      <trkpt lat="47.06224" lon="-1.98487">
        <ele>56</ele>
        <time>2021-05-08T13:02:27.000Z</time>
      </trkpt>
      <trkpt lat="47.06234" lon="-1.9848">
        <ele>56</ele>
        <time>2021-05-08T13:02:29.000Z</time>
      </trkpt>
      <trkpt lat="47.06246" lon="-1.98479">
        <ele>56</ele>
        <time>2021-05-08T13:02:31.000Z</time>
      </trkpt>
      <trkpt lat="47.06257" lon="-1.98492">
        <ele>57</ele>
        <time>2021-05-08T13:02:33.000Z</time>
      </trkpt>
      <trkpt lat="47.06262" lon="-1.98511">
        <ele>57</ele>
        <time>2021-05-08T13:02:35.000Z</time>
      </trkpt>
      <trkpt lat="47.06267" lon="-1.98529">
        <ele>56</ele>
        <time>2021-05-08T13:02:37.000Z</time>
      </trkpt>
      <trkpt lat="47.06272" lon="-1.98547">
        <ele>56</ele>
        <time>2021-05-08T13:02:39.000Z</time>
      </trkpt>
      <trkpt lat="47.06276" lon="-1.98564">
        <ele>56</ele>
        <time>2021-05-08T13:02:41.000Z</time>
      </trkpt>
      <trkpt lat="47.06281" lon="-1.98583">
        <ele>56</ele>
        <time>2021-05-08T13:02:43.000Z</time>
      </trkpt>
      <trkpt lat="47.06286" lon="-1.986">
        <ele>56</ele>
        <time>2021-05-08T13:02:45.000Z</time>
      </trkpt>
      <trkpt lat="47.06292" lon="-1.98618">
        <ele>56</ele>
        <time>2021-05-08T13:02:47.000Z</time>
      </trkpt>
      <trkpt lat="47.06298" lon="-1.98636">
        <ele>56</ele>
        <time>2021-05-08T13:02:49.000Z</time>
      </trkpt>
      <trkpt lat="47.06306" lon="-1.98651">
        <ele>55</ele>
        <time>2021-05-08T13:02:51.000Z</time>
      </trkpt>
      <trkpt lat="47.06314" lon="-1.98666">
        <ele>55</ele>
        <time>2021-05-08T13:02:53.000Z</time>
      </trkpt>
      <trkpt lat="47.06322" lon="-1.98681">
        <ele>55</ele>
        <time>2021-05-08T13:02:55.000Z</time>
      </trkpt>
      <trkpt lat="47.06329" lon="-1.98696">
        <ele>55</ele>
        <time>2021-05-08T13:02:57.000Z</time>
      </trkpt>
      <trkpt lat="47.06336" lon="-1.98711">
        <ele>55</ele>
        <time>2021-05-08T13:02:59.000Z</time>
      </trkpt>
      <trkpt lat="47.06342" lon="-1.98728">
        <ele>55</ele>
        <time>2021-05-08T13:03:01.000Z</time>
      </trkpt>
      <trkpt lat="47.06347" lon="-1.98745">
        <ele>54</ele>
        <time>2021-05-08T13:03:03.000Z</time>
      </trkpt>
      <trkpt lat="47.06352" lon="-1.98762">
        <ele>54</ele>
        <time>2021-05-08T13:03:05.000Z</time>
      </trkpt>
      <trkpt lat="47.06356" lon="-1.98779">
        <ele>54</ele>
        <time>2021-05-08T13:03:07.000Z</time>
      </trkpt>
      <trkpt lat="47.06361" lon="-1.98796">
        <ele>53</ele>
        <time>2021-05-08T13:03:09.000Z</time>
      </trkpt>
      <trkpt lat="47.06367" lon="-1.98811">
        <ele>53</ele>
        <time>2021-05-08T13:03:11.000Z</time>
      </trkpt>
      <trkpt lat="47.06377" lon="-1.98819">
        <ele>54</ele>
        <time>2021-05-08T13:03:13.000Z</time>
      </trkpt>
      <trkpt lat="47.06386" lon="-1.98808">
        <ele>54</ele>
        <time>2021-05-08T13:03:15.000Z</time>
      </trkpt>
      <trkpt lat="47.06391" lon="-1.9879">
        <ele>54</ele>
        <time>2021-05-08T13:03:17.000Z</time>
      </trkpt>
      <trkpt lat="47.06395" lon="-1.98769">
        <ele>54</ele>
        <time>2021-05-08T13:03:19.000Z</time>
      </trkpt>
      <trkpt lat="47.06399" lon="-1.98748">
        <ele>55</ele>
        <time>2021-05-08T13:03:21.000Z</time>
      </trkpt>
      <trkpt lat="47.06404" lon="-1.98728">
        <ele>55</ele>
        <time>2021-05-08T13:03:23.000Z</time>
      </trkpt>
      <trkpt lat="47.06408" lon="-1.98707">
        <ele>55</ele>
        <time>2021-05-08T13:03:25.000Z</time>
      </trkpt>
      <trkpt lat="47.06411" lon="-1.98688">
        <ele>56</ele>
        <time>2021-05-08T13:03:27.000Z</time>
      </trkpt>
      <trkpt lat="47.06415" lon="-1.98668">
        <ele>56</ele>
        <time>2021-05-08T13:03:29.000Z</time>
      </trkpt>
      <trkpt lat="47.0642" lon="-1.9865">
        <ele>57</ele>
        <time>2021-05-08T13:03:31.000Z</time>
      </trkpt>
      <trkpt lat="47.06427" lon="-1.98632">
        <ele>57</ele>
        <time>2021-05-08T13:03:33.000Z</time>
      </trkpt>
      <trkpt lat="47.06435" lon="-1.98616">
        <ele>58</ele>
        <time>2021-05-08T13:03:35.000Z</time>
      </trkpt>
      <trkpt lat="47.06444" lon="-1.986">
        <ele>58</ele>
        <time>2021-05-08T13:03:37.000Z</time>
      </trkpt>
      <trkpt lat="47.06453" lon="-1.98584">
        <ele>59</ele>
        <time>2021-05-08T13:03:39.000Z</time>
      </trkpt>
      <trkpt lat="47.06462" lon="-1.98567">
        <ele>60</ele>
        <time>2021-05-08T13:03:41.000Z</time>
      </trkpt>
      <trkpt lat="47.06469" lon="-1.98549">
        <ele>60</ele>
        <time>2021-05-08T13:03:43.000Z</time>
      </trkpt>
      <trkpt lat="47.06475" lon="-1.98532">
        <ele>61</ele>
        <time>2021-05-08T13:03:45.000Z</time>
      </trkpt>
      <trkpt lat="47.06481" lon="-1.98514">
        <ele>60</ele>
        <time>2021-05-08T13:03:47.000Z</time>
      </trkpt>
      <trkpt lat="47.06485" lon="-1.98493">
        <ele>60</ele>
        <time>2021-05-08T13:03:49.000Z</time>
      </trkpt>
      <trkpt lat="47.06488" lon="-1.9847">
        <ele>60</ele>
        <time>2021-05-08T13:03:51.000Z</time>
      </trkpt>
      <trkpt lat="47.06491" lon="-1.98444">
        <ele>60</ele>
        <time>2021-05-08T13:03:53.000Z</time>
      </trkpt>
      <trkpt lat="47.06494" lon="-1.98418">
        <ele>60</ele>
        <time>2021-05-08T13:03:55.000Z</time>
      </trkpt>
      <trkpt lat="47.06497" lon="-1.98394">
        <ele>60</ele>
        <time>2021-05-08T13:03:57.000Z</time>
      </trkpt>
      <trkpt lat="47.065" lon="-1.9837">
        <ele>59</ele>
        <time>2021-05-08T13:03:59.000Z</time>
      </trkpt>
      <trkpt lat="47.06501" lon="-1.98346">
        <ele>60</ele>
        <time>2021-05-08T13:04:01.000Z</time>
      </trkpt>
      <trkpt lat="47.06504" lon="-1.98325">
        <ele>61</ele>
        <time>2021-05-08T13:04:03.000Z</time>
      </trkpt>
      <trkpt lat="47.06508" lon="-1.98303">
        <ele>61</ele>
        <time>2021-05-08T13:04:05.000Z</time>
      </trkpt>
      <trkpt lat="47.06513" lon="-1.98283">
        <ele>61</ele>
        <time>2021-05-08T13:04:07.000Z</time>
      </trkpt>
      <trkpt lat="47.0652" lon="-1.98264">
        <ele>60</ele>
        <time>2021-05-08T13:04:09.000Z</time>
      </trkpt>
      <trkpt lat="47.06522" lon="-1.98243">
        <ele>60</ele>
        <time>2021-05-08T13:04:11.000Z</time>
      </trkpt>
      <trkpt lat="47.06519" lon="-1.9822">
        <ele>59</ele>
        <time>2021-05-08T13:04:13.000Z</time>
      </trkpt>
      <trkpt lat="47.06515" lon="-1.98197">
        <ele>58</ele>
        <time>2021-05-08T13:04:15.000Z</time>
      </trkpt>
      <trkpt lat="47.06512" lon="-1.98174">
        <ele>57</ele>
        <time>2021-05-08T13:04:17.000Z</time>
      </trkpt>
      <trkpt lat="47.06508" lon="-1.9815">
        <ele>57</ele>
        <time>2021-05-08T13:04:19.000Z</time>
      </trkpt>
      <trkpt lat="47.06505" lon="-1.98124">
        <ele>55</ele>
        <time>2021-05-08T13:04:21.000Z</time>
      </trkpt>
      <trkpt lat="47.06505" lon="-1.98111">
        <ele>54</ele>
        <time>2021-05-08T13:04:22.000Z</time>
      </trkpt>
      <trkpt lat="47.06508" lon="-1.98085">
        <ele>54</ele>
        <time>2021-05-08T13:04:24.000Z</time>
      </trkpt>
      <trkpt lat="47.06512" lon="-1.98061">
        <ele>53</ele>
        <time>2021-05-08T13:04:26.000Z</time>
      </trkpt>
      <trkpt lat="47.06511" lon="-1.98036">
        <ele>53</ele>
        <time>2021-05-08T13:04:28.000Z</time>
      </trkpt>
      <trkpt lat="47.06506" lon="-1.98014">
        <ele>54</ele>
        <time>2021-05-08T13:04:30.000Z</time>
      </trkpt>
      <trkpt lat="47.065" lon="-1.97994">
        <ele>55</ele>
        <time>2021-05-08T13:04:32.000Z</time>
      </trkpt>
      <trkpt lat="47.06495" lon="-1.97976">
        <ele>55</ele>
        <time>2021-05-08T13:04:34.000Z</time>
      </trkpt>
      <trkpt lat="47.0649" lon="-1.97959">
        <ele>55</ele>
        <time>2021-05-08T13:04:36.000Z</time>
      </trkpt>
      <trkpt lat="47.06487" lon="-1.97941">
        <ele>56</ele>
        <time>2021-05-08T13:04:38.000Z</time>
      </trkpt>
      <trkpt lat="47.06484" lon="-1.97924">
        <ele>56</ele>
        <time>2021-05-08T13:04:40.000Z</time>
      </trkpt>
      <trkpt lat="47.06482" lon="-1.97908">
        <ele>57</ele>
        <time>2021-05-08T13:04:42.000Z</time>
      </trkpt>
      <trkpt lat="47.06481" lon="-1.97892">
        <ele>58</ele>
        <time>2021-05-08T13:04:44.000Z</time>
      </trkpt>
      <trkpt lat="47.06479" lon="-1.97876">
        <ele>58</ele>
        <time>2021-05-08T13:04:46.000Z</time>
      </trkpt>
      <trkpt lat="47.06478" lon="-1.97861">
        <ele>59</ele>
        <time>2021-05-08T13:04:48.000Z</time>
      </trkpt>
      <trkpt lat="47.06476" lon="-1.97845">
        <ele>60</ele>
        <time>2021-05-08T13:04:50.000Z</time>
      </trkpt>
      <trkpt lat="47.06476" lon="-1.9783">
        <ele>61</ele>
        <time>2021-05-08T13:04:52.000Z</time>
      </trkpt>
      <trkpt lat="47.06474" lon="-1.97816">
        <ele>62</ele>
        <time>2021-05-08T13:04:54.000Z</time>
      </trkpt>
      <trkpt lat="47.06472" lon="-1.97801">
        <ele>64</ele>
        <time>2021-05-08T13:04:56.000Z</time>
      </trkpt>
      <trkpt lat="47.06472" lon="-1.97784">
        <ele>64</ele>
        <time>2021-05-08T13:04:59.000Z</time>
      </trkpt>
      <trkpt lat="47.06471" lon="-1.97769">
        <ele>65</ele>
        <time>2021-05-08T13:05:49.000Z</time>
      </trkpt>
      <trkpt lat="47.0647" lon="-1.97753">
        <ele>66</ele>
        <time>2021-05-08T13:05:52.000Z</time>
      </trkpt>
      <trkpt lat="47.0647" lon="-1.97733">
        <ele>66</ele>
        <time>2021-05-08T13:05:54.000Z</time>
      </trkpt>
      <trkpt lat="47.06469" lon="-1.97712">
        <ele>66</ele>
        <time>2021-05-08T13:05:56.000Z</time>
      </trkpt>
      <trkpt lat="47.06469" lon="-1.97693">
        <ele>67</ele>
        <time>2021-05-08T13:05:58.000Z</time>
      </trkpt>
      <trkpt lat="47.0647" lon="-1.97675">
        <ele>67</ele>
        <time>2021-05-08T13:06:00.000Z</time>
      </trkpt>
      <trkpt lat="47.06472" lon="-1.97657">
        <ele>67</ele>
        <time>2021-05-08T13:06:02.000Z</time>
      </trkpt>
      <trkpt lat="47.06479" lon="-1.97643">
        <ele>67</ele>
        <time>2021-05-08T13:06:04.000Z</time>
      </trkpt>
      <trkpt lat="47.06489" lon="-1.97631">
        <ele>67</ele>
        <time>2021-05-08T13:06:06.000Z</time>
      </trkpt>
      <trkpt lat="47.065" lon="-1.97622">
        <ele>67</ele>
        <time>2021-05-08T13:06:08.000Z</time>
      </trkpt>
      <trkpt lat="47.06508" lon="-1.9761">
        <ele>66</ele>
        <time>2021-05-08T13:06:10.000Z</time>
      </trkpt>
      <trkpt lat="47.06513" lon="-1.97593">
        <ele>66</ele>
        <time>2021-05-08T13:06:12.000Z</time>
      </trkpt>
      <trkpt lat="47.06513" lon="-1.97576">
        <ele>66</ele>
        <time>2021-05-08T13:06:14.000Z</time>
      </trkpt>
      <trkpt lat="47.06511" lon="-1.97559">
        <ele>66</ele>
        <time>2021-05-08T13:06:16.000Z</time>
      </trkpt>
      <trkpt lat="47.06508" lon="-1.97542">
        <ele>66</ele>
        <time>2021-05-08T13:06:18.000Z</time>
      </trkpt>
      <trkpt lat="47.06505" lon="-1.97525">
        <ele>66</ele>
        <time>2021-05-08T13:06:20.000Z</time>
      </trkpt>
      <trkpt lat="47.06502" lon="-1.97507">
        <ele>67</ele>
        <time>2021-05-08T13:06:22.000Z</time>
      </trkpt>
      <trkpt lat="47.06498" lon="-1.97491">
        <ele>67</ele>
        <time>2021-05-08T13:06:24.000Z</time>
      </trkpt>
      <trkpt lat="47.06493" lon="-1.97474">
        <ele>67</ele>
        <time>2021-05-08T13:06:26.000Z</time>
      </trkpt>
      <trkpt lat="47.06489" lon="-1.97457">
        <ele>67</ele>
        <time>2021-05-08T13:06:28.000Z</time>
      </trkpt>
      <trkpt lat="47.06485" lon="-1.9744">
        <ele>67</ele>
        <time>2021-05-08T13:06:30.000Z</time>
      </trkpt>
      <trkpt lat="47.06483" lon="-1.97423">
        <ele>67</ele>
        <time>2021-05-08T13:06:32.000Z</time>
      </trkpt>
      <trkpt lat="47.0648" lon="-1.97406">
        <ele>67</ele>
        <time>2021-05-08T13:06:34.000Z</time>
      </trkpt>
      <trkpt lat="47.06478" lon="-1.97389">
        <ele>68</ele>
        <time>2021-05-08T13:06:36.000Z</time>
      </trkpt>
      <trkpt lat="47.06475" lon="-1.97372">
        <ele>68</ele>
        <time>2021-05-08T13:06:38.000Z</time>
      </trkpt>
      <trkpt lat="47.06473" lon="-1.97354">
        <ele>68</ele>
        <time>2021-05-08T13:06:40.000Z</time>
      </trkpt>
      <trkpt lat="47.06472" lon="-1.97336">
        <ele>67</ele>
        <time>2021-05-08T13:06:42.000Z</time>
      </trkpt>
      <trkpt lat="47.06471" lon="-1.97319">
        <ele>68</ele>
        <time>2021-05-08T13:06:44.000Z</time>
      </trkpt>
      <trkpt lat="47.06472" lon="-1.97302">
        <ele>68</ele>
        <time>2021-05-08T13:06:46.000Z</time>
      </trkpt>
      <trkpt lat="47.06477" lon="-1.97286">
        <ele>68</ele>
        <time>2021-05-08T13:06:48.000Z</time>
      </trkpt>
      <trkpt lat="47.06484" lon="-1.97272">
        <ele>68</ele>
        <time>2021-05-08T13:06:50.000Z</time>
      </trkpt>
      <trkpt lat="47.06496" lon="-1.97263">
        <ele>68</ele>
        <time>2021-05-08T13:06:52.000Z</time>
      </trkpt>
      <trkpt lat="47.06507" lon="-1.97256">
        <ele>69</ele>
        <time>2021-05-08T13:06:54.000Z</time>
      </trkpt>
      <trkpt lat="47.0652" lon="-1.97251">
        <ele>69</ele>
        <time>2021-05-08T13:06:56.000Z</time>
      </trkpt>
      <trkpt lat="47.06532" lon="-1.97247">
        <ele>69</ele>
        <time>2021-05-08T13:06:58.000Z</time>
      </trkpt>
      <trkpt lat="47.06545" lon="-1.97244">
        <ele>70</ele>
        <time>2021-05-08T13:07:00.000Z</time>
      </trkpt>
      <trkpt lat="47.06558" lon="-1.97241">
        <ele>70</ele>
        <time>2021-05-08T13:07:02.000Z</time>
      </trkpt>
      <trkpt lat="47.06572" lon="-1.97238">
        <ele>70</ele>
        <time>2021-05-08T13:07:04.000Z</time>
      </trkpt>
      <trkpt lat="47.06585" lon="-1.97235">
        <ele>70</ele>
        <time>2021-05-08T13:07:06.000Z</time>
      </trkpt>
      <trkpt lat="47.06599" lon="-1.97233">
        <ele>70</ele>
        <time>2021-05-08T13:07:08.000Z</time>
      </trkpt>
      <trkpt lat="47.06613" lon="-1.97231">
        <ele>70</ele>
        <time>2021-05-08T13:07:10.000Z</time>
      </trkpt>
      <trkpt lat="47.06627" lon="-1.97228">
        <ele>69</ele>
        <time>2021-05-08T13:07:12.000Z</time>
      </trkpt>
      <trkpt lat="47.0664" lon="-1.97222">
        <ele>69</ele>
        <time>2021-05-08T13:07:14.000Z</time>
      </trkpt>
      <trkpt lat="47.06653" lon="-1.97214">
        <ele>69</ele>
        <time>2021-05-08T13:07:16.000Z</time>
      </trkpt>
      <trkpt lat="47.06666" lon="-1.97206">
        <ele>69</ele>
        <time>2021-05-08T13:07:18.000Z</time>
      </trkpt>
      <trkpt lat="47.06678" lon="-1.97197">
        <ele>68</ele>
        <time>2021-05-08T13:07:20.000Z</time>
      </trkpt>
      <trkpt lat="47.06692" lon="-1.97188">
        <ele>69</ele>
        <time>2021-05-08T13:07:22.000Z</time>
      </trkpt>
      <trkpt lat="47.06705" lon="-1.9718">
        <ele>69</ele>
        <time>2021-05-08T13:07:24.000Z</time>
      </trkpt>
      <trkpt lat="47.06719" lon="-1.97175">
        <ele>69</ele>
        <time>2021-05-08T13:07:26.000Z</time>
      </trkpt>
      <trkpt lat="47.06733" lon="-1.9717">
        <ele>69</ele>
        <time>2021-05-08T13:07:28.000Z</time>
      </trkpt>
      <trkpt lat="47.06748" lon="-1.97167">
        <ele>69</ele>
        <time>2021-05-08T13:07:30.000Z</time>
      </trkpt>
      <trkpt lat="47.06763" lon="-1.97164">
        <ele>69</ele>
        <time>2021-05-08T13:07:32.000Z</time>
      </trkpt>
      <trkpt lat="47.06778" lon="-1.9716">
        <ele>68</ele>
        <time>2021-05-08T13:07:34.000Z</time>
      </trkpt>
      <trkpt lat="47.06793" lon="-1.97156">
        <ele>67</ele>
        <time>2021-05-08T13:07:36.000Z</time>
      </trkpt>
      <trkpt lat="47.06806" lon="-1.97147">
        <ele>67</ele>
        <time>2021-05-08T13:07:38.000Z</time>
      </trkpt>
      <trkpt lat="47.06816" lon="-1.97132">
        <ele>67</ele>
        <time>2021-05-08T13:07:40.000Z</time>
      </trkpt>
      <trkpt lat="47.06824" lon="-1.97115">
        <ele>66</ele>
        <time>2021-05-08T13:07:42.000Z</time>
      </trkpt>
      <trkpt lat="47.0683" lon="-1.97096">
        <ele>66</ele>
        <time>2021-05-08T13:07:44.000Z</time>
      </trkpt>
      <trkpt lat="47.06835" lon="-1.97077">
        <ele>65</ele>
        <time>2021-05-08T13:07:46.000Z</time>
      </trkpt>
      <trkpt lat="47.06841" lon="-1.97058">
        <ele>66</ele>
        <time>2021-05-08T13:07:48.000Z</time>
      </trkpt>
      <trkpt lat="47.06846" lon="-1.97039">
        <ele>66</ele>
        <time>2021-05-08T13:07:50.000Z</time>
      </trkpt>
      <trkpt lat="47.06853" lon="-1.97022">
        <ele>67</ele>
        <time>2021-05-08T13:07:52.000Z</time>
      </trkpt>
      <trkpt lat="47.06859" lon="-1.97005">
        <ele>67</ele>
        <time>2021-05-08T13:07:54.000Z</time>
      </trkpt>
      <trkpt lat="47.06865" lon="-1.96988">
        <ele>67</ele>
        <time>2021-05-08T13:07:56.000Z</time>
      </trkpt>
      <trkpt lat="47.06871" lon="-1.96971">
        <ele>67</ele>
        <time>2021-05-08T13:07:58.000Z</time>
      </trkpt>
      <trkpt lat="47.06876" lon="-1.96953">
        <ele>68</ele>
        <time>2021-05-08T13:08:00.000Z</time>
      </trkpt>
      <trkpt lat="47.0688" lon="-1.96934">
        <ele>67</ele>
        <time>2021-05-08T13:08:02.000Z</time>
      </trkpt>
      <trkpt lat="47.06884" lon="-1.96914">
        <ele>67</ele>
        <time>2021-05-08T13:08:04.000Z</time>
      </trkpt>
      <trkpt lat="47.06888" lon="-1.96895">
        <ele>67</ele>
        <time>2021-05-08T13:08:06.000Z</time>
      </trkpt>
      <trkpt lat="47.06894" lon="-1.96878">
        <ele>67</ele>
        <time>2021-05-08T13:08:08.000Z</time>
      </trkpt>
      <trkpt lat="47.06902" lon="-1.96861">
        <ele>67</ele>
        <time>2021-05-08T13:08:10.000Z</time>
      </trkpt>
      <trkpt lat="47.06909" lon="-1.96846">
        <ele>67</ele>
        <time>2021-05-08T13:08:12.000Z</time>
      </trkpt>
      <trkpt lat="47.06918" lon="-1.96831">
        <ele>67</ele>
        <time>2021-05-08T13:08:14.000Z</time>
      </trkpt>
      <trkpt lat="47.06926" lon="-1.96816">
        <ele>68</ele>
        <time>2021-05-08T13:08:16.000Z</time>
      </trkpt>
      <trkpt lat="47.06934" lon="-1.96801">
        <ele>68</ele>
        <time>2021-05-08T13:08:18.000Z</time>
      </trkpt>
      <trkpt lat="47.06942" lon="-1.96785">
        <ele>69</ele>
        <time>2021-05-08T13:08:20.000Z</time>
      </trkpt>
      <trkpt lat="47.06949" lon="-1.9677">
        <ele>69</ele>
        <time>2021-05-08T13:08:22.000Z</time>
      </trkpt>
      <trkpt lat="47.06955" lon="-1.96753">
        <ele>70</ele>
        <time>2021-05-08T13:08:24.000Z</time>
      </trkpt>
      <trkpt lat="47.06961" lon="-1.96736">
        <ele>70</ele>
        <time>2021-05-08T13:08:26.000Z</time>
      </trkpt>
      <trkpt lat="47.06966" lon="-1.96718">
        <ele>70</ele>
        <time>2021-05-08T13:08:28.000Z</time>
      </trkpt>
      <trkpt lat="47.06971" lon="-1.967">
        <ele>70</ele>
        <time>2021-05-08T13:08:30.000Z</time>
      </trkpt>
      <trkpt lat="47.06976" lon="-1.96683">
        <ele>70</ele>
        <time>2021-05-08T13:08:32.000Z</time>
      </trkpt>
      <trkpt lat="47.06981" lon="-1.96667">
        <ele>71</ele>
        <time>2021-05-08T13:08:34.000Z</time>
      </trkpt>
      <trkpt lat="47.06987" lon="-1.9665">
        <ele>72</ele>
        <time>2021-05-08T13:08:36.000Z</time>
      </trkpt>
      <trkpt lat="47.06994" lon="-1.96635">
        <ele>73</ele>
        <time>2021-05-08T13:08:38.000Z</time>
      </trkpt>
      <trkpt lat="47.07002" lon="-1.9662">
        <ele>73</ele>
        <time>2021-05-08T13:08:40.000Z</time>
      </trkpt>
      <trkpt lat="47.07011" lon="-1.96608">
        <ele>72</ele>
        <time>2021-05-08T13:08:42.000Z</time>
      </trkpt>
      <trkpt lat="47.0702" lon="-1.96595">
        <ele>72</ele>
        <time>2021-05-08T13:08:44.000Z</time>
      </trkpt>
      <trkpt lat="47.07022" lon="-1.96578">
        <ele>72</ele>
        <time>2021-05-08T13:08:46.000Z</time>
      </trkpt>
      <trkpt lat="47.07019" lon="-1.96562">
        <ele>71</ele>
        <time>2021-05-08T13:08:48.000Z</time>
      </trkpt>
      <trkpt lat="47.07015" lon="-1.96544">
        <ele>71</ele>
        <time>2021-05-08T13:08:50.000Z</time>
      </trkpt>
      <trkpt lat="47.07009" lon="-1.96528">
        <ele>72</ele>
        <time>2021-05-08T13:08:52.000Z</time>
      </trkpt>
      <trkpt lat="47.07002" lon="-1.96513">
        <ele>71</ele>
        <time>2021-05-08T13:08:54.000Z</time>
      </trkpt>
      <trkpt lat="47.06995" lon="-1.96497">
        <ele>71</ele>
        <time>2021-05-08T13:08:56.000Z</time>
      </trkpt>
      <trkpt lat="47.06988" lon="-1.96481">
        <ele>71</ele>
        <time>2021-05-08T13:08:58.000Z</time>
      </trkpt>
      <trkpt lat="47.06982" lon="-1.96466">
        <ele>72</ele>
        <time>2021-05-08T13:09:00.000Z</time>
      </trkpt>
      <trkpt lat="47.06976" lon="-1.96451">
        <ele>72</ele>
        <time>2021-05-08T13:09:02.000Z</time>
      </trkpt>
      <trkpt lat="47.06969" lon="-1.96436">
        <ele>71</ele>
        <time>2021-05-08T13:09:04.000Z</time>
      </trkpt>
      <trkpt lat="47.06963" lon="-1.96422">
        <ele>71</ele>
        <time>2021-05-08T13:09:06.000Z</time>
      </trkpt>
      <trkpt lat="47.06958" lon="-1.96407">
        <ele>71</ele>
        <time>2021-05-08T13:09:08.000Z</time>
      </trkpt>
      <trkpt lat="47.06953" lon="-1.96391">
        <ele>71</ele>
        <time>2021-05-08T13:09:10.000Z</time>
      </trkpt>
      <trkpt lat="47.06949" lon="-1.96373">
        <ele>70</ele>
        <time>2021-05-08T13:09:12.000Z</time>
      </trkpt>
      <trkpt lat="47.0695" lon="-1.96354">
        <ele>70</ele>
        <time>2021-05-08T13:09:14.000Z</time>
      </trkpt>
      <trkpt lat="47.06956" lon="-1.96336">
        <ele>70</ele>
        <time>2021-05-08T13:09:16.000Z</time>
      </trkpt>
      <trkpt lat="47.06963" lon="-1.9632">
        <ele>70</ele>
        <time>2021-05-08T13:09:18.000Z</time>
      </trkpt>
      <trkpt lat="47.06971" lon="-1.96304">
        <ele>70</ele>
        <time>2021-05-08T13:09:20.000Z</time>
      </trkpt>
      <trkpt lat="47.06978" lon="-1.96288">
        <ele>71</ele>
        <time>2021-05-08T13:09:22.000Z</time>
      </trkpt>
      <trkpt lat="47.06986" lon="-1.96273">
        <ele>71</ele>
        <time>2021-05-08T13:09:24.000Z</time>
      </trkpt>
      <trkpt lat="47.06993" lon="-1.96257">
        <ele>71</ele>
        <time>2021-05-08T13:09:26.000Z</time>
      </trkpt>
      <trkpt lat="47.07" lon="-1.96241">
        <ele>72</ele>
        <time>2021-05-08T13:09:28.000Z</time>
      </trkpt>
      <trkpt lat="47.07008" lon="-1.96224">
        <ele>72</ele>
        <time>2021-05-08T13:09:30.000Z</time>
      </trkpt>
      <trkpt lat="47.07015" lon="-1.96209">
        <ele>72</ele>
        <time>2021-05-08T13:09:32.000Z</time>
      </trkpt>
      <trkpt lat="47.07023" lon="-1.96193">
        <ele>72</ele>
        <time>2021-05-08T13:09:34.000Z</time>
      </trkpt>
      <trkpt lat="47.0703" lon="-1.96177">
        <ele>72</ele>
        <time>2021-05-08T13:09:36.000Z</time>
      </trkpt>
      <trkpt lat="47.07038" lon="-1.96162">
        <ele>72</ele>
        <time>2021-05-08T13:09:38.000Z</time>
      </trkpt>
      <trkpt lat="47.07044" lon="-1.96146">
        <ele>71</ele>
        <time>2021-05-08T13:09:40.000Z</time>
      </trkpt>
      <trkpt lat="47.0705" lon="-1.96129">
        <ele>71</ele>
        <time>2021-05-08T13:09:42.000Z</time>
      </trkpt>
      <trkpt lat="47.07055" lon="-1.96111">
        <ele>71</ele>
        <time>2021-05-08T13:09:44.000Z</time>
      </trkpt>
      <trkpt lat="47.0706" lon="-1.96094">
        <ele>71</ele>
        <time>2021-05-08T13:09:46.000Z</time>
      </trkpt>
      <trkpt lat="47.07066" lon="-1.96077">
        <ele>71</ele>
        <time>2021-05-08T13:09:48.000Z</time>
      </trkpt>
      <trkpt lat="47.07072" lon="-1.96061">
        <ele>71</ele>
        <time>2021-05-08T13:09:50.000Z</time>
      </trkpt>
      <trkpt lat="47.0708" lon="-1.96045">
        <ele>71</ele>
        <time>2021-05-08T13:09:52.000Z</time>
      </trkpt>
      <trkpt lat="47.07087" lon="-1.96029">
        <ele>71</ele>
        <time>2021-05-08T13:09:54.000Z</time>
      </trkpt>
      <trkpt lat="47.07095" lon="-1.96014">
        <ele>71</ele>
        <time>2021-05-08T13:09:56.000Z</time>
      </trkpt>
      <trkpt lat="47.07102" lon="-1.95998">
        <ele>71</ele>
        <time>2021-05-08T13:09:58.000Z</time>
      </trkpt>
      <trkpt lat="47.07108" lon="-1.95982">
        <ele>72</ele>
        <time>2021-05-08T13:10:00.000Z</time>
      </trkpt>
      <trkpt lat="47.07114" lon="-1.95965">
        <ele>72</ele>
        <time>2021-05-08T13:10:02.000Z</time>
      </trkpt>
      <trkpt lat="47.0712" lon="-1.95948">
        <ele>71</ele>
        <time>2021-05-08T13:10:04.000Z</time>
      </trkpt>
      <trkpt lat="47.07125" lon="-1.9593">
        <ele>71</ele>
        <time>2021-05-08T13:10:06.000Z</time>
      </trkpt>
      <trkpt lat="47.07129" lon="-1.95912">
        <ele>72</ele>
        <time>2021-05-08T13:10:08.000Z</time>
      </trkpt>
      <trkpt lat="47.07134" lon="-1.95893">
        <ele>72</ele>
        <time>2021-05-08T13:10:10.000Z</time>
      </trkpt>
      <trkpt lat="47.07138" lon="-1.95876">
        <ele>72</ele>
        <time>2021-05-08T13:10:12.000Z</time>
      </trkpt>
      <trkpt lat="47.07142" lon="-1.95858">
        <ele>72</ele>
        <time>2021-05-08T13:10:14.000Z</time>
      </trkpt>
      <trkpt lat="47.07146" lon="-1.9584">
        <ele>72</ele>
        <time>2021-05-08T13:10:16.000Z</time>
      </trkpt>
      <trkpt lat="47.0715" lon="-1.95822">
        <ele>72</ele>
        <time>2021-05-08T13:10:18.000Z</time>
      </trkpt>
      <trkpt lat="47.07153" lon="-1.95803">
        <ele>72</ele>
        <time>2021-05-08T13:10:20.000Z</time>
      </trkpt>
      <trkpt lat="47.07157" lon="-1.95785">
        <ele>72</ele>
        <time>2021-05-08T13:10:22.000Z</time>
      </trkpt>
      <trkpt lat="47.0716" lon="-1.95767">
        <ele>72</ele>
        <time>2021-05-08T13:10:24.000Z</time>
      </trkpt>
      <trkpt lat="47.07163" lon="-1.9575">
        <ele>72</ele>
        <time>2021-05-08T13:10:26.000Z</time>
      </trkpt>
      <trkpt lat="47.07167" lon="-1.95732">
        <ele>72</ele>
        <time>2021-05-08T13:10:28.000Z</time>
      </trkpt>
      <trkpt lat="47.07172" lon="-1.95715">
        <ele>71</ele>
        <time>2021-05-08T13:10:30.000Z</time>
      </trkpt>
      <trkpt lat="47.07176" lon="-1.95697">
        <ele>71</ele>
        <time>2021-05-08T13:10:32.000Z</time>
      </trkpt>
      <trkpt lat="47.07181" lon="-1.95679">
        <ele>72</ele>
        <time>2021-05-08T13:10:34.000Z</time>
      </trkpt>
      <trkpt lat="47.07186" lon="-1.95661">
        <ele>71</ele>
        <time>2021-05-08T13:10:36.000Z</time>
      </trkpt>
      <trkpt lat="47.07192" lon="-1.95642">
        <ele>71</ele>
        <time>2021-05-08T13:10:38.000Z</time>
      </trkpt>
      <trkpt lat="47.07197" lon="-1.95624">
        <ele>70</ele>
        <time>2021-05-08T13:10:40.000Z</time>
      </trkpt>
      <trkpt lat="47.07202" lon="-1.95605">
        <ele>70</ele>
        <time>2021-05-08T13:10:42.000Z</time>
      </trkpt>
      <trkpt lat="47.07208" lon="-1.95587">
        <ele>70</ele>
        <time>2021-05-08T13:10:44.000Z</time>
      </trkpt>
      <trkpt lat="47.07213" lon="-1.9557">
        <ele>70</ele>
        <time>2021-05-08T13:10:46.000Z</time>
      </trkpt>
      <trkpt lat="47.07218" lon="-1.95552">
        <ele>70</ele>
        <time>2021-05-08T13:10:48.000Z</time>
      </trkpt>
      <trkpt lat="47.07222" lon="-1.95532">
        <ele>71</ele>
        <time>2021-05-08T13:10:50.000Z</time>
      </trkpt>
      <trkpt lat="47.07227" lon="-1.95514">
        <ele>71</ele>
        <time>2021-05-08T13:10:52.000Z</time>
      </trkpt>
      <trkpt lat="47.07232" lon="-1.95496">
        <ele>71</ele>
        <time>2021-05-08T13:10:54.000Z</time>
      </trkpt>
      <trkpt lat="47.07235" lon="-1.95477">
        <ele>71</ele>
        <time>2021-05-08T13:10:56.000Z</time>
      </trkpt>
      <trkpt lat="47.07239" lon="-1.95459">
        <ele>70</ele>
        <time>2021-05-08T13:10:58.000Z</time>
      </trkpt>
      <trkpt lat="47.07243" lon="-1.9544">
        <ele>70</ele>
        <time>2021-05-08T13:11:00.000Z</time>
      </trkpt>
      <trkpt lat="47.07247" lon="-1.95423">
        <ele>70</ele>
        <time>2021-05-08T13:11:02.000Z</time>
      </trkpt>
      <trkpt lat="47.07251" lon="-1.95404">
        <ele>70</ele>
        <time>2021-05-08T13:11:04.000Z</time>
      </trkpt>
      <trkpt lat="47.07257" lon="-1.95387">
        <ele>70</ele>
        <time>2021-05-08T13:11:06.000Z</time>
      </trkpt>
      <trkpt lat="47.07263" lon="-1.95369">
        <ele>70</ele>
        <time>2021-05-08T13:11:08.000Z</time>
      </trkpt>
      <trkpt lat="47.07268" lon="-1.95351">
        <ele>70</ele>
        <time>2021-05-08T13:11:10.000Z</time>
      </trkpt>
      <trkpt lat="47.07275" lon="-1.95334">
        <ele>69</ele>
        <time>2021-05-08T13:11:12.000Z</time>
      </trkpt>
      <trkpt lat="47.07281" lon="-1.95317">
        <ele>69</ele>
        <time>2021-05-08T13:11:14.000Z</time>
      </trkpt>
      <trkpt lat="47.07288" lon="-1.953">
        <ele>70</ele>
        <time>2021-05-08T13:11:16.000Z</time>
      </trkpt>
      <trkpt lat="47.07294" lon="-1.95282">
        <ele>70</ele>
        <time>2021-05-08T13:11:18.000Z</time>
      </trkpt>
      <trkpt lat="47.073" lon="-1.95265">
        <ele>69</ele>
        <time>2021-05-08T13:11:20.000Z</time>
      </trkpt>
      <trkpt lat="47.07307" lon="-1.95248">
        <ele>69</ele>
        <time>2021-05-08T13:11:22.000Z</time>
      </trkpt>
      <trkpt lat="47.07313" lon="-1.9523">
        <ele>69</ele>
        <time>2021-05-08T13:11:24.000Z</time>
      </trkpt>
      <trkpt lat="47.07319" lon="-1.95214">
        <ele>69</ele>
        <time>2021-05-08T13:11:26.000Z</time>
      </trkpt>
      <trkpt lat="47.07325" lon="-1.95197">
        <ele>69</ele>
        <time>2021-05-08T13:11:28.000Z</time>
      </trkpt>
      <trkpt lat="47.07331" lon="-1.9518">
        <ele>70</ele>
        <time>2021-05-08T13:11:30.000Z</time>
      </trkpt>
      <trkpt lat="47.07337" lon="-1.95164">
        <ele>70</ele>
        <time>2021-05-08T13:11:32.000Z</time>
      </trkpt>
      <trkpt lat="47.07343" lon="-1.95147">
        <ele>70</ele>
        <time>2021-05-08T13:11:34.000Z</time>
      </trkpt>
      <trkpt lat="47.07349" lon="-1.95129">
        <ele>70</ele>
        <time>2021-05-08T13:11:36.000Z</time>
      </trkpt>
      <trkpt lat="47.07354" lon="-1.95112">
        <ele>70</ele>
        <time>2021-05-08T13:11:38.000Z</time>
      </trkpt>
      <trkpt lat="47.07359" lon="-1.95095">
        <ele>69</ele>
        <time>2021-05-08T13:11:40.000Z</time>
      </trkpt>
      <trkpt lat="47.07363" lon="-1.95077">
        <ele>69</ele>
        <time>2021-05-08T13:11:42.000Z</time>
      </trkpt>
      <trkpt lat="47.07368" lon="-1.9506">
        <ele>69</ele>
        <time>2021-05-08T13:11:44.000Z</time>
      </trkpt>
      <trkpt lat="47.07372" lon="-1.95042">
        <ele>69</ele>
        <time>2021-05-08T13:11:46.000Z</time>
      </trkpt>
      <trkpt lat="47.07376" lon="-1.95025">
        <ele>69</ele>
        <time>2021-05-08T13:11:48.000Z</time>
      </trkpt>
      <trkpt lat="47.07381" lon="-1.95007">
        <ele>69</ele>
        <time>2021-05-08T13:11:50.000Z</time>
      </trkpt>
      <trkpt lat="47.07386" lon="-1.94989">
        <ele>69</ele>
        <time>2021-05-08T13:11:52.000Z</time>
      </trkpt>
      <trkpt lat="47.0739" lon="-1.94971">
        <ele>69</ele>
        <time>2021-05-08T13:11:54.000Z</time>
      </trkpt>
      <trkpt lat="47.07395" lon="-1.94954">
        <ele>69</ele>
        <time>2021-05-08T13:11:56.000Z</time>
      </trkpt>
      <trkpt lat="47.07399" lon="-1.94935">
        <ele>69</ele>
        <time>2021-05-08T13:11:58.000Z</time>
      </trkpt>
      <trkpt lat="47.07403" lon="-1.94918">
        <ele>69</ele>
        <time>2021-05-08T13:12:00.000Z</time>
      </trkpt>
      <trkpt lat="47.07408" lon="-1.94899">
        <ele>68</ele>
        <time>2021-05-08T13:12:02.000Z</time>
      </trkpt>
      <trkpt lat="47.07413" lon="-1.94882">
        <ele>69</ele>
        <time>2021-05-08T13:12:04.000Z</time>
      </trkpt>
      <trkpt lat="47.07419" lon="-1.94864">
        <ele>68</ele>
        <time>2021-05-08T13:12:06.000Z</time>
      </trkpt>
      <trkpt lat="47.07425" lon="-1.94847">
        <ele>69</ele>
        <time>2021-05-08T13:12:08.000Z</time>
      </trkpt>
      <trkpt lat="47.07432" lon="-1.9483">
        <ele>69</ele>
        <time>2021-05-08T13:12:10.000Z</time>
      </trkpt>
      <trkpt lat="47.07438" lon="-1.94812">
        <ele>69</ele>
        <time>2021-05-08T13:12:12.000Z</time>
      </trkpt>
      <trkpt lat="47.07444" lon="-1.94795">
        <ele>69</ele>
        <time>2021-05-08T13:12:14.000Z</time>
      </trkpt>
      <trkpt lat="47.0745" lon="-1.94778">
        <ele>69</ele>
        <time>2021-05-08T13:12:16.000Z</time>
      </trkpt>
      <trkpt lat="47.07455" lon="-1.9476">
        <ele>69</ele>
        <time>2021-05-08T13:12:18.000Z</time>
      </trkpt>
      <trkpt lat="47.07458" lon="-1.94742">
        <ele>68</ele>
        <time>2021-05-08T13:12:20.000Z</time>
      </trkpt>
      <trkpt lat="47.0746" lon="-1.94723">
        <ele>68</ele>
        <time>2021-05-08T13:12:22.000Z</time>
      </trkpt>
      <trkpt lat="47.0746" lon="-1.94704">
        <ele>69</ele>
        <time>2021-05-08T13:12:24.000Z</time>
      </trkpt>
      <trkpt lat="47.07461" lon="-1.94686">
        <ele>69</ele>
        <time>2021-05-08T13:12:26.000Z</time>
      </trkpt>
      <trkpt lat="47.07461" lon="-1.94667">
        <ele>69</ele>
        <time>2021-05-08T13:12:28.000Z</time>
      </trkpt>
      <trkpt lat="47.07462" lon="-1.94648">
        <ele>68</ele>
        <time>2021-05-08T13:12:30.000Z</time>
      </trkpt>
      <trkpt lat="47.07463" lon="-1.94629">
        <ele>68</ele>
        <time>2021-05-08T13:12:32.000Z</time>
      </trkpt>
      <trkpt lat="47.07463" lon="-1.9461">
        <ele>68</ele>
        <time>2021-05-08T13:12:34.000Z</time>
      </trkpt>
      <trkpt lat="47.07464" lon="-1.94591">
        <ele>68</ele>
        <time>2021-05-08T13:12:36.000Z</time>
      </trkpt>
      <trkpt lat="47.07465" lon="-1.94573">
        <ele>68</ele>
        <time>2021-05-08T13:12:38.000Z</time>
      </trkpt>
      <trkpt lat="47.07465" lon="-1.94555">
        <ele>68</ele>
        <time>2021-05-08T13:12:40.000Z</time>
      </trkpt>
      <trkpt lat="47.07467" lon="-1.94536">
        <ele>68</ele>
        <time>2021-05-08T13:12:42.000Z</time>
      </trkpt>
      <trkpt lat="47.07469" lon="-1.94518">
        <ele>68</ele>
        <time>2021-05-08T13:12:44.000Z</time>
      </trkpt>
      <trkpt lat="47.07473" lon="-1.945">
        <ele>69</ele>
        <time>2021-05-08T13:12:46.000Z</time>
      </trkpt>
      <trkpt lat="47.07477" lon="-1.94483">
        <ele>69</ele>
        <time>2021-05-08T13:12:48.000Z</time>
      </trkpt>
      <trkpt lat="47.07482" lon="-1.94465">
        <ele>69</ele>
        <time>2021-05-08T13:12:50.000Z</time>
      </trkpt>
      <trkpt lat="47.07486" lon="-1.94448">
        <ele>69</ele>
        <time>2021-05-08T13:12:52.000Z</time>
      </trkpt>
      <trkpt lat="47.07491" lon="-1.9443">
        <ele>69</ele>
        <time>2021-05-08T13:12:54.000Z</time>
      </trkpt>
      <trkpt lat="47.07496" lon="-1.94413">
        <ele>69</ele>
        <time>2021-05-08T13:12:56.000Z</time>
      </trkpt>
      <trkpt lat="47.075" lon="-1.94396">
        <ele>69</ele>
        <time>2021-05-08T13:12:58.000Z</time>
      </trkpt>
      <trkpt lat="47.07504" lon="-1.94377">
        <ele>69</ele>
        <time>2021-05-08T13:13:00.000Z</time>
      </trkpt>
      <trkpt lat="47.07508" lon="-1.94359">
        <ele>69</ele>
        <time>2021-05-08T13:13:02.000Z</time>
      </trkpt>
      <trkpt lat="47.07512" lon="-1.9434">
        <ele>69</ele>
        <time>2021-05-08T13:13:04.000Z</time>
      </trkpt>
      <trkpt lat="47.07516" lon="-1.94322">
        <ele>68</ele>
        <time>2021-05-08T13:13:06.000Z</time>
      </trkpt>
      <trkpt lat="47.07519" lon="-1.94304">
        <ele>69</ele>
        <time>2021-05-08T13:13:08.000Z</time>
      </trkpt>
      <trkpt lat="47.07523" lon="-1.94286">
        <ele>69</ele>
        <time>2021-05-08T13:13:10.000Z</time>
      </trkpt>
      <trkpt lat="47.07526" lon="-1.94268">
        <ele>69</ele>
        <time>2021-05-08T13:13:12.000Z</time>
      </trkpt>
      <trkpt lat="47.0753" lon="-1.9425">
        <ele>68</ele>
        <time>2021-05-08T13:13:14.000Z</time>
      </trkpt>
      <trkpt lat="47.07533" lon="-1.94232">
        <ele>68</ele>
        <time>2021-05-08T13:13:16.000Z</time>
      </trkpt>
      <trkpt lat="47.07536" lon="-1.94214">
        <ele>68</ele>
        <time>2021-05-08T13:13:18.000Z</time>
      </trkpt>
      <trkpt lat="47.07538" lon="-1.94196">
        <ele>68</ele>
        <time>2021-05-08T13:13:20.000Z</time>
      </trkpt>
      <trkpt lat="47.0754" lon="-1.94177">
        <ele>68</ele>
        <time>2021-05-08T13:13:22.000Z</time>
      </trkpt>
      <trkpt lat="47.07539" lon="-1.94158">
        <ele>68</ele>
        <time>2021-05-08T13:13:24.000Z</time>
      </trkpt>
      <trkpt lat="47.07537" lon="-1.94139">
        <ele>68</ele>
        <time>2021-05-08T13:13:26.000Z</time>
      </trkpt>
      <trkpt lat="47.07535" lon="-1.94121">
        <ele>68</ele>
        <time>2021-05-08T13:13:28.000Z</time>
      </trkpt>
      <trkpt lat="47.07533" lon="-1.94102">
        <ele>68</ele>
        <time>2021-05-08T13:13:30.000Z</time>
      </trkpt>
      <trkpt lat="47.07532" lon="-1.94083">
        <ele>68</ele>
        <time>2021-05-08T13:13:32.000Z</time>
      </trkpt>
      <trkpt lat="47.07531" lon="-1.94065">
        <ele>68</ele>
        <time>2021-05-08T13:13:34.000Z</time>
      </trkpt>
      <trkpt lat="47.07529" lon="-1.94047">
        <ele>69</ele>
        <time>2021-05-08T13:13:36.000Z</time>
      </trkpt>
      <trkpt lat="47.07527" lon="-1.94028">
        <ele>69</ele>
        <time>2021-05-08T13:13:38.000Z</time>
      </trkpt>
      <trkpt lat="47.07526" lon="-1.94009">
        <ele>69</ele>
        <time>2021-05-08T13:13:40.000Z</time>
      </trkpt>
      <trkpt lat="47.07524" lon="-1.93991">
        <ele>69</ele>
        <time>2021-05-08T13:13:42.000Z</time>
      </trkpt>
      <trkpt lat="47.07522" lon="-1.93972">
        <ele>69</ele>
        <time>2021-05-08T13:13:44.000Z</time>
      </trkpt>
      <trkpt lat="47.0752" lon="-1.93953">
        <ele>69</ele>
        <time>2021-05-08T13:13:46.000Z</time>
      </trkpt>
      <trkpt lat="47.07517" lon="-1.93935">
        <ele>69</ele>
        <time>2021-05-08T13:13:48.000Z</time>
      </trkpt>
      <trkpt lat="47.07515" lon="-1.93916">
        <ele>69</ele>
        <time>2021-05-08T13:13:50.000Z</time>
      </trkpt>
      <trkpt lat="47.07512" lon="-1.93898">
        <ele>69</ele>
        <time>2021-05-08T13:13:52.000Z</time>
      </trkpt>
      <trkpt lat="47.0751" lon="-1.9388">
        <ele>69</ele>
        <time>2021-05-08T13:13:54.000Z</time>
      </trkpt>
      <trkpt lat="47.07507" lon="-1.93862">
        <ele>69</ele>
        <time>2021-05-08T13:13:56.000Z</time>
      </trkpt>
      <trkpt lat="47.07505" lon="-1.93843">
        <ele>69</ele>
        <time>2021-05-08T13:13:58.000Z</time>
      </trkpt>
      <trkpt lat="47.07502" lon="-1.93825">
        <ele>69</ele>
        <time>2021-05-08T13:14:00.000Z</time>
      </trkpt>
      <trkpt lat="47.075" lon="-1.93806">
        <ele>69</ele>
        <time>2021-05-08T13:14:02.000Z</time>
      </trkpt>
      <trkpt lat="47.07498" lon="-1.93788">
        <ele>69</ele>
        <time>2021-05-08T13:14:04.000Z</time>
      </trkpt>
      <trkpt lat="47.07495" lon="-1.9377">
        <ele>70</ele>
        <time>2021-05-08T13:14:06.000Z</time>
      </trkpt>
      <trkpt lat="47.07493" lon="-1.93752">
        <ele>70</ele>
        <time>2021-05-08T13:14:08.000Z</time>
      </trkpt>
      <trkpt lat="47.07491" lon="-1.93734">
        <ele>70</ele>
        <time>2021-05-08T13:14:10.000Z</time>
      </trkpt>
      <trkpt lat="47.07488" lon="-1.93715">
        <ele>70</ele>
        <time>2021-05-08T13:14:12.000Z</time>
      </trkpt>
      <trkpt lat="47.07486" lon="-1.93697">
        <ele>70</ele>
        <time>2021-05-08T13:14:14.000Z</time>
      </trkpt>
      <trkpt lat="47.07483" lon="-1.9368">
        <ele>70</ele>
        <time>2021-05-08T13:14:16.000Z</time>
      </trkpt>
      <trkpt lat="47.07481" lon="-1.93663">
        <ele>71</ele>
        <time>2021-05-08T13:14:18.000Z</time>
      </trkpt>
      <trkpt lat="47.07478" lon="-1.93646">
        <ele>71</ele>
        <time>2021-05-08T13:14:20.000Z</time>
      </trkpt>
      <trkpt lat="47.07476" lon="-1.9363">
        <ele>71</ele>
        <time>2021-05-08T13:14:22.000Z</time>
      </trkpt>
      <trkpt lat="47.07474" lon="-1.93616">
        <ele>71</ele>
        <time>2021-05-08T13:14:24.000Z</time>
      </trkpt>
      <trkpt lat="47.07472" lon="-1.93598">
        <ele>71</ele>
        <time>2021-05-08T13:14:27.000Z</time>
      </trkpt>
      <trkpt lat="47.0747" lon="-1.93584">
        <ele>72</ele>
        <time>2021-05-08T13:14:31.000Z</time>
      </trkpt>
      <trkpt lat="47.07468" lon="-1.93565">
        <ele>72</ele>
        <time>2021-05-08T13:14:34.000Z</time>
      </trkpt>
      <trkpt lat="47.07465" lon="-1.93549">
        <ele>72</ele>
        <time>2021-05-08T13:14:36.000Z</time>
      </trkpt>
      <trkpt lat="47.07462" lon="-1.93533">
        <ele>72</ele>
        <time>2021-05-08T13:14:38.000Z</time>
      </trkpt>
      <trkpt lat="47.0746" lon="-1.93517">
        <ele>72</ele>
        <time>2021-05-08T13:14:40.000Z</time>
      </trkpt>
      <trkpt lat="47.07457" lon="-1.935">
        <ele>72</ele>
        <time>2021-05-08T13:14:42.000Z</time>
      </trkpt>
      <trkpt lat="47.07455" lon="-1.93484">
        <ele>72</ele>
        <time>2021-05-08T13:14:44.000Z</time>
      </trkpt>
      <trkpt lat="47.07453" lon="-1.93467">
        <ele>72</ele>
        <time>2021-05-08T13:14:46.000Z</time>
      </trkpt>
      <trkpt lat="47.07451" lon="-1.9345">
        <ele>72</ele>
        <time>2021-05-08T13:14:48.000Z</time>
      </trkpt>
      <trkpt lat="47.0745" lon="-1.93432">
        <ele>72</ele>
        <time>2021-05-08T13:14:50.000Z</time>
      </trkpt>
      <trkpt lat="47.07448" lon="-1.93415">
        <ele>72</ele>
        <time>2021-05-08T13:14:52.000Z</time>
      </trkpt>
      <trkpt lat="47.07446" lon="-1.93398">
        <ele>72</ele>
        <time>2021-05-08T13:14:54.000Z</time>
      </trkpt>
      <trkpt lat="47.07444" lon="-1.93382">
        <ele>72</ele>
        <time>2021-05-08T13:14:56.000Z</time>
      </trkpt>
      <trkpt lat="47.07443" lon="-1.93365">
        <ele>72</ele>
        <time>2021-05-08T13:14:58.000Z</time>
      </trkpt>
      <trkpt lat="47.07441" lon="-1.93349">
        <ele>73</ele>
        <time>2021-05-08T13:15:00.000Z</time>
      </trkpt>
      <trkpt lat="47.07439" lon="-1.93332">
        <ele>73</ele>
        <time>2021-05-08T13:15:02.000Z</time>
      </trkpt>
      <trkpt lat="47.07436" lon="-1.93316">
        <ele>73</ele>
        <time>2021-05-08T13:15:04.000Z</time>
      </trkpt>
      <trkpt lat="47.07433" lon="-1.93299">
        <ele>73</ele>
        <time>2021-05-08T13:15:06.000Z</time>
      </trkpt>
      <trkpt lat="47.0743" lon="-1.93282">
        <ele>72</ele>
        <time>2021-05-08T13:15:08.000Z</time>
      </trkpt>
      <trkpt lat="47.07426" lon="-1.93266">
        <ele>73</ele>
        <time>2021-05-08T13:15:10.000Z</time>
      </trkpt>
      <trkpt lat="47.07423" lon="-1.9325">
        <ele>73</ele>
        <time>2021-05-08T13:15:12.000Z</time>
      </trkpt>
      <trkpt lat="47.07419" lon="-1.93234">
        <ele>72</ele>
        <time>2021-05-08T13:15:14.000Z</time>
      </trkpt>
      <trkpt lat="47.07415" lon="-1.93218">
        <ele>72</ele>
        <time>2021-05-08T13:15:16.000Z</time>
      </trkpt>
      <trkpt lat="47.07411" lon="-1.93203">
        <ele>72</ele>
        <time>2021-05-08T13:15:18.000Z</time>
      </trkpt>
      <trkpt lat="47.0741" lon="-1.93187">
        <ele>73</ele>
        <time>2021-05-08T13:15:20.000Z</time>
      </trkpt>
      <trkpt lat="47.07409" lon="-1.93171">
        <ele>73</ele>
        <time>2021-05-08T13:15:22.000Z</time>
      </trkpt>
      <trkpt lat="47.07411" lon="-1.93155">
        <ele>73</ele>
        <time>2021-05-08T13:15:24.000Z</time>
      </trkpt>
      <trkpt lat="47.07414" lon="-1.93138">
        <ele>73</ele>
        <time>2021-05-08T13:15:26.000Z</time>
      </trkpt>
      <trkpt lat="47.07417" lon="-1.93122">
        <ele>73</ele>
        <time>2021-05-08T13:15:28.000Z</time>
      </trkpt>
      <trkpt lat="47.0742" lon="-1.93106">
        <ele>73</ele>
        <time>2021-05-08T13:15:30.000Z</time>
      </trkpt>
      <trkpt lat="47.07422" lon="-1.93089">
        <ele>73</ele>
        <time>2021-05-08T13:15:32.000Z</time>
      </trkpt>
      <trkpt lat="47.07424" lon="-1.93072">
        <ele>73</ele>
        <time>2021-05-08T13:15:34.000Z</time>
      </trkpt>
      <trkpt lat="47.07425" lon="-1.93055">
        <ele>73</ele>
        <time>2021-05-08T13:15:36.000Z</time>
      </trkpt>
      <trkpt lat="47.07424" lon="-1.93038">
        <ele>72</ele>
        <time>2021-05-08T13:15:38.000Z</time>
      </trkpt>
      <trkpt lat="47.07424" lon="-1.93022">
        <ele>72</ele>
        <time>2021-05-08T13:15:40.000Z</time>
      </trkpt>
      <trkpt lat="47.07425" lon="-1.93005">
        <ele>72</ele>
        <time>2021-05-08T13:15:42.000Z</time>
      </trkpt>
      <trkpt lat="47.07426" lon="-1.92989">
        <ele>72</ele>
        <time>2021-05-08T13:15:44.000Z</time>
      </trkpt>
      <trkpt lat="47.07426" lon="-1.92972">
        <ele>72</ele>
        <time>2021-05-08T13:15:46.000Z</time>
      </trkpt>
      <trkpt lat="47.07426" lon="-1.92955">
        <ele>72</ele>
        <time>2021-05-08T13:15:48.000Z</time>
      </trkpt>
      <trkpt lat="47.07427" lon="-1.92938">
        <ele>71</ele>
        <time>2021-05-08T13:15:50.000Z</time>
      </trkpt>
      <trkpt lat="47.07427" lon="-1.9292">
        <ele>71</ele>
        <time>2021-05-08T13:15:52.000Z</time>
      </trkpt>
      <trkpt lat="47.07426" lon="-1.92903">
        <ele>71</ele>
        <time>2021-05-08T13:15:54.000Z</time>
      </trkpt>
      <trkpt lat="47.07426" lon="-1.92885">
        <ele>71</ele>
        <time>2021-05-08T13:15:56.000Z</time>
      </trkpt>
      <trkpt lat="47.07426" lon="-1.92868">
        <ele>71</ele>
        <time>2021-05-08T13:15:58.000Z</time>
      </trkpt>
      <trkpt lat="47.07425" lon="-1.9285">
        <ele>71</ele>
        <time>2021-05-08T13:16:00.000Z</time>
      </trkpt>
      <trkpt lat="47.07424" lon="-1.92833">
        <ele>71</ele>
        <time>2021-05-08T13:16:02.000Z</time>
      </trkpt>
      <trkpt lat="47.07422" lon="-1.92816">
        <ele>72</ele>
        <time>2021-05-08T13:16:04.000Z</time>
      </trkpt>
      <trkpt lat="47.07421" lon="-1.92799">
        <ele>71</ele>
        <time>2021-05-08T13:16:06.000Z</time>
      </trkpt>
      <trkpt lat="47.07419" lon="-1.92782">
        <ele>71</ele>
        <time>2021-05-08T13:16:08.000Z</time>
      </trkpt>
      <trkpt lat="47.07418" lon="-1.92766">
        <ele>71</ele>
        <time>2021-05-08T13:16:10.000Z</time>
      </trkpt>
      <trkpt lat="47.07417" lon="-1.92749">
        <ele>71</ele>
        <time>2021-05-08T13:16:12.000Z</time>
      </trkpt>
      <trkpt lat="47.07415" lon="-1.92732">
        <ele>71</ele>
        <time>2021-05-08T13:16:14.000Z</time>
      </trkpt>
      <trkpt lat="47.07415" lon="-1.92715">
        <ele>71</ele>
        <time>2021-05-08T13:16:16.000Z</time>
      </trkpt>
      <trkpt lat="47.07414" lon="-1.92698">
        <ele>71</ele>
        <time>2021-05-08T13:16:18.000Z</time>
      </trkpt>
      <trkpt lat="47.07413" lon="-1.92682">
        <ele>71</ele>
        <time>2021-05-08T13:16:20.000Z</time>
      </trkpt>
      <trkpt lat="47.07412" lon="-1.92664">
        <ele>71</ele>
        <time>2021-05-08T13:16:22.000Z</time>
      </trkpt>
      <trkpt lat="47.07411" lon="-1.92646">
        <ele>72</ele>
        <time>2021-05-08T13:16:24.000Z</time>
      </trkpt>
      <trkpt lat="47.07409" lon="-1.92629">
        <ele>72</ele>
        <time>2021-05-08T13:16:26.000Z</time>
      </trkpt>
      <trkpt lat="47.07407" lon="-1.92612">
        <ele>72</ele>
        <time>2021-05-08T13:16:28.000Z</time>
      </trkpt>
      <trkpt lat="47.07406" lon="-1.92595">
        <ele>72</ele>
        <time>2021-05-08T13:16:30.000Z</time>
      </trkpt>
      <trkpt lat="47.07405" lon="-1.92578">
        <ele>72</ele>
        <time>2021-05-08T13:16:32.000Z</time>
      </trkpt>
      <trkpt lat="47.07404" lon="-1.9256">
        <ele>72</ele>
        <time>2021-05-08T13:16:34.000Z</time>
      </trkpt>
      <trkpt lat="47.07404" lon="-1.92543">
        <ele>72</ele>
        <time>2021-05-08T13:16:36.000Z</time>
      </trkpt>
      <trkpt lat="47.07404" lon="-1.92526">
        <ele>72</ele>
        <time>2021-05-08T13:16:38.000Z</time>
      </trkpt>
      <trkpt lat="47.07404" lon="-1.92509">
        <ele>72</ele>
        <time>2021-05-08T13:16:40.000Z</time>
      </trkpt>
      <trkpt lat="47.07404" lon="-1.92492">
        <ele>72</ele>
        <time>2021-05-08T13:16:42.000Z</time>
      </trkpt>
      <trkpt lat="47.07405" lon="-1.92475">
        <ele>73</ele>
        <time>2021-05-08T13:16:44.000Z</time>
      </trkpt>
      <trkpt lat="47.07406" lon="-1.92457">
        <ele>73</ele>
        <time>2021-05-08T13:16:46.000Z</time>
      </trkpt>
      <trkpt lat="47.07407" lon="-1.9244">
        <ele>73</ele>
        <time>2021-05-08T13:16:48.000Z</time>
      </trkpt>
      <trkpt lat="47.07408" lon="-1.92423">
        <ele>73</ele>
        <time>2021-05-08T13:16:50.000Z</time>
      </trkpt>
      <trkpt lat="47.0741" lon="-1.92405">
        <ele>73</ele>
        <time>2021-05-08T13:16:52.000Z</time>
      </trkpt>
      <trkpt lat="47.07412" lon="-1.92387">
        <ele>73</ele>
        <time>2021-05-08T13:16:54.000Z</time>
      </trkpt>
      <trkpt lat="47.07413" lon="-1.92369">
        <ele>73</ele>
        <time>2021-05-08T13:16:56.000Z</time>
      </trkpt>
      <trkpt lat="47.07414" lon="-1.92351">
        <ele>72</ele>
        <time>2021-05-08T13:16:58.000Z</time>
      </trkpt>
      <trkpt lat="47.07415" lon="-1.92333">
        <ele>72</ele>
        <time>2021-05-08T13:17:00.000Z</time>
      </trkpt>
      <trkpt lat="47.07417" lon="-1.92315">
        <ele>72</ele>
        <time>2021-05-08T13:17:02.000Z</time>
      </trkpt>
      <trkpt lat="47.07418" lon="-1.92296">
        <ele>72</ele>
        <time>2021-05-08T13:17:04.000Z</time>
      </trkpt>
      <trkpt lat="47.07419" lon="-1.92278">
        <ele>72</ele>
        <time>2021-05-08T13:17:06.000Z</time>
      </trkpt>
      <trkpt lat="47.07421" lon="-1.9226">
        <ele>72</ele>
        <time>2021-05-08T13:17:08.000Z</time>
      </trkpt>
      <trkpt lat="47.07422" lon="-1.92242">
        <ele>72</ele>
        <time>2021-05-08T13:17:10.000Z</time>
      </trkpt>
      <trkpt lat="47.07423" lon="-1.92224">
        <ele>72</ele>
        <time>2021-05-08T13:17:12.000Z</time>
      </trkpt>
      <trkpt lat="47.07424" lon="-1.92207">
        <ele>72</ele>
        <time>2021-05-08T13:17:14.000Z</time>
      </trkpt>
      <trkpt lat="47.07426" lon="-1.92189">
        <ele>72</ele>
        <time>2021-05-08T13:17:16.000Z</time>
      </trkpt>
      <trkpt lat="47.07427" lon="-1.92171">
        <ele>71</ele>
        <time>2021-05-08T13:17:18.000Z</time>
      </trkpt>
      <trkpt lat="47.07428" lon="-1.92153">
        <ele>71</ele>
        <time>2021-05-08T13:17:20.000Z</time>
      </trkpt>
      <trkpt lat="47.07428" lon="-1.92135">
        <ele>70</ele>
        <time>2021-05-08T13:17:22.000Z</time>
      </trkpt>
      <trkpt lat="47.07429" lon="-1.92118">
        <ele>70</ele>
        <time>2021-05-08T13:17:24.000Z</time>
      </trkpt>
      <trkpt lat="47.0743" lon="-1.921">
        <ele>70</ele>
        <time>2021-05-08T13:17:26.000Z</time>
      </trkpt>
      <trkpt lat="47.07432" lon="-1.92084">
        <ele>70</ele>
        <time>2021-05-08T13:17:28.000Z</time>
      </trkpt>
      <trkpt lat="47.07433" lon="-1.92066">
        <ele>70</ele>
        <time>2021-05-08T13:17:30.000Z</time>
      </trkpt>
      <trkpt lat="47.07434" lon="-1.92049">
        <ele>70</ele>
        <time>2021-05-08T13:17:32.000Z</time>
      </trkpt>
      <trkpt lat="47.07434" lon="-1.92031">
        <ele>71</ele>
        <time>2021-05-08T13:17:34.000Z</time>
      </trkpt>
      <trkpt lat="47.07435" lon="-1.92014">
        <ele>71</ele>
        <time>2021-05-08T13:17:36.000Z</time>
      </trkpt>
      <trkpt lat="47.07436" lon="-1.91996">
        <ele>71</ele>
        <time>2021-05-08T13:17:38.000Z</time>
      </trkpt>
      <trkpt lat="47.07437" lon="-1.91978">
        <ele>71</ele>
        <time>2021-05-08T13:17:40.000Z</time>
      </trkpt>
      <trkpt lat="47.07439" lon="-1.91961">
        <ele>71</ele>
        <time>2021-05-08T13:17:42.000Z</time>
      </trkpt>
      <trkpt lat="47.0744" lon="-1.91943">
        <ele>71</ele>
        <time>2021-05-08T13:17:44.000Z</time>
      </trkpt>
      <trkpt lat="47.07441" lon="-1.91925">
        <ele>71</ele>
        <time>2021-05-08T13:17:46.000Z</time>
      </trkpt>
      <trkpt lat="47.07442" lon="-1.91907">
        <ele>71</ele>
        <time>2021-05-08T13:17:48.000Z</time>
      </trkpt>
      <trkpt lat="47.07444" lon="-1.91889">
        <ele>71</ele>
        <time>2021-05-08T13:17:50.000Z</time>
      </trkpt>
      <trkpt lat="47.07445" lon="-1.91871">
        <ele>71</ele>
        <time>2021-05-08T13:17:52.000Z</time>
      </trkpt>
      <trkpt lat="47.07447" lon="-1.91852">
        <ele>71</ele>
        <time>2021-05-08T13:17:54.000Z</time>
      </trkpt>
      <trkpt lat="47.07448" lon="-1.91834">
        <ele>71</ele>
        <time>2021-05-08T13:17:56.000Z</time>
      </trkpt>
      <trkpt lat="47.0745" lon="-1.91817">
        <ele>71</ele>
        <time>2021-05-08T13:17:58.000Z</time>
      </trkpt>
      <trkpt lat="47.07452" lon="-1.91799">
        <ele>71</ele>
        <time>2021-05-08T13:18:00.000Z</time>
      </trkpt>
      <trkpt lat="47.07453" lon="-1.9178">
        <ele>71</ele>
        <time>2021-05-08T13:18:02.000Z</time>
      </trkpt>
      <trkpt lat="47.07454" lon="-1.91763">
        <ele>71</ele>
        <time>2021-05-08T13:18:04.000Z</time>
      </trkpt>
      <trkpt lat="47.07456" lon="-1.91746">
        <ele>71</ele>
        <time>2021-05-08T13:18:06.000Z</time>
      </trkpt>
      <trkpt lat="47.07458" lon="-1.91728">
        <ele>71</ele>
        <time>2021-05-08T13:18:08.000Z</time>
      </trkpt>
      <trkpt lat="47.07459" lon="-1.9171">
        <ele>70</ele>
        <time>2021-05-08T13:18:10.000Z</time>
      </trkpt>
      <trkpt lat="47.07461" lon="-1.91692">
        <ele>70</ele>
        <time>2021-05-08T13:18:12.000Z</time>
      </trkpt>
      <trkpt lat="47.07463" lon="-1.91675">
        <ele>71</ele>
        <time>2021-05-08T13:18:14.000Z</time>
      </trkpt>
      <trkpt lat="47.07464" lon="-1.91657">
        <ele>71</ele>
        <time>2021-05-08T13:18:16.000Z</time>
      </trkpt>
      <trkpt lat="47.07465" lon="-1.91639">
        <ele>71</ele>
        <time>2021-05-08T13:18:18.000Z</time>
      </trkpt>
      <trkpt lat="47.07466" lon="-1.91621">
        <ele>71</ele>
        <time>2021-05-08T13:18:20.000Z</time>
      </trkpt>
      <trkpt lat="47.07468" lon="-1.91603">
        <ele>70</ele>
        <time>2021-05-08T13:18:22.000Z</time>
      </trkpt>
      <trkpt lat="47.0747" lon="-1.91585">
        <ele>70</ele>
        <time>2021-05-08T13:18:24.000Z</time>
      </trkpt>
      <trkpt lat="47.07473" lon="-1.91569">
        <ele>70</ele>
        <time>2021-05-08T13:18:26.000Z</time>
      </trkpt>
      <trkpt lat="47.07475" lon="-1.91553">
        <ele>70</ele>
        <time>2021-05-08T13:18:28.000Z</time>
      </trkpt>
      <trkpt lat="47.07478" lon="-1.91537">
        <ele>70</ele>
        <time>2021-05-08T13:18:30.000Z</time>
      </trkpt>
      <trkpt lat="47.07481" lon="-1.91521">
        <ele>71</ele>
        <time>2021-05-08T13:18:32.000Z</time>
      </trkpt>
      <trkpt lat="47.07484" lon="-1.91508">
        <ele>71</ele>
        <time>2021-05-08T13:18:34.000Z</time>
      </trkpt>
      <trkpt lat="47.07487" lon="-1.91495">
        <ele>71</ele>
        <time>2021-05-08T13:18:38.000Z</time>
      </trkpt>
      <trkpt lat="47.07495" lon="-1.91484">
        <ele>71</ele>
        <time>2021-05-08T13:18:42.000Z</time>
      </trkpt>
      <trkpt lat="47.07501" lon="-1.91474">
        <ele>71</ele>
        <time>2021-05-08T13:18:45.000Z</time>
      </trkpt>
      <trkpt lat="47.07509" lon="-1.91465">
        <ele>71</ele>
        <time>2021-05-08T13:18:48.000Z</time>
      </trkpt>
      <trkpt lat="47.07517" lon="-1.91454">
        <ele>72</ele>
        <time>2021-05-08T13:18:51.000Z</time>
      </trkpt>
      <trkpt lat="47.07527" lon="-1.91445">
        <ele>73</ele>
        <time>2021-05-08T13:18:54.000Z</time>
      </trkpt>
      <trkpt lat="47.07537" lon="-1.91435">
        <ele>74</ele>
        <time>2021-05-08T13:18:57.000Z</time>
      </trkpt>
      <trkpt lat="47.07547" lon="-1.91423">
        <ele>74</ele>
        <time>2021-05-08T13:19:00.000Z</time>
      </trkpt>
      <trkpt lat="47.07553" lon="-1.91412">
        <ele>75</ele>
        <time>2021-05-08T13:19:02.000Z</time>
      </trkpt>
      <trkpt lat="47.07558" lon="-1.91401">
        <ele>75</ele>
        <time>2021-05-08T13:19:04.000Z</time>
      </trkpt>
      <trkpt lat="47.07566" lon="-1.91385">
        <ele>75</ele>
        <time>2021-05-08T13:19:07.000Z</time>
      </trkpt>
      <trkpt lat="47.07572" lon="-1.91373">
        <ele>75</ele>
        <time>2021-05-08T13:19:09.000Z</time>
      </trkpt>
      <trkpt lat="47.0758" lon="-1.91358">
        <ele>75</ele>
        <time>2021-05-08T13:19:12.000Z</time>
      </trkpt>
      <trkpt lat="47.07586" lon="-1.91347">
        <ele>75</ele>
        <time>2021-05-08T13:19:14.000Z</time>
      </trkpt>
      <trkpt lat="47.07591" lon="-1.91336">
        <ele>75</ele>
        <time>2021-05-08T13:19:16.000Z</time>
      </trkpt>
      <trkpt lat="47.07597" lon="-1.91324">
        <ele>75</ele>
        <time>2021-05-08T13:19:18.000Z</time>
      </trkpt>
      <trkpt lat="47.07603" lon="-1.91312">
        <ele>75</ele>
        <time>2021-05-08T13:19:20.000Z</time>
      </trkpt>
      <trkpt lat="47.07609" lon="-1.91301">
        <ele>75</ele>
        <time>2021-05-08T13:19:22.000Z</time>
      </trkpt>
      <trkpt lat="47.07615" lon="-1.91291">
        <ele>75</ele>
        <time>2021-05-08T13:19:24.000Z</time>
      </trkpt>
      <trkpt lat="47.07622" lon="-1.91281">
        <ele>75</ele>
        <time>2021-05-08T13:19:26.000Z</time>
      </trkpt>
      <trkpt lat="47.07629" lon="-1.91273">
        <ele>75</ele>
        <time>2021-05-08T13:19:28.000Z</time>
      </trkpt>
      <trkpt lat="47.07636" lon="-1.91262">
        <ele>75</ele>
        <time>2021-05-08T13:19:30.000Z</time>
      </trkpt>
      <trkpt lat="47.07647" lon="-1.91251">
        <ele>76</ele>
        <time>2021-05-08T13:19:33.000Z</time>
      </trkpt>
      <trkpt lat="47.07655" lon="-1.91244">
        <ele>76</ele>
        <time>2021-05-08T13:19:35.000Z</time>
      </trkpt>
      <trkpt lat="47.07663" lon="-1.91237">
        <ele>76</ele>
        <time>2021-05-08T13:19:37.000Z</time>
      </trkpt>
      <trkpt lat="47.07675" lon="-1.9123">
        <ele>76</ele>
        <time>2021-05-08T13:19:40.000Z</time>
      </trkpt>
      <trkpt lat="47.07685" lon="-1.91218">
        <ele>75</ele>
        <time>2021-05-08T13:19:43.000Z</time>
      </trkpt>
      <trkpt lat="47.07694" lon="-1.91205">
        <ele>76</ele>
        <time>2021-05-08T13:19:46.000Z</time>
      </trkpt>
      <trkpt lat="47.07702" lon="-1.91192">
        <ele>76</ele>
        <time>2021-05-08T13:19:49.000Z</time>
      </trkpt>
      <trkpt lat="47.0771" lon="-1.91176">
        <ele>77</ele>
        <time>2021-05-08T13:19:52.000Z</time>
      </trkpt>
      <trkpt lat="47.07714" lon="-1.91165">
        <ele>77</ele>
        <time>2021-05-08T13:19:54.000Z</time>
      </trkpt>
      <trkpt lat="47.07722" lon="-1.91151">
        <ele>77</ele>
        <time>2021-05-08T13:19:57.000Z</time>
      </trkpt>
      <trkpt lat="47.0773" lon="-1.91137">
        <ele>76</ele>
        <time>2021-05-08T13:20:00.000Z</time>
      </trkpt>
      <trkpt lat="47.07736" lon="-1.91122">
        <ele>76</ele>
        <time>2021-05-08T13:20:03.000Z</time>
      </trkpt>
      <trkpt lat="47.07741" lon="-1.91109">
        <ele>76</ele>
        <time>2021-05-08T13:20:06.000Z</time>
      </trkpt>
      <trkpt lat="47.07746" lon="-1.91097">
        <ele>76</ele>
        <time>2021-05-08T13:20:10.000Z</time>
      </trkpt>
      <trkpt lat="47.07755" lon="-1.91081">
        <ele>76</ele>
        <time>2021-05-08T13:20:13.000Z</time>
      </trkpt>
      <trkpt lat="47.07762" lon="-1.91069">
        <ele>76</ele>
        <time>2021-05-08T13:20:15.000Z</time>
      </trkpt>
      <trkpt lat="47.07767" lon="-1.91057">
        <ele>75</ele>
        <time>2021-05-08T13:20:17.000Z</time>
      </trkpt>
      <trkpt lat="47.07773" lon="-1.91043">
        <ele>74</ele>
        <time>2021-05-08T13:20:19.000Z</time>
      </trkpt>
      <trkpt lat="47.07778" lon="-1.91028">
        <ele>74</ele>
        <time>2021-05-08T13:20:21.000Z</time>
      </trkpt>
      <trkpt lat="47.07784" lon="-1.91013">
        <ele>74</ele>
        <time>2021-05-08T13:20:23.000Z</time>
      </trkpt>
      <trkpt lat="47.0779" lon="-1.90997">
        <ele>73</ele>
        <time>2021-05-08T13:20:25.000Z</time>
      </trkpt>
      <trkpt lat="47.07796" lon="-1.9098">
        <ele>73</ele>
        <time>2021-05-08T13:20:27.000Z</time>
      </trkpt>
      <trkpt lat="47.07803" lon="-1.90963">
        <ele>73</ele>
        <time>2021-05-08T13:20:29.000Z</time>
      </trkpt>
      <trkpt lat="47.0781" lon="-1.90946">
        <ele>73</ele>
        <time>2021-05-08T13:20:31.000Z</time>
      </trkpt>
      <trkpt lat="47.07816" lon="-1.9093">
        <ele>73</ele>
        <time>2021-05-08T13:20:33.000Z</time>
      </trkpt>
      <trkpt lat="47.07822" lon="-1.90914">
        <ele>73</ele>
        <time>2021-05-08T13:20:35.000Z</time>
      </trkpt>
      <trkpt lat="47.07829" lon="-1.90899">
        <ele>73</ele>
        <time>2021-05-08T13:20:37.000Z</time>
      </trkpt>
      <trkpt lat="47.07836" lon="-1.90884">
        <ele>73</ele>
        <time>2021-05-08T13:20:39.000Z</time>
      </trkpt>
      <trkpt lat="47.07845" lon="-1.90869">
        <ele>72</ele>
        <time>2021-05-08T13:20:41.000Z</time>
      </trkpt>
      <trkpt lat="47.07853" lon="-1.90855">
        <ele>72</ele>
        <time>2021-05-08T13:20:43.000Z</time>
      </trkpt>
      <trkpt lat="47.07861" lon="-1.90841">
        <ele>72</ele>
        <time>2021-05-08T13:20:45.000Z</time>
      </trkpt>
      <trkpt lat="47.0787" lon="-1.90828">
        <ele>72</ele>
        <time>2021-05-08T13:20:47.000Z</time>
      </trkpt>
      <trkpt lat="47.07878" lon="-1.90815">
        <ele>73</ele>
        <time>2021-05-08T13:20:49.000Z</time>
      </trkpt>
      <trkpt lat="47.07888" lon="-1.90801">
        <ele>72</ele>
        <time>2021-05-08T13:20:51.000Z</time>
      </trkpt>
      <trkpt lat="47.07896" lon="-1.90788">
        <ele>73</ele>
        <time>2021-05-08T13:20:53.000Z</time>
      </trkpt>
      <trkpt lat="47.07905" lon="-1.90775">
        <ele>73</ele>
        <time>2021-05-08T13:20:55.000Z</time>
      </trkpt>
      <trkpt lat="47.07914" lon="-1.90761">
        <ele>73</ele>
        <time>2021-05-08T13:20:57.000Z</time>
      </trkpt>
      <trkpt lat="47.07923" lon="-1.90747">
        <ele>73</ele>
        <time>2021-05-08T13:20:59.000Z</time>
      </trkpt>
      <trkpt lat="47.07932" lon="-1.90734">
        <ele>73</ele>
        <time>2021-05-08T13:21:01.000Z</time>
      </trkpt>
      <trkpt lat="47.07939" lon="-1.9072">
        <ele>73</ele>
        <time>2021-05-08T13:21:03.000Z</time>
      </trkpt>
      <trkpt lat="47.07947" lon="-1.90706">
        <ele>72</ele>
        <time>2021-05-08T13:21:05.000Z</time>
      </trkpt>
      <trkpt lat="47.07955" lon="-1.90691">
        <ele>72</ele>
        <time>2021-05-08T13:21:07.000Z</time>
      </trkpt>
      <trkpt lat="47.07962" lon="-1.90676">
        <ele>71</ele>
        <time>2021-05-08T13:21:09.000Z</time>
      </trkpt>
      <trkpt lat="47.07969" lon="-1.90661">
        <ele>72</ele>
        <time>2021-05-08T13:21:11.000Z</time>
      </trkpt>
      <trkpt lat="47.07975" lon="-1.90645">
        <ele>72</ele>
        <time>2021-05-08T13:21:13.000Z</time>
      </trkpt>
      <trkpt lat="47.07981" lon="-1.90629">
        <ele>72</ele>
        <time>2021-05-08T13:21:15.000Z</time>
      </trkpt>
      <trkpt lat="47.07986" lon="-1.90613">
        <ele>73</ele>
        <time>2021-05-08T13:21:17.000Z</time>
      </trkpt>
      <trkpt lat="47.07991" lon="-1.906">
        <ele>72</ele>
        <time>2021-05-08T13:21:20.000Z</time>
      </trkpt>
      <trkpt lat="47.07982" lon="-1.90593">
        <ele>74</ele>
        <time>2021-05-08T13:21:34.000Z</time>
      </trkpt>
      <trkpt lat="47.07973" lon="-1.90589">
        <ele>74</ele>
        <time>2021-05-08T13:21:36.000Z</time>
      </trkpt>
      <trkpt lat="47.07964" lon="-1.9058">
        <ele>74</ele>
        <time>2021-05-08T13:21:38.000Z</time>
      </trkpt>
      <trkpt lat="47.07955" lon="-1.90569">
        <ele>74</ele>
        <time>2021-05-08T13:21:40.000Z</time>
      </trkpt>
      <trkpt lat="47.07943" lon="-1.90559">
        <ele>73</ele>
        <time>2021-05-08T13:21:42.000Z</time>
      </trkpt>
      <trkpt lat="47.07931" lon="-1.90551">
        <ele>73</ele>
        <time>2021-05-08T13:21:44.000Z</time>
      </trkpt>
      <trkpt lat="47.0792" lon="-1.90545">
        <ele>73</ele>
        <time>2021-05-08T13:21:46.000Z</time>
      </trkpt>
      <trkpt lat="47.07907" lon="-1.9054">
        <ele>72</ele>
        <time>2021-05-08T13:21:48.000Z</time>
      </trkpt>
      <trkpt lat="47.07896" lon="-1.90535">
        <ele>72</ele>
        <time>2021-05-08T13:21:50.000Z</time>
      </trkpt>
      <trkpt lat="47.07884" lon="-1.9053">
        <ele>72</ele>
        <time>2021-05-08T13:21:52.000Z</time>
      </trkpt>
      <trkpt lat="47.07873" lon="-1.9052">
        <ele>73</ele>
        <time>2021-05-08T13:21:54.000Z</time>
      </trkpt>
      <trkpt lat="47.07863" lon="-1.9051">
        <ele>72</ele>
        <time>2021-05-08T13:21:56.000Z</time>
      </trkpt>
      <trkpt lat="47.07855" lon="-1.90497">
        <ele>72</ele>
        <time>2021-05-08T13:21:58.000Z</time>
      </trkpt>
      <trkpt lat="47.07846" lon="-1.90485">
        <ele>72</ele>
        <time>2021-05-08T13:22:00.000Z</time>
      </trkpt>
      <trkpt lat="47.07837" lon="-1.90472">
        <ele>72</ele>
        <time>2021-05-08T13:22:02.000Z</time>
      </trkpt>
      <trkpt lat="47.07829" lon="-1.90459">
        <ele>72</ele>
        <time>2021-05-08T13:22:04.000Z</time>
      </trkpt>
      <trkpt lat="47.07821" lon="-1.90444">
        <ele>72</ele>
        <time>2021-05-08T13:22:06.000Z</time>
      </trkpt>
      <trkpt lat="47.07814" lon="-1.9043">
        <ele>72</ele>
        <time>2021-05-08T13:22:08.000Z</time>
      </trkpt>
      <trkpt lat="47.07808" lon="-1.90414">
        <ele>72</ele>
        <time>2021-05-08T13:22:10.000Z</time>
      </trkpt>
      <trkpt lat="47.07805" lon="-1.90397">
        <ele>72</ele>
        <time>2021-05-08T13:22:12.000Z</time>
      </trkpt>
      <trkpt lat="47.07808" lon="-1.90379">
        <ele>73</ele>
        <time>2021-05-08T13:22:14.000Z</time>
      </trkpt>
      <trkpt lat="47.07815" lon="-1.90363">
        <ele>72</ele>
        <time>2021-05-08T13:22:16.000Z</time>
      </trkpt>
      <trkpt lat="47.07824" lon="-1.90349">
        <ele>72</ele>
        <time>2021-05-08T13:22:18.000Z</time>
      </trkpt>
      <trkpt lat="47.07835" lon="-1.90337">
        <ele>72</ele>
        <time>2021-05-08T13:22:20.000Z</time>
      </trkpt>
      <trkpt lat="47.07847" lon="-1.90325">
        <ele>72</ele>
        <time>2021-05-08T13:22:22.000Z</time>
      </trkpt>
      <trkpt lat="47.07858" lon="-1.90313">
        <ele>72</ele>
        <time>2021-05-08T13:22:24.000Z</time>
      </trkpt>
      <trkpt lat="47.0787" lon="-1.90301">
        <ele>72</ele>
        <time>2021-05-08T13:22:26.000Z</time>
      </trkpt>
      <trkpt lat="47.07882" lon="-1.90289">
        <ele>72</ele>
        <time>2021-05-08T13:22:28.000Z</time>
      </trkpt>
      <trkpt lat="47.07895" lon="-1.90277">
        <ele>72</ele>
        <time>2021-05-08T13:22:30.000Z</time>
      </trkpt>
      <trkpt lat="47.07907" lon="-1.90266">
        <ele>72</ele>
        <time>2021-05-08T13:22:32.000Z</time>
      </trkpt>
      <trkpt lat="47.0792" lon="-1.90254">
        <ele>72</ele>
        <time>2021-05-08T13:22:34.000Z</time>
      </trkpt>
      <trkpt lat="47.07932" lon="-1.90242">
        <ele>72</ele>
        <time>2021-05-08T13:22:36.000Z</time>
      </trkpt>
      <trkpt lat="47.07945" lon="-1.9023">
        <ele>71</ele>
        <time>2021-05-08T13:22:38.000Z</time>
      </trkpt>
      <trkpt lat="47.07957" lon="-1.90218">
        <ele>72</ele>
        <time>2021-05-08T13:22:40.000Z</time>
      </trkpt>
      <trkpt lat="47.07969" lon="-1.90206">
        <ele>71</ele>
        <time>2021-05-08T13:22:42.000Z</time>
      </trkpt>
      <trkpt lat="47.07981" lon="-1.90195">
        <ele>71</ele>
        <time>2021-05-08T13:22:44.000Z</time>
      </trkpt>
      <trkpt lat="47.07992" lon="-1.90183">
        <ele>71</ele>
        <time>2021-05-08T13:22:46.000Z</time>
      </trkpt>
      <trkpt lat="47.08004" lon="-1.9017">
        <ele>72</ele>
        <time>2021-05-08T13:22:48.000Z</time>
      </trkpt>
      <trkpt lat="47.08015" lon="-1.90158">
        <ele>72</ele>
        <time>2021-05-08T13:22:50.000Z</time>
      </trkpt>
      <trkpt lat="47.08026" lon="-1.90147">
        <ele>72</ele>
        <time>2021-05-08T13:22:52.000Z</time>
      </trkpt>
      <trkpt lat="47.08038" lon="-1.90134">
        <ele>72</ele>
        <time>2021-05-08T13:22:54.000Z</time>
      </trkpt>
      <trkpt lat="47.0805" lon="-1.90122">
        <ele>72</ele>
        <time>2021-05-08T13:22:56.000Z</time>
      </trkpt>
      <trkpt lat="47.08061" lon="-1.90109">
        <ele>72</ele>
        <time>2021-05-08T13:22:58.000Z</time>
      </trkpt>
      <trkpt lat="47.08072" lon="-1.90097">
        <ele>71</ele>
        <time>2021-05-08T13:23:00.000Z</time>
      </trkpt>
      <trkpt lat="47.08084" lon="-1.90084">
        <ele>71</ele>
        <time>2021-05-08T13:23:02.000Z</time>
      </trkpt>
      <trkpt lat="47.08095" lon="-1.90071">
        <ele>71</ele>
        <time>2021-05-08T13:23:04.000Z</time>
      </trkpt>
      <trkpt lat="47.08113" lon="-1.90053">
        <ele>71</ele>
        <time>2021-05-08T13:23:07.000Z</time>
      </trkpt>
      <trkpt lat="47.08124" lon="-1.9004">
        <ele>71</ele>
        <time>2021-05-08T13:23:09.000Z</time>
      </trkpt>
      <trkpt lat="47.08135" lon="-1.90028">
        <ele>71</ele>
        <time>2021-05-08T13:23:11.000Z</time>
      </trkpt>
      <trkpt lat="47.08146" lon="-1.90016">
        <ele>71</ele>
        <time>2021-05-08T13:23:13.000Z</time>
      </trkpt>
      <trkpt lat="47.08158" lon="-1.90004">
        <ele>70</ele>
        <time>2021-05-08T13:23:15.000Z</time>
      </trkpt>
      <trkpt lat="47.08169" lon="-1.89994">
        <ele>69</ele>
        <time>2021-05-08T13:23:17.000Z</time>
      </trkpt>
      <trkpt lat="47.08182" lon="-1.89984">
        <ele>69</ele>
        <time>2021-05-08T13:23:19.000Z</time>
      </trkpt>
      <trkpt lat="47.08195" lon="-1.89974">
        <ele>69</ele>
        <time>2021-05-08T13:23:21.000Z</time>
      </trkpt>
      <trkpt lat="47.08208" lon="-1.89964">
        <ele>69</ele>
        <time>2021-05-08T13:23:23.000Z</time>
      </trkpt>
      <trkpt lat="47.08227" lon="-1.89948">
        <ele>68</ele>
        <time>2021-05-08T13:23:26.000Z</time>
      </trkpt>
      <trkpt lat="47.0824" lon="-1.89939">
        <ele>68</ele>
        <time>2021-05-08T13:23:28.000Z</time>
      </trkpt>
      <trkpt lat="47.08253" lon="-1.89928">
        <ele>69</ele>
        <time>2021-05-08T13:23:30.000Z</time>
      </trkpt>
      <trkpt lat="47.08272" lon="-1.89913">
        <ele>69</ele>
        <time>2021-05-08T13:23:33.000Z</time>
      </trkpt>
      <trkpt lat="47.08284" lon="-1.89902">
        <ele>69</ele>
        <time>2021-05-08T13:23:35.000Z</time>
      </trkpt>
      <trkpt lat="47.08296" lon="-1.89891">
        <ele>69</ele>
        <time>2021-05-08T13:23:37.000Z</time>
      </trkpt>
      <trkpt lat="47.08308" lon="-1.89879">
        <ele>69</ele>
        <time>2021-05-08T13:23:39.000Z</time>
      </trkpt>
      <trkpt lat="47.0832" lon="-1.89867">
        <ele>69</ele>
        <time>2021-05-08T13:23:41.000Z</time>
      </trkpt>
      <trkpt lat="47.0833" lon="-1.89856">
        <ele>69</ele>
        <time>2021-05-08T13:23:43.000Z</time>
      </trkpt>
      <trkpt lat="47.08341" lon="-1.89843">
        <ele>69</ele>
        <time>2021-05-08T13:23:45.000Z</time>
      </trkpt>
      <trkpt lat="47.08351" lon="-1.8983">
        <ele>68</ele>
        <time>2021-05-08T13:23:47.000Z</time>
      </trkpt>
      <trkpt lat="47.08362" lon="-1.89816">
        <ele>69</ele>
        <time>2021-05-08T13:23:49.000Z</time>
      </trkpt>
      <trkpt lat="47.08372" lon="-1.89802">
        <ele>69</ele>
        <time>2021-05-08T13:23:51.000Z</time>
      </trkpt>
      <trkpt lat="47.08378" lon="-1.89784">
        <ele>69</ele>
        <time>2021-05-08T13:23:53.000Z</time>
      </trkpt>
      <trkpt lat="47.08378" lon="-1.89764">
        <ele>69</ele>
        <time>2021-05-08T13:23:55.000Z</time>
      </trkpt>
      <trkpt lat="47.08371" lon="-1.89746">
        <ele>68</ele>
        <time>2021-05-08T13:23:57.000Z</time>
      </trkpt>
      <trkpt lat="47.08354" lon="-1.89727">
        <ele>68</ele>
        <time>2021-05-08T13:24:00.000Z</time>
      </trkpt>
      <trkpt lat="47.08343" lon="-1.89716">
        <ele>68</ele>
        <time>2021-05-08T13:24:02.000Z</time>
      </trkpt>
      <trkpt lat="47.08331" lon="-1.89705">
        <ele>68</ele>
        <time>2021-05-08T13:24:04.000Z</time>
      </trkpt>
      <trkpt lat="47.08319" lon="-1.89694">
        <ele>67</ele>
        <time>2021-05-08T13:24:06.000Z</time>
      </trkpt>
      <trkpt lat="47.08308" lon="-1.89682">
        <ele>67</ele>
        <time>2021-05-08T13:24:08.000Z</time>
      </trkpt>
      <trkpt lat="47.08296" lon="-1.89671">
        <ele>67</ele>
        <time>2021-05-08T13:24:10.000Z</time>
      </trkpt>
      <trkpt lat="47.08284" lon="-1.8966">
        <ele>67</ele>
        <time>2021-05-08T13:24:12.000Z</time>
      </trkpt>
      <trkpt lat="47.08272" lon="-1.89648">
        <ele>67</ele>
        <time>2021-05-08T13:24:14.000Z</time>
      </trkpt>
      <trkpt lat="47.0826" lon="-1.89637">
        <ele>67</ele>
        <time>2021-05-08T13:24:16.000Z</time>
      </trkpt>
      <trkpt lat="47.08248" lon="-1.89625">
        <ele>67</ele>
        <time>2021-05-08T13:24:18.000Z</time>
      </trkpt>
      <trkpt lat="47.08232" lon="-1.89604">
        <ele>67</ele>
        <time>2021-05-08T13:24:21.000Z</time>
      </trkpt>
      <trkpt lat="47.08226" lon="-1.89586">
        <ele>67</ele>
        <time>2021-05-08T13:24:23.000Z</time>
      </trkpt>
      <trkpt lat="47.08222" lon="-1.89566">
        <ele>66</ele>
        <time>2021-05-08T13:24:25.000Z</time>
      </trkpt>
      <trkpt lat="47.08221" lon="-1.89544">
        <ele>66</ele>
        <time>2021-05-08T13:24:27.000Z</time>
      </trkpt>
      <trkpt lat="47.0822" lon="-1.89523">
        <ele>66</ele>
        <time>2021-05-08T13:24:29.000Z</time>
      </trkpt>
      <trkpt lat="47.08216" lon="-1.89503">
        <ele>66</ele>
        <time>2021-05-08T13:24:31.000Z</time>
      </trkpt>
      <trkpt lat="47.08207" lon="-1.89486">
        <ele>66</ele>
        <time>2021-05-08T13:24:33.000Z</time>
      </trkpt>
      <trkpt lat="47.08195" lon="-1.89472">
        <ele>65</ele>
        <time>2021-05-08T13:24:35.000Z</time>
      </trkpt>
      <trkpt lat="47.08183" lon="-1.8946">
        <ele>65</ele>
        <time>2021-05-08T13:24:37.000Z</time>
      </trkpt>
      <trkpt lat="47.0817" lon="-1.89449">
        <ele>64</ele>
        <time>2021-05-08T13:24:39.000Z</time>
      </trkpt>
      <trkpt lat="47.08158" lon="-1.89438">
        <ele>64</ele>
        <time>2021-05-08T13:24:41.000Z</time>
      </trkpt>
      <trkpt lat="47.08139" lon="-1.8942">
        <ele>64</ele>
        <time>2021-05-08T13:24:44.000Z</time>
      </trkpt>
      <trkpt lat="47.08127" lon="-1.89408">
        <ele>64</ele>
        <time>2021-05-08T13:24:46.000Z</time>
      </trkpt>
      <trkpt lat="47.08116" lon="-1.89393">
        <ele>64</ele>
        <time>2021-05-08T13:24:48.000Z</time>
      </trkpt>
      <trkpt lat="47.08108" lon="-1.89374">
        <ele>63</ele>
        <time>2021-05-08T13:24:50.000Z</time>
      </trkpt>
      <trkpt lat="47.08103" lon="-1.89353">
        <ele>63</ele>
        <time>2021-05-08T13:24:52.000Z</time>
      </trkpt>
      <trkpt lat="47.081" lon="-1.89321">
        <ele>63</ele>
        <time>2021-05-08T13:24:55.000Z</time>
      </trkpt>
      <trkpt lat="47.08099" lon="-1.89299">
        <ele>62</ele>
        <time>2021-05-08T13:24:57.000Z</time>
      </trkpt>
      <trkpt lat="47.08097" lon="-1.89278">
        <ele>62</ele>
        <time>2021-05-08T13:24:59.000Z</time>
      </trkpt>
      <trkpt lat="47.08096" lon="-1.89257">
        <ele>62</ele>
        <time>2021-05-08T13:25:01.000Z</time>
      </trkpt>
      <trkpt lat="47.08098" lon="-1.89237">
        <ele>63</ele>
        <time>2021-05-08T13:25:03.000Z</time>
      </trkpt>
      <trkpt lat="47.08103" lon="-1.89218">
        <ele>64</ele>
        <time>2021-05-08T13:25:05.000Z</time>
      </trkpt>
      <trkpt lat="47.0811" lon="-1.89201">
        <ele>64</ele>
        <time>2021-05-08T13:25:07.000Z</time>
      </trkpt>
      <trkpt lat="47.08116" lon="-1.89184">
        <ele>65</ele>
        <time>2021-05-08T13:25:09.000Z</time>
      </trkpt>
      <trkpt lat="47.08123" lon="-1.89167">
        <ele>66</ele>
        <time>2021-05-08T13:25:11.000Z</time>
      </trkpt>
      <trkpt lat="47.08129" lon="-1.8915">
        <ele>66</ele>
        <time>2021-05-08T13:25:13.000Z</time>
      </trkpt>
      <trkpt lat="47.08136" lon="-1.89133">
        <ele>66</ele>
        <time>2021-05-08T13:25:15.000Z</time>
      </trkpt>
      <trkpt lat="47.08144" lon="-1.89116">
        <ele>67</ele>
        <time>2021-05-08T13:25:17.000Z</time>
      </trkpt>
      <trkpt lat="47.08152" lon="-1.89099">
        <ele>67</ele>
        <time>2021-05-08T13:25:19.000Z</time>
      </trkpt>
      <trkpt lat="47.0816" lon="-1.89084">
        <ele>68</ele>
        <time>2021-05-08T13:25:21.000Z</time>
      </trkpt>
      <trkpt lat="47.08168" lon="-1.89068">
        <ele>68</ele>
        <time>2021-05-08T13:25:23.000Z</time>
      </trkpt>
      <trkpt lat="47.08175" lon="-1.89053">
        <ele>68</ele>
        <time>2021-05-08T13:25:25.000Z</time>
      </trkpt>
      <trkpt lat="47.08184" lon="-1.89038">
        <ele>69</ele>
        <time>2021-05-08T13:25:27.000Z</time>
      </trkpt>
      <trkpt lat="47.08192" lon="-1.89023">
        <ele>69</ele>
        <time>2021-05-08T13:25:29.000Z</time>
      </trkpt>
      <trkpt lat="47.08198" lon="-1.89006">
        <ele>70</ele>
        <time>2021-05-08T13:25:31.000Z</time>
      </trkpt>
      <trkpt lat="47.08202" lon="-1.88988">
        <ele>70</ele>
        <time>2021-05-08T13:25:33.000Z</time>
      </trkpt>
      <trkpt lat="47.08201" lon="-1.88968">
        <ele>69</ele>
        <time>2021-05-08T13:25:35.000Z</time>
      </trkpt>
      <trkpt lat="47.08196" lon="-1.88951">
        <ele>69</ele>
        <time>2021-05-08T13:25:37.000Z</time>
      </trkpt>
      <trkpt lat="47.08192" lon="-1.88933">
        <ele>69</ele>
        <time>2021-05-08T13:25:39.000Z</time>
      </trkpt>
      <trkpt lat="47.08187" lon="-1.88914">
        <ele>70</ele>
        <time>2021-05-08T13:25:41.000Z</time>
      </trkpt>
      <trkpt lat="47.08183" lon="-1.88896">
        <ele>71</ele>
        <time>2021-05-08T13:25:43.000Z</time>
      </trkpt>
      <trkpt lat="47.08179" lon="-1.88877">
        <ele>71</ele>
        <time>2021-05-08T13:25:45.000Z</time>
      </trkpt>
      <trkpt lat="47.08175" lon="-1.88859">
        <ele>72</ele>
        <time>2021-05-08T13:25:47.000Z</time>
      </trkpt>
      <trkpt lat="47.08171" lon="-1.88841">
        <ele>72</ele>
        <time>2021-05-08T13:25:49.000Z</time>
      </trkpt>
      <trkpt lat="47.08167" lon="-1.88823">
        <ele>72</ele>
        <time>2021-05-08T13:25:51.000Z</time>
      </trkpt>
      <trkpt lat="47.08163" lon="-1.88805">
        <ele>73</ele>
        <time>2021-05-08T13:25:53.000Z</time>
      </trkpt>
      <trkpt lat="47.08162" lon="-1.88788">
        <ele>73</ele>
        <time>2021-05-08T13:25:55.000Z</time>
      </trkpt>
      <trkpt lat="47.08161" lon="-1.88769">
        <ele>73</ele>
        <time>2021-05-08T13:25:57.000Z</time>
      </trkpt>
      <trkpt lat="47.0816" lon="-1.88749">
        <ele>73</ele>
        <time>2021-05-08T13:25:59.000Z</time>
      </trkpt>
      <trkpt lat="47.0816" lon="-1.8873">
        <ele>73</ele>
        <time>2021-05-08T13:26:01.000Z</time>
      </trkpt>
      <trkpt lat="47.0816" lon="-1.88711">
        <ele>73</ele>
        <time>2021-05-08T13:26:03.000Z</time>
      </trkpt>
      <trkpt lat="47.0816" lon="-1.88693">
        <ele>73</ele>
        <time>2021-05-08T13:26:05.000Z</time>
      </trkpt>
      <trkpt lat="47.0816" lon="-1.88674">
        <ele>73</ele>
        <time>2021-05-08T13:26:07.000Z</time>
      </trkpt>
      <trkpt lat="47.0816" lon="-1.88655">
        <ele>74</ele>
        <time>2021-05-08T13:26:09.000Z</time>
      </trkpt>
      <trkpt lat="47.08162" lon="-1.88635">
        <ele>74</ele>
        <time>2021-05-08T13:26:11.000Z</time>
      </trkpt>
      <trkpt lat="47.08165" lon="-1.88616">
        <ele>74</ele>
        <time>2021-05-08T13:26:13.000Z</time>
      </trkpt>
      <trkpt lat="47.0817" lon="-1.88598">
        <ele>74</ele>
        <time>2021-05-08T13:26:15.000Z</time>
      </trkpt>
      <trkpt lat="47.08174" lon="-1.88581">
        <ele>74</ele>
        <time>2021-05-08T13:26:17.000Z</time>
      </trkpt>
      <trkpt lat="47.08179" lon="-1.88564">
        <ele>74</ele>
        <time>2021-05-08T13:26:19.000Z</time>
      </trkpt>
      <trkpt lat="47.08184" lon="-1.88548">
        <ele>74</ele>
        <time>2021-05-08T13:26:21.000Z</time>
      </trkpt>
      <trkpt lat="47.08189" lon="-1.88532">
        <ele>74</ele>
        <time>2021-05-08T13:26:23.000Z</time>
      </trkpt>
      <trkpt lat="47.08193" lon="-1.88517">
        <ele>74</ele>
        <time>2021-05-08T13:26:25.000Z</time>
      </trkpt>
      <trkpt lat="47.08195" lon="-1.88503">
        <ele>73</ele>
        <time>2021-05-08T13:26:27.000Z</time>
      </trkpt>
      <trkpt lat="47.08195" lon="-1.88489">
        <ele>74</ele>
        <time>2021-05-08T13:26:30.000Z</time>
      </trkpt>
      <trkpt lat="47.08193" lon="-1.88475">
        <ele>73</ele>
        <time>2021-05-08T13:26:32.000Z</time>
      </trkpt>
      <trkpt lat="47.08192" lon="-1.88457">
        <ele>73</ele>
        <time>2021-05-08T13:26:34.000Z</time>
      </trkpt>
      <trkpt lat="47.08191" lon="-1.88439">
        <ele>73</ele>
        <time>2021-05-08T13:26:36.000Z</time>
      </trkpt>
      <trkpt lat="47.0819" lon="-1.8842">
        <ele>74</ele>
        <time>2021-05-08T13:26:38.000Z</time>
      </trkpt>
      <trkpt lat="47.08188" lon="-1.88401">
        <ele>74</ele>
        <time>2021-05-08T13:26:40.000Z</time>
      </trkpt>
      <trkpt lat="47.08188" lon="-1.88382">
        <ele>74</ele>
        <time>2021-05-08T13:26:42.000Z</time>
      </trkpt>
      <trkpt lat="47.08186" lon="-1.88363">
        <ele>74</ele>
        <time>2021-05-08T13:26:44.000Z</time>
      </trkpt>
      <trkpt lat="47.08186" lon="-1.88344">
        <ele>74</ele>
        <time>2021-05-08T13:26:46.000Z</time>
      </trkpt>
      <trkpt lat="47.08186" lon="-1.88325">
        <ele>74</ele>
        <time>2021-05-08T13:26:48.000Z</time>
      </trkpt>
      <trkpt lat="47.08187" lon="-1.88306">
        <ele>74</ele>
        <time>2021-05-08T13:26:50.000Z</time>
      </trkpt>
      <trkpt lat="47.08189" lon="-1.88287">
        <ele>74</ele>
        <time>2021-05-08T13:26:52.000Z</time>
      </trkpt>
      <trkpt lat="47.08192" lon="-1.88268">
        <ele>74</ele>
        <time>2021-05-08T13:26:54.000Z</time>
      </trkpt>
      <trkpt lat="47.08194" lon="-1.88249">
        <ele>75</ele>
        <time>2021-05-08T13:26:56.000Z</time>
      </trkpt>
      <trkpt lat="47.08197" lon="-1.88231">
        <ele>74</ele>
        <time>2021-05-08T13:26:58.000Z</time>
      </trkpt>
      <trkpt lat="47.082" lon="-1.88212">
        <ele>74</ele>
        <time>2021-05-08T13:27:00.000Z</time>
      </trkpt>
      <trkpt lat="47.08202" lon="-1.88192">
        <ele>74</ele>
        <time>2021-05-08T13:27:02.000Z</time>
      </trkpt>
      <trkpt lat="47.08205" lon="-1.88173">
        <ele>74</ele>
        <time>2021-05-08T13:27:04.000Z</time>
      </trkpt>
      <trkpt lat="47.08206" lon="-1.88154">
        <ele>74</ele>
        <time>2021-05-08T13:27:06.000Z</time>
      </trkpt>
      <trkpt lat="47.08207" lon="-1.88133">
        <ele>74</ele>
        <time>2021-05-08T13:27:08.000Z</time>
      </trkpt>
      <trkpt lat="47.08207" lon="-1.88112">
        <ele>74</ele>
        <time>2021-05-08T13:27:10.000Z</time>
      </trkpt>
      <trkpt lat="47.08208" lon="-1.88091">
        <ele>74</ele>
        <time>2021-05-08T13:27:12.000Z</time>
      </trkpt>
      <trkpt lat="47.08208" lon="-1.8807">
        <ele>74</ele>
        <time>2021-05-08T13:27:14.000Z</time>
      </trkpt>
      <trkpt lat="47.08209" lon="-1.88049">
        <ele>74</ele>
        <time>2021-05-08T13:27:16.000Z</time>
      </trkpt>
      <trkpt lat="47.08211" lon="-1.88028">
        <ele>74</ele>
        <time>2021-05-08T13:27:18.000Z</time>
      </trkpt>
      <trkpt lat="47.08213" lon="-1.88008">
        <ele>74</ele>
        <time>2021-05-08T13:27:20.000Z</time>
      </trkpt>
      <trkpt lat="47.08218" lon="-1.87988">
        <ele>73</ele>
        <time>2021-05-08T13:27:22.000Z</time>
      </trkpt>
      <trkpt lat="47.08225" lon="-1.87969">
        <ele>73</ele>
        <time>2021-05-08T13:27:24.000Z</time>
      </trkpt>
      <trkpt lat="47.08233" lon="-1.8795">
        <ele>73</ele>
        <time>2021-05-08T13:27:26.000Z</time>
      </trkpt>
      <trkpt lat="47.08241" lon="-1.87933">
        <ele>73</ele>
        <time>2021-05-08T13:27:28.000Z</time>
      </trkpt>
      <trkpt lat="47.08249" lon="-1.87914">
        <ele>72</ele>
        <time>2021-05-08T13:27:30.000Z</time>
      </trkpt>
      <trkpt lat="47.08258" lon="-1.87896">
        <ele>72</ele>
        <time>2021-05-08T13:27:32.000Z</time>
      </trkpt>
      <trkpt lat="47.08266" lon="-1.87877">
        <ele>72</ele>
        <time>2021-05-08T13:27:34.000Z</time>
      </trkpt>
      <trkpt lat="47.08273" lon="-1.87859">
        <ele>72</ele>
        <time>2021-05-08T13:27:36.000Z</time>
      </trkpt>
      <trkpt lat="47.08281" lon="-1.87841">
        <ele>73</ele>
        <time>2021-05-08T13:27:38.000Z</time>
      </trkpt>
      <trkpt lat="47.08289" lon="-1.87823">
        <ele>73</ele>
        <time>2021-05-08T13:27:40.000Z</time>
      </trkpt>
      <trkpt lat="47.08297" lon="-1.87806">
        <ele>73</ele>
        <time>2021-05-08T13:27:42.000Z</time>
      </trkpt>
      <trkpt lat="47.08306" lon="-1.87788">
        <ele>73</ele>
        <time>2021-05-08T13:27:44.000Z</time>
      </trkpt>
      <trkpt lat="47.08314" lon="-1.8777">
        <ele>74</ele>
        <time>2021-05-08T13:27:46.000Z</time>
      </trkpt>
      <trkpt lat="47.08322" lon="-1.87753">
        <ele>73</ele>
        <time>2021-05-08T13:27:48.000Z</time>
      </trkpt>
      <trkpt lat="47.08331" lon="-1.87736">
        <ele>73</ele>
        <time>2021-05-08T13:27:50.000Z</time>
      </trkpt>
      <trkpt lat="47.0834" lon="-1.8772">
        <ele>72</ele>
        <time>2021-05-08T13:27:52.000Z</time>
      </trkpt>
      <trkpt lat="47.0835" lon="-1.87703">
        <ele>71</ele>
        <time>2021-05-08T13:27:54.000Z</time>
      </trkpt>
      <trkpt lat="47.08357" lon="-1.87685">
        <ele>71</ele>
        <time>2021-05-08T13:27:56.000Z</time>
      </trkpt>
      <trkpt lat="47.08364" lon="-1.87666">
        <ele>70</ele>
        <time>2021-05-08T13:27:58.000Z</time>
      </trkpt>
      <trkpt lat="47.0837" lon="-1.87646">
        <ele>70</ele>
        <time>2021-05-08T13:28:00.000Z</time>
      </trkpt>
      <trkpt lat="47.08375" lon="-1.87625">
        <ele>70</ele>
        <time>2021-05-08T13:28:02.000Z</time>
      </trkpt>
      <trkpt lat="47.08381" lon="-1.87604">
        <ele>69</ele>
        <time>2021-05-08T13:28:04.000Z</time>
      </trkpt>
      <trkpt lat="47.08385" lon="-1.87583">
        <ele>69</ele>
        <time>2021-05-08T13:28:06.000Z</time>
      </trkpt>
      <trkpt lat="47.0839" lon="-1.87563">
        <ele>69</ele>
        <time>2021-05-08T13:28:08.000Z</time>
      </trkpt>
      <trkpt lat="47.08395" lon="-1.87543">
        <ele>69</ele>
        <time>2021-05-08T13:28:10.000Z</time>
      </trkpt>
      <trkpt lat="47.08401" lon="-1.87524">
        <ele>69</ele>
        <time>2021-05-08T13:28:12.000Z</time>
      </trkpt>
      <trkpt lat="47.08405" lon="-1.87505">
        <ele>69</ele>
        <time>2021-05-08T13:28:14.000Z</time>
      </trkpt>
      <trkpt lat="47.08409" lon="-1.87485">
        <ele>69</ele>
        <time>2021-05-08T13:28:16.000Z</time>
      </trkpt>
      <trkpt lat="47.08413" lon="-1.87465">
        <ele>69</ele>
        <time>2021-05-08T13:28:18.000Z</time>
      </trkpt>
      <trkpt lat="47.08415" lon="-1.87444">
        <ele>69</ele>
        <time>2021-05-08T13:28:20.000Z</time>
      </trkpt>
      <trkpt lat="47.08414" lon="-1.87423">
        <ele>69</ele>
        <time>2021-05-08T13:28:22.000Z</time>
      </trkpt>
      <trkpt lat="47.08413" lon="-1.87402">
        <ele>68</ele>
        <time>2021-05-08T13:28:24.000Z</time>
      </trkpt>
      <trkpt lat="47.08412" lon="-1.87381">
        <ele>68</ele>
        <time>2021-05-08T13:28:26.000Z</time>
      </trkpt>
      <trkpt lat="47.08414" lon="-1.87361">
        <ele>68</ele>
        <time>2021-05-08T13:28:28.000Z</time>
      </trkpt>
      <trkpt lat="47.0842" lon="-1.87341">
        <ele>67</ele>
        <time>2021-05-08T13:28:30.000Z</time>
      </trkpt>
      <trkpt lat="47.08429" lon="-1.87327">
        <ele>67</ele>
        <time>2021-05-08T13:28:32.000Z</time>
      </trkpt>
      <trkpt lat="47.0844" lon="-1.87314">
        <ele>68</ele>
        <time>2021-05-08T13:28:34.000Z</time>
      </trkpt>
      <trkpt lat="47.08451" lon="-1.87301">
        <ele>68</ele>
        <time>2021-05-08T13:28:36.000Z</time>
      </trkpt>
      <trkpt lat="47.08463" lon="-1.87288">
        <ele>68</ele>
        <time>2021-05-08T13:28:38.000Z</time>
      </trkpt>
      <trkpt lat="47.08474" lon="-1.87276">
        <ele>68</ele>
        <time>2021-05-08T13:28:40.000Z</time>
      </trkpt>
      <trkpt lat="47.08486" lon="-1.87264">
        <ele>67</ele>
        <time>2021-05-08T13:28:42.000Z</time>
      </trkpt>
      <trkpt lat="47.08498" lon="-1.87252">
        <ele>67</ele>
        <time>2021-05-08T13:28:44.000Z</time>
      </trkpt>
      <trkpt lat="47.08511" lon="-1.8724">
        <ele>67</ele>
        <time>2021-05-08T13:28:46.000Z</time>
      </trkpt>
      <trkpt lat="47.08523" lon="-1.87228">
        <ele>68</ele>
        <time>2021-05-08T13:28:48.000Z</time>
      </trkpt>
      <trkpt lat="47.08535" lon="-1.87217">
        <ele>68</ele>
        <time>2021-05-08T13:28:50.000Z</time>
      </trkpt>
      <trkpt lat="47.08548" lon="-1.87205">
        <ele>68</ele>
        <time>2021-05-08T13:28:52.000Z</time>
      </trkpt>
      <trkpt lat="47.0856" lon="-1.87194">
        <ele>69</ele>
        <time>2021-05-08T13:28:54.000Z</time>
      </trkpt>
      <trkpt lat="47.08573" lon="-1.87183">
        <ele>68</ele>
        <time>2021-05-08T13:28:56.000Z</time>
      </trkpt>
      <trkpt lat="47.08586" lon="-1.87171">
        <ele>68</ele>
        <time>2021-05-08T13:28:58.000Z</time>
      </trkpt>
      <trkpt lat="47.08597" lon="-1.87159">
        <ele>68</ele>
        <time>2021-05-08T13:29:00.000Z</time>
      </trkpt>
      <trkpt lat="47.0861" lon="-1.87148">
        <ele>68</ele>
        <time>2021-05-08T13:29:02.000Z</time>
      </trkpt>
      <trkpt lat="47.08622" lon="-1.87136">
        <ele>69</ele>
        <time>2021-05-08T13:29:04.000Z</time>
      </trkpt>
      <trkpt lat="47.08635" lon="-1.87125">
        <ele>69</ele>
        <time>2021-05-08T13:29:06.000Z</time>
      </trkpt>
      <trkpt lat="47.08648" lon="-1.87116">
        <ele>69</ele>
        <time>2021-05-08T13:29:08.000Z</time>
      </trkpt>
      <trkpt lat="47.08661" lon="-1.87107">
        <ele>69</ele>
        <time>2021-05-08T13:29:10.000Z</time>
      </trkpt>
      <trkpt lat="47.08675" lon="-1.87101">
        <ele>70</ele>
        <time>2021-05-08T13:29:12.000Z</time>
      </trkpt>
      <trkpt lat="47.08689" lon="-1.87095">
        <ele>70</ele>
        <time>2021-05-08T13:29:14.000Z</time>
      </trkpt>
      <trkpt lat="47.08703" lon="-1.87092">
        <ele>69</ele>
        <time>2021-05-08T13:29:16.000Z</time>
      </trkpt>
      <trkpt lat="47.08718" lon="-1.8709">
        <ele>69</ele>
        <time>2021-05-08T13:29:18.000Z</time>
      </trkpt>
      <trkpt lat="47.08732" lon="-1.87089">
        <ele>69</ele>
        <time>2021-05-08T13:29:20.000Z</time>
      </trkpt>
      <trkpt lat="47.08747" lon="-1.87091">
        <ele>69</ele>
        <time>2021-05-08T13:29:22.000Z</time>
      </trkpt>
      <trkpt lat="47.08761" lon="-1.87093">
        <ele>69</ele>
        <time>2021-05-08T13:29:24.000Z</time>
      </trkpt>
      <trkpt lat="47.08775" lon="-1.87094">
        <ele>69</ele>
        <time>2021-05-08T13:29:26.000Z</time>
      </trkpt>
      <trkpt lat="47.08789" lon="-1.87096">
        <ele>68</ele>
        <time>2021-05-08T13:29:28.000Z</time>
      </trkpt>
      <trkpt lat="47.08803" lon="-1.87098">
        <ele>68</ele>
        <time>2021-05-08T13:29:30.000Z</time>
      </trkpt>
      <trkpt lat="47.08818" lon="-1.87098">
        <ele>69</ele>
        <time>2021-05-08T13:29:32.000Z</time>
      </trkpt>
      <trkpt lat="47.08832" lon="-1.87098">
        <ele>68</ele>
        <time>2021-05-08T13:29:34.000Z</time>
      </trkpt>
      <trkpt lat="47.08847" lon="-1.87098">
        <ele>68</ele>
        <time>2021-05-08T13:29:36.000Z</time>
      </trkpt>
      <trkpt lat="47.08862" lon="-1.87098">
        <ele>68</ele>
        <time>2021-05-08T13:29:38.000Z</time>
      </trkpt>
      <trkpt lat="47.08877" lon="-1.87097">
        <ele>68</ele>
        <time>2021-05-08T13:29:40.000Z</time>
      </trkpt>
      <trkpt lat="47.08891" lon="-1.87097">
        <ele>68</ele>
        <time>2021-05-08T13:29:42.000Z</time>
      </trkpt>
      <trkpt lat="47.08906" lon="-1.87097">
        <ele>68</ele>
        <time>2021-05-08T13:29:44.000Z</time>
      </trkpt>
      <trkpt lat="47.08921" lon="-1.87097">
        <ele>68</ele>
        <time>2021-05-08T13:29:46.000Z</time>
      </trkpt>
      <trkpt lat="47.08936" lon="-1.87096">
        <ele>67</ele>
        <time>2021-05-08T13:29:48.000Z</time>
      </trkpt>
      <trkpt lat="47.0895" lon="-1.87089">
        <ele>67</ele>
        <time>2021-05-08T13:29:50.000Z</time>
      </trkpt>
      <trkpt lat="47.0896" lon="-1.87074">
        <ele>67</ele>
        <time>2021-05-08T13:29:52.000Z</time>
      </trkpt>
      <trkpt lat="47.08965" lon="-1.87053">
        <ele>67</ele>
        <time>2021-05-08T13:29:54.000Z</time>
      </trkpt>
      <trkpt lat="47.08965" lon="-1.87031">
        <ele>67</ele>
        <time>2021-05-08T13:29:56.000Z</time>
      </trkpt>
      <trkpt lat="47.08964" lon="-1.87009">
        <ele>67</ele>
        <time>2021-05-08T13:29:58.000Z</time>
      </trkpt>
      <trkpt lat="47.08963" lon="-1.86989">
        <ele>66</ele>
        <time>2021-05-08T13:30:00.000Z</time>
      </trkpt>
      <trkpt lat="47.08961" lon="-1.86967">
        <ele>66</ele>
        <time>2021-05-08T13:30:02.000Z</time>
      </trkpt>
      <trkpt lat="47.08959" lon="-1.86947">
        <ele>66</ele>
        <time>2021-05-08T13:30:04.000Z</time>
      </trkpt>
      <trkpt lat="47.08956" lon="-1.86926">
        <ele>66</ele>
        <time>2021-05-08T13:30:06.000Z</time>
      </trkpt>
      <trkpt lat="47.08953" lon="-1.86906">
        <ele>66</ele>
        <time>2021-05-08T13:30:08.000Z</time>
      </trkpt>
      <trkpt lat="47.0895" lon="-1.86886">
        <ele>66</ele>
        <time>2021-05-08T13:30:10.000Z</time>
      </trkpt>
      <trkpt lat="47.0895" lon="-1.86864">
        <ele>66</ele>
        <time>2021-05-08T13:30:12.000Z</time>
      </trkpt>
      <trkpt lat="47.08954" lon="-1.86844">
        <ele>65</ele>
        <time>2021-05-08T13:30:14.000Z</time>
      </trkpt>
      <trkpt lat="47.0896" lon="-1.86823">
        <ele>65</ele>
        <time>2021-05-08T13:30:16.000Z</time>
      </trkpt>
      <trkpt lat="47.08966" lon="-1.86805">
        <ele>64</ele>
        <time>2021-05-08T13:30:18.000Z</time>
      </trkpt>
      <trkpt lat="47.08973" lon="-1.86786">
        <ele>65</ele>
        <time>2021-05-08T13:30:20.000Z</time>
      </trkpt>
      <trkpt lat="47.08979" lon="-1.86768">
        <ele>65</ele>
        <time>2021-05-08T13:30:22.000Z</time>
      </trkpt>
      <trkpt lat="47.08986" lon="-1.8675">
        <ele>65</ele>
        <time>2021-05-08T13:30:24.000Z</time>
      </trkpt>
      <trkpt lat="47.08993" lon="-1.86732">
        <ele>65</ele>
        <time>2021-05-08T13:30:26.000Z</time>
      </trkpt>
      <trkpt lat="47.09001" lon="-1.86715">
        <ele>65</ele>
        <time>2021-05-08T13:30:28.000Z</time>
      </trkpt>
      <trkpt lat="47.0901" lon="-1.86698">
        <ele>65</ele>
        <time>2021-05-08T13:30:30.000Z</time>
      </trkpt>
      <trkpt lat="47.09019" lon="-1.86682">
        <ele>65</ele>
        <time>2021-05-08T13:30:32.000Z</time>
      </trkpt>
      <trkpt lat="47.09029" lon="-1.86667">
        <ele>65</ele>
        <time>2021-05-08T13:30:34.000Z</time>
      </trkpt>
      <trkpt lat="47.09039" lon="-1.86651">
        <ele>65</ele>
        <time>2021-05-08T13:30:36.000Z</time>
      </trkpt>
      <trkpt lat="47.09047" lon="-1.86633">
        <ele>65</ele>
        <time>2021-05-08T13:30:38.000Z</time>
      </trkpt>
      <trkpt lat="47.0905" lon="-1.86612">
        <ele>65</ele>
        <time>2021-05-08T13:30:40.000Z</time>
      </trkpt>
      <trkpt lat="47.09047" lon="-1.86592">
        <ele>65</ele>
        <time>2021-05-08T13:30:42.000Z</time>
      </trkpt>
      <trkpt lat="47.09044" lon="-1.86572">
        <ele>64</ele>
        <time>2021-05-08T13:30:44.000Z</time>
      </trkpt>
      <trkpt lat="47.0904" lon="-1.86552">
        <ele>64</ele>
        <time>2021-05-08T13:30:46.000Z</time>
      </trkpt>
      <trkpt lat="47.09037" lon="-1.86532">
        <ele>64</ele>
        <time>2021-05-08T13:30:48.000Z</time>
      </trkpt>
      <trkpt lat="47.09035" lon="-1.86512">
        <ele>64</ele>
        <time>2021-05-08T13:30:50.000Z</time>
      </trkpt>
      <trkpt lat="47.09032" lon="-1.86491">
        <ele>64</ele>
        <time>2021-05-08T13:30:52.000Z</time>
      </trkpt>
      <trkpt lat="47.09029" lon="-1.86471">
        <ele>64</ele>
        <time>2021-05-08T13:30:54.000Z</time>
      </trkpt>
      <trkpt lat="47.09029" lon="-1.86451">
        <ele>63</ele>
        <time>2021-05-08T13:30:56.000Z</time>
      </trkpt>
      <trkpt lat="47.09036" lon="-1.86433">
        <ele>63</ele>
        <time>2021-05-08T13:30:58.000Z</time>
      </trkpt>
      <trkpt lat="47.0905" lon="-1.86425">
        <ele>64</ele>
        <time>2021-05-08T13:31:00.000Z</time>
      </trkpt>
      <trkpt lat="47.09065" lon="-1.86424">
        <ele>63</ele>
        <time>2021-05-08T13:31:02.000Z</time>
      </trkpt>
      <trkpt lat="47.0908" lon="-1.86426">
        <ele>63</ele>
        <time>2021-05-08T13:31:04.000Z</time>
      </trkpt>
      <trkpt lat="47.09094" lon="-1.86427">
        <ele>63</ele>
        <time>2021-05-08T13:31:06.000Z</time>
      </trkpt>
      <trkpt lat="47.09109" lon="-1.86428">
        <ele>63</ele>
        <time>2021-05-08T13:31:08.000Z</time>
      </trkpt>
      <trkpt lat="47.09123" lon="-1.8643">
        <ele>63</ele>
        <time>2021-05-08T13:31:10.000Z</time>
      </trkpt>
      <trkpt lat="47.09137" lon="-1.8643">
        <ele>63</ele>
        <time>2021-05-08T13:31:12.000Z</time>
      </trkpt>
      <trkpt lat="47.09152" lon="-1.86428">
        <ele>63</ele>
        <time>2021-05-08T13:31:14.000Z</time>
      </trkpt>
      <trkpt lat="47.09166" lon="-1.86425">
        <ele>63</ele>
        <time>2021-05-08T13:31:16.000Z</time>
      </trkpt>
      <trkpt lat="47.0918" lon="-1.8642">
        <ele>63</ele>
        <time>2021-05-08T13:31:18.000Z</time>
      </trkpt>
      <trkpt lat="47.09193" lon="-1.86414">
        <ele>62</ele>
        <time>2021-05-08T13:31:20.000Z</time>
      </trkpt>
      <trkpt lat="47.09207" lon="-1.86405">
        <ele>62</ele>
        <time>2021-05-08T13:31:22.000Z</time>
      </trkpt>
      <trkpt lat="47.09221" lon="-1.86396">
        <ele>62</ele>
        <time>2021-05-08T13:31:24.000Z</time>
      </trkpt>
      <trkpt lat="47.09235" lon="-1.86387">
        <ele>61</ele>
        <time>2021-05-08T13:31:26.000Z</time>
      </trkpt>
      <trkpt lat="47.09248" lon="-1.86378">
        <ele>61</ele>
        <time>2021-05-08T13:31:28.000Z</time>
      </trkpt>
      <trkpt lat="47.09261" lon="-1.8637">
        <ele>61</ele>
        <time>2021-05-08T13:31:30.000Z</time>
      </trkpt>
      <trkpt lat="47.09274" lon="-1.86359">
        <ele>61</ele>
        <time>2021-05-08T13:31:32.000Z</time>
      </trkpt>
      <trkpt lat="47.09282" lon="-1.86343">
        <ele>61</ele>
        <time>2021-05-08T13:31:34.000Z</time>
      </trkpt>
      <trkpt lat="47.09278" lon="-1.86324">
        <ele>61</ele>
        <time>2021-05-08T13:31:36.000Z</time>
      </trkpt>
      <trkpt lat="47.09269" lon="-1.86311">
        <ele>62</ele>
        <time>2021-05-08T13:31:38.000Z</time>
      </trkpt>
      <trkpt lat="47.09263" lon="-1.86293">
        <ele>62</ele>
        <time>2021-05-08T13:31:40.000Z</time>
      </trkpt>
      <trkpt lat="47.09259" lon="-1.86274">
        <ele>62</ele>
        <time>2021-05-08T13:31:42.000Z</time>
      </trkpt>
      <trkpt lat="47.09254" lon="-1.86253">
        <ele>61</ele>
        <time>2021-05-08T13:31:44.000Z</time>
      </trkpt>
      <trkpt lat="47.0925" lon="-1.86234">
        <ele>62</ele>
        <time>2021-05-08T13:31:46.000Z</time>
      </trkpt>
      <trkpt lat="47.09247" lon="-1.86214">
        <ele>62</ele>
        <time>2021-05-08T13:31:48.000Z</time>
      </trkpt>
      <trkpt lat="47.09243" lon="-1.86194">
        <ele>62</ele>
        <time>2021-05-08T13:31:50.000Z</time>
      </trkpt>
      <trkpt lat="47.09239" lon="-1.86176">
        <ele>62</ele>
        <time>2021-05-08T13:31:52.000Z</time>
      </trkpt>
      <trkpt lat="47.09237" lon="-1.86157">
        <ele>62</ele>
        <time>2021-05-08T13:31:54.000Z</time>
      </trkpt>
      <trkpt lat="47.09233" lon="-1.8614">
        <ele>62</ele>
        <time>2021-05-08T13:31:56.000Z</time>
      </trkpt>
      <trkpt lat="47.0923" lon="-1.86123">
        <ele>62</ele>
        <time>2021-05-08T13:31:58.000Z</time>
      </trkpt>
      <trkpt lat="47.09226" lon="-1.86106">
        <ele>62</ele>
        <time>2021-05-08T13:32:00.000Z</time>
      </trkpt>
      <trkpt lat="47.09222" lon="-1.86087">
        <ele>62</ele>
        <time>2021-05-08T13:32:02.000Z</time>
      </trkpt>
      <trkpt lat="47.09217" lon="-1.8607">
        <ele>62</ele>
        <time>2021-05-08T13:32:04.000Z</time>
      </trkpt>
      <trkpt lat="47.0921" lon="-1.86056">
        <ele>63</ele>
        <time>2021-05-08T13:32:06.000Z</time>
      </trkpt>
      <trkpt lat="47.09208" lon="-1.86038">
        <ele>63</ele>
        <time>2021-05-08T13:32:08.000Z</time>
      </trkpt>
      <trkpt lat="47.09206" lon="-1.86019">
        <ele>63</ele>
        <time>2021-05-08T13:32:10.000Z</time>
      </trkpt>
      <trkpt lat="47.09203" lon="-1.86001">
        <ele>63</ele>
        <time>2021-05-08T13:32:12.000Z</time>
      </trkpt>
      <trkpt lat="47.092" lon="-1.8598">
        <ele>63</ele>
        <time>2021-05-08T13:32:14.000Z</time>
      </trkpt>
      <trkpt lat="47.09198" lon="-1.85961">
        <ele>63</ele>
        <time>2021-05-08T13:32:16.000Z</time>
      </trkpt>
      <trkpt lat="47.09195" lon="-1.85942">
        <ele>63</ele>
        <time>2021-05-08T13:32:18.000Z</time>
      </trkpt>
      <trkpt lat="47.09191" lon="-1.85923">
        <ele>63</ele>
        <time>2021-05-08T13:32:20.000Z</time>
      </trkpt>
      <trkpt lat="47.09187" lon="-1.85906">
        <ele>63</ele>
        <time>2021-05-08T13:32:22.000Z</time>
      </trkpt>
      <trkpt lat="47.09183" lon="-1.85888">
        <ele>63</ele>
        <time>2021-05-08T13:32:24.000Z</time>
      </trkpt>
      <trkpt lat="47.0918" lon="-1.85871">
        <ele>63</ele>
        <time>2021-05-08T13:32:26.000Z</time>
      </trkpt>
      <trkpt lat="47.09176" lon="-1.85853">
        <ele>63</ele>
        <time>2021-05-08T13:32:28.000Z</time>
      </trkpt>
      <trkpt lat="47.09172" lon="-1.85835">
        <ele>64</ele>
        <time>2021-05-08T13:32:30.000Z</time>
      </trkpt>
      <trkpt lat="47.09167" lon="-1.85816">
        <ele>64</ele>
        <time>2021-05-08T13:32:32.000Z</time>
      </trkpt>
      <trkpt lat="47.09163" lon="-1.85799">
        <ele>64</ele>
        <time>2021-05-08T13:32:34.000Z</time>
      </trkpt>
      <trkpt lat="47.09158" lon="-1.8578">
        <ele>64</ele>
        <time>2021-05-08T13:32:36.000Z</time>
      </trkpt>
      <trkpt lat="47.09153" lon="-1.85761">
        <ele>64</ele>
        <time>2021-05-08T13:32:38.000Z</time>
      </trkpt>
      <trkpt lat="47.09148" lon="-1.85744">
        <ele>64</ele>
        <time>2021-05-08T13:32:40.000Z</time>
      </trkpt>
      <trkpt lat="47.09143" lon="-1.85725">
        <ele>64</ele>
        <time>2021-05-08T13:32:42.000Z</time>
      </trkpt>
      <trkpt lat="47.09138" lon="-1.85707">
        <ele>64</ele>
        <time>2021-05-08T13:32:44.000Z</time>
      </trkpt>
      <trkpt lat="47.09133" lon="-1.85689">
        <ele>64</ele>
        <time>2021-05-08T13:32:46.000Z</time>
      </trkpt>
      <trkpt lat="47.09128" lon="-1.8567">
        <ele>63</ele>
        <time>2021-05-08T13:32:48.000Z</time>
      </trkpt>
      <trkpt lat="47.09123" lon="-1.85651">
        <ele>63</ele>
        <time>2021-05-08T13:32:50.000Z</time>
      </trkpt>
      <trkpt lat="47.09121" lon="-1.85633">
        <ele>63</ele>
        <time>2021-05-08T13:32:52.000Z</time>
      </trkpt>
      <trkpt lat="47.09124" lon="-1.85615">
        <ele>63</ele>
        <time>2021-05-08T13:32:54.000Z</time>
      </trkpt>
      <trkpt lat="47.09134" lon="-1.85601">
        <ele>64</ele>
        <time>2021-05-08T13:32:56.000Z</time>
      </trkpt>
      <trkpt lat="47.09145" lon="-1.85588">
        <ele>64</ele>
        <time>2021-05-08T13:32:58.000Z</time>
      </trkpt>
      <trkpt lat="47.09156" lon="-1.85575">
        <ele>64</ele>
        <time>2021-05-08T13:33:00.000Z</time>
      </trkpt>
      <trkpt lat="47.09167" lon="-1.85562">
        <ele>64</ele>
        <time>2021-05-08T13:33:02.000Z</time>
      </trkpt>
      <trkpt lat="47.09179" lon="-1.85549">
        <ele>64</ele>
        <time>2021-05-08T13:33:04.000Z</time>
      </trkpt>
      <trkpt lat="47.09191" lon="-1.85536">
        <ele>64</ele>
        <time>2021-05-08T13:33:06.000Z</time>
      </trkpt>
      <trkpt lat="47.09202" lon="-1.85523">
        <ele>64</ele>
        <time>2021-05-08T13:33:08.000Z</time>
      </trkpt>
      <trkpt lat="47.09213" lon="-1.85509">
        <ele>65</ele>
        <time>2021-05-08T13:33:10.000Z</time>
      </trkpt>
      <trkpt lat="47.09222" lon="-1.85492">
        <ele>64</ele>
        <time>2021-05-08T13:33:12.000Z</time>
      </trkpt>
      <trkpt lat="47.09226" lon="-1.85473">
        <ele>64</ele>
        <time>2021-05-08T13:33:14.000Z</time>
      </trkpt>
      <trkpt lat="47.09228" lon="-1.85452">
        <ele>64</ele>
        <time>2021-05-08T13:33:16.000Z</time>
      </trkpt>
      <trkpt lat="47.09228" lon="-1.85432">
        <ele>64</ele>
        <time>2021-05-08T13:33:18.000Z</time>
      </trkpt>
      <trkpt lat="47.09228" lon="-1.85411">
        <ele>64</ele>
        <time>2021-05-08T13:33:20.000Z</time>
      </trkpt>
      <trkpt lat="47.09229" lon="-1.85391">
        <ele>64</ele>
        <time>2021-05-08T13:33:22.000Z</time>
      </trkpt>
      <trkpt lat="47.09229" lon="-1.85369">
        <ele>64</ele>
        <time>2021-05-08T13:33:24.000Z</time>
      </trkpt>
      <trkpt lat="47.09229" lon="-1.85348">
        <ele>64</ele>
        <time>2021-05-08T13:33:26.000Z</time>
      </trkpt>
      <trkpt lat="47.09229" lon="-1.85326">
        <ele>63</ele>
        <time>2021-05-08T13:33:28.000Z</time>
      </trkpt>
      <trkpt lat="47.0923" lon="-1.85305">
        <ele>63</ele>
        <time>2021-05-08T13:33:30.000Z</time>
      </trkpt>
      <trkpt lat="47.09231" lon="-1.85283">
        <ele>63</ele>
        <time>2021-05-08T13:33:32.000Z</time>
      </trkpt>
      <trkpt lat="47.09231" lon="-1.85263">
        <ele>63</ele>
        <time>2021-05-08T13:33:34.000Z</time>
      </trkpt>
      <trkpt lat="47.09231" lon="-1.85241">
        <ele>63</ele>
        <time>2021-05-08T13:33:36.000Z</time>
      </trkpt>
      <trkpt lat="47.09233" lon="-1.85221">
        <ele>63</ele>
        <time>2021-05-08T13:33:38.000Z</time>
      </trkpt>
      <trkpt lat="47.09236" lon="-1.85201">
        <ele>63</ele>
        <time>2021-05-08T13:33:40.000Z</time>
      </trkpt>
      <trkpt lat="47.09242" lon="-1.85182">
        <ele>63</ele>
        <time>2021-05-08T13:33:42.000Z</time>
      </trkpt>
      <trkpt lat="47.0925" lon="-1.85165">
        <ele>62</ele>
        <time>2021-05-08T13:33:44.000Z</time>
      </trkpt>
      <trkpt lat="47.09259" lon="-1.8515">
        <ele>62</ele>
        <time>2021-05-08T13:33:46.000Z</time>
      </trkpt>
      <trkpt lat="47.09269" lon="-1.85135">
        <ele>62</ele>
        <time>2021-05-08T13:33:48.000Z</time>
      </trkpt>
      <trkpt lat="47.0928" lon="-1.85121">
        <ele>62</ele>
        <time>2021-05-08T13:33:50.000Z</time>
      </trkpt>
      <trkpt lat="47.0929" lon="-1.85109">
        <ele>62</ele>
        <time>2021-05-08T13:33:52.000Z</time>
      </trkpt>
      <trkpt lat="47.09301" lon="-1.85096">
        <ele>62</ele>
        <time>2021-05-08T13:33:54.000Z</time>
      </trkpt>
      <trkpt lat="47.09312" lon="-1.85086">
        <ele>62</ele>
        <time>2021-05-08T13:33:56.000Z</time>
      </trkpt>
      <trkpt lat="47.09324" lon="-1.85076">
        <ele>62</ele>
        <time>2021-05-08T13:33:58.000Z</time>
      </trkpt>
      <trkpt lat="47.09336" lon="-1.85069">
        <ele>63</ele>
        <time>2021-05-08T13:34:00.000Z</time>
      </trkpt>
      <trkpt lat="47.09348" lon="-1.85062">
        <ele>64</ele>
        <time>2021-05-08T13:34:02.000Z</time>
      </trkpt>
      <trkpt lat="47.09361" lon="-1.85054">
        <ele>64</ele>
        <time>2021-05-08T13:34:04.000Z</time>
      </trkpt>
      <trkpt lat="47.09373" lon="-1.85047">
        <ele>64</ele>
        <time>2021-05-08T13:34:06.000Z</time>
      </trkpt>
      <trkpt lat="47.09386" lon="-1.85041">
        <ele>64</ele>
        <time>2021-05-08T13:34:08.000Z</time>
      </trkpt>
      <trkpt lat="47.09399" lon="-1.85034">
        <ele>64</ele>
        <time>2021-05-08T13:34:10.000Z</time>
      </trkpt>
      <trkpt lat="47.09411" lon="-1.85026">
        <ele>65</ele>
        <time>2021-05-08T13:34:12.000Z</time>
      </trkpt>
      <trkpt lat="47.09422" lon="-1.85018">
        <ele>65</ele>
        <time>2021-05-08T13:34:14.000Z</time>
      </trkpt>
      <trkpt lat="47.09434" lon="-1.85009">
        <ele>66</ele>
        <time>2021-05-08T13:34:16.000Z</time>
      </trkpt>
      <trkpt lat="47.09446" lon="-1.85">
        <ele>66</ele>
        <time>2021-05-08T13:34:18.000Z</time>
      </trkpt>
      <trkpt lat="47.09458" lon="-1.8499">
        <ele>67</ele>
        <time>2021-05-08T13:34:20.000Z</time>
      </trkpt>
      <trkpt lat="47.09469" lon="-1.84981">
        <ele>68</ele>
        <time>2021-05-08T13:34:22.000Z</time>
      </trkpt>
      <trkpt lat="47.09481" lon="-1.84973">
        <ele>68</ele>
        <time>2021-05-08T13:34:24.000Z</time>
      </trkpt>
      <trkpt lat="47.09494" lon="-1.84965">
        <ele>69</ele>
        <time>2021-05-08T13:34:26.000Z</time>
      </trkpt>
      <trkpt lat="47.09506" lon="-1.84956">
        <ele>69</ele>
        <time>2021-05-08T13:34:28.000Z</time>
      </trkpt>
      <trkpt lat="47.09519" lon="-1.84949">
        <ele>68</ele>
        <time>2021-05-08T13:34:30.000Z</time>
      </trkpt>
      <trkpt lat="47.09533" lon="-1.84942">
        <ele>68</ele>
        <time>2021-05-08T13:34:32.000Z</time>
      </trkpt>
      <trkpt lat="47.09547" lon="-1.84937">
        <ele>67</ele>
        <time>2021-05-08T13:34:34.000Z</time>
      </trkpt>
      <trkpt lat="47.09562" lon="-1.84933">
        <ele>68</ele>
        <time>2021-05-08T13:34:36.000Z</time>
      </trkpt>
      <trkpt lat="47.09577" lon="-1.8493">
        <ele>68</ele>
        <time>2021-05-08T13:34:38.000Z</time>
      </trkpt>
      <trkpt lat="47.09591" lon="-1.84929">
        <ele>67</ele>
        <time>2021-05-08T13:34:40.000Z</time>
      </trkpt>
      <trkpt lat="47.09606" lon="-1.84928">
        <ele>67</ele>
        <time>2021-05-08T13:34:42.000Z</time>
      </trkpt>
      <trkpt lat="47.0962" lon="-1.84929">
        <ele>66</ele>
        <time>2021-05-08T13:34:44.000Z</time>
      </trkpt>
      <trkpt lat="47.09634" lon="-1.84929">
        <ele>66</ele>
        <time>2021-05-08T13:34:46.000Z</time>
      </trkpt>
      <trkpt lat="47.09648" lon="-1.84931">
        <ele>66</ele>
        <time>2021-05-08T13:34:48.000Z</time>
      </trkpt>
      <trkpt lat="47.09662" lon="-1.84933">
        <ele>67</ele>
        <time>2021-05-08T13:34:50.000Z</time>
      </trkpt>
      <trkpt lat="47.09677" lon="-1.84935">
        <ele>67</ele>
        <time>2021-05-08T13:34:52.000Z</time>
      </trkpt>
      <trkpt lat="47.09692" lon="-1.84936">
        <ele>66</ele>
        <time>2021-05-08T13:34:54.000Z</time>
      </trkpt>
      <trkpt lat="47.09707" lon="-1.84937">
        <ele>66</ele>
        <time>2021-05-08T13:34:56.000Z</time>
      </trkpt>
      <trkpt lat="47.09722" lon="-1.84939">
        <ele>66</ele>
        <time>2021-05-08T13:34:58.000Z</time>
      </trkpt>
      <trkpt lat="47.09737" lon="-1.84941">
        <ele>66</ele>
        <time>2021-05-08T13:35:00.000Z</time>
      </trkpt>
      <trkpt lat="47.09751" lon="-1.84942">
        <ele>66</ele>
        <time>2021-05-08T13:35:02.000Z</time>
      </trkpt>
      <trkpt lat="47.09765" lon="-1.84942">
        <ele>66</ele>
        <time>2021-05-08T13:35:04.000Z</time>
      </trkpt>
      <trkpt lat="47.0978" lon="-1.84942">
        <ele>66</ele>
        <time>2021-05-08T13:35:06.000Z</time>
      </trkpt>
      <trkpt lat="47.09794" lon="-1.84941">
        <ele>66</ele>
        <time>2021-05-08T13:35:08.000Z</time>
      </trkpt>
      <trkpt lat="47.09808" lon="-1.84939">
        <ele>66</ele>
        <time>2021-05-08T13:35:10.000Z</time>
      </trkpt>
      <trkpt lat="47.09823" lon="-1.84938">
        <ele>66</ele>
        <time>2021-05-08T13:35:12.000Z</time>
      </trkpt>
      <trkpt lat="47.09837" lon="-1.84936">
        <ele>65</ele>
        <time>2021-05-08T13:35:14.000Z</time>
      </trkpt>
      <trkpt lat="47.09851" lon="-1.84937">
        <ele>65</ele>
        <time>2021-05-08T13:35:16.000Z</time>
      </trkpt>
      <trkpt lat="47.09865" lon="-1.84938">
        <ele>65</ele>
        <time>2021-05-08T13:35:18.000Z</time>
      </trkpt>
      <trkpt lat="47.09879" lon="-1.8494">
        <ele>64</ele>
        <time>2021-05-08T13:35:20.000Z</time>
      </trkpt>
      <trkpt lat="47.09892" lon="-1.84942">
        <ele>64</ele>
        <time>2021-05-08T13:35:22.000Z</time>
      </trkpt>
      <trkpt lat="47.09905" lon="-1.84945">
        <ele>63</ele>
        <time>2021-05-08T13:35:24.000Z</time>
      </trkpt>
      <trkpt lat="47.09916" lon="-1.84943">
        <ele>63</ele>
        <time>2021-05-08T13:35:26.000Z</time>
      </trkpt>
      <trkpt lat="47.0992" lon="-1.84929">
        <ele>62</ele>
        <time>2021-05-08T13:35:28.000Z</time>
      </trkpt>
      <trkpt lat="47.09918" lon="-1.84912">
        <ele>62</ele>
        <time>2021-05-08T13:35:30.000Z</time>
      </trkpt>
      <trkpt lat="47.09916" lon="-1.84893">
        <ele>62</ele>
        <time>2021-05-08T13:35:32.000Z</time>
      </trkpt>
      <trkpt lat="47.09915" lon="-1.84873">
        <ele>61</ele>
        <time>2021-05-08T13:35:34.000Z</time>
      </trkpt>
      <trkpt lat="47.09914" lon="-1.84853">
        <ele>62</ele>
        <time>2021-05-08T13:35:36.000Z</time>
      </trkpt>
      <trkpt lat="47.09913" lon="-1.84834">
        <ele>62</ele>
        <time>2021-05-08T13:35:38.000Z</time>
      </trkpt>
      <trkpt lat="47.09912" lon="-1.84815">
        <ele>63</ele>
        <time>2021-05-08T13:35:40.000Z</time>
      </trkpt>
      <trkpt lat="47.09911" lon="-1.84796">
        <ele>63</ele>
        <time>2021-05-08T13:35:42.000Z</time>
      </trkpt>
      <trkpt lat="47.0991" lon="-1.84776">
        <ele>63</ele>
        <time>2021-05-08T13:35:44.000Z</time>
      </trkpt>
      <trkpt lat="47.09909" lon="-1.84758">
        <ele>63</ele>
        <time>2021-05-08T13:35:46.000Z</time>
      </trkpt>
      <trkpt lat="47.09908" lon="-1.84741">
        <ele>64</ele>
        <time>2021-05-08T13:35:48.000Z</time>
      </trkpt>
      <trkpt lat="47.09906" lon="-1.84724">
        <ele>64</ele>
        <time>2021-05-08T13:35:50.000Z</time>
      </trkpt>
      <trkpt lat="47.09905" lon="-1.84706">
        <ele>64</ele>
        <time>2021-05-08T13:35:52.000Z</time>
      </trkpt>
      <trkpt lat="47.09904" lon="-1.84689">
        <ele>64</ele>
        <time>2021-05-08T13:35:54.000Z</time>
      </trkpt>
      <trkpt lat="47.09903" lon="-1.84671">
        <ele>64</ele>
        <time>2021-05-08T13:35:56.000Z</time>
      </trkpt>
      <trkpt lat="47.09902" lon="-1.84653">
        <ele>65</ele>
        <time>2021-05-08T13:35:58.000Z</time>
      </trkpt>
      <trkpt lat="47.09902" lon="-1.84635">
        <ele>65</ele>
        <time>2021-05-08T13:36:00.000Z</time>
      </trkpt>
      <trkpt lat="47.09901" lon="-1.84617">
        <ele>65</ele>
        <time>2021-05-08T13:36:02.000Z</time>
      </trkpt>
      <trkpt lat="47.099" lon="-1.84599">
        <ele>65</ele>
        <time>2021-05-08T13:36:04.000Z</time>
      </trkpt>
      <trkpt lat="47.09899" lon="-1.84581">
        <ele>65</ele>
        <time>2021-05-08T13:36:06.000Z</time>
      </trkpt>
      <trkpt lat="47.09898" lon="-1.84564">
        <ele>65</ele>
        <time>2021-05-08T13:36:08.000Z</time>
      </trkpt>
      <trkpt lat="47.09896" lon="-1.84546">
        <ele>65</ele>
        <time>2021-05-08T13:36:10.000Z</time>
      </trkpt>
      <trkpt lat="47.09894" lon="-1.84528">
        <ele>65</ele>
        <time>2021-05-08T13:36:12.000Z</time>
      </trkpt>
      <trkpt lat="47.09892" lon="-1.8451">
        <ele>65</ele>
        <time>2021-05-08T13:36:14.000Z</time>
      </trkpt>
      <trkpt lat="47.0989" lon="-1.84493">
        <ele>66</ele>
        <time>2021-05-08T13:36:16.000Z</time>
      </trkpt>
      <trkpt lat="47.09888" lon="-1.84475">
        <ele>65</ele>
        <time>2021-05-08T13:36:18.000Z</time>
      </trkpt>
      <trkpt lat="47.09886" lon="-1.84456">
        <ele>65</ele>
        <time>2021-05-08T13:36:20.000Z</time>
      </trkpt>
      <trkpt lat="47.09885" lon="-1.84438">
        <ele>65</ele>
        <time>2021-05-08T13:36:22.000Z</time>
      </trkpt>
      <trkpt lat="47.09884" lon="-1.84419">
        <ele>65</ele>
        <time>2021-05-08T13:36:24.000Z</time>
      </trkpt>
      <trkpt lat="47.09885" lon="-1.844">
        <ele>65</ele>
        <time>2021-05-08T13:36:26.000Z</time>
      </trkpt>
      <trkpt lat="47.09885" lon="-1.84381">
        <ele>65</ele>
        <time>2021-05-08T13:36:28.000Z</time>
      </trkpt>
      <trkpt lat="47.09885" lon="-1.84362">
        <ele>65</ele>
        <time>2021-05-08T13:36:30.000Z</time>
      </trkpt>
      <trkpt lat="47.09885" lon="-1.84343">
        <ele>65</ele>
        <time>2021-05-08T13:36:32.000Z</time>
      </trkpt>
      <trkpt lat="47.09886" lon="-1.84324">
        <ele>65</ele>
        <time>2021-05-08T13:36:34.000Z</time>
      </trkpt>
      <trkpt lat="47.09886" lon="-1.84304">
        <ele>65</ele>
        <time>2021-05-08T13:36:36.000Z</time>
      </trkpt>
      <trkpt lat="47.09886" lon="-1.84285">
        <ele>64</ele>
        <time>2021-05-08T13:36:38.000Z</time>
      </trkpt>
      <trkpt lat="47.09885" lon="-1.84266">
        <ele>64</ele>
        <time>2021-05-08T13:36:40.000Z</time>
      </trkpt>
      <trkpt lat="47.09884" lon="-1.84246">
        <ele>64</ele>
        <time>2021-05-08T13:36:42.000Z</time>
      </trkpt>
      <trkpt lat="47.09882" lon="-1.84226">
        <ele>64</ele>
        <time>2021-05-08T13:36:44.000Z</time>
      </trkpt>
      <trkpt lat="47.0988" lon="-1.84207">
        <ele>64</ele>
        <time>2021-05-08T13:36:46.000Z</time>
      </trkpt>
      <trkpt lat="47.09878" lon="-1.84187">
        <ele>64</ele>
        <time>2021-05-08T13:36:48.000Z</time>
      </trkpt>
      <trkpt lat="47.09874" lon="-1.84168">
        <ele>64</ele>
        <time>2021-05-08T13:36:50.000Z</time>
      </trkpt>
      <trkpt lat="47.09871" lon="-1.84148">
        <ele>63</ele>
        <time>2021-05-08T13:36:52.000Z</time>
      </trkpt>
      <trkpt lat="47.09868" lon="-1.84128">
        <ele>63</ele>
        <time>2021-05-08T13:36:54.000Z</time>
      </trkpt>
      <trkpt lat="47.09865" lon="-1.84107">
        <ele>63</ele>
        <time>2021-05-08T13:36:56.000Z</time>
      </trkpt>
      <trkpt lat="47.09862" lon="-1.84086">
        <ele>63</ele>
        <time>2021-05-08T13:36:58.000Z</time>
      </trkpt>
      <trkpt lat="47.09858" lon="-1.84065">
        <ele>62</ele>
        <time>2021-05-08T13:37:00.000Z</time>
      </trkpt>
      <trkpt lat="47.09855" lon="-1.84044">
        <ele>62</ele>
        <time>2021-05-08T13:37:02.000Z</time>
      </trkpt>
      <trkpt lat="47.09851" lon="-1.84022">
        <ele>62</ele>
        <time>2021-05-08T13:37:04.000Z</time>
      </trkpt>
      <trkpt lat="47.09848" lon="-1.84">
        <ele>61</ele>
        <time>2021-05-08T13:37:06.000Z</time>
      </trkpt>
      <trkpt lat="47.09847" lon="-1.83978">
        <ele>61</ele>
        <time>2021-05-08T13:37:08.000Z</time>
      </trkpt>
      <trkpt lat="47.09847" lon="-1.83955">
        <ele>61</ele>
        <time>2021-05-08T13:37:10.000Z</time>
      </trkpt>
      <trkpt lat="47.09848" lon="-1.83934">
        <ele>60</ele>
        <time>2021-05-08T13:37:12.000Z</time>
      </trkpt>
      <trkpt lat="47.09849" lon="-1.83912">
        <ele>60</ele>
        <time>2021-05-08T13:37:14.000Z</time>
      </trkpt>
      <trkpt lat="47.09851" lon="-1.8389">
        <ele>60</ele>
        <time>2021-05-08T13:37:16.000Z</time>
      </trkpt>
      <trkpt lat="47.09853" lon="-1.83867">
        <ele>60</ele>
        <time>2021-05-08T13:37:18.000Z</time>
      </trkpt>
      <trkpt lat="47.09854" lon="-1.83844">
        <ele>60</ele>
        <time>2021-05-08T13:37:20.000Z</time>
      </trkpt>
      <trkpt lat="47.09855" lon="-1.83822">
        <ele>59</ele>
        <time>2021-05-08T13:37:22.000Z</time>
      </trkpt>
      <trkpt lat="47.09856" lon="-1.838">
        <ele>60</ele>
        <time>2021-05-08T13:37:24.000Z</time>
      </trkpt>
      <trkpt lat="47.09856" lon="-1.83778">
        <ele>60</ele>
        <time>2021-05-08T13:37:26.000Z</time>
      </trkpt>
      <trkpt lat="47.09857" lon="-1.83756">
        <ele>59</ele>
        <time>2021-05-08T13:37:28.000Z</time>
      </trkpt>
      <trkpt lat="47.09857" lon="-1.83734">
        <ele>59</ele>
        <time>2021-05-08T13:37:30.000Z</time>
      </trkpt>
      <trkpt lat="47.09858" lon="-1.83712">
        <ele>59</ele>
        <time>2021-05-08T13:37:32.000Z</time>
      </trkpt>
      <trkpt lat="47.09859" lon="-1.8369">
        <ele>59</ele>
        <time>2021-05-08T13:37:34.000Z</time>
      </trkpt>
      <trkpt lat="47.09859" lon="-1.83668">
        <ele>59</ele>
        <time>2021-05-08T13:37:36.000Z</time>
      </trkpt>
      <trkpt lat="47.09859" lon="-1.83647">
        <ele>58</ele>
        <time>2021-05-08T13:37:38.000Z</time>
      </trkpt>
      <trkpt lat="47.09859" lon="-1.83625">
        <ele>58</ele>
        <time>2021-05-08T13:37:40.000Z</time>
      </trkpt>
      <trkpt lat="47.09858" lon="-1.83603">
        <ele>59</ele>
        <time>2021-05-08T13:37:42.000Z</time>
      </trkpt>
      <trkpt lat="47.09856" lon="-1.83582">
        <ele>59</ele>
        <time>2021-05-08T13:37:44.000Z</time>
      </trkpt>
      <trkpt lat="47.09854" lon="-1.8356">
        <ele>59</ele>
        <time>2021-05-08T13:37:46.000Z</time>
      </trkpt>
      <trkpt lat="47.09852" lon="-1.83539">
        <ele>59</ele>
        <time>2021-05-08T13:37:48.000Z</time>
      </trkpt>
      <trkpt lat="47.0985" lon="-1.83518">
        <ele>59</ele>
        <time>2021-05-08T13:37:50.000Z</time>
      </trkpt>
      <trkpt lat="47.09849" lon="-1.83497">
        <ele>59</ele>
        <time>2021-05-08T13:37:52.000Z</time>
      </trkpt>
      <trkpt lat="47.09849" lon="-1.83476">
        <ele>59</ele>
        <time>2021-05-08T13:37:54.000Z</time>
      </trkpt>
      <trkpt lat="47.09849" lon="-1.83455">
        <ele>59</ele>
        <time>2021-05-08T13:37:56.000Z</time>
      </trkpt>
      <trkpt lat="47.09851" lon="-1.83434">
        <ele>59</ele>
        <time>2021-05-08T13:37:58.000Z</time>
      </trkpt>
      <trkpt lat="47.09854" lon="-1.83413">
        <ele>59</ele>
        <time>2021-05-08T13:38:00.000Z</time>
      </trkpt>
      <trkpt lat="47.09858" lon="-1.83392">
        <ele>60</ele>
        <time>2021-05-08T13:38:02.000Z</time>
      </trkpt>
      <trkpt lat="47.09863" lon="-1.83371">
        <ele>60</ele>
        <time>2021-05-08T13:38:04.000Z</time>
      </trkpt>
      <trkpt lat="47.09867" lon="-1.8335">
        <ele>60</ele>
        <time>2021-05-08T13:38:06.000Z</time>
      </trkpt>
      <trkpt lat="47.09871" lon="-1.83329">
        <ele>60</ele>
        <time>2021-05-08T13:38:08.000Z</time>
      </trkpt>
      <trkpt lat="47.09874" lon="-1.8331">
        <ele>60</ele>
        <time>2021-05-08T13:38:10.000Z</time>
      </trkpt>
      <trkpt lat="47.09877" lon="-1.8329">
        <ele>60</ele>
        <time>2021-05-08T13:38:12.000Z</time>
      </trkpt>
      <trkpt lat="47.09879" lon="-1.83271">
        <ele>60</ele>
        <time>2021-05-08T13:38:14.000Z</time>
      </trkpt>
      <trkpt lat="47.09879" lon="-1.83251">
        <ele>61</ele>
        <time>2021-05-08T13:38:16.000Z</time>
      </trkpt>
      <trkpt lat="47.09879" lon="-1.83232">
        <ele>61</ele>
        <time>2021-05-08T13:38:18.000Z</time>
      </trkpt>
      <trkpt lat="47.09878" lon="-1.83213">
        <ele>61</ele>
        <time>2021-05-08T13:38:20.000Z</time>
      </trkpt>
      <trkpt lat="47.09876" lon="-1.83194">
        <ele>61</ele>
        <time>2021-05-08T13:38:22.000Z</time>
      </trkpt>
      <trkpt lat="47.09875" lon="-1.83175">
        <ele>62</ele>
        <time>2021-05-08T13:38:24.000Z</time>
      </trkpt>
      <trkpt lat="47.09873" lon="-1.83156">
        <ele>62</ele>
        <time>2021-05-08T13:38:26.000Z</time>
      </trkpt>
      <trkpt lat="47.09871" lon="-1.83135">
        <ele>63</ele>
        <time>2021-05-08T13:38:28.000Z</time>
      </trkpt>
      <trkpt lat="47.09869" lon="-1.83115">
        <ele>63</ele>
        <time>2021-05-08T13:38:30.000Z</time>
      </trkpt>
      <trkpt lat="47.09867" lon="-1.83094">
        <ele>63</ele>
        <time>2021-05-08T13:38:32.000Z</time>
      </trkpt>
      <trkpt lat="47.09866" lon="-1.83074">
        <ele>63</ele>
        <time>2021-05-08T13:38:34.000Z</time>
      </trkpt>
      <trkpt lat="47.09863" lon="-1.83055">
        <ele>63</ele>
        <time>2021-05-08T13:38:36.000Z</time>
      </trkpt>
      <trkpt lat="47.09861" lon="-1.83035">
        <ele>63</ele>
        <time>2021-05-08T13:38:38.000Z</time>
      </trkpt>
      <trkpt lat="47.09859" lon="-1.83016">
        <ele>63</ele>
        <time>2021-05-08T13:38:40.000Z</time>
      </trkpt>
      <trkpt lat="47.09858" lon="-1.82997">
        <ele>63</ele>
        <time>2021-05-08T13:38:42.000Z</time>
      </trkpt>
      <trkpt lat="47.09855" lon="-1.82977">
        <ele>64</ele>
        <time>2021-05-08T13:38:44.000Z</time>
      </trkpt>
      <trkpt lat="47.09854" lon="-1.82958">
        <ele>64</ele>
        <time>2021-05-08T13:38:46.000Z</time>
      </trkpt>
      <trkpt lat="47.09852" lon="-1.82939">
        <ele>64</ele>
        <time>2021-05-08T13:38:48.000Z</time>
      </trkpt>
      <trkpt lat="47.0985" lon="-1.8292">
        <ele>64</ele>
        <time>2021-05-08T13:38:50.000Z</time>
      </trkpt>
      <trkpt lat="47.09848" lon="-1.829">
        <ele>64</ele>
        <time>2021-05-08T13:38:52.000Z</time>
      </trkpt>
      <trkpt lat="47.09847" lon="-1.8288">
        <ele>64</ele>
        <time>2021-05-08T13:38:54.000Z</time>
      </trkpt>
      <trkpt lat="47.09846" lon="-1.82861">
        <ele>64</ele>
        <time>2021-05-08T13:38:56.000Z</time>
      </trkpt>
      <trkpt lat="47.09845" lon="-1.82841">
        <ele>65</ele>
        <time>2021-05-08T13:38:58.000Z</time>
      </trkpt>
      <trkpt lat="47.09845" lon="-1.82822">
        <ele>65</ele>
        <time>2021-05-08T13:39:00.000Z</time>
      </trkpt>
      <trkpt lat="47.09846" lon="-1.82803">
        <ele>64</ele>
        <time>2021-05-08T13:39:02.000Z</time>
      </trkpt>
      <trkpt lat="47.09847" lon="-1.82784">
        <ele>64</ele>
        <time>2021-05-08T13:39:04.000Z</time>
      </trkpt>
      <trkpt lat="47.09845" lon="-1.82764">
        <ele>64</ele>
        <time>2021-05-08T13:39:06.000Z</time>
      </trkpt>
      <trkpt lat="47.09842" lon="-1.82746">
        <ele>64</ele>
        <time>2021-05-08T13:39:08.000Z</time>
      </trkpt>
      <trkpt lat="47.09838" lon="-1.82728">
        <ele>64</ele>
        <time>2021-05-08T13:39:10.000Z</time>
      </trkpt>
      <trkpt lat="47.09834" lon="-1.8271">
        <ele>64</ele>
        <time>2021-05-08T13:39:12.000Z</time>
      </trkpt>
      <trkpt lat="47.0983" lon="-1.82691">
        <ele>64</ele>
        <time>2021-05-08T13:39:14.000Z</time>
      </trkpt>
      <trkpt lat="47.09826" lon="-1.82673">
        <ele>64</ele>
        <time>2021-05-08T13:39:16.000Z</time>
      </trkpt>
      <trkpt lat="47.09822" lon="-1.82655">
        <ele>63</ele>
        <time>2021-05-08T13:39:18.000Z</time>
      </trkpt>
      <trkpt lat="47.09818" lon="-1.82636">
        <ele>63</ele>
        <time>2021-05-08T13:39:20.000Z</time>
      </trkpt>
      <trkpt lat="47.09814" lon="-1.82617">
        <ele>63</ele>
        <time>2021-05-08T13:39:22.000Z</time>
      </trkpt>
      <trkpt lat="47.09811" lon="-1.82598">
        <ele>63</ele>
        <time>2021-05-08T13:39:24.000Z</time>
      </trkpt>
      <trkpt lat="47.09808" lon="-1.8258">
        <ele>63</ele>
        <time>2021-05-08T13:39:26.000Z</time>
      </trkpt>
      <trkpt lat="47.09805" lon="-1.8256">
        <ele>63</ele>
        <time>2021-05-08T13:39:28.000Z</time>
      </trkpt>
      <trkpt lat="47.09802" lon="-1.82541">
        <ele>63</ele>
        <time>2021-05-08T13:39:30.000Z</time>
      </trkpt>
      <trkpt lat="47.098" lon="-1.82522">
        <ele>63</ele>
        <time>2021-05-08T13:39:32.000Z</time>
      </trkpt>
      <trkpt lat="47.09798" lon="-1.82503">
        <ele>63</ele>
        <time>2021-05-08T13:39:34.000Z</time>
      </trkpt>
      <trkpt lat="47.09796" lon="-1.82483">
        <ele>63</ele>
        <time>2021-05-08T13:39:36.000Z</time>
      </trkpt>
      <trkpt lat="47.09793" lon="-1.82463">
        <ele>63</ele>
        <time>2021-05-08T13:39:38.000Z</time>
      </trkpt>
      <trkpt lat="47.09791" lon="-1.82443">
        <ele>64</ele>
        <time>2021-05-08T13:39:40.000Z</time>
      </trkpt>
      <trkpt lat="47.09789" lon="-1.82424">
        <ele>63</ele>
        <time>2021-05-08T13:39:42.000Z</time>
      </trkpt>
      <trkpt lat="47.09786" lon="-1.82405">
        <ele>63</ele>
        <time>2021-05-08T13:39:44.000Z</time>
      </trkpt>
      <trkpt lat="47.09782" lon="-1.82386">
        <ele>63</ele>
        <time>2021-05-08T13:39:46.000Z</time>
      </trkpt>
      <trkpt lat="47.09777" lon="-1.82367">
        <ele>64</ele>
        <time>2021-05-08T13:39:48.000Z</time>
      </trkpt>
      <trkpt lat="47.09771" lon="-1.8235">
        <ele>64</ele>
        <time>2021-05-08T13:39:50.000Z</time>
      </trkpt>
      <trkpt lat="47.09765" lon="-1.82332">
        <ele>64</ele>
        <time>2021-05-08T13:39:52.000Z</time>
      </trkpt>
      <trkpt lat="47.09758" lon="-1.82314">
        <ele>64</ele>
        <time>2021-05-08T13:39:54.000Z</time>
      </trkpt>
      <trkpt lat="47.09752" lon="-1.82298">
        <ele>64</ele>
        <time>2021-05-08T13:39:56.000Z</time>
      </trkpt>
      <trkpt lat="47.09744" lon="-1.82281">
        <ele>64</ele>
        <time>2021-05-08T13:39:58.000Z</time>
      </trkpt>
      <trkpt lat="47.09738" lon="-1.82265">
        <ele>64</ele>
        <time>2021-05-08T13:40:00.000Z</time>
      </trkpt>
      <trkpt lat="47.09731" lon="-1.82249">
        <ele>64</ele>
        <time>2021-05-08T13:40:02.000Z</time>
      </trkpt>
      <trkpt lat="47.09724" lon="-1.82233">
        <ele>64</ele>
        <time>2021-05-08T13:40:04.000Z</time>
      </trkpt>
      <trkpt lat="47.09717" lon="-1.82218">
        <ele>64</ele>
        <time>2021-05-08T13:40:06.000Z</time>
      </trkpt>
      <trkpt lat="47.0971" lon="-1.82202">
        <ele>64</ele>
        <time>2021-05-08T13:40:08.000Z</time>
      </trkpt>
      <trkpt lat="47.09704" lon="-1.82188">
        <ele>64</ele>
        <time>2021-05-08T13:40:10.000Z</time>
      </trkpt>
      <trkpt lat="47.09699" lon="-1.82176">
        <ele>64</ele>
        <time>2021-05-08T13:40:12.000Z</time>
      </trkpt>
      <trkpt lat="47.09692" lon="-1.82166">
        <ele>65</ele>
        <time>2021-05-08T13:40:16.000Z</time>
      </trkpt>
      <trkpt lat="47.0969" lon="-1.82149">
        <ele>65</ele>
        <time>2021-05-08T13:40:23.000Z</time>
      </trkpt>
      <trkpt lat="47.09691" lon="-1.82136">
        <ele>65</ele>
        <time>2021-05-08T13:40:25.000Z</time>
      </trkpt>
      <trkpt lat="47.09697" lon="-1.8212">
        <ele>65</ele>
        <time>2021-05-08T13:40:27.000Z</time>
      </trkpt>
      <trkpt lat="47.09703" lon="-1.82102">
        <ele>64</ele>
        <time>2021-05-08T13:40:29.000Z</time>
      </trkpt>
      <trkpt lat="47.09709" lon="-1.82084">
        <ele>64</ele>
        <time>2021-05-08T13:40:31.000Z</time>
      </trkpt>
      <trkpt lat="47.09714" lon="-1.82065">
        <ele>64</ele>
        <time>2021-05-08T13:40:33.000Z</time>
      </trkpt>
      <trkpt lat="47.0972" lon="-1.82045">
        <ele>64</ele>
        <time>2021-05-08T13:40:35.000Z</time>
      </trkpt>
      <trkpt lat="47.09726" lon="-1.82027">
        <ele>64</ele>
        <time>2021-05-08T13:40:37.000Z</time>
      </trkpt>
      <trkpt lat="47.09731" lon="-1.82008">
        <ele>64</ele>
        <time>2021-05-08T13:40:39.000Z</time>
      </trkpt>
      <trkpt lat="47.09736" lon="-1.8199">
        <ele>64</ele>
        <time>2021-05-08T13:40:41.000Z</time>
      </trkpt>
      <trkpt lat="47.09742" lon="-1.8197">
        <ele>64</ele>
        <time>2021-05-08T13:40:43.000Z</time>
      </trkpt>
      <trkpt lat="47.09748" lon="-1.81951">
        <ele>63</ele>
        <time>2021-05-08T13:40:45.000Z</time>
      </trkpt>
      <trkpt lat="47.09755" lon="-1.81933">
        <ele>64</ele>
        <time>2021-05-08T13:40:47.000Z</time>
      </trkpt>
      <trkpt lat="47.09763" lon="-1.81916">
        <ele>64</ele>
        <time>2021-05-08T13:40:49.000Z</time>
      </trkpt>
      <trkpt lat="47.0977" lon="-1.81897">
        <ele>63</ele>
        <time>2021-05-08T13:40:51.000Z</time>
      </trkpt>
      <trkpt lat="47.09778" lon="-1.8188">
        <ele>63</ele>
        <time>2021-05-08T13:40:53.000Z</time>
      </trkpt>
      <trkpt lat="47.09784" lon="-1.81863">
        <ele>63</ele>
        <time>2021-05-08T13:40:55.000Z</time>
      </trkpt>
      <trkpt lat="47.09791" lon="-1.81846">
        <ele>63</ele>
        <time>2021-05-08T13:40:57.000Z</time>
      </trkpt>
      <trkpt lat="47.09798" lon="-1.81829">
        <ele>63</ele>
        <time>2021-05-08T13:40:59.000Z</time>
      </trkpt>
      <trkpt lat="47.09802" lon="-1.8181">
        <ele>63</ele>
        <time>2021-05-08T13:41:01.000Z</time>
      </trkpt>
      <trkpt lat="47.09806" lon="-1.81791">
        <ele>63</ele>
        <time>2021-05-08T13:41:03.000Z</time>
      </trkpt>
      <trkpt lat="47.09816" lon="-1.81776">
        <ele>64</ele>
        <time>2021-05-08T13:41:05.000Z</time>
      </trkpt>
      <trkpt lat="47.09828" lon="-1.81761">
        <ele>63</ele>
        <time>2021-05-08T13:41:07.000Z</time>
      </trkpt>
      <trkpt lat="47.09836" lon="-1.81743">
        <ele>63</ele>
        <time>2021-05-08T13:41:09.000Z</time>
      </trkpt>
      <trkpt lat="47.09844" lon="-1.81724">
        <ele>62</ele>
        <time>2021-05-08T13:41:11.000Z</time>
      </trkpt>
      <trkpt lat="47.09852" lon="-1.81706">
        <ele>62</ele>
        <time>2021-05-08T13:41:13.000Z</time>
      </trkpt>
      <trkpt lat="47.09859" lon="-1.81687">
        <ele>62</ele>
        <time>2021-05-08T13:41:15.000Z</time>
      </trkpt>
      <trkpt lat="47.09867" lon="-1.81668">
        <ele>62</ele>
        <time>2021-05-08T13:41:17.000Z</time>
      </trkpt>
      <trkpt lat="47.09874" lon="-1.8165">
        <ele>63</ele>
        <time>2021-05-08T13:41:19.000Z</time>
      </trkpt>
      <trkpt lat="47.09881" lon="-1.81631">
        <ele>63</ele>
        <time>2021-05-08T13:41:21.000Z</time>
      </trkpt>
      <trkpt lat="47.09889" lon="-1.81613">
        <ele>63</ele>
        <time>2021-05-08T13:41:23.000Z</time>
      </trkpt>
      <trkpt lat="47.09896" lon="-1.81593">
        <ele>63</ele>
        <time>2021-05-08T13:41:25.000Z</time>
      </trkpt>
      <trkpt lat="47.09903" lon="-1.81573">
        <ele>63</ele>
        <time>2021-05-08T13:41:27.000Z</time>
      </trkpt>
      <trkpt lat="47.09911" lon="-1.81553">
        <ele>62</ele>
        <time>2021-05-08T13:41:29.000Z</time>
      </trkpt>
      <trkpt lat="47.09919" lon="-1.81533">
        <ele>62</ele>
        <time>2021-05-08T13:41:31.000Z</time>
      </trkpt>
      <trkpt lat="47.0993" lon="-1.81515">
        <ele>61</ele>
        <time>2021-05-08T13:41:33.000Z</time>
      </trkpt>
      <trkpt lat="47.09941" lon="-1.81497">
        <ele>61</ele>
        <time>2021-05-08T13:41:35.000Z</time>
      </trkpt>
      <trkpt lat="47.09953" lon="-1.81479">
        <ele>61</ele>
        <time>2021-05-08T13:41:37.000Z</time>
      </trkpt>
      <trkpt lat="47.09965" lon="-1.81461">
        <ele>59</ele>
        <time>2021-05-08T13:41:39.000Z</time>
      </trkpt>
      <trkpt lat="47.09977" lon="-1.81443">
        <ele>59</ele>
        <time>2021-05-08T13:41:41.000Z</time>
      </trkpt>
      <trkpt lat="47.0999" lon="-1.81425">
        <ele>58</ele>
        <time>2021-05-08T13:41:43.000Z</time>
      </trkpt>
      <trkpt lat="47.10003" lon="-1.81408">
        <ele>58</ele>
        <time>2021-05-08T13:41:45.000Z</time>
      </trkpt>
      <trkpt lat="47.10015" lon="-1.81391">
        <ele>58</ele>
        <time>2021-05-08T13:41:47.000Z</time>
      </trkpt>
      <trkpt lat="47.10027" lon="-1.81375">
        <ele>57</ele>
        <time>2021-05-08T13:41:49.000Z</time>
      </trkpt>
      <trkpt lat="47.1004" lon="-1.81359">
        <ele>57</ele>
        <time>2021-05-08T13:41:51.000Z</time>
      </trkpt>
      <trkpt lat="47.10051" lon="-1.81342">
        <ele>57</ele>
        <time>2021-05-08T13:41:53.000Z</time>
      </trkpt>
      <trkpt lat="47.10064" lon="-1.81326">
        <ele>57</ele>
        <time>2021-05-08T13:41:55.000Z</time>
      </trkpt>
      <trkpt lat="47.10076" lon="-1.8131">
        <ele>56</ele>
        <time>2021-05-08T13:41:57.000Z</time>
      </trkpt>
      <trkpt lat="47.10088" lon="-1.81293">
        <ele>56</ele>
        <time>2021-05-08T13:41:59.000Z</time>
      </trkpt>
      <trkpt lat="47.10101" lon="-1.81277">
        <ele>56</ele>
        <time>2021-05-08T13:42:01.000Z</time>
      </trkpt>
      <trkpt lat="47.10114" lon="-1.81263">
        <ele>56</ele>
        <time>2021-05-08T13:42:03.000Z</time>
      </trkpt>
      <trkpt lat="47.10129" lon="-1.81251">
        <ele>57</ele>
        <time>2021-05-08T13:42:05.000Z</time>
      </trkpt>
      <trkpt lat="47.10144" lon="-1.8124">
        <ele>57</ele>
        <time>2021-05-08T13:42:07.000Z</time>
      </trkpt>
      <trkpt lat="47.10158" lon="-1.81229">
        <ele>58</ele>
        <time>2021-05-08T13:42:09.000Z</time>
      </trkpt>
      <trkpt lat="47.10173" lon="-1.81218">
        <ele>58</ele>
        <time>2021-05-08T13:42:11.000Z</time>
      </trkpt>
      <trkpt lat="47.10187" lon="-1.81207">
        <ele>58</ele>
        <time>2021-05-08T13:42:13.000Z</time>
      </trkpt>
      <trkpt lat="47.10201" lon="-1.81195">
        <ele>59</ele>
        <time>2021-05-08T13:42:15.000Z</time>
      </trkpt>
      <trkpt lat="47.10214" lon="-1.81183">
        <ele>59</ele>
        <time>2021-05-08T13:42:17.000Z</time>
      </trkpt>
      <trkpt lat="47.10226" lon="-1.8117">
        <ele>59</ele>
        <time>2021-05-08T13:42:19.000Z</time>
      </trkpt>
      <trkpt lat="47.10239" lon="-1.81158">
        <ele>60</ele>
        <time>2021-05-08T13:42:21.000Z</time>
      </trkpt>
      <trkpt lat="47.10253" lon="-1.81146">
        <ele>60</ele>
        <time>2021-05-08T13:42:23.000Z</time>
      </trkpt>
      <trkpt lat="47.10266" lon="-1.81134">
        <ele>60</ele>
        <time>2021-05-08T13:42:25.000Z</time>
      </trkpt>
      <trkpt lat="47.10279" lon="-1.81123">
        <ele>60</ele>
        <time>2021-05-08T13:42:27.000Z</time>
      </trkpt>
      <trkpt lat="47.10292" lon="-1.81112">
        <ele>61</ele>
        <time>2021-05-08T13:42:29.000Z</time>
      </trkpt>
      <trkpt lat="47.10304" lon="-1.81099">
        <ele>61</ele>
        <time>2021-05-08T13:42:31.000Z</time>
      </trkpt>
      <trkpt lat="47.10316" lon="-1.81086">
        <ele>61</ele>
        <time>2021-05-08T13:42:33.000Z</time>
      </trkpt>
      <trkpt lat="47.10329" lon="-1.81074">
        <ele>61</ele>
        <time>2021-05-08T13:42:35.000Z</time>
      </trkpt>
      <trkpt lat="47.1034" lon="-1.81061">
        <ele>61</ele>
        <time>2021-05-08T13:42:37.000Z</time>
      </trkpt>
      <trkpt lat="47.10351" lon="-1.81048">
        <ele>62</ele>
        <time>2021-05-08T13:42:39.000Z</time>
      </trkpt>
      <trkpt lat="47.10359" lon="-1.81032">
        <ele>62</ele>
        <time>2021-05-08T13:42:41.000Z</time>
      </trkpt>
      <trkpt lat="47.10366" lon="-1.81014">
        <ele>62</ele>
        <time>2021-05-08T13:42:43.000Z</time>
      </trkpt>
      <trkpt lat="47.10371" lon="-1.80995">
        <ele>62</ele>
        <time>2021-05-08T13:42:45.000Z</time>
      </trkpt>
      <trkpt lat="47.10371" lon="-1.80973">
        <ele>62</ele>
        <time>2021-05-08T13:42:47.000Z</time>
      </trkpt>
      <trkpt lat="47.10367" lon="-1.80952">
        <ele>62</ele>
        <time>2021-05-08T13:42:49.000Z</time>
      </trkpt>
      <trkpt lat="47.10361" lon="-1.80931">
        <ele>61</ele>
        <time>2021-05-08T13:42:51.000Z</time>
      </trkpt>
      <trkpt lat="47.10356" lon="-1.80909">
        <ele>60</ele>
        <time>2021-05-08T13:42:53.000Z</time>
      </trkpt>
      <trkpt lat="47.10354" lon="-1.80886">
        <ele>59</ele>
        <time>2021-05-08T13:42:55.000Z</time>
      </trkpt>
      <trkpt lat="47.10353" lon="-1.80863">
        <ele>58</ele>
        <time>2021-05-08T13:42:57.000Z</time>
      </trkpt>
      <trkpt lat="47.10353" lon="-1.8084">
        <ele>58</ele>
        <time>2021-05-08T13:42:59.000Z</time>
      </trkpt>
      <trkpt lat="47.10352" lon="-1.80818">
        <ele>58</ele>
        <time>2021-05-08T13:43:01.000Z</time>
      </trkpt>
      <trkpt lat="47.10351" lon="-1.80797">
        <ele>58</ele>
        <time>2021-05-08T13:43:03.000Z</time>
      </trkpt>
      <trkpt lat="47.10351" lon="-1.80776">
        <ele>59</ele>
        <time>2021-05-08T13:43:05.000Z</time>
      </trkpt>
      <trkpt lat="47.10351" lon="-1.80756">
        <ele>59</ele>
        <time>2021-05-08T13:43:07.000Z</time>
      </trkpt>
      <trkpt lat="47.1035" lon="-1.80737">
        <ele>60</ele>
        <time>2021-05-08T13:43:09.000Z</time>
      </trkpt>
      <trkpt lat="47.1035" lon="-1.80719">
        <ele>59</ele>
        <time>2021-05-08T13:43:11.000Z</time>
      </trkpt>
      <trkpt lat="47.10349" lon="-1.80701">
        <ele>60</ele>
        <time>2021-05-08T13:43:13.000Z</time>
      </trkpt>
      <trkpt lat="47.10349" lon="-1.80683">
        <ele>61</ele>
        <time>2021-05-08T13:43:15.000Z</time>
      </trkpt>
      <trkpt lat="47.10349" lon="-1.80664">
        <ele>62</ele>
        <time>2021-05-08T13:43:17.000Z</time>
      </trkpt>
      <trkpt lat="47.10349" lon="-1.80645">
        <ele>62</ele>
        <time>2021-05-08T13:43:19.000Z</time>
      </trkpt>
      <trkpt lat="47.10348" lon="-1.80625">
        <ele>62</ele>
        <time>2021-05-08T13:43:21.000Z</time>
      </trkpt>
      <trkpt lat="47.10347" lon="-1.80605">
        <ele>62</ele>
        <time>2021-05-08T13:43:23.000Z</time>
      </trkpt>
      <trkpt lat="47.10347" lon="-1.80586">
        <ele>63</ele>
        <time>2021-05-08T13:43:25.000Z</time>
      </trkpt>
      <trkpt lat="47.10346" lon="-1.80567">
        <ele>63</ele>
        <time>2021-05-08T13:43:27.000Z</time>
      </trkpt>
      <trkpt lat="47.10345" lon="-1.80548">
        <ele>63</ele>
        <time>2021-05-08T13:43:29.000Z</time>
      </trkpt>
      <trkpt lat="47.10343" lon="-1.80529">
        <ele>64</ele>
        <time>2021-05-08T13:43:31.000Z</time>
      </trkpt>
      <trkpt lat="47.10341" lon="-1.8051">
        <ele>64</ele>
        <time>2021-05-08T13:43:33.000Z</time>
      </trkpt>
      <trkpt lat="47.10339" lon="-1.8049">
        <ele>64</ele>
        <time>2021-05-08T13:43:35.000Z</time>
      </trkpt>
      <trkpt lat="47.10336" lon="-1.80471">
        <ele>64</ele>
        <time>2021-05-08T13:43:37.000Z</time>
      </trkpt>
      <trkpt lat="47.10334" lon="-1.80452">
        <ele>64</ele>
        <time>2021-05-08T13:43:39.000Z</time>
      </trkpt>
      <trkpt lat="47.10331" lon="-1.80433">
        <ele>64</ele>
        <time>2021-05-08T13:43:41.000Z</time>
      </trkpt>
      <trkpt lat="47.10329" lon="-1.80414">
        <ele>64</ele>
        <time>2021-05-08T13:43:43.000Z</time>
      </trkpt>
      <trkpt lat="47.10327" lon="-1.80395">
        <ele>64</ele>
        <time>2021-05-08T13:43:45.000Z</time>
      </trkpt>
      <trkpt lat="47.10324" lon="-1.80377">
        <ele>64</ele>
        <time>2021-05-08T13:43:47.000Z</time>
      </trkpt>
      <trkpt lat="47.1032" lon="-1.8036">
        <ele>64</ele>
        <time>2021-05-08T13:43:49.000Z</time>
      </trkpt>
      <trkpt lat="47.10318" lon="-1.80343">
        <ele>64</ele>
        <time>2021-05-08T13:43:51.000Z</time>
      </trkpt>
      <trkpt lat="47.10319" lon="-1.80324">
        <ele>65</ele>
        <time>2021-05-08T13:43:53.000Z</time>
      </trkpt>
      <trkpt lat="47.1032" lon="-1.80304">
        <ele>66</ele>
        <time>2021-05-08T13:43:55.000Z</time>
      </trkpt>
      <trkpt lat="47.1032" lon="-1.80284">
        <ele>66</ele>
        <time>2021-05-08T13:43:57.000Z</time>
      </trkpt>
      <trkpt lat="47.10319" lon="-1.80264">
        <ele>66</ele>
        <time>2021-05-08T13:43:59.000Z</time>
      </trkpt>
      <trkpt lat="47.10319" lon="-1.80245">
        <ele>66</ele>
        <time>2021-05-08T13:44:01.000Z</time>
      </trkpt>
      <trkpt lat="47.10318" lon="-1.80224">
        <ele>66</ele>
        <time>2021-05-08T13:44:03.000Z</time>
      </trkpt>
      <trkpt lat="47.10318" lon="-1.80205">
        <ele>66</ele>
        <time>2021-05-08T13:44:05.000Z</time>
      </trkpt>
      <trkpt lat="47.10317" lon="-1.80186">
        <ele>66</ele>
        <time>2021-05-08T13:44:07.000Z</time>
      </trkpt>
      <trkpt lat="47.10317" lon="-1.80167">
        <ele>66</ele>
        <time>2021-05-08T13:44:09.000Z</time>
      </trkpt>
      <trkpt lat="47.10315" lon="-1.80147">
        <ele>66</ele>
        <time>2021-05-08T13:44:11.000Z</time>
      </trkpt>
      <trkpt lat="47.10312" lon="-1.80127">
        <ele>66</ele>
        <time>2021-05-08T13:44:13.000Z</time>
      </trkpt>
      <trkpt lat="47.1031" lon="-1.80107">
        <ele>66</ele>
        <time>2021-05-08T13:44:15.000Z</time>
      </trkpt>
      <trkpt lat="47.10309" lon="-1.80088">
        <ele>66</ele>
        <time>2021-05-08T13:44:17.000Z</time>
      </trkpt>
      <trkpt lat="47.10308" lon="-1.80067">
        <ele>65</ele>
        <time>2021-05-08T13:44:19.000Z</time>
      </trkpt>
      <trkpt lat="47.10308" lon="-1.80046">
        <ele>64</ele>
        <time>2021-05-08T13:44:21.000Z</time>
      </trkpt>
      <trkpt lat="47.10309" lon="-1.80024">
        <ele>63</ele>
        <time>2021-05-08T13:44:23.000Z</time>
      </trkpt>
      <trkpt lat="47.1031" lon="-1.80002">
        <ele>63</ele>
        <time>2021-05-08T13:44:25.000Z</time>
      </trkpt>
      <trkpt lat="47.10312" lon="-1.79981">
        <ele>63</ele>
        <time>2021-05-08T13:44:27.000Z</time>
      </trkpt>
      <trkpt lat="47.10314" lon="-1.7996">
        <ele>63</ele>
        <time>2021-05-08T13:44:29.000Z</time>
      </trkpt>
      <trkpt lat="47.10317" lon="-1.79939">
        <ele>63</ele>
        <time>2021-05-08T13:44:31.000Z</time>
      </trkpt>
      <trkpt lat="47.10321" lon="-1.79918">
        <ele>64</ele>
        <time>2021-05-08T13:44:33.000Z</time>
      </trkpt>
      <trkpt lat="47.10326" lon="-1.79897">
        <ele>63</ele>
        <time>2021-05-08T13:44:35.000Z</time>
      </trkpt>
      <trkpt lat="47.1033" lon="-1.79877">
        <ele>64</ele>
        <time>2021-05-08T13:44:37.000Z</time>
      </trkpt>
      <trkpt lat="47.10334" lon="-1.79855">
        <ele>64</ele>
        <time>2021-05-08T13:44:39.000Z</time>
      </trkpt>
      <trkpt lat="47.10338" lon="-1.79835">
        <ele>63</ele>
        <time>2021-05-08T13:44:41.000Z</time>
      </trkpt>
      <trkpt lat="47.10343" lon="-1.79814">
        <ele>63</ele>
        <time>2021-05-08T13:44:43.000Z</time>
      </trkpt>
      <trkpt lat="47.10347" lon="-1.79793">
        <ele>64</ele>
        <time>2021-05-08T13:44:45.000Z</time>
      </trkpt>
      <trkpt lat="47.10351" lon="-1.79773">
        <ele>63</ele>
        <time>2021-05-08T13:44:47.000Z</time>
      </trkpt>
      <trkpt lat="47.10355" lon="-1.79752">
        <ele>63</ele>
        <time>2021-05-08T13:44:49.000Z</time>
      </trkpt>
      <trkpt lat="47.10359" lon="-1.79731">
        <ele>63</ele>
        <time>2021-05-08T13:44:51.000Z</time>
      </trkpt>
      <trkpt lat="47.10363" lon="-1.7971">
        <ele>62</ele>
        <time>2021-05-08T13:44:53.000Z</time>
      </trkpt>
      <trkpt lat="47.10367" lon="-1.79688">
        <ele>61</ele>
        <time>2021-05-08T13:44:55.000Z</time>
      </trkpt>
      <trkpt lat="47.1037" lon="-1.79666">
        <ele>62</ele>
        <time>2021-05-08T13:44:57.000Z</time>
      </trkpt>
      <trkpt lat="47.10371" lon="-1.79645">
        <ele>62</ele>
        <time>2021-05-08T13:44:59.000Z</time>
      </trkpt>
      <trkpt lat="47.10373" lon="-1.79625">
        <ele>61</ele>
        <time>2021-05-08T13:45:01.000Z</time>
      </trkpt>
      <trkpt lat="47.10374" lon="-1.79603">
        <ele>61</ele>
        <time>2021-05-08T13:45:03.000Z</time>
      </trkpt>
      <trkpt lat="47.10374" lon="-1.79582">
        <ele>61</ele>
        <time>2021-05-08T13:45:05.000Z</time>
      </trkpt>
      <trkpt lat="47.10376" lon="-1.79561">
        <ele>61</ele>
        <time>2021-05-08T13:45:07.000Z</time>
      </trkpt>
      <trkpt lat="47.10377" lon="-1.79539">
        <ele>61</ele>
        <time>2021-05-08T13:45:09.000Z</time>
      </trkpt>
      <trkpt lat="47.10379" lon="-1.79518">
        <ele>61</ele>
        <time>2021-05-08T13:45:11.000Z</time>
      </trkpt>
      <trkpt lat="47.10382" lon="-1.79498">
        <ele>61</ele>
        <time>2021-05-08T13:45:13.000Z</time>
      </trkpt>
      <trkpt lat="47.10386" lon="-1.79477">
        <ele>61</ele>
        <time>2021-05-08T13:45:15.000Z</time>
      </trkpt>
      <trkpt lat="47.1039" lon="-1.79456">
        <ele>61</ele>
        <time>2021-05-08T13:45:17.000Z</time>
      </trkpt>
      <trkpt lat="47.10396" lon="-1.79436">
        <ele>61</ele>
        <time>2021-05-08T13:45:19.000Z</time>
      </trkpt>
      <trkpt lat="47.10402" lon="-1.79415">
        <ele>61</ele>
        <time>2021-05-08T13:45:21.000Z</time>
      </trkpt>
      <trkpt lat="47.10409" lon="-1.79395">
        <ele>60</ele>
        <time>2021-05-08T13:45:23.000Z</time>
      </trkpt>
      <trkpt lat="47.10416" lon="-1.79375">
        <ele>60</ele>
        <time>2021-05-08T13:45:25.000Z</time>
      </trkpt>
      <trkpt lat="47.10423" lon="-1.79356">
        <ele>59</ele>
        <time>2021-05-08T13:45:27.000Z</time>
      </trkpt>
      <trkpt lat="47.10431" lon="-1.79336">
        <ele>59</ele>
        <time>2021-05-08T13:45:29.000Z</time>
      </trkpt>
      <trkpt lat="47.10438" lon="-1.79316">
        <ele>58</ele>
        <time>2021-05-08T13:45:31.000Z</time>
      </trkpt>
      <trkpt lat="47.10444" lon="-1.79295">
        <ele>58</ele>
        <time>2021-05-08T13:45:33.000Z</time>
      </trkpt>
      <trkpt lat="47.10438" lon="-1.79275">
        <ele>58</ele>
        <time>2021-05-08T13:45:35.000Z</time>
      </trkpt>
      <trkpt lat="47.10427" lon="-1.7926">
        <ele>58</ele>
        <time>2021-05-08T13:45:37.000Z</time>
      </trkpt>
      <trkpt lat="47.10417" lon="-1.79247">
        <ele>58</ele>
        <time>2021-05-08T13:45:39.000Z</time>
      </trkpt>
      <trkpt lat="47.10407" lon="-1.79233">
        <ele>59</ele>
        <time>2021-05-08T13:45:41.000Z</time>
      </trkpt>
      <trkpt lat="47.10396" lon="-1.79219">
        <ele>59</ele>
        <time>2021-05-08T13:45:43.000Z</time>
      </trkpt>
      <trkpt lat="47.10385" lon="-1.79205">
        <ele>59</ele>
        <time>2021-05-08T13:45:45.000Z</time>
      </trkpt>
      <trkpt lat="47.10373" lon="-1.79189">
        <ele>59</ele>
        <time>2021-05-08T13:45:47.000Z</time>
      </trkpt>
      <trkpt lat="47.10362" lon="-1.79175">
        <ele>60</ele>
        <time>2021-05-08T13:45:49.000Z</time>
      </trkpt>
      <trkpt lat="47.10351" lon="-1.79161">
        <ele>60</ele>
        <time>2021-05-08T13:45:51.000Z</time>
      </trkpt>
      <trkpt lat="47.10342" lon="-1.79147">
        <ele>60</ele>
        <time>2021-05-08T13:45:53.000Z</time>
      </trkpt>
      <trkpt lat="47.10334" lon="-1.79136">
        <ele>60</ele>
        <time>2021-05-08T13:45:55.000Z</time>
      </trkpt>
      <trkpt lat="47.10331" lon="-1.79118">
        <ele>60</ele>
        <time>2021-05-08T13:45:58.000Z</time>
      </trkpt>
      <trkpt lat="47.10328" lon="-1.79099">
        <ele>60</ele>
        <time>2021-05-08T13:46:00.000Z</time>
      </trkpt>
      <trkpt lat="47.10316" lon="-1.79084">
        <ele>61</ele>
        <time>2021-05-08T13:46:02.000Z</time>
      </trkpt>
      <trkpt lat="47.10303" lon="-1.79069">
        <ele>61</ele>
        <time>2021-05-08T13:46:04.000Z</time>
      </trkpt>
      <trkpt lat="47.10291" lon="-1.79052">
        <ele>61</ele>
        <time>2021-05-08T13:46:06.000Z</time>
      </trkpt>
      <trkpt lat="47.10279" lon="-1.79036">
        <ele>61</ele>
        <time>2021-05-08T13:46:08.000Z</time>
      </trkpt>
      <trkpt lat="47.10268" lon="-1.79021">
        <ele>61</ele>
        <time>2021-05-08T13:46:10.000Z</time>
      </trkpt>
      <trkpt lat="47.10256" lon="-1.79005">
        <ele>61</ele>
        <time>2021-05-08T13:46:12.000Z</time>
      </trkpt>
      <trkpt lat="47.10246" lon="-1.78989">
        <ele>62</ele>
        <time>2021-05-08T13:46:14.000Z</time>
      </trkpt>
      <trkpt lat="47.10237" lon="-1.7897">
        <ele>62</ele>
        <time>2021-05-08T13:46:16.000Z</time>
      </trkpt>
      <trkpt lat="47.10235" lon="-1.78946">
        <ele>62</ele>
        <time>2021-05-08T13:46:18.000Z</time>
      </trkpt>
      <trkpt lat="47.10235" lon="-1.78923">
        <ele>63</ele>
        <time>2021-05-08T13:46:20.000Z</time>
      </trkpt>
      <trkpt lat="47.1024" lon="-1.78901">
        <ele>63</ele>
        <time>2021-05-08T13:46:22.000Z</time>
      </trkpt>
      <trkpt lat="47.10247" lon="-1.78879">
        <ele>63</ele>
        <time>2021-05-08T13:46:24.000Z</time>
      </trkpt>
      <trkpt lat="47.10256" lon="-1.78859">
        <ele>63</ele>
        <time>2021-05-08T13:46:26.000Z</time>
      </trkpt>
      <trkpt lat="47.10264" lon="-1.78839">
        <ele>63</ele>
        <time>2021-05-08T13:46:28.000Z</time>
      </trkpt>
      <trkpt lat="47.10272" lon="-1.78819">
        <ele>62</ele>
        <time>2021-05-08T13:46:30.000Z</time>
      </trkpt>
      <trkpt lat="47.1028" lon="-1.78798">
        <ele>61</ele>
        <time>2021-05-08T13:46:32.000Z</time>
      </trkpt>
      <trkpt lat="47.10287" lon="-1.78777">
        <ele>61</ele>
        <time>2021-05-08T13:46:34.000Z</time>
      </trkpt>
      <trkpt lat="47.10293" lon="-1.78754">
        <ele>60</ele>
        <time>2021-05-08T13:46:36.000Z</time>
      </trkpt>
      <trkpt lat="47.10296" lon="-1.78729">
        <ele>58</ele>
        <time>2021-05-08T13:46:38.000Z</time>
      </trkpt>
      <trkpt lat="47.10297" lon="-1.78716">
        <ele>57</ele>
        <time>2021-05-08T13:46:39.000Z</time>
      </trkpt>
      <trkpt lat="47.10298" lon="-1.78702">
        <ele>57</ele>
        <time>2021-05-08T13:46:40.000Z</time>
      </trkpt>
      <trkpt lat="47.10299" lon="-1.78688">
        <ele>56</ele>
        <time>2021-05-08T13:46:41.000Z</time>
      </trkpt>
      <trkpt lat="47.103" lon="-1.78674">
        <ele>55</ele>
        <time>2021-05-08T13:46:42.000Z</time>
      </trkpt>
      <trkpt lat="47.103" lon="-1.7866">
        <ele>55</ele>
        <time>2021-05-08T13:46:43.000Z</time>
      </trkpt>
      <trkpt lat="47.10301" lon="-1.78646">
        <ele>54</ele>
        <time>2021-05-08T13:46:44.000Z</time>
      </trkpt>
      <trkpt lat="47.10302" lon="-1.78632">
        <ele>54</ele>
        <time>2021-05-08T13:46:45.000Z</time>
      </trkpt>
      <trkpt lat="47.10303" lon="-1.78618">
        <ele>54</ele>
        <time>2021-05-08T13:46:46.000Z</time>
      </trkpt>
      <trkpt lat="47.10303" lon="-1.78604">
        <ele>53</ele>
        <time>2021-05-08T13:46:47.000Z</time>
      </trkpt>
      <trkpt lat="47.10304" lon="-1.7859">
        <ele>52</ele>
        <time>2021-05-08T13:46:48.000Z</time>
      </trkpt>
      <trkpt lat="47.10304" lon="-1.78576">
        <ele>52</ele>
        <time>2021-05-08T13:46:49.000Z</time>
      </trkpt>
      <trkpt lat="47.10304" lon="-1.78563">
        <ele>52</ele>
        <time>2021-05-08T13:46:50.000Z</time>
      </trkpt>
      <trkpt lat="47.10305" lon="-1.78537">
        <ele>52</ele>
        <time>2021-05-08T13:46:52.000Z</time>
      </trkpt>
      <trkpt lat="47.10307" lon="-1.78512">
        <ele>52</ele>
        <time>2021-05-08T13:46:54.000Z</time>
      </trkpt>
      <trkpt lat="47.10309" lon="-1.78488">
        <ele>52</ele>
        <time>2021-05-08T13:46:56.000Z</time>
      </trkpt>
      <trkpt lat="47.10312" lon="-1.78465">
        <ele>52</ele>
        <time>2021-05-08T13:46:58.000Z</time>
      </trkpt>
      <trkpt lat="47.10316" lon="-1.78442">
        <ele>53</ele>
        <time>2021-05-08T13:47:00.000Z</time>
      </trkpt>
      <trkpt lat="47.10319" lon="-1.78421">
        <ele>54</ele>
        <time>2021-05-08T13:47:02.000Z</time>
      </trkpt>
      <trkpt lat="47.10323" lon="-1.78402">
        <ele>54</ele>
        <time>2021-05-08T13:47:04.000Z</time>
      </trkpt>
      <trkpt lat="47.10326" lon="-1.78382">
        <ele>55</ele>
        <time>2021-05-08T13:47:06.000Z</time>
      </trkpt>
      <trkpt lat="47.10328" lon="-1.78362">
        <ele>56</ele>
        <time>2021-05-08T13:47:08.000Z</time>
      </trkpt>
      <trkpt lat="47.1033" lon="-1.78343">
        <ele>56</ele>
        <time>2021-05-08T13:47:10.000Z</time>
      </trkpt>
      <trkpt lat="47.10331" lon="-1.78323">
        <ele>57</ele>
        <time>2021-05-08T13:47:12.000Z</time>
      </trkpt>
      <trkpt lat="47.10331" lon="-1.78304">
        <ele>58</ele>
        <time>2021-05-08T13:47:14.000Z</time>
      </trkpt>
      <trkpt lat="47.10331" lon="-1.78284">
        <ele>58</ele>
        <time>2021-05-08T13:47:16.000Z</time>
      </trkpt>
      <trkpt lat="47.1033" lon="-1.78264">
        <ele>60</ele>
        <time>2021-05-08T13:47:18.000Z</time>
      </trkpt>
      <trkpt lat="47.1033" lon="-1.78243">
        <ele>61</ele>
        <time>2021-05-08T13:47:20.000Z</time>
      </trkpt>
      <trkpt lat="47.10331" lon="-1.78222">
        <ele>61</ele>
        <time>2021-05-08T13:47:22.000Z</time>
      </trkpt>
      <trkpt lat="47.10332" lon="-1.78201">
        <ele>61</ele>
        <time>2021-05-08T13:47:24.000Z</time>
      </trkpt>
      <trkpt lat="47.10335" lon="-1.7818">
        <ele>61</ele>
        <time>2021-05-08T13:47:26.000Z</time>
      </trkpt>
      <trkpt lat="47.10338" lon="-1.7816">
        <ele>61</ele>
        <time>2021-05-08T13:47:28.000Z</time>
      </trkpt>
      <trkpt lat="47.1034" lon="-1.78139">
        <ele>61</ele>
        <time>2021-05-08T13:47:30.000Z</time>
      </trkpt>
      <trkpt lat="47.10342" lon="-1.78119">
        <ele>62</ele>
        <time>2021-05-08T13:47:32.000Z</time>
      </trkpt>
      <trkpt lat="47.10343" lon="-1.78098">
        <ele>62</ele>
        <time>2021-05-08T13:47:34.000Z</time>
      </trkpt>
      <trkpt lat="47.10344" lon="-1.78078">
        <ele>61</ele>
        <time>2021-05-08T13:47:36.000Z</time>
      </trkpt>
      <trkpt lat="47.10347" lon="-1.78057">
        <ele>61</ele>
        <time>2021-05-08T13:47:38.000Z</time>
      </trkpt>
      <trkpt lat="47.10349" lon="-1.78035">
        <ele>61</ele>
        <time>2021-05-08T13:47:40.000Z</time>
      </trkpt>
      <trkpt lat="47.10354" lon="-1.78014">
        <ele>60</ele>
        <time>2021-05-08T13:47:42.000Z</time>
      </trkpt>
      <trkpt lat="47.10361" lon="-1.77991">
        <ele>60</ele>
        <time>2021-05-08T13:47:44.000Z</time>
      </trkpt>
      <trkpt lat="47.10367" lon="-1.77969">
        <ele>59</ele>
        <time>2021-05-08T13:47:46.000Z</time>
      </trkpt>
      <trkpt lat="47.10374" lon="-1.77947">
        <ele>59</ele>
        <time>2021-05-08T13:47:48.000Z</time>
      </trkpt>
      <trkpt lat="47.1038" lon="-1.77924">
        <ele>58</ele>
        <time>2021-05-08T13:47:50.000Z</time>
      </trkpt>
      <trkpt lat="47.10386" lon="-1.779">
        <ele>57</ele>
        <time>2021-05-08T13:47:52.000Z</time>
      </trkpt>
      <trkpt lat="47.1039" lon="-1.77876">
        <ele>57</ele>
        <time>2021-05-08T13:47:54.000Z</time>
      </trkpt>
      <trkpt lat="47.10393" lon="-1.77852">
        <ele>57</ele>
        <time>2021-05-08T13:47:56.000Z</time>
      </trkpt>
      <trkpt lat="47.10394" lon="-1.77828">
        <ele>56</ele>
        <time>2021-05-08T13:47:58.000Z</time>
      </trkpt>
      <trkpt lat="47.10395" lon="-1.77803">
        <ele>56</ele>
        <time>2021-05-08T13:48:00.000Z</time>
      </trkpt>
      <trkpt lat="47.10395" lon="-1.77779">
        <ele>55</ele>
        <time>2021-05-08T13:48:02.000Z</time>
      </trkpt>
      <trkpt lat="47.10395" lon="-1.77755">
        <ele>55</ele>
        <time>2021-05-08T13:48:04.000Z</time>
      </trkpt>
      <trkpt lat="47.10394" lon="-1.7773">
        <ele>55</ele>
        <time>2021-05-08T13:48:06.000Z</time>
      </trkpt>
      <trkpt lat="47.10394" lon="-1.77707">
        <ele>54</ele>
        <time>2021-05-08T13:48:08.000Z</time>
      </trkpt>
      <trkpt lat="47.10393" lon="-1.77683">
        <ele>54</ele>
        <time>2021-05-08T13:48:10.000Z</time>
      </trkpt>
      <trkpt lat="47.10392" lon="-1.77659">
        <ele>53</ele>
        <time>2021-05-08T13:48:12.000Z</time>
      </trkpt>
      <trkpt lat="47.1039" lon="-1.77636">
        <ele>53</ele>
        <time>2021-05-08T13:48:14.000Z</time>
      </trkpt>
      <trkpt lat="47.10388" lon="-1.77613">
        <ele>54</ele>
        <time>2021-05-08T13:48:16.000Z</time>
      </trkpt>
      <trkpt lat="47.10386" lon="-1.7759">
        <ele>54</ele>
        <time>2021-05-08T13:48:18.000Z</time>
      </trkpt>
      <trkpt lat="47.10385" lon="-1.77568">
        <ele>53</ele>
        <time>2021-05-08T13:48:20.000Z</time>
      </trkpt>
      <trkpt lat="47.10383" lon="-1.77545">
        <ele>53</ele>
        <time>2021-05-08T13:48:22.000Z</time>
      </trkpt>
      <trkpt lat="47.10381" lon="-1.77523">
        <ele>54</ele>
        <time>2021-05-08T13:48:24.000Z</time>
      </trkpt>
      <trkpt lat="47.10379" lon="-1.775">
        <ele>54</ele>
        <time>2021-05-08T13:48:26.000Z</time>
      </trkpt>
      <trkpt lat="47.10377" lon="-1.77478">
        <ele>55</ele>
        <time>2021-05-08T13:48:28.000Z</time>
      </trkpt>
      <trkpt lat="47.10376" lon="-1.77458">
        <ele>55</ele>
        <time>2021-05-08T13:48:30.000Z</time>
      </trkpt>
      <trkpt lat="47.1038" lon="-1.77441">
        <ele>55</ele>
        <time>2021-05-08T13:48:32.000Z</time>
      </trkpt>
      <trkpt lat="47.10393" lon="-1.7743">
        <ele>56</ele>
        <time>2021-05-08T13:48:34.000Z</time>
      </trkpt>
      <trkpt lat="47.10405" lon="-1.77417">
        <ele>56</ele>
        <time>2021-05-08T13:48:36.000Z</time>
      </trkpt>
      <trkpt lat="47.10414" lon="-1.77399">
        <ele>56</ele>
        <time>2021-05-08T13:48:38.000Z</time>
      </trkpt>
      <trkpt lat="47.10419" lon="-1.77378">
        <ele>56</ele>
        <time>2021-05-08T13:48:40.000Z</time>
      </trkpt>
      <trkpt lat="47.10422" lon="-1.77356">
        <ele>55</ele>
        <time>2021-05-08T13:48:42.000Z</time>
      </trkpt>
      <trkpt lat="47.10425" lon="-1.77335">
        <ele>55</ele>
        <time>2021-05-08T13:48:44.000Z</time>
      </trkpt>
      <trkpt lat="47.10427" lon="-1.77314">
        <ele>54</ele>
        <time>2021-05-08T13:48:46.000Z</time>
      </trkpt>
      <trkpt lat="47.10431" lon="-1.77292">
        <ele>54</ele>
        <time>2021-05-08T13:48:48.000Z</time>
      </trkpt>
      <trkpt lat="47.10433" lon="-1.77271">
        <ele>54</ele>
        <time>2021-05-08T13:48:50.000Z</time>
      </trkpt>
      <trkpt lat="47.10437" lon="-1.77249">
        <ele>54</ele>
        <time>2021-05-08T13:48:52.000Z</time>
      </trkpt>
      <trkpt lat="47.10441" lon="-1.77227">
        <ele>54</ele>
        <time>2021-05-08T13:48:54.000Z</time>
      </trkpt>
      <trkpt lat="47.10445" lon="-1.77206">
        <ele>53</ele>
        <time>2021-05-08T13:48:56.000Z</time>
      </trkpt>
      <trkpt lat="47.10451" lon="-1.77186">
        <ele>53</ele>
        <time>2021-05-08T13:48:58.000Z</time>
      </trkpt>
      <trkpt lat="47.10459" lon="-1.77166">
        <ele>53</ele>
        <time>2021-05-08T13:49:00.000Z</time>
      </trkpt>
      <trkpt lat="47.10468" lon="-1.77147">
        <ele>53</ele>
        <time>2021-05-08T13:49:02.000Z</time>
      </trkpt>
      <trkpt lat="47.10477" lon="-1.77128">
        <ele>53</ele>
        <time>2021-05-08T13:49:04.000Z</time>
      </trkpt>
      <trkpt lat="47.10485" lon="-1.77109">
        <ele>54</ele>
        <time>2021-05-08T13:49:06.000Z</time>
      </trkpt>
      <trkpt lat="47.10494" lon="-1.77091">
        <ele>53</ele>
        <time>2021-05-08T13:49:08.000Z</time>
      </trkpt>
      <trkpt lat="47.10502" lon="-1.77072">
        <ele>53</ele>
        <time>2021-05-08T13:49:10.000Z</time>
      </trkpt>
      <trkpt lat="47.10511" lon="-1.77053">
        <ele>53</ele>
        <time>2021-05-08T13:49:12.000Z</time>
      </trkpt>
      <trkpt lat="47.1052" lon="-1.77034">
        <ele>52</ele>
        <time>2021-05-08T13:49:14.000Z</time>
      </trkpt>
      <trkpt lat="47.10528" lon="-1.77015">
        <ele>52</ele>
        <time>2021-05-08T13:49:16.000Z</time>
      </trkpt>
      <trkpt lat="47.10536" lon="-1.76997">
        <ele>52</ele>
        <time>2021-05-08T13:49:18.000Z</time>
      </trkpt>
      <trkpt lat="47.10545" lon="-1.76978">
        <ele>51</ele>
        <time>2021-05-08T13:49:20.000Z</time>
      </trkpt>
      <trkpt lat="47.10554" lon="-1.7696">
        <ele>51</ele>
        <time>2021-05-08T13:49:22.000Z</time>
      </trkpt>
      <trkpt lat="47.10564" lon="-1.76942">
        <ele>50</ele>
        <time>2021-05-08T13:49:24.000Z</time>
      </trkpt>
      <trkpt lat="47.10576" lon="-1.76926">
        <ele>50</ele>
        <time>2021-05-08T13:49:26.000Z</time>
      </trkpt>
      <trkpt lat="47.10588" lon="-1.76912">
        <ele>50</ele>
        <time>2021-05-08T13:49:28.000Z</time>
      </trkpt>
      <trkpt lat="47.106" lon="-1.769">
        <ele>51</ele>
        <time>2021-05-08T13:49:30.000Z</time>
      </trkpt>
      <trkpt lat="47.10612" lon="-1.76889">
        <ele>51</ele>
        <time>2021-05-08T13:49:32.000Z</time>
      </trkpt>
      <trkpt lat="47.10625" lon="-1.76876">
        <ele>52</ele>
        <time>2021-05-08T13:49:34.000Z</time>
      </trkpt>
      <trkpt lat="47.10636" lon="-1.76861">
        <ele>52</ele>
        <time>2021-05-08T13:49:36.000Z</time>
      </trkpt>
      <trkpt lat="47.10646" lon="-1.76843">
        <ele>52</ele>
        <time>2021-05-08T13:49:38.000Z</time>
      </trkpt>
      <trkpt lat="47.10654" lon="-1.76824">
        <ele>52</ele>
        <time>2021-05-08T13:49:40.000Z</time>
      </trkpt>
      <trkpt lat="47.10662" lon="-1.76804">
        <ele>52</ele>
        <time>2021-05-08T13:49:42.000Z</time>
      </trkpt>
      <trkpt lat="47.10668" lon="-1.76785">
        <ele>52</ele>
        <time>2021-05-08T13:49:44.000Z</time>
      </trkpt>
      <trkpt lat="47.10673" lon="-1.76765">
        <ele>52</ele>
        <time>2021-05-08T13:49:46.000Z</time>
      </trkpt>
      <trkpt lat="47.10678" lon="-1.76745">
        <ele>52</ele>
        <time>2021-05-08T13:49:48.000Z</time>
      </trkpt>
      <trkpt lat="47.10684" lon="-1.76726">
        <ele>52</ele>
        <time>2021-05-08T13:49:50.000Z</time>
      </trkpt>
      <trkpt lat="47.10691" lon="-1.76707">
        <ele>52</ele>
        <time>2021-05-08T13:49:52.000Z</time>
      </trkpt>
      <trkpt lat="47.10697" lon="-1.76689">
        <ele>52</ele>
        <time>2021-05-08T13:49:54.000Z</time>
      </trkpt>
      <trkpt lat="47.10704" lon="-1.7667">
        <ele>52</ele>
        <time>2021-05-08T13:49:56.000Z</time>
      </trkpt>
      <trkpt lat="47.10711" lon="-1.76652">
        <ele>52</ele>
        <time>2021-05-08T13:49:58.000Z</time>
      </trkpt>
      <trkpt lat="47.10717" lon="-1.76634">
        <ele>52</ele>
        <time>2021-05-08T13:50:00.000Z</time>
      </trkpt>
      <trkpt lat="47.10724" lon="-1.76616">
        <ele>53</ele>
        <time>2021-05-08T13:50:02.000Z</time>
      </trkpt>
      <trkpt lat="47.10731" lon="-1.76599">
        <ele>53</ele>
        <time>2021-05-08T13:50:04.000Z</time>
      </trkpt>
      <trkpt lat="47.10737" lon="-1.76581">
        <ele>54</ele>
        <time>2021-05-08T13:50:06.000Z</time>
      </trkpt>
      <trkpt lat="47.10743" lon="-1.76562">
        <ele>55</ele>
        <time>2021-05-08T13:50:08.000Z</time>
      </trkpt>
      <trkpt lat="47.10747" lon="-1.76541">
        <ele>55</ele>
        <time>2021-05-08T13:50:10.000Z</time>
      </trkpt>
      <trkpt lat="47.1075" lon="-1.76521">
        <ele>55</ele>
        <time>2021-05-08T13:50:12.000Z</time>
      </trkpt>
      <trkpt lat="47.10754" lon="-1.76501">
        <ele>55</ele>
        <time>2021-05-08T13:50:14.000Z</time>
      </trkpt>
      <trkpt lat="47.10757" lon="-1.76481">
        <ele>55</ele>
        <time>2021-05-08T13:50:16.000Z</time>
      </trkpt>
      <trkpt lat="47.1076" lon="-1.76461">
        <ele>55</ele>
        <time>2021-05-08T13:50:18.000Z</time>
      </trkpt>
      <trkpt lat="47.10764" lon="-1.76442">
        <ele>55</ele>
        <time>2021-05-08T13:50:20.000Z</time>
      </trkpt>
      <trkpt lat="47.10767" lon="-1.76422">
        <ele>55</ele>
        <time>2021-05-08T13:50:22.000Z</time>
      </trkpt>
      <trkpt lat="47.1077" lon="-1.76402">
        <ele>55</ele>
        <time>2021-05-08T13:50:24.000Z</time>
      </trkpt>
      <trkpt lat="47.10774" lon="-1.76383">
        <ele>55</ele>
        <time>2021-05-08T13:50:26.000Z</time>
      </trkpt>
      <trkpt lat="47.10777" lon="-1.76363">
        <ele>55</ele>
        <time>2021-05-08T13:50:28.000Z</time>
      </trkpt>
      <trkpt lat="47.10781" lon="-1.76344">
        <ele>55</ele>
        <time>2021-05-08T13:50:30.000Z</time>
      </trkpt>
      <trkpt lat="47.10785" lon="-1.76324">
        <ele>55</ele>
        <time>2021-05-08T13:50:32.000Z</time>
      </trkpt>
      <trkpt lat="47.10789" lon="-1.76305">
        <ele>55</ele>
        <time>2021-05-08T13:50:34.000Z</time>
      </trkpt>
      <trkpt lat="47.10793" lon="-1.76286">
        <ele>55</ele>
        <time>2021-05-08T13:50:36.000Z</time>
      </trkpt>
      <trkpt lat="47.10797" lon="-1.76267">
        <ele>55</ele>
        <time>2021-05-08T13:50:38.000Z</time>
      </trkpt>
      <trkpt lat="47.10801" lon="-1.76248">
        <ele>56</ele>
        <time>2021-05-08T13:50:40.000Z</time>
      </trkpt>
      <trkpt lat="47.10806" lon="-1.76229">
        <ele>55</ele>
        <time>2021-05-08T13:50:42.000Z</time>
      </trkpt>
      <trkpt lat="47.1081" lon="-1.76209">
        <ele>56</ele>
        <time>2021-05-08T13:50:44.000Z</time>
      </trkpt>
      <trkpt lat="47.10813" lon="-1.76191">
        <ele>55</ele>
        <time>2021-05-08T13:50:46.000Z</time>
      </trkpt>
      <trkpt lat="47.10817" lon="-1.76171">
        <ele>56</ele>
        <time>2021-05-08T13:50:48.000Z</time>
      </trkpt>
      <trkpt lat="47.10821" lon="-1.76151">
        <ele>55</ele>
        <time>2021-05-08T13:50:50.000Z</time>
      </trkpt>
      <trkpt lat="47.10824" lon="-1.76131">
        <ele>55</ele>
        <time>2021-05-08T13:50:52.000Z</time>
      </trkpt>
      <trkpt lat="47.10827" lon="-1.76111">
        <ele>55</ele>
        <time>2021-05-08T13:50:54.000Z</time>
      </trkpt>
      <trkpt lat="47.1083" lon="-1.7609">
        <ele>55</ele>
        <time>2021-05-08T13:50:56.000Z</time>
      </trkpt>
      <trkpt lat="47.10832" lon="-1.76069">
        <ele>55</ele>
        <time>2021-05-08T13:50:58.000Z</time>
      </trkpt>
      <trkpt lat="47.10835" lon="-1.76049">
        <ele>55</ele>
        <time>2021-05-08T13:51:00.000Z</time>
      </trkpt>
      <trkpt lat="47.10838" lon="-1.76029">
        <ele>55</ele>
        <time>2021-05-08T13:51:02.000Z</time>
      </trkpt>
      <trkpt lat="47.1084" lon="-1.76007">
        <ele>55</ele>
        <time>2021-05-08T13:51:04.000Z</time>
      </trkpt>
      <trkpt lat="47.10844" lon="-1.75986">
        <ele>55</ele>
        <time>2021-05-08T13:51:06.000Z</time>
      </trkpt>
      <trkpt lat="47.10848" lon="-1.75966">
        <ele>55</ele>
        <time>2021-05-08T13:51:08.000Z</time>
      </trkpt>
      <trkpt lat="47.10853" lon="-1.75945">
        <ele>55</ele>
        <time>2021-05-08T13:51:10.000Z</time>
      </trkpt>
      <trkpt lat="47.10859" lon="-1.75926">
        <ele>54</ele>
        <time>2021-05-08T13:51:12.000Z</time>
      </trkpt>
      <trkpt lat="47.10865" lon="-1.75908">
        <ele>55</ele>
        <time>2021-05-08T13:51:14.000Z</time>
      </trkpt>
      <trkpt lat="47.10873" lon="-1.7589">
        <ele>55</ele>
        <time>2021-05-08T13:51:16.000Z</time>
      </trkpt>
      <trkpt lat="47.10883" lon="-1.75874">
        <ele>56</ele>
        <time>2021-05-08T13:51:18.000Z</time>
      </trkpt>
      <trkpt lat="47.10895" lon="-1.75862">
        <ele>56</ele>
        <time>2021-05-08T13:51:20.000Z</time>
      </trkpt>
      <trkpt lat="47.10907" lon="-1.75855">
        <ele>56</ele>
        <time>2021-05-08T13:51:22.000Z</time>
      </trkpt>
      <trkpt lat="47.10922" lon="-1.75852">
        <ele>57</ele>
        <time>2021-05-08T13:51:24.000Z</time>
      </trkpt>
      <trkpt lat="47.10937" lon="-1.7585">
        <ele>57</ele>
        <time>2021-05-08T13:51:26.000Z</time>
      </trkpt>
      <trkpt lat="47.10951" lon="-1.75849">
        <ele>57</ele>
        <time>2021-05-08T13:51:28.000Z</time>
      </trkpt>
      <trkpt lat="47.10966" lon="-1.75846">
        <ele>57</ele>
        <time>2021-05-08T13:51:30.000Z</time>
      </trkpt>
      <trkpt lat="47.1098" lon="-1.75842">
        <ele>56</ele>
        <time>2021-05-08T13:51:32.000Z</time>
      </trkpt>
      <trkpt lat="47.10994" lon="-1.75835">
        <ele>56</ele>
        <time>2021-05-08T13:51:34.000Z</time>
      </trkpt>
      <trkpt lat="47.11006" lon="-1.75824">
        <ele>56</ele>
        <time>2021-05-08T13:51:36.000Z</time>
      </trkpt>
      <trkpt lat="47.11018" lon="-1.75811">
        <ele>56</ele>
        <time>2021-05-08T13:51:38.000Z</time>
      </trkpt>
      <trkpt lat="47.11029" lon="-1.75798">
        <ele>55</ele>
        <time>2021-05-08T13:51:40.000Z</time>
      </trkpt>
      <trkpt lat="47.1104" lon="-1.75784">
        <ele>55</ele>
        <time>2021-05-08T13:51:42.000Z</time>
      </trkpt>
      <trkpt lat="47.11051" lon="-1.75769">
        <ele>55</ele>
        <time>2021-05-08T13:51:44.000Z</time>
      </trkpt>
      <trkpt lat="47.11061" lon="-1.75755">
        <ele>55</ele>
        <time>2021-05-08T13:51:46.000Z</time>
      </trkpt>
      <trkpt lat="47.11072" lon="-1.7574">
        <ele>55</ele>
        <time>2021-05-08T13:51:48.000Z</time>
      </trkpt>
      <trkpt lat="47.1108" lon="-1.75724">
        <ele>55</ele>
        <time>2021-05-08T13:51:50.000Z</time>
      </trkpt>
      <trkpt lat="47.11088" lon="-1.75706">
        <ele>55</ele>
        <time>2021-05-08T13:51:52.000Z</time>
      </trkpt>
      <trkpt lat="47.11093" lon="-1.75686">
        <ele>54</ele>
        <time>2021-05-08T13:51:54.000Z</time>
      </trkpt>
      <trkpt lat="47.11098" lon="-1.75666">
        <ele>54</ele>
        <time>2021-05-08T13:51:56.000Z</time>
      </trkpt>
      <trkpt lat="47.11103" lon="-1.75645">
        <ele>53</ele>
        <time>2021-05-08T13:51:58.000Z</time>
      </trkpt>
      <trkpt lat="47.11109" lon="-1.75623">
        <ele>52</ele>
        <time>2021-05-08T13:52:00.000Z</time>
      </trkpt>
      <trkpt lat="47.11115" lon="-1.75602">
        <ele>52</ele>
        <time>2021-05-08T13:52:02.000Z</time>
      </trkpt>
      <trkpt lat="47.11121" lon="-1.75581">
        <ele>51</ele>
        <time>2021-05-08T13:52:04.000Z</time>
      </trkpt>
      <trkpt lat="47.11128" lon="-1.75561">
        <ele>51</ele>
        <time>2021-05-08T13:52:06.000Z</time>
      </trkpt>
      <trkpt lat="47.11137" lon="-1.75545">
        <ele>51</ele>
        <time>2021-05-08T13:52:08.000Z</time>
      </trkpt>
      <trkpt lat="47.1115" lon="-1.75533">
        <ele>51</ele>
        <time>2021-05-08T13:52:10.000Z</time>
      </trkpt>
      <trkpt lat="47.11165" lon="-1.75526">
        <ele>51</ele>
        <time>2021-05-08T13:52:12.000Z</time>
      </trkpt>
      <trkpt lat="47.11179" lon="-1.7552">
        <ele>52</ele>
        <time>2021-05-08T13:52:14.000Z</time>
      </trkpt>
      <trkpt lat="47.11193" lon="-1.75512">
        <ele>52</ele>
        <time>2021-05-08T13:52:16.000Z</time>
      </trkpt>
      <trkpt lat="47.11205" lon="-1.75501">
        <ele>52</ele>
        <time>2021-05-08T13:52:18.000Z</time>
      </trkpt>
      <trkpt lat="47.11215" lon="-1.75487">
        <ele>52</ele>
        <time>2021-05-08T13:52:20.000Z</time>
      </trkpt>
      <trkpt lat="47.11223" lon="-1.75472">
        <ele>53</ele>
        <time>2021-05-08T13:52:22.000Z</time>
      </trkpt>
      <trkpt lat="47.11232" lon="-1.75454">
        <ele>53</ele>
        <time>2021-05-08T13:52:24.000Z</time>
      </trkpt>
      <trkpt lat="47.11241" lon="-1.75437">
        <ele>54</ele>
        <time>2021-05-08T13:52:26.000Z</time>
      </trkpt>
      <trkpt lat="47.1125" lon="-1.7542">
        <ele>54</ele>
        <time>2021-05-08T13:52:28.000Z</time>
      </trkpt>
      <trkpt lat="47.11258" lon="-1.75403">
        <ele>55</ele>
        <time>2021-05-08T13:52:30.000Z</time>
      </trkpt>
      <trkpt lat="47.11267" lon="-1.75387">
        <ele>55</ele>
        <time>2021-05-08T13:52:32.000Z</time>
      </trkpt>
      <trkpt lat="47.11274" lon="-1.75371">
        <ele>55</ele>
        <time>2021-05-08T13:52:34.000Z</time>
      </trkpt>
      <trkpt lat="47.11283" lon="-1.75355">
        <ele>55</ele>
        <time>2021-05-08T13:52:36.000Z</time>
      </trkpt>
      <trkpt lat="47.11291" lon="-1.75339">
        <ele>56</ele>
        <time>2021-05-08T13:52:38.000Z</time>
      </trkpt>
      <trkpt lat="47.11298" lon="-1.75322">
        <ele>56</ele>
        <time>2021-05-08T13:52:40.000Z</time>
      </trkpt>
      <trkpt lat="47.11303" lon="-1.75304">
        <ele>56</ele>
        <time>2021-05-08T13:52:42.000Z</time>
      </trkpt>
      <trkpt lat="47.11306" lon="-1.75285">
        <ele>56</ele>
        <time>2021-05-08T13:52:44.000Z</time>
      </trkpt>
      <trkpt lat="47.11309" lon="-1.75266">
        <ele>55</ele>
        <time>2021-05-08T13:52:46.000Z</time>
      </trkpt>
      <trkpt lat="47.11312" lon="-1.75248">
        <ele>55</ele>
        <time>2021-05-08T13:52:48.000Z</time>
      </trkpt>
      <trkpt lat="47.11315" lon="-1.75229">
        <ele>55</ele>
        <time>2021-05-08T13:52:50.000Z</time>
      </trkpt>
      <trkpt lat="47.11318" lon="-1.75211">
        <ele>55</ele>
        <time>2021-05-08T13:52:52.000Z</time>
      </trkpt>
      <trkpt lat="47.11321" lon="-1.75193">
        <ele>55</ele>
        <time>2021-05-08T13:52:54.000Z</time>
      </trkpt>
      <trkpt lat="47.11325" lon="-1.75175">
        <ele>55</ele>
        <time>2021-05-08T13:52:56.000Z</time>
      </trkpt>
      <trkpt lat="47.1133" lon="-1.75157">
        <ele>55</ele>
        <time>2021-05-08T13:52:58.000Z</time>
      </trkpt>
      <trkpt lat="47.11334" lon="-1.75139">
        <ele>55</ele>
        <time>2021-05-08T13:53:00.000Z</time>
      </trkpt>
      <trkpt lat="47.11339" lon="-1.75121">
        <ele>55</ele>
        <time>2021-05-08T13:53:02.000Z</time>
      </trkpt>
      <trkpt lat="47.11344" lon="-1.75102">
        <ele>54</ele>
        <time>2021-05-08T13:53:04.000Z</time>
      </trkpt>
      <trkpt lat="47.1135" lon="-1.75084">
        <ele>54</ele>
        <time>2021-05-08T13:53:06.000Z</time>
      </trkpt>
      <trkpt lat="47.11356" lon="-1.75066">
        <ele>53</ele>
        <time>2021-05-08T13:53:08.000Z</time>
      </trkpt>
      <trkpt lat="47.11361" lon="-1.75047">
        <ele>53</ele>
        <time>2021-05-08T13:53:10.000Z</time>
      </trkpt>
      <trkpt lat="47.11364" lon="-1.75027">
        <ele>53</ele>
        <time>2021-05-08T13:53:12.000Z</time>
      </trkpt>
      <trkpt lat="47.11366" lon="-1.75006">
        <ele>53</ele>
        <time>2021-05-08T13:53:14.000Z</time>
      </trkpt>
      <trkpt lat="47.11367" lon="-1.74985">
        <ele>52</ele>
        <time>2021-05-08T13:53:16.000Z</time>
      </trkpt>
      <trkpt lat="47.11365" lon="-1.74963">
        <ele>52</ele>
        <time>2021-05-08T13:53:18.000Z</time>
      </trkpt>
      <trkpt lat="47.11362" lon="-1.7494">
        <ele>52</ele>
        <time>2021-05-08T13:53:20.000Z</time>
      </trkpt>
      <trkpt lat="47.1136" lon="-1.74919">
        <ele>51</ele>
        <time>2021-05-08T13:53:22.000Z</time>
      </trkpt>
      <trkpt lat="47.11357" lon="-1.74897">
        <ele>51</ele>
        <time>2021-05-08T13:53:24.000Z</time>
      </trkpt>
      <trkpt lat="47.11356" lon="-1.74876">
        <ele>51</ele>
        <time>2021-05-08T13:53:26.000Z</time>
      </trkpt>
      <trkpt lat="47.11355" lon="-1.74855">
        <ele>51</ele>
        <time>2021-05-08T13:53:28.000Z</time>
      </trkpt>
      <trkpt lat="47.11355" lon="-1.74834">
        <ele>51</ele>
        <time>2021-05-08T13:53:30.000Z</time>
      </trkpt>
      <trkpt lat="47.11357" lon="-1.74814">
        <ele>51</ele>
        <time>2021-05-08T13:53:32.000Z</time>
      </trkpt>
      <trkpt lat="47.1136" lon="-1.74795">
        <ele>51</ele>
        <time>2021-05-08T13:53:34.000Z</time>
      </trkpt>
      <trkpt lat="47.11363" lon="-1.74775">
        <ele>51</ele>
        <time>2021-05-08T13:53:36.000Z</time>
      </trkpt>
      <trkpt lat="47.11368" lon="-1.74754">
        <ele>51</ele>
        <time>2021-05-08T13:53:38.000Z</time>
      </trkpt>
      <trkpt lat="47.1137" lon="-1.74733">
        <ele>51</ele>
        <time>2021-05-08T13:53:40.000Z</time>
      </trkpt>
      <trkpt lat="47.11371" lon="-1.74712">
        <ele>51</ele>
        <time>2021-05-08T13:53:42.000Z</time>
      </trkpt>
      <trkpt lat="47.11372" lon="-1.74691">
        <ele>51</ele>
        <time>2021-05-08T13:53:44.000Z</time>
      </trkpt>
      <trkpt lat="47.11373" lon="-1.7467">
        <ele>51</ele>
        <time>2021-05-08T13:53:46.000Z</time>
      </trkpt>
      <trkpt lat="47.11373" lon="-1.7465">
        <ele>51</ele>
        <time>2021-05-08T13:53:48.000Z</time>
      </trkpt>
      <trkpt lat="47.11374" lon="-1.7463">
        <ele>51</ele>
        <time>2021-05-08T13:53:50.000Z</time>
      </trkpt>
      <trkpt lat="47.11376" lon="-1.7461">
        <ele>51</ele>
        <time>2021-05-08T13:53:52.000Z</time>
      </trkpt>
      <trkpt lat="47.11377" lon="-1.7459">
        <ele>51</ele>
        <time>2021-05-08T13:53:54.000Z</time>
      </trkpt>
      <trkpt lat="47.11379" lon="-1.7457">
        <ele>51</ele>
        <time>2021-05-08T13:53:56.000Z</time>
      </trkpt>
      <trkpt lat="47.11382" lon="-1.74551">
        <ele>52</ele>
        <time>2021-05-08T13:53:58.000Z</time>
      </trkpt>
      <trkpt lat="47.11386" lon="-1.74532">
        <ele>51</ele>
        <time>2021-05-08T13:54:00.000Z</time>
      </trkpt>
      <trkpt lat="47.1139" lon="-1.74513">
        <ele>51</ele>
        <time>2021-05-08T13:54:02.000Z</time>
      </trkpt>
      <trkpt lat="47.11393" lon="-1.74496">
        <ele>51</ele>
        <time>2021-05-08T13:54:04.000Z</time>
      </trkpt>
      <trkpt lat="47.11397" lon="-1.74478">
        <ele>51</ele>
        <time>2021-05-08T13:54:06.000Z</time>
      </trkpt>
      <trkpt lat="47.11402" lon="-1.74459">
        <ele>51</ele>
        <time>2021-05-08T13:54:08.000Z</time>
      </trkpt>
      <trkpt lat="47.11405" lon="-1.74439">
        <ele>51</ele>
        <time>2021-05-08T13:54:10.000Z</time>
      </trkpt>
      <trkpt lat="47.11407" lon="-1.7442">
        <ele>51</ele>
        <time>2021-05-08T13:54:12.000Z</time>
      </trkpt>
      <trkpt lat="47.1141" lon="-1.744">
        <ele>51</ele>
        <time>2021-05-08T13:54:14.000Z</time>
      </trkpt>
      <trkpt lat="47.11414" lon="-1.74381">
        <ele>51</ele>
        <time>2021-05-08T13:54:16.000Z</time>
      </trkpt>
      <trkpt lat="47.1142" lon="-1.74364">
        <ele>51</ele>
        <time>2021-05-08T13:54:18.000Z</time>
      </trkpt>
      <trkpt lat="47.11426" lon="-1.74347">
        <ele>52</ele>
        <time>2021-05-08T13:54:20.000Z</time>
      </trkpt>
      <trkpt lat="47.1143" lon="-1.74328">
        <ele>52</ele>
        <time>2021-05-08T13:54:22.000Z</time>
      </trkpt>
      <trkpt lat="47.11429" lon="-1.74308">
        <ele>52</ele>
        <time>2021-05-08T13:54:24.000Z</time>
      </trkpt>
      <trkpt lat="47.11427" lon="-1.74288">
        <ele>52</ele>
        <time>2021-05-08T13:54:26.000Z</time>
      </trkpt>
      <trkpt lat="47.11425" lon="-1.74268">
        <ele>51</ele>
        <time>2021-05-08T13:54:28.000Z</time>
      </trkpt>
      <trkpt lat="47.11423" lon="-1.74247">
        <ele>52</ele>
        <time>2021-05-08T13:54:30.000Z</time>
      </trkpt>
      <trkpt lat="47.11424" lon="-1.74228">
        <ele>52</ele>
        <time>2021-05-08T13:54:32.000Z</time>
      </trkpt>
      <trkpt lat="47.11425" lon="-1.74209">
        <ele>51</ele>
        <time>2021-05-08T13:54:34.000Z</time>
      </trkpt>
      <trkpt lat="47.11428" lon="-1.74187">
        <ele>50</ele>
        <time>2021-05-08T13:54:36.000Z</time>
      </trkpt>
      <trkpt lat="47.11431" lon="-1.74165">
        <ele>50</ele>
        <time>2021-05-08T13:54:38.000Z</time>
      </trkpt>
      <trkpt lat="47.11435" lon="-1.74143">
        <ele>49</ele>
        <time>2021-05-08T13:54:40.000Z</time>
      </trkpt>
      <trkpt lat="47.11441" lon="-1.74124">
        <ele>50</ele>
        <time>2021-05-08T13:54:42.000Z</time>
      </trkpt>
      <trkpt lat="47.11448" lon="-1.74106">
        <ele>49</ele>
        <time>2021-05-08T13:54:44.000Z</time>
      </trkpt>
      <trkpt lat="47.11457" lon="-1.7409">
        <ele>50</ele>
        <time>2021-05-08T13:54:46.000Z</time>
      </trkpt>
      <trkpt lat="47.11468" lon="-1.74076">
        <ele>50</ele>
        <time>2021-05-08T13:54:48.000Z</time>
      </trkpt>
      <trkpt lat="47.11479" lon="-1.74061">
        <ele>50</ele>
        <time>2021-05-08T13:54:50.000Z</time>
      </trkpt>
      <trkpt lat="47.11489" lon="-1.74046">
        <ele>50</ele>
        <time>2021-05-08T13:54:52.000Z</time>
      </trkpt>
      <trkpt lat="47.11498" lon="-1.74031">
        <ele>50</ele>
        <time>2021-05-08T13:54:54.000Z</time>
      </trkpt>
      <trkpt lat="47.11503" lon="-1.74014">
        <ele>49</ele>
        <time>2021-05-08T13:54:56.000Z</time>
      </trkpt>
      <trkpt lat="47.11498" lon="-1.74">
        <ele>49</ele>
        <time>2021-05-08T13:54:58.000Z</time>
      </trkpt>
      <trkpt lat="47.11486" lon="-1.73995">
        <ele>49</ele>
        <time>2021-05-08T13:55:00.000Z</time>
      </trkpt>
      <trkpt lat="47.11472" lon="-1.73992">
        <ele>50</ele>
        <time>2021-05-08T13:55:02.000Z</time>
      </trkpt>
      <trkpt lat="47.11459" lon="-1.73984">
        <ele>50</ele>
        <time>2021-05-08T13:55:04.000Z</time>
      </trkpt>
      <trkpt lat="47.11448" lon="-1.73973">
        <ele>50</ele>
        <time>2021-05-08T13:55:06.000Z</time>
      </trkpt>
      <trkpt lat="47.11439" lon="-1.73957">
        <ele>51</ele>
        <time>2021-05-08T13:55:08.000Z</time>
      </trkpt>
      <trkpt lat="47.11432" lon="-1.73939">
        <ele>51</ele>
        <time>2021-05-08T13:55:10.000Z</time>
      </trkpt>
      <trkpt lat="47.11426" lon="-1.73922">
        <ele>51</ele>
        <time>2021-05-08T13:55:12.000Z</time>
      </trkpt>
      <trkpt lat="47.1142" lon="-1.73904">
        <ele>51</ele>
        <time>2021-05-08T13:55:14.000Z</time>
      </trkpt>
      <trkpt lat="47.11414" lon="-1.73885">
        <ele>51</ele>
        <time>2021-05-08T13:55:16.000Z</time>
      </trkpt>
      <trkpt lat="47.11409" lon="-1.73868">
        <ele>50</ele>
        <time>2021-05-08T13:55:18.000Z</time>
      </trkpt>
      <trkpt lat="47.11402" lon="-1.73851">
        <ele>50</ele>
        <time>2021-05-08T13:55:20.000Z</time>
      </trkpt>
      <trkpt lat="47.11397" lon="-1.73834">
        <ele>50</ele>
        <time>2021-05-08T13:55:22.000Z</time>
      </trkpt>
      <trkpt lat="47.11391" lon="-1.73815">
        <ele>51</ele>
        <time>2021-05-08T13:55:24.000Z</time>
      </trkpt>
      <trkpt lat="47.11386" lon="-1.73797">
        <ele>51</ele>
        <time>2021-05-08T13:55:26.000Z</time>
      </trkpt>
      <trkpt lat="47.1138" lon="-1.73779">
        <ele>51</ele>
        <time>2021-05-08T13:55:28.000Z</time>
      </trkpt>
      <trkpt lat="47.11375" lon="-1.73762">
        <ele>52</ele>
        <time>2021-05-08T13:55:30.000Z</time>
      </trkpt>
      <trkpt lat="47.11369" lon="-1.73744">
        <ele>52</ele>
        <time>2021-05-08T13:55:32.000Z</time>
      </trkpt>
      <trkpt lat="47.11363" lon="-1.73727">
        <ele>52</ele>
        <time>2021-05-08T13:55:34.000Z</time>
      </trkpt>
      <trkpt lat="47.11356" lon="-1.73711">
        <ele>52</ele>
        <time>2021-05-08T13:55:36.000Z</time>
      </trkpt>
      <trkpt lat="47.11348" lon="-1.73696">
        <ele>52</ele>
        <time>2021-05-08T13:55:38.000Z</time>
      </trkpt>
      <trkpt lat="47.11341" lon="-1.73681">
        <ele>52</ele>
        <time>2021-05-08T13:55:40.000Z</time>
      </trkpt>
      <trkpt lat="47.11333" lon="-1.73665">
        <ele>52</ele>
        <time>2021-05-08T13:55:42.000Z</time>
      </trkpt>
      <trkpt lat="47.11325" lon="-1.7365">
        <ele>53</ele>
        <time>2021-05-08T13:55:44.000Z</time>
      </trkpt>
      <trkpt lat="47.11318" lon="-1.73634">
        <ele>53</ele>
        <time>2021-05-08T13:55:46.000Z</time>
      </trkpt>
      <trkpt lat="47.11311" lon="-1.73618">
        <ele>53</ele>
        <time>2021-05-08T13:55:48.000Z</time>
      </trkpt>
      <trkpt lat="47.11302" lon="-1.73604">
        <ele>54</ele>
        <time>2021-05-08T13:55:50.000Z</time>
      </trkpt>
      <trkpt lat="47.11295" lon="-1.73589">
        <ele>53</ele>
        <time>2021-05-08T13:55:52.000Z</time>
      </trkpt>
      <trkpt lat="47.11288" lon="-1.73575">
        <ele>54</ele>
        <time>2021-05-08T13:55:54.000Z</time>
      </trkpt>
      <trkpt lat="47.11282" lon="-1.73563">
        <ele>53</ele>
        <time>2021-05-08T13:55:56.000Z</time>
      </trkpt>
      <trkpt lat="47.11275" lon="-1.73553">
        <ele>54</ele>
        <time>2021-05-08T13:55:58.000Z</time>
      </trkpt>
      <trkpt lat="47.11269" lon="-1.73541">
        <ele>54</ele>
        <time>2021-05-08T13:56:00.000Z</time>
      </trkpt>
      <trkpt lat="47.11266" lon="-1.73526">
        <ele>54</ele>
        <time>2021-05-08T13:56:02.000Z</time>
      </trkpt>
      <trkpt lat="47.11265" lon="-1.73507">
        <ele>54</ele>
        <time>2021-05-08T13:56:04.000Z</time>
      </trkpt>
      <trkpt lat="47.11264" lon="-1.73491">
        <ele>54</ele>
        <time>2021-05-08T13:56:06.000Z</time>
      </trkpt>
      <trkpt lat="47.11263" lon="-1.73473">
        <ele>55</ele>
        <time>2021-05-08T13:56:08.000Z</time>
      </trkpt>
      <trkpt lat="47.11262" lon="-1.73455">
        <ele>56</ele>
        <time>2021-05-08T13:56:10.000Z</time>
      </trkpt>
      <trkpt lat="47.1126" lon="-1.73436">
        <ele>55</ele>
        <time>2021-05-08T13:56:12.000Z</time>
      </trkpt>
      <trkpt lat="47.11257" lon="-1.73418">
        <ele>55</ele>
        <time>2021-05-08T13:56:14.000Z</time>
      </trkpt>
      <trkpt lat="47.11257" lon="-1.73401">
        <ele>55</ele>
        <time>2021-05-08T13:56:16.000Z</time>
      </trkpt>
      <trkpt lat="47.11255" lon="-1.73382">
        <ele>55</ele>
        <time>2021-05-08T13:56:18.000Z</time>
      </trkpt>
      <trkpt lat="47.11254" lon="-1.73363">
        <ele>55</ele>
        <time>2021-05-08T13:56:20.000Z</time>
      </trkpt>
      <trkpt lat="47.11253" lon="-1.73343">
        <ele>56</ele>
        <time>2021-05-08T13:56:22.000Z</time>
      </trkpt>
      <trkpt lat="47.11251" lon="-1.73324">
        <ele>55</ele>
        <time>2021-05-08T13:56:24.000Z</time>
      </trkpt>
      <trkpt lat="47.11249" lon="-1.73305">
        <ele>55</ele>
        <time>2021-05-08T13:56:26.000Z</time>
      </trkpt>
      <trkpt lat="47.11247" lon="-1.73286">
        <ele>56</ele>
        <time>2021-05-08T13:56:28.000Z</time>
      </trkpt>
      <trkpt lat="47.11244" lon="-1.73267">
        <ele>56</ele>
        <time>2021-05-08T13:56:30.000Z</time>
      </trkpt>
      <trkpt lat="47.1124" lon="-1.73249">
        <ele>56</ele>
        <time>2021-05-08T13:56:32.000Z</time>
      </trkpt>
      <trkpt lat="47.11236" lon="-1.73231">
        <ele>56</ele>
        <time>2021-05-08T13:56:34.000Z</time>
      </trkpt>
      <trkpt lat="47.11231" lon="-1.73214">
        <ele>56</ele>
        <time>2021-05-08T13:56:36.000Z</time>
      </trkpt>
      <trkpt lat="47.11227" lon="-1.73196">
        <ele>57</ele>
        <time>2021-05-08T13:56:38.000Z</time>
      </trkpt>
      <trkpt lat="47.11223" lon="-1.73179">
        <ele>57</ele>
        <time>2021-05-08T13:56:40.000Z</time>
      </trkpt>
      <trkpt lat="47.1122" lon="-1.73163">
        <ele>57</ele>
        <time>2021-05-08T13:56:42.000Z</time>
      </trkpt>
      <trkpt lat="47.11216" lon="-1.73146">
        <ele>57</ele>
        <time>2021-05-08T13:56:44.000Z</time>
      </trkpt>
      <trkpt lat="47.11212" lon="-1.73128">
        <ele>57</ele>
        <time>2021-05-08T13:56:46.000Z</time>
      </trkpt>
      <trkpt lat="47.11209" lon="-1.7311">
        <ele>57</ele>
        <time>2021-05-08T13:56:48.000Z</time>
      </trkpt>
      <trkpt lat="47.11204" lon="-1.73093">
        <ele>58</ele>
        <time>2021-05-08T13:56:50.000Z</time>
      </trkpt>
      <trkpt lat="47.112" lon="-1.73076">
        <ele>58</ele>
        <time>2021-05-08T13:56:52.000Z</time>
      </trkpt>
      <trkpt lat="47.11196" lon="-1.73058">
        <ele>57</ele>
        <time>2021-05-08T13:56:54.000Z</time>
      </trkpt>
      <trkpt lat="47.11191" lon="-1.73042">
        <ele>58</ele>
        <time>2021-05-08T13:56:56.000Z</time>
      </trkpt>
      <trkpt lat="47.11187" lon="-1.73023">
        <ele>57</ele>
        <time>2021-05-08T13:56:58.000Z</time>
      </trkpt>
      <trkpt lat="47.11183" lon="-1.73005">
        <ele>57</ele>
        <time>2021-05-08T13:57:00.000Z</time>
      </trkpt>
      <trkpt lat="47.11179" lon="-1.72986">
        <ele>57</ele>
        <time>2021-05-08T13:57:02.000Z</time>
      </trkpt>
      <trkpt lat="47.11174" lon="-1.72969">
        <ele>57</ele>
        <time>2021-05-08T13:57:04.000Z</time>
      </trkpt>
      <trkpt lat="47.1117" lon="-1.72951">
        <ele>57</ele>
        <time>2021-05-08T13:57:06.000Z</time>
      </trkpt>
      <trkpt lat="47.11166" lon="-1.72933">
        <ele>57</ele>
        <time>2021-05-08T13:57:08.000Z</time>
      </trkpt>
      <trkpt lat="47.11161" lon="-1.72916">
        <ele>57</ele>
        <time>2021-05-08T13:57:10.000Z</time>
      </trkpt>
      <trkpt lat="47.11157" lon="-1.72897">
        <ele>57</ele>
        <time>2021-05-08T13:57:12.000Z</time>
      </trkpt>
      <trkpt lat="47.11152" lon="-1.72878">
        <ele>57</ele>
        <time>2021-05-08T13:57:14.000Z</time>
      </trkpt>
      <trkpt lat="47.11148" lon="-1.7286">
        <ele>56</ele>
        <time>2021-05-08T13:57:16.000Z</time>
      </trkpt>
      <trkpt lat="47.11144" lon="-1.72841">
        <ele>57</ele>
        <time>2021-05-08T13:57:18.000Z</time>
      </trkpt>
      <trkpt lat="47.11139" lon="-1.72822">
        <ele>56</ele>
        <time>2021-05-08T13:57:20.000Z</time>
      </trkpt>
      <trkpt lat="47.11135" lon="-1.72803">
        <ele>56</ele>
        <time>2021-05-08T13:57:22.000Z</time>
      </trkpt>
      <trkpt lat="47.1113" lon="-1.72784">
        <ele>56</ele>
        <time>2021-05-08T13:57:24.000Z</time>
      </trkpt>
      <trkpt lat="47.11125" lon="-1.72765">
        <ele>57</ele>
        <time>2021-05-08T13:57:26.000Z</time>
      </trkpt>
      <trkpt lat="47.11121" lon="-1.72746">
        <ele>56</ele>
        <time>2021-05-08T13:57:28.000Z</time>
      </trkpt>
      <trkpt lat="47.11116" lon="-1.72728">
        <ele>56</ele>
        <time>2021-05-08T13:57:30.000Z</time>
      </trkpt>
      <trkpt lat="47.11112" lon="-1.72708">
        <ele>57</ele>
        <time>2021-05-08T13:57:32.000Z</time>
      </trkpt>
      <trkpt lat="47.11108" lon="-1.72689">
        <ele>56</ele>
        <time>2021-05-08T13:57:34.000Z</time>
      </trkpt>
      <trkpt lat="47.11104" lon="-1.72669">
        <ele>56</ele>
        <time>2021-05-08T13:57:36.000Z</time>
      </trkpt>
      <trkpt lat="47.11099" lon="-1.7265">
        <ele>56</ele>
        <time>2021-05-08T13:57:38.000Z</time>
      </trkpt>
      <trkpt lat="47.11095" lon="-1.72631">
        <ele>56</ele>
        <time>2021-05-08T13:57:40.000Z</time>
      </trkpt>
      <trkpt lat="47.1109" lon="-1.72613">
        <ele>56</ele>
        <time>2021-05-08T13:57:42.000Z</time>
      </trkpt>
      <trkpt lat="47.11086" lon="-1.72595">
        <ele>56</ele>
        <time>2021-05-08T13:57:44.000Z</time>
      </trkpt>
      <trkpt lat="47.11082" lon="-1.72576">
        <ele>56</ele>
        <time>2021-05-08T13:57:46.000Z</time>
      </trkpt>
      <trkpt lat="47.11079" lon="-1.72556">
        <ele>56</ele>
        <time>2021-05-08T13:57:48.000Z</time>
      </trkpt>
      <trkpt lat="47.11077" lon="-1.72537">
        <ele>56</ele>
        <time>2021-05-08T13:57:50.000Z</time>
      </trkpt>
      <trkpt lat="47.11079" lon="-1.72517">
        <ele>56</ele>
        <time>2021-05-08T13:57:52.000Z</time>
      </trkpt>
      <trkpt lat="47.11082" lon="-1.72497">
        <ele>56</ele>
        <time>2021-05-08T13:57:54.000Z</time>
      </trkpt>
      <trkpt lat="47.11086" lon="-1.72477">
        <ele>56</ele>
        <time>2021-05-08T13:57:56.000Z</time>
      </trkpt>
      <trkpt lat="47.1109" lon="-1.72458">
        <ele>56</ele>
        <time>2021-05-08T13:57:58.000Z</time>
      </trkpt>
      <trkpt lat="47.11095" lon="-1.72439">
        <ele>56</ele>
        <time>2021-05-08T13:58:00.000Z</time>
      </trkpt>
      <trkpt lat="47.111" lon="-1.7242">
        <ele>56</ele>
        <time>2021-05-08T13:58:02.000Z</time>
      </trkpt>
      <trkpt lat="47.11105" lon="-1.724">
        <ele>56</ele>
        <time>2021-05-08T13:58:04.000Z</time>
      </trkpt>
      <trkpt lat="47.1111" lon="-1.72381">
        <ele>55</ele>
        <time>2021-05-08T13:58:06.000Z</time>
      </trkpt>
      <trkpt lat="47.11114" lon="-1.72361">
        <ele>55</ele>
        <time>2021-05-08T13:58:08.000Z</time>
      </trkpt>
      <trkpt lat="47.11119" lon="-1.72341">
        <ele>55</ele>
        <time>2021-05-08T13:58:10.000Z</time>
      </trkpt>
      <trkpt lat="47.11123" lon="-1.72322">
        <ele>55</ele>
        <time>2021-05-08T13:58:12.000Z</time>
      </trkpt>
      <trkpt lat="47.11128" lon="-1.72303">
        <ele>55</ele>
        <time>2021-05-08T13:58:14.000Z</time>
      </trkpt>
      <trkpt lat="47.11133" lon="-1.72283">
        <ele>54</ele>
        <time>2021-05-08T13:58:16.000Z</time>
      </trkpt>
      <trkpt lat="47.11137" lon="-1.72264">
        <ele>54</ele>
        <time>2021-05-08T13:58:18.000Z</time>
      </trkpt>
      <trkpt lat="47.11142" lon="-1.72244">
        <ele>55</ele>
        <time>2021-05-08T13:58:20.000Z</time>
      </trkpt>
      <trkpt lat="47.11145" lon="-1.72226">
        <ele>55</ele>
        <time>2021-05-08T13:58:22.000Z</time>
      </trkpt>
      <trkpt lat="47.1115" lon="-1.72207">
        <ele>54</ele>
        <time>2021-05-08T13:58:24.000Z</time>
      </trkpt>
      <trkpt lat="47.11155" lon="-1.72188">
        <ele>55</ele>
        <time>2021-05-08T13:58:26.000Z</time>
      </trkpt>
      <trkpt lat="47.1116" lon="-1.7217">
        <ele>56</ele>
        <time>2021-05-08T13:58:28.000Z</time>
      </trkpt>
      <trkpt lat="47.11164" lon="-1.72151">
        <ele>56</ele>
        <time>2021-05-08T13:58:30.000Z</time>
      </trkpt>
      <trkpt lat="47.11169" lon="-1.72133">
        <ele>56</ele>
        <time>2021-05-08T13:58:32.000Z</time>
      </trkpt>
      <trkpt lat="47.11173" lon="-1.72115">
        <ele>56</ele>
        <time>2021-05-08T13:58:34.000Z</time>
      </trkpt>
      <trkpt lat="47.11178" lon="-1.72096">
        <ele>56</ele>
        <time>2021-05-08T13:58:36.000Z</time>
      </trkpt>
      <trkpt lat="47.11182" lon="-1.72077">
        <ele>56</ele>
        <time>2021-05-08T13:58:38.000Z</time>
      </trkpt>
      <trkpt lat="47.11187" lon="-1.72059">
        <ele>56</ele>
        <time>2021-05-08T13:58:40.000Z</time>
      </trkpt>
      <trkpt lat="47.11191" lon="-1.72041">
        <ele>56</ele>
        <time>2021-05-08T13:58:42.000Z</time>
      </trkpt>
      <trkpt lat="47.11195" lon="-1.72022">
        <ele>55</ele>
        <time>2021-05-08T13:58:44.000Z</time>
      </trkpt>
      <trkpt lat="47.112" lon="-1.72004">
        <ele>55</ele>
        <time>2021-05-08T13:58:46.000Z</time>
      </trkpt>
      <trkpt lat="47.11204" lon="-1.71986">
        <ele>55</ele>
        <time>2021-05-08T13:58:48.000Z</time>
      </trkpt>
      <trkpt lat="47.11209" lon="-1.71966">
        <ele>55</ele>
        <time>2021-05-08T13:58:50.000Z</time>
      </trkpt>
      <trkpt lat="47.11213" lon="-1.71947">
        <ele>54</ele>
        <time>2021-05-08T13:58:52.000Z</time>
      </trkpt>
      <trkpt lat="47.11218" lon="-1.71928">
        <ele>54</ele>
        <time>2021-05-08T13:58:54.000Z</time>
      </trkpt>
      <trkpt lat="47.11223" lon="-1.71908">
        <ele>53</ele>
        <time>2021-05-08T13:58:56.000Z</time>
      </trkpt>
      <trkpt lat="47.11227" lon="-1.71888">
        <ele>53</ele>
        <time>2021-05-08T13:58:58.000Z</time>
      </trkpt>
      <trkpt lat="47.11233" lon="-1.71867">
        <ele>52</ele>
        <time>2021-05-08T13:59:00.000Z</time>
      </trkpt>
      <trkpt lat="47.11242" lon="-1.71837">
        <ele>51</ele>
        <time>2021-05-08T13:59:03.000Z</time>
      </trkpt>
      <trkpt lat="47.1125" lon="-1.71816">
        <ele>50</ele>
        <time>2021-05-08T13:59:05.000Z</time>
      </trkpt>
      <trkpt lat="47.11259" lon="-1.71795">
        <ele>50</ele>
        <time>2021-05-08T13:59:07.000Z</time>
      </trkpt>
      <trkpt lat="47.11269" lon="-1.71774">
        <ele>49</ele>
        <time>2021-05-08T13:59:09.000Z</time>
      </trkpt>
      <trkpt lat="47.11284" lon="-1.71743">
        <ele>49</ele>
        <time>2021-05-08T13:59:12.000Z</time>
      </trkpt>
      <trkpt lat="47.113" lon="-1.71712">
        <ele>49</ele>
        <time>2021-05-08T13:59:15.000Z</time>
      </trkpt>
      <trkpt lat="47.11311" lon="-1.71691">
        <ele>49</ele>
        <time>2021-05-08T13:59:17.000Z</time>
      </trkpt>
      <trkpt lat="47.11322" lon="-1.7167">
        <ele>49</ele>
        <time>2021-05-08T13:59:19.000Z</time>
      </trkpt>
      <trkpt lat="47.11332" lon="-1.71651">
        <ele>49</ele>
        <time>2021-05-08T13:59:21.000Z</time>
      </trkpt>
      <trkpt lat="47.11342" lon="-1.71632">
        <ele>49</ele>
        <time>2021-05-08T13:59:23.000Z</time>
      </trkpt>
      <trkpt lat="47.11351" lon="-1.71613">
        <ele>49</ele>
        <time>2021-05-08T13:59:25.000Z</time>
      </trkpt>
      <trkpt lat="47.11366" lon="-1.71584">
        <ele>49</ele>
        <time>2021-05-08T13:59:28.000Z</time>
      </trkpt>
      <trkpt lat="47.11381" lon="-1.71557">
        <ele>48</ele>
        <time>2021-05-08T13:59:31.000Z</time>
      </trkpt>
      <trkpt lat="47.1139" lon="-1.71539">
        <ele>49</ele>
        <time>2021-05-08T13:59:33.000Z</time>
      </trkpt>
      <trkpt lat="47.11399" lon="-1.7152">
        <ele>48</ele>
        <time>2021-05-08T13:59:35.000Z</time>
      </trkpt>
      <trkpt lat="47.11409" lon="-1.71501">
        <ele>48</ele>
        <time>2021-05-08T13:59:37.000Z</time>
      </trkpt>
      <trkpt lat="47.11418" lon="-1.71483">
        <ele>48</ele>
        <time>2021-05-08T13:59:39.000Z</time>
      </trkpt>
      <trkpt lat="47.11432" lon="-1.71456">
        <ele>48</ele>
        <time>2021-05-08T13:59:42.000Z</time>
      </trkpt>
      <trkpt lat="47.11441" lon="-1.71439">
        <ele>48</ele>
        <time>2021-05-08T13:59:44.000Z</time>
      </trkpt>
      <trkpt lat="47.11449" lon="-1.71422">
        <ele>49</ele>
        <time>2021-05-08T13:59:46.000Z</time>
      </trkpt>
      <trkpt lat="47.11458" lon="-1.71405">
        <ele>49</ele>
        <time>2021-05-08T13:59:48.000Z</time>
      </trkpt>
      <trkpt lat="47.11471" lon="-1.7138">
        <ele>49</ele>
        <time>2021-05-08T13:59:51.000Z</time>
      </trkpt>
      <trkpt lat="47.11484" lon="-1.71355">
        <ele>49</ele>
        <time>2021-05-08T13:59:54.000Z</time>
      </trkpt>
      <trkpt lat="47.11496" lon="-1.7133">
        <ele>49</ele>
        <time>2021-05-08T13:59:57.000Z</time>
      </trkpt>
      <trkpt lat="47.11505" lon="-1.71313">
        <ele>49</ele>
        <time>2021-05-08T13:59:59.000Z</time>
      </trkpt>
      <trkpt lat="47.11513" lon="-1.71296">
        <ele>49</ele>
        <time>2021-05-08T14:00:01.000Z</time>
      </trkpt>
      <trkpt lat="47.11522" lon="-1.7128">
        <ele>49</ele>
        <time>2021-05-08T14:00:03.000Z</time>
      </trkpt>
      <trkpt lat="47.11535" lon="-1.71255">
        <ele>50</ele>
        <time>2021-05-08T14:00:06.000Z</time>
      </trkpt>
      <trkpt lat="47.11548" lon="-1.71231">
        <ele>50</ele>
        <time>2021-05-08T14:00:09.000Z</time>
      </trkpt>
      <trkpt lat="47.11558" lon="-1.71216">
        <ele>50</ele>
        <time>2021-05-08T14:00:11.000Z</time>
      </trkpt>
      <trkpt lat="47.11569" lon="-1.71202">
        <ele>50</ele>
        <time>2021-05-08T14:00:13.000Z</time>
      </trkpt>
      <trkpt lat="47.1158" lon="-1.71187">
        <ele>51</ele>
        <time>2021-05-08T14:00:15.000Z</time>
      </trkpt>
      <trkpt lat="47.11591" lon="-1.71173">
        <ele>51</ele>
        <time>2021-05-08T14:00:17.000Z</time>
      </trkpt>
      <trkpt lat="47.11608" lon="-1.71153">
        <ele>51</ele>
        <time>2021-05-08T14:00:20.000Z</time>
      </trkpt>
      <trkpt lat="47.1162" lon="-1.71141">
        <ele>51</ele>
        <time>2021-05-08T14:00:22.000Z</time>
      </trkpt>
      <trkpt lat="47.11633" lon="-1.7113">
        <ele>51</ele>
        <time>2021-05-08T14:00:24.000Z</time>
      </trkpt>
      <trkpt lat="47.11645" lon="-1.7112">
        <ele>51</ele>
        <time>2021-05-08T14:00:26.000Z</time>
      </trkpt>
      <trkpt lat="47.11658" lon="-1.7111">
        <ele>51</ele>
        <time>2021-05-08T14:00:28.000Z</time>
      </trkpt>
      <trkpt lat="47.11671" lon="-1.71101">
        <ele>51</ele>
        <time>2021-05-08T14:00:30.000Z</time>
      </trkpt>
      <trkpt lat="47.11684" lon="-1.71092">
        <ele>51</ele>
        <time>2021-05-08T14:00:32.000Z</time>
      </trkpt>
      <trkpt lat="47.11698" lon="-1.71082">
        <ele>51</ele>
        <time>2021-05-08T14:00:34.000Z</time>
      </trkpt>
      <trkpt lat="47.11712" lon="-1.71074">
        <ele>50</ele>
        <time>2021-05-08T14:00:36.000Z</time>
      </trkpt>
      <trkpt lat="47.11726" lon="-1.71066">
        <ele>50</ele>
        <time>2021-05-08T14:00:38.000Z</time>
      </trkpt>
      <trkpt lat="47.1174" lon="-1.71057">
        <ele>50</ele>
        <time>2021-05-08T14:00:40.000Z</time>
      </trkpt>
      <trkpt lat="47.11754" lon="-1.71047">
        <ele>50</ele>
        <time>2021-05-08T14:00:42.000Z</time>
      </trkpt>
      <trkpt lat="47.11768" lon="-1.71037">
        <ele>49</ele>
        <time>2021-05-08T14:00:44.000Z</time>
      </trkpt>
      <trkpt lat="47.11783" lon="-1.71027">
        <ele>50</ele>
        <time>2021-05-08T14:00:46.000Z</time>
      </trkpt>
      <trkpt lat="47.11798" lon="-1.71018">
        <ele>49</ele>
        <time>2021-05-08T14:00:48.000Z</time>
      </trkpt>
      <trkpt lat="47.11812" lon="-1.71008">
        <ele>49</ele>
        <time>2021-05-08T14:00:50.000Z</time>
      </trkpt>
      <trkpt lat="47.11827" lon="-1.70998">
        <ele>49</ele>
        <time>2021-05-08T14:00:52.000Z</time>
      </trkpt>
      <trkpt lat="47.11842" lon="-1.70989">
        <ele>49</ele>
        <time>2021-05-08T14:00:54.000Z</time>
      </trkpt>
      <trkpt lat="47.11856" lon="-1.70979">
        <ele>49</ele>
        <time>2021-05-08T14:00:56.000Z</time>
      </trkpt>
      <trkpt lat="47.11871" lon="-1.70969">
        <ele>49</ele>
        <time>2021-05-08T14:00:58.000Z</time>
      </trkpt>
      <trkpt lat="47.11886" lon="-1.70959">
        <ele>48</ele>
        <time>2021-05-08T14:01:00.000Z</time>
      </trkpt>
      <trkpt lat="47.119" lon="-1.7095">
        <ele>49</ele>
        <time>2021-05-08T14:01:02.000Z</time>
      </trkpt>
      <trkpt lat="47.11914" lon="-1.70941">
        <ele>49</ele>
        <time>2021-05-08T14:01:04.000Z</time>
      </trkpt>
      <trkpt lat="47.11928" lon="-1.70933">
        <ele>49</ele>
        <time>2021-05-08T14:01:06.000Z</time>
      </trkpt>
      <trkpt lat="47.11941" lon="-1.70924">
        <ele>49</ele>
        <time>2021-05-08T14:01:08.000Z</time>
      </trkpt>
      <trkpt lat="47.11955" lon="-1.70915">
        <ele>49</ele>
        <time>2021-05-08T14:01:10.000Z</time>
      </trkpt>
      <trkpt lat="47.11969" lon="-1.70907">
        <ele>50</ele>
        <time>2021-05-08T14:01:12.000Z</time>
      </trkpt>
      <trkpt lat="47.11982" lon="-1.70898">
        <ele>50</ele>
        <time>2021-05-08T14:01:14.000Z</time>
      </trkpt>
      <trkpt lat="47.11996" lon="-1.70889">
        <ele>51</ele>
        <time>2021-05-08T14:01:16.000Z</time>
      </trkpt>
      <trkpt lat="47.1201" lon="-1.7088">
        <ele>51</ele>
        <time>2021-05-08T14:01:18.000Z</time>
      </trkpt>
      <trkpt lat="47.12023" lon="-1.70871">
        <ele>51</ele>
        <time>2021-05-08T14:01:20.000Z</time>
      </trkpt>
      <trkpt lat="47.12036" lon="-1.70863">
        <ele>51</ele>
        <time>2021-05-08T14:01:22.000Z</time>
      </trkpt>
      <trkpt lat="47.12049" lon="-1.70854">
        <ele>51</ele>
        <time>2021-05-08T14:01:24.000Z</time>
      </trkpt>
      <trkpt lat="47.12062" lon="-1.70845">
        <ele>50</ele>
        <time>2021-05-08T14:01:26.000Z</time>
      </trkpt>
      <trkpt lat="47.12075" lon="-1.70837">
        <ele>50</ele>
        <time>2021-05-08T14:01:28.000Z</time>
      </trkpt>
      <trkpt lat="47.12088" lon="-1.70829">
        <ele>50</ele>
        <time>2021-05-08T14:01:30.000Z</time>
      </trkpt>
      <trkpt lat="47.12102" lon="-1.7082">
        <ele>50</ele>
        <time>2021-05-08T14:01:32.000Z</time>
      </trkpt>
      <trkpt lat="47.12116" lon="-1.70811">
        <ele>50</ele>
        <time>2021-05-08T14:01:34.000Z</time>
      </trkpt>
      <trkpt lat="47.12129" lon="-1.70802">
        <ele>49</ele>
        <time>2021-05-08T14:01:36.000Z</time>
      </trkpt>
      <trkpt lat="47.12143" lon="-1.70793">
        <ele>49</ele>
        <time>2021-05-08T14:01:38.000Z</time>
      </trkpt>
      <trkpt lat="47.12157" lon="-1.70784">
        <ele>49</ele>
        <time>2021-05-08T14:01:40.000Z</time>
      </trkpt>
      <trkpt lat="47.12171" lon="-1.70774">
        <ele>49</ele>
        <time>2021-05-08T14:01:42.000Z</time>
      </trkpt>
      <trkpt lat="47.12185" lon="-1.70765">
        <ele>49</ele>
        <time>2021-05-08T14:01:44.000Z</time>
      </trkpt>
      <trkpt lat="47.12199" lon="-1.70754">
        <ele>49</ele>
        <time>2021-05-08T14:01:46.000Z</time>
      </trkpt>
      <trkpt lat="47.12213" lon="-1.70742">
        <ele>49</ele>
        <time>2021-05-08T14:01:48.000Z</time>
      </trkpt>
      <trkpt lat="47.12227" lon="-1.7073">
        <ele>48</ele>
        <time>2021-05-08T14:01:50.000Z</time>
      </trkpt>
      <trkpt lat="47.12239" lon="-1.70716">
        <ele>48</ele>
        <time>2021-05-08T14:01:52.000Z</time>
      </trkpt>
      <trkpt lat="47.12251" lon="-1.70701">
        <ele>48</ele>
        <time>2021-05-08T14:01:54.000Z</time>
      </trkpt>
      <trkpt lat="47.12263" lon="-1.70686">
        <ele>48</ele>
        <time>2021-05-08T14:01:56.000Z</time>
      </trkpt>
      <trkpt lat="47.12274" lon="-1.7067">
        <ele>48</ele>
        <time>2021-05-08T14:01:58.000Z</time>
      </trkpt>
      <trkpt lat="47.12284" lon="-1.70654">
        <ele>48</ele>
        <time>2021-05-08T14:02:00.000Z</time>
      </trkpt>
      <trkpt lat="47.12295" lon="-1.70638">
        <ele>48</ele>
        <time>2021-05-08T14:02:02.000Z</time>
      </trkpt>
      <trkpt lat="47.12305" lon="-1.70623">
        <ele>48</ele>
        <time>2021-05-08T14:02:04.000Z</time>
      </trkpt>
      <trkpt lat="47.12316" lon="-1.70606">
        <ele>48</ele>
        <time>2021-05-08T14:02:06.000Z</time>
      </trkpt>
      <trkpt lat="47.12326" lon="-1.70591">
        <ele>48</ele>
        <time>2021-05-08T14:02:08.000Z</time>
      </trkpt>
      <trkpt lat="47.12336" lon="-1.70575">
        <ele>48</ele>
        <time>2021-05-08T14:02:10.000Z</time>
      </trkpt>
      <trkpt lat="47.12346" lon="-1.70559">
        <ele>48</ele>
        <time>2021-05-08T14:02:12.000Z</time>
      </trkpt>
      <trkpt lat="47.12356" lon="-1.70542">
        <ele>48</ele>
        <time>2021-05-08T14:02:14.000Z</time>
      </trkpt>
      <trkpt lat="47.12365" lon="-1.70523">
        <ele>47</ele>
        <time>2021-05-08T14:02:16.000Z</time>
      </trkpt>
      <trkpt lat="47.12372" lon="-1.70504">
        <ele>47</ele>
        <time>2021-05-08T14:02:18.000Z</time>
      </trkpt>
      <trkpt lat="47.12379" lon="-1.70484">
        <ele>47</ele>
        <time>2021-05-08T14:02:20.000Z</time>
      </trkpt>
      <trkpt lat="47.12385" lon="-1.70464">
        <ele>47</ele>
        <time>2021-05-08T14:02:22.000Z</time>
      </trkpt>
      <trkpt lat="47.12389" lon="-1.70444">
        <ele>47</ele>
        <time>2021-05-08T14:02:24.000Z</time>
      </trkpt>
      <trkpt lat="47.12393" lon="-1.70424">
        <ele>47</ele>
        <time>2021-05-08T14:02:26.000Z</time>
      </trkpt>
      <trkpt lat="47.12397" lon="-1.70404">
        <ele>47</ele>
        <time>2021-05-08T14:02:28.000Z</time>
      </trkpt>
      <trkpt lat="47.12401" lon="-1.70383">
        <ele>48</ele>
        <time>2021-05-08T14:02:30.000Z</time>
      </trkpt>
      <trkpt lat="47.12406" lon="-1.70362">
        <ele>48</ele>
        <time>2021-05-08T14:02:32.000Z</time>
      </trkpt>
      <trkpt lat="47.1241" lon="-1.70343">
        <ele>48</ele>
        <time>2021-05-08T14:02:34.000Z</time>
      </trkpt>
      <trkpt lat="47.12415" lon="-1.70322">
        <ele>49</ele>
        <time>2021-05-08T14:02:36.000Z</time>
      </trkpt>
      <trkpt lat="47.12422" lon="-1.70304">
        <ele>49</ele>
        <time>2021-05-08T14:02:38.000Z</time>
      </trkpt>
      <trkpt lat="47.12432" lon="-1.70288">
        <ele>50</ele>
        <time>2021-05-08T14:02:40.000Z</time>
      </trkpt>
      <trkpt lat="47.12443" lon="-1.70275">
        <ele>50</ele>
        <time>2021-05-08T14:02:42.000Z</time>
      </trkpt>
      <trkpt lat="47.12456" lon="-1.70264">
        <ele>50</ele>
        <time>2021-05-08T14:02:44.000Z</time>
      </trkpt>
      <trkpt lat="47.12471" lon="-1.70254">
        <ele>50</ele>
        <time>2021-05-08T14:02:46.000Z</time>
      </trkpt>
      <trkpt lat="47.12485" lon="-1.70247">
        <ele>49</ele>
        <time>2021-05-08T14:02:48.000Z</time>
      </trkpt>
      <trkpt lat="47.12499" lon="-1.70239">
        <ele>49</ele>
        <time>2021-05-08T14:02:50.000Z</time>
      </trkpt>
      <trkpt lat="47.12514" lon="-1.70231">
        <ele>49</ele>
        <time>2021-05-08T14:02:52.000Z</time>
      </trkpt>
      <trkpt lat="47.12527" lon="-1.70224">
        <ele>49</ele>
        <time>2021-05-08T14:02:54.000Z</time>
      </trkpt>
      <trkpt lat="47.1254" lon="-1.70217">
        <ele>49</ele>
        <time>2021-05-08T14:02:56.000Z</time>
      </trkpt>
      <trkpt lat="47.12554" lon="-1.70208">
        <ele>50</ele>
        <time>2021-05-08T14:02:58.000Z</time>
      </trkpt>
      <trkpt lat="47.12568" lon="-1.70202">
        <ele>51</ele>
        <time>2021-05-08T14:03:00.000Z</time>
      </trkpt>
      <trkpt lat="47.12582" lon="-1.70194">
        <ele>51</ele>
        <time>2021-05-08T14:03:02.000Z</time>
      </trkpt>
      <trkpt lat="47.12596" lon="-1.70188">
        <ele>50</ele>
        <time>2021-05-08T14:03:04.000Z</time>
      </trkpt>
      <trkpt lat="47.1261" lon="-1.70181">
        <ele>50</ele>
        <time>2021-05-08T14:03:06.000Z</time>
      </trkpt>
      <trkpt lat="47.12624" lon="-1.70174">
        <ele>50</ele>
        <time>2021-05-08T14:03:08.000Z</time>
      </trkpt>
      <trkpt lat="47.12637" lon="-1.70167">
        <ele>50</ele>
        <time>2021-05-08T14:03:10.000Z</time>
      </trkpt>
      <trkpt lat="47.12651" lon="-1.7016">
        <ele>50</ele>
        <time>2021-05-08T14:03:12.000Z</time>
      </trkpt>
      <trkpt lat="47.12664" lon="-1.70154">
        <ele>50</ele>
        <time>2021-05-08T14:03:14.000Z</time>
      </trkpt>
      <trkpt lat="47.12678" lon="-1.70147">
        <ele>49</ele>
        <time>2021-05-08T14:03:16.000Z</time>
      </trkpt>
      <trkpt lat="47.12691" lon="-1.70139">
        <ele>49</ele>
        <time>2021-05-08T14:03:18.000Z</time>
      </trkpt>
      <trkpt lat="47.12704" lon="-1.70133">
        <ele>49</ele>
        <time>2021-05-08T14:03:20.000Z</time>
      </trkpt>
      <trkpt lat="47.12717" lon="-1.70126">
        <ele>49</ele>
        <time>2021-05-08T14:03:22.000Z</time>
      </trkpt>
      <trkpt lat="47.12732" lon="-1.70119">
        <ele>48</ele>
        <time>2021-05-08T14:03:24.000Z</time>
      </trkpt>
      <trkpt lat="47.12746" lon="-1.70112">
        <ele>48</ele>
        <time>2021-05-08T14:03:26.000Z</time>
      </trkpt>
      <trkpt lat="47.1276" lon="-1.70105">
        <ele>49</ele>
        <time>2021-05-08T14:03:28.000Z</time>
      </trkpt>
      <trkpt lat="47.12773" lon="-1.70098">
        <ele>48</ele>
        <time>2021-05-08T14:03:30.000Z</time>
      </trkpt>
      <trkpt lat="47.12786" lon="-1.70091">
        <ele>48</ele>
        <time>2021-05-08T14:03:32.000Z</time>
      </trkpt>
      <trkpt lat="47.12799" lon="-1.70083">
        <ele>48</ele>
        <time>2021-05-08T14:03:34.000Z</time>
      </trkpt>
      <trkpt lat="47.12812" lon="-1.70076">
        <ele>48</ele>
        <time>2021-05-08T14:03:36.000Z</time>
      </trkpt>
      <trkpt lat="47.12825" lon="-1.7007">
        <ele>49</ele>
        <time>2021-05-08T14:03:38.000Z</time>
      </trkpt>
      <trkpt lat="47.12838" lon="-1.70063">
        <ele>50</ele>
        <time>2021-05-08T14:03:40.000Z</time>
      </trkpt>
      <trkpt lat="47.12851" lon="-1.70057">
        <ele>50</ele>
        <time>2021-05-08T14:03:42.000Z</time>
      </trkpt>
      <trkpt lat="47.12864" lon="-1.7005">
        <ele>50</ele>
        <time>2021-05-08T14:03:44.000Z</time>
      </trkpt>
      <trkpt lat="47.12877" lon="-1.70045">
        <ele>51</ele>
        <time>2021-05-08T14:03:46.000Z</time>
      </trkpt>
      <trkpt lat="47.12889" lon="-1.70038">
        <ele>51</ele>
        <time>2021-05-08T14:03:48.000Z</time>
      </trkpt>
      <trkpt lat="47.12901" lon="-1.70031">
        <ele>51</ele>
        <time>2021-05-08T14:03:50.000Z</time>
      </trkpt>
      <trkpt lat="47.12914" lon="-1.70023">
        <ele>51</ele>
        <time>2021-05-08T14:03:52.000Z</time>
      </trkpt>
      <trkpt lat="47.12927" lon="-1.70015">
        <ele>51</ele>
        <time>2021-05-08T14:03:54.000Z</time>
      </trkpt>
      <trkpt lat="47.1294" lon="-1.70007">
        <ele>50</ele>
        <time>2021-05-08T14:03:56.000Z</time>
      </trkpt>
      <trkpt lat="47.12953" lon="-1.70001">
        <ele>50</ele>
        <time>2021-05-08T14:03:58.000Z</time>
      </trkpt>
      <trkpt lat="47.12966" lon="-1.69994">
        <ele>50</ele>
        <time>2021-05-08T14:04:00.000Z</time>
      </trkpt>
      <trkpt lat="47.12979" lon="-1.69989">
        <ele>50</ele>
        <time>2021-05-08T14:04:02.000Z</time>
      </trkpt>
      <trkpt lat="47.12992" lon="-1.69982">
        <ele>49</ele>
        <time>2021-05-08T14:04:04.000Z</time>
      </trkpt>
      <trkpt lat="47.13006" lon="-1.69975">
        <ele>49</ele>
        <time>2021-05-08T14:04:06.000Z</time>
      </trkpt>
      <trkpt lat="47.1302" lon="-1.69968">
        <ele>49</ele>
        <time>2021-05-08T14:04:08.000Z</time>
      </trkpt>
      <trkpt lat="47.13033" lon="-1.69962">
        <ele>48</ele>
        <time>2021-05-08T14:04:10.000Z</time>
      </trkpt>
      <trkpt lat="47.13046" lon="-1.69955">
        <ele>48</ele>
        <time>2021-05-08T14:04:12.000Z</time>
      </trkpt>
      <trkpt lat="47.13059" lon="-1.69948">
        <ele>48</ele>
        <time>2021-05-08T14:04:14.000Z</time>
      </trkpt>
      <trkpt lat="47.13072" lon="-1.69941">
        <ele>48</ele>
        <time>2021-05-08T14:04:16.000Z</time>
      </trkpt>
      <trkpt lat="47.13085" lon="-1.69933">
        <ele>48</ele>
        <time>2021-05-08T14:04:18.000Z</time>
      </trkpt>
      <trkpt lat="47.13098" lon="-1.69926">
        <ele>49</ele>
        <time>2021-05-08T14:04:20.000Z</time>
      </trkpt>
      <trkpt lat="47.13111" lon="-1.6992">
        <ele>50</ele>
        <time>2021-05-08T14:04:22.000Z</time>
      </trkpt>
      <trkpt lat="47.13123" lon="-1.69914">
        <ele>51</ele>
        <time>2021-05-08T14:04:24.000Z</time>
      </trkpt>
      <trkpt lat="47.13136" lon="-1.69907">
        <ele>51</ele>
        <time>2021-05-08T14:04:26.000Z</time>
      </trkpt>
      <trkpt lat="47.13149" lon="-1.69899">
        <ele>51</ele>
        <time>2021-05-08T14:04:28.000Z</time>
      </trkpt>
      <trkpt lat="47.13162" lon="-1.69893">
        <ele>51</ele>
        <time>2021-05-08T14:04:30.000Z</time>
      </trkpt>
      <trkpt lat="47.13175" lon="-1.69887">
        <ele>50</ele>
        <time>2021-05-08T14:04:32.000Z</time>
      </trkpt>
      <trkpt lat="47.13187" lon="-1.69881">
        <ele>50</ele>
        <time>2021-05-08T14:04:34.000Z</time>
      </trkpt>
      <trkpt lat="47.13198" lon="-1.69874">
        <ele>51</ele>
        <time>2021-05-08T14:04:36.000Z</time>
      </trkpt>
      <trkpt lat="47.1321" lon="-1.69867">
        <ele>51</ele>
        <time>2021-05-08T14:04:38.000Z</time>
      </trkpt>
      <trkpt lat="47.13223" lon="-1.6986">
        <ele>51</ele>
        <time>2021-05-08T14:04:40.000Z</time>
      </trkpt>
      <trkpt lat="47.13237" lon="-1.69855">
        <ele>51</ele>
        <time>2021-05-08T14:04:42.000Z</time>
      </trkpt>
      <trkpt lat="47.1325" lon="-1.6985">
        <ele>51</ele>
        <time>2021-05-08T14:04:44.000Z</time>
      </trkpt>
      <trkpt lat="47.13265" lon="-1.69843">
        <ele>51</ele>
        <time>2021-05-08T14:04:46.000Z</time>
      </trkpt>
      <trkpt lat="47.13279" lon="-1.69834">
        <ele>50</ele>
        <time>2021-05-08T14:04:48.000Z</time>
      </trkpt>
      <trkpt lat="47.13293" lon="-1.69826">
        <ele>50</ele>
        <time>2021-05-08T14:04:50.000Z</time>
      </trkpt>
      <trkpt lat="47.13308" lon="-1.69817">
        <ele>50</ele>
        <time>2021-05-08T14:04:52.000Z</time>
      </trkpt>
      <trkpt lat="47.13323" lon="-1.69808">
        <ele>50</ele>
        <time>2021-05-08T14:04:54.000Z</time>
      </trkpt>
      <trkpt lat="47.13338" lon="-1.69802">
        <ele>49</ele>
        <time>2021-05-08T14:04:56.000Z</time>
      </trkpt>
      <trkpt lat="47.13353" lon="-1.69794">
        <ele>49</ele>
        <time>2021-05-08T14:04:58.000Z</time>
      </trkpt>
      <trkpt lat="47.13367" lon="-1.69787">
        <ele>49</ele>
        <time>2021-05-08T14:05:00.000Z</time>
      </trkpt>
      <trkpt lat="47.1338" lon="-1.6978">
        <ele>50</ele>
        <time>2021-05-08T14:05:02.000Z</time>
      </trkpt>
      <trkpt lat="47.13394" lon="-1.69772">
        <ele>50</ele>
        <time>2021-05-08T14:05:04.000Z</time>
      </trkpt>
      <trkpt lat="47.13407" lon="-1.69764">
        <ele>51</ele>
        <time>2021-05-08T14:05:06.000Z</time>
      </trkpt>
      <trkpt lat="47.13421" lon="-1.69756">
        <ele>51</ele>
        <time>2021-05-08T14:05:08.000Z</time>
      </trkpt>
      <trkpt lat="47.13434" lon="-1.69749">
        <ele>53</ele>
        <time>2021-05-08T14:05:10.000Z</time>
      </trkpt>
      <trkpt lat="47.13446" lon="-1.69743">
        <ele>54</ele>
        <time>2021-05-08T14:05:12.000Z</time>
      </trkpt>
      <trkpt lat="47.13461" lon="-1.69739">
        <ele>54</ele>
        <time>2021-05-08T14:05:14.000Z</time>
      </trkpt>
      <trkpt lat="47.13475" lon="-1.69735">
        <ele>55</ele>
        <time>2021-05-08T14:05:16.000Z</time>
      </trkpt>
      <trkpt lat="47.13489" lon="-1.69732">
        <ele>54</ele>
        <time>2021-05-08T14:05:18.000Z</time>
      </trkpt>
      <trkpt lat="47.13503" lon="-1.69731">
        <ele>53</ele>
        <time>2021-05-08T14:05:20.000Z</time>
      </trkpt>
      <trkpt lat="47.13516" lon="-1.69732">
        <ele>53</ele>
        <time>2021-05-08T14:05:22.000Z</time>
      </trkpt>
      <trkpt lat="47.1353" lon="-1.69733">
        <ele>52</ele>
        <time>2021-05-08T14:05:24.000Z</time>
      </trkpt>
      <trkpt lat="47.13543" lon="-1.69733">
        <ele>51</ele>
        <time>2021-05-08T14:05:26.000Z</time>
      </trkpt>
      <trkpt lat="47.13557" lon="-1.69733">
        <ele>51</ele>
        <time>2021-05-08T14:05:28.000Z</time>
      </trkpt>
      <trkpt lat="47.13572" lon="-1.69733">
        <ele>51</ele>
        <time>2021-05-08T14:05:30.000Z</time>
      </trkpt>
      <trkpt lat="47.13586" lon="-1.69732">
        <ele>51</ele>
        <time>2021-05-08T14:05:32.000Z</time>
      </trkpt>
      <trkpt lat="47.13601" lon="-1.69733">
        <ele>51</ele>
        <time>2021-05-08T14:05:34.000Z</time>
      </trkpt>
      <trkpt lat="47.13616" lon="-1.69732">
        <ele>51</ele>
        <time>2021-05-08T14:05:36.000Z</time>
      </trkpt>
      <trkpt lat="47.1363" lon="-1.69732">
        <ele>51</ele>
        <time>2021-05-08T14:05:38.000Z</time>
      </trkpt>
      <trkpt lat="47.13644" lon="-1.69733">
        <ele>51</ele>
        <time>2021-05-08T14:05:40.000Z</time>
      </trkpt>
      <trkpt lat="47.13658" lon="-1.69733">
        <ele>52</ele>
        <time>2021-05-08T14:05:42.000Z</time>
      </trkpt>
      <trkpt lat="47.13672" lon="-1.69734">
        <ele>52</ele>
        <time>2021-05-08T14:05:44.000Z</time>
      </trkpt>
      <trkpt lat="47.13687" lon="-1.69734">
        <ele>52</ele>
        <time>2021-05-08T14:05:46.000Z</time>
      </trkpt>
      <trkpt lat="47.13703" lon="-1.69733">
        <ele>52</ele>
        <time>2021-05-08T14:05:48.000Z</time>
      </trkpt>
      <trkpt lat="47.13718" lon="-1.6973">
        <ele>52</ele>
        <time>2021-05-08T14:05:50.000Z</time>
      </trkpt>
      <trkpt lat="47.13733" lon="-1.69727">
        <ele>52</ele>
        <time>2021-05-08T14:05:52.000Z</time>
      </trkpt>
      <trkpt lat="47.13748" lon="-1.69724">
        <ele>52</ele>
        <time>2021-05-08T14:05:54.000Z</time>
      </trkpt>
      <trkpt lat="47.13763" lon="-1.69722">
        <ele>52</ele>
        <time>2021-05-08T14:05:56.000Z</time>
      </trkpt>
      <trkpt lat="47.13779" lon="-1.69722">
        <ele>52</ele>
        <time>2021-05-08T14:05:58.000Z</time>
      </trkpt>
      <trkpt lat="47.13794" lon="-1.69723">
        <ele>52</ele>
        <time>2021-05-08T14:06:00.000Z</time>
      </trkpt>
      <trkpt lat="47.13809" lon="-1.69724">
        <ele>52</ele>
        <time>2021-05-08T14:06:02.000Z</time>
      </trkpt>
      <trkpt lat="47.13823" lon="-1.69724">
        <ele>52</ele>
        <time>2021-05-08T14:06:04.000Z</time>
      </trkpt>
      <trkpt lat="47.13838" lon="-1.69724">
        <ele>52</ele>
        <time>2021-05-08T14:06:06.000Z</time>
      </trkpt>
      <trkpt lat="47.13852" lon="-1.69722">
        <ele>52</ele>
        <time>2021-05-08T14:06:08.000Z</time>
      </trkpt>
      <trkpt lat="47.13866" lon="-1.69719">
        <ele>52</ele>
        <time>2021-05-08T14:06:10.000Z</time>
      </trkpt>
      <trkpt lat="47.13881" lon="-1.69716">
        <ele>52</ele>
        <time>2021-05-08T14:06:12.000Z</time>
      </trkpt>
      <trkpt lat="47.13895" lon="-1.69715">
        <ele>52</ele>
        <time>2021-05-08T14:06:14.000Z</time>
      </trkpt>
      <trkpt lat="47.1391" lon="-1.69715">
        <ele>52</ele>
        <time>2021-05-08T14:06:16.000Z</time>
      </trkpt>
      <trkpt lat="47.13925" lon="-1.69715">
        <ele>52</ele>
        <time>2021-05-08T14:06:18.000Z</time>
      </trkpt>
      <trkpt lat="47.13938" lon="-1.69715">
        <ele>52</ele>
        <time>2021-05-08T14:06:20.000Z</time>
      </trkpt>
      <trkpt lat="47.13952" lon="-1.69715">
        <ele>54</ele>
        <time>2021-05-08T14:06:22.000Z</time>
      </trkpt>
      <trkpt lat="47.13967" lon="-1.69717">
        <ele>54</ele>
        <time>2021-05-08T14:06:24.000Z</time>
      </trkpt>
      <trkpt lat="47.13982" lon="-1.69718">
        <ele>55</ele>
        <time>2021-05-08T14:06:26.000Z</time>
      </trkpt>
      <trkpt lat="47.13996" lon="-1.69719">
        <ele>55</ele>
        <time>2021-05-08T14:06:28.000Z</time>
      </trkpt>
      <trkpt lat="47.14012" lon="-1.69721">
        <ele>55</ele>
        <time>2021-05-08T14:06:30.000Z</time>
      </trkpt>
      <trkpt lat="47.14026" lon="-1.69722">
        <ele>55</ele>
        <time>2021-05-08T14:06:32.000Z</time>
      </trkpt>
      <trkpt lat="47.1404" lon="-1.69722">
        <ele>55</ele>
        <time>2021-05-08T14:06:34.000Z</time>
      </trkpt>
      <trkpt lat="47.14055" lon="-1.69724">
        <ele>55</ele>
        <time>2021-05-08T14:06:36.000Z</time>
      </trkpt>
      <trkpt lat="47.14069" lon="-1.69725">
        <ele>55</ele>
        <time>2021-05-08T14:06:38.000Z</time>
      </trkpt>
      <trkpt lat="47.14083" lon="-1.69725">
        <ele>55</ele>
        <time>2021-05-08T14:06:40.000Z</time>
      </trkpt>
      <trkpt lat="47.14098" lon="-1.69723">
        <ele>55</ele>
        <time>2021-05-08T14:06:42.000Z</time>
      </trkpt>
      <trkpt lat="47.14113" lon="-1.69722">
        <ele>55</ele>
        <time>2021-05-08T14:06:44.000Z</time>
      </trkpt>
      <trkpt lat="47.14128" lon="-1.69719">
        <ele>55</ele>
        <time>2021-05-08T14:06:46.000Z</time>
      </trkpt>
      <trkpt lat="47.14143" lon="-1.69717">
        <ele>55</ele>
        <time>2021-05-08T14:06:48.000Z</time>
      </trkpt>
      <trkpt lat="47.14157" lon="-1.69715">
        <ele>55</ele>
        <time>2021-05-08T14:06:50.000Z</time>
      </trkpt>
      <trkpt lat="47.14172" lon="-1.69712">
        <ele>55</ele>
        <time>2021-05-08T14:06:52.000Z</time>
      </trkpt>
      <trkpt lat="47.14187" lon="-1.69711">
        <ele>55</ele>
        <time>2021-05-08T14:06:54.000Z</time>
      </trkpt>
      <trkpt lat="47.14202" lon="-1.69709">
        <ele>54</ele>
        <time>2021-05-08T14:06:56.000Z</time>
      </trkpt>
      <trkpt lat="47.14217" lon="-1.69706">
        <ele>54</ele>
        <time>2021-05-08T14:06:58.000Z</time>
      </trkpt>
      <trkpt lat="47.14231" lon="-1.69704">
        <ele>54</ele>
        <time>2021-05-08T14:07:00.000Z</time>
      </trkpt>
      <trkpt lat="47.14244" lon="-1.69702">
        <ele>55</ele>
        <time>2021-05-08T14:07:02.000Z</time>
      </trkpt>
      <trkpt lat="47.14258" lon="-1.69702">
        <ele>55</ele>
        <time>2021-05-08T14:07:04.000Z</time>
      </trkpt>
      <trkpt lat="47.1427" lon="-1.69702">
        <ele>55</ele>
        <time>2021-05-08T14:07:06.000Z</time>
      </trkpt>
      <trkpt lat="47.14283" lon="-1.69703">
        <ele>55</ele>
        <time>2021-05-08T14:07:08.000Z</time>
      </trkpt>
      <trkpt lat="47.14296" lon="-1.69705">
        <ele>55</ele>
        <time>2021-05-08T14:07:10.000Z</time>
      </trkpt>
      <trkpt lat="47.14308" lon="-1.69705">
        <ele>55</ele>
        <time>2021-05-08T14:07:12.000Z</time>
      </trkpt>
      <trkpt lat="47.14319" lon="-1.697">
        <ele>55</ele>
        <time>2021-05-08T14:07:14.000Z</time>
      </trkpt>
      <trkpt lat="47.14328" lon="-1.69686">
        <ele>55</ele>
        <time>2021-05-08T14:07:16.000Z</time>
      </trkpt>
      <trkpt lat="47.14332" lon="-1.69668">
        <ele>56</ele>
        <time>2021-05-08T14:07:18.000Z</time>
      </trkpt>
      <trkpt lat="47.14337" lon="-1.6965">
        <ele>56</ele>
        <time>2021-05-08T14:07:20.000Z</time>
      </trkpt>
      <trkpt lat="47.14341" lon="-1.69631">
        <ele>56</ele>
        <time>2021-05-08T14:07:22.000Z</time>
      </trkpt>
      <trkpt lat="47.14347" lon="-1.69614">
        <ele>56</ele>
        <time>2021-05-08T14:07:24.000Z</time>
      </trkpt>
      <trkpt lat="47.14353" lon="-1.69598">
        <ele>56</ele>
        <time>2021-05-08T14:07:26.000Z</time>
      </trkpt>
      <trkpt lat="47.14358" lon="-1.69582">
        <ele>57</ele>
        <time>2021-05-08T14:07:28.000Z</time>
      </trkpt>
      <trkpt lat="47.14363" lon="-1.69567">
        <ele>57</ele>
        <time>2021-05-08T14:07:30.000Z</time>
      </trkpt>
      <trkpt lat="47.14368" lon="-1.69551">
        <ele>57</ele>
        <time>2021-05-08T14:07:32.000Z</time>
      </trkpt>
      <trkpt lat="47.14372" lon="-1.69534">
        <ele>57</ele>
        <time>2021-05-08T14:07:34.000Z</time>
      </trkpt>
      <trkpt lat="47.14375" lon="-1.69518">
        <ele>57</ele>
        <time>2021-05-08T14:07:36.000Z</time>
      </trkpt>
      <trkpt lat="47.14376" lon="-1.69501">
        <ele>58</ele>
        <time>2021-05-08T14:07:38.000Z</time>
      </trkpt>
      <trkpt lat="47.14377" lon="-1.69484">
        <ele>58</ele>
        <time>2021-05-08T14:07:40.000Z</time>
      </trkpt>
      <trkpt lat="47.14377" lon="-1.69466">
        <ele>59</ele>
        <time>2021-05-08T14:07:42.000Z</time>
      </trkpt>
      <trkpt lat="47.14377" lon="-1.6945">
        <ele>60</ele>
        <time>2021-05-08T14:07:44.000Z</time>
      </trkpt>
      <trkpt lat="47.14377" lon="-1.69435">
        <ele>60</ele>
        <time>2021-05-08T14:07:46.000Z</time>
      </trkpt>
      <trkpt lat="47.14378" lon="-1.69417">
        <ele>61</ele>
        <time>2021-05-08T14:07:49.000Z</time>
      </trkpt>
      <trkpt lat="47.14378" lon="-1.69404">
        <ele>61</ele>
        <time>2021-05-08T14:07:52.000Z</time>
      </trkpt>
      <trkpt lat="47.1438" lon="-1.69389">
        <ele>62</ele>
        <time>2021-05-08T14:07:56.000Z</time>
      </trkpt>
      <trkpt lat="47.14383" lon="-1.69371">
        <ele>62</ele>
        <time>2021-05-08T14:07:59.000Z</time>
      </trkpt>
      <trkpt lat="47.14386" lon="-1.69356">
        <ele>63</ele>
        <time>2021-05-08T14:08:01.000Z</time>
      </trkpt>
      <trkpt lat="47.14388" lon="-1.6934">
        <ele>63</ele>
        <time>2021-05-08T14:08:03.000Z</time>
      </trkpt>
      <trkpt lat="47.14388" lon="-1.69323">
        <ele>63</ele>
        <time>2021-05-08T14:08:05.000Z</time>
      </trkpt>
      <trkpt lat="47.14388" lon="-1.69306">
        <ele>62</ele>
        <time>2021-05-08T14:08:07.000Z</time>
      </trkpt>
      <trkpt lat="47.14388" lon="-1.69289">
        <ele>62</ele>
        <time>2021-05-08T14:08:09.000Z</time>
      </trkpt>
      <trkpt lat="47.14389" lon="-1.69272">
        <ele>62</ele>
        <time>2021-05-08T14:08:11.000Z</time>
      </trkpt>
      <trkpt lat="47.14389" lon="-1.69255">
        <ele>62</ele>
        <time>2021-05-08T14:08:13.000Z</time>
      </trkpt>
      <trkpt lat="47.1439" lon="-1.69239">
        <ele>62</ele>
        <time>2021-05-08T14:08:15.000Z</time>
      </trkpt>
      <trkpt lat="47.1439" lon="-1.69222">
        <ele>63</ele>
        <time>2021-05-08T14:08:17.000Z</time>
      </trkpt>
      <trkpt lat="47.14391" lon="-1.69203">
        <ele>63</ele>
        <time>2021-05-08T14:08:19.000Z</time>
      </trkpt>
      <trkpt lat="47.14391" lon="-1.69185">
        <ele>63</ele>
        <time>2021-05-08T14:08:21.000Z</time>
      </trkpt>
      <trkpt lat="47.14391" lon="-1.69167">
        <ele>63</ele>
        <time>2021-05-08T14:08:23.000Z</time>
      </trkpt>
      <trkpt lat="47.14392" lon="-1.69149">
        <ele>64</ele>
        <time>2021-05-08T14:08:25.000Z</time>
      </trkpt>
      <trkpt lat="47.14392" lon="-1.69131">
        <ele>65</ele>
        <time>2021-05-08T14:08:27.000Z</time>
      </trkpt>
      <trkpt lat="47.14393" lon="-1.69114">
        <ele>65</ele>
        <time>2021-05-08T14:08:29.000Z</time>
      </trkpt>
      <trkpt lat="47.14393" lon="-1.69096">
        <ele>65</ele>
        <time>2021-05-08T14:08:31.000Z</time>
      </trkpt>
      <trkpt lat="47.14393" lon="-1.69079">
        <ele>65</ele>
        <time>2021-05-08T14:08:33.000Z</time>
      </trkpt>
      <trkpt lat="47.14393" lon="-1.69061">
        <ele>65</ele>
        <time>2021-05-08T14:08:35.000Z</time>
      </trkpt>
      <trkpt lat="47.14393" lon="-1.69043">
        <ele>65</ele>
        <time>2021-05-08T14:08:37.000Z</time>
      </trkpt>
      <trkpt lat="47.14393" lon="-1.69025">
        <ele>65</ele>
        <time>2021-05-08T14:08:39.000Z</time>
      </trkpt>
      <trkpt lat="47.14393" lon="-1.69008">
        <ele>65</ele>
        <time>2021-05-08T14:08:41.000Z</time>
      </trkpt>
      <trkpt lat="47.14394" lon="-1.68991">
        <ele>64</ele>
        <time>2021-05-08T14:08:43.000Z</time>
      </trkpt>
      <trkpt lat="47.14394" lon="-1.68973">
        <ele>64</ele>
        <time>2021-05-08T14:08:45.000Z</time>
      </trkpt>
      <trkpt lat="47.14394" lon="-1.68954">
        <ele>64</ele>
        <time>2021-05-08T14:08:47.000Z</time>
      </trkpt>
      <trkpt lat="47.14394" lon="-1.68936">
        <ele>63</ele>
        <time>2021-05-08T14:08:49.000Z</time>
      </trkpt>
      <trkpt lat="47.14395" lon="-1.68918">
        <ele>63</ele>
        <time>2021-05-08T14:08:51.000Z</time>
      </trkpt>
      <trkpt lat="47.14395" lon="-1.689">
        <ele>62</ele>
        <time>2021-05-08T14:08:53.000Z</time>
      </trkpt>
      <trkpt lat="47.14396" lon="-1.68881">
        <ele>62</ele>
        <time>2021-05-08T14:08:55.000Z</time>
      </trkpt>
      <trkpt lat="47.14399" lon="-1.68862">
        <ele>62</ele>
        <time>2021-05-08T14:08:57.000Z</time>
      </trkpt>
      <trkpt lat="47.14402" lon="-1.68843">
        <ele>62</ele>
        <time>2021-05-08T14:08:59.000Z</time>
      </trkpt>
      <trkpt lat="47.14403" lon="-1.68824">
        <ele>61</ele>
        <time>2021-05-08T14:09:01.000Z</time>
      </trkpt>
      <trkpt lat="47.14405" lon="-1.68804">
        <ele>60</ele>
        <time>2021-05-08T14:09:03.000Z</time>
      </trkpt>
      <trkpt lat="47.14406" lon="-1.68784">
        <ele>59</ele>
        <time>2021-05-08T14:09:05.000Z</time>
      </trkpt>
      <trkpt lat="47.14407" lon="-1.68765">
        <ele>59</ele>
        <time>2021-05-08T14:09:07.000Z</time>
      </trkpt>
      <trkpt lat="47.14409" lon="-1.68744">
        <ele>59</ele>
        <time>2021-05-08T14:09:09.000Z</time>
      </trkpt>
      <trkpt lat="47.1441" lon="-1.68723">
        <ele>59</ele>
        <time>2021-05-08T14:09:11.000Z</time>
      </trkpt>
      <trkpt lat="47.14411" lon="-1.68703">
        <ele>58</ele>
        <time>2021-05-08T14:09:13.000Z</time>
      </trkpt>
      <trkpt lat="47.14407" lon="-1.68684">
        <ele>58</ele>
        <time>2021-05-08T14:09:15.000Z</time>
      </trkpt>
      <trkpt lat="47.14403" lon="-1.68666">
        <ele>58</ele>
        <time>2021-05-08T14:09:17.000Z</time>
      </trkpt>
      <trkpt lat="47.14398" lon="-1.68647">
        <ele>58</ele>
        <time>2021-05-08T14:09:19.000Z</time>
      </trkpt>
      <trkpt lat="47.14392" lon="-1.6863">
        <ele>58</ele>
        <time>2021-05-08T14:09:21.000Z</time>
      </trkpt>
      <trkpt lat="47.14388" lon="-1.68611">
        <ele>58</ele>
        <time>2021-05-08T14:09:23.000Z</time>
      </trkpt>
      <trkpt lat="47.14387" lon="-1.68592">
        <ele>58</ele>
        <time>2021-05-08T14:09:25.000Z</time>
      </trkpt>
      <trkpt lat="47.14386" lon="-1.68573">
        <ele>58</ele>
        <time>2021-05-08T14:09:27.000Z</time>
      </trkpt>
      <trkpt lat="47.14385" lon="-1.68554">
        <ele>58</ele>
        <time>2021-05-08T14:09:29.000Z</time>
      </trkpt>
      <trkpt lat="47.14385" lon="-1.68535">
        <ele>58</ele>
        <time>2021-05-08T14:09:31.000Z</time>
      </trkpt>
      <trkpt lat="47.14386" lon="-1.68516">
        <ele>58</ele>
        <time>2021-05-08T14:09:33.000Z</time>
      </trkpt>
      <trkpt lat="47.14388" lon="-1.68497">
        <ele>58</ele>
        <time>2021-05-08T14:09:35.000Z</time>
      </trkpt>
      <trkpt lat="47.14389" lon="-1.68477">
        <ele>58</ele>
        <time>2021-05-08T14:09:37.000Z</time>
      </trkpt>
      <trkpt lat="47.1439" lon="-1.68458">
        <ele>59</ele>
        <time>2021-05-08T14:09:39.000Z</time>
      </trkpt>
      <trkpt lat="47.14392" lon="-1.68437">
        <ele>58</ele>
        <time>2021-05-08T14:09:41.000Z</time>
      </trkpt>
      <trkpt lat="47.14394" lon="-1.68417">
        <ele>58</ele>
        <time>2021-05-08T14:09:43.000Z</time>
      </trkpt>
      <trkpt lat="47.14396" lon="-1.68397">
        <ele>58</ele>
        <time>2021-05-08T14:09:45.000Z</time>
      </trkpt>
      <trkpt lat="47.14395" lon="-1.68377">
        <ele>57</ele>
        <time>2021-05-08T14:09:47.000Z</time>
      </trkpt>
      <trkpt lat="47.14393" lon="-1.68357">
        <ele>57</ele>
        <time>2021-05-08T14:09:49.000Z</time>
      </trkpt>
      <trkpt lat="47.14389" lon="-1.68339">
        <ele>57</ele>
        <time>2021-05-08T14:09:51.000Z</time>
      </trkpt>
      <trkpt lat="47.14385" lon="-1.6832">
        <ele>57</ele>
        <time>2021-05-08T14:09:53.000Z</time>
      </trkpt>
      <trkpt lat="47.14381" lon="-1.68301">
        <ele>57</ele>
        <time>2021-05-08T14:09:55.000Z</time>
      </trkpt>
      <trkpt lat="47.14376" lon="-1.68284">
        <ele>57</ele>
        <time>2021-05-08T14:09:57.000Z</time>
      </trkpt>
      <trkpt lat="47.1437" lon="-1.68269">
        <ele>58</ele>
        <time>2021-05-08T14:09:59.000Z</time>
      </trkpt>
      <trkpt lat="47.14367" lon="-1.68252">
        <ele>57</ele>
        <time>2021-05-08T14:10:01.000Z</time>
      </trkpt>
      <trkpt lat="47.14366" lon="-1.68233">
        <ele>57</ele>
        <time>2021-05-08T14:10:03.000Z</time>
      </trkpt>
      <trkpt lat="47.14368" lon="-1.68215">
        <ele>58</ele>
        <time>2021-05-08T14:10:05.000Z</time>
      </trkpt>
      <trkpt lat="47.14369" lon="-1.68196">
        <ele>57</ele>
        <time>2021-05-08T14:10:07.000Z</time>
      </trkpt>
      <trkpt lat="47.14367" lon="-1.68177">
        <ele>57</ele>
        <time>2021-05-08T14:10:09.000Z</time>
      </trkpt>
      <trkpt lat="47.14366" lon="-1.68159">
        <ele>58</ele>
        <time>2021-05-08T14:10:11.000Z</time>
      </trkpt>
      <trkpt lat="47.14365" lon="-1.68142">
        <ele>58</ele>
        <time>2021-05-08T14:10:13.000Z</time>
      </trkpt>
      <trkpt lat="47.14367" lon="-1.68124">
        <ele>58</ele>
        <time>2021-05-08T14:10:15.000Z</time>
      </trkpt>
      <trkpt lat="47.14366" lon="-1.68106">
        <ele>58</ele>
        <time>2021-05-08T14:10:17.000Z</time>
      </trkpt>
      <trkpt lat="47.14365" lon="-1.68088">
        <ele>58</ele>
        <time>2021-05-08T14:10:19.000Z</time>
      </trkpt>
      <trkpt lat="47.14365" lon="-1.6807">
        <ele>58</ele>
        <time>2021-05-08T14:10:21.000Z</time>
      </trkpt>
      <trkpt lat="47.14364" lon="-1.68052">
        <ele>58</ele>
        <time>2021-05-08T14:10:23.000Z</time>
      </trkpt>
      <trkpt lat="47.14364" lon="-1.68033">
        <ele>58</ele>
        <time>2021-05-08T14:10:25.000Z</time>
      </trkpt>
      <trkpt lat="47.14363" lon="-1.68014">
        <ele>58</ele>
        <time>2021-05-08T14:10:27.000Z</time>
      </trkpt>
      <trkpt lat="47.14362" lon="-1.67996">
        <ele>58</ele>
        <time>2021-05-08T14:10:29.000Z</time>
      </trkpt>
      <trkpt lat="47.1436" lon="-1.67979">
        <ele>58</ele>
        <time>2021-05-08T14:10:31.000Z</time>
      </trkpt>
      <trkpt lat="47.14358" lon="-1.67961">
        <ele>58</ele>
        <time>2021-05-08T14:10:33.000Z</time>
      </trkpt>
      <trkpt lat="47.14357" lon="-1.67944">
        <ele>59</ele>
        <time>2021-05-08T14:10:35.000Z</time>
      </trkpt>
      <trkpt lat="47.14355" lon="-1.67927">
        <ele>58</ele>
        <time>2021-05-08T14:10:37.000Z</time>
      </trkpt>
      <trkpt lat="47.14351" lon="-1.6791">
        <ele>58</ele>
        <time>2021-05-08T14:10:39.000Z</time>
      </trkpt>
      <trkpt lat="47.14343" lon="-1.67895">
        <ele>58</ele>
        <time>2021-05-08T14:10:41.000Z</time>
      </trkpt>
      <trkpt lat="47.14338" lon="-1.67881">
        <ele>57</ele>
        <time>2021-05-08T14:10:43.000Z</time>
      </trkpt>
      <trkpt lat="47.14337" lon="-1.67862">
        <ele>57</ele>
        <time>2021-05-08T14:10:45.000Z</time>
      </trkpt>
      <trkpt lat="47.1434" lon="-1.67845">
        <ele>57</ele>
        <time>2021-05-08T14:10:47.000Z</time>
      </trkpt>
      <trkpt lat="47.14342" lon="-1.67828">
        <ele>57</ele>
        <time>2021-05-08T14:10:49.000Z</time>
      </trkpt>
      <trkpt lat="47.14341" lon="-1.6781">
        <ele>57</ele>
        <time>2021-05-08T14:10:51.000Z</time>
      </trkpt>
      <trkpt lat="47.14339" lon="-1.67792">
        <ele>57</ele>
        <time>2021-05-08T14:10:53.000Z</time>
      </trkpt>
      <trkpt lat="47.14336" lon="-1.67774">
        <ele>58</ele>
        <time>2021-05-08T14:10:55.000Z</time>
      </trkpt>
      <trkpt lat="47.14332" lon="-1.67756">
        <ele>58</ele>
        <time>2021-05-08T14:10:57.000Z</time>
      </trkpt>
      <trkpt lat="47.14327" lon="-1.67739">
        <ele>58</ele>
        <time>2021-05-08T14:10:59.000Z</time>
      </trkpt>
      <trkpt lat="47.14322" lon="-1.67723">
        <ele>58</ele>
        <time>2021-05-08T14:11:01.000Z</time>
      </trkpt>
      <trkpt lat="47.14317" lon="-1.67706">
        <ele>57</ele>
        <time>2021-05-08T14:11:03.000Z</time>
      </trkpt>
      <trkpt lat="47.14313" lon="-1.67689">
        <ele>57</ele>
        <time>2021-05-08T14:11:05.000Z</time>
      </trkpt>
      <trkpt lat="47.14309" lon="-1.67671">
        <ele>57</ele>
        <time>2021-05-08T14:11:07.000Z</time>
      </trkpt>
      <trkpt lat="47.14308" lon="-1.67652">
        <ele>58</ele>
        <time>2021-05-08T14:11:09.000Z</time>
      </trkpt>
      <trkpt lat="47.14306" lon="-1.67633">
        <ele>57</ele>
        <time>2021-05-08T14:11:11.000Z</time>
      </trkpt>
      <trkpt lat="47.14304" lon="-1.67613">
        <ele>57</ele>
        <time>2021-05-08T14:11:13.000Z</time>
      </trkpt>
      <trkpt lat="47.14303" lon="-1.67594">
        <ele>57</ele>
        <time>2021-05-08T14:11:15.000Z</time>
      </trkpt>
      <trkpt lat="47.14301" lon="-1.67574">
        <ele>57</ele>
        <time>2021-05-08T14:11:17.000Z</time>
      </trkpt>
      <trkpt lat="47.14299" lon="-1.67555">
        <ele>57</ele>
        <time>2021-05-08T14:11:19.000Z</time>
      </trkpt>
      <trkpt lat="47.14297" lon="-1.67536">
        <ele>57</ele>
        <time>2021-05-08T14:11:21.000Z</time>
      </trkpt>
      <trkpt lat="47.14294" lon="-1.67518">
        <ele>57</ele>
        <time>2021-05-08T14:11:23.000Z</time>
      </trkpt>
      <trkpt lat="47.1429" lon="-1.675">
        <ele>57</ele>
        <time>2021-05-08T14:11:25.000Z</time>
      </trkpt>
      <trkpt lat="47.14285" lon="-1.67483">
        <ele>58</ele>
        <time>2021-05-08T14:11:27.000Z</time>
      </trkpt>
      <trkpt lat="47.14281" lon="-1.67466">
        <ele>58</ele>
        <time>2021-05-08T14:11:29.000Z</time>
      </trkpt>
      <trkpt lat="47.14276" lon="-1.6745">
        <ele>59</ele>
        <time>2021-05-08T14:11:31.000Z</time>
      </trkpt>
      <trkpt lat="47.1427" lon="-1.67434">
        <ele>58</ele>
        <time>2021-05-08T14:11:33.000Z</time>
      </trkpt>
      <trkpt lat="47.14264" lon="-1.67418">
        <ele>59</ele>
        <time>2021-05-08T14:11:35.000Z</time>
      </trkpt>
      <trkpt lat="47.14259" lon="-1.67402">
        <ele>59</ele>
        <time>2021-05-08T14:11:37.000Z</time>
      </trkpt>
      <trkpt lat="47.14253" lon="-1.67387">
        <ele>59</ele>
        <time>2021-05-08T14:11:39.000Z</time>
      </trkpt>
      <trkpt lat="47.14246" lon="-1.67371">
        <ele>59</ele>
        <time>2021-05-08T14:11:41.000Z</time>
      </trkpt>
      <trkpt lat="47.1424" lon="-1.67355">
        <ele>59</ele>
        <time>2021-05-08T14:11:43.000Z</time>
      </trkpt>
      <trkpt lat="47.14233" lon="-1.67337">
        <ele>59</ele>
        <time>2021-05-08T14:11:45.000Z</time>
      </trkpt>
      <trkpt lat="47.14225" lon="-1.67319">
        <ele>59</ele>
        <time>2021-05-08T14:11:47.000Z</time>
      </trkpt>
      <trkpt lat="47.14218" lon="-1.673">
        <ele>59</ele>
        <time>2021-05-08T14:11:49.000Z</time>
      </trkpt>
      <trkpt lat="47.1421" lon="-1.67282">
        <ele>59</ele>
        <time>2021-05-08T14:11:51.000Z</time>
      </trkpt>
      <trkpt lat="47.14203" lon="-1.67264">
        <ele>59</ele>
        <time>2021-05-08T14:11:53.000Z</time>
      </trkpt>
      <trkpt lat="47.14197" lon="-1.67245">
        <ele>59</ele>
        <time>2021-05-08T14:11:55.000Z</time>
      </trkpt>
      <trkpt lat="47.14193" lon="-1.67225">
        <ele>58</ele>
        <time>2021-05-08T14:11:57.000Z</time>
      </trkpt>
      <trkpt lat="47.14189" lon="-1.67206">
        <ele>59</ele>
        <time>2021-05-08T14:11:59.000Z</time>
      </trkpt>
      <trkpt lat="47.14185" lon="-1.67186">
        <ele>58</ele>
        <time>2021-05-08T14:12:01.000Z</time>
      </trkpt>
      <trkpt lat="47.14181" lon="-1.67165">
        <ele>59</ele>
        <time>2021-05-08T14:12:03.000Z</time>
      </trkpt>
      <trkpt lat="47.14177" lon="-1.67143">
        <ele>58</ele>
        <time>2021-05-08T14:12:05.000Z</time>
      </trkpt>
      <trkpt lat="47.14173" lon="-1.67119">
        <ele>58</ele>
        <time>2021-05-08T14:12:07.000Z</time>
      </trkpt>
      <trkpt lat="47.14168" lon="-1.67095">
        <ele>58</ele>
        <time>2021-05-08T14:12:09.000Z</time>
      </trkpt>
      <trkpt lat="47.14166" lon="-1.67071">
        <ele>58</ele>
        <time>2021-05-08T14:12:11.000Z</time>
      </trkpt>
      <trkpt lat="47.14163" lon="-1.67046">
        <ele>57</ele>
        <time>2021-05-08T14:12:13.000Z</time>
      </trkpt>
      <trkpt lat="47.14162" lon="-1.67022">
        <ele>57</ele>
        <time>2021-05-08T14:12:15.000Z</time>
      </trkpt>
      <trkpt lat="47.1416" lon="-1.66997">
        <ele>56</ele>
        <time>2021-05-08T14:12:17.000Z</time>
      </trkpt>
      <trkpt lat="47.14159" lon="-1.66973">
        <ele>56</ele>
        <time>2021-05-08T14:12:19.000Z</time>
      </trkpt>
      <trkpt lat="47.1416" lon="-1.66949">
        <ele>56</ele>
        <time>2021-05-08T14:12:21.000Z</time>
      </trkpt>
      <trkpt lat="47.14163" lon="-1.66925">
        <ele>56</ele>
        <time>2021-05-08T14:12:23.000Z</time>
      </trkpt>
      <trkpt lat="47.14167" lon="-1.66902">
        <ele>56</ele>
        <time>2021-05-08T14:12:25.000Z</time>
      </trkpt>
      <trkpt lat="47.14173" lon="-1.66879">
        <ele>56</ele>
        <time>2021-05-08T14:12:27.000Z</time>
      </trkpt>
      <trkpt lat="47.1418" lon="-1.66858">
        <ele>56</ele>
        <time>2021-05-08T14:12:29.000Z</time>
      </trkpt>
      <trkpt lat="47.14187" lon="-1.66836">
        <ele>56</ele>
        <time>2021-05-08T14:12:31.000Z</time>
      </trkpt>
      <trkpt lat="47.14194" lon="-1.66814">
        <ele>55</ele>
        <time>2021-05-08T14:12:33.000Z</time>
      </trkpt>
      <trkpt lat="47.14201" lon="-1.66793">
        <ele>55</ele>
        <time>2021-05-08T14:12:35.000Z</time>
      </trkpt>
      <trkpt lat="47.14209" lon="-1.66771">
        <ele>55</ele>
        <time>2021-05-08T14:12:37.000Z</time>
      </trkpt>
      <trkpt lat="47.14216" lon="-1.66749">
        <ele>55</ele>
        <time>2021-05-08T14:12:39.000Z</time>
      </trkpt>
      <trkpt lat="47.14223" lon="-1.66727">
        <ele>55</ele>
        <time>2021-05-08T14:12:41.000Z</time>
      </trkpt>
      <trkpt lat="47.1423" lon="-1.66705">
        <ele>55</ele>
        <time>2021-05-08T14:12:43.000Z</time>
      </trkpt>
      <trkpt lat="47.14237" lon="-1.66684">
        <ele>56</ele>
        <time>2021-05-08T14:12:45.000Z</time>
      </trkpt>
      <trkpt lat="47.14244" lon="-1.66663">
        <ele>56</ele>
        <time>2021-05-08T14:12:47.000Z</time>
      </trkpt>
      <trkpt lat="47.14251" lon="-1.66643">
        <ele>56</ele>
        <time>2021-05-08T14:12:49.000Z</time>
      </trkpt>
      <trkpt lat="47.14258" lon="-1.66623">
        <ele>57</ele>
        <time>2021-05-08T14:12:51.000Z</time>
      </trkpt>
      <trkpt lat="47.14264" lon="-1.66603">
        <ele>57</ele>
        <time>2021-05-08T14:12:53.000Z</time>
      </trkpt>
      <trkpt lat="47.1427" lon="-1.66583">
        <ele>57</ele>
        <time>2021-05-08T14:12:55.000Z</time>
      </trkpt>
      <trkpt lat="47.14275" lon="-1.66563">
        <ele>58</ele>
        <time>2021-05-08T14:12:57.000Z</time>
      </trkpt>
      <trkpt lat="47.14281" lon="-1.66543">
        <ele>58</ele>
        <time>2021-05-08T14:12:59.000Z</time>
      </trkpt>
      <trkpt lat="47.14286" lon="-1.66522">
        <ele>58</ele>
        <time>2021-05-08T14:13:01.000Z</time>
      </trkpt>
      <trkpt lat="47.1429" lon="-1.66503">
        <ele>57</ele>
        <time>2021-05-08T14:13:03.000Z</time>
      </trkpt>
      <trkpt lat="47.14295" lon="-1.66482">
        <ele>57</ele>
        <time>2021-05-08T14:13:05.000Z</time>
      </trkpt>
      <trkpt lat="47.143" lon="-1.66462">
        <ele>57</ele>
        <time>2021-05-08T14:13:07.000Z</time>
      </trkpt>
      <trkpt lat="47.14306" lon="-1.66442">
        <ele>57</ele>
        <time>2021-05-08T14:13:09.000Z</time>
      </trkpt>
      <trkpt lat="47.1431" lon="-1.66423">
        <ele>58</ele>
        <time>2021-05-08T14:13:11.000Z</time>
      </trkpt>
      <trkpt lat="47.14315" lon="-1.66404">
        <ele>58</ele>
        <time>2021-05-08T14:13:13.000Z</time>
      </trkpt>
      <trkpt lat="47.14319" lon="-1.66384">
        <ele>58</ele>
        <time>2021-05-08T14:13:15.000Z</time>
      </trkpt>
      <trkpt lat="47.14324" lon="-1.66366">
        <ele>58</ele>
        <time>2021-05-08T14:13:17.000Z</time>
      </trkpt>
      <trkpt lat="47.14329" lon="-1.66347">
        <ele>58</ele>
        <time>2021-05-08T14:13:19.000Z</time>
      </trkpt>
      <trkpt lat="47.14333" lon="-1.66328">
        <ele>58</ele>
        <time>2021-05-08T14:13:21.000Z</time>
      </trkpt>
      <trkpt lat="47.14338" lon="-1.66309">
        <ele>58</ele>
        <time>2021-05-08T14:13:23.000Z</time>
      </trkpt>
      <trkpt lat="47.14342" lon="-1.6629">
        <ele>58</ele>
        <time>2021-05-08T14:13:25.000Z</time>
      </trkpt>
      <trkpt lat="47.14346" lon="-1.66271">
        <ele>58</ele>
        <time>2021-05-08T14:13:27.000Z</time>
      </trkpt>
      <trkpt lat="47.1435" lon="-1.66253">
        <ele>58</ele>
        <time>2021-05-08T14:13:29.000Z</time>
      </trkpt>
      <trkpt lat="47.14355" lon="-1.66233">
        <ele>58</ele>
        <time>2021-05-08T14:13:31.000Z</time>
      </trkpt>
      <trkpt lat="47.14358" lon="-1.66215">
        <ele>58</ele>
        <time>2021-05-08T14:13:33.000Z</time>
      </trkpt>
      <trkpt lat="47.14363" lon="-1.66197">
        <ele>59</ele>
        <time>2021-05-08T14:13:35.000Z</time>
      </trkpt>
      <trkpt lat="47.14367" lon="-1.66178">
        <ele>59</ele>
        <time>2021-05-08T14:13:37.000Z</time>
      </trkpt>
      <trkpt lat="47.14371" lon="-1.66159">
        <ele>59</ele>
        <time>2021-05-08T14:13:39.000Z</time>
      </trkpt>
      <trkpt lat="47.14374" lon="-1.66139">
        <ele>59</ele>
        <time>2021-05-08T14:13:41.000Z</time>
      </trkpt>
      <trkpt lat="47.14376" lon="-1.66119">
        <ele>59</ele>
        <time>2021-05-08T14:13:43.000Z</time>
      </trkpt>
      <trkpt lat="47.14378" lon="-1.66099">
        <ele>59</ele>
        <time>2021-05-08T14:13:45.000Z</time>
      </trkpt>
      <trkpt lat="47.1438" lon="-1.66078">
        <ele>59</ele>
        <time>2021-05-08T14:13:47.000Z</time>
      </trkpt>
      <trkpt lat="47.14382" lon="-1.66058">
        <ele>59</ele>
        <time>2021-05-08T14:13:49.000Z</time>
      </trkpt>
      <trkpt lat="47.14384" lon="-1.66038">
        <ele>59</ele>
        <time>2021-05-08T14:13:51.000Z</time>
      </trkpt>
      <trkpt lat="47.14386" lon="-1.66017">
        <ele>59</ele>
        <time>2021-05-08T14:13:53.000Z</time>
      </trkpt>
      <trkpt lat="47.14387" lon="-1.65998">
        <ele>59</ele>
        <time>2021-05-08T14:13:55.000Z</time>
      </trkpt>
      <trkpt lat="47.14388" lon="-1.65978">
        <ele>59</ele>
        <time>2021-05-08T14:13:57.000Z</time>
      </trkpt>
      <trkpt lat="47.1439" lon="-1.65958">
        <ele>59</ele>
        <time>2021-05-08T14:13:59.000Z</time>
      </trkpt>
      <trkpt lat="47.14391" lon="-1.65937">
        <ele>60</ele>
        <time>2021-05-08T14:14:01.000Z</time>
      </trkpt>
      <trkpt lat="47.14392" lon="-1.65916">
        <ele>59</ele>
        <time>2021-05-08T14:14:03.000Z</time>
      </trkpt>
      <trkpt lat="47.14393" lon="-1.65895">
        <ele>59</ele>
        <time>2021-05-08T14:14:05.000Z</time>
      </trkpt>
      <trkpt lat="47.14395" lon="-1.65874">
        <ele>59</ele>
        <time>2021-05-08T14:14:07.000Z</time>
      </trkpt>
      <trkpt lat="47.14396" lon="-1.65853">
        <ele>58</ele>
        <time>2021-05-08T14:14:09.000Z</time>
      </trkpt>
      <trkpt lat="47.14397" lon="-1.65832">
        <ele>58</ele>
        <time>2021-05-08T14:14:11.000Z</time>
      </trkpt>
      <trkpt lat="47.14399" lon="-1.65811">
        <ele>58</ele>
        <time>2021-05-08T14:14:13.000Z</time>
      </trkpt>
      <trkpt lat="47.14403" lon="-1.65791">
        <ele>58</ele>
        <time>2021-05-08T14:14:15.000Z</time>
      </trkpt>
      <trkpt lat="47.14406" lon="-1.6577">
        <ele>57</ele>
        <time>2021-05-08T14:14:17.000Z</time>
      </trkpt>
      <trkpt lat="47.14409" lon="-1.65749">
        <ele>57</ele>
        <time>2021-05-08T14:14:19.000Z</time>
      </trkpt>
      <trkpt lat="47.14412" lon="-1.65729">
        <ele>57</ele>
        <time>2021-05-08T14:14:21.000Z</time>
      </trkpt>
      <trkpt lat="47.14416" lon="-1.65708">
        <ele>57</ele>
        <time>2021-05-08T14:14:23.000Z</time>
      </trkpt>
      <trkpt lat="47.14421" lon="-1.65689">
        <ele>57</ele>
        <time>2021-05-08T14:14:25.000Z</time>
      </trkpt>
      <trkpt lat="47.14426" lon="-1.6567">
        <ele>58</ele>
        <time>2021-05-08T14:14:27.000Z</time>
      </trkpt>
      <trkpt lat="47.14432" lon="-1.65651">
        <ele>58</ele>
        <time>2021-05-08T14:14:29.000Z</time>
      </trkpt>
      <trkpt lat="47.14438" lon="-1.65632">
        <ele>58</ele>
        <time>2021-05-08T14:14:31.000Z</time>
      </trkpt>
      <trkpt lat="47.14445" lon="-1.65613">
        <ele>58</ele>
        <time>2021-05-08T14:14:33.000Z</time>
      </trkpt>
      <trkpt lat="47.14452" lon="-1.65594">
        <ele>58</ele>
        <time>2021-05-08T14:14:35.000Z</time>
      </trkpt>
      <trkpt lat="47.14459" lon="-1.65576">
        <ele>58</ele>
        <time>2021-05-08T14:14:37.000Z</time>
      </trkpt>
      <trkpt lat="47.14466" lon="-1.65558">
        <ele>58</ele>
        <time>2021-05-08T14:14:39.000Z</time>
      </trkpt>
      <trkpt lat="47.14474" lon="-1.6554">
        <ele>59</ele>
        <time>2021-05-08T14:14:41.000Z</time>
      </trkpt>
      <trkpt lat="47.14481" lon="-1.65522">
        <ele>59</ele>
        <time>2021-05-08T14:14:43.000Z</time>
      </trkpt>
      <trkpt lat="47.14488" lon="-1.65505">
        <ele>59</ele>
        <time>2021-05-08T14:14:45.000Z</time>
      </trkpt>
      <trkpt lat="47.14495" lon="-1.65487">
        <ele>59</ele>
        <time>2021-05-08T14:14:47.000Z</time>
      </trkpt>
      <trkpt lat="47.14502" lon="-1.6547">
        <ele>59</ele>
        <time>2021-05-08T14:14:49.000Z</time>
      </trkpt>
      <trkpt lat="47.14509" lon="-1.65453">
        <ele>59</ele>
        <time>2021-05-08T14:14:51.000Z</time>
      </trkpt>
      <trkpt lat="47.14515" lon="-1.65435">
        <ele>59</ele>
        <time>2021-05-08T14:14:53.000Z</time>
      </trkpt>
      <trkpt lat="47.1452" lon="-1.65417">
        <ele>59</ele>
        <time>2021-05-08T14:14:55.000Z</time>
      </trkpt>
      <trkpt lat="47.14523" lon="-1.65397">
        <ele>59</ele>
        <time>2021-05-08T14:14:57.000Z</time>
      </trkpt>
      <trkpt lat="47.14524" lon="-1.65379">
        <ele>59</ele>
        <time>2021-05-08T14:14:59.000Z</time>
      </trkpt>
      <trkpt lat="47.14529" lon="-1.6536">
        <ele>59</ele>
        <time>2021-05-08T14:15:01.000Z</time>
      </trkpt>
      <trkpt lat="47.14533" lon="-1.65342">
        <ele>59</ele>
        <time>2021-05-08T14:15:03.000Z</time>
      </trkpt>
      <trkpt lat="47.14538" lon="-1.65323">
        <ele>59</ele>
        <time>2021-05-08T14:15:05.000Z</time>
      </trkpt>
      <trkpt lat="47.14545" lon="-1.65306">
        <ele>60</ele>
        <time>2021-05-08T14:15:07.000Z</time>
      </trkpt>
      <trkpt lat="47.14554" lon="-1.6529">
        <ele>59</ele>
        <time>2021-05-08T14:15:09.000Z</time>
      </trkpt>
      <trkpt lat="47.14557" lon="-1.6527">
        <ele>59</ele>
        <time>2021-05-08T14:15:11.000Z</time>
      </trkpt>
      <trkpt lat="47.14561" lon="-1.6525">
        <ele>60</ele>
        <time>2021-05-08T14:15:13.000Z</time>
      </trkpt>
      <trkpt lat="47.14565" lon="-1.65232">
        <ele>60</ele>
        <time>2021-05-08T14:15:15.000Z</time>
      </trkpt>
      <trkpt lat="47.1457" lon="-1.65212">
        <ele>61</ele>
        <time>2021-05-08T14:15:17.000Z</time>
      </trkpt>
      <trkpt lat="47.14574" lon="-1.65193">
        <ele>61</ele>
        <time>2021-05-08T14:15:19.000Z</time>
      </trkpt>
      <trkpt lat="47.14579" lon="-1.65175">
        <ele>61</ele>
        <time>2021-05-08T14:15:21.000Z</time>
      </trkpt>
      <trkpt lat="47.14584" lon="-1.65157">
        <ele>61</ele>
        <time>2021-05-08T14:15:23.000Z</time>
      </trkpt>
      <trkpt lat="47.1459" lon="-1.65139">
        <ele>61</ele>
        <time>2021-05-08T14:15:25.000Z</time>
      </trkpt>
      <trkpt lat="47.14596" lon="-1.65121">
        <ele>61</ele>
        <time>2021-05-08T14:15:27.000Z</time>
      </trkpt>
      <trkpt lat="47.14603" lon="-1.65104">
        <ele>61</ele>
        <time>2021-05-08T14:15:29.000Z</time>
      </trkpt>
      <trkpt lat="47.14609" lon="-1.65086">
        <ele>61</ele>
        <time>2021-05-08T14:15:31.000Z</time>
      </trkpt>
      <trkpt lat="47.14616" lon="-1.65069">
        <ele>62</ele>
        <time>2021-05-08T14:15:33.000Z</time>
      </trkpt>
      <trkpt lat="47.14623" lon="-1.65052">
        <ele>62</ele>
        <time>2021-05-08T14:15:35.000Z</time>
      </trkpt>
      <trkpt lat="47.1463" lon="-1.65035">
        <ele>63</ele>
        <time>2021-05-08T14:15:37.000Z</time>
      </trkpt>
      <trkpt lat="47.14636" lon="-1.65018">
        <ele>63</ele>
        <time>2021-05-08T14:15:39.000Z</time>
      </trkpt>
      <trkpt lat="47.14643" lon="-1.65">
        <ele>63</ele>
        <time>2021-05-08T14:15:41.000Z</time>
      </trkpt>
      <trkpt lat="47.14649" lon="-1.64984">
        <ele>64</ele>
        <time>2021-05-08T14:15:43.000Z</time>
      </trkpt>
      <trkpt lat="47.14655" lon="-1.64967">
        <ele>64</ele>
        <time>2021-05-08T14:15:45.000Z</time>
      </trkpt>
      <trkpt lat="47.14661" lon="-1.64951">
        <ele>63</ele>
        <time>2021-05-08T14:15:47.000Z</time>
      </trkpt>
      <trkpt lat="47.14667" lon="-1.64935">
        <ele>63</ele>
        <time>2021-05-08T14:15:49.000Z</time>
      </trkpt>
      <trkpt lat="47.14672" lon="-1.64918">
        <ele>64</ele>
        <time>2021-05-08T14:15:51.000Z</time>
      </trkpt>
      <trkpt lat="47.14678" lon="-1.64901">
        <ele>64</ele>
        <time>2021-05-08T14:15:53.000Z</time>
      </trkpt>
      <trkpt lat="47.14684" lon="-1.64882">
        <ele>64</ele>
        <time>2021-05-08T14:15:55.000Z</time>
      </trkpt>
      <trkpt lat="47.14689" lon="-1.64863">
        <ele>63</ele>
        <time>2021-05-08T14:15:57.000Z</time>
      </trkpt>
      <trkpt lat="47.14694" lon="-1.64844">
        <ele>63</ele>
        <time>2021-05-08T14:15:59.000Z</time>
      </trkpt>
      <trkpt lat="47.14699" lon="-1.64827">
        <ele>64</ele>
        <time>2021-05-08T14:16:01.000Z</time>
      </trkpt>
      <trkpt lat="47.14704" lon="-1.64809">
        <ele>64</ele>
        <time>2021-05-08T14:16:03.000Z</time>
      </trkpt>
      <trkpt lat="47.14709" lon="-1.6479">
        <ele>64</ele>
        <time>2021-05-08T14:16:05.000Z</time>
      </trkpt>
      <trkpt lat="47.14714" lon="-1.64772">
        <ele>64</ele>
        <time>2021-05-08T14:16:07.000Z</time>
      </trkpt>
      <trkpt lat="47.14718" lon="-1.64753">
        <ele>65</ele>
        <time>2021-05-08T14:16:09.000Z</time>
      </trkpt>
      <trkpt lat="47.14722" lon="-1.64735">
        <ele>65</ele>
        <time>2021-05-08T14:16:11.000Z</time>
      </trkpt>
      <trkpt lat="47.14726" lon="-1.64717">
        <ele>65</ele>
        <time>2021-05-08T14:16:13.000Z</time>
      </trkpt>
      <trkpt lat="47.1473" lon="-1.64699">
        <ele>66</ele>
        <time>2021-05-08T14:16:15.000Z</time>
      </trkpt>
      <trkpt lat="47.14734" lon="-1.6468">
        <ele>66</ele>
        <time>2021-05-08T14:16:17.000Z</time>
      </trkpt>
      <trkpt lat="47.14737" lon="-1.64661">
        <ele>67</ele>
        <time>2021-05-08T14:16:19.000Z</time>
      </trkpt>
      <trkpt lat="47.1474" lon="-1.64643">
        <ele>67</ele>
        <time>2021-05-08T14:16:21.000Z</time>
      </trkpt>
      <trkpt lat="47.14742" lon="-1.64624">
        <ele>67</ele>
        <time>2021-05-08T14:16:23.000Z</time>
      </trkpt>
      <trkpt lat="47.14746" lon="-1.64606">
        <ele>67</ele>
        <time>2021-05-08T14:16:25.000Z</time>
      </trkpt>
      <trkpt lat="47.14748" lon="-1.64587">
        <ele>68</ele>
        <time>2021-05-08T14:16:27.000Z</time>
      </trkpt>
      <trkpt lat="47.14751" lon="-1.6457">
        <ele>68</ele>
        <time>2021-05-08T14:16:29.000Z</time>
      </trkpt>
      <trkpt lat="47.14754" lon="-1.64553">
        <ele>68</ele>
        <time>2021-05-08T14:16:31.000Z</time>
      </trkpt>
      <trkpt lat="47.14757" lon="-1.64534">
        <ele>68</ele>
        <time>2021-05-08T14:16:33.000Z</time>
      </trkpt>
      <trkpt lat="47.1476" lon="-1.64517">
        <ele>68</ele>
        <time>2021-05-08T14:16:35.000Z</time>
      </trkpt>
      <trkpt lat="47.14763" lon="-1.64498">
        <ele>67</ele>
        <time>2021-05-08T14:16:37.000Z</time>
      </trkpt>
      <trkpt lat="47.14766" lon="-1.6448">
        <ele>68</ele>
        <time>2021-05-08T14:16:39.000Z</time>
      </trkpt>
      <trkpt lat="47.14769" lon="-1.64461">
        <ele>68</ele>
        <time>2021-05-08T14:16:41.000Z</time>
      </trkpt>
      <trkpt lat="47.14772" lon="-1.64443">
        <ele>67</ele>
        <time>2021-05-08T14:16:43.000Z</time>
      </trkpt>
      <trkpt lat="47.14775" lon="-1.64426">
        <ele>67</ele>
        <time>2021-05-08T14:16:45.000Z</time>
      </trkpt>
      <trkpt lat="47.14779" lon="-1.64408">
        <ele>67</ele>
        <time>2021-05-08T14:16:47.000Z</time>
      </trkpt>
      <trkpt lat="47.14782" lon="-1.6439">
        <ele>68</ele>
        <time>2021-05-08T14:16:49.000Z</time>
      </trkpt>
      <trkpt lat="47.14787" lon="-1.64372">
        <ele>67</ele>
        <time>2021-05-08T14:16:51.000Z</time>
      </trkpt>
      <trkpt lat="47.14791" lon="-1.64355">
        <ele>67</ele>
        <time>2021-05-08T14:16:53.000Z</time>
      </trkpt>
      <trkpt lat="47.14796" lon="-1.64337">
        <ele>68</ele>
        <time>2021-05-08T14:16:55.000Z</time>
      </trkpt>
      <trkpt lat="47.148" lon="-1.64318">
        <ele>68</ele>
        <time>2021-05-08T14:16:57.000Z</time>
      </trkpt>
      <trkpt lat="47.14804" lon="-1.643">
        <ele>68</ele>
        <time>2021-05-08T14:16:59.000Z</time>
      </trkpt>
      <trkpt lat="47.14809" lon="-1.64283">
        <ele>68</ele>
        <time>2021-05-08T14:17:01.000Z</time>
      </trkpt>
      <trkpt lat="47.14814" lon="-1.64265">
        <ele>68</ele>
        <time>2021-05-08T14:17:03.000Z</time>
      </trkpt>
      <trkpt lat="47.14819" lon="-1.64247">
        <ele>68</ele>
        <time>2021-05-08T14:17:05.000Z</time>
      </trkpt>
      <trkpt lat="47.14824" lon="-1.6423">
        <ele>68</ele>
        <time>2021-05-08T14:17:07.000Z</time>
      </trkpt>
      <trkpt lat="47.1483" lon="-1.64213">
        <ele>68</ele>
        <time>2021-05-08T14:17:09.000Z</time>
      </trkpt>
      <trkpt lat="47.14835" lon="-1.64196">
        <ele>67</ele>
        <time>2021-05-08T14:17:11.000Z</time>
      </trkpt>
      <trkpt lat="47.14841" lon="-1.64178">
        <ele>67</ele>
        <time>2021-05-08T14:17:13.000Z</time>
      </trkpt>
      <trkpt lat="47.14846" lon="-1.64161">
        <ele>67</ele>
        <time>2021-05-08T14:17:15.000Z</time>
      </trkpt>
      <trkpt lat="47.14851" lon="-1.64144">
        <ele>67</ele>
        <time>2021-05-08T14:17:17.000Z</time>
      </trkpt>
      <trkpt lat="47.14857" lon="-1.64127">
        <ele>67</ele>
        <time>2021-05-08T14:17:19.000Z</time>
      </trkpt>
      <trkpt lat="47.14864" lon="-1.64111">
        <ele>67</ele>
        <time>2021-05-08T14:17:21.000Z</time>
      </trkpt>
      <trkpt lat="47.1487" lon="-1.64094">
        <ele>66</ele>
        <time>2021-05-08T14:17:23.000Z</time>
      </trkpt>
      <trkpt lat="47.14875" lon="-1.64078">
        <ele>67</ele>
        <time>2021-05-08T14:17:25.000Z</time>
      </trkpt>
      <trkpt lat="47.14879" lon="-1.6406">
        <ele>67</ele>
        <time>2021-05-08T14:17:27.000Z</time>
      </trkpt>
      <trkpt lat="47.1488" lon="-1.64045">
        <ele>67</ele>
        <time>2021-05-08T14:17:29.000Z</time>
      </trkpt>
      <trkpt lat="47.14886" lon="-1.64033">
        <ele>67</ele>
        <time>2021-05-08T14:17:31.000Z</time>
      </trkpt>
      <trkpt lat="47.14892" lon="-1.64023">
        <ele>67</ele>
        <time>2021-05-08T14:17:33.000Z</time>
      </trkpt>
      <trkpt lat="47.14905" lon="-1.64016">
        <ele>66</ele>
        <time>2021-05-08T14:17:36.000Z</time>
      </trkpt>
      <trkpt lat="47.14914" lon="-1.64">
        <ele>66</ele>
        <time>2021-05-08T14:17:38.000Z</time>
      </trkpt>
      <trkpt lat="47.14922" lon="-1.63983">
        <ele>66</ele>
        <time>2021-05-08T14:17:40.000Z</time>
      </trkpt>
      <trkpt lat="47.14931" lon="-1.63967">
        <ele>66</ele>
        <time>2021-05-08T14:17:42.000Z</time>
      </trkpt>
      <trkpt lat="47.1494" lon="-1.6395">
        <ele>65</ele>
        <time>2021-05-08T14:17:44.000Z</time>
      </trkpt>
      <trkpt lat="47.1495" lon="-1.63934">
        <ele>66</ele>
        <time>2021-05-08T14:17:46.000Z</time>
      </trkpt>
      <trkpt lat="47.14961" lon="-1.63919">
        <ele>65</ele>
        <time>2021-05-08T14:17:48.000Z</time>
      </trkpt>
      <trkpt lat="47.14971" lon="-1.63903">
        <ele>65</ele>
        <time>2021-05-08T14:17:50.000Z</time>
      </trkpt>
      <trkpt lat="47.14982" lon="-1.63888">
        <ele>65</ele>
        <time>2021-05-08T14:17:52.000Z</time>
      </trkpt>
      <trkpt lat="47.14992" lon="-1.63873">
        <ele>65</ele>
        <time>2021-05-08T14:17:54.000Z</time>
      </trkpt>
      <trkpt lat="47.15003" lon="-1.63859">
        <ele>65</ele>
        <time>2021-05-08T14:17:56.000Z</time>
      </trkpt>
      <trkpt lat="47.15014" lon="-1.63843">
        <ele>65</ele>
        <time>2021-05-08T14:17:58.000Z</time>
      </trkpt>
      <trkpt lat="47.15026" lon="-1.63829">
        <ele>64</ele>
        <time>2021-05-08T14:18:00.000Z</time>
      </trkpt>
      <trkpt lat="47.15037" lon="-1.63814">
        <ele>64</ele>
        <time>2021-05-08T14:18:02.000Z</time>
      </trkpt>
      <trkpt lat="47.15049" lon="-1.63798">
        <ele>64</ele>
        <time>2021-05-08T14:18:04.000Z</time>
      </trkpt>
      <trkpt lat="47.1506" lon="-1.63784">
        <ele>64</ele>
        <time>2021-05-08T14:18:06.000Z</time>
      </trkpt>
      <trkpt lat="47.15071" lon="-1.63769">
        <ele>64</ele>
        <time>2021-05-08T14:18:08.000Z</time>
      </trkpt>
      <trkpt lat="47.15083" lon="-1.63755">
        <ele>64</ele>
        <time>2021-05-08T14:18:10.000Z</time>
      </trkpt>
      <trkpt lat="47.15095" lon="-1.63742">
        <ele>64</ele>
        <time>2021-05-08T14:18:12.000Z</time>
      </trkpt>
      <trkpt lat="47.15106" lon="-1.63729">
        <ele>65</ele>
        <time>2021-05-08T14:18:14.000Z</time>
      </trkpt>
      <trkpt lat="47.15118" lon="-1.63717">
        <ele>64</ele>
        <time>2021-05-08T14:18:16.000Z</time>
      </trkpt>
      <trkpt lat="47.15131" lon="-1.63705">
        <ele>64</ele>
        <time>2021-05-08T14:18:18.000Z</time>
      </trkpt>
      <trkpt lat="47.15142" lon="-1.63693">
        <ele>64</ele>
        <time>2021-05-08T14:18:20.000Z</time>
      </trkpt>
      <trkpt lat="47.15154" lon="-1.63682">
        <ele>64</ele>
        <time>2021-05-08T14:18:22.000Z</time>
      </trkpt>
      <trkpt lat="47.15166" lon="-1.63671">
        <ele>64</ele>
        <time>2021-05-08T14:18:24.000Z</time>
      </trkpt>
      <trkpt lat="47.15178" lon="-1.6366">
        <ele>64</ele>
        <time>2021-05-08T14:18:26.000Z</time>
      </trkpt>
      <trkpt lat="47.1519" lon="-1.63649">
        <ele>64</ele>
        <time>2021-05-08T14:18:28.000Z</time>
      </trkpt>
      <trkpt lat="47.15202" lon="-1.63639">
        <ele>64</ele>
        <time>2021-05-08T14:18:30.000Z</time>
      </trkpt>
      <trkpt lat="47.15214" lon="-1.63628">
        <ele>64</ele>
        <time>2021-05-08T14:18:32.000Z</time>
      </trkpt>
      <trkpt lat="47.15226" lon="-1.63616">
        <ele>65</ele>
        <time>2021-05-08T14:18:34.000Z</time>
      </trkpt>
      <trkpt lat="47.15238" lon="-1.63605">
        <ele>65</ele>
        <time>2021-05-08T14:18:36.000Z</time>
      </trkpt>
      <trkpt lat="47.1525" lon="-1.63594">
        <ele>66</ele>
        <time>2021-05-08T14:18:38.000Z</time>
      </trkpt>
      <trkpt lat="47.15263" lon="-1.63583">
        <ele>66</ele>
        <time>2021-05-08T14:18:40.000Z</time>
      </trkpt>
      <trkpt lat="47.15275" lon="-1.63572">
        <ele>66</ele>
        <time>2021-05-08T14:18:42.000Z</time>
      </trkpt>
      <trkpt lat="47.15287" lon="-1.6356">
        <ele>66</ele>
        <time>2021-05-08T14:18:44.000Z</time>
      </trkpt>
      <trkpt lat="47.15298" lon="-1.6355">
        <ele>66</ele>
        <time>2021-05-08T14:18:46.000Z</time>
      </trkpt>
      <trkpt lat="47.1531" lon="-1.63539">
        <ele>66</ele>
        <time>2021-05-08T14:18:48.000Z</time>
      </trkpt>
      <trkpt lat="47.15323" lon="-1.63528">
        <ele>66</ele>
        <time>2021-05-08T14:18:50.000Z</time>
      </trkpt>
      <trkpt lat="47.15335" lon="-1.63518">
        <ele>66</ele>
        <time>2021-05-08T14:18:52.000Z</time>
      </trkpt>
      <trkpt lat="47.15347" lon="-1.63507">
        <ele>66</ele>
        <time>2021-05-08T14:18:54.000Z</time>
      </trkpt>
      <trkpt lat="47.15358" lon="-1.63496">
        <ele>66</ele>
        <time>2021-05-08T14:18:56.000Z</time>
      </trkpt>
      <trkpt lat="47.1537" lon="-1.63485">
        <ele>65</ele>
        <time>2021-05-08T14:18:58.000Z</time>
      </trkpt>
      <trkpt lat="47.15382" lon="-1.63474">
        <ele>65</ele>
        <time>2021-05-08T14:19:00.000Z</time>
      </trkpt>
      <trkpt lat="47.15394" lon="-1.63464">
        <ele>65</ele>
        <time>2021-05-08T14:19:02.000Z</time>
      </trkpt>
      <trkpt lat="47.15406" lon="-1.63453">
        <ele>64</ele>
        <time>2021-05-08T14:19:04.000Z</time>
      </trkpt>
      <trkpt lat="47.15419" lon="-1.63443">
        <ele>64</ele>
        <time>2021-05-08T14:19:06.000Z</time>
      </trkpt>
      <trkpt lat="47.15431" lon="-1.63431">
        <ele>64</ele>
        <time>2021-05-08T14:19:08.000Z</time>
      </trkpt>
      <trkpt lat="47.15442" lon="-1.63418">
        <ele>64</ele>
        <time>2021-05-08T14:19:10.000Z</time>
      </trkpt>
      <trkpt lat="47.15455" lon="-1.63407">
        <ele>64</ele>
        <time>2021-05-08T14:19:12.000Z</time>
      </trkpt>
      <trkpt lat="47.15468" lon="-1.63397">
        <ele>64</ele>
        <time>2021-05-08T14:19:14.000Z</time>
      </trkpt>
      <trkpt lat="47.15481" lon="-1.63388">
        <ele>63</ele>
        <time>2021-05-08T14:19:16.000Z</time>
      </trkpt>
      <trkpt lat="47.15494" lon="-1.63378">
        <ele>63</ele>
        <time>2021-05-08T14:19:18.000Z</time>
      </trkpt>
      <trkpt lat="47.15507" lon="-1.63368">
        <ele>62</ele>
        <time>2021-05-08T14:19:20.000Z</time>
      </trkpt>
      <trkpt lat="47.1552" lon="-1.63357">
        <ele>62</ele>
        <time>2021-05-08T14:19:22.000Z</time>
      </trkpt>
      <trkpt lat="47.15534" lon="-1.63345">
        <ele>61</ele>
        <time>2021-05-08T14:19:24.000Z</time>
      </trkpt>
      <trkpt lat="47.15548" lon="-1.63333">
        <ele>61</ele>
        <time>2021-05-08T14:19:26.000Z</time>
      </trkpt>
      <trkpt lat="47.15562" lon="-1.6332">
        <ele>60</ele>
        <time>2021-05-08T14:19:28.000Z</time>
      </trkpt>
      <trkpt lat="47.15577" lon="-1.63307">
        <ele>59</ele>
        <time>2021-05-08T14:19:30.000Z</time>
      </trkpt>
      <trkpt lat="47.15592" lon="-1.63294">
        <ele>59</ele>
        <time>2021-05-08T14:19:32.000Z</time>
      </trkpt>
      <trkpt lat="47.15606" lon="-1.63281">
        <ele>59</ele>
        <time>2021-05-08T14:19:34.000Z</time>
      </trkpt>
      <trkpt lat="47.1562" lon="-1.63269">
        <ele>59</ele>
        <time>2021-05-08T14:19:36.000Z</time>
      </trkpt>
      <trkpt lat="47.15634" lon="-1.63257">
        <ele>59</ele>
        <time>2021-05-08T14:19:38.000Z</time>
      </trkpt>
      <trkpt lat="47.15647" lon="-1.63245">
        <ele>59</ele>
        <time>2021-05-08T14:19:40.000Z</time>
      </trkpt>
      <trkpt lat="47.15661" lon="-1.63233">
        <ele>59</ele>
        <time>2021-05-08T14:19:42.000Z</time>
      </trkpt>
      <trkpt lat="47.15674" lon="-1.63221">
        <ele>60</ele>
        <time>2021-05-08T14:19:44.000Z</time>
      </trkpt>
      <trkpt lat="47.15687" lon="-1.63209">
        <ele>59</ele>
        <time>2021-05-08T14:19:46.000Z</time>
      </trkpt>
      <trkpt lat="47.157" lon="-1.63198">
        <ele>60</ele>
        <time>2021-05-08T14:19:48.000Z</time>
      </trkpt>
      <trkpt lat="47.15712" lon="-1.63187">
        <ele>59</ele>
        <time>2021-05-08T14:19:50.000Z</time>
      </trkpt>
      <trkpt lat="47.15725" lon="-1.63176">
        <ele>60</ele>
        <time>2021-05-08T14:19:52.000Z</time>
      </trkpt>
      <trkpt lat="47.15737" lon="-1.63164">
        <ele>60</ele>
        <time>2021-05-08T14:19:54.000Z</time>
      </trkpt>
      <trkpt lat="47.15748" lon="-1.63151">
        <ele>60</ele>
        <time>2021-05-08T14:19:56.000Z</time>
      </trkpt>
      <trkpt lat="47.15762" lon="-1.63142">
        <ele>59</ele>
        <time>2021-05-08T14:19:58.000Z</time>
      </trkpt>
      <trkpt lat="47.15775" lon="-1.63131">
        <ele>59</ele>
        <time>2021-05-08T14:20:00.000Z</time>
      </trkpt>
      <trkpt lat="47.15789" lon="-1.63119">
        <ele>58</ele>
        <time>2021-05-08T14:20:02.000Z</time>
      </trkpt>
      <trkpt lat="47.15804" lon="-1.63106">
        <ele>57</ele>
        <time>2021-05-08T14:20:04.000Z</time>
      </trkpt>
      <trkpt lat="47.15819" lon="-1.63092">
        <ele>56</ele>
        <time>2021-05-08T14:20:06.000Z</time>
      </trkpt>
      <trkpt lat="47.15834" lon="-1.63079">
        <ele>56</ele>
        <time>2021-05-08T14:20:08.000Z</time>
      </trkpt>
      <trkpt lat="47.15849" lon="-1.63065">
        <ele>55</ele>
        <time>2021-05-08T14:20:10.000Z</time>
      </trkpt>
      <trkpt lat="47.15857" lon="-1.63058">
        <ele>55</ele>
        <time>2021-05-08T14:20:11.000Z</time>
      </trkpt>
      <trkpt lat="47.15865" lon="-1.63051">
        <ele>55</ele>
        <time>2021-05-08T14:20:12.000Z</time>
      </trkpt>
      <trkpt lat="47.15873" lon="-1.63044">
        <ele>55</ele>
        <time>2021-05-08T14:20:13.000Z</time>
      </trkpt>
      <trkpt lat="47.15881" lon="-1.63037">
        <ele>55</ele>
        <time>2021-05-08T14:20:14.000Z</time>
      </trkpt>
      <trkpt lat="47.15889" lon="-1.63031">
        <ele>55</ele>
        <time>2021-05-08T14:20:15.000Z</time>
      </trkpt>
      <trkpt lat="47.15903" lon="-1.63017">
        <ele>55</ele>
        <time>2021-05-08T14:20:17.000Z</time>
      </trkpt>
      <trkpt lat="47.15918" lon="-1.63004">
        <ele>55</ele>
        <time>2021-05-08T14:20:19.000Z</time>
      </trkpt>
      <trkpt lat="47.15932" lon="-1.62993">
        <ele>55</ele>
        <time>2021-05-08T14:20:21.000Z</time>
      </trkpt>
      <trkpt lat="47.15945" lon="-1.62981">
        <ele>56</ele>
        <time>2021-05-08T14:20:23.000Z</time>
      </trkpt>
      <trkpt lat="47.15957" lon="-1.6297">
        <ele>57</ele>
        <time>2021-05-08T14:20:25.000Z</time>
      </trkpt>
      <trkpt lat="47.15969" lon="-1.6296">
        <ele>57</ele>
        <time>2021-05-08T14:20:27.000Z</time>
      </trkpt>
      <trkpt lat="47.15982" lon="-1.6295">
        <ele>58</ele>
        <time>2021-05-08T14:20:29.000Z</time>
      </trkpt>
      <trkpt lat="47.15993" lon="-1.62939">
        <ele>59</ele>
        <time>2021-05-08T14:20:31.000Z</time>
      </trkpt>
      <trkpt lat="47.16005" lon="-1.62928">
        <ele>59</ele>
        <time>2021-05-08T14:20:33.000Z</time>
      </trkpt>
      <trkpt lat="47.16017" lon="-1.62917">
        <ele>60</ele>
        <time>2021-05-08T14:20:35.000Z</time>
      </trkpt>
      <trkpt lat="47.16029" lon="-1.62906">
        <ele>60</ele>
        <time>2021-05-08T14:20:37.000Z</time>
      </trkpt>
      <trkpt lat="47.16041" lon="-1.62896">
        <ele>61</ele>
        <time>2021-05-08T14:20:39.000Z</time>
      </trkpt>
      <trkpt lat="47.16054" lon="-1.62885">
        <ele>61</ele>
        <time>2021-05-08T14:20:41.000Z</time>
      </trkpt>
      <trkpt lat="47.16066" lon="-1.62874">
        <ele>61</ele>
        <time>2021-05-08T14:20:43.000Z</time>
      </trkpt>
      <trkpt lat="47.16078" lon="-1.62864">
        <ele>62</ele>
        <time>2021-05-08T14:20:45.000Z</time>
      </trkpt>
      <trkpt lat="47.1609" lon="-1.62852">
        <ele>62</ele>
        <time>2021-05-08T14:20:47.000Z</time>
      </trkpt>
      <trkpt lat="47.16102" lon="-1.62841">
        <ele>63</ele>
        <time>2021-05-08T14:20:49.000Z</time>
      </trkpt>
      <trkpt lat="47.16114" lon="-1.62832">
        <ele>63</ele>
        <time>2021-05-08T14:20:51.000Z</time>
      </trkpt>
      <trkpt lat="47.16126" lon="-1.62821">
        <ele>63</ele>
        <time>2021-05-08T14:20:53.000Z</time>
      </trkpt>
      <trkpt lat="47.16137" lon="-1.62811">
        <ele>64</ele>
        <time>2021-05-08T14:20:55.000Z</time>
      </trkpt>
      <trkpt lat="47.16149" lon="-1.62802">
        <ele>64</ele>
        <time>2021-05-08T14:20:57.000Z</time>
      </trkpt>
      <trkpt lat="47.1616" lon="-1.62791">
        <ele>64</ele>
        <time>2021-05-08T14:20:59.000Z</time>
      </trkpt>
      <trkpt lat="47.16171" lon="-1.62781">
        <ele>64</ele>
        <time>2021-05-08T14:21:01.000Z</time>
      </trkpt>
      <trkpt lat="47.16181" lon="-1.62771">
        <ele>64</ele>
        <time>2021-05-08T14:21:03.000Z</time>
      </trkpt>
      <trkpt lat="47.16191" lon="-1.6276">
        <ele>65</ele>
        <time>2021-05-08T14:21:05.000Z</time>
      </trkpt>
      <trkpt lat="47.16201" lon="-1.62751">
        <ele>65</ele>
        <time>2021-05-08T14:21:07.000Z</time>
      </trkpt>
      <trkpt lat="47.16211" lon="-1.62742">
        <ele>65</ele>
        <time>2021-05-08T14:21:09.000Z</time>
      </trkpt>
      <trkpt lat="47.16221" lon="-1.62734">
        <ele>66</ele>
        <time>2021-05-08T14:21:11.000Z</time>
      </trkpt>
      <trkpt lat="47.16231" lon="-1.62726">
        <ele>66</ele>
        <time>2021-05-08T14:21:13.000Z</time>
      </trkpt>
      <trkpt lat="47.1624" lon="-1.62719">
        <ele>66</ele>
        <time>2021-05-08T14:21:15.000Z</time>
      </trkpt>
      <trkpt lat="47.16248" lon="-1.62712">
        <ele>66</ele>
        <time>2021-05-08T14:21:17.000Z</time>
      </trkpt>
      <trkpt lat="47.16259" lon="-1.62703">
        <ele>66</ele>
        <time>2021-05-08T14:21:20.000Z</time>
      </trkpt>
      <trkpt lat="47.16268" lon="-1.62696">
        <ele>67</ele>
        <time>2021-05-08T14:21:23.000Z</time>
      </trkpt>
      <trkpt lat="47.16276" lon="-1.62689">
        <ele>67</ele>
        <time>2021-05-08T14:21:26.000Z</time>
      </trkpt>
      <trkpt lat="47.16274" lon="-1.62674">
        <ele>68</ele>
        <time>2021-05-08T14:21:28.000Z</time>
      </trkpt>
      <trkpt lat="47.16274" lon="-1.62654">
        <ele>68</ele>
        <time>2021-05-08T14:21:30.000Z</time>
      </trkpt>
      <trkpt lat="47.16277" lon="-1.62634">
        <ele>68</ele>
        <time>2021-05-08T14:21:32.000Z</time>
      </trkpt>
      <trkpt lat="47.1628" lon="-1.62615">
        <ele>68</ele>
        <time>2021-05-08T14:21:34.000Z</time>
      </trkpt>
      <trkpt lat="47.16285" lon="-1.62598">
        <ele>68</ele>
        <time>2021-05-08T14:21:36.000Z</time>
      </trkpt>
      <trkpt lat="47.16293" lon="-1.62583">
        <ele>68</ele>
        <time>2021-05-08T14:21:38.000Z</time>
      </trkpt>
      <trkpt lat="47.16304" lon="-1.62573">
        <ele>68</ele>
        <time>2021-05-08T14:21:40.000Z</time>
      </trkpt>
      <trkpt lat="47.16317" lon="-1.62569">
        <ele>67</ele>
        <time>2021-05-08T14:21:42.000Z</time>
      </trkpt>
      <trkpt lat="47.16331" lon="-1.62572">
        <ele>67</ele>
        <time>2021-05-08T14:21:44.000Z</time>
      </trkpt>
      <trkpt lat="47.16345" lon="-1.62578">
        <ele>68</ele>
        <time>2021-05-08T14:21:46.000Z</time>
      </trkpt>
      <trkpt lat="47.16358" lon="-1.62581">
        <ele>68</ele>
        <time>2021-05-08T14:21:48.000Z</time>
      </trkpt>
      <trkpt lat="47.16371" lon="-1.62582">
        <ele>68</ele>
        <time>2021-05-08T14:21:50.000Z</time>
      </trkpt>
      <trkpt lat="47.16383" lon="-1.62581">
        <ele>68</ele>
        <time>2021-05-08T14:21:52.000Z</time>
      </trkpt>
      <trkpt lat="47.16395" lon="-1.62574">
        <ele>68</ele>
        <time>2021-05-08T14:21:54.000Z</time>
      </trkpt>
      <trkpt lat="47.16406" lon="-1.62564">
        <ele>68</ele>
        <time>2021-05-08T14:21:56.000Z</time>
      </trkpt>
      <trkpt lat="47.16416" lon="-1.62554">
        <ele>68</ele>
        <time>2021-05-08T14:21:58.000Z</time>
      </trkpt>
      <trkpt lat="47.16427" lon="-1.62544">
        <ele>68</ele>
        <time>2021-05-08T14:22:00.000Z</time>
      </trkpt>
      <trkpt lat="47.16439" lon="-1.62539">
        <ele>68</ele>
        <time>2021-05-08T14:22:02.000Z</time>
      </trkpt>
      <trkpt lat="47.16452" lon="-1.62542">
        <ele>68</ele>
        <time>2021-05-08T14:22:04.000Z</time>
      </trkpt>
      <trkpt lat="47.16464" lon="-1.62547">
        <ele>68</ele>
        <time>2021-05-08T14:22:06.000Z</time>
      </trkpt>
      <trkpt lat="47.16477" lon="-1.6255">
        <ele>69</ele>
        <time>2021-05-08T14:22:08.000Z</time>
      </trkpt>
      <trkpt lat="47.16491" lon="-1.62555">
        <ele>68</ele>
        <time>2021-05-08T14:22:10.000Z</time>
      </trkpt>
      <trkpt lat="47.16504" lon="-1.62559">
        <ele>68</ele>
        <time>2021-05-08T14:22:12.000Z</time>
      </trkpt>
      <trkpt lat="47.16518" lon="-1.62564">
        <ele>67</ele>
        <time>2021-05-08T14:22:14.000Z</time>
      </trkpt>
      <trkpt lat="47.16532" lon="-1.62564">
        <ele>67</ele>
        <time>2021-05-08T14:22:16.000Z</time>
      </trkpt>
      <trkpt lat="47.16545" lon="-1.62553">
        <ele>67</ele>
        <time>2021-05-08T14:22:18.000Z</time>
      </trkpt>
      <trkpt lat="47.16556" lon="-1.62539">
        <ele>67</ele>
        <time>2021-05-08T14:22:20.000Z</time>
      </trkpt>
      <trkpt lat="47.16565" lon="-1.62522">
        <ele>67</ele>
        <time>2021-05-08T14:22:22.000Z</time>
      </trkpt>
      <trkpt lat="47.16573" lon="-1.62504">
        <ele>67</ele>
        <time>2021-05-08T14:22:24.000Z</time>
      </trkpt>
      <trkpt lat="47.1658" lon="-1.62485">
        <ele>66</ele>
        <time>2021-05-08T14:22:26.000Z</time>
      </trkpt>
      <trkpt lat="47.16588" lon="-1.62465">
        <ele>66</ele>
        <time>2021-05-08T14:22:28.000Z</time>
      </trkpt>
      <trkpt lat="47.16596" lon="-1.62446">
        <ele>65</ele>
        <time>2021-05-08T14:22:30.000Z</time>
      </trkpt>
      <trkpt lat="47.16604" lon="-1.62427">
        <ele>64</ele>
        <time>2021-05-08T14:22:32.000Z</time>
      </trkpt>
      <trkpt lat="47.16614" lon="-1.62409">
        <ele>64</ele>
        <time>2021-05-08T14:22:34.000Z</time>
      </trkpt>
      <trkpt lat="47.16624" lon="-1.62393">
        <ele>64</ele>
        <time>2021-05-08T14:22:36.000Z</time>
      </trkpt>
      <trkpt lat="47.16635" lon="-1.62378">
        <ele>64</ele>
        <time>2021-05-08T14:22:38.000Z</time>
      </trkpt>
      <trkpt lat="47.16648" lon="-1.62366">
        <ele>64</ele>
        <time>2021-05-08T14:22:40.000Z</time>
      </trkpt>
      <trkpt lat="47.16661" lon="-1.62358">
        <ele>64</ele>
        <time>2021-05-08T14:22:42.000Z</time>
      </trkpt>
      <trkpt lat="47.16676" lon="-1.62357">
        <ele>64</ele>
        <time>2021-05-08T14:22:44.000Z</time>
      </trkpt>
      <trkpt lat="47.16691" lon="-1.62363">
        <ele>63</ele>
        <time>2021-05-08T14:22:46.000Z</time>
      </trkpt>
      <trkpt lat="47.16703" lon="-1.62375">
        <ele>64</ele>
        <time>2021-05-08T14:22:48.000Z</time>
      </trkpt>
      <trkpt lat="47.16711" lon="-1.62391">
        <ele>64</ele>
        <time>2021-05-08T14:22:50.000Z</time>
      </trkpt>
      <trkpt lat="47.16719" lon="-1.62404">
        <ele>65</ele>
        <time>2021-05-08T14:22:52.000Z</time>
      </trkpt>
      <trkpt lat="47.16726" lon="-1.62415">
        <ele>65</ele>
        <time>2021-05-08T14:22:54.000Z</time>
      </trkpt>
      <trkpt lat="47.16725" lon="-1.62433">
        <ele>64</ele>
        <time>2021-05-08T14:22:56.000Z</time>
      </trkpt>
      <trkpt lat="47.16721" lon="-1.62449">
        <ele>64</ele>
        <time>2021-05-08T14:22:58.000Z</time>
      </trkpt>
      <trkpt lat="47.16718" lon="-1.62466">
        <ele>63</ele>
        <time>2021-05-08T14:23:00.000Z</time>
      </trkpt>
      <trkpt lat="47.16714" lon="-1.62482">
        <ele>63</ele>
        <time>2021-05-08T14:23:02.000Z</time>
      </trkpt>
      <trkpt lat="47.16718" lon="-1.62496">
        <ele>63</ele>
        <time>2021-05-08T14:23:04.000Z</time>
      </trkpt>
      <trkpt lat="47.1673" lon="-1.62501">
        <ele>63</ele>
        <time>2021-05-08T14:23:06.000Z</time>
      </trkpt>
      <trkpt lat="47.16742" lon="-1.62506">
        <ele>63</ele>
        <time>2021-05-08T14:23:08.000Z</time>
      </trkpt>
      <trkpt lat="47.16754" lon="-1.62512">
        <ele>63</ele>
        <time>2021-05-08T14:23:10.000Z</time>
      </trkpt>
      <trkpt lat="47.16765" lon="-1.62519">
        <ele>64</ele>
        <time>2021-05-08T14:23:12.000Z</time>
      </trkpt>
      <trkpt lat="47.16776" lon="-1.62526">
        <ele>64</ele>
        <time>2021-05-08T14:23:14.000Z</time>
      </trkpt>
      <trkpt lat="47.16786" lon="-1.62534">
        <ele>64</ele>
        <time>2021-05-08T14:23:16.000Z</time>
      </trkpt>
      <trkpt lat="47.16796" lon="-1.62541">
        <ele>64</ele>
        <time>2021-05-08T14:23:18.000Z</time>
      </trkpt>
      <trkpt lat="47.16806" lon="-1.62547">
        <ele>63</ele>
        <time>2021-05-08T14:23:20.000Z</time>
      </trkpt>
      <trkpt lat="47.16816" lon="-1.62557">
        <ele>63</ele>
        <time>2021-05-08T14:23:22.000Z</time>
      </trkpt>
      <trkpt lat="47.16824" lon="-1.62569">
        <ele>62</ele>
        <time>2021-05-08T14:23:24.000Z</time>
      </trkpt>
      <trkpt lat="47.16829" lon="-1.62584">
        <ele>61</ele>
        <time>2021-05-08T14:23:26.000Z</time>
      </trkpt>
      <trkpt lat="47.16823" lon="-1.62597">
        <ele>63</ele>
        <time>2021-05-08T14:23:28.000Z</time>
      </trkpt>
      <trkpt lat="47.16816" lon="-1.62611">
        <ele>64</ele>
        <time>2021-05-08T14:23:30.000Z</time>
      </trkpt>
      <trkpt lat="47.16809" lon="-1.62623">
        <ele>64</ele>
        <time>2021-05-08T14:23:32.000Z</time>
      </trkpt>
      <trkpt lat="47.16802" lon="-1.62634">
        <ele>64</ele>
        <time>2021-05-08T14:23:34.000Z</time>
      </trkpt>
      <trkpt lat="47.16795" lon="-1.62645">
        <ele>65</ele>
        <time>2021-05-08T14:23:36.000Z</time>
      </trkpt>
      <trkpt lat="47.16787" lon="-1.62659">
        <ele>65</ele>
        <time>2021-05-08T14:23:39.000Z</time>
      </trkpt>
      <trkpt lat="47.16777" lon="-1.62658">
        <ele>65</ele>
        <time>2021-05-08T14:23:44.000Z</time>
      </trkpt>
    </trkseg>
  </trk>
</gpx>